<?xml version='1.0' encoding='UTF-8'?><gpx version="1.1" creator="JPX - https://github.com/jenetics/jpx" xmlns="http://www.topografix.com/GPX/1/1"><trk><trkseg><trkpt lat="42.05792958718723" lon="13.101702823471905"><ele>786.0</ele><time>2026-04-24T09:08:08.999Z</time></trkpt><trkpt lat="42.05788111250054" lon="13.101818728505938"><ele>786.0</ele><time>2026-04-24T09:08:11.999Z</time></trkpt><trkpt lat="42.057806087586286" lon="13.101925582821035"><ele>786.0</ele><time>2026-04-24T09:08:13.999Z</time></trkpt><trkpt lat="42.05772050689537" lon="13.102023694753644"><ele>786.0</ele><time>2026-04-24T09:08:15.999Z</time></trkpt><trkpt lat="42.057618506949304" lon="13.10208849616191"><ele>786.0</ele><time>2026-04-24T09:08:17.999Z</time></trkpt><trkpt lat="42.05752299496887" lon="13.102186914552993"><ele>784.5999999999999</ele><time>2026-04-24T09:08:19.999Z</time></trkpt><trkpt lat="42.0574257874259" lon="13.102287468048614"><ele>783.2</ele><time>2026-04-24T09:08:21.999Z</time></trkpt><trkpt lat="42.05733051066126" lon="13.102384161087215"><ele>781.8</ele><time>2026-04-24T09:08:23.999Z</time></trkpt><trkpt lat="42.05724591808799" lon="13.102470011117717"><ele>780.4000000000001</ele><time>2026-04-24T09:08:25.999Z</time></trkpt><trkpt lat="42.05717593285328" lon="13.102536709078182"><ele>779.0</ele><time>2026-04-24T09:08:27.999Z</time></trkpt><trkpt lat="42.05709848300699" lon="13.102598161599117"><ele>779.0</ele><time>2026-04-24T09:08:30.999Z</time></trkpt><trkpt lat="42.05711454331122" lon="13.10276809838838"><ele>779.0</ele><time>2026-04-24T09:08:31.999Z</time></trkpt><trkpt lat="42.057088601652715" lon="13.102900781739866"><ele>779.0</ele><time>2026-04-24T09:08:33.999Z</time></trkpt><trkpt lat="42.05706056509551" lon="13.103002345238021"><ele>779.0</ele><time>2026-04-24T09:08:35.999Z</time></trkpt><trkpt lat="42.0570371783958" lon="13.103097410312994"><ele>779.0</ele><time>2026-04-24T09:08:38.999Z</time></trkpt><trkpt lat="42.056978365994794" lon="13.103213541337883"><ele>780.3333333333334</ele><time>2026-04-24T09:08:40.999Z</time></trkpt><trkpt lat="42.05695267532739" lon="13.1033103519239"><ele>781.6666666666667</ele><time>2026-04-24T09:08:42.999Z</time></trkpt><trkpt lat="42.05691668043305" lon="13.103432652300183"><ele>783.0</ele><time>2026-04-24T09:08:43.999Z</time></trkpt><trkpt lat="42.05689140179656" lon="13.103529068205356"><ele>784.3333333333333</ele><time>2026-04-24T09:08:44.999Z</time></trkpt><trkpt lat="42.05686554800162" lon="13.103627369615156"><ele>785.6666666666666</ele><time>2026-04-24T09:08:45.999Z</time></trkpt><trkpt lat="42.056842593524095" lon="13.103712545474565"><ele>787.0</ele><time>2026-04-24T09:08:46.999Z</time></trkpt><trkpt lat="42.05679632510668" lon="13.103860376326784"><ele>786.9999999999999</ele><time>2026-04-24T09:08:48.999Z</time></trkpt><trkpt lat="42.056753311502376" lon="13.103967508022768"><ele>787.0</ele><time>2026-04-24T09:08:50.999Z</time></trkpt><trkpt lat="42.05671677000584" lon="13.104051868958054"><ele>787.0</ele><time>2026-04-24T09:09:28.999Z</time></trkpt><trkpt lat="42.05665704412377" lon="13.10418322934019"><ele>787.0</ele><time>2026-04-24T09:09:30.999Z</time></trkpt><trkpt lat="42.05661632157499" lon="13.104271548559039"><ele>786.9999999999999</ele><time>2026-04-24T09:09:31.999Z</time></trkpt><trkpt lat="42.05658737959915" lon="13.104374886236455"><ele>787.0</ele><time>2026-04-24T09:09:32.999Z</time></trkpt><trkpt lat="42.05654000713239" lon="13.104469201173087"><ele>786.0</ele><time>2026-04-24T09:09:33.999Z</time></trkpt><trkpt lat="42.05649399547686" lon="13.10455767818108"><ele>785.0</ele><time>2026-04-24T09:09:34.999Z</time></trkpt><trkpt lat="42.05644539900158" lon="13.10466694074531"><ele>784.0</ele><time>2026-04-24T09:09:35.999Z</time></trkpt><trkpt lat="42.05639366630913" lon="13.104775764593716"><ele>783.0</ele><time>2026-04-24T09:09:36.999Z</time></trkpt><trkpt lat="42.056348530113645" lon="13.104889964993413"><ele>782.0</ele><time>2026-04-24T09:09:37.999Z</time></trkpt><trkpt lat="42.05629924229871" lon="13.104995144136344"><ele>783.6666666666667</ele><time>2026-04-24T09:09:38.999Z</time></trkpt><trkpt lat="42.056254477347586" lon="13.10509878968987"><ele>785.3333333333334</ele><time>2026-04-24T09:09:39.999Z</time></trkpt><trkpt lat="42.05620853062311" lon="13.105209204049528"><ele>787.0</ele><time>2026-04-24T09:09:40.999Z</time></trkpt><trkpt lat="42.056165201005925" lon="13.105306250879117"><ele>788.6666666666667</ele><time>2026-04-24T09:09:41.999Z</time></trkpt><trkpt lat="42.05611908520392" lon="13.105404402795918"><ele>790.3333333333334</ele><time>2026-04-24T09:09:42.999Z</time></trkpt><trkpt lat="42.05607234650063" lon="13.105476691646906"><ele>792.0</ele><time>2026-04-24T09:09:43.999Z</time></trkpt><trkpt lat="42.05602967114571" lon="13.10555318839369"><ele>792.0</ele><time>2026-04-24T09:09:44.999Z</time></trkpt><trkpt lat="42.05595744411873" lon="13.105680617372027"><ele>792.0</ele><time>2026-04-24T09:09:46.999Z</time></trkpt><trkpt lat="42.056056487485606" lon="13.10579874628538"><ele>792.0</ele><time>2026-04-24T09:09:49.999Z</time></trkpt><trkpt lat="42.05610211871577" lon="13.105731117052946"><ele>792.0</ele><time>2026-04-24T09:09:50.999Z</time></trkpt><trkpt lat="42.05614139035503" lon="13.105638985645813"><ele>792.0</ele><time>2026-04-24T09:09:51.999Z</time></trkpt><trkpt lat="42.0561902123834" lon="13.105527215343509"><ele>792.0</ele><time>2026-04-24T09:09:52.999Z</time></trkpt><trkpt lat="42.05625939053868" lon="13.105409302329628"><ele>792.0</ele><time>2026-04-24T09:09:53.999Z</time></trkpt><trkpt lat="42.056344873304624" lon="13.105305591187356"><ele>792.0</ele><time>2026-04-24T09:09:54.999Z</time></trkpt><trkpt lat="42.05641325156689" lon="13.105211778142431"><ele>792.0</ele><time>2026-04-24T09:09:55.999Z</time></trkpt><trkpt lat="42.056482045909085" lon="13.1051072927505"><ele>792.0</ele><time>2026-04-24T09:09:56.999Z</time></trkpt><trkpt lat="42.05656179315443" lon="13.105006427283067"><ele>793.2</ele><time>2026-04-24T09:09:57.999Z</time></trkpt><trkpt lat="42.0566353230537" lon="13.104909437681282"><ele>794.4000000000001</ele><time>2026-04-24T09:09:58.999Z</time></trkpt><trkpt lat="42.05670549116591" lon="13.104816039130228"><ele>795.5999999999999</ele><time>2026-04-24T09:09:59.999Z</time></trkpt><trkpt lat="42.0567708363276" lon="13.104717431773725"><ele>796.8</ele><time>2026-04-24T09:10:00.999Z</time></trkpt><trkpt lat="42.05684489852578" lon="13.104638124613448"><ele>798.0</ele><time>2026-04-24T09:10:01.999Z</time></trkpt><trkpt lat="42.05691077192612" lon="13.10455062485753"><ele>798.0</ele><time>2026-04-24T09:10:02.999Z</time></trkpt><trkpt lat="42.05697585737884" lon="13.104462246102958"><ele>798.0</ele><time>2026-04-24T09:10:03.999Z</time></trkpt><trkpt lat="42.057056269327276" lon="13.104412974610971"><ele>798.0</ele><time>2026-04-24T09:10:04.999Z</time></trkpt><trkpt lat="42.05713184195288" lon="13.104360597667297"><ele>798.0</ele><time>2026-04-24T09:10:05.999Z</time></trkpt><trkpt lat="42.057211336195465" lon="13.104311135073818"><ele>798.0</ele><time>2026-04-24T09:10:06.999Z</time></trkpt><trkpt lat="42.05728959013636" lon="13.10424496692804"><ele>798.0</ele><time>2026-04-24T09:10:07.999Z</time></trkpt><trkpt lat="42.057367695248615" lon="13.104186476504392"><ele>798.0</ele><time>2026-04-24T09:10:08.999Z</time></trkpt><trkpt lat="42.05744634249502" lon="13.10412175733199"><ele>798.0</ele><time>2026-04-24T09:10:09.999Z</time></trkpt><trkpt lat="42.05753869406791" lon="13.104068479552163"><ele>798.0</ele><time>2026-04-24T09:10:10.999Z</time></trkpt><trkpt lat="42.057612720106185" lon="13.103996673442884"><ele>798.0</ele><time>2026-04-24T09:10:11.999Z</time></trkpt><trkpt lat="42.057692126598035" lon="13.10392992537091"><ele>798.0</ele><time>2026-04-24T09:10:12.999Z</time></trkpt><trkpt lat="42.05777113423817" lon="13.103906308125769"><ele>799.8</ele><time>2026-04-24T09:10:13.999Z</time></trkpt><trkpt lat="42.057842638408516" lon="13.1038553326114"><ele>801.5999999999999</ele><time>2026-04-24T09:10:14.999Z</time></trkpt><trkpt lat="42.057929465922925" lon="13.103768786346023"><ele>803.4000000000001</ele><time>2026-04-24T09:10:15.999Z</time></trkpt><trkpt lat="42.058022147595594" lon="13.103691870565477"><ele>805.2</ele><time>2026-04-24T09:10:16.998Z</time></trkpt><trkpt lat="42.05810822321664" lon="13.103629512606087"><ele>807.0</ele><time>2026-04-24T09:10:17.998Z</time></trkpt><trkpt lat="42.05817520361643" lon="13.103572747806407"><ele>807.0</ele><time>2026-04-24T09:10:18.998Z</time></trkpt><trkpt lat="42.058154524227156" lon="13.103772124051085"><ele>807.0</ele><time>2026-04-24T09:10:25.998Z</time></trkpt><trkpt lat="42.05813021401218" lon="13.103850993181931"><ele>807.0</ele><time>2026-04-24T09:10:26.998Z</time></trkpt><trkpt lat="42.05807069696384" lon="13.103940050591909"><ele>807.0</ele><time>2026-04-24T09:10:27.998Z</time></trkpt><trkpt lat="42.058010168685776" lon="13.104008275367958"><ele>807.0</ele><time>2026-04-24T09:10:28.998Z</time></trkpt><trkpt lat="42.05794363559979" lon="13.104097290613144"><ele>811.5</ele><time>2026-04-24T09:10:29.998Z</time></trkpt><trkpt lat="42.057863118466656" lon="13.104203012602364"><ele>816.0</ele><time>2026-04-24T09:10:30.999Z</time></trkpt><trkpt lat="42.05777316821725" lon="13.104318270476117"><ele>820.5</ele><time>2026-04-24T09:10:31.999Z</time></trkpt><trkpt lat="42.05768610636536" lon="13.104440255345994"><ele>825.0</ele><time>2026-04-24T09:10:32.999Z</time></trkpt><trkpt lat="42.05758477904675" lon="13.104552470979053"><ele>825.0</ele><time>2026-04-24T09:10:33.999Z</time></trkpt><trkpt lat="42.057500928720955" lon="13.104687189331404"><ele>825.0</ele><time>2026-04-24T09:10:34.999Z</time></trkpt><trkpt lat="42.05739514433737" lon="13.10478138909468"><ele>825.0</ele><time>2026-04-24T09:10:35.999Z</time></trkpt><trkpt lat="42.057282762125205" lon="13.104864350434893"><ele>825.0</ele><time>2026-04-24T09:10:36.999Z</time></trkpt><trkpt lat="42.057180656400995" lon="13.104932753579858"><ele>822.75</ele><time>2026-04-24T09:10:37.999Z</time></trkpt><trkpt lat="42.05710509909654" lon="13.105034387744842"><ele>820.5</ele><time>2026-04-24T09:10:38.999Z</time></trkpt><trkpt lat="42.05700324284734" lon="13.105139518896953"><ele>818.25</ele><time>2026-04-24T09:10:39.999Z</time></trkpt><trkpt lat="42.05693836509649" lon="13.105289558788634"><ele>816.0</ele><time>2026-04-24T09:10:40.999Z</time></trkpt><trkpt lat="42.05688383264556" lon="13.10545609076104"><ele>816.0</ele><time>2026-04-24T09:10:41.999Z</time></trkpt><trkpt lat="42.056829397587634" lon="13.105626460232145"><ele>816.0</ele><time>2026-04-24T09:10:42.999Z</time></trkpt><trkpt lat="42.05676830610785" lon="13.105792868134673"><ele>816.0</ele><time>2026-04-24T09:10:43.999Z</time></trkpt><trkpt lat="42.05671409455671" lon="13.1059605865876"><ele>816.0</ele><time>2026-04-24T09:10:44.999Z</time></trkpt><trkpt lat="42.056638656290104" lon="13.106133813868961"><ele>814.25</ele><time>2026-04-24T09:10:45.999Z</time></trkpt><trkpt lat="42.05659218036832" lon="13.106289843061223"><ele>812.5</ele><time>2026-04-24T09:10:46.999Z</time></trkpt><trkpt lat="42.056575062469896" lon="13.106461400745516"><ele>810.75</ele><time>2026-04-24T09:10:47.999Z</time></trkpt><trkpt lat="42.05653139159807" lon="13.106625812303225"><ele>809.0</ele><time>2026-04-24T09:10:48.999Z</time></trkpt><trkpt lat="42.05651829107458" lon="13.106798143732842"><ele>813.0</ele><time>2026-04-24T09:10:49.999Z</time></trkpt><trkpt lat="42.05647801429492" lon="13.106981175681977"><ele>817.0</ele><time>2026-04-24T09:10:50.999Z</time></trkpt><trkpt lat="42.0564219122591" lon="13.107116052451817"><ele>821.0</ele><time>2026-04-24T09:10:51.999Z</time></trkpt><trkpt lat="42.05635038385695" lon="13.107256045142485"><ele>825.0</ele><time>2026-04-24T09:10:52.999Z</time></trkpt><trkpt lat="42.05628992166342" lon="13.107391106361085"><ele>828.5</ele><time>2026-04-24T09:10:53.999Z</time></trkpt><trkpt lat="42.05622124779616" lon="13.107496416498694"><ele>832.0</ele><time>2026-04-24T09:10:54.999Z</time></trkpt><trkpt lat="42.05619462508149" lon="13.107636813083563"><ele>835.5</ele><time>2026-04-24T09:10:55.999Z</time></trkpt><trkpt lat="42.05619962044275" lon="13.107806075298878"><ele>839.0</ele><time>2026-04-24T09:10:56.999Z</time></trkpt><trkpt lat="42.05622701960514" lon="13.107974627268415"><ele>839.0</ele><time>2026-04-24T09:10:57.999Z</time></trkpt><trkpt lat="42.05623480817081" lon="13.108121614640128"><ele>839.0</ele><time>2026-04-24T09:10:58.999Z</time></trkpt><trkpt lat="42.05621491231007" lon="13.10825576186894"><ele>839.0</ele><time>2026-04-24T09:10:59.999Z</time></trkpt><trkpt lat="42.05619416607335" lon="13.108363762628306"><ele>839.0</ele><time>2026-04-24T09:11:00.999Z</time></trkpt><trkpt lat="42.05613559015011" lon="13.108442925465884"><ele>839.0</ele><time>2026-04-24T09:11:01.999Z</time></trkpt><trkpt lat="42.056024382840185" lon="13.108438049937382"><ele>842.8000000000001</ele><time>2026-04-24T09:11:02.999Z</time></trkpt><trkpt lat="42.05592887558231" lon="13.10844617508317"><ele>846.6</ele><time>2026-04-24T09:11:03.999Z</time></trkpt><trkpt lat="42.05583230535415" lon="13.108475974874008"><ele>850.4</ele><time>2026-04-24T09:11:04.999Z</time></trkpt><trkpt lat="42.05575624138186" lon="13.108571181825003"><ele>854.2</ele><time>2026-04-24T09:11:05.999Z</time></trkpt><trkpt lat="42.055687916482626" lon="13.108717358119874"><ele>858.0</ele><time>2026-04-24T09:11:06.999Z</time></trkpt><trkpt lat="42.05563334678249" lon="13.108851200832182"><ele>858.8</ele><time>2026-04-24T09:11:07.999Z</time></trkpt><trkpt lat="42.05557184801903" lon="13.10898922608021"><ele>859.5999999999999</ele><time>2026-04-24T09:11:08.999Z</time></trkpt><trkpt lat="42.05551047950803" lon="13.109101420746684"><ele>860.4000000000001</ele><time>2026-04-24T09:11:09.999Z</time></trkpt><trkpt lat="42.05546995349963" lon="13.109189345856597"><ele>861.2</ele><time>2026-04-24T09:11:10.999Z</time></trkpt><trkpt lat="42.05544663429911" lon="13.109280470560234"><ele>862.0</ele><time>2026-04-24T09:11:11.999Z</time></trkpt><trkpt lat="42.05549793316544" lon="13.109420845843001"><ele>863.0</ele><time>2026-04-24T09:11:13.999Z</time></trkpt><trkpt lat="42.05563287604047" lon="13.10933442848094"><ele>864.0</ele><time>2026-04-24T09:11:15.999Z</time></trkpt><trkpt lat="42.05569613052961" lon="13.10924355665813"><ele>865.0</ele><time>2026-04-24T09:11:16.999Z</time></trkpt><trkpt lat="42.05576230661472" lon="13.109124209035114"><ele>866.0</ele><time>2026-04-24T09:11:17.999Z</time></trkpt><trkpt lat="42.05583222727484" lon="13.109014421915722"><ele>867.1999999999999</ele><time>2026-04-24T09:11:18.999Z</time></trkpt><trkpt lat="42.05589833254614" lon="13.108947045773796"><ele>868.3999999999999</ele><time>2026-04-24T09:11:19.999Z</time></trkpt><trkpt lat="42.05599121232786" lon="13.108917633124028"><ele>869.6</ele><time>2026-04-24T09:11:21.999Z</time></trkpt><trkpt lat="42.056087503217746" lon="13.109009288803144"><ele>870.8</ele><time>2026-04-24T09:11:22.999Z</time></trkpt><trkpt lat="42.05617208478063" lon="13.109092986459409"><ele>872.0</ele><time>2026-04-24T09:11:23.999Z</time></trkpt><trkpt lat="42.056260741684355" lon="13.109161015131392"><ele>872.0</ele><time>2026-04-24T09:11:24.999Z</time></trkpt><trkpt lat="42.056322229567705" lon="13.10922148504376"><ele>872.0</ele><time>2026-04-24T09:11:25.999Z</time></trkpt><trkpt lat="42.056382949551356" lon="13.109272235852416"><ele>872.0</ele><time>2026-04-24T09:11:26.999Z</time></trkpt><trkpt lat="42.056508804596675" lon="13.109378759211317"><ele>872.0</ele><time>2026-04-24T09:11:27.999Z</time></trkpt><trkpt lat="42.05658645386886" lon="13.109358556497574"><ele>872.0</ele><time>2026-04-24T09:11:28.999Z</time></trkpt><trkpt lat="42.056679427485676" lon="13.109315749578395"><ele>871.4000000000001</ele><time>2026-04-24T09:11:29.999Z</time></trkpt><trkpt lat="42.05679182872624" lon="13.10925132691033"><ele>870.8000000000001</ele><time>2026-04-24T09:11:30.999Z</time></trkpt><trkpt lat="42.05690002977195" lon="13.109206046591245"><ele>870.2</ele><time>2026-04-24T09:11:31.999Z</time></trkpt><trkpt lat="42.05698912624849" lon="13.10915103325383"><ele>869.6</ele><time>2026-04-24T09:11:32.999Z</time></trkpt><trkpt lat="42.057062350716045" lon="13.109069173653571"><ele>869.0</ele><time>2026-04-24T09:11:33.999Z</time></trkpt><trkpt lat="42.05711163507834" lon="13.108954825066114"><ele>869.0</ele><time>2026-04-24T09:11:34.999Z</time></trkpt><trkpt lat="42.05715041842661" lon="13.108815757149113"><ele>869.0</ele><time>2026-04-24T09:11:35.999Z</time></trkpt><trkpt lat="42.05720173714338" lon="13.108678324207963"><ele>869.0</ele><time>2026-04-24T09:11:36.999Z</time></trkpt><trkpt lat="42.05726344289695" lon="13.10854762171278"><ele>869.0</ele><time>2026-04-24T09:11:37.999Z</time></trkpt><trkpt lat="42.05733144866579" lon="13.1084206234048"><ele>869.0</ele><time>2026-04-24T09:11:38.999Z</time></trkpt><trkpt lat="42.05740472228267" lon="13.108297030837017"><ele>869.0</ele><time>2026-04-24T09:11:39.999Z</time></trkpt><trkpt lat="42.057476790007414" lon="13.108176652174164"><ele>869.0</ele><time>2026-04-24T09:11:40.999Z</time></trkpt><trkpt lat="42.057545436609765" lon="13.10805679848074"><ele>869.0</ele><time>2026-04-24T09:11:41.999Z</time></trkpt><trkpt lat="42.05761165997708" lon="13.107934994764827"><ele>871.0</ele><time>2026-04-24T09:11:42.999Z</time></trkpt><trkpt lat="42.057678842985204" lon="13.107808877354222"><ele>873.0000000000001</ele><time>2026-04-24T09:11:43.999Z</time></trkpt><trkpt lat="42.05774465226941" lon="13.10769179275601"><ele>875.0000000000001</ele><time>2026-04-24T09:11:44.999Z</time></trkpt><trkpt lat="42.057811998717305" lon="13.107573771640578"><ele>877.0</ele><time>2026-04-24T09:11:45.999Z</time></trkpt><trkpt lat="42.057889420624306" lon="13.107464335036765"><ele>879.0</ele><time>2026-04-24T09:11:46.999Z</time></trkpt><trkpt lat="42.05796685253566" lon="13.107358281544537"><ele>879.0</ele><time>2026-04-24T09:11:47.999Z</time></trkpt><trkpt lat="42.05804707660398" lon="13.10725506251346"><ele>879.0000000000001</ele><time>2026-04-24T09:11:48.999Z</time></trkpt><trkpt lat="42.058134159649704" lon="13.107138428500201"><ele>879.0000000000001</ele><time>2026-04-24T09:11:49.999Z</time></trkpt><trkpt lat="42.05821752462287" lon="13.107055166714575"><ele>879.0</ele><time>2026-04-24T09:11:50.999Z</time></trkpt><trkpt lat="42.05830178797344" lon="13.106968814334358"><ele>879.0</ele><time>2026-04-24T09:11:51.999Z</time></trkpt><trkpt lat="42.05839428024557" lon="13.106842331862806"><ele>880.0</ele><time>2026-04-24T09:11:52.999Z</time></trkpt><trkpt lat="42.0584751307799" lon="13.106743088264407"><ele>881.0</ele><time>2026-04-24T09:11:53.999Z</time></trkpt><trkpt lat="42.05854775566142" lon="13.10665721441057"><ele>882.0</ele><time>2026-04-24T09:11:54.999Z</time></trkpt><trkpt lat="42.058617797564935" lon="13.106572605818693"><ele>883.0</ele><time>2026-04-24T09:11:55.999Z</time></trkpt><trkpt lat="42.05867360602603" lon="13.106501162306083"><ele>884.0</ele><time>2026-04-24T09:11:56.999Z</time></trkpt><trkpt lat="42.058728971265445" lon="13.10645793987688"><ele>885.0</ele><time>2026-04-24T09:11:57.999Z</time></trkpt><trkpt lat="42.05879289578973" lon="13.10644643121922"><ele>885.0</ele><time>2026-04-24T09:11:58.999Z</time></trkpt><trkpt lat="42.0588603912541" lon="13.10657221910805"><ele>885.0</ele><time>2026-04-24T09:12:00.999Z</time></trkpt><trkpt lat="42.05883296218849" lon="13.106653119962454"><ele>885.0</ele><time>2026-04-24T09:12:01.999Z</time></trkpt><trkpt lat="42.05874816101563" lon="13.106668507044066"><ele>885.0</ele><time>2026-04-24T09:12:02.999Z</time></trkpt><trkpt lat="42.05867558588925" lon="13.106693542093112"><ele>885.0</ele><time>2026-04-24T09:12:03.999Z</time></trkpt><trkpt lat="42.058625891488724" lon="13.106776218829504"><ele>885.0</ele><time>2026-04-24T09:12:04.999Z</time></trkpt><trkpt lat="42.05858502272955" lon="13.106854547142166"><ele>887.4</ele><time>2026-04-24T09:12:05.999Z</time></trkpt><trkpt lat="42.05856843635514" lon="13.106942851384662"><ele>889.8</ele><time>2026-04-24T09:12:06.999Z</time></trkpt><trkpt lat="42.05852266567212" lon="13.107088263506617"><ele>892.2</ele><time>2026-04-24T09:12:08.998Z</time></trkpt><trkpt lat="42.05847992979718" lon="13.10725246025193"><ele>894.6</ele><time>2026-04-24T09:12:09.998Z</time></trkpt><trkpt lat="42.05841660079152" lon="13.107403163698015"><ele>897.0</ele><time>2026-04-24T09:12:10.998Z</time></trkpt><trkpt lat="42.05837491310215" lon="13.107523728556565"><ele>898.75</ele><time>2026-04-24T09:12:11.998Z</time></trkpt><trkpt lat="42.05834355967793" lon="13.107669419839263"><ele>900.5</ele><time>2026-04-24T09:12:12.998Z</time></trkpt><trkpt lat="42.05830002279328" lon="13.107824922847408"><ele>902.25</ele><time>2026-04-24T09:12:13.998Z</time></trkpt><trkpt lat="42.058258085077256" lon="13.107986238165772"><ele>904.0</ele><time>2026-04-24T09:12:14.998Z</time></trkpt><trkpt lat="42.058212197360426" lon="13.108141289489016"><ele>901.0</ele><time>2026-04-24T09:12:15.998Z</time></trkpt><trkpt lat="42.05817573013987" lon="13.108299472608032"><ele>898.0</ele><time>2026-04-24T09:12:16.998Z</time></trkpt><trkpt lat="42.05814080178747" lon="13.10845425515464"><ele>895.0</ele><time>2026-04-24T09:12:17.998Z</time></trkpt><trkpt lat="42.05810926864493" lon="13.108606009802125"><ele>892.0</ele><time>2026-04-24T09:12:18.998Z</time></trkpt><trkpt lat="42.05808763744592" lon="13.108761165471112"><ele>892.0</ele><time>2026-04-24T09:12:19.998Z</time></trkpt><trkpt lat="42.05805067731978" lon="13.108903034837232"><ele>892.0</ele><time>2026-04-24T09:12:20.998Z</time></trkpt><trkpt lat="42.05802267503813" lon="13.109056589420046"><ele>892.0</ele><time>2026-04-24T09:12:21.998Z</time></trkpt><trkpt lat="42.057993354548564" lon="13.109203425408744"><ele>892.0</ele><time>2026-04-24T09:12:22.998Z</time></trkpt><trkpt lat="42.057972040619454" lon="13.109354930515716"><ele>893.6</ele><time>2026-04-24T09:12:23.998Z</time></trkpt><trkpt lat="42.057936755134094" lon="13.109489739667504"><ele>895.2</ele><time>2026-04-24T09:12:24.998Z</time></trkpt><trkpt lat="42.057906029630516" lon="13.109609534091486"><ele>896.8</ele><time>2026-04-24T09:12:25.998Z</time></trkpt><trkpt lat="42.05788764048443" lon="13.1097129618574"><ele>898.4</ele><time>2026-04-24T09:12:26.998Z</time></trkpt><trkpt lat="42.05790775199014" lon="13.109860828846331"><ele>900.0</ele><time>2026-04-24T09:12:28.998Z</time></trkpt><trkpt lat="42.058053838411496" lon="13.109816007810236"><ele>900.0</ele><time>2026-04-24T09:12:30.998Z</time></trkpt><trkpt lat="42.058090573945336" lon="13.109617369138208"><ele>900.0</ele><time>2026-04-24T09:12:32.998Z</time></trkpt><trkpt lat="42.058104991383914" lon="13.109504931445118"><ele>900.0</ele><time>2026-04-24T09:12:33.998Z</time></trkpt><trkpt lat="42.05815742608439" lon="13.109403652583326"><ele>900.0</ele><time>2026-04-24T09:12:34.998Z</time></trkpt><trkpt lat="42.058248687841875" lon="13.109328381615803"><ele>900.0</ele><time>2026-04-24T09:12:35.999Z</time></trkpt><trkpt lat="42.0583288435199" lon="13.109223448390338"><ele>902.1666666666666</ele><time>2026-04-24T09:12:36.999Z</time></trkpt><trkpt lat="42.05841147921228" lon="13.109137019628411"><ele>904.3333333333333</ele><time>2026-04-24T09:12:37.999Z</time></trkpt><trkpt lat="42.05847861293626" lon="13.109051672993546"><ele>906.5</ele><time>2026-04-24T09:12:38.999Z</time></trkpt><trkpt lat="42.05853688216949" lon="13.108977903736058"><ele>908.6666666666666</ele><time>2026-04-24T09:12:39.999Z</time></trkpt><trkpt lat="42.05859122440602" lon="13.108925026211043"><ele>910.8333333333333</ele><time>2026-04-24T09:12:40.999Z</time></trkpt><trkpt lat="42.0586413753332" lon="13.10883351836844"><ele>913.0</ele><time>2026-04-24T09:12:41.999Z</time></trkpt><trkpt lat="42.05867542701531" lon="13.10874463849586"><ele>913.0</ele><time>2026-04-24T09:12:42.999Z</time></trkpt><trkpt lat="42.05875513001195" lon="13.108630440310156"><ele>913.0</ele><time>2026-04-24T09:12:44.999Z</time></trkpt><trkpt lat="42.05885627360018" lon="13.10874923618009"><ele>913.0</ele><time>2026-04-24T09:12:48Z</time></trkpt><trkpt lat="42.058774112258426" lon="13.108886291697129"><ele>913.0</ele><time>2026-04-24T09:12:50Z</time></trkpt><trkpt lat="42.05875579780371" lon="13.108997741740739"><ele>915.2</ele><time>2026-04-24T09:12:51Z</time></trkpt><trkpt lat="42.058723309864504" lon="13.109107232851414"><ele>917.4</ele><time>2026-04-24T09:12:52Z</time></trkpt><trkpt lat="42.05867801830509" lon="13.109212338912121"><ele>919.6000000000001</ele><time>2026-04-24T09:12:53Z</time></trkpt><trkpt lat="42.0586615384841" lon="13.109358375338273"><ele>921.8000000000001</ele><time>2026-04-24T09:12:54Z</time></trkpt><trkpt lat="42.058631746585625" lon="13.109498140964055"><ele>924.0</ele><time>2026-04-24T09:12:55Z</time></trkpt><trkpt lat="42.05860434907137" lon="13.109641361035232"><ele>924.0</ele><time>2026-04-24T09:12:56Z</time></trkpt><trkpt lat="42.0585583433019" lon="13.109781122427593"><ele>924.0000000000001</ele><time>2026-04-24T09:12:57Z</time></trkpt><trkpt lat="42.05851750464046" lon="13.109911789257174"><ele>924.0000000000001</ele><time>2026-04-24T09:12:58Z</time></trkpt><trkpt lat="42.058467170087965" lon="13.110040104686663"><ele>924.0</ele><time>2026-04-24T09:12:59Z</time></trkpt><trkpt lat="42.05841239178072" lon="13.110167702898082"><ele>924.0</ele><time>2026-04-24T09:13:00Z</time></trkpt><trkpt lat="42.05835714067049" lon="13.110286853470654"><ele>922.4000000000001</ele><time>2026-04-24T09:13:01Z</time></trkpt><trkpt lat="42.05830048309382" lon="13.110400829988524"><ele>920.8000000000001</ele><time>2026-04-24T09:13:02Z</time></trkpt><trkpt lat="42.05824058383582" lon="13.110500915216734"><ele>919.1999999999999</ele><time>2026-04-24T09:13:03Z</time></trkpt><trkpt lat="42.0581789471657" lon="13.110601582125849"><ele>917.5999999999999</ele><time>2026-04-24T09:13:04Z</time></trkpt><trkpt lat="42.05807071247312" lon="13.110657891855478"><ele>916.0</ele><time>2026-04-24T09:13:05Z</time></trkpt><trkpt lat="42.05799784791455" lon="13.110761835860515"><ele>919.5999999999999</ele><time>2026-04-24T09:13:06Z</time></trkpt><trkpt lat="42.05791135345927" lon="13.11085912295322"><ele>923.1999999999999</ele><time>2026-04-24T09:13:07Z</time></trkpt><trkpt lat="42.05782805686655" lon="13.110956151183832"><ele>926.8000000000001</ele><time>2026-04-24T09:13:08Z</time></trkpt><trkpt lat="42.05776713489064" lon="13.11108379077426"><ele>930.4000000000001</ele><time>2026-04-24T09:13:09Z</time></trkpt><trkpt lat="42.057724094617214" lon="13.111219574890914"><ele>934.0</ele><time>2026-04-24T09:13:10Z</time></trkpt><trkpt lat="42.057668833509986" lon="13.111344700257986"><ele>934.0</ele><time>2026-04-24T09:13:11Z</time></trkpt><trkpt lat="42.05761708590724" lon="13.111485173892165"><ele>934.0000000000001</ele><time>2026-04-24T09:13:12Z</time></trkpt><trkpt lat="42.05756539941045" lon="13.11160665720193"><ele>934.0000000000001</ele><time>2026-04-24T09:13:13Z</time></trkpt><trkpt lat="42.057504486660626" lon="13.111730612704573"><ele>934.0</ele><time>2026-04-24T09:13:14Z</time></trkpt><trkpt lat="42.05742656319679" lon="13.11184088625601"><ele>934.0</ele><time>2026-04-24T09:13:15Z</time></trkpt><trkpt lat="42.05736545652051" lon="13.11195478384141"><ele>934.2</ele><time>2026-04-24T09:13:16Z</time></trkpt><trkpt lat="42.05730237487367" lon="13.112062103497072"><ele>934.4000000000001</ele><time>2026-04-24T09:13:17Z</time></trkpt><trkpt lat="42.05722093260873" lon="13.112175157418378"><ele>934.6</ele><time>2026-04-24T09:13:18Z</time></trkpt><trkpt lat="42.05713770365031" lon="13.112288593818809"><ele>934.8</ele><time>2026-04-24T09:13:19Z</time></trkpt><trkpt lat="42.05706550136805" lon="13.112400871263743"><ele>935.0</ele><time>2026-04-24T09:13:20Z</time></trkpt><trkpt lat="42.05700993979814" lon="13.112530445083006"><ele>934.6</ele><time>2026-04-24T09:13:21Z</time></trkpt><trkpt lat="42.05692842106021" lon="13.11262069066051"><ele>934.2</ele><time>2026-04-24T09:13:22Z</time></trkpt><trkpt lat="42.05685850116892" lon="13.112733274451948"><ele>933.8</ele><time>2026-04-24T09:13:23Z</time></trkpt><trkpt lat="42.05677053698385" lon="13.112813341269446"><ele>933.4</ele><time>2026-04-24T09:13:24Z</time></trkpt><trkpt lat="42.0566839973006" lon="13.112910235366536"><ele>933.0</ele><time>2026-04-24T09:13:25Z</time></trkpt><trkpt lat="42.05659449263692" lon="13.113003063100455"><ele>933.0</ele><time>2026-04-24T09:13:26Z</time></trkpt><trkpt lat="42.05650344836037" lon="13.11309534976399"><ele>933.0</ele><time>2026-04-24T09:13:27Z</time></trkpt><trkpt lat="42.056408557150405" lon="13.11319153585542"><ele>933.0</ele><time>2026-04-24T09:13:28Z</time></trkpt><trkpt lat="42.056314451455385" lon="13.113287138961203"><ele>933.0</ele><time>2026-04-24T09:13:29Z</time></trkpt><trkpt lat="42.05622075744419" lon="13.11338290171729"><ele>939.0</ele><time>2026-04-24T09:13:30Z</time></trkpt><trkpt lat="42.05612834657586" lon="13.11349879107442"><ele>945.0</ele><time>2026-04-24T09:13:31Z</time></trkpt><trkpt lat="42.05603058855454" lon="13.113595664208013"><ele>951.0</ele><time>2026-04-24T09:13:32Z</time></trkpt><trkpt lat="42.05594196593813" lon="13.113713983107754"><ele>957.0</ele><time>2026-04-24T09:13:33Z</time></trkpt><trkpt lat="42.05585399529145" lon="13.113831008126505"><ele>956.0</ele><time>2026-04-24T09:13:34Z</time></trkpt><trkpt lat="42.05576828882055" lon="13.113965754431007"><ele>955.0</ele><time>2026-04-24T09:13:35Z</time></trkpt><trkpt lat="42.055699980714344" lon="13.114113611254531"><ele>954.0</ele><time>2026-04-24T09:13:36Z</time></trkpt><trkpt lat="42.055616537507355" lon="13.11424276315746"><ele>953.0</ele><time>2026-04-24T09:13:37Z</time></trkpt><trkpt lat="42.05554296516073" lon="13.114386678121404"><ele>953.0</ele><time>2026-04-24T09:13:38Z</time></trkpt><trkpt lat="42.05547043820499" lon="13.114537993693977"><ele>953.0</ele><time>2026-04-24T09:13:39Z</time></trkpt><trkpt lat="42.055419358217605" lon="13.114702109681476"><ele>953.0</ele><time>2026-04-24T09:13:40Z</time></trkpt><trkpt lat="42.05534236266505" lon="13.114850071291526"><ele>953.0</ele><time>2026-04-24T09:13:41Z</time></trkpt><trkpt lat="42.055280447394566" lon="13.115014733709254"><ele>957.5</ele><time>2026-04-24T09:13:42Z</time></trkpt><trkpt lat="42.05523689493454" lon="13.115178353449682"><ele>962.0</ele><time>2026-04-24T09:13:43Z</time></trkpt><trkpt lat="42.05516405210236" lon="13.115311898210685"><ele>966.5</ele><time>2026-04-24T09:13:44Z</time></trkpt><trkpt lat="42.05509545669849" lon="13.115451896712731"><ele>971.0</ele><time>2026-04-24T09:13:45Z</time></trkpt><trkpt lat="42.05502884363805" lon="13.115595714119143"><ele>973.75</ele><time>2026-04-24T09:13:46Z</time></trkpt><trkpt lat="42.05497357981363" lon="13.115748714385886"><ele>976.5</ele><time>2026-04-24T09:13:47Z</time></trkpt><trkpt lat="42.05491300686095" lon="13.115886433334905"><ele>979.25</ele><time>2026-04-24T09:13:48Z</time></trkpt><trkpt lat="42.05485971922894" lon="13.116036844004286"><ele>982.0</ele><time>2026-04-24T09:13:49Z</time></trkpt><trkpt lat="42.054806063315354" lon="13.116174444318121"><ele>982.0</ele><time>2026-04-24T09:13:50Z</time></trkpt><trkpt lat="42.054752944306664" lon="13.116274706651343"><ele>982.0</ele><time>2026-04-24T09:13:51Z</time></trkpt><trkpt lat="42.054661664238054" lon="13.116345222060458"><ele>982.0</ele><time>2026-04-24T09:13:52Z</time></trkpt><trkpt lat="42.0545632489363" lon="13.116381447586217"><ele>982.0</ele><time>2026-04-24T09:13:53Z</time></trkpt><trkpt lat="42.054460334174614" lon="13.116392417419949"><ele>982.0</ele><time>2026-04-24T09:13:54Z</time></trkpt><trkpt lat="42.05438402698445" lon="13.116434021138303"><ele>981.9999999999999</ele><time>2026-04-24T09:13:55Z</time></trkpt><trkpt lat="42.054321043237536" lon="13.11644842062162"><ele>982.0</ele><time>2026-04-24T09:13:56Z</time></trkpt><trkpt lat="42.05427016272356" lon="13.116522063413875"><ele>982.0</ele><time>2026-04-24T09:13:57Z</time></trkpt><trkpt lat="42.05424763108397" lon="13.116602361413827"><ele>982.0</ele><time>2026-04-24T09:13:58Z</time></trkpt><trkpt lat="42.054257148754346" lon="13.116715907977735"><ele>981.9999999999999</ele><time>2026-04-24T09:14:00Z</time></trkpt><trkpt lat="42.05438167504337" lon="13.116754871916756"><ele>982.0</ele><time>2026-04-24T09:14:01Z</time></trkpt><trkpt lat="42.05452428641051" lon="13.116619142566138"><ele>982.0</ele><time>2026-04-24T09:14:03Z</time></trkpt><trkpt lat="42.054604386916445" lon="13.116560577184579"><ele>982.0</ele><time>2026-04-24T09:14:04Z</time></trkpt><trkpt lat="42.05470501574263" lon="13.116559340310076"><ele>982.0</ele><time>2026-04-24T09:14:05Z</time></trkpt><trkpt lat="42.05478919129504" lon="13.116507066471966"><ele>982.0</ele><time>2026-04-24T09:14:06Z</time></trkpt><trkpt lat="42.05487855353819" lon="13.116474407952158"><ele>982.0</ele><time>2026-04-24T09:14:07Z</time></trkpt><trkpt lat="42.05495270520864" lon="13.116348899584857"><ele>983.8</ele><time>2026-04-24T09:14:08Z</time></trkpt><trkpt lat="42.055022326254694" lon="13.116220570760442"><ele>985.6</ele><time>2026-04-24T09:14:09Z</time></trkpt><trkpt lat="42.055100211676184" lon="13.116098868772962"><ele>987.3999999999999</ele><time>2026-04-24T09:14:10Z</time></trkpt><trkpt lat="42.05517475914385" lon="13.115987890622835"><ele>989.1999999999999</ele><time>2026-04-24T09:14:11Z</time></trkpt><trkpt lat="42.05524527489495" lon="13.115899804768702"><ele>991.0</ele><time>2026-04-24T09:14:12Z</time></trkpt><trkpt lat="42.05532684418072" lon="13.115824305816307"><ele>991.0</ele><time>2026-04-24T09:14:13Z</time></trkpt><trkpt lat="42.055413553684296" lon="13.115753057447655"><ele>990.9999999999999</ele><time>2026-04-24T09:14:14Z</time></trkpt><trkpt lat="42.0555122066904" lon="13.115720566145253"><ele>990.9999999999999</ele><time>2026-04-24T09:14:15Z</time></trkpt><trkpt lat="42.055606223666686" lon="13.115704173160058"><ele>991.0</ele><time>2026-04-24T09:14:16Z</time></trkpt><trkpt lat="42.055698682414125" lon="13.115664867248606"><ele>991.0</ele><time>2026-04-24T09:14:17Z</time></trkpt><trkpt lat="42.05576175592492" lon="13.115603703086713"><ele>992.4</ele><time>2026-04-24T09:14:18Z</time></trkpt><trkpt lat="42.055817534536935" lon="13.115510854585358"><ele>993.8</ele><time>2026-04-24T09:14:19Z</time></trkpt><trkpt lat="42.055870728381294" lon="13.115387427715499"><ele>995.1999999999999</ele><time>2026-04-24T09:14:20Z</time></trkpt><trkpt lat="42.05594453271471" lon="13.115289727427516"><ele>996.5999999999999</ele><time>2026-04-24T09:14:21Z</time></trkpt><trkpt lat="42.0559998079582" lon="13.11518715161872"><ele>998.0</ele><time>2026-04-24T09:14:22Z</time></trkpt><trkpt lat="42.05605238976759" lon="13.115097442159543"><ele>998.0</ele><time>2026-04-24T09:14:23Z</time></trkpt><trkpt lat="42.05610446089731" lon="13.115020792910004"><ele>998.0</ele><time>2026-04-24T09:14:24Z</time></trkpt><trkpt lat="42.05618555348498" lon="13.114909332719506"><ele>998.0</ele><time>2026-04-24T09:14:25Z</time></trkpt><trkpt lat="42.05626773081403" lon="13.114810730366978"><ele>998.0</ele><time>2026-04-24T09:14:26Z</time></trkpt><trkpt lat="42.05634846344913" lon="13.114737325128635"><ele>998.0</ele><time>2026-04-24T09:14:27Z</time></trkpt><trkpt lat="42.056417115947156" lon="13.114683292794423"><ele>998.0000000000001</ele><time>2026-04-24T09:14:28Z</time></trkpt><trkpt lat="42.05647420580076" lon="13.11464459661237"><ele>998.0</ele><time>2026-04-24T09:14:29Z</time></trkpt><trkpt lat="42.056534089847176" lon="13.114611543846078"><ele>998.0000000000001</ele><time>2026-04-24T09:14:30Z</time></trkpt><trkpt lat="42.0566018288612" lon="13.114649597534063"><ele>998.0000000000001</ele><time>2026-04-24T09:14:31Z</time></trkpt><trkpt lat="42.056639738747386" lon="13.114723604870493"><ele>998.0</ele><time>2026-04-24T09:14:32Z</time></trkpt><trkpt lat="42.056625558411525" lon="13.11482250335468"><ele>998.0000000000001</ele><time>2026-04-24T09:14:33Z</time></trkpt><trkpt lat="42.05657495088872" lon="13.11492851831036"><ele>998.0000000000001</ele><time>2026-04-24T09:14:34Z</time></trkpt><trkpt lat="42.05649077764144" lon="13.114948458476109"><ele>998.0</ele><time>2026-04-24T09:14:35Z</time></trkpt><trkpt lat="42.05642158982044" lon="13.115028553650077"><ele>998.0</ele><time>2026-04-24T09:14:36Z</time></trkpt><trkpt lat="42.056349867243924" lon="13.115120931441828"><ele>998.0</ele><time>2026-04-24T09:14:37Z</time></trkpt><trkpt lat="42.05628777004138" lon="13.115213894258963"><ele>998.0</ele><time>2026-04-24T09:14:38Z</time></trkpt><trkpt lat="42.05622696024693" lon="13.115325083160242"><ele>998.0</ele><time>2026-04-24T09:14:39Z</time></trkpt><trkpt lat="42.05619557972764" lon="13.1154442160286"><ele>998.0000000000001</ele><time>2026-04-24T09:14:40Z</time></trkpt><trkpt lat="42.0561422345096" lon="13.115535131263792"><ele>998.0</ele><time>2026-04-24T09:14:41Z</time></trkpt><trkpt lat="42.056085053214616" lon="13.115615422526824"><ele>998.0</ele><time>2026-04-24T09:14:42Z</time></trkpt><trkpt lat="42.05602044547533" lon="13.11570630605809"><ele>998.0</ele><time>2026-04-24T09:14:43Z</time></trkpt><trkpt lat="42.05597026200437" lon="13.115811440401494"><ele>998.0000000000001</ele><time>2026-04-24T09:14:44Z</time></trkpt><trkpt lat="42.05589794381004" lon="13.115889076563374"><ele>998.0</ele><time>2026-04-24T09:14:45Z</time></trkpt><trkpt lat="42.05581574317023" lon="13.115935915550098"><ele>996.5999999999999</ele><time>2026-04-24T09:14:46Z</time></trkpt><trkpt lat="42.055726074867685" lon="13.115990767426679"><ele>995.1999999999999</ele><time>2026-04-24T09:14:47Z</time></trkpt><trkpt lat="42.05563202959591" lon="13.116021656460703"><ele>993.8</ele><time>2026-04-24T09:14:48Z</time></trkpt><trkpt lat="42.05554154031237" lon="13.116066313130153"><ele>992.4</ele><time>2026-04-24T09:14:49Z</time></trkpt><trkpt lat="42.055457478714" lon="13.116132210525873"><ele>991.0</ele><time>2026-04-24T09:14:50Z</time></trkpt><trkpt lat="42.05537207136784" lon="13.116231199638449"><ele>991.0</ele><time>2026-04-24T09:14:51Z</time></trkpt><trkpt lat="42.05530165302874" lon="13.11634023943569"><ele>991.0</ele><time>2026-04-24T09:14:52Z</time></trkpt><trkpt lat="42.05525100333386" lon="13.116514361827452"><ele>991.0</ele><time>2026-04-24T09:14:53Z</time></trkpt><trkpt lat="42.055164158489596" lon="13.11665332775619"><ele>991.0</ele><time>2026-04-24T09:14:54Z</time></trkpt><trkpt lat="42.055081870345816" lon="13.116754078463101"><ele>992.75</ele><time>2026-04-24T09:14:55Z</time></trkpt><trkpt lat="42.05498434434722" lon="13.116842226216697"><ele>994.5</ele><time>2026-04-24T09:14:56Z</time></trkpt><trkpt lat="42.0549139856701" lon="13.11699837916878"><ele>996.25</ele><time>2026-04-24T09:14:57Z</time></trkpt><trkpt lat="42.054876981046405" lon="13.1171586536456"><ele>998.0</ele><time>2026-04-24T09:14:58Z</time></trkpt><trkpt lat="42.054827773500946" lon="13.117282211169565"><ele>998.0</ele><time>2026-04-24T09:14:59Z</time></trkpt><trkpt lat="42.05477804791838" lon="13.11735676467568"><ele>998.0</ele><time>2026-04-24T09:15:00Z</time></trkpt><trkpt lat="42.05467829462888" lon="13.117443952471687"><ele>998.0</ele><time>2026-04-24T09:15:02Z</time></trkpt><trkpt lat="42.05457783970419" lon="13.117498324525325"><ele>998.0</ele><time>2026-04-24T09:15:03Z</time></trkpt><trkpt lat="42.05447797327462" lon="13.117579252823395"><ele>998.0</ele><time>2026-04-24T09:15:04Z</time></trkpt><trkpt lat="42.054370848017804" lon="13.117659958102344"><ele>1002.2</ele><time>2026-04-24T09:15:05Z</time></trkpt><trkpt lat="42.054274597099344" lon="13.117724276776807"><ele>1006.4</ele><time>2026-04-24T09:15:06Z</time></trkpt><trkpt lat="42.05417406412472" lon="13.117791243917356"><ele>1010.6000000000001</ele><time>2026-04-24T09:15:07Z</time></trkpt><trkpt lat="42.054089295266124" lon="13.117862949670767"><ele>1014.8000000000001</ele><time>2026-04-24T09:15:08Z</time></trkpt><trkpt lat="42.05399929079404" lon="13.117916191476322"><ele>1019.0</ele><time>2026-04-24T09:15:09Z</time></trkpt><trkpt lat="42.053910907077444" lon="13.117957068290538"><ele>1019.0</ele><time>2026-04-24T09:15:10Z</time></trkpt><trkpt lat="42.053822819036206" lon="13.118024528421172"><ele>1019.0000000000001</ele><time>2026-04-24T09:15:11Z</time></trkpt><trkpt lat="42.053748287809626" lon="13.118104024666495"><ele>1019.0000000000001</ele><time>2026-04-24T09:15:12Z</time></trkpt><trkpt lat="42.0536861785605" lon="13.118204050473077"><ele>1019.0</ele><time>2026-04-24T09:15:13Z</time></trkpt><trkpt lat="42.05361784409688" lon="13.118305382202903"><ele>1019.0</ele><time>2026-04-24T09:15:14Z</time></trkpt><trkpt lat="42.05354824074137" lon="13.118441004846627"><ele>1021.8000000000001</ele><time>2026-04-24T09:15:15Z</time></trkpt><trkpt lat="42.0534947784657" lon="13.118564808077116"><ele>1024.6000000000001</ele><time>2026-04-24T09:15:16Z</time></trkpt><trkpt lat="42.053454980435646" lon="13.118661534009997"><ele>1027.4</ele><time>2026-04-24T09:15:17Z</time></trkpt><trkpt lat="42.05336500842061" lon="13.118747980937922"><ele>1030.2</ele><time>2026-04-24T09:15:19Z</time></trkpt><trkpt lat="42.053232661435814" lon="13.118759403644225"><ele>1033.0</ele><time>2026-04-24T09:15:21Z</time></trkpt><trkpt lat="42.05313410405492" lon="13.118730069773822"><ele>1034.0</ele><time>2026-04-24T09:15:22Z</time></trkpt><trkpt lat="42.05300756881754" lon="13.118695510463548"><ele>1035.0</ele><time>2026-04-24T09:15:23Z</time></trkpt><trkpt lat="42.05289596064712" lon="13.118696768209716"><ele>1036.0</ele><time>2026-04-24T09:15:24Z</time></trkpt><trkpt lat="42.052779231059034" lon="13.118683761436888"><ele>1037.0</ele><time>2026-04-24T09:15:25Z</time></trkpt><trkpt lat="42.0526568163112" lon="13.118695183362194"><ele>1037.0</ele><time>2026-04-24T09:15:26Z</time></trkpt><trkpt lat="42.05251960813567" lon="13.118704806486873"><ele>1037.0</ele><time>2026-04-24T09:15:27Z</time></trkpt><trkpt lat="42.05238679056238" lon="13.118704465258098"><ele>1037.0</ele><time>2026-04-24T09:15:28Z</time></trkpt><trkpt lat="42.05225545882449" lon="13.118709875880235"><ele>1037.0</ele><time>2026-04-24T09:15:29Z</time></trkpt><trkpt lat="42.05212077168661" lon="13.11870872251622"><ele>1038.25</ele><time>2026-04-24T09:15:30Z</time></trkpt><trkpt lat="42.05198104540755" lon="13.11869411811463"><ele>1039.5</ele><time>2026-04-24T09:15:31Z</time></trkpt><trkpt lat="42.05183519229179" lon="13.118677340670523"><ele>1040.75</ele><time>2026-04-24T09:15:32Z</time></trkpt><trkpt lat="42.0516872883418" lon="13.118659054224278"><ele>1042.0</ele><time>2026-04-24T09:15:33Z</time></trkpt><trkpt lat="42.051548280774576" lon="13.118634080797499"><ele>1043.25</ele><time>2026-04-24T09:15:34Z</time></trkpt><trkpt lat="42.05140578411553" lon="13.118591497303754"><ele>1044.5</ele><time>2026-04-24T09:15:35Z</time></trkpt><trkpt lat="42.05126970104368" lon="13.118534121525588"><ele>1045.75</ele><time>2026-04-24T09:15:36Z</time></trkpt><trkpt lat="42.05114092206955" lon="13.118447629946745"><ele>1047.0</ele><time>2026-04-24T09:15:37Z</time></trkpt><trkpt lat="42.05103059182009" lon="13.118356314299227"><ele>1047.0</ele><time>2026-04-24T09:15:38Z</time></trkpt><trkpt lat="42.050936413609556" lon="13.118280163436298"><ele>1047.0</ele><time>2026-04-24T09:15:39Z</time></trkpt><trkpt lat="42.05085577286572" lon="13.118226222390092"><ele>1047.0</ele><time>2026-04-24T09:15:40Z</time></trkpt><trkpt lat="42.05078446026491" lon="13.118158559977424"><ele>1047.0</ele><time>2026-04-24T09:15:41Z</time></trkpt><trkpt lat="42.050670920346036" lon="13.118139897546586"><ele>1047.0</ele><time>2026-04-24T09:15:43Z</time></trkpt><trkpt lat="42.05059011710176" lon="13.118221051242672"><ele>1044.8333333333333</ele><time>2026-04-24T09:15:45Z</time></trkpt><trkpt lat="42.050520863281314" lon="13.118325043701343"><ele>1042.6666666666667</ele><time>2026-04-24T09:15:47Z</time></trkpt><trkpt lat="42.050449633178715" lon="13.118440430489505"><ele>1040.5</ele><time>2026-04-24T09:15:49Z</time></trkpt><trkpt lat="42.05040458003343" lon="13.11850644727192"><ele>1038.3333333333335</ele><time>2026-04-24T09:15:50Z</time></trkpt><trkpt lat="42.050355324282165" lon="13.118575486420598"><ele>1036.1666666666667</ele><time>2026-04-24T09:15:51Z</time></trkpt><trkpt lat="42.05029670325784" lon="13.118658197441636"><ele>1034.0</ele><time>2026-04-24T09:15:52Z</time></trkpt><trkpt lat="42.05023275830135" lon="13.118750207997756"><ele>1034.0</ele><time>2026-04-24T09:15:53Z</time></trkpt><trkpt lat="42.05015028268796" lon="13.11887968169062"><ele>1034.0</ele><time>2026-04-24T09:15:54Z</time></trkpt><trkpt lat="42.05007279186636" lon="13.119013018541757"><ele>1034.0</ele><time>2026-04-24T09:15:55Z</time></trkpt><trkpt lat="42.049999624004" lon="13.11916250185185"><ele>1034.0</ele><time>2026-04-24T09:15:56Z</time></trkpt><trkpt lat="42.049929683903535" lon="13.11931458301631"><ele>1033.25</ele><time>2026-04-24T09:15:57Z</time></trkpt><trkpt lat="42.049864009576034" lon="13.119461326056499"><ele>1032.5</ele><time>2026-04-24T09:15:58Z</time></trkpt><trkpt lat="42.04978854223831" lon="13.119598299818485"><ele>1031.75</ele><time>2026-04-24T09:15:59Z</time></trkpt><trkpt lat="42.04969962931772" lon="13.119704076280664"><ele>1031.0</ele><time>2026-04-24T09:16:00Z</time></trkpt><trkpt lat="42.0496124574372" lon="13.119804291980621"><ele>1035.6</ele><time>2026-04-24T09:16:01Z</time></trkpt><trkpt lat="42.049534702197775" lon="13.11990852753541"><ele>1040.1999999999998</ele><time>2026-04-24T09:16:02Z</time></trkpt><trkpt lat="42.04946666268056" lon="13.12002504287337"><ele>1044.8000000000002</ele><time>2026-04-24T09:16:03Z</time></trkpt><trkpt lat="42.04942199401933" lon="13.120140843481881"><ele>1049.4</ele><time>2026-04-24T09:16:04Z</time></trkpt><trkpt lat="42.049391780788795" lon="13.120257784159023"><ele>1054.0</ele><time>2026-04-24T09:16:05Z</time></trkpt><trkpt lat="42.049362421699165" lon="13.120370818507462"><ele>1054.0</ele><time>2026-04-24T09:16:06Z</time></trkpt><trkpt lat="42.04932575590277" lon="13.120510361854379"><ele>1054.0</ele><time>2026-04-24T09:16:07Z</time></trkpt><trkpt lat="42.04928392134761" lon="13.120656256463157"><ele>1054.0</ele><time>2026-04-24T09:16:08Z</time></trkpt><trkpt lat="42.04923354035322" lon="13.120808073255539"><ele>1054.0</ele><time>2026-04-24T09:16:09Z</time></trkpt><trkpt lat="42.04918265410625" lon="13.120956833193079"><ele>1054.75</ele><time>2026-04-24T09:16:10Z</time></trkpt><trkpt lat="42.049130139051684" lon="13.121114327187858"><ele>1055.5</ele><time>2026-04-24T09:16:11Z</time></trkpt><trkpt lat="42.04907716816598" lon="13.121273786984126"><ele>1056.25</ele><time>2026-04-24T09:16:12Z</time></trkpt><trkpt lat="42.04902379673544" lon="13.121426718920157"><ele>1057.0</ele><time>2026-04-24T09:16:13Z</time></trkpt><trkpt lat="42.048969225339555" lon="13.12157002045056"><ele>1057.0</ele><time>2026-04-24T09:16:14Z</time></trkpt><trkpt lat="42.048914910564214" lon="13.121712421993532"><ele>1057.0</ele><time>2026-04-24T09:16:15Z</time></trkpt><trkpt lat="42.04885720824343" lon="13.121866093458303"><ele>1057.0</ele><time>2026-04-24T09:16:16Z</time></trkpt><trkpt lat="42.048803112165004" lon="13.122021731568438"><ele>1057.0</ele><time>2026-04-24T09:16:17Z</time></trkpt><trkpt lat="42.04875226327909" lon="13.12217667677152"><ele>1057.0</ele><time>2026-04-24T09:16:18Z</time></trkpt><trkpt lat="42.048699885722364" lon="13.122343063320981"><ele>1057.0</ele><time>2026-04-24T09:16:19Z</time></trkpt><trkpt lat="42.04864934002573" lon="13.122508826754403"><ele>1057.0</ele><time>2026-04-24T09:16:20Z</time></trkpt><trkpt lat="42.048599388708126" lon="13.122683014272251"><ele>1057.0</ele><time>2026-04-24T09:16:21Z</time></trkpt><trkpt lat="42.04855292830575" lon="13.122854063934092"><ele>1061.0</ele><time>2026-04-24T09:16:22Z</time></trkpt><trkpt lat="42.04850590628796" lon="13.123027101247127"><ele>1065.0</ele><time>2026-04-24T09:16:23Z</time></trkpt><trkpt lat="42.04846025188099" lon="13.123201423623978"><ele>1069.0</ele><time>2026-04-24T09:16:24Z</time></trkpt><trkpt lat="42.04841135137738" lon="13.123363094283278"><ele>1073.0</ele><time>2026-04-24T09:16:25Z</time></trkpt><trkpt lat="42.04835366419979" lon="13.12350891996245"><ele>1070.75</ele><time>2026-04-24T09:16:26Z</time></trkpt><trkpt lat="42.04827976390381" lon="13.123661605958041"><ele>1068.5</ele><time>2026-04-24T09:16:27Z</time></trkpt><trkpt lat="42.048206503737674" lon="13.123797202133625"><ele>1066.25</ele><time>2026-04-24T09:16:28Z</time></trkpt><trkpt lat="42.04812560990363" lon="13.123928033802976"><ele>1064.0</ele><time>2026-04-24T09:16:29Z</time></trkpt><trkpt lat="42.048043401673986" lon="13.124050243480282"><ele>1069.4</ele><time>2026-04-24T09:16:30Z</time></trkpt><trkpt lat="42.04796619899546" lon="13.124156302449668"><ele>1074.8000000000002</ele><time>2026-04-24T09:16:31Z</time></trkpt><trkpt lat="42.04788468088719" lon="13.124260468679333"><ele>1080.1999999999998</ele><time>2026-04-24T09:16:32Z</time></trkpt><trkpt lat="42.04780525599195" lon="13.124359866282587"><ele>1085.6</ele><time>2026-04-24T09:16:33Z</time></trkpt><trkpt lat="42.047718514001915" lon="13.124464541952005"><ele>1091.0</ele><time>2026-04-24T09:16:34Z</time></trkpt><trkpt lat="42.04764018274472" lon="13.124557801191399"><ele>1091.0</ele><time>2026-04-24T09:16:35Z</time></trkpt><trkpt lat="42.04757837293063" lon="13.124644693590362"><ele>1091.0</ele><time>2026-04-24T09:16:36Z</time></trkpt><trkpt lat="42.047498952060394" lon="13.124717421066409"><ele>1091.0</ele><time>2026-04-24T09:16:37Z</time></trkpt><trkpt lat="42.04741603262686" lon="13.124785292605145"><ele>1091.0</ele><time>2026-04-24T09:16:38Z</time></trkpt><trkpt lat="42.0473141626438" lon="13.124808363488267"><ele>1091.0</ele><time>2026-04-24T09:16:39Z</time></trkpt><trkpt lat="42.047247782037374" lon="13.124849469685296"><ele>1090.6</ele><time>2026-04-24T09:16:40Z</time></trkpt><trkpt lat="42.047155896458115" lon="13.124945311459161"><ele>1090.1999999999998</ele><time>2026-04-24T09:16:41Z</time></trkpt><trkpt lat="42.04710375067009" lon="13.125019240182377"><ele>1089.8000000000002</ele><time>2026-04-24T09:16:42Z</time></trkpt><trkpt lat="42.04703327090848" lon="13.12518632531101"><ele>1089.4</ele><time>2026-04-24T09:16:44Z</time></trkpt><trkpt lat="42.04701729453662" lon="13.125283274255958"><ele>1089.0</ele><time>2026-04-24T09:16:45Z</time></trkpt><trkpt lat="42.047035905267926" lon="13.125386820100042"><ele>1089.0</ele><time>2026-04-24T09:16:46Z</time></trkpt><trkpt lat="42.047062738300504" lon="13.125467680967066"><ele>1089.0</ele><time>2026-04-24T09:16:47Z</time></trkpt><trkpt lat="42.04711778427586" lon="13.125532939851665"><ele>1089.0</ele><time>2026-04-24T09:16:48.001Z</time></trkpt><trkpt lat="42.047182246774035" lon="13.125546507615017"><ele>1089.0</ele><time>2026-04-24T09:16:49.001Z</time></trkpt><trkpt lat="42.047301622926355" lon="13.125582715149179"><ele>1089.0</ele><time>2026-04-24T09:16:51.001Z</time></trkpt><trkpt lat="42.047378711193865" lon="13.125650554815321"><ele>1089.0</ele><time>2026-04-24T09:16:53.001Z</time></trkpt><trkpt lat="42.04734728705526" lon="13.125743227850318"><ele>1090.3333333333333</ele><time>2026-04-24T09:16:55.001Z</time></trkpt><trkpt lat="42.04734258803581" lon="13.125857174526491"><ele>1091.6666666666667</ele><time>2026-04-24T09:16:57.001Z</time></trkpt><trkpt lat="42.047333403931255" lon="13.126029543139117"><ele>1093.0</ele><time>2026-04-24T09:16:59.001Z</time></trkpt><trkpt lat="42.04734464381692" lon="13.126137325882821"><ele>1094.3333333333335</ele><time>2026-04-24T09:17:00.001Z</time></trkpt><trkpt lat="42.04736554537391" lon="13.126235800954987"><ele>1095.6666666666667</ele><time>2026-04-24T09:17:01.001Z</time></trkpt><trkpt lat="42.047387787119" lon="13.12633345899678"><ele>1097.0</ele><time>2026-04-24T09:17:02.001Z</time></trkpt><trkpt lat="42.047456430458354" lon="13.126400702665578"><ele>1099.8333333333335</ele><time>2026-04-24T09:17:03.001Z</time></trkpt><trkpt lat="42.04751416979302" lon="13.126476062657694"><ele>1102.6666666666667</ele><time>2026-04-24T09:17:04.001Z</time></trkpt><trkpt lat="42.04758899804068" lon="13.126532784004066"><ele>1105.5</ele><time>2026-04-24T09:17:05.001Z</time></trkpt><trkpt lat="42.04768195444785" lon="13.12656352381639"><ele>1108.3333333333333</ele><time>2026-04-24T09:17:06.001Z</time></trkpt><trkpt lat="42.04775551159842" lon="13.126598184095071"><ele>1111.1666666666665</ele><time>2026-04-24T09:17:07.001Z</time></trkpt><trkpt lat="42.04781897670312" lon="13.126626739105369"><ele>1114.0</ele><time>2026-04-24T09:17:08.001Z</time></trkpt><trkpt lat="42.0479336690078" lon="13.126683410666816"><ele>1114.0</ele><time>2026-04-24T09:17:10Z</time></trkpt><trkpt lat="42.048002601145264" lon="13.126711708906594"><ele>1114.0</ele><time>2026-04-24T09:17:11Z</time></trkpt><trkpt lat="42.04810710236843" lon="13.126768280221357"><ele>1114.0</ele><time>2026-04-24T09:17:13Z</time></trkpt><trkpt lat="42.04816829895138" lon="13.126872106493979"><ele>1114.0</ele><time>2026-04-24T09:17:15Z</time></trkpt><trkpt lat="42.04817444740652" lon="13.12700748021065"><ele>1114.0</ele><time>2026-04-24T09:17:17Z</time></trkpt><trkpt lat="42.048125913764565" lon="13.127142196757767"><ele>1114.0</ele><time>2026-04-24T09:17:19Z</time></trkpt><trkpt lat="42.04807722153464" lon="13.127236396186003"><ele>1114.0</ele><time>2026-04-24T09:17:20Z</time></trkpt><trkpt lat="42.048031025477805" lon="13.127360613685571"><ele>1114.0</ele><time>2026-04-24T09:17:21Z</time></trkpt><trkpt lat="42.04800695941452" lon="13.127490532130636"><ele>1114.0</ele><time>2026-04-24T09:17:22Z</time></trkpt><trkpt lat="42.0479881318029" lon="13.127609584169491"><ele>1114.0</ele><time>2026-04-24T09:17:23Z</time></trkpt><trkpt lat="42.04797493791518" lon="13.127712358616227"><ele>1114.1666666666665</ele><time>2026-04-24T09:17:24Z</time></trkpt><trkpt lat="42.0479513712518" lon="13.127801311552817"><ele>1114.3333333333333</ele><time>2026-04-24T09:17:25Z</time></trkpt><trkpt lat="42.04784519958682" lon="13.127875241625594"><ele>1114.5</ele><time>2026-04-24T09:17:27Z</time></trkpt><trkpt lat="42.04776206832572" lon="13.127917371289143"><ele>1114.6666666666667</ele><time>2026-04-24T09:17:28Z</time></trkpt><trkpt lat="42.04768408892444" lon="13.127978697662082"><ele>1114.8333333333335</ele><time>2026-04-24T09:17:29Z</time></trkpt><trkpt lat="42.04761274075398" lon="13.12799893971826"><ele>1115.0</ele><time>2026-04-24T09:17:30Z</time></trkpt><trkpt lat="42.047564294773096" lon="13.128055301247862"><ele>1115.0</ele><time>2026-04-24T09:17:31Z</time></trkpt><trkpt lat="42.047538630718584" lon="13.128132834792497"><ele>1115.0</ele><time>2026-04-24T09:17:32Z</time></trkpt><trkpt lat="42.0475396499391" lon="13.128238822398947"><ele>1115.0</ele><time>2026-04-24T09:17:33Z</time></trkpt><trkpt lat="42.047536359705084" lon="13.128334897530852"><ele>1115.0</ele><time>2026-04-24T09:17:34Z</time></trkpt><trkpt lat="42.04754328844897" lon="13.128444049043152"><ele>1115.0</ele><time>2026-04-24T09:17:35Z</time></trkpt><trkpt lat="42.047553749119174" lon="13.128555461228562"><ele>1115.0</ele><time>2026-04-24T09:17:36Z</time></trkpt><trkpt lat="42.047545338256235" lon="13.128679739709233"><ele>1116.3333333333335</ele><time>2026-04-24T09:17:37Z</time></trkpt><trkpt lat="42.04754494741942" lon="13.128790524923543"><ele>1117.6666666666667</ele><time>2026-04-24T09:17:38Z</time></trkpt><trkpt lat="42.04754494741992" lon="13.128909903612223"><ele>1119.0</ele><time>2026-04-24T09:17:39Z</time></trkpt><trkpt lat="42.04755956991668" lon="13.129024163670021"><ele>1120.3333333333333</ele><time>2026-04-24T09:17:40Z</time></trkpt><trkpt lat="42.04755869927523" lon="13.129141343001"><ele>1121.6666666666665</ele><time>2026-04-24T09:17:41Z</time></trkpt><trkpt lat="42.04754507566809" lon="13.129253233808896"><ele>1123.0</ele><time>2026-04-24T09:17:42Z</time></trkpt><trkpt lat="42.047548936273024" lon="13.129373030028141"><ele>1123.6666666666665</ele><time>2026-04-24T09:17:43Z</time></trkpt><trkpt lat="42.04756029181095" lon="13.129480175370016"><ele>1124.3333333333333</ele><time>2026-04-24T09:17:44Z</time></trkpt><trkpt lat="42.047583048607414" lon="13.129577002772587"><ele>1125.0</ele><time>2026-04-24T09:17:45Z</time></trkpt><trkpt lat="42.04757031194882" lon="13.12967372117975"><ele>1125.6666666666667</ele><time>2026-04-24T09:17:46Z</time></trkpt><trkpt lat="42.04750992719867" lon="13.129750206804024"><ele>1126.3333333333335</ele><time>2026-04-24T09:17:47Z</time></trkpt><trkpt lat="42.047456128194945" lon="13.129823325109845"><ele>1127.0</ele><time>2026-04-24T09:17:48Z</time></trkpt><trkpt lat="42.047386288608465" lon="13.129911973078665"><ele>1125.4</ele><time>2026-04-24T09:17:49Z</time></trkpt><trkpt lat="42.047324408872626" lon="13.130007960572396"><ele>1123.8000000000002</ele><time>2026-04-24T09:17:50Z</time></trkpt><trkpt lat="42.04726663673009" lon="13.130132634434593"><ele>1122.2</ele><time>2026-04-24T09:17:51Z</time></trkpt><trkpt lat="42.04721356566764" lon="13.130225713640865"><ele>1120.6000000000001</ele><time>2026-04-24T09:17:52Z</time></trkpt><trkpt lat="42.04716309515636" lon="13.130337327129581"><ele>1119.0</ele><time>2026-04-24T09:17:53Z</time></trkpt><trkpt lat="42.047107590342755" lon="13.1304584318679"><ele>1119.0</ele><time>2026-04-24T09:17:54Z</time></trkpt><trkpt lat="42.04705183407557" lon="13.130569881220064"><ele>1119.0</ele><time>2026-04-24T09:17:55Z</time></trkpt><trkpt lat="42.04698909316777" lon="13.130690223078552"><ele>1119.0</ele><time>2026-04-24T09:17:56Z</time></trkpt><trkpt lat="42.04692994684467" lon="13.130815089917325"><ele>1119.0</ele><time>2026-04-24T09:17:57Z</time></trkpt><trkpt lat="42.04684133328361" lon="13.130923583945801"><ele>1119.0</ele><time>2026-04-24T09:17:58Z</time></trkpt><trkpt lat="42.04677296286908" lon="13.131019091502003"><ele>1118.0</ele><time>2026-04-24T09:17:59Z</time></trkpt><trkpt lat="42.046712927871035" lon="13.131141259550006"><ele>1117.0</ele><time>2026-04-24T09:18:00Z</time></trkpt><trkpt lat="42.04668351726639" lon="13.131285173704812"><ele>1116.0</ele><time>2026-04-24T09:18:01Z</time></trkpt><trkpt lat="42.046646003401165" lon="13.131444225465577"><ele>1115.0</ele><time>2026-04-24T09:18:02Z</time></trkpt><trkpt lat="42.046588478631776" lon="13.131612675159973"><ele>1115.0</ele><time>2026-04-24T09:18:03Z</time></trkpt><trkpt lat="42.04655280504018" lon="13.131780320006316"><ele>1115.0</ele><time>2026-04-24T09:18:04Z</time></trkpt><trkpt lat="42.046538127506714" lon="13.131941996938163"><ele>1115.0</ele><time>2026-04-24T09:18:05Z</time></trkpt><trkpt lat="42.04656294765622" lon="13.132101989696974"><ele>1115.0</ele><time>2026-04-24T09:18:06Z</time></trkpt><trkpt lat="42.046565041315084" lon="13.132230500565669"><ele>1115.0</ele><time>2026-04-24T09:18:07Z</time></trkpt><trkpt lat="42.04655732312107" lon="13.1323378053836"><ele>1115.0</ele><time>2026-04-24T09:18:08Z</time></trkpt><trkpt lat="42.046512010570176" lon="13.132438294666997"><ele>1115.0</ele><time>2026-04-24T09:18:09Z</time></trkpt><trkpt lat="42.04644741169069" lon="13.132479179000873"><ele>1115.0</ele><time>2026-04-24T09:18:10Z</time></trkpt><trkpt lat="42.046384729427004" lon="13.132575701430229"><ele>1115.0</ele><time>2026-04-24T09:18:11Z</time></trkpt><trkpt lat="42.046330109674656" lon="13.132717616620738"><ele>1116.4</ele><time>2026-04-24T09:18:12Z</time></trkpt><trkpt lat="42.04631199075399" lon="13.132847762049963"><ele>1117.8</ele><time>2026-04-24T09:18:13Z</time></trkpt><trkpt lat="42.046290934994204" lon="13.132979819841667"><ele>1119.2</ele><time>2026-04-24T09:18:14Z</time></trkpt><trkpt lat="42.04627152613442" lon="13.133124129284647"><ele>1120.6</ele><time>2026-04-24T09:18:15Z</time></trkpt><trkpt lat="42.04624945775697" lon="13.133300524348046"><ele>1122.0</ele><time>2026-04-24T09:18:16Z</time></trkpt><trkpt lat="42.04623398060377" lon="13.133483441298578"><ele>1124.0</ele><time>2026-04-24T09:18:17Z</time></trkpt><trkpt lat="42.0462272474818" lon="13.133653025724744"><ele>1126.0</ele><time>2026-04-24T09:18:18Z</time></trkpt><trkpt lat="42.04623984830005" lon="13.13381974201823"><ele>1128.0</ele><time>2026-04-24T09:18:19Z</time></trkpt><trkpt lat="42.04625968659307" lon="13.13397791689138"><ele>1130.0</ele><time>2026-04-24T09:18:20Z</time></trkpt><trkpt lat="42.04628103390774" lon="13.134134591709687"><ele>1130.25</ele><time>2026-04-24T09:18:21Z</time></trkpt><trkpt lat="42.046305219124186" lon="13.134301976456435"><ele>1130.5</ele><time>2026-04-24T09:18:22Z</time></trkpt><trkpt lat="42.0463307326744" lon="13.13447645496686"><ele>1130.75</ele><time>2026-04-24T09:18:23Z</time></trkpt><trkpt lat="42.04635638463749" lon="13.134651879994141"><ele>1131.0</ele><time>2026-04-24T09:18:24Z</time></trkpt><trkpt lat="42.046377559745096" lon="13.13481733698211"><ele>1131.6</ele><time>2026-04-24T09:18:25Z</time></trkpt><trkpt lat="42.046387547468015" lon="13.13495632907299"><ele>1132.1999999999998</ele><time>2026-04-24T09:18:26Z</time></trkpt><trkpt lat="42.04638724171844" lon="13.135090347384297"><ele>1132.8000000000002</ele><time>2026-04-24T09:18:27Z</time></trkpt><trkpt lat="42.04639136463467" lon="13.135232049551517"><ele>1133.4</ele><time>2026-04-24T09:18:28Z</time></trkpt><trkpt lat="42.04639656577764" lon="13.135371453442808"><ele>1134.0</ele><time>2026-04-24T09:18:29Z</time></trkpt><trkpt lat="42.04640723523778" lon="13.135503389486729"><ele>1134.0</ele><time>2026-04-24T09:18:30Z</time></trkpt><trkpt lat="42.04642571965164" lon="13.135642248357746"><ele>1134.0</ele><time>2026-04-24T09:18:31Z</time></trkpt><trkpt lat="42.04644874152999" lon="13.135772768290016"><ele>1134.0</ele><time>2026-04-24T09:18:32Z</time></trkpt><trkpt lat="42.04647419902228" lon="13.135920639365844"><ele>1134.0</ele><time>2026-04-24T09:18:33Z</time></trkpt><trkpt lat="42.04649839314672" lon="13.136076994435301"><ele>1134.0</ele><time>2026-04-24T09:18:34Z</time></trkpt><trkpt lat="42.04652227300507" lon="13.136242828080233"><ele>1135.4</ele><time>2026-04-24T09:18:35Z</time></trkpt><trkpt lat="42.04654472052252" lon="13.13640376022135"><ele>1136.8000000000002</ele><time>2026-04-24T09:18:36Z</time></trkpt><trkpt lat="42.04656259795089" lon="13.136555350383224"><ele>1138.1999999999998</ele><time>2026-04-24T09:18:37Z</time></trkpt><trkpt lat="42.04656684753359" lon="13.136692196801373"><ele>1139.6</ele><time>2026-04-24T09:18:38Z</time></trkpt><trkpt lat="42.046554680753204" lon="13.136826296506428"><ele>1141.0</ele><time>2026-04-24T09:18:39Z</time></trkpt><trkpt lat="42.0465234989787" lon="13.136990676537074"><ele>1143.25</ele><time>2026-04-24T09:18:40Z</time></trkpt><trkpt lat="42.04647330322407" lon="13.137183941928628"><ele>1145.5</ele><time>2026-04-24T09:18:41Z</time></trkpt><trkpt lat="42.046440184188576" lon="13.137349765304988"><ele>1147.75</ele><time>2026-04-24T09:18:42Z</time></trkpt><trkpt lat="42.046420242345164" lon="13.13746138267329"><ele>1150.0</ele><time>2026-04-24T09:18:43Z</time></trkpt><trkpt lat="42.046438952631796" lon="13.13758989475477"><ele>1151.6</ele><time>2026-04-24T09:18:45Z</time></trkpt><trkpt lat="42.046469867917345" lon="13.137715031887808"><ele>1153.2</ele><time>2026-04-24T09:18:47Z</time></trkpt><trkpt lat="42.04656770702718" lon="13.137816333186064"><ele>1154.8</ele><time>2026-04-24T09:18:49Z</time></trkpt><trkpt lat="42.04657778738807" lon="13.137907458130906"><ele>1156.4</ele><time>2026-04-24T09:18:50Z</time></trkpt><trkpt lat="42.04660796417586" lon="13.138013382134838"><ele>1158.0</ele><time>2026-04-24T09:18:51Z</time></trkpt><trkpt lat="42.046665015009516" lon="13.138125867637687"><ele>1158.4</ele><time>2026-04-24T09:18:52Z</time></trkpt><trkpt lat="42.046697176150516" lon="13.138211812518803"><ele>1158.8</ele><time>2026-04-24T09:18:53Z</time></trkpt><trkpt lat="42.046727217600704" lon="13.138348591745777"><ele>1159.2</ele><time>2026-04-24T09:18:55.001Z</time></trkpt><trkpt lat="42.04673814756265" lon="13.138483908177907"><ele>1159.6</ele><time>2026-04-24T09:18:57.001Z</time></trkpt><trkpt lat="42.046665596219576" lon="13.138590417305302"><ele>1160.0</ele><time>2026-04-24T09:18:59.001Z</time></trkpt><trkpt lat="42.0465949014997" lon="13.138634668328582"><ele>1160.0</ele><time>2026-04-24T09:19:00.001Z</time></trkpt><trkpt lat="42.04653248014743" lon="13.138705389450397"><ele>1160.0</ele><time>2026-04-24T09:19:01.001Z</time></trkpt><trkpt lat="42.04648763048676" lon="13.138785412351558"><ele>1160.0</ele><time>2026-04-24T09:19:02.001Z</time></trkpt><trkpt lat="42.046457509141916" lon="13.138898168554066"><ele>1160.0</ele><time>2026-04-24T09:19:03.001Z</time></trkpt><trkpt lat="42.04645105120919" lon="13.139037086119012"><ele>1160.0</ele><time>2026-04-24T09:19:04.001Z</time></trkpt><trkpt lat="42.04643944602472" lon="13.139182770149528"><ele>1162.0</ele><time>2026-04-24T09:19:05.001Z</time></trkpt><trkpt lat="42.04641132710796" lon="13.139343360355987"><ele>1164.0</ele><time>2026-04-24T09:19:06.001Z</time></trkpt><trkpt lat="42.046390365229655" lon="13.139519392402844"><ele>1166.0</ele><time>2026-04-24T09:19:07.001Z</time></trkpt><trkpt lat="42.046366679878105" lon="13.139669644606291"><ele>1168.0</ele><time>2026-04-24T09:19:08.001Z</time></trkpt><trkpt lat="42.04633559802705" lon="13.139775835942341"><ele>1168.0</ele><time>2026-04-24T09:19:09.001Z</time></trkpt><trkpt lat="42.046297950113534" lon="13.139872455113586"><ele>1168.0</ele><time>2026-04-24T09:19:10.001Z</time></trkpt><trkpt lat="42.04625286677246" lon="13.139977423421238"><ele>1168.0</ele><time>2026-04-24T09:19:11.001Z</time></trkpt><trkpt lat="42.046185903450976" lon="13.140145391711485"><ele>1168.0</ele><time>2026-04-24T09:19:12.001Z</time></trkpt><trkpt lat="42.04612275222573" lon="13.14030555519922"><ele>1168.0</ele><time>2026-04-24T09:19:13.001Z</time></trkpt><trkpt lat="42.046068845066266" lon="13.140449254677943"><ele>1170.8</ele><time>2026-04-24T09:19:14.001Z</time></trkpt><trkpt lat="42.04602296244424" lon="13.140590314868444"><ele>1173.6</ele><time>2026-04-24T09:19:15.001Z</time></trkpt><trkpt lat="42.045985229520944" lon="13.140722932784653"><ele>1176.4</ele><time>2026-04-24T09:19:16.001Z</time></trkpt><trkpt lat="42.045947777049804" lon="13.140842453819506"><ele>1179.2</ele><time>2026-04-24T09:19:17.001Z</time></trkpt><trkpt lat="42.045894579383855" lon="13.140921973479944"><ele>1182.0</ele><time>2026-04-24T09:19:18.001Z</time></trkpt><trkpt lat="42.045841146256684" lon="13.14097427995886"><ele>1180.0</ele><time>2026-04-24T09:19:19.001Z</time></trkpt><trkpt lat="42.04570649219047" lon="13.141029060801442"><ele>1178.0</ele><time>2026-04-24T09:19:21Z</time></trkpt><trkpt lat="42.04564794140612" lon="13.14106742678785"><ele>1176.0</ele><time>2026-04-24T09:19:22Z</time></trkpt><trkpt lat="42.04559610636518" lon="13.141192478530616"><ele>1174.0</ele><time>2026-04-24T09:19:24Z</time></trkpt><trkpt lat="42.045593240860825" lon="13.141315337944249"><ele>1172.0</ele><time>2026-04-24T09:19:25Z</time></trkpt><trkpt lat="42.045589401764055" lon="13.141420529247798"><ele>1172.0</ele><time>2026-04-24T09:19:26Z</time></trkpt><trkpt lat="42.04557897998661" lon="13.141530856786753"><ele>1172.0</ele><time>2026-04-24T09:19:27Z</time></trkpt><trkpt lat="42.04556357979945" lon="13.141643840676128"><ele>1172.0</ele><time>2026-04-24T09:19:28Z</time></trkpt><trkpt lat="42.04554260265295" lon="13.141780238122879"><ele>1172.0</ele><time>2026-04-24T09:19:29Z</time></trkpt><trkpt lat="42.045518503057195" lon="13.141935228115665"><ele>1172.0</ele><time>2026-04-24T09:19:30Z</time></trkpt><trkpt lat="42.0454910814683" lon="13.142104014486195"><ele>1173.8</ele><time>2026-04-24T09:19:31Z</time></trkpt><trkpt lat="42.045462027775045" lon="13.142249337022802"><ele>1175.6</ele><time>2026-04-24T09:19:32Z</time></trkpt><trkpt lat="42.04543148815802" lon="13.142369621457274"><ele>1177.3999999999999</ele><time>2026-04-24T09:19:33Z</time></trkpt><trkpt lat="42.04539657198725" lon="13.14248651128107"><ele>1179.2</ele><time>2026-04-24T09:19:34Z</time></trkpt><trkpt lat="42.04534915226788" lon="13.14260928354969"><ele>1181.0</ele><time>2026-04-24T09:19:35Z</time></trkpt><trkpt lat="42.04529024318455" lon="13.142736106103794"><ele>1183.3999999999999</ele><time>2026-04-24T09:19:36Z</time></trkpt><trkpt lat="42.04523339507289" lon="13.142850956274405"><ele>1185.8</ele><time>2026-04-24T09:19:37Z</time></trkpt><trkpt lat="42.04517010231604" lon="13.142982798354893"><ele>1188.1999999999998</ele><time>2026-04-24T09:19:38Z</time></trkpt><trkpt lat="42.04512654617723" lon="13.143105147932413"><ele>1190.6</ele><time>2026-04-24T09:19:39Z</time></trkpt><trkpt lat="42.04506590919191" lon="13.143227615744783"><ele>1193.0</ele><time>2026-04-24T09:19:40Z</time></trkpt><trkpt lat="42.044997596853484" lon="13.143343578185833"><ele>1191.5</ele><time>2026-04-24T09:19:41Z</time></trkpt><trkpt lat="42.04493941917192" lon="13.14346525163406"><ele>1190.0</ele><time>2026-04-24T09:19:42Z</time></trkpt><trkpt lat="42.04487894930387" lon="13.143586497022175"><ele>1188.5</ele><time>2026-04-24T09:19:43Z</time></trkpt><trkpt lat="42.04481045939407" lon="13.143710610498724"><ele>1187.0</ele><time>2026-04-24T09:19:44Z</time></trkpt><trkpt lat="42.04473557820337" lon="13.143834778321448"><ele>1187.0</ele><time>2026-04-24T09:19:45Z</time></trkpt><trkpt lat="42.04466537318208" lon="13.143976506039067"><ele>1187.0</ele><time>2026-04-24T09:19:46Z</time></trkpt><trkpt lat="42.04458308991643" lon="13.144095806908117"><ele>1187.0</ele><time>2026-04-24T09:19:47Z</time></trkpt><trkpt lat="42.04450925986069" lon="13.144236782607372"><ele>1187.0</ele><time>2026-04-24T09:19:48Z</time></trkpt><trkpt lat="42.044439167643404" lon="13.144387506845911"><ele>1190.4</ele><time>2026-04-24T09:19:49Z</time></trkpt><trkpt lat="42.04436253518948" lon="13.144496692374478"><ele>1193.8000000000002</ele><time>2026-04-24T09:19:50Z</time></trkpt><trkpt lat="42.04430193182802" lon="13.144606426004367"><ele>1197.2</ele><time>2026-04-24T09:19:51Z</time></trkpt><trkpt lat="42.04423362337298" lon="13.144727212872468"><ele>1200.6000000000001</ele><time>2026-04-24T09:19:52Z</time></trkpt><trkpt lat="42.04418470337732" lon="13.144839860687123"><ele>1204.0</ele><time>2026-04-24T09:19:53Z</time></trkpt><trkpt lat="42.04412273726918" lon="13.144915297844511"><ele>1204.2</ele><time>2026-04-24T09:19:54Z</time></trkpt><trkpt lat="42.044043774156535" lon="13.14497848017322"><ele>1204.4</ele><time>2026-04-24T09:19:55Z</time></trkpt><trkpt lat="42.04396026479189" lon="13.145026242033163"><ele>1204.6</ele><time>2026-04-24T09:19:56Z</time></trkpt><trkpt lat="42.043873608617254" lon="13.145092138054492"><ele>1204.8</ele><time>2026-04-24T09:19:57Z</time></trkpt><trkpt lat="42.04380889321531" lon="13.145171563458234"><ele>1205.0</ele><time>2026-04-24T09:19:58Z</time></trkpt><trkpt lat="42.04376547759889" lon="13.145270897230539"><ele>1205.0</ele><time>2026-04-24T09:19:59Z</time></trkpt><trkpt lat="42.04371914949407" lon="13.145393169261014"><ele>1205.0</ele><time>2026-04-24T09:20:00Z</time></trkpt><trkpt lat="42.04366950651166" lon="13.145512191728455"><ele>1205.0</ele><time>2026-04-24T09:20:01Z</time></trkpt><trkpt lat="42.04359087515762" lon="13.145570473097496"><ele>1205.0</ele><time>2026-04-24T09:20:02Z</time></trkpt><trkpt lat="42.043517883775934" lon="13.145631231827865"><ele>1205.0</ele><time>2026-04-24T09:20:03Z</time></trkpt><trkpt lat="42.04343769200319" lon="13.145711113157862"><ele>1207.2</ele><time>2026-04-24T09:20:04Z</time></trkpt><trkpt lat="42.0433662647676" lon="13.145783866476878"><ele>1209.4</ele><time>2026-04-24T09:20:05Z</time></trkpt><trkpt lat="42.043297318336045" lon="13.145873629694348"><ele>1211.6</ele><time>2026-04-24T09:20:06Z</time></trkpt><trkpt lat="42.04324106439644" lon="13.146018722413826"><ele>1213.8</ele><time>2026-04-24T09:20:07Z</time></trkpt><trkpt lat="42.04318075174401" lon="13.14617855557523"><ele>1216.0</ele><time>2026-04-24T09:20:08Z</time></trkpt><trkpt lat="42.04311983792258" lon="13.146336547204687"><ele>1213.5</ele><time>2026-04-24T09:20:09Z</time></trkpt><trkpt lat="42.04305650736115" lon="13.146490386098606"><ele>1211.0</ele><time>2026-04-24T09:20:10Z</time></trkpt><trkpt lat="42.04298618293695" lon="13.146645460070573"><ele>1208.5</ele><time>2026-04-24T09:20:11Z</time></trkpt><trkpt lat="42.04293868366768" lon="13.146770178056249"><ele>1206.0</ele><time>2026-04-24T09:20:12Z</time></trkpt><trkpt lat="42.042884184764176" lon="13.146878383935613"><ele>1206.0</ele><time>2026-04-24T09:20:13Z</time></trkpt><trkpt lat="42.04281181560963" lon="13.146982067828986"><ele>1206.0</ele><time>2026-04-24T09:20:14Z</time></trkpt><trkpt lat="42.04272847969295" lon="13.147089865692076"><ele>1206.0</ele><time>2026-04-24T09:20:15Z</time></trkpt><trkpt lat="42.04263255943914" lon="13.14720261721746"><ele>1206.0</ele><time>2026-04-24T09:20:16Z</time></trkpt><trkpt lat="42.04254955542156" lon="13.14732397906804"><ele>1204.8</ele><time>2026-04-24T09:20:17Z</time></trkpt><trkpt lat="42.04245425816491" lon="13.147403473547916"><ele>1203.6</ele><time>2026-04-24T09:20:18Z</time></trkpt><trkpt lat="42.04237730377983" lon="13.147488867144743"><ele>1202.4</ele><time>2026-04-24T09:20:19Z</time></trkpt><trkpt lat="42.04229855179297" lon="13.147573846292262"><ele>1201.2</ele><time>2026-04-24T09:20:20Z</time></trkpt><trkpt lat="42.04218902191226" lon="13.147658046251392"><ele>1200.0</ele><time>2026-04-24T09:20:21Z</time></trkpt><trkpt lat="42.04209337433086" lon="13.147714802281085"><ele>1200.0</ele><time>2026-04-24T09:20:22Z</time></trkpt><trkpt lat="42.0420170356905" lon="13.147762510619934"><ele>1200.0</ele><time>2026-04-24T09:20:23Z</time></trkpt><trkpt lat="42.041949194997706" lon="13.14781933430293"><ele>1200.0</ele><time>2026-04-24T09:20:24Z</time></trkpt><trkpt lat="42.04186104352102" lon="13.14792676696741"><ele>1200.0</ele><time>2026-04-24T09:20:25Z</time></trkpt><trkpt lat="42.041771759842426" lon="13.14805783151205"><ele>1200.0</ele><time>2026-04-24T09:20:26Z</time></trkpt><trkpt lat="42.04168479401205" lon="13.148206792064228"><ele>1198.5</ele><time>2026-04-24T09:20:27Z</time></trkpt><trkpt lat="42.041585565490195" lon="13.148310686991554"><ele>1197.0</ele><time>2026-04-24T09:20:28Z</time></trkpt><trkpt lat="42.04151555825502" lon="13.148428189467118"><ele>1195.5</ele><time>2026-04-24T09:20:29Z</time></trkpt><trkpt lat="42.04142664862919" lon="13.148536619291995"><ele>1194.0</ele><time>2026-04-24T09:20:30Z</time></trkpt><trkpt lat="42.041331179104844" lon="13.148643692026113"><ele>1194.0</ele><time>2026-04-24T09:20:31Z</time></trkpt><trkpt lat="42.0412536131304" lon="13.148764717096896"><ele>1194.0</ele><time>2026-04-24T09:20:32Z</time></trkpt><trkpt lat="42.041180406424374" lon="13.148886406527222"><ele>1194.0</ele><time>2026-04-24T09:20:33Z</time></trkpt><trkpt lat="42.04110435471751" lon="13.148978454197538"><ele>1194.0</ele><time>2026-04-24T09:20:34Z</time></trkpt><trkpt lat="42.04106134926267" lon="13.14910391958777"><ele>1194.0</ele><time>2026-04-24T09:20:35Z</time></trkpt><trkpt lat="42.04101178439015" lon="13.149212266197258"><ele>1197.0</ele><time>2026-04-24T09:20:36Z</time></trkpt><trkpt lat="42.04098485720086" lon="13.149312104323762"><ele>1200.0</ele><time>2026-04-24T09:20:37Z</time></trkpt><trkpt lat="42.04097241168619" lon="13.14941212832374"><ele>1203.0</ele><time>2026-04-24T09:20:38Z</time></trkpt><trkpt lat="42.040974305960354" lon="13.14952090966879"><ele>1206.0</ele><time>2026-04-24T09:20:39Z</time></trkpt><trkpt lat="42.04098488935824" lon="13.149636256598196"><ele>1209.0</ele><time>2026-04-24T09:20:40Z</time></trkpt><trkpt lat="42.04096463315655" lon="13.149722660976886"><ele>1212.0</ele><time>2026-04-24T09:20:41Z</time></trkpt><trkpt lat="42.04093362419565" lon="13.149813736065045"><ele>1210.2</ele><time>2026-04-24T09:20:42Z</time></trkpt><trkpt lat="42.04091684358427" lon="13.14991759503872"><ele>1208.4</ele><time>2026-04-24T09:20:43Z</time></trkpt><trkpt lat="42.04085446680833" lon="13.15001812298128"><ele>1206.6</ele><time>2026-04-24T09:20:44Z</time></trkpt><trkpt lat="42.040767531582276" lon="13.150114989216712"><ele>1204.8</ele><time>2026-04-24T09:20:45Z</time></trkpt><trkpt lat="42.040679808417906" lon="13.150230333515994"><ele>1203.0</ele><time>2026-04-24T09:20:46Z</time></trkpt><trkpt lat="42.04058264854695" lon="13.150362756738867"><ele>1203.0</ele><time>2026-04-24T09:20:47Z</time></trkpt><trkpt lat="42.04049161743967" lon="13.1504909151018"><ele>1203.0</ele><time>2026-04-24T09:20:48Z</time></trkpt><trkpt lat="42.04041377967859" lon="13.150620847235194"><ele>1203.0</ele><time>2026-04-24T09:20:49Z</time></trkpt><trkpt lat="42.04032852674327" lon="13.150729761928295"><ele>1203.0</ele><time>2026-04-24T09:20:50Z</time></trkpt><trkpt lat="42.04026072920203" lon="13.150828585701204"><ele>1201.25</ele><time>2026-04-24T09:20:51Z</time></trkpt><trkpt lat="42.04018176554493" lon="13.150947136586211"><ele>1199.5</ele><time>2026-04-24T09:20:52Z</time></trkpt><trkpt lat="42.04011625152166" lon="13.151079623752231"><ele>1197.75</ele><time>2026-04-24T09:20:53Z</time></trkpt><trkpt lat="42.04002715307163" lon="13.15120355721892"><ele>1196.0</ele><time>2026-04-24T09:20:54Z</time></trkpt><trkpt lat="42.03996285744673" lon="13.151313959955466"><ele>1196.0</ele><time>2026-04-24T09:20:55Z</time></trkpt><trkpt lat="42.039897375740686" lon="13.151400540366877"><ele>1196.0</ele><time>2026-04-24T09:20:56Z</time></trkpt><trkpt lat="42.03982166458842" lon="13.151457582555727"><ele>1196.0</ele><time>2026-04-24T09:20:57Z</time></trkpt><trkpt lat="42.039751943826865" lon="13.151515293301054"><ele>1196.0</ele><time>2026-04-24T09:20:58Z</time></trkpt><trkpt lat="42.039645249727776" lon="13.15155491445422"><ele>1196.0</ele><time>2026-04-24T09:20:59Z</time></trkpt><trkpt lat="42.039529840270454" lon="13.151579238196852"><ele>1201.25</ele><time>2026-04-24T09:21:00.001Z</time></trkpt><trkpt lat="42.03942867966507" lon="13.151622989991889"><ele>1206.5</ele><time>2026-04-24T09:21:01.001Z</time></trkpt><trkpt lat="42.03933924222062" lon="13.151686341627855"><ele>1211.75</ele><time>2026-04-24T09:21:02.001Z</time></trkpt><trkpt lat="42.03924498659189" lon="13.151823369338661"><ele>1217.0</ele><time>2026-04-24T09:21:03.001Z</time></trkpt><trkpt lat="42.03913797850434" lon="13.151921543447466"><ele>1215.5</ele><time>2026-04-24T09:21:04.001Z</time></trkpt><trkpt lat="42.03903241435568" lon="13.152034126960396"><ele>1214.0</ele><time>2026-04-24T09:21:05.001Z</time></trkpt><trkpt lat="42.03892502421459" lon="13.152136520880163"><ele>1212.5</ele><time>2026-04-24T09:21:06.001Z</time></trkpt><trkpt lat="42.03881921486572" lon="13.152223224804828"><ele>1211.0</ele><time>2026-04-24T09:21:07.001Z</time></trkpt><trkpt lat="42.03869602357437" lon="13.152319602341787"><ele>1216.0</ele><time>2026-04-24T09:21:08.001Z</time></trkpt><trkpt lat="42.0385634312368" lon="13.152415107537005"><ele>1221.0</ele><time>2026-04-24T09:21:09.001Z</time></trkpt><trkpt lat="42.03842409873512" lon="13.152506902148255"><ele>1226.0</ele><time>2026-04-24T09:21:10.001Z</time></trkpt><trkpt lat="42.03826402536979" lon="13.152595975860901"><ele>1226.0</ele><time>2026-04-24T09:21:11.001Z</time></trkpt><trkpt lat="42.038102477079754" lon="13.152705298328767"><ele>1226.0</ele><time>2026-04-24T09:21:12.001Z</time></trkpt><trkpt lat="42.037962869888865" lon="13.152790593751268"><ele>1226.0</ele><time>2026-04-24T09:21:13.001Z</time></trkpt><trkpt lat="42.03783527861138" lon="13.15286190986022"><ele>1226.0</ele><time>2026-04-24T09:21:14.001Z</time></trkpt><trkpt lat="42.03773720655423" lon="13.15292881435556"><ele>1226.0</ele><time>2026-04-24T09:21:15.001Z</time></trkpt><trkpt lat="42.03766713842741" lon="13.152978098327722"><ele>1226.0</ele><time>2026-04-24T09:21:16.001Z</time></trkpt><trkpt lat="42.037602776903356" lon="13.153011746018858"><ele>1226.0</ele><time>2026-04-24T09:21:17.001Z</time></trkpt><trkpt lat="42.037525660543174" lon="13.153033250733882"><ele>1226.0</ele><time>2026-04-24T09:21:18.001Z</time></trkpt><trkpt lat="42.03745027956803" lon="13.153025361637845"><ele>1226.0</ele><time>2026-04-24T09:21:19.001Z</time></trkpt><trkpt lat="42.0373865339692" lon="13.153004524970097"><ele>1225.0</ele><time>2026-04-24T09:21:20.001Z</time></trkpt><trkpt lat="42.03729123404214" lon="13.152921582397248"><ele>1224.0</ele><time>2026-04-24T09:21:22.001Z</time></trkpt><trkpt lat="42.03728494642262" lon="13.15283090185799"><ele>1223.0</ele><time>2026-04-24T09:21:23.001Z</time></trkpt><trkpt lat="42.037209953035784" lon="13.152734359168345"><ele>1222.0</ele><time>2026-04-24T09:21:25.001Z</time></trkpt><trkpt lat="42.03711268590975" lon="13.152669793567151"><ele>1221.0</ele><time>2026-04-24T09:21:27.001Z</time></trkpt><trkpt lat="42.037040791122294" lon="13.152745271154357"><ele>1221.0</ele><time>2026-04-24T09:21:28.001Z</time></trkpt><trkpt lat="42.03697402867925" lon="13.152800821186043"><ele>1221.0</ele><time>2026-04-24T09:21:29.001Z</time></trkpt><trkpt lat="42.03689211001885" lon="13.152827032367735"><ele>1221.0</ele><time>2026-04-24T09:21:30.001Z</time></trkpt><trkpt lat="42.03684206792767" lon="13.152884697801095"><ele>1221.0</ele><time>2026-04-24T09:21:31Z</time></trkpt><trkpt lat="42.03682026758253" lon="13.152972924335003"><ele>1221.0</ele><time>2026-04-24T09:21:32Z</time></trkpt><trkpt lat="42.036806243966346" lon="13.153079547952716"><ele>1221.0</ele><time>2026-04-24T09:21:33Z</time></trkpt><trkpt lat="42.0368082825015" lon="13.153210059793604"><ele>1223.0</ele><time>2026-04-24T09:21:34Z</time></trkpt><trkpt lat="42.036788307347294" lon="13.153343106223295"><ele>1225.0</ele><time>2026-04-24T09:21:35Z</time></trkpt><trkpt lat="42.03675494441736" lon="13.153457270169255"><ele>1227.0</ele><time>2026-04-24T09:21:36Z</time></trkpt><trkpt lat="42.03671499946501" lon="13.153544749206171"><ele>1229.0</ele><time>2026-04-24T09:21:37Z</time></trkpt><trkpt lat="42.03666020033141" lon="13.153639530994177"><ele>1231.0</ele><time>2026-04-24T09:21:38Z</time></trkpt><trkpt lat="42.036607325113835" lon="13.153747959145587"><ele>1231.0</ele><time>2026-04-24T09:21:39Z</time></trkpt><trkpt lat="42.03656434398568" lon="13.153879500158467"><ele>1231.0</ele><time>2026-04-24T09:21:40Z</time></trkpt><trkpt lat="42.03652504643519" lon="13.153994335861688"><ele>1231.0</ele><time>2026-04-24T09:21:41Z</time></trkpt><trkpt lat="42.03648875778653" lon="13.154077664280802"><ele>1231.0</ele><time>2026-04-24T09:21:42Z</time></trkpt><trkpt lat="42.03637627154171" lon="13.154156237157261"><ele>1231.0</ele><time>2026-04-24T09:21:44Z</time></trkpt><trkpt lat="42.03628710113191" lon="13.154144432829403"><ele>1233.0</ele><time>2026-04-24T09:21:45Z</time></trkpt><trkpt lat="42.03619806727566" lon="13.154160380087374"><ele>1235.0</ele><time>2026-04-24T09:21:46Z</time></trkpt><trkpt lat="42.03610894263088" lon="13.154192844100717"><ele>1237.0</ele><time>2026-04-24T09:21:47Z</time></trkpt><trkpt lat="42.03601561391859" lon="13.15426673843929"><ele>1239.0</ele><time>2026-04-24T09:21:48Z</time></trkpt><trkpt lat="42.03592739170686" lon="13.154366195032852"><ele>1241.0</ele><time>2026-04-24T09:21:49Z</time></trkpt><trkpt lat="42.03581971073454" lon="13.154470503783589"><ele>1238.0</ele><time>2026-04-24T09:21:50Z</time></trkpt><trkpt lat="42.03570543600855" lon="13.15456602444193"><ele>1235.0</ele><time>2026-04-24T09:21:51Z</time></trkpt><trkpt lat="42.03559210879349" lon="13.154660469418676"><ele>1232.0</ele><time>2026-04-24T09:21:52Z</time></trkpt><trkpt lat="42.03548616938302" lon="13.154750539730767"><ele>1229.0</ele><time>2026-04-24T09:21:53Z</time></trkpt><trkpt lat="42.0354109829083" lon="13.154845846104314"><ele>1230.5</ele><time>2026-04-24T09:21:54Z</time></trkpt><trkpt lat="42.035332374642245" lon="13.154935837402888"><ele>1232.0</ele><time>2026-04-24T09:21:55Z</time></trkpt><trkpt lat="42.03526764227321" lon="13.155055210832435"><ele>1233.5</ele><time>2026-04-24T09:21:56Z</time></trkpt><trkpt lat="42.03520180666834" lon="13.155197364470718"><ele>1235.0</ele><time>2026-04-24T09:21:57Z</time></trkpt><trkpt lat="42.03515287533407" lon="13.155355180543413"><ele>1235.0</ele><time>2026-04-24T09:21:58Z</time></trkpt><trkpt lat="42.03511595023932" lon="13.155496037884769"><ele>1235.0</ele><time>2026-04-24T09:21:59Z</time></trkpt><trkpt lat="42.035104517817466" lon="13.155624740885848"><ele>1235.0</ele><time>2026-04-24T09:22:00Z</time></trkpt><trkpt lat="42.035124894261074" lon="13.155728816811624"><ele>1235.0</ele><time>2026-04-24T09:22:01Z</time></trkpt><trkpt lat="42.03510843231737" lon="13.155846349726986"><ele>1235.0</ele><time>2026-04-24T09:22:03Z</time></trkpt><trkpt lat="42.03503703099262" lon="13.155872058185533"><ele>1236.8</ele><time>2026-04-24T09:22:04Z</time></trkpt><trkpt lat="42.034979269135455" lon="13.15592489315637"><ele>1238.6</ele><time>2026-04-24T09:22:05Z</time></trkpt><trkpt lat="42.03490363374972" lon="13.156015511356173"><ele>1240.4</ele><time>2026-04-24T09:22:06Z</time></trkpt><trkpt lat="42.034838861433016" lon="13.156131788752576"><ele>1242.2</ele><time>2026-04-24T09:22:07Z</time></trkpt><trkpt lat="42.03478894451119" lon="13.156269839639583"><ele>1244.0</ele><time>2026-04-24T09:22:08Z</time></trkpt><trkpt lat="42.03475292676601" lon="13.156407265725493"><ele>1244.6000000000001</ele><time>2026-04-24T09:22:09Z</time></trkpt><trkpt lat="42.03472550219814" lon="13.15654835175237"><ele>1245.2</ele><time>2026-04-24T09:22:10Z</time></trkpt><trkpt lat="42.03470309931474" lon="13.156672184433036"><ele>1245.8000000000002</ele><time>2026-04-24T09:22:11Z</time></trkpt><trkpt lat="42.03466442602295" lon="13.156784725076685"><ele>1246.4</ele><time>2026-04-24T09:22:12Z</time></trkpt><trkpt lat="42.034607880228364" lon="13.156891686728908"><ele>1247.0</ele><time>2026-04-24T09:22:13Z</time></trkpt><trkpt lat="42.03453859938456" lon="13.157001553427692"><ele>1247.0</ele><time>2026-04-24T09:22:14Z</time></trkpt><trkpt lat="42.034451941437574" lon="13.157116733366752"><ele>1247.0</ele><time>2026-04-24T09:22:15Z</time></trkpt><trkpt lat="42.03436218653193" lon="13.157234083379583"><ele>1247.0</ele><time>2026-04-24T09:22:16Z</time></trkpt><trkpt lat="42.034280417822245" lon="13.157348799167407"><ele>1247.0</ele><time>2026-04-24T09:22:17Z</time></trkpt><trkpt lat="42.03420549696813" lon="13.1574621442701"><ele>1250.0</ele><time>2026-04-24T09:22:18Z</time></trkpt><trkpt lat="42.034132709273294" lon="13.157574203061817"><ele>1253.0</ele><time>2026-04-24T09:22:19Z</time></trkpt><trkpt lat="42.034050355175005" lon="13.157695139333912"><ele>1256.0</ele><time>2026-04-24T09:22:20Z</time></trkpt><trkpt lat="42.03398670907181" lon="13.157795924654724"><ele>1259.0</ele><time>2026-04-24T09:22:21Z</time></trkpt><trkpt lat="42.03393914089878" lon="13.15791906672927"><ele>1262.0</ele><time>2026-04-24T09:22:22Z</time></trkpt><trkpt lat="42.033882899656106" lon="13.158049950023548"><ele>1262.0</ele><time>2026-04-24T09:22:23Z</time></trkpt><trkpt lat="42.0338474428029" lon="13.158187108212667"><ele>1262.0</ele><time>2026-04-24T09:22:24Z</time></trkpt><trkpt lat="42.03383059999458" lon="13.158327662196378"><ele>1262.0</ele><time>2026-04-24T09:22:25Z</time></trkpt><trkpt lat="42.033835191127466" lon="13.158479988049738"><ele>1262.0</ele><time>2026-04-24T09:22:26Z</time></trkpt><trkpt lat="42.03526764227321" lon="13.155055210832435"><ele>1255.25</ele><time>2026-04-24T09:21:56Z</time></trkpt><trkpt lat="42.03520180666834" lon="13.155197364470718"><ele>1248.5</ele><time>2026-04-24T09:21:57Z</time></trkpt><trkpt lat="42.03515287533407" lon="13.155355180543413"><ele>1241.75</ele><time>2026-04-24T09:21:58Z</time></trkpt><trkpt lat="42.03511595023932" lon="13.155496037884769"><ele>1235.0</ele><time>2026-04-24T09:21:59Z</time></trkpt><trkpt lat="42.035104517817466" lon="13.155624740885848"><ele>1236.5</ele><time>2026-04-24T09:22:00Z</time></trkpt><trkpt lat="42.035124894261074" lon="13.155728816811624"><ele>1238.0</ele><time>2026-04-24T09:22:01Z</time></trkpt><trkpt lat="42.03510843231737" lon="13.155846349726986"><ele>1239.5</ele><time>2026-04-24T09:22:03Z</time></trkpt><trkpt lat="42.03503703099262" lon="13.155872058185533"><ele>1241.0</ele><time>2026-04-24T09:22:04Z</time></trkpt><trkpt lat="42.034979269135455" lon="13.15592489315637"><ele>1242.5</ele><time>2026-04-24T09:22:05Z</time></trkpt><trkpt lat="42.03490363374972" lon="13.156015511356173"><ele>1244.0</ele><time>2026-04-24T09:22:06Z</time></trkpt><trkpt lat="42.034838861433016" lon="13.156131788752576"><ele>1244.0</ele><time>2026-04-24T09:22:07Z</time></trkpt><trkpt lat="42.03478894451119" lon="13.156269839639583"><ele>1244.0</ele><time>2026-04-24T09:22:08Z</time></trkpt><trkpt lat="42.03475292676601" lon="13.156407265725493"><ele>1244.0</ele><time>2026-04-24T09:22:09Z</time></trkpt><trkpt lat="42.03472550219814" lon="13.15654835175237"><ele>1244.0</ele><time>2026-04-24T09:22:10Z</time></trkpt><trkpt lat="42.03470309931474" lon="13.156672184433036"><ele>1244.0</ele><time>2026-04-24T09:22:11Z</time></trkpt><trkpt lat="42.03466442602295" lon="13.156784725076685"><ele>1244.75</ele><time>2026-04-24T09:22:12Z</time></trkpt><trkpt lat="42.034607880228364" lon="13.156891686728908"><ele>1245.5</ele><time>2026-04-24T09:22:13Z</time></trkpt><trkpt lat="42.03453859938456" lon="13.157001553427692"><ele>1246.25</ele><time>2026-04-24T09:22:14Z</time></trkpt><trkpt lat="42.034451941437574" lon="13.157116733366752"><ele>1247.0</ele><time>2026-04-24T09:22:15Z</time></trkpt><trkpt lat="42.03436218653193" lon="13.157234083379583"><ele>1247.0</ele><time>2026-04-24T09:22:16Z</time></trkpt><trkpt lat="42.034280417822245" lon="13.157348799167407"><ele>1247.0</ele><time>2026-04-24T09:22:17Z</time></trkpt><trkpt lat="42.03420549696813" lon="13.1574621442701"><ele>1247.0</ele><time>2026-04-24T09:22:18Z</time></trkpt><trkpt lat="42.034132709273294" lon="13.157574203061817"><ele>1247.0</ele><time>2026-04-24T09:22:19Z</time></trkpt><trkpt lat="42.034050355175005" lon="13.157695139333912"><ele>1248.0</ele><time>2026-04-24T09:22:20Z</time></trkpt><trkpt lat="42.03398670907181" lon="13.157795924654724"><ele>1249.0</ele><time>2026-04-24T09:22:21Z</time></trkpt><trkpt lat="42.03393914089878" lon="13.15791906672927"><ele>1250.0</ele><time>2026-04-24T09:22:22Z</time></trkpt><trkpt lat="42.033882899656106" lon="13.158049950023548"><ele>1251.0</ele><time>2026-04-24T09:22:23Z</time></trkpt><trkpt lat="42.0338474428029" lon="13.158187108212667"><ele>1252.0</ele><time>2026-04-24T09:22:24Z</time></trkpt><trkpt lat="42.03383059999458" lon="13.158327662196378"><ele>1252.0</ele><time>2026-04-24T09:22:25Z</time></trkpt><trkpt lat="42.033835191127466" lon="13.158479988049738"><ele>1252.0</ele><time>2026-04-24T09:22:26Z</time></trkpt><trkpt lat="42.03382317433381" lon="13.158624535812951"><ele>1252.0</ele><time>2026-04-24T09:22:27Z</time></trkpt><trkpt lat="42.03379416532851" lon="13.15876538361366"><ele>1252.0</ele><time>2026-04-24T09:22:28Z</time></trkpt><trkpt lat="42.03374676359355" lon="13.158905817758404"><ele>1252.0</ele><time>2026-04-24T09:22:29Z</time></trkpt><trkpt lat="42.03369535558635" lon="13.159039455162693"><ele>1252.0</ele><time>2026-04-24T09:22:30Z</time></trkpt><trkpt lat="42.03363994717577" lon="13.159160414516219"><ele>1252.0</ele><time>2026-04-24T09:22:31Z</time></trkpt><trkpt lat="42.03358401851294" lon="13.159269445210741"><ele>1252.0</ele><time>2026-04-24T09:22:32Z</time></trkpt><trkpt lat="42.03352662407348" lon="13.159374516165197"><ele>1252.0</ele><time>2026-04-24T09:22:33Z</time></trkpt><trkpt lat="42.033462468249056" lon="13.159488375250564"><ele>1252.0</ele><time>2026-04-24T09:22:34Z</time></trkpt><trkpt lat="42.03340110195728" lon="13.1595962897761"><ele>1252.0</ele><time>2026-04-24T09:22:35Z</time></trkpt><trkpt lat="42.03333524208681" lon="13.15970174259813"><ele>1252.0</ele><time>2026-04-24T09:22:36Z</time></trkpt><trkpt lat="42.033262362884855" lon="13.159779383818217"><ele>1252.0</ele><time>2026-04-24T09:22:37Z</time></trkpt><trkpt lat="42.033179742027" lon="13.159837580686085"><ele>1252.0</ele><time>2026-04-24T09:22:38Z</time></trkpt><trkpt lat="42.03308496745231" lon="13.159855995395404"><ele>1252.0</ele><time>2026-04-24T09:22:39Z</time></trkpt><trkpt lat="42.0329826102465" lon="13.159887293263479"><ele>1254.4</ele><time>2026-04-24T09:22:40Z</time></trkpt><trkpt lat="42.032888704771686" lon="13.159929371314616"><ele>1256.8000000000002</ele><time>2026-04-24T09:22:41Z</time></trkpt><trkpt lat="42.032793588219" lon="13.159997954167928"><ele>1259.2</ele><time>2026-04-24T09:22:42Z</time></trkpt><trkpt lat="42.032716476011615" lon="13.160111732846898"><ele>1261.6000000000001</ele><time>2026-04-24T09:22:43Z</time></trkpt><trkpt lat="42.03263246696031" lon="13.16022051347049"><ele>1264.0</ele><time>2026-04-24T09:22:44Z</time></trkpt><trkpt lat="42.03253463899776" lon="13.160322423409472"><ele>1267.5</ele><time>2026-04-24T09:22:45Z</time></trkpt><trkpt lat="42.0324459581246" lon="13.160445445032567"><ele>1271.0</ele><time>2026-04-24T09:22:46Z</time></trkpt><trkpt lat="42.03235555610001" lon="13.160580427714564"><ele>1274.5</ele><time>2026-04-24T09:22:47Z</time></trkpt><trkpt lat="42.032281114659945" lon="13.160740299762177"><ele>1278.0</ele><time>2026-04-24T09:22:48Z</time></trkpt><trkpt lat="42.032196888994896" lon="13.160881914274471"><ele>1278.0</ele><time>2026-04-24T09:22:49Z</time></trkpt><trkpt lat="42.0320810288715" lon="13.160994181261996"><ele>1278.0</ele><time>2026-04-24T09:22:50Z</time></trkpt><trkpt lat="42.03196681018501" lon="13.161116811461392"><ele>1278.0</ele><time>2026-04-24T09:22:51Z</time></trkpt><trkpt lat="42.03186616951136" lon="13.161246155842884"><ele>1278.0</ele><time>2026-04-24T09:22:52Z</time></trkpt><trkpt lat="42.031774681601746" lon="13.161333082817741"><ele>1278.0</ele><time>2026-04-24T09:22:53Z</time></trkpt><trkpt lat="42.03169671462411" lon="13.161424761068863"><ele>1278.0</ele><time>2026-04-24T09:22:54Z</time></trkpt><trkpt lat="42.031630288771574" lon="13.161540112901491"><ele>1278.0</ele><time>2026-04-24T09:22:55Z</time></trkpt><trkpt lat="42.031571823159425" lon="13.161670982366115"><ele>1278.0</ele><time>2026-04-24T09:22:56Z</time></trkpt><trkpt lat="42.03152653144222" lon="13.16181731045603"><ele>1278.0</ele><time>2026-04-24T09:22:57Z</time></trkpt><trkpt lat="42.031452787401925" lon="13.161965671209876"><ele>1278.25</ele><time>2026-04-24T09:22:58Z</time></trkpt><trkpt lat="42.03138205741599" lon="13.162108394597656"><ele>1278.5</ele><time>2026-04-24T09:22:59Z</time></trkpt><trkpt lat="42.031283324748784" lon="13.162218263635186"><ele>1278.75</ele><time>2026-04-24T09:23:00Z</time></trkpt><trkpt lat="42.03116575353878" lon="13.162342511640826"><ele>1279.0</ele><time>2026-04-24T09:23:01Z</time></trkpt><trkpt lat="42.03104525241706" lon="13.16247085348022"><ele>1279.0</ele><time>2026-04-24T09:23:02Z</time></trkpt><trkpt lat="42.03094218030331" lon="13.162564729292807"><ele>1279.0</ele><time>2026-04-24T09:23:03Z</time></trkpt><trkpt lat="42.030844019231836" lon="13.162649243209772"><ele>1279.0</ele><time>2026-04-24T09:23:04Z</time></trkpt><trkpt lat="42.03074962230668" lon="13.162736508344079"><ele>1279.0</ele><time>2026-04-24T09:23:05Z</time></trkpt><trkpt lat="42.03066959650847" lon="13.162853252949702"><ele>1281.0</ele><time>2026-04-24T09:23:06.001Z</time></trkpt><trkpt lat="42.03062807685155" lon="13.163008383516331"><ele>1283.0</ele><time>2026-04-24T09:23:07.001Z</time></trkpt><trkpt lat="42.03057026482653" lon="13.163161946086282"><ele>1285.0</ele><time>2026-04-24T09:23:08.001Z</time></trkpt><trkpt lat="42.0304799351655" lon="13.16326822554077"><ele>1287.0</ele><time>2026-04-24T09:23:09.001Z</time></trkpt><trkpt lat="42.03038711564938" lon="13.16339491849339"><ele>1287.0</ele><time>2026-04-24T09:23:10.001Z</time></trkpt><trkpt lat="42.0302819299779" lon="13.163543230089935"><ele>1287.0</ele><time>2026-04-24T09:23:11.001Z</time></trkpt><trkpt lat="42.030175603270386" lon="13.163683854037522"><ele>1287.0</ele><time>2026-04-24T09:23:12.001Z</time></trkpt><trkpt lat="42.03005601324052" lon="13.163801500710075"><ele>1287.0</ele><time>2026-04-24T09:23:13.001Z</time></trkpt><trkpt lat="42.029952255420184" lon="13.163960469836892"><ele>1289.25</ele><time>2026-04-24T09:23:14.001Z</time></trkpt><trkpt lat="42.02985388857778" lon="13.164128654203697"><ele>1291.5</ele><time>2026-04-24T09:23:15.001Z</time></trkpt><trkpt lat="42.029771675518795" lon="13.16428870626904"><ele>1293.75</ele><time>2026-04-24T09:23:16.001Z</time></trkpt><trkpt lat="42.0297001017023" lon="13.164424191237412"><ele>1296.0</ele><time>2026-04-24T09:23:17.001Z</time></trkpt><trkpt lat="42.029623211546976" lon="13.1645344207399"><ele>1296.0</ele><time>2026-04-24T09:23:18.001Z</time></trkpt><trkpt lat="42.02954296720783" lon="13.164634202119066"><ele>1296.0</ele><time>2026-04-24T09:23:19.001Z</time></trkpt><trkpt lat="42.029460922271426" lon="13.16476327249796"><ele>1296.0</ele><time>2026-04-24T09:23:20.001Z</time></trkpt><trkpt lat="42.02936024467326" lon="13.164890838254086"><ele>1296.0</ele><time>2026-04-24T09:23:21.001Z</time></trkpt><trkpt lat="42.02926640416612" lon="13.165024264703147"><ele>1298.1999999999998</ele><time>2026-04-24T09:23:22.001Z</time></trkpt><trkpt lat="42.02917663209458" lon="13.165155939753433"><ele>1300.3999999999999</ele><time>2026-04-24T09:23:23.001Z</time></trkpt><trkpt lat="42.0290965200345" lon="13.165259010958913"><ele>1302.6</ele><time>2026-04-24T09:23:24.001Z</time></trkpt><trkpt lat="42.0290343602244" lon="13.165361385555785"><ele>1304.8</ele><time>2026-04-24T09:23:25.001Z</time></trkpt><trkpt lat="42.02899163274569" lon="13.165459008552647"><ele>1307.0</ele><time>2026-04-24T09:23:26.001Z</time></trkpt><trkpt lat="42.02897488071825" lon="13.165578128516199"><ele>1305.8</ele><time>2026-04-24T09:23:27.001Z</time></trkpt><trkpt lat="42.02896871149881" lon="13.165715856683729"><ele>1304.6</ele><time>2026-04-24T09:23:28.001Z</time></trkpt><trkpt lat="42.028975367892265" lon="13.165841186659874"><ele>1303.3999999999999</ele><time>2026-04-24T09:23:29.001Z</time></trkpt><trkpt lat="42.02894697734681" lon="13.165950580227216"><ele>1302.1999999999998</ele><time>2026-04-24T09:23:30.001Z</time></trkpt><trkpt lat="42.02890990245736" lon="13.166087070196282"><ele>1301.0</ele><time>2026-04-24T09:23:31Z</time></trkpt><trkpt lat="42.028862173300865" lon="13.166273165131551"><ele>1301.0</ele><time>2026-04-24T09:23:32Z</time></trkpt><trkpt lat="42.02881974049858" lon="13.166456708537721"><ele>1301.0</ele><time>2026-04-24T09:23:33Z</time></trkpt><trkpt lat="42.028775329317924" lon="13.166629784475608"><ele>1301.0</ele><time>2026-04-24T09:23:34Z</time></trkpt><trkpt lat="42.02872073232525" lon="13.166798198952652"><ele>1301.0</ele><time>2026-04-24T09:23:35Z</time></trkpt><trkpt lat="42.028676464044686" lon="13.166942632558815"><ele>1300.75</ele><time>2026-04-24T09:23:36Z</time></trkpt><trkpt lat="42.02861254811577" lon="13.167082244258483"><ele>1300.5</ele><time>2026-04-24T09:23:37Z</time></trkpt><trkpt lat="42.02854498347064" lon="13.167219688587295"><ele>1300.25</ele><time>2026-04-24T09:23:38Z</time></trkpt><trkpt lat="42.028481201623954" lon="13.167346336849391"><ele>1300.0</ele><time>2026-04-24T09:23:39Z</time></trkpt><trkpt lat="42.02840639073153" lon="13.167490091066886"><ele>1300.5</ele><time>2026-04-24T09:23:40Z</time></trkpt><trkpt lat="42.028330090402804" lon="13.16764833489792"><ele>1301.0</ele><time>2026-04-24T09:23:41Z</time></trkpt><trkpt lat="42.02826462791612" lon="13.16781230654669"><ele>1301.5</ele><time>2026-04-24T09:23:42Z</time></trkpt><trkpt lat="42.02818847642032" lon="13.167972389455205"><ele>1302.0</ele><time>2026-04-24T09:23:43Z</time></trkpt><trkpt lat="42.02810449184443" lon="13.168136384431762"><ele>1302.0</ele><time>2026-04-24T09:23:44Z</time></trkpt><trkpt lat="42.02802516445304" lon="13.168281588308089"><ele>1302.0</ele><time>2026-04-24T09:23:45Z</time></trkpt><trkpt lat="42.027929847840944" lon="13.168449735686835"><ele>1302.0</ele><time>2026-04-24T09:23:46Z</time></trkpt><trkpt lat="42.02783790494691" lon="13.16860100643115"><ele>1302.0</ele><time>2026-04-24T09:23:47Z</time></trkpt><trkpt lat="42.02775541164691" lon="13.168730883741135"><ele>1302.0</ele><time>2026-04-24T09:23:48Z</time></trkpt><trkpt lat="42.02766735155981" lon="13.168862650468084"><ele>1302.0</ele><time>2026-04-24T09:23:49Z</time></trkpt><trkpt lat="42.02757091244872" lon="13.168989093003315"><ele>1302.0</ele><time>2026-04-24T09:23:50Z</time></trkpt><trkpt lat="42.02747859449897" lon="13.169122335411103"><ele>1302.0</ele><time>2026-04-24T09:23:51Z</time></trkpt><trkpt lat="42.027383965954414" lon="13.169248480530344"><ele>1303.5</ele><time>2026-04-24T09:23:52Z</time></trkpt><trkpt lat="42.02730292264497" lon="13.169393834487877"><ele>1305.0</ele><time>2026-04-24T09:23:53Z</time></trkpt><trkpt lat="42.027210854014974" lon="13.169527271239103"><ele>1306.5</ele><time>2026-04-24T09:23:54Z</time></trkpt><trkpt lat="42.02712938676806" lon="13.169645761249088"><ele>1308.0</ele><time>2026-04-24T09:23:55Z</time></trkpt><trkpt lat="42.027039408932836" lon="13.169777614821204"><ele>1308.0</ele><time>2026-04-24T09:23:56Z</time></trkpt><trkpt lat="42.026952272830364" lon="13.169905303918105"><ele>1308.0</ele><time>2026-04-24T09:23:57Z</time></trkpt><trkpt lat="42.02686382300367" lon="13.170034224899403"><ele>1308.0</ele><time>2026-04-24T09:23:58Z</time></trkpt><trkpt lat="42.02677916838116" lon="13.170156957793305"><ele>1308.0</ele><time>2026-04-24T09:23:59Z</time></trkpt><trkpt lat="42.026688137548405" lon="13.170282777957913"><ele>1307.75</ele><time>2026-04-24T09:24:00Z</time></trkpt><trkpt lat="42.0265925265343" lon="13.17040338166938"><ele>1307.5</ele><time>2026-04-24T09:24:01Z</time></trkpt><trkpt lat="42.02651884625004" lon="13.17054036235182"><ele>1307.25</ele><time>2026-04-24T09:24:02Z</time></trkpt><trkpt lat="42.02644710593196" lon="13.170651179561457"><ele>1307.0</ele><time>2026-04-24T09:24:03Z</time></trkpt><trkpt lat="42.02638346134502" lon="13.170795562870843"><ele>1307.0</ele><time>2026-04-24T09:24:04Z</time></trkpt><trkpt lat="42.026302777126425" lon="13.170936694708347"><ele>1307.0</ele><time>2026-04-24T09:24:05Z</time></trkpt><trkpt lat="42.02623116757523" lon="13.17109242146077"><ele>1307.0</ele><time>2026-04-24T09:24:06Z</time></trkpt><trkpt lat="42.02616993288002" lon="13.17125312740067"><ele>1307.0</ele><time>2026-04-24T09:24:07Z</time></trkpt><trkpt lat="42.02611060368745" lon="13.171384716980695"><ele>1307.75</ele><time>2026-04-24T09:24:08Z</time></trkpt><trkpt lat="42.026067433959746" lon="13.171534903716399"><ele>1308.5</ele><time>2026-04-24T09:24:09Z</time></trkpt><trkpt lat="42.026010507922074" lon="13.17165292786011"><ele>1309.25</ele><time>2026-04-24T09:24:10Z</time></trkpt><trkpt lat="42.0259482414086" lon="13.171788372449827"><ele>1310.0</ele><time>2026-04-24T09:24:11Z</time></trkpt><trkpt lat="42.025882331404944" lon="13.171929866904437"><ele>1310.0</ele><time>2026-04-24T09:24:12Z</time></trkpt><trkpt lat="42.02581225884423" lon="13.172077524434792"><ele>1310.0</ele><time>2026-04-24T09:24:13Z</time></trkpt><trkpt lat="42.025738517122704" lon="13.17223307838908"><ele>1310.0</ele><time>2026-04-24T09:24:14Z</time></trkpt><trkpt lat="42.02566316710501" lon="13.172392025172144"><ele>1310.0</ele><time>2026-04-24T09:24:15Z</time></trkpt><trkpt lat="42.025595211044" lon="13.172535374629433"><ele>1313.75</ele><time>2026-04-24T09:24:16Z</time></trkpt><trkpt lat="42.02553740810035" lon="13.17265730805851"><ele>1317.5</ele><time>2026-04-24T09:24:17Z</time></trkpt><trkpt lat="42.02548788470507" lon="13.172761777237795"><ele>1321.25</ele><time>2026-04-24T09:24:18Z</time></trkpt><trkpt lat="42.02544421008936" lon="13.172853908477265"><ele>1325.0</ele><time>2026-04-24T09:24:19Z</time></trkpt><trkpt lat="42.025606541155945" lon="13.173129899898965"><ele>1325.0</ele><time>2026-04-24T09:24:20Z</time></trkpt><trkpt lat="42.02559134347136" lon="13.173238354175448"><ele>1325.0</ele><time>2026-04-24T09:24:21Z</time></trkpt><trkpt lat="42.02556882611802" lon="13.17332769924196"><ele>1325.0</ele><time>2026-04-24T09:24:22Z</time></trkpt><trkpt lat="42.025516871283806" lon="13.173407253456556"><ele>1325.0</ele><time>2026-04-24T09:24:23Z</time></trkpt><trkpt lat="42.025430513258804" lon="13.173503926719084"><ele>1325.0</ele><time>2026-04-24T09:24:24Z</time></trkpt><trkpt lat="42.02533530655865" lon="13.173569601910415"><ele>1325.0</ele><time>2026-04-24T09:24:25Z</time></trkpt><trkpt lat="42.025255471560016" lon="13.173629292739045"><ele>1325.0</ele><time>2026-04-24T09:24:26Z</time></trkpt><trkpt lat="42.02516449654576" lon="13.173839289111438"><ele>1325.0</ele><time>2026-04-24T09:24:27Z</time></trkpt><trkpt lat="42.02508331628779" lon="13.173947532596609"><ele>1325.0</ele><time>2026-04-24T09:24:28Z</time></trkpt><trkpt lat="42.02499227521706" lon="13.174057701157874"><ele>1327.2</ele><time>2026-04-24T09:24:29Z</time></trkpt><trkpt lat="42.02491319515453" lon="13.174174741132799"><ele>1329.4</ele><time>2026-04-24T09:24:30Z</time></trkpt><trkpt lat="42.024834979434594" lon="13.174278341985607"><ele>1331.6</ele><time>2026-04-24T09:24:31Z</time></trkpt><trkpt lat="42.024754037796804" lon="13.174364264607538"><ele>1333.8</ele><time>2026-04-24T09:24:32Z</time></trkpt><trkpt lat="42.024715139166126" lon="13.174437245447102"><ele>1336.0</ele><time>2026-04-24T09:24:33Z</time></trkpt><trkpt lat="42.02467818296616" lon="13.174524186774761"><ele>1336.0</ele><time>2026-04-24T09:24:34Z</time></trkpt><trkpt lat="42.02464147418359" lon="13.174634440334321"><ele>1336.0</ele><time>2026-04-24T09:24:35Z</time></trkpt><trkpt lat="42.02460772596213" lon="13.17473161429661"><ele>1336.0</ele><time>2026-04-24T09:24:36Z</time></trkpt><trkpt lat="42.024547281179295" lon="13.17480098986865"><ele>1336.0</ele><time>2026-04-24T09:24:37Z</time></trkpt><trkpt lat="42.02445610518106" lon="13.17489386992703"><ele>1336.0</ele><time>2026-04-24T09:24:38Z</time></trkpt><trkpt lat="42.024373644854435" lon="13.174978111598518"><ele>1336.0</ele><time>2026-04-24T09:24:39Z</time></trkpt><trkpt lat="42.02430489791787" lon="13.17509707602869"><ele>1336.0</ele><time>2026-04-24T09:24:40Z</time></trkpt><trkpt lat="42.02423685283118" lon="13.175231528223932"><ele>1336.0</ele><time>2026-04-24T09:24:41Z</time></trkpt><trkpt lat="42.02417417928258" lon="13.175379038387453"><ele>1336.0</ele><time>2026-04-24T09:24:42Z</time></trkpt><trkpt lat="42.02412916760962" lon="13.175485644878819"><ele>1336.8</ele><time>2026-04-24T09:24:43Z</time></trkpt><trkpt lat="42.024065540362685" lon="13.175535351534053"><ele>1337.6</ele><time>2026-04-24T09:24:44Z</time></trkpt><trkpt lat="42.02397491682269" lon="13.175608241071757"><ele>1338.4</ele><time>2026-04-24T09:24:45Z</time></trkpt><trkpt lat="42.02387165988128" lon="13.17570009430577"><ele>1339.2</ele><time>2026-04-24T09:24:46Z</time></trkpt><trkpt lat="42.02378303330961" lon="13.175807600027925"><ele>1340.0</ele><time>2026-04-24T09:24:47Z</time></trkpt><trkpt lat="42.02369159761735" lon="13.175932003764803"><ele>1340.0</ele><time>2026-04-24T09:24:48Z</time></trkpt><trkpt lat="42.023597326252606" lon="13.17604622107738"><ele>1340.0</ele><time>2026-04-24T09:24:49Z</time></trkpt><trkpt lat="42.023498110282794" lon="13.17617015298828"><ele>1340.0</ele><time>2026-04-24T09:24:50Z</time></trkpt><trkpt lat="42.023414039021056" lon="13.176280886126252"><ele>1340.0</ele><time>2026-04-24T09:24:51Z</time></trkpt><trkpt lat="42.023332275599294" lon="13.176387944846809"><ele>1343.6</ele><time>2026-04-24T09:24:52Z</time></trkpt><trkpt lat="42.02325982809547" lon="13.176490340149211"><ele>1347.2</ele><time>2026-04-24T09:24:53Z</time></trkpt><trkpt lat="42.02320504444523" lon="13.176576227102991"><ele>1350.8000000000002</ele><time>2026-04-24T09:24:54Z</time></trkpt><trkpt lat="42.02315548354162" lon="13.176669620134074"><ele>1354.4</ele><time>2026-04-24T09:24:55Z</time></trkpt><trkpt lat="42.02309899188414" lon="13.176763386643485"><ele>1358.0</ele><time>2026-04-24T09:24:56Z</time></trkpt><trkpt lat="42.02304994670485" lon="13.17686426558269"><ele>1358.0</ele><time>2026-04-24T09:24:57Z</time></trkpt><trkpt lat="42.023000456586644" lon="13.17697384576921"><ele>1358.0</ele><time>2026-04-24T09:24:58Z</time></trkpt><trkpt lat="42.02296222427364" lon="13.177098509940105"><ele>1358.0</ele><time>2026-04-24T09:24:59Z</time></trkpt><trkpt lat="42.02293460110301" lon="13.1772171054485"><ele>1358.0</ele><time>2026-04-24T09:25:00Z</time></trkpt><trkpt lat="42.022901090641405" lon="13.177325512579694"><ele>1358.0</ele><time>2026-04-24T09:25:01Z</time></trkpt><trkpt lat="42.02283881671685" lon="13.177458716541878"><ele>1357.0</ele><time>2026-04-24T09:25:02Z</time></trkpt><trkpt lat="42.022775549118876" lon="13.177598252148389"><ele>1356.0</ele><time>2026-04-24T09:25:03Z</time></trkpt><trkpt lat="42.02271463916105" lon="13.177744594724238"><ele>1355.0</ele><time>2026-04-24T09:25:04Z</time></trkpt><trkpt lat="42.02265613498133" lon="13.177881955984667"><ele>1354.0</ele><time>2026-04-24T09:25:05Z</time></trkpt><trkpt lat="42.02259676730507" lon="13.17800759969108"><ele>1354.0</ele><time>2026-04-24T09:25:06Z</time></trkpt><trkpt lat="42.0225225526827" lon="13.178127249887112"><ele>1354.0</ele><time>2026-04-24T09:25:07Z</time></trkpt><trkpt lat="42.02243964924186" lon="13.178250590317083"><ele>1354.0</ele><time>2026-04-24T09:25:08Z</time></trkpt><trkpt lat="42.022351036576914" lon="13.178388808779378"><ele>1354.0</ele><time>2026-04-24T09:25:09Z</time></trkpt><trkpt lat="42.0222645591067" lon="13.178528896446565"><ele>1353.75</ele><time>2026-04-24T09:25:10Z</time></trkpt><trkpt lat="42.02218130307137" lon="13.178673306695211"><ele>1353.5</ele><time>2026-04-24T09:25:11.001Z</time></trkpt><trkpt lat="42.022102152554965" lon="13.178809617080818"><ele>1353.25</ele><time>2026-04-24T09:25:12.001Z</time></trkpt><trkpt lat="42.022026805909" lon="13.178940213853402"><ele>1353.0</ele><time>2026-04-24T09:25:13.001Z</time></trkpt><trkpt lat="42.02195359710777" lon="13.179062409067999"><ele>1350.75</ele><time>2026-04-24T09:25:14.001Z</time></trkpt><trkpt lat="42.021889045829425" lon="13.179194597771"><ele>1348.5</ele><time>2026-04-24T09:25:15.001Z</time></trkpt><trkpt lat="42.02182756358137" lon="13.179325025217077"><ele>1346.25</ele><time>2026-04-24T09:25:16.001Z</time></trkpt><trkpt lat="42.021762634125" lon="13.179458133254895"><ele>1344.0</ele><time>2026-04-24T09:25:17.001Z</time></trkpt><trkpt lat="42.02168829630317" lon="13.179583978606962"><ele>1349.5</ele><time>2026-04-24T09:25:18.001Z</time></trkpt><trkpt lat="42.0216195610112" lon="13.179702036086214"><ele>1355.0</ele><time>2026-04-24T09:25:19.001Z</time></trkpt><trkpt lat="42.021566585708385" lon="13.179828137086728"><ele>1360.5</ele><time>2026-04-24T09:25:20.001Z</time></trkpt><trkpt lat="42.02152836499688" lon="13.179974597874967"><ele>1366.0</ele><time>2026-04-24T09:25:21.001Z</time></trkpt><trkpt lat="42.02149351370975" lon="13.180143854421157"><ele>1366.0</ele><time>2026-04-24T09:25:22.001Z</time></trkpt><trkpt lat="42.02145714917383" lon="13.18034934127185"><ele>1366.0</ele><time>2026-04-24T09:25:23.001Z</time></trkpt><trkpt lat="42.0214155993337" lon="13.18059339745586"><ele>1366.0</ele><time>2026-04-24T09:25:24.001Z</time></trkpt><trkpt lat="42.02136839604842" lon="13.180869164347495"><ele>1363.0</ele><time>2026-04-24T09:25:25Z</time></trkpt><trkpt lat="42.02132484839699" lon="13.18108807215841"><ele>1360.0</ele><time>2026-04-24T09:25:26Z</time></trkpt><trkpt lat="42.02127986716425" lon="13.181289756457437"><ele>1357.0</ele><time>2026-04-24T09:25:27Z</time></trkpt><trkpt lat="42.02121907619218" lon="13.1814962945274"><ele>1356.25</ele><time>2026-04-24T09:25:28Z</time></trkpt><trkpt lat="42.02116005037605" lon="13.181694875060813"><ele>1355.5</ele><time>2026-04-24T09:25:29Z</time></trkpt><trkpt lat="42.021097432834964" lon="13.181869316988214"><ele>1354.75</ele><time>2026-04-24T09:25:30Z</time></trkpt><trkpt lat="42.0210347534641" lon="13.182036401356482"><ele>1354.0</ele><time>2026-04-24T09:25:31Z</time></trkpt><trkpt lat="42.02097403427998" lon="13.182195402613775"><ele>1355.25</ele><time>2026-04-24T09:25:32Z</time></trkpt><trkpt lat="42.02091291998467" lon="13.182360117415467"><ele>1356.5</ele><time>2026-04-24T09:25:33Z</time></trkpt><trkpt lat="42.02085489541665" lon="13.182552799183235"><ele>1357.75</ele><time>2026-04-24T09:25:34Z</time></trkpt><trkpt lat="42.020806836944814" lon="13.18273918799216"><ele>1359.0</ele><time>2026-04-24T09:25:35Z</time></trkpt><trkpt lat="42.020748371699" lon="13.182929649553984"><ele>1359.0</ele><time>2026-04-24T09:25:36Z</time></trkpt><trkpt lat="42.020686879005126" lon="13.183118622793453"><ele>1359.0</ele><time>2026-04-24T09:25:37Z</time></trkpt><trkpt lat="42.02063300222374" lon="13.183302393868512"><ele>1359.0</ele><time>2026-04-24T09:25:38Z</time></trkpt><trkpt lat="42.020583019613355" lon="13.18348198068463"><ele>1359.0</ele><time>2026-04-24T09:25:39Z</time></trkpt><trkpt lat="42.02052203963534" lon="13.18365806084969"><ele>1357.0</ele><time>2026-04-24T09:25:40Z</time></trkpt><trkpt lat="42.020446864530186" lon="13.183819510056596"><ele>1355.0</ele><time>2026-04-24T09:25:41Z</time></trkpt><trkpt lat="42.0203675267596" lon="13.18397095597038"><ele>1353.0</ele><time>2026-04-24T09:25:42Z</time></trkpt><trkpt lat="42.02030103762734" lon="13.184135742858691"><ele>1351.0</ele><time>2026-04-24T09:25:43Z</time></trkpt><trkpt lat="42.02024234059685" lon="13.184313787237679"><ele>1347.75</ele><time>2026-04-24T09:25:44Z</time></trkpt><trkpt lat="42.0201915588156" lon="13.18448963202377"><ele>1344.5</ele><time>2026-04-24T09:25:45Z</time></trkpt><trkpt lat="42.02013235421285" lon="13.184669536374376"><ele>1341.25</ele><time>2026-04-24T09:25:46Z</time></trkpt><trkpt lat="42.02006696406987" lon="13.184833129649649"><ele>1338.0</ele><time>2026-04-24T09:25:47Z</time></trkpt><trkpt lat="42.019994052655484" lon="13.184981536998714"><ele>1341.25</ele><time>2026-04-24T09:25:48Z</time></trkpt><trkpt lat="42.019936173896845" lon="13.185149068351368"><ele>1344.5</ele><time>2026-04-24T09:25:49Z</time></trkpt><trkpt lat="42.0198794083975" lon="13.185324381690345"><ele>1347.75</ele><time>2026-04-24T09:25:50Z</time></trkpt><trkpt lat="42.01983622050437" lon="13.185492014566963"><ele>1351.0</ele><time>2026-04-24T09:25:51Z</time></trkpt><trkpt lat="42.019796900176836" lon="13.185661206584678"><ele>1346.0</ele><time>2026-04-24T09:25:52Z</time></trkpt><trkpt lat="42.01976166645598" lon="13.185826123079503"><ele>1341.0</ele><time>2026-04-24T09:25:53Z</time></trkpt><trkpt lat="42.0197195475024" lon="13.185983973083301"><ele>1336.0</ele><time>2026-04-24T09:25:54Z</time></trkpt><trkpt lat="42.01965739083719" lon="13.186141047647965"><ele>1331.0</ele><time>2026-04-24T09:25:55Z</time></trkpt><trkpt lat="42.01959795481175" lon="13.18629052893278"><ele>1331.0</ele><time>2026-04-24T09:25:56Z</time></trkpt><trkpt lat="42.019540190640434" lon="13.186429804669253"><ele>1331.0</ele><time>2026-04-24T09:25:57Z</time></trkpt><trkpt lat="42.019465968454966" lon="13.186573283565503"><ele>1331.0</ele><time>2026-04-24T09:25:58Z</time></trkpt><trkpt lat="42.01938933476092" lon="13.18671582279452"><ele>1331.0</ele><time>2026-04-24T09:25:59Z</time></trkpt><trkpt lat="42.0193143550656" lon="13.18683543580443"><ele>1329.5</ele><time>2026-04-24T09:26:00Z</time></trkpt><trkpt lat="42.019225333306316" lon="13.18694700912213"><ele>1328.0</ele><time>2026-04-24T09:26:01Z</time></trkpt><trkpt lat="42.01913228006403" lon="13.187065501103632"><ele>1326.5</ele><time>2026-04-24T09:26:02Z</time></trkpt><trkpt lat="42.019048148368334" lon="13.187186497648787"><ele>1325.0</ele><time>2026-04-24T09:26:03Z</time></trkpt><trkpt lat="42.018984107165885" lon="13.187316806526033"><ele>1326.25</ele><time>2026-04-24T09:26:04Z</time></trkpt><trkpt lat="42.01894070026319" lon="13.187464135941234"><ele>1327.5</ele><time>2026-04-24T09:26:05Z</time></trkpt><trkpt lat="42.01889058473373" lon="13.187635393331472"><ele>1328.75</ele><time>2026-04-24T09:26:06Z</time></trkpt><trkpt lat="42.01882348912841" lon="13.187794638630697"><ele>1330.0</ele><time>2026-04-24T09:26:07Z</time></trkpt><trkpt lat="42.018741413067474" lon="13.187947479196229"><ele>1330.0</ele><time>2026-04-24T09:26:08Z</time></trkpt><trkpt lat="42.018660284519" lon="13.188084427337307"><ele>1330.0</ele><time>2026-04-24T09:26:09Z</time></trkpt><trkpt lat="42.018581276273615" lon="13.188195085024942"><ele>1330.0</ele><time>2026-04-24T09:26:10Z</time></trkpt><trkpt lat="42.01850910676364" lon="13.188294036238236"><ele>1330.0</ele><time>2026-04-24T09:26:11Z</time></trkpt><trkpt lat="42.018456989894624" lon="13.18839971888616"><ele>1330.0</ele><time>2026-04-24T09:26:12Z</time></trkpt><trkpt lat="42.01841683935849" lon="13.188522776142127"><ele>1329.2</ele><time>2026-04-24T09:26:13Z</time></trkpt><trkpt lat="42.01838346719723" lon="13.18865620268972"><ele>1328.4</ele><time>2026-04-24T09:26:14Z</time></trkpt><trkpt lat="42.01835571819533" lon="13.188753451781595"><ele>1327.6</ele><time>2026-04-24T09:26:15Z</time></trkpt><trkpt lat="42.01830866780719" lon="13.188908204232126"><ele>1326.8</ele><time>2026-04-24T09:26:17Z</time></trkpt><trkpt lat="42.018300003596536" lon="13.18903562820786"><ele>1326.0</ele><time>2026-04-24T09:26:19Z</time></trkpt><trkpt lat="42.0183021904151" lon="13.189130671858605"><ele>1327.5</ele><time>2026-04-24T09:26:20Z</time></trkpt><trkpt lat="42.01828961772915" lon="13.189236308308791"><ele>1329.0</ele><time>2026-04-24T09:26:21Z</time></trkpt><trkpt lat="42.01826087233608" lon="13.189343315117872"><ele>1330.5</ele><time>2026-04-24T09:26:22Z</time></trkpt><trkpt lat="42.018223207776934" lon="13.18943911818917"><ele>1332.0</ele><time>2026-04-24T09:26:23Z</time></trkpt><trkpt lat="42.018193813688455" lon="13.189520379284996"><ele>1333.5</ele><time>2026-04-24T09:26:24Z</time></trkpt><trkpt lat="42.01817232638337" lon="13.18960498597939"><ele>1335.0</ele><time>2026-04-24T09:26:25Z</time></trkpt><trkpt lat="42.01812824212614" lon="13.189760131797954"><ele>1333.6666666666667</ele><time>2026-04-24T09:26:27Z</time></trkpt><trkpt lat="42.01810781065019" lon="13.18984724637513"><ele>1332.3333333333333</ele><time>2026-04-24T09:26:28Z</time></trkpt><trkpt lat="42.018087004682194" lon="13.189932852768075"><ele>1331.0</ele><time>2026-04-24T09:26:29Z</time></trkpt><trkpt lat="42.01805547610252" lon="13.190022088293485"><ele>1329.6666666666665</ele><time>2026-04-24T09:26:30Z</time></trkpt><trkpt lat="42.01802737031642" lon="13.190125976936162"><ele>1328.3333333333333</ele><time>2026-04-24T09:26:31Z</time></trkpt><trkpt lat="42.017990834959654" lon="13.190228910100968"><ele>1327.0</ele><time>2026-04-24T09:26:32Z</time></trkpt><trkpt lat="42.01794970531427" lon="13.190343927644916"><ele>1327.0</ele><time>2026-04-24T09:26:33Z</time></trkpt><trkpt lat="42.01790723878944" lon="13.190476913795226"><ele>1327.0</ele><time>2026-04-24T09:26:34Z</time></trkpt><trkpt lat="42.01785308726312" lon="13.190611032599765"><ele>1327.0</ele><time>2026-04-24T09:26:35Z</time></trkpt><trkpt lat="42.01779797932231" lon="13.190747822594787"><ele>1327.0</ele><time>2026-04-24T09:26:36Z</time></trkpt><trkpt lat="42.01774196091069" lon="13.190893657048223"><ele>1326.1999999999998</ele><time>2026-04-24T09:26:37Z</time></trkpt><trkpt lat="42.017690122033315" lon="13.191018125983813"><ele>1325.4</ele><time>2026-04-24T09:26:38Z</time></trkpt><trkpt lat="42.01763951779978" lon="13.191128306146975"><ele>1324.6</ele><time>2026-04-24T09:26:39Z</time></trkpt><trkpt lat="42.01759693788709" lon="13.191224156537729"><ele>1323.8000000000002</ele><time>2026-04-24T09:26:40Z</time></trkpt><trkpt lat="42.01756249380777" lon="13.191328957997635"><ele>1323.0</ele><time>2026-04-24T09:26:41Z</time></trkpt><trkpt lat="42.017527375418226" lon="13.191454888577669"><ele>1322.6666666666667</ele><time>2026-04-24T09:26:42Z</time></trkpt><trkpt lat="42.01750367752999" lon="13.19157464867843"><ele>1322.3333333333333</ele><time>2026-04-24T09:26:43Z</time></trkpt><trkpt lat="42.01748312840071" lon="13.191694711210774"><ele>1322.0</ele><time>2026-04-24T09:26:44Z</time></trkpt><trkpt lat="42.017456192680456" lon="13.191815445274807"><ele>1321.6666666666665</ele><time>2026-04-24T09:26:45Z</time></trkpt><trkpt lat="42.0174387953518" lon="13.191925393120407"><ele>1321.3333333333333</ele><time>2026-04-24T09:26:46Z</time></trkpt><trkpt lat="42.017415266368246" lon="13.192014971950542"><ele>1321.0</ele><time>2026-04-24T09:26:47Z</time></trkpt><trkpt lat="42.01738430806505" lon="13.192106749018558"><ele>1320.1999999999998</ele><time>2026-04-24T09:26:48Z</time></trkpt><trkpt lat="42.01734465288948" lon="13.192198578790714"><ele>1319.3999999999999</ele><time>2026-04-24T09:26:49Z</time></trkpt><trkpt lat="42.01728666092223" lon="13.192302262060007"><ele>1318.6</ele><time>2026-04-24T09:26:49.999Z</time></trkpt><trkpt lat="42.01722084869381" lon="13.192396171246644"><ele>1317.8</ele><time>2026-04-24T09:26:50.999Z</time></trkpt><trkpt lat="42.01714872236279" lon="13.192483734433601"><ele>1317.0</ele><time>2026-04-24T09:26:51.999Z</time></trkpt><trkpt lat="42.017063887478926" lon="13.192568029802453"><ele>1317.0</ele><time>2026-04-24T09:26:52.999Z</time></trkpt><trkpt lat="42.01697809963151" lon="13.192642010266304"><ele>1317.0</ele><time>2026-04-24T09:26:53.999Z</time></trkpt><trkpt lat="42.01689435559259" lon="13.192712593480264"><ele>1317.0</ele><time>2026-04-24T09:26:54.999Z</time></trkpt><trkpt lat="42.016804452870744" lon="13.192764140547212"><ele>1317.0</ele><time>2026-04-24T09:26:55.999Z</time></trkpt><trkpt lat="42.01669810798317" lon="13.192808654623885"><ele>1317.0</ele><time>2026-04-24T09:26:56.999Z</time></trkpt><trkpt lat="42.01659998419953" lon="13.192848614670835"><ele>1319.6666666666667</ele><time>2026-04-24T09:26:57.999Z</time></trkpt><trkpt lat="42.01651927864623" lon="13.192883290798298"><ele>1322.3333333333333</ele><time>2026-04-24T09:26:58.999Z</time></trkpt><trkpt lat="42.0164493118485" lon="13.192918026835027"><ele>1325.0</ele><time>2026-04-24T09:26:59.999Z</time></trkpt><trkpt lat="42.01638219116701" lon="13.192985122944272"><ele>1327.6666666666665</ele><time>2026-04-24T09:27:00.999Z</time></trkpt><trkpt lat="42.01631877645259" lon="13.19307512920145"><ele>1330.3333333333333</ele><time>2026-04-24T09:27:01.999Z</time></trkpt><trkpt lat="42.01626718176633" lon="13.19319214021281"><ele>1333.0</ele><time>2026-04-24T09:27:02.999Z</time></trkpt><trkpt lat="42.01622784517886" lon="13.193326358183286"><ele>1333.0</ele><time>2026-04-24T09:27:03.999Z</time></trkpt><trkpt lat="42.01618903945982" lon="13.193449906015822"><ele>1333.0</ele><time>2026-04-24T09:27:04.999Z</time></trkpt><trkpt lat="42.01614155199718" lon="13.193561075986445"><ele>1333.0</ele><time>2026-04-24T09:27:05.999Z</time></trkpt><trkpt lat="42.016088196667994" lon="13.193666797685143"><ele>1333.0</ele><time>2026-04-24T09:27:06.999Z</time></trkpt><trkpt lat="42.01603155928767" lon="13.193774425997557"><ele>1333.0</ele><time>2026-04-24T09:27:07.999Z</time></trkpt><trkpt lat="42.01597513487356" lon="13.193868708017924"><ele>1333.0</ele><time>2026-04-24T09:27:08.999Z</time></trkpt><trkpt lat="42.015916778984376" lon="13.193962736861804"><ele>1333.0</ele><time>2026-04-24T09:27:09.999Z</time></trkpt><trkpt lat="42.015875322741195" lon="13.194049268117922"><ele>1333.0</ele><time>2026-04-24T09:27:10.999Z</time></trkpt><trkpt lat="42.0158501845606" lon="13.194162029067467"><ele>1333.0</ele><time>2026-04-24T09:27:11.999Z</time></trkpt><trkpt lat="42.01582733610083" lon="13.19427891884031"><ele>1333.0</ele><time>2026-04-24T09:27:12.999Z</time></trkpt><trkpt lat="42.01579329102916" lon="13.194379668364007"><ele>1333.0</ele><time>2026-04-24T09:27:13.999Z</time></trkpt><trkpt lat="42.01575536348704" lon="13.194499766366631"><ele>1333.8000000000002</ele><time>2026-04-24T09:27:14.999Z</time></trkpt><trkpt lat="42.015710987582594" lon="13.194629399980451"><ele>1334.6</ele><time>2026-04-24T09:27:15.999Z</time></trkpt><trkpt lat="42.015671967762486" lon="13.194747296746723"><ele>1335.4</ele><time>2026-04-24T09:27:17Z</time></trkpt><trkpt lat="42.01564525584887" lon="13.194845459296287"><ele>1336.1999999999998</ele><time>2026-04-24T09:27:18Z</time></trkpt><trkpt lat="42.015602165832156" lon="13.194934141487808"><ele>1337.0</ele><time>2026-04-24T09:27:19Z</time></trkpt><trkpt lat="42.01553845160462" lon="13.19504630174611"><ele>1337.0</ele><time>2026-04-24T09:27:20Z</time></trkpt><trkpt lat="42.015470479893615" lon="13.195162025643768"><ele>1337.0</ele><time>2026-04-24T09:27:21Z</time></trkpt><trkpt lat="42.015388235802156" lon="13.195279221492214"><ele>1337.0</ele><time>2026-04-24T09:27:22Z</time></trkpt><trkpt lat="42.015302418872984" lon="13.19540438401741"><ele>1337.0</ele><time>2026-04-24T09:27:23Z</time></trkpt><trkpt lat="42.015208731324414" lon="13.195533834702177"><ele>1337.0</ele><time>2026-04-24T09:27:24Z</time></trkpt><trkpt lat="42.015131910743534" lon="13.19565415628677"><ele>1337.0</ele><time>2026-04-24T09:27:25Z</time></trkpt><trkpt lat="42.015043616958714" lon="13.195760950435918"><ele>1337.0</ele><time>2026-04-24T09:27:26Z</time></trkpt><trkpt lat="42.01496259059471" lon="13.195862970477839"><ele>1337.0</ele><time>2026-04-24T09:27:27Z</time></trkpt><trkpt lat="42.01487458974561" lon="13.195950767221523"><ele>1340.6</ele><time>2026-04-24T09:27:28Z</time></trkpt><trkpt lat="42.01478473597634" lon="13.196057051897274"><ele>1344.1999999999998</ele><time>2026-04-24T09:27:29Z</time></trkpt><trkpt lat="42.01469821396701" lon="13.196165308214654"><ele>1347.8</ele><time>2026-04-24T09:27:30Z</time></trkpt><trkpt lat="42.014624411884526" lon="13.196272503950585"><ele>1351.4</ele><time>2026-04-24T09:27:31Z</time></trkpt><trkpt lat="42.01456495154124" lon="13.196367729303127"><ele>1355.0</ele><time>2026-04-24T09:27:32Z</time></trkpt><trkpt lat="42.01451856001942" lon="13.196475067955122"><ele>1353.6</ele><time>2026-04-24T09:27:33Z</time></trkpt><trkpt lat="42.0144746961222" lon="13.196598119838596"><ele>1352.2</ele><time>2026-04-24T09:27:34Z</time></trkpt><trkpt lat="42.01442917345133" lon="13.196729613333464"><ele>1350.8000000000002</ele><time>2026-04-24T09:27:35Z</time></trkpt><trkpt lat="42.01438572205531" lon="13.196861346297615"><ele>1349.4</ele><time>2026-04-24T09:27:36Z</time></trkpt><trkpt lat="42.0143370182051" lon="13.19698885781944"><ele>1348.0</ele><time>2026-04-24T09:27:37Z</time></trkpt><trkpt lat="42.01428214922493" lon="13.197117368241235"><ele>1348.0</ele><time>2026-04-24T09:27:38Z</time></trkpt><trkpt lat="42.01422960294514" lon="13.19726493626012"><ele>1348.0</ele><time>2026-04-24T09:27:39Z</time></trkpt><trkpt lat="42.01417710598494" lon="13.19743139428506"><ele>1348.0</ele><time>2026-04-24T09:27:40Z</time></trkpt><trkpt lat="42.0141331424283" lon="13.197575716050018"><ele>1348.0</ele><time>2026-04-24T09:27:41Z</time></trkpt><trkpt lat="42.01408870350585" lon="13.197724520400635"><ele>1349.4</ele><time>2026-04-24T09:27:42Z</time></trkpt><trkpt lat="42.0140417114077" lon="13.197866042279509"><ele>1350.8000000000002</ele><time>2026-04-24T09:27:43Z</time></trkpt><trkpt lat="42.01399639559003" lon="13.198011165706571"><ele>1352.2</ele><time>2026-04-24T09:27:44Z</time></trkpt><trkpt lat="42.01394919611626" lon="13.198143495738123"><ele>1353.6</ele><time>2026-04-24T09:27:45Z</time></trkpt><trkpt lat="42.013907215629345" lon="13.198264576498863"><ele>1355.0</ele><time>2026-04-24T09:27:46Z</time></trkpt><trkpt lat="42.01386021418997" lon="13.198395096402153"><ele>1355.0</ele><time>2026-04-24T09:27:47Z</time></trkpt><trkpt lat="42.01380868560522" lon="13.198506468255383"><ele>1355.0</ele><time>2026-04-24T09:27:48Z</time></trkpt><trkpt lat="42.01377044701164" lon="13.198606181949593"><ele>1355.0</ele><time>2026-04-24T09:27:49Z</time></trkpt><trkpt lat="42.01373759956295" lon="13.198704046908395"><ele>1355.0</ele><time>2026-04-24T09:27:50Z</time></trkpt><trkpt lat="42.01368237944722" lon="13.19882540458343"><ele>1355.0</ele><time>2026-04-24T09:27:51Z</time></trkpt><trkpt lat="42.01361680653532" lon="13.198943077405472"><ele>1352.5</ele><time>2026-04-24T09:27:52Z</time></trkpt><trkpt lat="42.01355566055357" lon="13.199067724886005"><ele>1350.0</ele><time>2026-04-24T09:27:53Z</time></trkpt><trkpt lat="42.01349097779511" lon="13.199216307612454"><ele>1347.5</ele><time>2026-04-24T09:27:54Z</time></trkpt><trkpt lat="42.01343824809235" lon="13.199359555683394"><ele>1345.0</ele><time>2026-04-24T09:27:55Z</time></trkpt><trkpt lat="42.01338880694684" lon="13.19949478897987"><ele>1345.0</ele><time>2026-04-24T09:27:56Z</time></trkpt><trkpt lat="42.0133309057334" lon="13.19963654538086"><ele>1345.0</ele><time>2026-04-24T09:27:57Z</time></trkpt><trkpt lat="42.01326418680125" lon="13.1997738352338"><ele>1345.0</ele><time>2026-04-24T09:27:58Z</time></trkpt><trkpt lat="42.01320435619098" lon="13.199895922886478"><ele>1345.0</ele><time>2026-04-24T09:27:59Z</time></trkpt><trkpt lat="42.01315706895865" lon="13.20003215877105"><ele>1354.0</ele><time>2026-04-24T09:28:00Z</time></trkpt><trkpt lat="42.013122718361764" lon="13.200172641910497"><ele>1363.0</ele><time>2026-04-24T09:28:01Z</time></trkpt><trkpt lat="42.0131011387605" lon="13.20032303929751"><ele>1372.0</ele><time>2026-04-24T09:28:02Z</time></trkpt><trkpt lat="42.01307621956349" lon="13.200476451994922"><ele>1381.0</ele><time>2026-04-24T09:28:03Z</time></trkpt><trkpt lat="42.013042998246405" lon="13.200636504460006"><ele>1380.25</ele><time>2026-04-24T09:28:04Z</time></trkpt><trkpt lat="42.01300197528273" lon="13.200798481805478"><ele>1379.5</ele><time>2026-04-24T09:28:05Z</time></trkpt><trkpt lat="42.012963097046104" lon="13.200951542741024"><ele>1378.75</ele><time>2026-04-24T09:28:06Z</time></trkpt><trkpt lat="42.01292534383808" lon="13.201116252178052"><ele>1378.0</ele><time>2026-04-24T09:28:07Z</time></trkpt><trkpt lat="42.0128861245505" lon="13.201286601220266"><ele>1378.0</ele><time>2026-04-24T09:28:08Z</time></trkpt><trkpt lat="42.01284109073169" lon="13.201442068413431"><ele>1378.0</ele><time>2026-04-24T09:28:09Z</time></trkpt><trkpt lat="42.012786669745985" lon="13.201579512295801"><ele>1378.0</ele><time>2026-04-24T09:28:10Z</time></trkpt><trkpt lat="42.0127261935863" lon="13.20169719291599"><ele>1378.0</ele><time>2026-04-24T09:28:11Z</time></trkpt><trkpt lat="42.01267928235132" lon="13.201822778481532"><ele>1375.5</ele><time>2026-04-24T09:28:12Z</time></trkpt><trkpt lat="42.01264350984474" lon="13.201980338130811"><ele>1373.0</ele><time>2026-04-24T09:28:13Z</time></trkpt><trkpt lat="42.012608579463716" lon="13.202174410858282"><ele>1370.5</ele><time>2026-04-24T09:28:14Z</time></trkpt><trkpt lat="42.0125592849779" lon="13.202361680811928"><ele>1368.0</ele><time>2026-04-24T09:28:15Z</time></trkpt><trkpt lat="42.01250421155847" lon="13.20254064866561"><ele>1371.5</ele><time>2026-04-24T09:28:16Z</time></trkpt><trkpt lat="42.01244406509318" lon="13.20271301640752"><ele>1375.0</ele><time>2026-04-24T09:28:17Z</time></trkpt><trkpt lat="42.012375114721195" lon="13.20288195856247"><ele>1378.5</ele><time>2026-04-24T09:28:18Z</time></trkpt><trkpt lat="42.01230557396483" lon="13.203047099033522"><ele>1382.0</ele><time>2026-04-24T09:28:19Z</time></trkpt><trkpt lat="42.012244891990186" lon="13.20320478668429"><ele>1382.0</ele><time>2026-04-24T09:28:20Z</time></trkpt><trkpt lat="42.01218432276959" lon="13.203346463731373"><ele>1382.0</ele><time>2026-04-24T09:28:21Z</time></trkpt><trkpt lat="42.01213334694061" lon="13.203485130407126"><ele>1382.0</ele><time>2026-04-24T09:28:22Z</time></trkpt><trkpt lat="42.01207820706166" lon="13.203612852439585"><ele>1382.0</ele><time>2026-04-24T09:28:23Z</time></trkpt><trkpt lat="42.01200254246816" lon="13.20372741035212"><ele>1382.0</ele><time>2026-04-24T09:28:24Z</time></trkpt><trkpt lat="42.01191627824548" lon="13.203821946497326"><ele>1382.0</ele><time>2026-04-24T09:28:25Z</time></trkpt><trkpt lat="42.01180374434525" lon="13.20391689400793"><ele>1382.0</ele><time>2026-04-24T09:28:26Z</time></trkpt><trkpt lat="42.01168020414675" lon="13.204002410720987"><ele>1382.0</ele><time>2026-04-24T09:28:27Z</time></trkpt><trkpt lat="42.011552407184546" lon="13.204094834727362"><ele>1382.0</ele><time>2026-04-24T09:28:28Z</time></trkpt><trkpt lat="42.01144968663333" lon="13.204203581065588"><ele>1382.0</ele><time>2026-04-24T09:28:29Z</time></trkpt><trkpt lat="42.01134930230448" lon="13.20432022883121"><ele>1382.0</ele><time>2026-04-24T09:28:30Z</time></trkpt><trkpt lat="42.01126090003607" lon="13.204431091655131"><ele>1382.0</ele><time>2026-04-24T09:28:31Z</time></trkpt><trkpt lat="42.01118836268318" lon="13.20453999081162"><ele>1382.0</ele><time>2026-04-24T09:28:32Z</time></trkpt><trkpt lat="42.01111386377624" lon="13.204677976780113"><ele>1382.0</ele><time>2026-04-24T09:28:33Z</time></trkpt><trkpt lat="42.0110474791057" lon="13.204825560008127"><ele>1382.0</ele><time>2026-04-24T09:28:34Z</time></trkpt><trkpt lat="42.01098489682733" lon="13.204977958943788"><ele>1382.0</ele><time>2026-04-24T09:28:35Z</time></trkpt><trkpt lat="42.01093125760493" lon="13.205142182701751"><ele>1382.0</ele><time>2026-04-24T09:28:36Z</time></trkpt><trkpt lat="42.01086763285427" lon="13.20526789117069"><ele>1382.0</ele><time>2026-04-24T09:28:37Z</time></trkpt><trkpt lat="42.010813226206515" lon="13.205389956368254"><ele>1382.0</ele><time>2026-04-24T09:28:38Z</time></trkpt><trkpt lat="42.01076238044075" lon="13.205509579632867"><ele>1382.0</ele><time>2026-04-24T09:28:39Z</time></trkpt><trkpt lat="42.01070324780048" lon="13.20561608962192"><ele>1382.0</ele><time>2026-04-24T09:28:40Z</time></trkpt><trkpt lat="42.01063430956068" lon="13.205724757837773"><ele>1382.0</ele><time>2026-04-24T09:28:41Z</time></trkpt><trkpt lat="42.01054723883584" lon="13.20582766012641"><ele>1382.0</ele><time>2026-04-24T09:28:42Z</time></trkpt><trkpt lat="42.010446599531896" lon="13.205938259104638"><ele>1382.0</ele><time>2026-04-24T09:28:43Z</time></trkpt><trkpt lat="42.01034368578699" lon="13.2060455664887"><ele>1382.0</ele><time>2026-04-24T09:28:43.999Z</time></trkpt><trkpt lat="42.010261906761514" lon="13.206134715462046"><ele>1382.0</ele><time>2026-04-24T09:28:44.999Z</time></trkpt><trkpt lat="42.01017933643372" lon="13.206195370904204"><ele>1382.0</ele><time>2026-04-24T09:28:45.999Z</time></trkpt><trkpt lat="42.01010498864417" lon="13.20623567792315"><ele>1382.0</ele><time>2026-04-24T09:28:46.999Z</time></trkpt><trkpt lat="42.010045613041605" lon="13.206275361842954"><ele>1382.0</ele><time>2026-04-24T09:28:48.999Z</time></trkpt><trkpt lat="42.010024505219455" lon="13.20638960750578"><ele>1382.0</ele><time>2026-04-24T09:28:51.999Z</time></trkpt><trkpt lat="42.01005966445899" lon="13.206469911237999"><ele>1382.0</ele><time>2026-04-24T09:28:54.999Z</time></trkpt><trkpt lat="42.01011376109211" lon="13.206531173770008"><ele>1382.8</ele><time>2026-04-24T09:28:58.999Z</time></trkpt><trkpt lat="42.01022374009205" lon="13.2065759378107"><ele>1383.6</ele><time>2026-04-24T09:29:00.999Z</time></trkpt><trkpt lat="42.01033888447446" lon="13.20662659265703"><ele>1384.3999999999999</ele><time>2026-04-24T09:29:02.999Z</time></trkpt><trkpt lat="42.01040739721213" lon="13.206640194426186"><ele>1385.1999999999998</ele><time>2026-04-24T09:29:03.999Z</time></trkpt><trkpt lat="42.01047463207682" lon="13.20667481909619"><ele>1386.0</ele><time>2026-04-24T09:29:04.999Z</time></trkpt><trkpt lat="42.010549575345124" lon="13.206722124675643"><ele>1386.0</ele><time>2026-04-24T09:29:05.999Z</time></trkpt><trkpt lat="42.010623177501316" lon="13.20678907803334"><ele>1386.0</ele><time>2026-04-24T09:29:06.999Z</time></trkpt><trkpt lat="42.01069775074271" lon="13.206865757439127"><ele>1386.0</ele><time>2026-04-24T09:29:07.999Z</time></trkpt><trkpt lat="42.01076270456368" lon="13.20694949046869"><ele>1386.0</ele><time>2026-04-24T09:29:08.999Z</time></trkpt><trkpt lat="42.010809958597456" lon="13.207033864664355"><ele>1386.0</ele><time>2026-04-24T09:29:09.999Z</time></trkpt><trkpt lat="42.0108604680822" lon="13.20710689827883"><ele>1386.0</ele><time>2026-04-24T09:29:10.999Z</time></trkpt><trkpt lat="42.01096995167758" lon="13.207179970292724"><ele>1383.5</ele><time>2026-04-24T09:29:12.999Z</time></trkpt><trkpt lat="42.01103461127559" lon="13.207199416657067"><ele>1381.0</ele><time>2026-04-24T09:29:13.999Z</time></trkpt><trkpt lat="42.01110543999925" lon="13.207193992365134"><ele>1378.5</ele><time>2026-04-24T09:29:14.999Z</time></trkpt><trkpt lat="42.01119010450077" lon="13.207173750814091"><ele>1376.0</ele><time>2026-04-24T09:29:15.999Z</time></trkpt><trkpt lat="42.011277566807216" lon="13.207149865373829"><ele>1373.5</ele><time>2026-04-24T09:29:16.999Z</time></trkpt><trkpt lat="42.011384735609695" lon="13.207128943676963"><ele>1371.0</ele><time>2026-04-24T09:29:18.999Z</time></trkpt><trkpt lat="42.011456424248244" lon="13.207154733543826"><ele>1371.0</ele><time>2026-04-24T09:29:20.999Z</time></trkpt><trkpt lat="42.01148845527935" lon="13.207243413480345"><ele>1371.0</ele><time>2026-04-24T09:29:23Z</time></trkpt><trkpt lat="42.01145686740959" lon="13.20735914060012"><ele>1371.0</ele><time>2026-04-24T09:29:25Z</time></trkpt><trkpt lat="42.011406253222326" lon="13.207413925655835"><ele>1371.0</ele><time>2026-04-24T09:29:26Z</time></trkpt><trkpt lat="42.011338317322895" lon="13.207470178944984"><ele>1371.0</ele><time>2026-04-24T09:29:27Z</time></trkpt><trkpt lat="42.011269919595655" lon="13.207521211230837"><ele>1371.0</ele><time>2026-04-24T09:29:28Z</time></trkpt><trkpt lat="42.0111827419022" lon="13.207588839864748"><ele>1374.4</ele><time>2026-04-24T09:29:29Z</time></trkpt><trkpt lat="42.01109138943862" lon="13.207663446953191"><ele>1377.8</ele><time>2026-04-24T09:29:30Z</time></trkpt><trkpt lat="42.01100555169308" lon="13.207742752023066"><ele>1381.2</ele><time>2026-04-24T09:29:31Z</time></trkpt><trkpt lat="42.01093041686069" lon="13.20780451073539"><ele>1384.6000000000001</ele><time>2026-04-24T09:29:32Z</time></trkpt><trkpt lat="42.01087119385049" lon="13.207875191090846"><ele>1388.0</ele><time>2026-04-24T09:29:33Z</time></trkpt><trkpt lat="42.01079869476146" lon="13.207958205892991"><ele>1391.0</ele><time>2026-04-24T09:29:34Z</time></trkpt><trkpt lat="42.01073404852094" lon="13.208048761404887"><ele>1394.0</ele><time>2026-04-24T09:29:35Z</time></trkpt><trkpt lat="42.01067085818732" lon="13.208141811030186"><ele>1397.0</ele><time>2026-04-24T09:29:36Z</time></trkpt><trkpt lat="42.01060648215598" lon="13.208237873621853"><ele>1400.0</ele><time>2026-04-24T09:29:37Z</time></trkpt><trkpt lat="42.01055564128293" lon="13.20832247124306"><ele>1403.0</ele><time>2026-04-24T09:29:38Z</time></trkpt><trkpt lat="42.01048494697621" lon="13.20841244071687"><ele>1405.6000000000001</ele><time>2026-04-24T09:29:39Z</time></trkpt><trkpt lat="42.01041076629772" lon="13.208484127415515"><ele>1408.2</ele><time>2026-04-24T09:29:40Z</time></trkpt><trkpt lat="42.010320748896696" lon="13.20856125288946"><ele>1410.8</ele><time>2026-04-24T09:29:41Z</time></trkpt><trkpt lat="42.01022883316966" lon="13.208635777862371"><ele>1413.4</ele><time>2026-04-24T09:29:42Z</time></trkpt><trkpt lat="42.01013601316308" lon="13.20871025511845"><ele>1416.0</ele><time>2026-04-24T09:29:43Z</time></trkpt><trkpt lat="42.010051288472496" lon="13.208778849284037"><ele>1416.1999999999998</ele><time>2026-04-24T09:29:44Z</time></trkpt><trkpt lat="42.00997652931382" lon="13.208852890072642"><ele>1416.3999999999999</ele><time>2026-04-24T09:29:45Z</time></trkpt><trkpt lat="42.00990176938756" lon="13.20893163924908"><ele>1416.6</ele><time>2026-04-24T09:29:46Z</time></trkpt><trkpt lat="42.00982747449657" lon="13.209006002603687"><ele>1416.8</ele><time>2026-04-24T09:29:47Z</time></trkpt><trkpt lat="42.009754153045606" lon="13.209093632664292"><ele>1417.0</ele><time>2026-04-24T09:29:48Z</time></trkpt><trkpt lat="42.00968954335284" lon="13.209183663864092"><ele>1418.1666666666665</ele><time>2026-04-24T09:29:49Z</time></trkpt><trkpt lat="42.00962239014695" lon="13.209262101787841"><ele>1419.3333333333333</ele><time>2026-04-24T09:29:50Z</time></trkpt><trkpt lat="42.00956095132883" lon="13.209338188785752"><ele>1420.5</ele><time>2026-04-24T09:29:51Z</time></trkpt><trkpt lat="42.00948380970363" lon="13.20939360019411"><ele>1421.6666666666667</ele><time>2026-04-24T09:29:52Z</time></trkpt><trkpt lat="42.00940201122442" lon="13.20946483844095"><ele>1422.8333333333335</ele><time>2026-04-24T09:29:53Z</time></trkpt><trkpt lat="42.0093153998437" lon="13.209444843649154"><ele>1424.0</ele><time>2026-04-24T09:29:54Z</time></trkpt><trkpt lat="42.00922811586801" lon="13.209437491704204"><ele>1423.75</ele><time>2026-04-24T09:29:55Z</time></trkpt><trkpt lat="42.0091213409168" lon="13.20941606955363"><ele>1423.5</ele><time>2026-04-24T09:29:56Z</time></trkpt><trkpt lat="42.00900589876938" lon="13.209385191744419"><ele>1423.25</ele><time>2026-04-24T09:29:57Z</time></trkpt><trkpt lat="42.0088713877269" lon="13.209348029846764"><ele>1423.0</ele><time>2026-04-24T09:29:58Z</time></trkpt><trkpt lat="42.008744064961675" lon="13.209314933899925"><ele>1423.0</ele><time>2026-04-24T09:29:59Z</time></trkpt><trkpt lat="42.00863984278304" lon="13.209280943205902"><ele>1423.0</ele><time>2026-04-24T09:30:00Z</time></trkpt><trkpt lat="42.008556493605205" lon="13.209253585128105"><ele>1423.0</ele><time>2026-04-24T09:30:01Z</time></trkpt><trkpt lat="42.00847833936669" lon="13.20922271036491"><ele>1423.0</ele><time>2026-04-24T09:30:02Z</time></trkpt><trkpt lat="42.00840008835188" lon="13.209207341619912"><ele>1423.0</ele><time>2026-04-24T09:30:03Z</time></trkpt><trkpt lat="42.00831492300966" lon="13.209208788227565"><ele>1423.0</ele><time>2026-04-24T09:30:04Z</time></trkpt><trkpt lat="42.0082287519805" lon="13.209230786237187"><ele>1424.0</ele><time>2026-04-24T09:30:05Z</time></trkpt><trkpt lat="42.0081647095986" lon="13.20926975167356"><ele>1425.0</ele><time>2026-04-24T09:30:06Z</time></trkpt><trkpt lat="42.00809066529593" lon="13.209335054370216"><ele>1426.0</ele><time>2026-04-24T09:30:07Z</time></trkpt><trkpt lat="42.00800294936446" lon="13.209398044586907"><ele>1427.0</ele><time>2026-04-24T09:30:08Z</time></trkpt><trkpt lat="42.007910337929914" lon="13.209451982979198"><ele>1428.0</ele><time>2026-04-24T09:30:09Z</time></trkpt><trkpt lat="42.007811160703916" lon="13.209522258813667"><ele>1428.0</ele><time>2026-04-24T09:30:10Z</time></trkpt><trkpt lat="42.0077163958261" lon="13.209586831011048"><ele>1428.0</ele><time>2026-04-24T09:30:11Z</time></trkpt><trkpt lat="42.007614141446865" lon="13.20964513268301"><ele>1428.0</ele><time>2026-04-24T09:30:12Z</time></trkpt><trkpt lat="42.00751430373148" lon="13.209702924656096"><ele>1428.0</ele><time>2026-04-24T09:30:13Z</time></trkpt><trkpt lat="42.0074179567413" lon="13.20976126040424"><ele>1428.0</ele><time>2026-04-24T09:30:14Z</time></trkpt><trkpt lat="42.007330215414484" lon="13.209806831414316"><ele>1427.6666666666667</ele><time>2026-04-24T09:30:15Z</time></trkpt><trkpt lat="42.00725930767125" lon="13.209833903329281"><ele>1427.3333333333333</ele><time>2026-04-24T09:30:16Z</time></trkpt><trkpt lat="42.00717035650195" lon="13.20984129511727"><ele>1427.0</ele><time>2026-04-24T09:30:17Z</time></trkpt><trkpt lat="42.00707674349442" lon="13.209837841862901"><ele>1426.6666666666665</ele><time>2026-04-24T09:30:18Z</time></trkpt><trkpt lat="42.006980383538824" lon="13.20982268567813"><ele>1426.3333333333333</ele><time>2026-04-24T09:30:19Z</time></trkpt><trkpt lat="42.00689645669251" lon="13.209837379190935"><ele>1426.0</ele><time>2026-04-24T09:30:20Z</time></trkpt><trkpt lat="42.006810959536026" lon="13.209852701935652"><ele>1429.0</ele><time>2026-04-24T09:30:21Z</time></trkpt><trkpt lat="42.00671663337846" lon="13.20989048664919"><ele>1432.0</ele><time>2026-04-24T09:30:22Z</time></trkpt><trkpt lat="42.006614689732594" lon="13.20993855307216"><ele>1435.0</ele><time>2026-04-24T09:30:23Z</time></trkpt><trkpt lat="42.00651103207265" lon="13.210013436865337"><ele>1438.0</ele><time>2026-04-24T09:30:24Z</time></trkpt><trkpt lat="42.00640968387216" lon="13.210091985172916"><ele>1441.0</ele><time>2026-04-24T09:30:25Z</time></trkpt><trkpt lat="42.006299632997674" lon="13.210190796913398"><ele>1441.0</ele><time>2026-04-24T09:30:26Z</time></trkpt><trkpt lat="42.006197857428724" lon="13.210276751766546"><ele>1441.0</ele><time>2026-04-24T09:30:27Z</time></trkpt><trkpt lat="42.00608935683882" lon="13.210370006544004"><ele>1441.0</ele><time>2026-04-24T09:30:28Z</time></trkpt><trkpt lat="42.00597895498544" lon="13.210443596527913"><ele>1441.0</ele><time>2026-04-24T09:30:29Z</time></trkpt><trkpt lat="42.00586913891977" lon="13.210505581357205"><ele>1449.0</ele><time>2026-04-24T09:30:29.999Z</time></trkpt><trkpt lat="42.00576367826267" lon="13.210547044348182"><ele>1457.0</ele><time>2026-04-24T09:30:30.999Z</time></trkpt><trkpt lat="42.0056483046573" lon="13.21057923794472"><ele>1465.0</ele><time>2026-04-24T09:30:31.999Z</time></trkpt><trkpt lat="42.00552336961787" lon="13.210583402548327"><ele>1473.0</ele><time>2026-04-24T09:30:32.999Z</time></trkpt><trkpt lat="42.00539552757204" lon="13.21059708898721"><ele>1473.0</ele><time>2026-04-24T09:30:33.999Z</time></trkpt><trkpt lat="42.00529975110249" lon="13.2106065847354"><ele>1473.0</ele><time>2026-04-24T09:30:34.999Z</time></trkpt><trkpt lat="42.00520573568656" lon="13.210626370905992"><ele>1473.0</ele><time>2026-04-24T09:30:35.999Z</time></trkpt><trkpt lat="42.00513098318098" lon="13.210631740680887"><ele>1473.0</ele><time>2026-04-24T09:30:36.999Z</time></trkpt><trkpt lat="42.00505818798833" lon="13.2106501679128"><ele>1473.0</ele><time>2026-04-24T09:30:37.999Z</time></trkpt><trkpt lat="42.00498371500627" lon="13.210687740179672"><ele>1473.0</ele><time>2026-04-24T09:30:38.999Z</time></trkpt><trkpt lat="42.004902316833956" lon="13.210742478070749"><ele>1473.4</ele><time>2026-04-24T09:30:39.999Z</time></trkpt><trkpt lat="42.004823789144965" lon="13.210822619524683"><ele>1473.8000000000002</ele><time>2026-04-24T09:30:40.999Z</time></trkpt><trkpt lat="42.00474294912838" lon="13.210908070535064"><ele>1474.2</ele><time>2026-04-24T09:30:41.999Z</time></trkpt><trkpt lat="42.00464931606159" lon="13.2110082908281"><ele>1474.6</ele><time>2026-04-24T09:30:42.999Z</time></trkpt><trkpt lat="42.004573958029816" lon="13.211127464500123"><ele>1475.0</ele><time>2026-04-24T09:30:43.999Z</time></trkpt><trkpt lat="42.00450423298806" lon="13.21123478341411"><ele>1475.0</ele><time>2026-04-24T09:30:44.999Z</time></trkpt><trkpt lat="42.004420795840346" lon="13.211334977587933"><ele>1475.0</ele><time>2026-04-24T09:30:45.999Z</time></trkpt><trkpt lat="42.00432664605279" lon="13.211437670046973"><ele>1475.0</ele><time>2026-04-24T09:30:46.999Z</time></trkpt><trkpt lat="42.004235497301146" lon="13.211557713467114"><ele>1475.0</ele><time>2026-04-24T09:30:47.999Z</time></trkpt><trkpt lat="42.0041394273473" lon="13.211686146755964"><ele>1474.75</ele><time>2026-04-24T09:30:48.999Z</time></trkpt><trkpt lat="42.004047334464246" lon="13.211821165071793"><ele>1474.5</ele><time>2026-04-24T09:30:49.999Z</time></trkpt><trkpt lat="42.00395402754767" lon="13.211958093715031"><ele>1474.25</ele><time>2026-04-24T09:30:50.999Z</time></trkpt><trkpt lat="42.003843686447894" lon="13.212059432638785"><ele>1474.0</ele><time>2026-04-24T09:30:51.999Z</time></trkpt><trkpt lat="42.00376308394838" lon="13.212191019760908"><ele>1471.0</ele><time>2026-04-24T09:30:52.999Z</time></trkpt><trkpt lat="42.00367025833193" lon="13.212348267493965"><ele>1468.0</ele><time>2026-04-24T09:30:53.999Z</time></trkpt><trkpt lat="42.00356904082859" lon="13.212511932787963"><ele>1465.0</ele><time>2026-04-24T09:30:54.999Z</time></trkpt><trkpt lat="42.00346924159306" lon="13.212671246060639"><ele>1465.0</ele><time>2026-04-24T09:30:55.999Z</time></trkpt><trkpt lat="42.003375682421414" lon="13.212820535169804"><ele>1465.0</ele><time>2026-04-24T09:30:56.999Z</time></trkpt><trkpt lat="42.003279891946605" lon="13.212971221062919"><ele>1465.0</ele><time>2026-04-24T09:30:57.999Z</time></trkpt><trkpt lat="42.00318488283803" lon="13.213120677875173"><ele>1465.0</ele><time>2026-04-24T09:30:58.999Z</time></trkpt><trkpt lat="42.00309100573287" lon="13.213268738254175"><ele>1465.5</ele><time>2026-04-24T09:30:59.999Z</time></trkpt><trkpt lat="42.00300042180035" lon="13.213414627539715"><ele>1466.0</ele><time>2026-04-24T09:31:00.999Z</time></trkpt><trkpt lat="42.002908882426695" lon="13.213558056893175"><ele>1466.5</ele><time>2026-04-24T09:31:01.999Z</time></trkpt><trkpt lat="42.00280935061937" lon="13.213699962813969"><ele>1467.0</ele><time>2026-04-24T09:31:02.999Z</time></trkpt><trkpt lat="42.00270528895042" lon="13.21383297565493"><ele>1467.0</ele><time>2026-04-24T09:31:03.999Z</time></trkpt><trkpt lat="42.00261878791616" lon="13.213971619997666"><ele>1467.0</ele><time>2026-04-24T09:31:04.999Z</time></trkpt><trkpt lat="42.00256614641899" lon="13.214077399011426"><ele>1467.0</ele><time>2026-04-24T09:31:05.999Z</time></trkpt><trkpt lat="42.00250572642865" lon="13.214179212774921"><ele>1467.0</ele><time>2026-04-24T09:31:06.999Z</time></trkpt><trkpt lat="42.00243651578741" lon="13.214292919424608"><ele>1467.0</ele><time>2026-04-24T09:31:07.999Z</time></trkpt><trkpt lat="42.00236083644526" lon="13.214423843906067"><ele>1468.25</ele><time>2026-04-24T09:31:08.999Z</time></trkpt><trkpt lat="42.002289446487644" lon="13.214570073049435"><ele>1469.5</ele><time>2026-04-24T09:31:09.999Z</time></trkpt><trkpt lat="42.00222346304542" lon="13.21473219117196"><ele>1470.75</ele><time>2026-04-24T09:31:10.999Z</time></trkpt><trkpt lat="42.00214058196748" lon="13.214918370373683"><ele>1472.0</ele><time>2026-04-24T09:31:11.999Z</time></trkpt><trkpt lat="42.002062964709424" lon="13.215114264391886"><ele>1472.8</ele><time>2026-04-24T09:31:12.999Z</time></trkpt><trkpt lat="42.001996988654895" lon="13.215235351835334"><ele>1473.6</ele><time>2026-04-24T09:31:13.999Z</time></trkpt><trkpt lat="42.0019314447512" lon="13.215339662630413"><ele>1474.3999999999999</ele><time>2026-04-24T09:31:14.999Z</time></trkpt><trkpt lat="42.001877975286035" lon="13.215432613323674"><ele>1475.1999999999998</ele><time>2026-04-24T09:31:15.999Z</time></trkpt><trkpt lat="42.00182841213361" lon="13.215526796474794"><ele>1476.0</ele><time>2026-04-24T09:31:16.999Z</time></trkpt><trkpt lat="42.00177498017838" lon="13.21564034151107"><ele>1478.0</ele><time>2026-04-24T09:31:17.999Z</time></trkpt><trkpt lat="42.00172136023354" lon="13.215787105806994"><ele>1480.0</ele><time>2026-04-24T09:31:18.999Z</time></trkpt><trkpt lat="42.00167291124111" lon="13.215909951801377"><ele>1482.0</ele><time>2026-04-24T09:31:19.999Z</time></trkpt><trkpt lat="42.00162803127695" lon="13.216007448477908"><ele>1484.0</ele><time>2026-04-24T09:31:20.999Z</time></trkpt><trkpt lat="42.001571050771915" lon="13.216133854124946"><ele>1486.0</ele><time>2026-04-24T09:31:21.999Z</time></trkpt><trkpt lat="42.00151189777002" lon="13.216282739523734"><ele>1486.0</ele><time>2026-04-24T09:31:22.999Z</time></trkpt><trkpt lat="42.00145520810701" lon="13.21641373932737"><ele>1486.0</ele><time>2026-04-24T09:31:23.999Z</time></trkpt><trkpt lat="42.00141219078382" lon="13.216529984848059"><ele>1486.0</ele><time>2026-04-24T09:31:24.999Z</time></trkpt><trkpt lat="42.001384897693846" lon="13.216615666514462"><ele>1486.0</ele><time>2026-04-24T09:31:25.999Z</time></trkpt><trkpt lat="42.00136033456547" lon="13.216704988075524"><ele>1486.0</ele><time>2026-04-24T09:31:26.999Z</time></trkpt><trkpt lat="42.00136004823578" lon="13.21682970247664"><ele>1486.0</ele><time>2026-04-24T09:31:27.999Z</time></trkpt><trkpt lat="42.00139374349426" lon="13.216968456776225"><ele>1485.8</ele><time>2026-04-24T09:31:29Z</time></trkpt><trkpt lat="42.001431571016525" lon="13.217096454655831"><ele>1485.6</ele><time>2026-04-24T09:31:30Z</time></trkpt><trkpt lat="42.00146703668374" lon="13.217209556992152"><ele>1485.4</ele><time>2026-04-24T09:31:31Z</time></trkpt><trkpt lat="42.001513430844234" lon="13.21729325476902"><ele>1485.2</ele><time>2026-04-24T09:31:32Z</time></trkpt><trkpt lat="42.00159270150208" lon="13.217423939778232"><ele>1485.0</ele><time>2026-04-24T09:31:34Z</time></trkpt><trkpt lat="42.00165938454809" lon="13.217499462026398"><ele>1486.0</ele><time>2026-04-24T09:31:35Z</time></trkpt><trkpt lat="42.001729220376596" lon="13.217605930757543"><ele>1487.0</ele><time>2026-04-24T09:31:36Z</time></trkpt><trkpt lat="42.00182046199763" lon="13.21768901097925"><ele>1488.0</ele><time>2026-04-24T09:31:37Z</time></trkpt><trkpt lat="42.00189800007218" lon="13.217783653524311"><ele>1489.0</ele><time>2026-04-24T09:31:38Z</time></trkpt><trkpt lat="42.0019353347299" lon="13.21790711390121"><ele>1490.0</ele><time>2026-04-24T09:31:39Z</time></trkpt><trkpt lat="42.00197704640745" lon="13.218030583457733"><ele>1488.2</ele><time>2026-04-24T09:31:40Z</time></trkpt><trkpt lat="42.00201056422686" lon="13.218156084732756"><ele>1486.4</ele><time>2026-04-24T09:31:41Z</time></trkpt><trkpt lat="42.0020556466385" lon="13.218290259216102"><ele>1484.6</ele><time>2026-04-24T09:31:42Z</time></trkpt><trkpt lat="42.002078733192434" lon="13.218448351784382"><ele>1482.8</ele><time>2026-04-24T09:31:43Z</time></trkpt><trkpt lat="42.002071194487456" lon="13.218595805365911"><ele>1481.0</ele><time>2026-04-24T09:31:44Z</time></trkpt><trkpt lat="42.002067403862625" lon="13.218759131907447"><ele>1481.0</ele><time>2026-04-24T09:31:45Z</time></trkpt><trkpt lat="42.002052361799485" lon="13.218937564496034"><ele>1481.0</ele><time>2026-04-24T09:31:46Z</time></trkpt><trkpt lat="42.00203095040083" lon="13.219098269322354"><ele>1481.0</ele><time>2026-04-24T09:31:47Z</time></trkpt><trkpt lat="42.00200450161061" lon="13.219261709482263"><ele>1481.0</ele><time>2026-04-24T09:31:48Z</time></trkpt><trkpt lat="42.0019797382353" lon="13.219399959308552"><ele>1480.8</ele><time>2026-04-24T09:31:49Z</time></trkpt><trkpt lat="42.00195989068073" lon="13.219512290127595"><ele>1480.6</ele><time>2026-04-24T09:31:50Z</time></trkpt><trkpt lat="42.001945928123924" lon="13.219623246898509"><ele>1480.4</ele><time>2026-04-24T09:31:51Z</time></trkpt><trkpt lat="42.0019388367264" lon="13.219755633701098"><ele>1480.2</ele><time>2026-04-24T09:31:52Z</time></trkpt><trkpt lat="42.00193116921175" lon="13.219903789036797"><ele>1480.0</ele><time>2026-04-24T09:31:53Z</time></trkpt><trkpt lat="42.00192714811779" lon="13.220009805410795"><ele>1480.8</ele><time>2026-04-24T09:31:55Z</time></trkpt><trkpt lat="42.00192517593493" lon="13.220097526569035"><ele>1481.6</ele><time>2026-04-24T09:31:59Z</time></trkpt><trkpt lat="42.001926000061985" lon="13.2202268009067"><ele>1482.4</ele><time>2026-04-24T09:32:01Z</time></trkpt><trkpt lat="42.00193176833723" lon="13.22037767466785"><ele>1483.2</ele><time>2026-04-24T09:32:03Z</time></trkpt><trkpt lat="42.0019374256363" lon="13.220537988051086"><ele>1484.0</ele><time>2026-04-24T09:32:05Z</time></trkpt><trkpt lat="42.001939685959016" lon="13.220633757571123"><ele>1484.4</ele><time>2026-04-24T09:32:06Z</time></trkpt><trkpt lat="42.0019367605276" lon="13.220747795513018"><ele>1484.8000000000002</ele><time>2026-04-24T09:32:07Z</time></trkpt><trkpt lat="42.00193245305961" lon="13.220883902366884"><ele>1485.1999999999998</ele><time>2026-04-24T09:32:08Z</time></trkpt><trkpt lat="42.00192748623092" lon="13.221021967616268"><ele>1485.6</ele><time>2026-04-24T09:32:09Z</time></trkpt><trkpt lat="42.00192077185351" lon="13.221155432606597"><ele>1486.0</ele><time>2026-04-24T09:32:10Z</time></trkpt><trkpt lat="42.00191187192516" lon="13.221269350934309"><ele>1486.0</ele><time>2026-04-24T09:32:11Z</time></trkpt><trkpt lat="42.001901544985444" lon="13.221385807376686"><ele>1486.0</ele><time>2026-04-24T09:32:12Z</time></trkpt><trkpt lat="42.00188776963238" lon="13.22152068303218"><ele>1486.0</ele><time>2026-04-24T09:32:13Z</time></trkpt><trkpt lat="42.00186938627573" lon="13.221649696013367"><ele>1486.0</ele><time>2026-04-24T09:32:14Z</time></trkpt><trkpt lat="42.00185521204846" lon="13.221795707318737"><ele>1486.0</ele><time>2026-04-24T09:32:15Z</time></trkpt><trkpt lat="42.0018549593027" lon="13.221945314529833"><ele>1484.6</ele><time>2026-04-24T09:32:16Z</time></trkpt><trkpt lat="42.00185636798178" lon="13.22209485972034"><ele>1483.1999999999998</ele><time>2026-04-24T09:32:17Z</time></trkpt><trkpt lat="42.00185843691063" lon="13.222239152758595"><ele>1481.8000000000002</ele><time>2026-04-24T09:32:18Z</time></trkpt><trkpt lat="42.001860259697516" lon="13.222366279408115"><ele>1480.4</ele><time>2026-04-24T09:32:19Z</time></trkpt><trkpt lat="42.00186216431201" lon="13.222499112830855"><ele>1479.0</ele><time>2026-04-24T09:32:20Z</time></trkpt><trkpt lat="42.00186547049159" lon="13.222623306094265"><ele>1478.1666666666667</ele><time>2026-04-24T09:32:21Z</time></trkpt><trkpt lat="42.00186841870155" lon="13.222724926542318"><ele>1477.3333333333333</ele><time>2026-04-24T09:32:22Z</time></trkpt><trkpt lat="42.00187252198944" lon="13.222824090663469"><ele>1476.5</ele><time>2026-04-24T09:32:23Z</time></trkpt><trkpt lat="42.00188059227568" lon="13.222923707117774"><ele>1475.6666666666665</ele><time>2026-04-24T09:32:24Z</time></trkpt><trkpt lat="42.0018909120835" lon="13.223011706406512"><ele>1474.8333333333333</ele><time>2026-04-24T09:32:24.999Z</time></trkpt><trkpt lat="42.00191043146374" lon="13.223100959467347"><ele>1474.0</ele><time>2026-04-24T09:32:25.999Z</time></trkpt><trkpt lat="42.00197444509372" lon="13.223265151828025"><ele>1472.2</ele><time>2026-04-24T09:32:27.999Z</time></trkpt><trkpt lat="42.00205418461746" lon="13.223320808178"><ele>1470.4</ele><time>2026-04-24T09:32:28.999Z</time></trkpt><trkpt lat="42.00211498837201" lon="13.223377834073599"><ele>1468.6</ele><time>2026-04-24T09:32:29.999Z</time></trkpt><trkpt lat="42.00216676955599" lon="13.223426225536246"><ele>1466.8</ele><time>2026-04-24T09:32:30.999Z</time></trkpt><trkpt lat="42.00221316689986" lon="13.223567327722973"><ele>1465.0</ele><time>2026-04-24T09:32:32.999Z</time></trkpt><trkpt lat="42.00224669371875" lon="13.223736952705263"><ele>1465.0</ele><time>2026-04-24T09:32:34.999Z</time></trkpt><trkpt lat="42.00227030105094" lon="13.223824316486485"><ele>1465.0</ele><time>2026-04-24T09:32:35.999Z</time></trkpt><trkpt lat="42.00232150177235" lon="13.2239753591608"><ele>1465.0</ele><time>2026-04-24T09:32:37.999Z</time></trkpt><trkpt lat="42.002356692446064" lon="13.224063919094078"><ele>1465.0</ele><time>2026-04-24T09:32:38.999Z</time></trkpt><trkpt lat="42.002393153123776" lon="13.224152798912533"><ele>1465.0</ele><time>2026-04-24T09:32:39.999Z</time></trkpt><trkpt lat="42.002433653225445" lon="13.22424702464058"><ele>1465.0</ele><time>2026-04-24T09:32:40.999Z</time></trkpt><trkpt lat="42.00248133773406" lon="13.224351164569338"><ele>1464.0</ele><time>2026-04-24T09:32:41.999Z</time></trkpt><trkpt lat="42.00252931584029" lon="13.224445230284934"><ele>1463.0</ele><time>2026-04-24T09:32:42.999Z</time></trkpt><trkpt lat="42.002589083561595" lon="13.224553526989771"><ele>1462.0</ele><time>2026-04-24T09:32:43.999Z</time></trkpt><trkpt lat="42.00264964699122" lon="13.224652361600608"><ele>1461.0</ele><time>2026-04-24T09:32:44.999Z</time></trkpt><trkpt lat="42.002715868034365" lon="13.224752407899082"><ele>1460.0</ele><time>2026-04-24T09:32:45.999Z</time></trkpt><trkpt lat="42.0027899906155" lon="13.224837328686792"><ele>1460.0</ele><time>2026-04-24T09:32:46.999Z</time></trkpt><trkpt lat="42.00287840632529" lon="13.224917507438413"><ele>1460.0</ele><time>2026-04-24T09:32:47.999Z</time></trkpt><trkpt lat="42.002954827285855" lon="13.22498273512558"><ele>1460.0</ele><time>2026-04-24T09:32:48.999Z</time></trkpt><trkpt lat="42.003018784617566" lon="13.225047147889534"><ele>1460.0</ele><time>2026-04-24T09:32:49.999Z</time></trkpt><trkpt lat="42.00308233704054" lon="13.225094239371705"><ele>1460.0</ele><time>2026-04-24T09:32:50.999Z</time></trkpt><trkpt lat="42.00320806241274" lon="13.225143966243824"><ele>1460.0000000000002</ele><time>2026-04-24T09:32:52.999Z</time></trkpt><trkpt lat="42.00328128250776" lon="13.225160726543166"><ele>1460.0</ele><time>2026-04-24T09:32:53.999Z</time></trkpt><trkpt lat="42.003355323076136" lon="13.225168616144954"><ele>1460.0</ele><time>2026-04-24T09:32:54.999Z</time></trkpt><trkpt lat="42.003442194018746" lon="13.225164843943894"><ele>1460.0</ele><time>2026-04-24T09:32:55.999Z</time></trkpt><trkpt lat="42.00351746157371" lon="13.225138004994003"><ele>1460.0</ele><time>2026-04-24T09:32:56.999Z</time></trkpt><trkpt lat="42.00358076379747" lon="13.225131717681666"><ele>1460.0000000000002</ele><time>2026-04-24T09:32:57.999Z</time></trkpt><trkpt lat="42.00364340002277" lon="13.225115270269246"><ele>1460.0</ele><time>2026-04-24T09:32:58.999Z</time></trkpt><trkpt lat="42.0037647247966" lon="13.225085876619785"><ele>1460.0</ele><time>2026-04-24T09:33:00.999Z</time></trkpt><trkpt lat="42.003887568261156" lon="13.225044633339431"><ele>1460.0</ele><time>2026-04-24T09:33:02.999Z</time></trkpt><trkpt lat="42.00401481568859" lon="13.224996300662783"><ele>1460.0</ele><time>2026-04-24T09:33:04.999Z</time></trkpt><trkpt lat="42.00409123852052" lon="13.22496324578941"><ele>1460.0</ele><time>2026-04-24T09:33:05.999Z</time></trkpt><trkpt lat="42.00416749013014" lon="13.224924858488182"><ele>1460.0</ele><time>2026-04-24T09:33:06.999Z</time></trkpt><trkpt lat="42.00423882734626" lon="13.224886588102283"><ele>1460.0</ele><time>2026-04-24T09:33:07.999Z</time></trkpt><trkpt lat="42.0043081347934" lon="13.224848341758936"><ele>1460.0</ele><time>2026-04-24T09:33:08.999Z</time></trkpt><trkpt lat="42.00439428945235" lon="13.224797875784006"><ele>1460.0</ele><time>2026-04-24T09:33:10.999Z</time></trkpt><trkpt lat="42.0044937406656" lon="13.224718818590198"><ele>1460.0</ele><time>2026-04-24T09:33:12.999Z</time></trkpt><trkpt lat="42.00458568097379" lon="13.224670899953331"><ele>1460.0</ele><time>2026-04-24T09:33:14.999Z</time></trkpt><trkpt lat="42.004674674951694" lon="13.224604005748482"><ele>1459.8</ele><time>2026-04-24T09:33:16.999Z</time></trkpt><trkpt lat="42.00477668475329" lon="13.224525691722556"><ele>1459.6</ele><time>2026-04-24T09:33:18.999Z</time></trkpt><trkpt lat="42.00487168093449" lon="13.224445864936623"><ele>1459.4</ele><time>2026-04-24T09:33:20.999Z</time></trkpt><trkpt lat="42.00494194042862" lon="13.224392856414239"><ele>1459.2</ele><time>2026-04-24T09:33:22.999Z</time></trkpt><trkpt lat="42.00504108599657" lon="13.224352284996405"><ele>1459.0</ele><time>2026-04-24T09:33:24.999Z</time></trkpt><trkpt lat="42.00513889168214" lon="13.22426570320008"><ele>1459.0</ele><time>2026-04-24T09:33:26.999Z</time></trkpt><trkpt lat="42.00523272647405" lon="13.224193132200565"><ele>1459.0</ele><time>2026-04-24T09:33:28.999Z</time></trkpt><trkpt lat="42.005315590435906" lon="13.224126996033693"><ele>1459.0</ele><time>2026-04-24T09:33:30.999Z</time></trkpt><trkpt lat="42.00538937944186" lon="13.224075831081255"><ele>1459.0</ele><time>2026-04-24T09:33:32.999Z</time></trkpt><trkpt lat="42.005478923854426" lon="13.22402965722302"><ele>1459.0</ele><time>2026-04-24T09:33:35Z</time></trkpt><trkpt lat="42.0055606082433" lon="13.223994773151354"><ele>1459.0</ele><time>2026-04-24T09:33:37Z</time></trkpt><trkpt lat="42.00563041467086" lon="13.223985794996073"><ele>1459.0</ele><time>2026-04-24T09:33:39Z</time></trkpt><trkpt lat="42.0057010504834" lon="13.22402658969695"><ele>1459.0</ele><time>2026-04-24T09:33:43Z</time></trkpt><trkpt lat="42.00575908481122" lon="13.224119754484068"><ele>1459.0</ele><time>2026-04-24T09:33:47Z</time></trkpt><trkpt lat="42.00577500512129" lon="13.224218459593201"><ele>1459.0</ele><time>2026-04-24T09:33:50Z</time></trkpt><trkpt lat="42.00576535297922" lon="13.224354999895398"><ele>1459.0</ele><time>2026-04-24T09:33:52Z</time></trkpt><trkpt lat="42.005725977355105" lon="13.22446465732957"><ele>1459.0</ele><time>2026-04-24T09:33:54Z</time></trkpt><trkpt lat="42.0056726650596" lon="13.224586093011606"><ele>1459.0</ele><time>2026-04-24T09:33:56Z</time></trkpt><trkpt lat="42.005607516905464" lon="13.224706274474544"><ele>1459.0</ele><time>2026-04-24T09:33:58Z</time></trkpt><trkpt lat="42.00554031236156" lon="13.224831141882756"><ele>1459.0</ele><time>2026-04-24T09:34:00Z</time></trkpt><trkpt lat="42.00547228408696" lon="13.224962583307994"><ele>1459.0</ele><time>2026-04-24T09:34:02Z</time></trkpt><trkpt lat="42.00540879928269" lon="13.225083578875143"><ele>1455.6</ele><time>2026-04-24T09:34:04Z</time></trkpt><trkpt lat="42.00534161554906" lon="13.225219530830014"><ele>1452.2</ele><time>2026-04-24T09:34:06Z</time></trkpt><trkpt lat="42.005289046529384" lon="13.225349583470003"><ele>1448.8</ele><time>2026-04-24T09:34:08Z</time></trkpt><trkpt lat="42.00525732135229" lon="13.225510956418116"><ele>1445.3999999999999</ele><time>2026-04-24T09:34:10Z</time></trkpt><trkpt lat="42.00522803880524" lon="13.225588189733298"><ele>1442.0</ele><time>2026-04-24T09:34:11Z</time></trkpt><trkpt lat="42.00520649838478" lon="13.225748157418025"><ele>1439.3999999999999</ele><time>2026-04-24T09:34:13Z</time></trkpt><trkpt lat="42.005195593114635" lon="13.225902229192744"><ele>1436.8</ele><time>2026-04-24T09:34:15Z</time></trkpt><trkpt lat="42.005191348053565" lon="13.226063643418943"><ele>1434.2</ele><time>2026-04-24T09:34:16.999Z</time></trkpt><trkpt lat="42.00519228441902" lon="13.2262321977555"><ele>1431.6</ele><time>2026-04-24T09:34:18.999Z</time></trkpt><trkpt lat="42.00519483236937" lon="13.226335681419803"><ele>1429.0</ele><time>2026-04-24T09:34:19.999Z</time></trkpt><trkpt lat="42.00519694435928" lon="13.226421458456203"><ele>1426.4</ele><time>2026-04-24T09:34:20.999Z</time></trkpt><trkpt lat="42.00520207885518" lon="13.226576653916041"><ele>1423.8000000000002</ele><time>2026-04-24T09:34:22.999Z</time></trkpt><trkpt lat="42.00520808832064" lon="13.226734484205766"><ele>1421.1999999999998</ele><time>2026-04-24T09:34:24.999Z</time></trkpt><trkpt lat="42.00521181924919" lon="13.226832471770495"><ele>1418.6</ele><time>2026-04-24T09:34:25.999Z</time></trkpt><trkpt lat="42.00521836386472" lon="13.227004357210756"><ele>1416.0</ele><time>2026-04-24T09:34:27.999Z</time></trkpt><trkpt lat="42.00522554509953" lon="13.2271703436622"><ele>1413.1999999999998</ele><time>2026-04-24T09:34:29.999Z</time></trkpt><trkpt lat="42.00523404841588" lon="13.227334811989886"><ele>1410.3999999999999</ele><time>2026-04-24T09:34:31.999Z</time></trkpt><trkpt lat="42.00524344583345" lon="13.227493007689983"><ele>1407.6</ele><time>2026-04-24T09:34:33.999Z</time></trkpt><trkpt lat="42.00525355017454" lon="13.227652445512227"><ele>1404.8</ele><time>2026-04-24T09:34:35.999Z</time></trkpt><trkpt lat="42.00525926319847" lon="13.227747989393974"><ele>1402.0</ele><time>2026-04-24T09:34:36.999Z</time></trkpt><trkpt lat="42.0052667982137" lon="13.227834766606794"><ele>1402.0</ele><time>2026-04-24T09:34:37.999Z</time></trkpt><trkpt lat="42.00527551220006" lon="13.227930128156338"><ele>1402.0</ele><time>2026-04-24T09:34:38.999Z</time></trkpt><trkpt lat="42.00528639855817" lon="13.228031074465061"><ele>1402.0</ele><time>2026-04-24T09:34:39.999Z</time></trkpt><trkpt lat="42.00529694830662" lon="13.228128899494614"><ele>1402.0</ele><time>2026-04-24T09:34:40.999Z</time></trkpt><trkpt lat="42.005307774160336" lon="13.228229284762035"><ele>1402.0</ele><time>2026-04-24T09:34:41.999Z</time></trkpt><trkpt lat="42.00531836568723" lon="13.228335362796399"><ele>1402.0</ele><time>2026-04-24T09:34:42.999Z</time></trkpt><trkpt lat="42.00533776923009" lon="13.228439088503663"><ele>1399.3999999999999</ele><time>2026-04-24T09:34:43.999Z</time></trkpt><trkpt lat="42.00534327891865" lon="13.228537607605462"><ele>1396.8</ele><time>2026-04-24T09:34:44.999Z</time></trkpt><trkpt lat="42.005349113894475" lon="13.228637396679973"><ele>1394.2</ele><time>2026-04-24T09:34:45.999Z</time></trkpt><trkpt lat="42.00534354375929" lon="13.228799108380048"><ele>1391.6</ele><time>2026-04-24T09:34:47.999Z</time></trkpt><trkpt lat="42.00532021572825" lon="13.228944169018318"><ele>1389.0</ele><time>2026-04-24T09:34:49.999Z</time></trkpt><trkpt lat="42.00530312820221" lon="13.229068452322085"><ele>1388.8333333333333</ele><time>2026-04-24T09:34:51.999Z</time></trkpt><trkpt lat="42.00529219383376" lon="13.229199991010159"><ele>1388.6666666666667</ele><time>2026-04-24T09:34:53.999Z</time></trkpt><trkpt lat="42.00524404530942" lon="13.22931235053265"><ele>1388.5</ele><time>2026-04-24T09:34:55.999Z</time></trkpt><trkpt lat="42.00521147025663" lon="13.229412287100237"><ele>1388.3333333333335</ele><time>2026-04-24T09:34:57.999Z</time></trkpt><trkpt lat="42.005180440813284" lon="13.229504378949173"><ele>1388.1666666666667</ele><time>2026-04-24T09:34:59.999Z</time></trkpt><trkpt lat="42.00514648390972" lon="13.229597382350686"><ele>1388.0</ele><time>2026-04-24T09:35:01.999Z</time></trkpt><trkpt lat="42.00516388745258" lon="13.229743130474603"><ele>1390.3333333333335</ele><time>2026-04-24T09:35:02.999Z</time></trkpt><trkpt lat="42.005215029718514" lon="13.229883828171301"><ele>1392.6666666666667</ele><time>2026-04-24T09:35:04.999Z</time></trkpt><trkpt lat="42.00524308997547" lon="13.229963930703878"><ele>1395.0</ele><time>2026-04-24T09:35:05.999Z</time></trkpt><trkpt lat="42.005272246753215" lon="13.230046716845319"><ele>1397.3333333333333</ele><time>2026-04-24T09:35:06.999Z</time></trkpt><trkpt lat="42.00530256232012" lon="13.23014363662465"><ele>1399.6666666666665</ele><time>2026-04-24T09:35:07.999Z</time></trkpt><trkpt lat="42.005329718833856" lon="13.23023424412567"><ele>1402.0</ele><time>2026-04-24T09:35:08.999Z</time></trkpt><trkpt lat="42.005355538783206" lon="13.230332254047664"><ele>1402.0</ele><time>2026-04-24T09:35:09.999Z</time></trkpt><trkpt lat="42.00537892563655" lon="13.230424580763238"><ele>1402.0</ele><time>2026-04-24T09:35:10.999Z</time></trkpt><trkpt lat="42.005411026234306" lon="13.23050907479102"><ele>1402.0</ele><time>2026-04-24T09:35:11.999Z</time></trkpt><trkpt lat="42.00542126776262" lon="13.230599168521428"><ele>1402.0</ele><time>2026-04-24T09:35:12.999Z</time></trkpt><trkpt lat="42.00544106429735" lon="13.230694423240195"><ele>1402.0</ele><time>2026-04-24T09:35:13.999Z</time></trkpt><trkpt lat="42.00545736427187" lon="13.230776566114754"><ele>1402.0</ele><time>2026-04-24T09:35:14.999Z</time></trkpt><trkpt lat="42.005481619410624" lon="13.230921872338852"><ele>1405.0</ele><time>2026-04-24T09:35:16.999Z</time></trkpt><trkpt lat="42.005500886790784" lon="13.231088350583194"><ele>1408.0</ele><time>2026-04-24T09:35:18.999Z</time></trkpt><trkpt lat="42.005507415073296" lon="13.231173199141812"><ele>1411.0</ele><time>2026-04-24T09:35:19.999Z</time></trkpt><trkpt lat="42.005515989963534" lon="13.231355911641822"><ele>1414.0</ele><time>2026-04-24T09:35:21.999Z</time></trkpt><trkpt lat="42.00551634793997" lon="13.231468660467515"><ele>1417.0</ele><time>2026-04-24T09:35:22.999Z</time></trkpt><trkpt lat="42.005512610196035" lon="13.23160159268807"><ele>1417.3999999999999</ele><time>2026-04-24T09:35:23.999Z</time></trkpt><trkpt lat="42.00550133967476" lon="13.231743754174325"><ele>1417.8</ele><time>2026-04-24T09:35:24.999Z</time></trkpt><trkpt lat="42.00548714322662" lon="13.231884064873059"><ele>1418.2</ele><time>2026-04-24T09:35:25.999Z</time></trkpt><trkpt lat="42.00547070245846" lon="13.232031196868611"><ele>1418.6</ele><time>2026-04-24T09:35:26.999Z</time></trkpt><trkpt lat="42.00545507098463" lon="13.232171085808625"><ele>1419.0</ele><time>2026-04-24T09:35:27.999Z</time></trkpt><trkpt lat="42.005445601006656" lon="13.232277673629433"><ele>1417.0</ele><time>2026-04-24T09:35:28.999Z</time></trkpt><trkpt lat="42.005433186580724" lon="13.232366933355957"><ele>1415.0</ele><time>2026-04-24T09:35:29.999Z</time></trkpt><trkpt lat="42.00543635604574" lon="13.232463182223475"><ele>1413.0</ele><time>2026-04-24T09:35:30.999Z</time></trkpt><trkpt lat="42.00541113585543" lon="13.232579864855024"><ele>1411.0</ele><time>2026-04-24T09:35:31.999Z</time></trkpt><trkpt lat="42.005395713439114" lon="13.232676566692238"><ele>1409.0</ele><time>2026-04-24T09:35:32.999Z</time></trkpt><trkpt lat="42.00538386869637" lon="13.232789356100486"><ele>1407.0</ele><time>2026-04-24T09:35:33.999Z</time></trkpt><trkpt lat="42.005364526826014" lon="13.232885561604185"><ele>1407.0</ele><time>2026-04-24T09:35:34.999Z</time></trkpt><trkpt lat="42.00534160470026" lon="13.232972300151529"><ele>1407.0</ele><time>2026-04-24T09:35:35.999Z</time></trkpt><trkpt lat="42.00531939516189" lon="13.233062962556732"><ele>1407.0</ele><time>2026-04-24T09:35:36.999Z</time></trkpt><trkpt lat="42.00529902320313" lon="13.233143741541307"><ele>1407.0</ele><time>2026-04-24T09:35:37.999Z</time></trkpt><trkpt lat="42.00527777147678" lon="13.233224097471465"><ele>1407.0</ele><time>2026-04-24T09:35:38.999Z</time></trkpt><trkpt lat="42.00526089145874" lon="13.233351139251997"><ele>1407.0</ele><time>2026-04-24T09:35:41Z</time></trkpt><trkpt lat="42.00524111429167" lon="13.233473692208602"><ele>1405.1666666666667</ele><time>2026-04-24T09:35:43Z</time></trkpt><trkpt lat="42.00526162846203" lon="13.233583553098812"><ele>1403.3333333333333</ele><time>2026-04-24T09:35:45Z</time></trkpt><trkpt lat="42.005263162650294" lon="13.233752145885108"><ele>1401.5</ele><time>2026-04-24T09:35:47Z</time></trkpt><trkpt lat="42.00527924004753" lon="13.233838362392586"><ele>1399.6666666666665</ele><time>2026-04-24T09:35:48Z</time></trkpt><trkpt lat="42.00530104237007" lon="13.233923729609987"><ele>1397.8333333333333</ele><time>2026-04-24T09:35:49Z</time></trkpt><trkpt lat="42.00533094717725" lon="13.234004661273683"><ele>1396.0</ele><time>2026-04-24T09:35:50Z</time></trkpt><trkpt lat="42.00538317106727" lon="13.234080101436184"><ele>1395.9999999999998</ele><time>2026-04-24T09:35:51Z</time></trkpt><trkpt lat="42.00542946454836" lon="13.234154843968579"><ele>1396.0</ele><time>2026-04-24T09:35:52Z</time></trkpt><trkpt lat="42.00548793774574" lon="13.23422841042472"><ele>1396.0</ele><time>2026-04-24T09:35:53Z</time></trkpt><trkpt lat="42.0055285194409" lon="13.234302231920083"><ele>1396.0</ele><time>2026-04-24T09:35:54Z</time></trkpt><trkpt lat="42.005567604545014" lon="13.234379265141373"><ele>1396.0</ele><time>2026-04-24T09:35:55Z</time></trkpt><trkpt lat="42.00559781193967" lon="13.2344686854111"><ele>1395.9999999999998</ele><time>2026-04-24T09:35:56Z</time></trkpt><trkpt lat="42.00563556962019" lon="13.234558784949694"><ele>1396.0</ele><time>2026-04-24T09:35:57Z</time></trkpt><trkpt lat="42.00567174933766" lon="13.2346398907578"><ele>1396.0</ele><time>2026-04-24T09:35:58Z</time></trkpt><trkpt lat="42.0057325561401" lon="13.234787486770038"><ele>1396.0</ele><time>2026-04-24T09:36:00Z</time></trkpt><trkpt lat="42.00577798777632" lon="13.234851527856035"><ele>1396.0</ele><time>2026-04-24T09:36:01Z</time></trkpt><trkpt lat="42.00588459591872" lon="13.234937014602894"><ele>1396.0</ele><time>2026-04-24T09:36:03Z</time></trkpt><trkpt lat="42.005958296396315" lon="13.234945245827014"><ele>1396.0</ele><time>2026-04-24T09:36:04Z</time></trkpt><trkpt lat="42.00603022178792" lon="13.234947948134494"><ele>1394.1999999999998</ele><time>2026-04-24T09:36:05Z</time></trkpt><trkpt lat="42.006099098254204" lon="13.23494352349243"><ele>1392.3999999999999</ele><time>2026-04-24T09:36:06Z</time></trkpt><trkpt lat="42.00622186173038" lon="13.234930110324495"><ele>1390.6</ele><time>2026-04-24T09:36:08Z</time></trkpt><trkpt lat="42.00628708850127" lon="13.234931008477863"><ele>1388.8</ele><time>2026-04-24T09:36:09Z</time></trkpt><trkpt lat="42.006427778060406" lon="13.234941097817488"><ele>1387.0</ele><time>2026-04-24T09:36:11Z</time></trkpt><trkpt lat="42.00653878746803" lon="13.235004087084977"><ele>1387.0</ele><time>2026-04-24T09:36:13Z</time></trkpt><trkpt lat="42.00661957276521" lon="13.235053395629883"><ele>1387.0</ele><time>2026-04-24T09:36:14Z</time></trkpt><trkpt lat="42.006685844019195" lon="13.235120042905098"><ele>1387.0</ele><time>2026-04-24T09:36:15Z</time></trkpt><trkpt lat="42.006746067968784" lon="13.23516898692436"><ele>1387.0</ele><time>2026-04-24T09:36:16Z</time></trkpt><trkpt lat="42.0068458670871" lon="13.2352542827933"><ele>1387.0</ele><time>2026-04-24T09:36:18Z</time></trkpt><trkpt lat="42.00691633867034" lon="13.235348566338597"><ele>1386.3999999999999</ele><time>2026-04-24T09:36:19.999Z</time></trkpt><trkpt lat="42.00689753701492" lon="13.235458718663383"><ele>1385.8</ele><time>2026-04-24T09:36:22.999Z</time></trkpt><trkpt lat="42.00683553217224" lon="13.23556002169753"><ele>1385.2</ele><time>2026-04-24T09:36:24.999Z</time></trkpt><trkpt lat="42.00672962775988" lon="13.23567311749811"><ele>1384.6</ele><time>2026-04-24T09:36:26.999Z</time></trkpt><trkpt lat="42.00665831636528" lon="13.235751820844865"><ele>1384.0</ele><time>2026-04-24T09:36:27.999Z</time></trkpt><trkpt lat="42.00659330368089" lon="13.235838569205576"><ele>1386.8000000000002</ele><time>2026-04-24T09:36:28.999Z</time></trkpt><trkpt lat="42.00653216956596" lon="13.235941699064927"><ele>1389.6000000000001</ele><time>2026-04-24T09:36:29.999Z</time></trkpt><trkpt lat="42.00647687262057" lon="13.236050980694317"><ele>1392.4</ele><time>2026-04-24T09:36:30.999Z</time></trkpt><trkpt lat="42.006424320882985" lon="13.236162940137456"><ele>1395.2</ele><time>2026-04-24T09:36:31.999Z</time></trkpt><trkpt lat="42.00635758964008" lon="13.236269166234521"><ele>1398.0</ele><time>2026-04-24T09:36:32.999Z</time></trkpt><trkpt lat="42.006298643298344" lon="13.236376183247147"><ele>1396.0</ele><time>2026-04-24T09:36:33.999Z</time></trkpt><trkpt lat="42.00624218311935" lon="13.236480275618918"><ele>1394.0</ele><time>2026-04-24T09:36:34.999Z</time></trkpt><trkpt lat="42.006189688343255" lon="13.236578325325073"><ele>1392.0</ele><time>2026-04-24T09:36:35.999Z</time></trkpt><trkpt lat="42.00613810792144" lon="13.23668214798004"><ele>1390.0</ele><time>2026-04-24T09:36:36.999Z</time></trkpt><trkpt lat="42.00608875072613" lon="13.236776241160221"><ele>1388.0</ele><time>2026-04-24T09:36:37.999Z</time></trkpt><trkpt lat="42.006032888645784" lon="13.236863233815255"><ele>1386.0</ele><time>2026-04-24T09:36:38.999Z</time></trkpt><trkpt lat="42.00598705211798" lon="13.236946172843837"><ele>1386.0</ele><time>2026-04-24T09:36:39.999Z</time></trkpt><trkpt lat="42.00594094325269" lon="13.2370253205382"><ele>1386.0</ele><time>2026-04-24T09:36:40.999Z</time></trkpt><trkpt lat="42.005901461495114" lon="13.237107832236712"><ele>1386.0</ele><time>2026-04-24T09:36:41.999Z</time></trkpt><trkpt lat="42.005886131778176" lon="13.237202772577303"><ele>1386.0</ele><time>2026-04-24T09:36:42.999Z</time></trkpt><trkpt lat="42.00588834351008" lon="13.23730790294675"><ele>1386.0</ele><time>2026-04-24T09:36:43.999Z</time></trkpt><trkpt lat="42.00590194452246" lon="13.237426516724675"><ele>1386.0</ele><time>2026-04-24T09:36:44.999Z</time></trkpt><trkpt lat="42.00591885733477" lon="13.237540988920246"><ele>1386.5</ele><time>2026-04-24T09:36:45.999Z</time></trkpt><trkpt lat="42.00592765421097" lon="13.237642415287802"><ele>1387.0</ele><time>2026-04-24T09:36:46.999Z</time></trkpt><trkpt lat="42.00593349546732" lon="13.23773269214705"><ele>1387.5</ele><time>2026-04-24T09:36:47.999Z</time></trkpt><trkpt lat="42.00590155775458" lon="13.23790654557574"><ele>1388.0</ele><time>2026-04-24T09:36:49.999Z</time></trkpt><trkpt lat="42.00586537552657" lon="13.238007618223074"><ele>1388.5</ele><time>2026-04-24T09:36:50.999Z</time></trkpt><trkpt lat="42.005827919387826" lon="13.23810333606819"><ele>1389.0</ele><time>2026-04-24T09:36:51.999Z</time></trkpt><trkpt lat="42.00580093020031" lon="13.238204987549159"><ele>1389.0</ele><time>2026-04-24T09:36:52.999Z</time></trkpt><trkpt lat="42.00578173718553" lon="13.238308055167764"><ele>1389.0</ele><time>2026-04-24T09:36:53.999Z</time></trkpt><trkpt lat="42.0057549369929" lon="13.238405071744198"><ele>1389.0</ele><time>2026-04-24T09:36:54.999Z</time></trkpt><trkpt lat="42.00572222875598" lon="13.238493679152656"><ele>1389.0</ele><time>2026-04-24T09:36:55.999Z</time></trkpt><trkpt lat="42.00567947199571" lon="13.238579545034252"><ele>1389.0</ele><time>2026-04-24T09:36:56.999Z</time></trkpt><trkpt lat="42.005636884242406" lon="13.23866045325103"><ele>1389.0</ele><time>2026-04-24T09:36:57.999Z</time></trkpt><trkpt lat="42.00558947930351" lon="13.238731885050452"><ele>1389.0</ele><time>2026-04-24T09:36:58.999Z</time></trkpt><trkpt lat="42.005529870137956" lon="13.238802953044091"><ele>1389.0</ele><time>2026-04-24T09:36:59.999Z</time></trkpt><trkpt lat="42.00546230860924" lon="13.238868109825079"><ele>1389.0</ele><time>2026-04-24T09:37:00.999Z</time></trkpt><trkpt lat="42.00538245775685" lon="13.238949487396775"><ele>1389.0</ele><time>2026-04-24T09:37:01.999Z</time></trkpt><trkpt lat="42.00529128431941" lon="13.23904663890136"><ele>1389.0</ele><time>2026-04-24T09:37:02.999Z</time></trkpt><trkpt lat="42.00517502382398" lon="13.239173096908175"><ele>1392.0</ele><time>2026-04-24T09:37:03.999Z</time></trkpt><trkpt lat="42.00504361282754" lon="13.239373965469463"><ele>1395.0</ele><time>2026-04-24T09:37:04.999Z</time></trkpt><trkpt lat="42.00490451994808" lon="13.239580203186955"><ele>1398.0</ele><time>2026-04-24T09:37:05.999Z</time></trkpt><trkpt lat="42.004721475142766" lon="13.239703943536327"><ele>1388.3333333333333</ele><time>2026-04-24T09:37:06.999Z</time></trkpt><trkpt lat="42.004598247776244" lon="13.239860802770458"><ele>1378.6666666666665</ele><time>2026-04-24T09:37:07.999Z</time></trkpt><trkpt lat="42.00447396229089" lon="13.239984958186717"><ele>1369.0</ele><time>2026-04-24T09:37:08.999Z</time></trkpt><trkpt lat="42.004350488954515" lon="13.240119434983995"><ele>1369.0</ele><time>2026-04-24T09:37:09.999Z</time></trkpt><trkpt lat="42.00423842617841" lon="13.240237139480382"><ele>1369.0</ele><time>2026-04-24T09:37:10.999Z</time></trkpt><trkpt lat="42.00413662686005" lon="13.240338063237681"><ele>1369.0</ele><time>2026-04-24T09:37:11.999Z</time></trkpt><trkpt lat="42.00404687738911" lon="13.240479328164703"><ele>1369.0</ele><time>2026-04-24T09:37:12.999Z</time></trkpt><trkpt lat="42.003950857893514" lon="13.24065409114868"><ele>1371.0</ele><time>2026-04-24T09:37:13.999Z</time></trkpt><trkpt lat="42.00384884147277" lon="13.2408047369233"><ele>1373.0</ele><time>2026-04-24T09:37:14.999Z</time></trkpt><trkpt lat="42.003731468596726" lon="13.240949425414174"><ele>1375.0</ele><time>2026-04-24T09:37:15.999Z</time></trkpt><trkpt lat="42.00363117355188" lon="13.241094292920648"><ele>1375.0</ele><time>2026-04-24T09:37:16.999Z</time></trkpt><trkpt lat="42.003542966071024" lon="13.241245116523814"><ele>1375.0</ele><time>2026-04-24T09:37:17.999Z</time></trkpt><trkpt lat="42.0034676173788" lon="13.241380493120433"><ele>1375.0</ele><time>2026-04-24T09:37:18.999Z</time></trkpt><trkpt lat="42.00335609844278" lon="13.241458739568685"><ele>1375.0</ele><time>2026-04-24T09:37:19.999Z</time></trkpt><trkpt lat="42.003289308814495" lon="13.241582468011849"><ele>1375.6</ele><time>2026-04-24T09:37:20.999Z</time></trkpt><trkpt lat="42.00322452043395" lon="13.24169632645417"><ele>1376.2</ele><time>2026-04-24T09:37:21.999Z</time></trkpt><trkpt lat="42.0031495789121" lon="13.241800427092347"><ele>1376.8000000000002</ele><time>2026-04-24T09:37:22.999Z</time></trkpt><trkpt lat="42.003067037444" lon="13.241881250344687"><ele>1377.4</ele><time>2026-04-24T09:37:23.999Z</time></trkpt><trkpt lat="42.00296867116091" lon="13.241933236605213"><ele>1378.0</ele><time>2026-04-24T09:37:24.999Z</time></trkpt><trkpt lat="42.00286850311209" lon="13.24200696559579"><ele>1378.0</ele><time>2026-04-24T09:37:25.999Z</time></trkpt><trkpt lat="42.00276294051371" lon="13.242109526577265"><ele>1378.0</ele><time>2026-04-24T09:37:26.999Z</time></trkpt><trkpt lat="42.00266043599309" lon="13.242188247646213"><ele>1378.0</ele><time>2026-04-24T09:37:27.999Z</time></trkpt><trkpt lat="42.00257014880737" lon="13.24227975178563"><ele>1378.0</ele><time>2026-04-24T09:37:28.999Z</time></trkpt><trkpt lat="42.00247958433159" lon="13.242371223664362"><ele>1376.6666666666665</ele><time>2026-04-24T09:37:29.999Z</time></trkpt><trkpt lat="42.00239203051736" lon="13.242440823976573"><ele>1375.3333333333333</ele><time>2026-04-24T09:37:30.999Z</time></trkpt><trkpt lat="42.002317506497924" lon="13.24250894486154"><ele>1374.0</ele><time>2026-04-24T09:37:31.999Z</time></trkpt><trkpt lat="42.00225983889832" lon="13.242581802171548"><ele>1372.6666666666667</ele><time>2026-04-24T09:37:32.999Z</time></trkpt><trkpt lat="42.002208919089085" lon="13.242650041114462"><ele>1371.3333333333335</ele><time>2026-04-24T09:37:33.999Z</time></trkpt><trkpt lat="42.00214901872249" lon="13.24269545735157"><ele>1370.0</ele><time>2026-04-24T09:37:34.999Z</time></trkpt><trkpt lat="42.00209341264667" lon="13.242741160293791"><ele>1370.0</ele><time>2026-04-24T09:37:35.999Z</time></trkpt><trkpt lat="42.00203368625377" lon="13.242779385956538"><ele>1370.0</ele><time>2026-04-24T09:37:36.999Z</time></trkpt><trkpt lat="42.0019629616757" lon="13.242802473467785"><ele>1370.0</ele><time>2026-04-24T09:37:37.999Z</time></trkpt><trkpt lat="42.00187169536123" lon="13.242816806733472"><ele>1370.0</ele><time>2026-04-24T09:37:38.999Z</time></trkpt><trkpt lat="42.001758950914436" lon="13.242833602210037"><ele>1370.0</ele><time>2026-04-24T09:37:39.999Z</time></trkpt><trkpt lat="42.00163536044096" lon="13.242854901334299"><ele>1371.4</ele><time>2026-04-24T09:37:40.999Z</time></trkpt><trkpt lat="42.00152433458347" lon="13.2429015071964"><ele>1372.8</ele><time>2026-04-24T09:37:41.999Z</time></trkpt><trkpt lat="42.00142595699239" lon="13.2429562199199"><ele>1374.1999999999998</ele><time>2026-04-24T09:37:42.998Z</time></trkpt><trkpt lat="42.00134193148572" lon="13.242981783633006"><ele>1375.6</ele><time>2026-04-24T09:37:43.998Z</time></trkpt><trkpt lat="42.00125940995886" lon="13.242995799944493"><ele>1377.0</ele><time>2026-04-24T09:37:44.998Z</time></trkpt><trkpt lat="42.001147883973886" lon="13.243027038118028"><ele>1377.0</ele><time>2026-04-24T09:37:47Z</time></trkpt><trkpt lat="42.00105500528676" lon="13.243076533455106"><ele>1377.0</ele><time>2026-04-24T09:37:49Z</time></trkpt><trkpt lat="42.00102636455051" lon="13.243152895462858"><ele>1377.0</ele><time>2026-04-24T09:37:50Z</time></trkpt><trkpt lat="42.00103599115958" lon="13.243304549896973"><ele>1377.0</ele><time>2026-04-24T09:37:52Z</time></trkpt><trkpt lat="42.001059197895295" lon="13.243385953634036"><ele>1377.0</ele><time>2026-04-24T09:37:53Z</time></trkpt><trkpt lat="42.00109931304594" lon="13.24348974095237"><ele>1377.0</ele><time>2026-04-24T09:37:54Z</time></trkpt><trkpt lat="42.00113020234198" lon="13.243598882589223"><ele>1375.3333333333333</ele><time>2026-04-24T09:37:55Z</time></trkpt><trkpt lat="42.001161059519625" lon="13.243702266178927"><ele>1373.6666666666667</ele><time>2026-04-24T09:37:56Z</time></trkpt><trkpt lat="42.00119153563529" lon="13.24379728905236"><ele>1372.0</ele><time>2026-04-24T09:37:57Z</time></trkpt><trkpt lat="42.00122969872611" lon="13.243920828230564"><ele>1370.3333333333335</ele><time>2026-04-24T09:37:58Z</time></trkpt><trkpt lat="42.00126049694813" lon="13.244038430450967"><ele>1368.6666666666667</ele><time>2026-04-24T09:37:59Z</time></trkpt><trkpt lat="42.00128127545915" lon="13.244163908281859"><ele>1367.0</ele><time>2026-04-24T09:38:00Z</time></trkpt><trkpt lat="42.00130700513133" lon="13.244281190085985"><ele>1367.0</ele><time>2026-04-24T09:38:01Z</time></trkpt><trkpt lat="42.00131075459079" lon="13.244414814895997"><ele>1367.0</ele><time>2026-04-24T09:38:02Z</time></trkpt><trkpt lat="42.001343345147646" lon="13.244529678996187"><ele>1367.0</ele><time>2026-04-24T09:38:03Z</time></trkpt><trkpt lat="42.001344694866916" lon="13.244647675534194"><ele>1367.0</ele><time>2026-04-24T09:38:04Z</time></trkpt><trkpt lat="42.00135593871846" lon="13.244743698841562"><ele>1367.0</ele><time>2026-04-24T09:38:05Z</time></trkpt><trkpt lat="42.001352692819275" lon="13.244880770330925"><ele>1365.1999999999998</ele><time>2026-04-24T09:38:07Z</time></trkpt><trkpt lat="42.00128169934299" lon="13.244957694558869"><ele>1363.4</ele><time>2026-04-24T09:38:09Z</time></trkpt><trkpt lat="42.001168649489784" lon="13.245018031462212"><ele>1361.6</ele><time>2026-04-24T09:38:11Z</time></trkpt><trkpt lat="42.00109009806626" lon="13.245045813736816"><ele>1359.8000000000002</ele><time>2026-04-24T09:38:12Z</time></trkpt><trkpt lat="42.001019127677104" lon="13.245073399854098"><ele>1358.0</ele><time>2026-04-24T09:38:13Z</time></trkpt><trkpt lat="42.000939599827625" lon="13.245140391430379"><ele>1358.0</ele><time>2026-04-24T09:38:13.999Z</time></trkpt><trkpt lat="42.00085035434704" lon="13.245194781618043"><ele>1358.0</ele><time>2026-04-24T09:38:14.999Z</time></trkpt><trkpt lat="42.00074896831764" lon="13.245250597038346"><ele>1358.0</ele><time>2026-04-24T09:38:15.999Z</time></trkpt><trkpt lat="42.00065387752554" lon="13.245333549966372"><ele>1358.0</ele><time>2026-04-24T09:38:16.999Z</time></trkpt><trkpt lat="42.000555597079725" lon="13.245418166549616"><ele>1358.0</ele><time>2026-04-24T09:38:17.999Z</time></trkpt><trkpt lat="42.00046960505529" lon="13.245497158973842"><ele>1356.0</ele><time>2026-04-24T09:38:18.999Z</time></trkpt><trkpt lat="42.00039807492309" lon="13.245599822965715"><ele>1354.0</ele><time>2026-04-24T09:38:19.999Z</time></trkpt><trkpt lat="42.00030331908775" lon="13.245659208247643"><ele>1352.0</ele><time>2026-04-24T09:38:20.999Z</time></trkpt><trkpt lat="42.000219186889176" lon="13.245736246361062"><ele>1350.0</ele><time>2026-04-24T09:38:21.999Z</time></trkpt><trkpt lat="42.00015333097043" lon="13.245819383629714"><ele>1348.0</ele><time>2026-04-24T09:38:22.999Z</time></trkpt><trkpt lat="42.000086980325136" lon="13.245879894213443"><ele>1348.0</ele><time>2026-04-24T09:38:23.999Z</time></trkpt><trkpt lat="42.00003329834101" lon="13.245966618423505"><ele>1348.0</ele><time>2026-04-24T09:38:24.999Z</time></trkpt><trkpt lat="41.99998664507295" lon="13.246055760933439"><ele>1348.0</ele><time>2026-04-24T09:38:25.999Z</time></trkpt><trkpt lat="41.99993170018275" lon="13.246132119265111"><ele>1348.0</ele><time>2026-04-24T09:38:26.999Z</time></trkpt><trkpt lat="41.9998773858971" lon="13.246194571748427"><ele>1348.0</ele><time>2026-04-24T09:38:27.999Z</time></trkpt><trkpt lat="41.99980701570549" lon="13.24623377545202"><ele>1348.0</ele><time>2026-04-24T09:38:28.999Z</time></trkpt><trkpt lat="41.99973922362122" lon="13.246269189919474"><ele>1348.0</ele><time>2026-04-24T09:38:29.999Z</time></trkpt><trkpt lat="41.999654605927816" lon="13.246287641555385"><ele>1348.0</ele><time>2026-04-24T09:38:30.999Z</time></trkpt><trkpt lat="41.99956679803342" lon="13.246311105643903"><ele>1348.0</ele><time>2026-04-24T09:38:31.999Z</time></trkpt><trkpt lat="41.999475394422994" lon="13.24633203524417"><ele>1348.0</ele><time>2026-04-24T09:38:32.999Z</time></trkpt><trkpt lat="41.999373822121356" lon="13.246352616561076"><ele>1348.0</ele><time>2026-04-24T09:38:33.999Z</time></trkpt><trkpt lat="41.9992745069112" lon="13.246367091344453"><ele>1348.0</ele><time>2026-04-24T09:38:34.999Z</time></trkpt><trkpt lat="41.999177574449135" lon="13.246373988437083"><ele>1348.0</ele><time>2026-04-24T09:38:35.999Z</time></trkpt><trkpt lat="41.99907569088898" lon="13.246360910289887"><ele>1348.0</ele><time>2026-04-24T09:38:36.999Z</time></trkpt><trkpt lat="41.998970860280714" lon="13.246329732569526"><ele>1348.0</ele><time>2026-04-24T09:38:37.999Z</time></trkpt><trkpt lat="41.99887095483744" lon="13.246305329582592"><ele>1348.0</ele><time>2026-04-24T09:38:38.999Z</time></trkpt><trkpt lat="41.998767239635335" lon="13.246297448195964"><ele>1350.0</ele><time>2026-04-24T09:38:39.999Z</time></trkpt><trkpt lat="41.99866879290931" lon="13.246301808523688"><ele>1352.0</ele><time>2026-04-24T09:38:40.999Z</time></trkpt><trkpt lat="41.99857745637309" lon="13.246306267733525"><ele>1354.0</ele><time>2026-04-24T09:38:41.999Z</time></trkpt><trkpt lat="41.99848322292198" lon="13.24630787558383"><ele>1356.0</ele><time>2026-04-24T09:38:42.999Z</time></trkpt><trkpt lat="41.99839717637927" lon="13.246284932891081"><ele>1358.0</ele><time>2026-04-24T09:38:43.999Z</time></trkpt><trkpt lat="41.998311675193946" lon="13.246265434264478"><ele>1358.0</ele><time>2026-04-24T09:38:44.999Z</time></trkpt><trkpt lat="41.99823795028652" lon="13.246276791338293"><ele>1358.0</ele><time>2026-04-24T09:38:45.999Z</time></trkpt><trkpt lat="41.99815905405298" lon="13.246302146739293"><ele>1358.0</ele><time>2026-04-24T09:38:46.999Z</time></trkpt><trkpt lat="41.99806964197414" lon="13.246326696662052"><ele>1358.0</ele><time>2026-04-24T09:38:47.999Z</time></trkpt><trkpt lat="41.99797912183143" lon="13.246399286436796"><ele>1358.0</ele><time>2026-04-24T09:38:48.999Z</time></trkpt><trkpt lat="41.997891013011845" lon="13.246476175878477"><ele>1354.2</ele><time>2026-04-24T09:38:49.999Z</time></trkpt><trkpt lat="41.99780594878312" lon="13.246551488042174"><ele>1350.4</ele><time>2026-04-24T09:38:50.999Z</time></trkpt><trkpt lat="41.99772588148689" lon="13.246622800454874"><ele>1346.6000000000001</ele><time>2026-04-24T09:38:51.999Z</time></trkpt><trkpt lat="41.99764878778099" lon="13.246690242414328"><ele>1342.8000000000002</ele><time>2026-04-24T09:38:52.999Z</time></trkpt><trkpt lat="41.99756305811261" lon="13.246765156139032"><ele>1339.0</ele><time>2026-04-24T09:38:53.999Z</time></trkpt><trkpt lat="41.99747126422489" lon="13.246842845070049"><ele>1339.0</ele><time>2026-04-24T09:38:54.999Z</time></trkpt><trkpt lat="41.997382507396296" lon="13.246915736529287"><ele>1339.0</ele><time>2026-04-24T09:38:55.999Z</time></trkpt><trkpt lat="41.99729920931309" lon="13.246980298819597"><ele>1339.0</ele><time>2026-04-24T09:38:56.999Z</time></trkpt><trkpt lat="41.99722424151415" lon="13.247029684264781"><ele>1339.0</ele><time>2026-04-24T09:38:57.999Z</time></trkpt><trkpt lat="41.997155008475744" lon="13.247066431493417"><ele>1339.0</ele><time>2026-04-24T09:38:58.999Z</time></trkpt><trkpt lat="41.99707583440058" lon="13.247086126196965"><ele>1339.0</ele><time>2026-04-24T09:38:59.999Z</time></trkpt><trkpt lat="41.996989002183255" lon="13.247067624781064"><ele>1339.0</ele><time>2026-04-24T09:39:00.999Z</time></trkpt><trkpt lat="41.99691734771137" lon="13.247075088724259"><ele>1339.0</ele><time>2026-04-24T09:39:01.999Z</time></trkpt><trkpt lat="41.99685019060396" lon="13.247086494177355"><ele>1339.0</ele><time>2026-04-24T09:39:02.999Z</time></trkpt><trkpt lat="41.99677538269738" lon="13.247113076779582"><ele>1339.0</ele><time>2026-04-24T09:39:03.999Z</time></trkpt><trkpt lat="41.99669897022132" lon="13.247191473714443"><ele>1339.0</ele><time>2026-04-24T09:39:04.999Z</time></trkpt><trkpt lat="41.99664751979037" lon="13.247309043014736"><ele>1339.0</ele><time>2026-04-24T09:39:05.999Z</time></trkpt><trkpt lat="41.99659642541368" lon="13.24741767337119"><ele>1336.6666666666665</ele><time>2026-04-24T09:39:06.999Z</time></trkpt><trkpt lat="41.99654898112066" lon="13.247502837917587"><ele>1334.3333333333333</ele><time>2026-04-24T09:39:07.999Z</time></trkpt><trkpt lat="41.99649133636255" lon="13.247577583165675"><ele>1332.0</ele><time>2026-04-24T09:39:08.999Z</time></trkpt><trkpt lat="41.996429985270716" lon="13.247631690346793"><ele>1329.6666666666667</ele><time>2026-04-24T09:39:09.999Z</time></trkpt><trkpt lat="41.99631365488555" lon="13.247702999415772"><ele>1327.3333333333335</ele><time>2026-04-24T09:39:11.999Z</time></trkpt><trkpt lat="41.99624025115875" lon="13.247708734267079"><ele>1325.0</ele><time>2026-04-24T09:39:12.999Z</time></trkpt><trkpt lat="41.99615335750929" lon="13.247694287531413"><ele>1325.0</ele><time>2026-04-24T09:39:13.999Z</time></trkpt><trkpt lat="41.996055649444266" lon="13.247691683796212"><ele>1325.0</ele><time>2026-04-24T09:39:14.999Z</time></trkpt><trkpt lat="41.99595706378426" lon="13.247694362363545"><ele>1325.0</ele><time>2026-04-24T09:39:15.999Z</time></trkpt><trkpt lat="41.99586348297539" lon="13.247720040408161"><ele>1325.0</ele><time>2026-04-24T09:39:16.999Z</time></trkpt><trkpt lat="41.995775765781524" lon="13.24776101433679"><ele>1325.0</ele><time>2026-04-24T09:39:17.999Z</time></trkpt><trkpt lat="41.995695040461555" lon="13.24780629701727"><ele>1323.6</ele><time>2026-04-24T09:39:18.999Z</time></trkpt><trkpt lat="41.99561382965574" lon="13.247860246914053"><ele>1322.2</ele><time>2026-04-24T09:39:19.999Z</time></trkpt><trkpt lat="41.99553248560751" lon="13.247921816930763"><ele>1320.8000000000002</ele><time>2026-04-24T09:39:20.999Z</time></trkpt><trkpt lat="41.99544994732387" lon="13.247991493365033"><ele>1319.4</ele><time>2026-04-24T09:39:21.999Z</time></trkpt><trkpt lat="41.99537690106437" lon="13.248059274347213"><ele>1318.0</ele><time>2026-04-24T09:39:22.999Z</time></trkpt><trkpt lat="41.99530941347821" lon="13.248132150428551"><ele>1318.0</ele><time>2026-04-24T09:39:23.999Z</time></trkpt><trkpt lat="41.99524406992118" lon="13.248213907025436"><ele>1318.0</ele><time>2026-04-24T09:39:24.999Z</time></trkpt><trkpt lat="41.99519610445256" lon="13.248286282503928"><ele>1318.0</ele><time>2026-04-24T09:39:25.999Z</time></trkpt><trkpt lat="41.995142578527755" lon="13.248383263676057"><ele>1318.0</ele><time>2026-04-24T09:39:26.999Z</time></trkpt><trkpt lat="41.995088876201784" lon="13.248490227770906"><ele>1318.0</ele><time>2026-04-24T09:39:27.999Z</time></trkpt><trkpt lat="41.99503684159726" lon="13.248595805726382"><ele>1318.0</ele><time>2026-04-24T09:39:28.999Z</time></trkpt><trkpt lat="41.99498408525896" lon="13.248702849338864"><ele>1320.1666666666665</ele><time>2026-04-24T09:39:29.999Z</time></trkpt><trkpt lat="41.99494101222936" lon="13.24878090608465"><ele>1322.3333333333333</ele><time>2026-04-24T09:39:30.999Z</time></trkpt><trkpt lat="41.994889861869645" lon="13.248867315160425"><ele>1324.5</ele><time>2026-04-24T09:39:31.999Z</time></trkpt><trkpt lat="41.99483345567952" lon="13.248961266110523"><ele>1326.6666666666667</ele><time>2026-04-24T09:39:32.999Z</time></trkpt><trkpt lat="41.99477882193037" lon="13.249052264223765"><ele>1328.8333333333335</ele><time>2026-04-24T09:39:33.999Z</time></trkpt><trkpt lat="41.99471881639273" lon="13.24915804062857"><ele>1331.0</ele><time>2026-04-24T09:39:34.999Z</time></trkpt><trkpt lat="41.994672274807186" lon="13.249257344703539"><ele>1331.0</ele><time>2026-04-24T09:39:35.999Z</time></trkpt><trkpt lat="41.9946317877224" lon="13.249355601837328"><ele>1331.0</ele><time>2026-04-24T09:39:36.999Z</time></trkpt><trkpt lat="41.99460044938187" lon="13.249455630867597"><ele>1331.0</ele><time>2026-04-24T09:39:37.999Z</time></trkpt><trkpt lat="41.994585041543914" lon="13.249578655511156"><ele>1331.0</ele><time>2026-04-24T09:39:38.999Z</time></trkpt><trkpt lat="41.99458684780113" lon="13.249677620075515"><ele>1331.0</ele><time>2026-04-24T09:39:39.999Z</time></trkpt><trkpt lat="41.99462522503885" lon="13.249790635787296"><ele>1331.0</ele><time>2026-04-24T09:39:40.999Z</time></trkpt><trkpt lat="41.994674919276896" lon="13.249869865224525"><ele>1329.5</ele><time>2026-04-24T09:39:41.999Z</time></trkpt><trkpt lat="41.994707044229955" lon="13.249946641616958"><ele>1328.0</ele><time>2026-04-24T09:39:42.998Z</time></trkpt><trkpt lat="41.99475031151548" lon="13.250049652607064"><ele>1326.5</ele><time>2026-04-24T09:39:43.998Z</time></trkpt><trkpt lat="41.99478828428651" lon="13.250131968170722"><ele>1325.0</ele><time>2026-04-24T09:39:44.998Z</time></trkpt><trkpt lat="41.99475340092329" lon="13.25027442770818"><ele>1323.5</ele><time>2026-04-24T09:39:46.998Z</time></trkpt><trkpt lat="41.994711208530326" lon="13.250358925942887"><ele>1322.0</ele><time>2026-04-24T09:39:47.998Z</time></trkpt><trkpt lat="41.99466723439094" lon="13.250456717309005"><ele>1322.0</ele><time>2026-04-24T09:39:48.998Z</time></trkpt><trkpt lat="41.994634227839775" lon="13.250548904170778"><ele>1322.0</ele><time>2026-04-24T09:39:49.998Z</time></trkpt><trkpt lat="41.994579383936134" lon="13.250635530673197"><ele>1322.0</ele><time>2026-04-24T09:39:51.998Z</time></trkpt><trkpt lat="41.994492425374034" lon="13.250801986129016"><ele>1322.0</ele><time>2026-04-24T09:39:53Z</time></trkpt><trkpt lat="41.994437449961765" lon="13.250908958341121"><ele>1322.0</ele><time>2026-04-24T09:39:54Z</time></trkpt><trkpt lat="41.994409766057885" lon="13.25103904261548"><ele>1322.0</ele><time>2026-04-24T09:39:55Z</time></trkpt><trkpt lat="41.99440599704811" lon="13.251160386764791"><ele>1322.0</ele><time>2026-04-24T09:39:56Z</time></trkpt><trkpt lat="41.99447284296537" lon="13.251278906020156"><ele>1322.0</ele><time>2026-04-24T09:39:57Z</time></trkpt><trkpt lat="41.994502371852256" lon="13.25135962854823"><ele>1322.0</ele><time>2026-04-24T09:39:58Z</time></trkpt><trkpt lat="41.99456525760963" lon="13.251419720373638"><ele>1322.0</ele><time>2026-04-24T09:39:59Z</time></trkpt><trkpt lat="41.99463170094634" lon="13.251460990088301"><ele>1322.0</ele><time>2026-04-24T09:40:00Z</time></trkpt><trkpt lat="41.99469706946161" lon="13.251506332278337"><ele>1321.857142857143</ele><time>2026-04-24T09:40:01Z</time></trkpt><trkpt lat="41.99476772282717" lon="13.251617622289029"><ele>1321.7142857142858</ele><time>2026-04-24T09:40:03Z</time></trkpt><trkpt lat="41.9947476136244" lon="13.25170252779093"><ele>1321.5714285714284</ele><time>2026-04-24T09:40:04Z</time></trkpt><trkpt lat="41.99471046235097" lon="13.251771863624796"><ele>1321.4285714285716</ele><time>2026-04-24T09:40:05Z</time></trkpt><trkpt lat="41.99467385081017" lon="13.251841860126632"><ele>1321.2857142857144</ele><time>2026-04-24T09:40:06Z</time></trkpt><trkpt lat="41.99463690318378" lon="13.251912058307367"><ele>1321.142857142857</ele><time>2026-04-24T09:40:07Z</time></trkpt><trkpt lat="41.994586066385935" lon="13.251979346002926"><ele>1321.0</ele><time>2026-04-24T09:40:08Z</time></trkpt><trkpt lat="41.994512308010925" lon="13.25204042084634"><ele>1321.0</ele><time>2026-04-24T09:40:09Z</time></trkpt><trkpt lat="41.99445275507591" lon="13.252107381329244"><ele>1321.0</ele><time>2026-04-24T09:40:10Z</time></trkpt><trkpt lat="41.99439621085622" lon="13.252167851185625"><ele>1321.0</ele><time>2026-04-24T09:40:11Z</time></trkpt><trkpt lat="41.99433585148171" lon="13.25223686307643"><ele>1321.0</ele><time>2026-04-24T09:40:11.999Z</time></trkpt><trkpt lat="41.99428027955149" lon="13.252311836753956"><ele>1321.0</ele><time>2026-04-24T09:40:12.999Z</time></trkpt><trkpt lat="41.99424256937634" lon="13.252408083884736"><ele>1321.0</ele><time>2026-04-24T09:40:13.999Z</time></trkpt><trkpt lat="41.99423790102891" lon="13.252527424089763"><ele>1321.1999999999998</ele><time>2026-04-24T09:40:14.999Z</time></trkpt><trkpt lat="41.99424276359389" lon="13.25263942900306"><ele>1321.3999999999999</ele><time>2026-04-24T09:40:15.999Z</time></trkpt><trkpt lat="41.99426208150933" lon="13.252776040946024"><ele>1321.6</ele><time>2026-04-24T09:40:16.999Z</time></trkpt><trkpt lat="41.99427793123048" lon="13.252877937205417"><ele>1321.8</ele><time>2026-04-24T09:40:17.999Z</time></trkpt><trkpt lat="41.99428376098728" lon="13.252969294386855"><ele>1322.0</ele><time>2026-04-24T09:40:18.999Z</time></trkpt><trkpt lat="41.994247383485956" lon="13.253130726594856"><ele>1322.0</ele><time>2026-04-24T09:40:20.999Z</time></trkpt><trkpt lat="41.99424223356713" lon="13.25322882593724"><ele>1322.0</ele><time>2026-04-24T09:40:21.999Z</time></trkpt><trkpt lat="41.99425241472459" lon="13.253317280523127"><ele>1322.0</ele><time>2026-04-24T09:40:22.999Z</time></trkpt><trkpt lat="41.99430532112899" lon="13.253394560960208"><ele>1322.0</ele><time>2026-04-24T09:40:23.999Z</time></trkpt><trkpt lat="41.99433654196943" lon="13.253474310431823"><ele>1322.0</ele><time>2026-04-24T09:40:24.999Z</time></trkpt><trkpt lat="41.99438068231633" lon="13.253547021115434"><ele>1322.0</ele><time>2026-04-24T09:40:25.999Z</time></trkpt><trkpt lat="41.99443762814883" lon="13.253597717100423"><ele>1322.0</ele><time>2026-04-24T09:40:26.999Z</time></trkpt><trkpt lat="41.994544597679024" lon="13.25363892447948"><ele>1322.0</ele><time>2026-04-24T09:40:28.999Z</time></trkpt><trkpt lat="41.994661698441085" lon="13.25361086143465"><ele>1322.0</ele><time>2026-04-24T09:40:30.999Z</time></trkpt><trkpt lat="41.994733347919066" lon="13.253599340586783"><ele>1322.0</ele><time>2026-04-24T09:40:31.999Z</time></trkpt><trkpt lat="41.99480512562827" lon="13.253621448754041"><ele>1322.0</ele><time>2026-04-24T09:40:32.999Z</time></trkpt><trkpt lat="41.99487954544626" lon="13.25366324517444"><ele>1322.0</ele><time>2026-04-24T09:40:33.999Z</time></trkpt><trkpt lat="41.994952642018234" lon="13.253689781000134"><ele>1322.0</ele><time>2026-04-24T09:40:34.999Z</time></trkpt><trkpt lat="41.99502636165971" lon="13.253714540990813"><ele>1320.8333333333335</ele><time>2026-04-24T09:40:35.999Z</time></trkpt><trkpt lat="41.99509820077884" lon="13.253735637024873"><ele>1319.6666666666667</ele><time>2026-04-24T09:40:36.999Z</time></trkpt><trkpt lat="41.995159838706705" lon="13.253783988617045"><ele>1318.5</ele><time>2026-04-24T09:40:37.999Z</time></trkpt><trkpt lat="41.99527001702782" lon="13.253823093474727"><ele>1317.3333333333333</ele><time>2026-04-24T09:40:39.999Z</time></trkpt><trkpt lat="41.99534142394858" lon="13.253953932452767"><ele>1316.1666666666665</ele><time>2026-04-24T09:40:41.999Z</time></trkpt><trkpt lat="41.99533435652089" lon="13.254039527766704"><ele>1315.0</ele><time>2026-04-24T09:40:42.999Z</time></trkpt><trkpt lat="41.99533356397299" lon="13.254132104307697"><ele>1315.0</ele><time>2026-04-24T09:40:43.999Z</time></trkpt><trkpt lat="41.99534121137301" lon="13.254226930876086"><ele>1315.0</ele><time>2026-04-24T09:40:44.999Z</time></trkpt><trkpt lat="41.99529818722315" lon="13.254360619713658"><ele>1315.0</ele><time>2026-04-24T09:40:46.999Z</time></trkpt><trkpt lat="41.99521226006952" lon="13.25442426366984"><ele>1315.0</ele><time>2026-04-24T09:40:48.999Z</time></trkpt><trkpt lat="41.99517465360497" lon="13.254575780924021"><ele>1315.0</ele><time>2026-04-24T09:40:50.999Z</time></trkpt><trkpt lat="41.9951874075092" lon="13.254658914318597"><ele>1315.0</ele><time>2026-04-24T09:40:51.999Z</time></trkpt><trkpt lat="41.995223654906624" lon="13.254737896401004"><ele>1315.0</ele><time>2026-04-24T09:40:52.999Z</time></trkpt><trkpt lat="41.995310742499846" lon="13.254860398532232"><ele>1315.0</ele><time>2026-04-24T09:40:54.999Z</time></trkpt><trkpt lat="41.995388838934794" lon="13.254957658901107"><ele>1315.0</ele><time>2026-04-24T09:40:56.999Z</time></trkpt><trkpt lat="41.99546967329963" lon="13.25502686004368"><ele>1315.0</ele><time>2026-04-24T09:40:58.999Z</time></trkpt><trkpt lat="41.99557209269743" lon="13.255077443114628"><ele>1315.8333333333333</ele><time>2026-04-24T09:41:00.999Z</time></trkpt><trkpt lat="41.99565041686356" lon="13.255103394800097"><ele>1316.6666666666665</ele><time>2026-04-24T09:41:01.999Z</time></trkpt><trkpt lat="41.9957165852869" lon="13.255093416240513"><ele>1317.5</ele><time>2026-04-24T09:41:02.999Z</time></trkpt><trkpt lat="41.99577635240904" lon="13.255062753109017"><ele>1318.3333333333333</ele><time>2026-04-24T09:41:03.999Z</time></trkpt><trkpt lat="41.99583368249957" lon="13.25502391095492"><ele>1319.1666666666667</ele><time>2026-04-24T09:41:04.999Z</time></trkpt><trkpt lat="41.99596122383058" lon="13.254977895068203"><ele>1320.0</ele><time>2026-04-24T09:41:06.999Z</time></trkpt><trkpt lat="41.99603662129753" lon="13.254973486502744"><ele>1318.1666666666667</ele><time>2026-04-24T09:41:07.999Z</time></trkpt><trkpt lat="41.99611079182787" lon="13.254978190128112"><ele>1316.3333333333333</ele><time>2026-04-24T09:41:08.999Z</time></trkpt><trkpt lat="41.99624608265877" lon="13.255018811787892"><ele>1314.5</ele><time>2026-04-24T09:41:10.999Z</time></trkpt><trkpt lat="41.99630767037342" lon="13.255042904516344"><ele>1312.6666666666665</ele><time>2026-04-24T09:41:11.999Z</time></trkpt><trkpt lat="41.99637895901598" lon="13.255082626764747"><ele>1310.8333333333333</ele><time>2026-04-24T09:41:12.999Z</time></trkpt><trkpt lat="41.996450384826964" lon="13.25512986032736"><ele>1309.0</ele><time>2026-04-24T09:41:13.999Z</time></trkpt><trkpt lat="41.99652051508451" lon="13.255174707932625"><ele>1309.0</ele><time>2026-04-24T09:41:14.999Z</time></trkpt><trkpt lat="41.99658065127515" lon="13.255212733963713"><ele>1309.0</ele><time>2026-04-24T09:41:16Z</time></trkpt><trkpt lat="41.996642494325854" lon="13.25523464682718"><ele>1309.0</ele><time>2026-04-24T09:41:17Z</time></trkpt><trkpt lat="41.9967602094358" lon="13.255250316459788"><ele>1309.0</ele><time>2026-04-24T09:41:19Z</time></trkpt><trkpt lat="41.99685975569925" lon="13.255276535519162"><ele>1309.0</ele><time>2026-04-24T09:41:21Z</time></trkpt><trkpt lat="41.99696985911236" lon="13.255350257653639"><ele>1309.0</ele><time>2026-04-24T09:41:23Z</time></trkpt><trkpt lat="41.99702098445112" lon="13.255401420492673"><ele>1309.0</ele><time>2026-04-24T09:41:24Z</time></trkpt><trkpt lat="41.997098134022536" lon="13.255535489591242"><ele>1309.0</ele><time>2026-04-24T09:41:26Z</time></trkpt><trkpt lat="41.997092852292646" lon="13.255708778227614"><ele>1309.0</ele><time>2026-04-24T09:41:28Z</time></trkpt><trkpt lat="41.99707659035288" lon="13.255801077785874"><ele>1309.0</ele><time>2026-04-24T09:41:29Z</time></trkpt><trkpt lat="41.99703873283881" lon="13.255880044104355"><ele>1309.0</ele><time>2026-04-24T09:41:30Z</time></trkpt><trkpt lat="41.996987183186754" lon="13.255971553600041"><ele>1309.0</ele><time>2026-04-24T09:41:31Z</time></trkpt><trkpt lat="41.996914002944294" lon="13.256095402191686"><ele>1309.0</ele><time>2026-04-24T09:41:32Z</time></trkpt><trkpt lat="41.99684666505843" lon="13.256207724307945"><ele>1309.0</ele><time>2026-04-24T09:41:33Z</time></trkpt><trkpt lat="41.99678839635203" lon="13.256304445589297"><ele>1309.0</ele><time>2026-04-24T09:41:34Z</time></trkpt><trkpt lat="41.99673270883016" lon="13.256400992852441"><ele>1309.6</ele><time>2026-04-24T09:41:35Z</time></trkpt><trkpt lat="41.996670613809556" lon="13.256515083194596"><ele>1310.2</ele><time>2026-04-24T09:41:36Z</time></trkpt><trkpt lat="41.996613239322016" lon="13.256639396011234"><ele>1310.8</ele><time>2026-04-24T09:41:37Z</time></trkpt><trkpt lat="41.99656636447931" lon="13.256770567803484"><ele>1311.3999999999999</ele><time>2026-04-24T09:41:38Z</time></trkpt><trkpt lat="41.99651633099347" lon="13.256911309679074"><ele>1312.0</ele><time>2026-04-24T09:41:39Z</time></trkpt><trkpt lat="41.996462465159865" lon="13.257037218892629"><ele>1312.0</ele><time>2026-04-24T09:41:40Z</time></trkpt><trkpt lat="41.996405491886286" lon="13.257148745280942"><ele>1312.0</ele><time>2026-04-24T09:41:41Z</time></trkpt><trkpt lat="41.99633881656948" lon="13.257262010226071"><ele>1312.0</ele><time>2026-04-24T09:41:42Z</time></trkpt><trkpt lat="41.99626844091954" lon="13.257354253282667"><ele>1312.0</ele><time>2026-04-24T09:41:42.999Z</time></trkpt><trkpt lat="41.9961929664442" lon="13.257428018822765"><ele>1312.0</ele><time>2026-04-24T09:41:43.999Z</time></trkpt><trkpt lat="41.99610764007641" lon="13.25749335739306"><ele>1311.6666666666665</ele><time>2026-04-24T09:41:44.999Z</time></trkpt><trkpt lat="41.996051080652805" lon="13.257557110521788"><ele>1311.3333333333333</ele><time>2026-04-24T09:41:45.999Z</time></trkpt><trkpt lat="41.99600379649869" lon="13.257626365501228"><ele>1311.0</ele><time>2026-04-24T09:41:46.999Z</time></trkpt><trkpt lat="41.99597254604903" lon="13.257719251496292"><ele>1310.6666666666667</ele><time>2026-04-24T09:41:47.999Z</time></trkpt><trkpt lat="41.99598780538451" lon="13.257848652677403"><ele>1310.3333333333335</ele><time>2026-04-24T09:41:48.999Z</time></trkpt><trkpt lat="41.995973411562666" lon="13.257954829993393"><ele>1310.0</ele><time>2026-04-24T09:41:49.999Z</time></trkpt><trkpt lat="41.99591915765138" lon="13.258028318091437"><ele>1310.0</ele><time>2026-04-24T09:41:50.999Z</time></trkpt><trkpt lat="41.99585672743209" lon="13.258113917607186"><ele>1310.0</ele><time>2026-04-24T09:41:51.999Z</time></trkpt><trkpt lat="41.9957959740905" lon="13.258206939272556"><ele>1310.0</ele><time>2026-04-24T09:41:52.999Z</time></trkpt><trkpt lat="41.995725054677465" lon="13.258291659294434"><ele>1310.0</ele><time>2026-04-24T09:41:53.999Z</time></trkpt><trkpt lat="41.99564703551115" lon="13.258351810531886"><ele>1310.0</ele><time>2026-04-24T09:41:54.999Z</time></trkpt><trkpt lat="41.99557293196057" lon="13.258413240652699"><ele>1311.8333333333335</ele><time>2026-04-24T09:41:55.999Z</time></trkpt><trkpt lat="41.995516215002205" lon="13.258471654230021"><ele>1313.6666666666667</ele><time>2026-04-24T09:41:56.999Z</time></trkpt><trkpt lat="41.99546646284906" lon="13.258545600207231"><ele>1315.5</ele><time>2026-04-24T09:41:57.999Z</time></trkpt><trkpt lat="41.99542124275628" lon="13.258672078115266"><ele>1317.3333333333333</ele><time>2026-04-24T09:41:59Z</time></trkpt><trkpt lat="41.995399957707214" lon="13.25879365635467"><ele>1319.1666666666665</ele><time>2026-04-24T09:42:00Z</time></trkpt><trkpt lat="41.99535643693866" lon="13.258909290169207"><ele>1321.0</ele><time>2026-04-24T09:42:01Z</time></trkpt><trkpt lat="41.99530017655167" lon="13.259014194932579"><ele>1322.0</ele><time>2026-04-24T09:42:02Z</time></trkpt><trkpt lat="41.995239546524395" lon="13.259100801162464"><ele>1323.0</ele><time>2026-04-24T09:42:03Z</time></trkpt><trkpt lat="41.995190391324634" lon="13.259205509152476"><ele>1324.0</ele><time>2026-04-24T09:42:04Z</time></trkpt><trkpt lat="41.995150703311445" lon="13.2593109649365"><ele>1325.0</ele><time>2026-04-24T09:42:05Z</time></trkpt><trkpt lat="41.99511153470858" lon="13.259411790908237"><ele>1326.0</ele><time>2026-04-24T09:42:06Z</time></trkpt><trkpt lat="41.99506949216142" lon="13.259512490678425"><ele>1327.0</ele><time>2026-04-24T09:42:07Z</time></trkpt><trkpt lat="41.995024491739464" lon="13.259620274990267"><ele>1327.0</ele><time>2026-04-24T09:42:08Z</time></trkpt><trkpt lat="41.99498557773889" lon="13.25971684120722"><ele>1327.0</ele><time>2026-04-24T09:42:09Z</time></trkpt><trkpt lat="41.994944284825024" lon="13.259817642757016"><ele>1327.0</ele><time>2026-04-24T09:42:10Z</time></trkpt><trkpt lat="41.99489843997542" lon="13.25991090075331"><ele>1327.0</ele><time>2026-04-24T09:42:11Z</time></trkpt><trkpt lat="41.99484349553863" lon="13.259972386841975"><ele>1327.0</ele><time>2026-04-24T09:42:12Z</time></trkpt><trkpt lat="41.9947872562545" lon="13.260018746827926"><ele>1327.0</ele><time>2026-04-24T09:42:13Z</time></trkpt><trkpt lat="41.99471147323573" lon="13.260019134154064"><ele>1327.6666666666665</ele><time>2026-04-24T09:42:14Z</time></trkpt><trkpt lat="41.994624984441266" lon="13.260025118561853"><ele>1328.3333333333333</ele><time>2026-04-24T09:42:15Z</time></trkpt><trkpt lat="41.994540052557504" lon="13.26003520260851"><ele>1329.0</ele><time>2026-04-24T09:42:16Z</time></trkpt><trkpt lat="41.99447523140752" lon="13.26004366018614"><ele>1329.6666666666667</ele><time>2026-04-24T09:42:17Z</time></trkpt><trkpt lat="41.994409064637246" lon="13.260095699324497"><ele>1330.3333333333335</ele><time>2026-04-24T09:42:18Z</time></trkpt><trkpt lat="41.994359846486425" lon="13.260165383500636"><ele>1331.0</ele><time>2026-04-24T09:42:19Z</time></trkpt><trkpt lat="41.994332650261306" lon="13.260267337331538"><ele>1331.0</ele><time>2026-04-24T09:42:20Z</time></trkpt><trkpt lat="41.9943711733228" lon="13.260392737448724"><ele>1331.0</ele><time>2026-04-24T09:42:21Z</time></trkpt><trkpt lat="41.994354278989206" lon="13.26050503268969"><ele>1331.0</ele><time>2026-04-24T09:42:22Z</time></trkpt><trkpt lat="41.994343538759374" lon="13.260591807013881"><ele>1331.0</ele><time>2026-04-24T09:42:23Z</time></trkpt><trkpt lat="41.99431830963854" lon="13.260673766181515"><ele>1331.0</ele><time>2026-04-24T09:42:24Z</time></trkpt><trkpt lat="41.994278895030554" lon="13.26075030150881"><ele>1331.0</ele><time>2026-04-24T09:42:25Z</time></trkpt><trkpt lat="41.99424063596319" lon="13.260834703572092"><ele>1330.142857142857</ele><time>2026-04-24T09:42:26Z</time></trkpt><trkpt lat="41.99419462814276" lon="13.260923863294396"><ele>1329.2857142857142</ele><time>2026-04-24T09:42:27Z</time></trkpt><trkpt lat="41.99415078857021" lon="13.26099886673821"><ele>1328.4285714285716</ele><time>2026-04-24T09:42:28Z</time></trkpt><trkpt lat="41.994099766313234" lon="13.261082016435456"><ele>1327.5714285714284</ele><time>2026-04-24T09:42:29Z</time></trkpt><trkpt lat="41.994049858350664" lon="13.261148031386906"><ele>1326.7142857142856</ele><time>2026-04-24T09:42:30Z</time></trkpt><trkpt lat="41.99399448244608" lon="13.261195122998066"><ele>1325.857142857143</ele><time>2026-04-24T09:42:31Z</time></trkpt><trkpt lat="41.993929723590036" lon="13.261240122884175"><ele>1325.0</ele><time>2026-04-24T09:42:32Z</time></trkpt><trkpt lat="41.99380457011155" lon="13.261242930108915"><ele>1325.0</ele><time>2026-04-24T09:42:34Z</time></trkpt><trkpt lat="41.99374214563359" lon="13.26122116091631"><ele>1325.0</ele><time>2026-04-24T09:42:35Z</time></trkpt><trkpt lat="41.99367577431483" lon="13.261189688064947"><ele>1325.0</ele><time>2026-04-24T09:42:36Z</time></trkpt><trkpt lat="41.99362380066159" lon="13.26113563432431"><ele>1325.0</ele><time>2026-04-24T09:42:37Z</time></trkpt><trkpt lat="41.993568067534405" lon="13.261076282315916"><ele>1325.0</ele><time>2026-04-24T09:42:38Z</time></trkpt><trkpt lat="41.99351408648565" lon="13.261024205775657"><ele>1325.0</ele><time>2026-04-24T09:42:39Z</time></trkpt><trkpt lat="41.99344718984993" lon="13.260968456844328"><ele>1325.0</ele><time>2026-04-24T09:42:40Z</time></trkpt><trkpt lat="41.99337218890228" lon="13.260940489494706"><ele>1327.0</ele><time>2026-04-24T09:42:41Z</time></trkpt><trkpt lat="41.99328962397601" lon="13.260929883072096"><ele>1329.0</ele><time>2026-04-24T09:42:42Z</time></trkpt><trkpt lat="41.99320266034889" lon="13.26094405252121"><ele>1331.0</ele><time>2026-04-24T09:42:43Z</time></trkpt><trkpt lat="41.99310986193508" lon="13.260974236055779"><ele>1333.0</ele><time>2026-04-24T09:42:44Z</time></trkpt><trkpt lat="41.99302049128162" lon="13.260994780082106"><ele>1335.0</ele><time>2026-04-24T09:42:45Z</time></trkpt><trkpt lat="41.99292442839229" lon="13.261014043959142"><ele>1335.0</ele><time>2026-04-24T09:42:46Z</time></trkpt><trkpt lat="41.9928156663899" lon="13.261045185575288"><ele>1335.0</ele><time>2026-04-24T09:42:47Z</time></trkpt><trkpt lat="41.992700712792555" lon="13.261086541358203"><ele>1335.0</ele><time>2026-04-24T09:42:48Z</time></trkpt><trkpt lat="41.992583884099425" lon="13.261093594473964"><ele>1335.0</ele><time>2026-04-24T09:42:49Z</time></trkpt><trkpt lat="41.992486295180996" lon="13.261126180218392"><ele>1335.0</ele><time>2026-04-24T09:42:50Z</time></trkpt><trkpt lat="41.99240038556122" lon="13.261174636274335"><ele>1336.0</ele><time>2026-04-24T09:42:51Z</time></trkpt><trkpt lat="41.99232230119569" lon="13.261288080945793"><ele>1337.0</ele><time>2026-04-24T09:42:52Z</time></trkpt><trkpt lat="41.99229210720495" lon="13.261397813816604"><ele>1338.0</ele><time>2026-04-24T09:42:53Z</time></trkpt><trkpt lat="41.99222917094975" lon="13.261501953659444"><ele>1339.0</ele><time>2026-04-24T09:42:55Z</time></trkpt><trkpt lat="41.992162431743246" lon="13.261566674297969"><ele>1340.0</ele><time>2026-04-24T09:42:56Z</time></trkpt><trkpt lat="41.99208206125695" lon="13.261593205158722"><ele>1340.0</ele><time>2026-04-24T09:42:57Z</time></trkpt><trkpt lat="41.991985586407445" lon="13.261641656836778"><ele>1340.0</ele><time>2026-04-24T09:42:58Z</time></trkpt><trkpt lat="41.99188133722439" lon="13.261688668752818"><ele>1340.0</ele><time>2026-04-24T09:42:59Z</time></trkpt><trkpt lat="41.99177779138949" lon="13.261735891121063"><ele>1340.0</ele><time>2026-04-24T09:43:00Z</time></trkpt><trkpt lat="41.99167582257128" lon="13.261786326317653"><ele>1340.0</ele><time>2026-04-24T09:43:01Z</time></trkpt><trkpt lat="41.991588001007614" lon="13.261830690858131"><ele>1345.2</ele><time>2026-04-24T09:43:02Z</time></trkpt><trkpt lat="41.99149653140881" lon="13.26187730634452"><ele>1350.4</ele><time>2026-04-24T09:43:03Z</time></trkpt><trkpt lat="41.991412620787614" lon="13.261930268331827"><ele>1355.6</ele><time>2026-04-24T09:43:04Z</time></trkpt><trkpt lat="41.99130699349882" lon="13.262014859615432"><ele>1360.8</ele><time>2026-04-24T09:43:05Z</time></trkpt><trkpt lat="41.99122129195703" lon="13.262105808310782"><ele>1366.0</ele><time>2026-04-24T09:43:06Z</time></trkpt><trkpt lat="41.99115106189913" lon="13.26217757030256"><ele>1366.0</ele><time>2026-04-24T09:43:07Z</time></trkpt><trkpt lat="41.99108759865271" lon="13.262224474501895"><ele>1366.0</ele><time>2026-04-24T09:43:08Z</time></trkpt><trkpt lat="41.99098738566032" lon="13.26226552590294"><ele>1366.0</ele><time>2026-04-24T09:43:09Z</time></trkpt><trkpt lat="41.99088997861375" lon="13.262326250962595"><ele>1366.0</ele><time>2026-04-24T09:43:10Z</time></trkpt><trkpt lat="41.990827637034776" lon="13.262423013685915"><ele>1366.0</ele><time>2026-04-24T09:43:11Z</time></trkpt><trkpt lat="41.99075954270015" lon="13.26247295520987"><ele>1364.1999999999998</ele><time>2026-04-24T09:43:12Z</time></trkpt><trkpt lat="41.990650927191204" lon="13.262532824362857"><ele>1362.3999999999999</ele><time>2026-04-24T09:43:14Z</time></trkpt><trkpt lat="41.990550657589004" lon="13.2625333547927"><ele>1360.6</ele><time>2026-04-24T09:43:15Z</time></trkpt><trkpt lat="41.99044944392708" lon="13.262534736853762"><ele>1358.8</ele><time>2026-04-24T09:43:16Z</time></trkpt><trkpt lat="41.99034853286628" lon="13.262556317302433"><ele>1357.0</ele><time>2026-04-24T09:43:17Z</time></trkpt><trkpt lat="41.99025893806712" lon="13.262627159051124"><ele>1357.0</ele><time>2026-04-24T09:43:18Z</time></trkpt><trkpt lat="41.990167199470974" lon="13.262666513878909"><ele>1357.0</ele><time>2026-04-24T09:43:19Z</time></trkpt><trkpt lat="41.99010361847277" lon="13.2627012717119"><ele>1357.0</ele><time>2026-04-24T09:43:20Z</time></trkpt><trkpt lat="41.990018567900094" lon="13.262707763864329"><ele>1357.0</ele><time>2026-04-24T09:43:21Z</time></trkpt><trkpt lat="41.98993517290221" lon="13.262716274973418"><ele>1357.0</ele><time>2026-04-24T09:43:22Z</time></trkpt><trkpt lat="41.989853108290596" lon="13.262742788481685"><ele>1357.0</ele><time>2026-04-24T09:43:23Z</time></trkpt><trkpt lat="41.98978614747751" lon="13.262800838392668"><ele>1356.8333333333333</ele><time>2026-04-24T09:43:24Z</time></trkpt><trkpt lat="41.98971058310112" lon="13.26287441947266"><ele>1356.6666666666665</ele><time>2026-04-24T09:43:25Z</time></trkpt><trkpt lat="41.989646378870376" lon="13.26296883919379"><ele>1356.5</ele><time>2026-04-24T09:43:26Z</time></trkpt><trkpt lat="41.98959641909778" lon="13.263054785834319"><ele>1356.3333333333333</ele><time>2026-04-24T09:43:27Z</time></trkpt><trkpt lat="41.98954855518551" lon="13.263155068616411"><ele>1356.1666666666667</ele><time>2026-04-24T09:43:28Z</time></trkpt><trkpt lat="41.989506344942335" lon="13.263259255103122"><ele>1356.0</ele><time>2026-04-24T09:43:29Z</time></trkpt><trkpt lat="41.98947013440496" lon="13.26334568515344"><ele>1356.0</ele><time>2026-04-24T09:43:30Z</time></trkpt><trkpt lat="41.9894144290845" lon="13.263442642576805"><ele>1356.0</ele><time>2026-04-24T09:43:31Z</time></trkpt><trkpt lat="41.9893342088402" lon="13.263511284506485"><ele>1356.0</ele><time>2026-04-24T09:43:32Z</time></trkpt><trkpt lat="41.98926154061832" lon="13.26359484503883"><ele>1356.0</ele><time>2026-04-24T09:43:33Z</time></trkpt><trkpt lat="41.98921170767675" lon="13.263704132883015"><ele>1356.0</ele><time>2026-04-24T09:43:34Z</time></trkpt><trkpt lat="41.98916734061604" lon="13.263823990428625"><ele>1358.6</ele><time>2026-04-24T09:43:35Z</time></trkpt><trkpt lat="41.98912370040497" lon="13.263951835216117"><ele>1361.1999999999998</ele><time>2026-04-24T09:43:36Z</time></trkpt><trkpt lat="41.98908332455704" lon="13.264085349906793"><ele>1363.8000000000002</ele><time>2026-04-24T09:43:37Z</time></trkpt><trkpt lat="41.98905644057887" lon="13.264190932845478"><ele>1366.4</ele><time>2026-04-24T09:43:37.999Z</time></trkpt><trkpt lat="41.988993003595304" lon="13.26429982404438"><ele>1369.0</ele><time>2026-04-24T09:43:39.999Z</time></trkpt><trkpt lat="41.98885830726742" lon="13.264380353671772"><ele>1369.0</ele><time>2026-04-24T09:43:41.999Z</time></trkpt><trkpt lat="41.98876506632394" lon="13.264455545746864"><ele>1369.0</ele><time>2026-04-24T09:43:42.999Z</time></trkpt><trkpt lat="41.98866243128267" lon="13.26457666311439"><ele>1369.0</ele><time>2026-04-24T09:43:43.999Z</time></trkpt><trkpt lat="41.98856801378571" lon="13.264714729109087"><ele>1369.0</ele><time>2026-04-24T09:43:44.999Z</time></trkpt><trkpt lat="41.98847318410834" lon="13.26484307528308"><ele>1368.5</ele><time>2026-04-24T09:43:45.999Z</time></trkpt><trkpt lat="41.98837565959288" lon="13.264976839056356"><ele>1368.0</ele><time>2026-04-24T09:43:46.999Z</time></trkpt><trkpt lat="41.98827831048386" lon="13.265126600472158"><ele>1367.5</ele><time>2026-04-24T09:43:47.999Z</time></trkpt><trkpt lat="41.98820918277365" lon="13.265257025713645"><ele>1367.0</ele><time>2026-04-24T09:43:48.999Z</time></trkpt><trkpt lat="41.98814883462255" lon="13.265355154856316"><ele>1368.1999999999998</ele><time>2026-04-24T09:43:49.999Z</time></trkpt><trkpt lat="41.988092053530096" lon="13.265429913025429"><ele>1369.4</ele><time>2026-04-24T09:43:50.999Z</time></trkpt><trkpt lat="41.98802218607368" lon="13.26551570627414"><ele>1370.6</ele><time>2026-04-24T09:43:51.999Z</time></trkpt><trkpt lat="41.98794848139017" lon="13.265618003535916"><ele>1371.8000000000002</ele><time>2026-04-24T09:43:52.999Z</time></trkpt><trkpt lat="41.98789022844508" lon="13.265751208129767"><ele>1373.0</ele><time>2026-04-24T09:43:53.999Z</time></trkpt><trkpt lat="41.98786305572061" lon="13.265890554697386"><ele>1373.0</ele><time>2026-04-24T09:43:54.999Z</time></trkpt><trkpt lat="41.98784095993481" lon="13.266008541357204"><ele>1373.0</ele><time>2026-04-24T09:43:55.999Z</time></trkpt><trkpt lat="41.98783894560518" lon="13.266123604132916"><ele>1373.0</ele><time>2026-04-24T09:43:56.999Z</time></trkpt><trkpt lat="41.98782062056553" lon="13.266240155816991"><ele>1373.0</ele><time>2026-04-24T09:43:57.999Z</time></trkpt><trkpt lat="41.987787598689835" lon="13.266375914744634"><ele>1373.0</ele><time>2026-04-24T09:43:58.999Z</time></trkpt><trkpt lat="41.98776865698751" lon="13.266529645255142"><ele>1372.5</ele><time>2026-04-24T09:43:59.999Z</time></trkpt><trkpt lat="41.987750560102654" lon="13.266691520548306"><ele>1372.0</ele><time>2026-04-24T09:44:00.999Z</time></trkpt><trkpt lat="41.98773496772286" lon="13.266858697140155"><ele>1371.5</ele><time>2026-04-24T09:44:01.999Z</time></trkpt><trkpt lat="41.98771923538089" lon="13.267021550167017"><ele>1371.0</ele><time>2026-04-24T09:44:02.999Z</time></trkpt><trkpt lat="41.987700422515815" lon="13.267178236164996"><ele>1371.75</ele><time>2026-04-24T09:44:03.999Z</time></trkpt><trkpt lat="41.987684937833926" lon="13.267337888431813"><ele>1372.5</ele><time>2026-04-24T09:44:05Z</time></trkpt><trkpt lat="41.98766260716501" lon="13.267508482122953"><ele>1373.25</ele><time>2026-04-24T09:44:06Z</time></trkpt><trkpt lat="41.98763097590476" lon="13.267723408828987"><ele>1374.0</ele><time>2026-04-24T09:44:07Z</time></trkpt><trkpt lat="41.98761155773252" lon="13.267928017889993"><ele>1374.0</ele><time>2026-04-24T09:44:08Z</time></trkpt><trkpt lat="41.98758906771585" lon="13.268070856128135"><ele>1374.0</ele><time>2026-04-24T09:44:09Z</time></trkpt><trkpt lat="41.98757632120626" lon="13.268207621039467"><ele>1374.0</ele><time>2026-04-24T09:44:10Z</time></trkpt><trkpt lat="41.98760883859558" lon="13.268327889855625"><ele>1374.0</ele><time>2026-04-24T09:44:11Z</time></trkpt><trkpt lat="41.987630886030345" lon="13.268472796131642"><ele>1374.0</ele><time>2026-04-24T09:44:12Z</time></trkpt><trkpt lat="41.9876969690862" lon="13.268597720780365"><ele>1374.5</ele><time>2026-04-24T09:44:13Z</time></trkpt><trkpt lat="41.987709664395894" lon="13.268712123113993"><ele>1375.0</ele><time>2026-04-24T09:44:14Z</time></trkpt><trkpt lat="41.987722505791275" lon="13.268835281805197"><ele>1375.5</ele><time>2026-04-24T09:44:15Z</time></trkpt><trkpt lat="41.987731717693" lon="13.269005553429665"><ele>1376.0</ele><time>2026-04-24T09:44:16Z</time></trkpt><trkpt lat="41.987740383138394" lon="13.269225561745701"><ele>1376.6</ele><time>2026-04-24T09:44:17Z</time></trkpt><trkpt lat="41.987743655455816" lon="13.26943376333565"><ele>1377.1999999999998</ele><time>2026-04-24T09:44:18Z</time></trkpt><trkpt lat="41.98774830587309" lon="13.26959069699081"><ele>1377.8000000000002</ele><time>2026-04-24T09:44:19Z</time></trkpt><trkpt lat="41.98775308461658" lon="13.269723011097119"><ele>1378.4</ele><time>2026-04-24T09:44:20Z</time></trkpt><trkpt lat="41.987754508305365" lon="13.269829170033479"><ele>1379.0</ele><time>2026-04-24T09:44:21Z</time></trkpt><trkpt lat="41.987731570448744" lon="13.269994799552117"><ele>1380.1666666666667</ele><time>2026-04-24T09:44:23Z</time></trkpt><trkpt lat="41.98764314390886" lon="13.270046351429404"><ele>1381.3333333333335</ele><time>2026-04-24T09:44:25Z</time></trkpt><trkpt lat="41.987546121596296" lon="13.27002360574929"><ele>1382.5</ele><time>2026-04-24T09:44:27Z</time></trkpt><trkpt lat="41.987477251076434" lon="13.270020045347714"><ele>1383.6666666666667</ele><time>2026-04-24T09:44:28Z</time></trkpt><trkpt lat="41.98736652763269" lon="13.270066737463821"><ele>1384.8333333333333</ele><time>2026-04-24T09:44:30Z</time></trkpt><trkpt lat="41.987317617490405" lon="13.270123927643121"><ele>1386.0</ele><time>2026-04-24T09:44:31Z</time></trkpt><trkpt lat="41.98729228212801" lon="13.27023141603392"><ele>1387.6</ele><time>2026-04-24T09:44:32Z</time></trkpt><trkpt lat="41.98727154612309" lon="13.270376455689611"><ele>1389.1999999999998</ele><time>2026-04-24T09:44:33Z</time></trkpt><trkpt lat="41.98725128925467" lon="13.270516504682282"><ele>1390.8000000000002</ele><time>2026-04-24T09:44:34Z</time></trkpt><trkpt lat="41.98723423196856" lon="13.270651389569089"><ele>1392.4</ele><time>2026-04-24T09:44:35Z</time></trkpt><trkpt lat="41.98722356919498" lon="13.270766252775868"><ele>1394.0</ele><time>2026-04-24T09:44:36Z</time></trkpt><trkpt lat="41.987208702439496" lon="13.27090325604271"><ele>1395.6</ele><time>2026-04-24T09:44:37Z</time></trkpt><trkpt lat="41.98718185789662" lon="13.27102510980961"><ele>1397.2</ele><time>2026-04-24T09:44:38Z</time></trkpt><trkpt lat="41.98710325698196" lon="13.271191556605652"><ele>1398.8</ele><time>2026-04-24T09:44:40Z</time></trkpt><trkpt lat="41.98704352269649" lon="13.27127786518663"><ele>1400.3999999999999</ele><time>2026-04-24T09:44:41Z</time></trkpt><trkpt lat="41.98699314559641" lon="13.271346974464965"><ele>1402.0</ele><time>2026-04-24T09:44:42Z</time></trkpt><trkpt lat="41.98693313699838" lon="13.271418067833633"><ele>1403.6666666666665</ele><time>2026-04-24T09:44:43Z</time></trkpt><trkpt lat="41.986864387324694" lon="13.271492786457573"><ele>1405.3333333333333</ele><time>2026-04-24T09:44:44Z</time></trkpt><trkpt lat="41.986816835887716" lon="13.271554066719972"><ele>1407.0</ele><time>2026-04-24T09:44:45Z</time></trkpt><trkpt lat="41.98676432110407" lon="13.271613620797336"><ele>1408.6666666666667</ele><time>2026-04-24T09:44:46Z</time></trkpt><trkpt lat="41.986709170496326" lon="13.271678395632183"><ele>1410.3333333333335</ele><time>2026-04-24T09:44:47Z</time></trkpt><trkpt lat="41.98664143284788" lon="13.271751864389497"><ele>1412.0</ele><time>2026-04-24T09:44:48Z</time></trkpt><trkpt lat="41.98655356957559" lon="13.27184717894968"><ele>1412.25</ele><time>2026-04-24T09:44:49Z</time></trkpt><trkpt lat="41.98646608547032" lon="13.2719501279915"><ele>1412.5</ele><time>2026-04-24T09:44:50Z</time></trkpt><trkpt lat="41.98637846799491" lon="13.272044702133872"><ele>1412.75</ele><time>2026-04-24T09:44:51Z</time></trkpt><trkpt lat="41.986288247272576" lon="13.272144722938439"><ele>1413.0</ele><time>2026-04-24T09:44:52Z</time></trkpt><trkpt lat="41.986181772813175" lon="13.272198700837095"><ele>1413.4</ele><time>2026-04-24T09:44:53Z</time></trkpt><trkpt lat="41.98609986319393" lon="13.272289377123188"><ele>1413.8000000000002</ele><time>2026-04-24T09:44:54Z</time></trkpt><trkpt lat="41.986012313011074" lon="13.272364557846956"><ele>1414.2</ele><time>2026-04-24T09:44:55Z</time></trkpt><trkpt lat="41.98592630715484" lon="13.272447832295125"><ele>1414.6</ele><time>2026-04-24T09:44:56Z</time></trkpt><trkpt lat="41.9858321574697" lon="13.272517854415968"><ele>1415.0</ele><time>2026-04-24T09:44:57Z</time></trkpt><trkpt lat="41.985740472319" lon="13.27259488122244"><ele>1413.8</ele><time>2026-04-24T09:44:58Z</time></trkpt><trkpt lat="41.98564592931011" lon="13.272674678934269"><ele>1412.6</ele><time>2026-04-24T09:44:59Z</time></trkpt><trkpt lat="41.98555379342006" lon="13.272753482755173"><ele>1411.4</ele><time>2026-04-24T09:45:00Z</time></trkpt><trkpt lat="41.98545930408684" lon="13.272836000744983"><ele>1410.2</ele><time>2026-04-24T09:45:01Z</time></trkpt><trkpt lat="41.98538055875883" lon="13.272909005139825"><ele>1409.0</ele><time>2026-04-24T09:45:02Z</time></trkpt><trkpt lat="41.98530356107398" lon="13.272988220216439"><ele>1409.0</ele><time>2026-04-24T09:45:03Z</time></trkpt><trkpt lat="41.98523601054158" lon="13.273068946341935"><ele>1409.0</ele><time>2026-04-24T09:45:04Z</time></trkpt><trkpt lat="41.98518164787932" lon="13.273187875512441"><ele>1409.0</ele><time>2026-04-24T09:45:05Z</time></trkpt><trkpt lat="41.9851425956001" lon="13.273300323962049"><ele>1409.0</ele><time>2026-04-24T09:45:06Z</time></trkpt><trkpt lat="41.98511644355151" lon="13.273407290861753"><ele>1409.0</ele><time>2026-04-24T09:45:07Z</time></trkpt><trkpt lat="41.985101664461546" lon="13.273513588163437"><ele>1409.8000000000002</ele><time>2026-04-24T09:45:08Z</time></trkpt><trkpt lat="41.98509136947867" lon="13.273607316534502"><ele>1410.6000000000001</ele><time>2026-04-24T09:45:09Z</time></trkpt><trkpt lat="41.98503073098352" lon="13.273736510187627"><ele>1411.4</ele><time>2026-04-24T09:45:11Z</time></trkpt><trkpt lat="41.984971869126404" lon="13.273808742685963"><ele>1412.2</ele><time>2026-04-24T09:45:12Z</time></trkpt><trkpt lat="41.9848789875957" lon="13.27382993948972"><ele>1413.0</ele><time>2026-04-24T09:45:13Z</time></trkpt><trkpt lat="41.98478408199414" lon="13.273854872476571"><ele>1413.0</ele><time>2026-04-24T09:45:14Z</time></trkpt><trkpt lat="41.98467949061982" lon="13.273862290374243"><ele>1413.0</ele><time>2026-04-24T09:45:15Z</time></trkpt><trkpt lat="41.98458155635696" lon="13.273856671952537"><ele>1413.0</ele><time>2026-04-24T09:45:16Z</time></trkpt><trkpt lat="41.984459784270165" lon="13.273876788228002"><ele>1413.0</ele><time>2026-04-24T09:45:17Z</time></trkpt><trkpt lat="41.984351799632734" lon="13.273800056797091"><ele>1413.0</ele><time>2026-04-24T09:45:18Z</time></trkpt><trkpt lat="41.98423759778857" lon="13.273743534445313"><ele>1412.0</ele><time>2026-04-24T09:45:19Z</time></trkpt><trkpt lat="41.9841260435633" lon="13.27368230231347"><ele>1411.0</ele><time>2026-04-24T09:45:20Z</time></trkpt><trkpt lat="41.98401181274011" lon="13.27363301281683"><ele>1410.0</ele><time>2026-04-24T09:45:21Z</time></trkpt><trkpt lat="41.9838991408268" lon="13.273580384143544"><ele>1409.0</ele><time>2026-04-24T09:45:22Z</time></trkpt><trkpt lat="41.983782375337285" lon="13.273524468728347"><ele>1409.0</ele><time>2026-04-24T09:45:23Z</time></trkpt><trkpt lat="41.9836650027703" lon="13.273473112613038"><ele>1409.0</ele><time>2026-04-24T09:45:24Z</time></trkpt><trkpt lat="41.98354852310036" lon="13.273415068973629"><ele>1409.0</ele><time>2026-04-24T09:45:25Z</time></trkpt><trkpt lat="41.98343188356713" lon="13.27336125960313"><ele>1409.0</ele><time>2026-04-24T09:45:26Z</time></trkpt><trkpt lat="41.983313358227875" lon="13.273294127728764"><ele>1410.5</ele><time>2026-04-24T09:45:27Z</time></trkpt><trkpt lat="41.983188985345265" lon="13.2732305030325"><ele>1412.0</ele><time>2026-04-24T09:45:28Z</time></trkpt><trkpt lat="41.9830703570195" lon="13.273167912974431"><ele>1413.5</ele><time>2026-04-24T09:45:29Z</time></trkpt><trkpt lat="41.982948078541696" lon="13.273100556826074"><ele>1415.0</ele><time>2026-04-24T09:45:30Z</time></trkpt><trkpt lat="41.98281809107175" lon="13.273026767221298"><ele>1417.75</ele><time>2026-04-24T09:45:31Z</time></trkpt><trkpt lat="41.982685068626765" lon="13.272948078916947"><ele>1420.5</ele><time>2026-04-24T09:45:32Z</time></trkpt><trkpt lat="41.98255206719895" lon="13.272870007701078"><ele>1423.25</ele><time>2026-04-24T09:45:33Z</time></trkpt><trkpt lat="41.982422436661395" lon="13.272799301640227"><ele>1426.0</ele><time>2026-04-24T09:45:34Z</time></trkpt><trkpt lat="41.98228958869536" lon="13.272739403724698"><ele>1426.25</ele><time>2026-04-24T09:45:35Z</time></trkpt><trkpt lat="41.982178826277455" lon="13.272651266633607"><ele>1426.5</ele><time>2026-04-24T09:45:36Z</time></trkpt><trkpt lat="41.9820728721053" lon="13.272539536463347"><ele>1426.75</ele><time>2026-04-24T09:45:37Z</time></trkpt><trkpt lat="41.98196327412268" lon="13.272425701860525"><ele>1427.0</ele><time>2026-04-24T09:45:38Z</time></trkpt><trkpt lat="41.981788503193904" lon="13.272285471311822"><ele>1426.6666666666667</ele><time>2026-04-24T09:45:39Z</time></trkpt><trkpt lat="41.98159332536144" lon="13.2722386520168"><ele>1426.3333333333333</ele><time>2026-04-24T09:45:40Z</time></trkpt><trkpt lat="41.98144086673425" lon="13.272278246746495"><ele>1426.0</ele><time>2026-04-24T09:45:41.999Z</time></trkpt><trkpt lat="41.98132137041785" lon="13.272270007816074"><ele>1428.6666666666665</ele><time>2026-04-24T09:45:42.999Z</time></trkpt><trkpt lat="41.981217706222274" lon="13.272268389269014"><ele>1431.3333333333333</ele><time>2026-04-24T09:45:43.999Z</time></trkpt><trkpt lat="41.981129102799876" lon="13.27224375400137"><ele>1434.0</ele><time>2026-04-24T09:45:44.999Z</time></trkpt><trkpt lat="41.9810713520712" lon="13.272166176383056"><ele>1436.6666666666667</ele><time>2026-04-24T09:45:45.999Z</time></trkpt><trkpt lat="41.98106923723534" lon="13.272051408023652"><ele>1439.3333333333335</ele><time>2026-04-24T09:45:46.999Z</time></trkpt><trkpt lat="41.9810887363086" lon="13.271939790903263"><ele>1442.0</ele><time>2026-04-24T09:45:47.999Z</time></trkpt><trkpt lat="41.98108868117759" lon="13.271818968649328"><ele>1442.0</ele><time>2026-04-24T09:45:48.999Z</time></trkpt><trkpt lat="41.98108618261349" lon="13.271700536926822"><ele>1442.0</ele><time>2026-04-24T09:45:49.999Z</time></trkpt><trkpt lat="41.981068706912474" lon="13.271603699092777"><ele>1442.0</ele><time>2026-04-24T09:45:50.999Z</time></trkpt><trkpt lat="41.981003241004224" lon="13.271526809393581"><ele>1442.0</ele><time>2026-04-24T09:45:51.999Z</time></trkpt><trkpt lat="41.98089986706686" lon="13.271523446917078"><ele>1442.0</ele><time>2026-04-24T09:45:52.999Z</time></trkpt><trkpt lat="41.980808383491045" lon="13.27154678737259"><ele>1442.0</ele><time>2026-04-24T09:45:53.999Z</time></trkpt><trkpt lat="41.9807118967513" lon="13.271549124444933"><ele>1441.1999999999998</ele><time>2026-04-24T09:45:54.999Z</time></trkpt><trkpt lat="41.98061552931666" lon="13.271550841319675"><ele>1440.4</ele><time>2026-04-24T09:45:55.999Z</time></trkpt><trkpt lat="41.980512869525654" lon="13.271552670295996"><ele>1439.6</ele><time>2026-04-24T09:45:56.999Z</time></trkpt><trkpt lat="41.98040234565615" lon="13.271560845014346"><ele>1438.8000000000002</ele><time>2026-04-24T09:45:57.999Z</time></trkpt><trkpt lat="41.98028170227898" lon="13.271601152050094"><ele>1438.0</ele><time>2026-04-24T09:45:58.999Z</time></trkpt><trkpt lat="41.98019670092569" lon="13.271659043374713"><ele>1438.0</ele><time>2026-04-24T09:45:59.999Z</time></trkpt><trkpt lat="41.980097691473084" lon="13.271691923774439"><ele>1438.0</ele><time>2026-04-24T09:46:00.999Z</time></trkpt><trkpt lat="41.980001728856486" lon="13.271761866199073"><ele>1438.0</ele><time>2026-04-24T09:46:01.999Z</time></trkpt><trkpt lat="41.979891969908415" lon="13.271801452396803"><ele>1438.0</ele><time>2026-04-24T09:46:02.999Z</time></trkpt><trkpt lat="41.9797903616189" lon="13.27185283423226"><ele>1438.0</ele><time>2026-04-24T09:46:03.999Z</time></trkpt><trkpt lat="41.97969319108891" lon="13.271916734613841"><ele>1435.75</ele><time>2026-04-24T09:46:04.999Z</time></trkpt><trkpt lat="41.97959489633332" lon="13.271994496948006"><ele>1433.5</ele><time>2026-04-24T09:46:05.999Z</time></trkpt><trkpt lat="41.97950045907986" lon="13.272092420626548"><ele>1431.25</ele><time>2026-04-24T09:46:06.999Z</time></trkpt><trkpt lat="41.979381088144784" lon="13.272188220612254"><ele>1429.0</ele><time>2026-04-24T09:46:07.999Z</time></trkpt><trkpt lat="41.97927506405261" lon="13.272288546038872"><ele>1429.0</ele><time>2026-04-24T09:46:08.999Z</time></trkpt><trkpt lat="41.97918771586068" lon="13.272369745001644"><ele>1429.0</ele><time>2026-04-24T09:46:09.999Z</time></trkpt><trkpt lat="41.97908092263554" lon="13.272472075000778"><ele>1429.0</ele><time>2026-04-24T09:46:11Z</time></trkpt><trkpt lat="41.9790011080877" lon="13.272577157377128"><ele>1429.0</ele><time>2026-04-24T09:46:12Z</time></trkpt><trkpt lat="41.97889698207509" lon="13.272668015653808"><ele>1434.2</ele><time>2026-04-24T09:46:13Z</time></trkpt><trkpt lat="41.97879778156981" lon="13.272780197593658"><ele>1439.4</ele><time>2026-04-24T09:46:14Z</time></trkpt><trkpt lat="41.97870541230916" lon="13.272887673568432"><ele>1444.6</ele><time>2026-04-24T09:46:15Z</time></trkpt><trkpt lat="41.97863364682181" lon="13.272976184598424"><ele>1449.8</ele><time>2026-04-24T09:46:16Z</time></trkpt><trkpt lat="41.97858126829001" lon="13.273041301431498"><ele>1455.0</ele><time>2026-04-24T09:46:17Z</time></trkpt><trkpt lat="41.97853328251375" lon="13.273097381002271"><ele>1453.0</ele><time>2026-04-24T09:46:18Z</time></trkpt><trkpt lat="41.97844573788724" lon="13.273131142352078"><ele>1451.0</ele><time>2026-04-24T09:46:20Z</time></trkpt><trkpt lat="41.97834290180235" lon="13.273088993132998"><ele>1449.0</ele><time>2026-04-24T09:46:22Z</time></trkpt><trkpt lat="41.978285503460015" lon="13.272974141918334"><ele>1447.0</ele><time>2026-04-24T09:46:24Z</time></trkpt><trkpt lat="41.97827289788365" lon="13.27287879549613"><ele>1445.0</ele><time>2026-04-24T09:46:25Z</time></trkpt><trkpt lat="41.97824822289186" lon="13.272796535552223"><ele>1443.0</ele><time>2026-04-24T09:46:26Z</time></trkpt><trkpt lat="41.978213097188664" lon="13.27272481662841"><ele>1448.2</ele><time>2026-04-24T09:46:27Z</time></trkpt><trkpt lat="41.97815931913422" lon="13.272665856428574"><ele>1453.4</ele><time>2026-04-24T09:46:28Z</time></trkpt><trkpt lat="41.97810492723543" lon="13.27262163228809"><ele>1458.6000000000001</ele><time>2026-04-24T09:46:29Z</time></trkpt><trkpt lat="41.978038554093025" lon="13.272607018540148"><ele>1463.8000000000002</ele><time>2026-04-24T09:46:30Z</time></trkpt><trkpt lat="41.97787869470073" lon="13.272618614184948"><ele>1469.0</ele><time>2026-04-24T09:46:32Z</time></trkpt><trkpt lat="41.97776879461073" lon="13.27262590393205"><ele>1469.0</ele><time>2026-04-24T09:46:33Z</time></trkpt><trkpt lat="41.977635384121406" lon="13.272678067224552"><ele>1469.0</ele><time>2026-04-24T09:46:34Z</time></trkpt><trkpt lat="41.977508643424635" lon="13.272719476819566"><ele>1469.0</ele><time>2026-04-24T09:46:35Z</time></trkpt><trkpt lat="41.97739830893183" lon="13.272753610624202"><ele>1469.0</ele><time>2026-04-24T09:46:36Z</time></trkpt><trkpt lat="41.97729974407585" lon="13.272781536752893"><ele>1469.5</ele><time>2026-04-24T09:46:37Z</time></trkpt><trkpt lat="41.97721395062307" lon="13.272805988276435"><ele>1470.0</ele><time>2026-04-24T09:46:38Z</time></trkpt><trkpt lat="41.9771354601433" lon="13.272827753997685"><ele>1470.5</ele><time>2026-04-24T09:46:39Z</time></trkpt><trkpt lat="41.97704868784003" lon="13.272861529628768"><ele>1471.0</ele><time>2026-04-24T09:46:40Z</time></trkpt><trkpt lat="41.97695651816798" lon="13.272881088789932"><ele>1471.5</ele><time>2026-04-24T09:46:41Z</time></trkpt><trkpt lat="41.976871832146706" lon="13.272892796876283"><ele>1472.0</ele><time>2026-04-24T09:46:42Z</time></trkpt><trkpt lat="41.97678252667336" lon="13.272902506116166"><ele>1472.1999999999998</ele><time>2026-04-24T09:46:43Z</time></trkpt><trkpt lat="41.97668494269085" lon="13.272854534993108"><ele>1472.4</ele><time>2026-04-24T09:46:44Z</time></trkpt><trkpt lat="41.976580450211564" lon="13.272820706320536"><ele>1472.6</ele><time>2026-04-24T09:46:45Z</time></trkpt><trkpt lat="41.976473788425274" lon="13.27278160706511"><ele>1472.8000000000002</ele><time>2026-04-24T09:46:46Z</time></trkpt><trkpt lat="41.976364218778315" lon="13.272738276485821"><ele>1473.0</ele><time>2026-04-24T09:46:47Z</time></trkpt><trkpt lat="41.9762529480477" lon="13.272692449395038"><ele>1473.0</ele><time>2026-04-24T09:46:48Z</time></trkpt><trkpt lat="41.976148932087156" lon="13.272648144358692"><ele>1473.0</ele><time>2026-04-24T09:46:49Z</time></trkpt><trkpt lat="41.97605169557105" lon="13.272606726983714"><ele>1473.0</ele><time>2026-04-24T09:46:50Z</time></trkpt><trkpt lat="41.975956774092644" lon="13.272566021391338"><ele>1473.0</ele><time>2026-04-24T09:46:51Z</time></trkpt><trkpt lat="41.97586192760282" lon="13.272523798956747"><ele>1473.0</ele><time>2026-04-24T09:46:52Z</time></trkpt><trkpt lat="41.97576820321494" lon="13.272478943560223"><ele>1472.3333333333333</ele><time>2026-04-24T09:46:53Z</time></trkpt><trkpt lat="41.97568611879141" lon="13.272436506915845"><ele>1471.6666666666667</ele><time>2026-04-24T09:46:54Z</time></trkpt><trkpt lat="41.975607125186244" lon="13.272395491000646"><ele>1471.0</ele><time>2026-04-24T09:46:55Z</time></trkpt><trkpt lat="41.975514037704" lon="13.272348251351312"><ele>1470.3333333333335</ele><time>2026-04-24T09:46:56Z</time></trkpt><trkpt lat="41.97542898670143" lon="13.272305089917749"><ele>1469.6666666666667</ele><time>2026-04-24T09:46:57Z</time></trkpt><trkpt lat="41.97535477446351" lon="13.272291728745362"><ele>1469.0</ele><time>2026-04-24T09:46:58Z</time></trkpt><trkpt lat="41.97526340175068" lon="13.272231430896305"><ele>1470.4</ele><time>2026-04-24T09:47:00Z</time></trkpt><trkpt lat="41.97518594605903" lon="13.272210484524672"><ele>1471.8000000000002</ele><time>2026-04-24T09:47:03Z</time></trkpt><trkpt lat="41.975094994506634" lon="13.272251710062832"><ele>1473.1999999999998</ele><time>2026-04-24T09:47:05Z</time></trkpt><trkpt lat="41.97500375968768" lon="13.272356050152952"><ele>1474.6</ele><time>2026-04-24T09:47:07Z</time></trkpt><trkpt lat="41.97495138264089" lon="13.272418382714568"><ele>1476.0</ele><time>2026-04-24T09:47:08Z</time></trkpt><trkpt lat="41.974862827982236" lon="13.27251154064391"><ele>1476.0</ele><time>2026-04-24T09:47:10Z</time></trkpt><trkpt lat="41.974811258118955" lon="13.272561286090207"><ele>1476.0</ele><time>2026-04-24T09:47:11Z</time></trkpt><trkpt lat="41.97470772620835" lon="13.272640319158015"><ele>1476.0</ele><time>2026-04-24T09:47:13Z</time></trkpt><trkpt lat="41.97464285471684" lon="13.272670047339192"><ele>1476.0</ele><time>2026-04-24T09:47:14Z</time></trkpt><trkpt lat="41.97457393329758" lon="13.272684639450397"><ele>1476.0</ele><time>2026-04-24T09:47:15Z</time></trkpt><trkpt lat="41.974494550149075" lon="13.272669898740258"><ele>1476.0</ele><time>2026-04-24T09:47:16Z</time></trkpt><trkpt lat="41.974412756322074" lon="13.272669553488159"><ele>1476.0</ele><time>2026-04-24T09:47:17Z</time></trkpt><trkpt lat="41.974269741863864" lon="13.272630177385619"><ele>1476.0</ele><time>2026-04-24T09:47:19Z</time></trkpt><trkpt lat="41.97419190496017" lon="13.272628676437202"><ele>1476.0</ele><time>2026-04-24T09:47:20Z</time></trkpt><trkpt lat="41.9741099261975" lon="13.27263402139623"><ele>1476.0</ele><time>2026-04-24T09:47:21Z</time></trkpt><trkpt lat="41.97402286469526" lon="13.27264109487021"><ele>1476.0</ele><time>2026-04-24T09:47:22Z</time></trkpt><trkpt lat="41.97394093221831" lon="13.272667961305649"><ele>1478.1666666666667</ele><time>2026-04-24T09:47:23Z</time></trkpt><trkpt lat="41.97386171589234" lon="13.272656666179097"><ele>1480.3333333333333</ele><time>2026-04-24T09:47:24Z</time></trkpt><trkpt lat="41.97378454248125" lon="13.272665273564396"><ele>1482.5</ele><time>2026-04-24T09:47:25Z</time></trkpt><trkpt lat="41.97370559236135" lon="13.272669068141829"><ele>1484.6666666666665</ele><time>2026-04-24T09:47:26Z</time></trkpt><trkpt lat="41.97362666365069" lon="13.272672222257532"><ele>1486.8333333333333</ele><time>2026-04-24T09:47:27Z</time></trkpt><trkpt lat="41.973543424998056" lon="13.27268109725441"><ele>1489.0</ele><time>2026-04-24T09:47:28Z</time></trkpt><trkpt lat="41.973473361506215" lon="13.272678787776385"><ele>1489.0</ele><time>2026-04-24T09:47:29Z</time></trkpt><trkpt lat="41.97340404023097" lon="13.27267452609721"><ele>1489.0</ele><time>2026-04-24T09:47:30Z</time></trkpt><trkpt lat="41.9733291297599" lon="13.272686953607522"><ele>1489.0</ele><time>2026-04-24T09:47:31Z</time></trkpt><trkpt lat="41.97323778641109" lon="13.272696269366994"><ele>1489.0</ele><time>2026-04-24T09:47:32Z</time></trkpt><trkpt lat="41.97315748509703" lon="13.272702332823375"><ele>1489.0</ele><time>2026-04-24T09:47:33Z</time></trkpt><trkpt lat="41.973075789921374" lon="13.272707152451314"><ele>1489.0</ele><time>2026-04-24T09:47:34Z</time></trkpt><trkpt lat="41.972994983210846" lon="13.27270384443186"><ele>1489.4</ele><time>2026-04-24T09:47:35Z</time></trkpt><trkpt lat="41.972892922639325" lon="13.272681121051887"><ele>1489.8000000000002</ele><time>2026-04-24T09:47:36Z</time></trkpt><trkpt lat="41.97276278458023" lon="13.272675884521854"><ele>1490.1999999999998</ele><time>2026-04-24T09:47:37.999Z</time></trkpt><trkpt lat="41.97269741289905" lon="13.272683653037692"><ele>1490.6</ele><time>2026-04-24T09:47:38.999Z</time></trkpt><trkpt lat="41.972627481966896" lon="13.272702374664329"><ele>1491.0</ele><time>2026-04-24T09:47:39.999Z</time></trkpt><trkpt lat="41.97255096993764" lon="13.272746959665247"><ele>1489.0</ele><time>2026-04-24T09:47:40.999Z</time></trkpt><trkpt lat="41.9724694820998" lon="13.2728063987079"><ele>1487.0</ele><time>2026-04-24T09:47:41.999Z</time></trkpt><trkpt lat="41.97239641381005" lon="13.272868035673701"><ele>1485.0</ele><time>2026-04-24T09:47:42.999Z</time></trkpt><trkpt lat="41.97233174509669" lon="13.27292284418542"><ele>1483.0</ele><time>2026-04-24T09:47:43.999Z</time></trkpt><trkpt lat="41.972270713333195" lon="13.272972354381139"><ele>1481.0</ele><time>2026-04-24T09:47:44.999Z</time></trkpt><trkpt lat="41.97220345268858" lon="13.273026239167866"><ele>1479.0</ele><time>2026-04-24T09:47:45.999Z</time></trkpt><trkpt lat="41.97213152750721" lon="13.273083860857621"><ele>1479.1666666666667</ele><time>2026-04-24T09:47:46.999Z</time></trkpt><trkpt lat="41.97205841263049" lon="13.273143440966718"><ele>1479.3333333333333</ele><time>2026-04-24T09:47:47.999Z</time></trkpt><trkpt lat="41.971991021044374" lon="13.273221252435135"><ele>1479.5</ele><time>2026-04-24T09:47:48.999Z</time></trkpt><trkpt lat="41.97192262531867" lon="13.273288728989098"><ele>1479.6666666666665</ele><time>2026-04-24T09:47:49.999Z</time></trkpt><trkpt lat="41.97184385531466" lon="13.273349668849741"><ele>1479.8333333333333</ele><time>2026-04-24T09:47:50.999Z</time></trkpt><trkpt lat="41.97178043669888" lon="13.27343909767097"><ele>1480.0</ele><time>2026-04-24T09:47:51.999Z</time></trkpt><trkpt lat="41.97173083971107" lon="13.273531959336887"><ele>1475.4</ele><time>2026-04-24T09:47:52.999Z</time></trkpt><trkpt lat="41.97169020834378" lon="13.273617622500977"><ele>1470.8</ele><time>2026-04-24T09:47:53.999Z</time></trkpt><trkpt lat="41.971650020176455" lon="13.273701023011405"><ele>1466.1999999999998</ele><time>2026-04-24T09:47:54.999Z</time></trkpt><trkpt lat="41.9715811455085" lon="13.273812341930132"><ele>1461.6</ele><time>2026-04-24T09:47:56.999Z</time></trkpt><trkpt lat="41.97149587352418" lon="13.27386806278519"><ele>1457.0</ele><time>2026-04-24T09:47:58.999Z</time></trkpt><trkpt lat="41.971390418483175" lon="13.273811891133311"><ele>1457.0</ele><time>2026-04-24T09:48:00.999Z</time></trkpt><trkpt lat="41.97131406836322" lon="13.273723310189256"><ele>1457.0</ele><time>2026-04-24T09:48:02.999Z</time></trkpt><trkpt lat="41.97124495003814" lon="13.27362028237686"><ele>1457.0</ele><time>2026-04-24T09:48:04.999Z</time></trkpt><trkpt lat="41.971179230492666" lon="13.273520323708539"><ele>1457.0</ele><time>2026-04-24T09:48:06.999Z</time></trkpt><trkpt lat="41.97112801784844" lon="13.273453035740689"><ele>1457.0</ele><time>2026-04-24T09:48:08.999Z</time></trkpt><trkpt lat="41.97103864880668" lon="13.273414092782936"><ele>1457.0</ele><time>2026-04-24T09:48:12.999Z</time></trkpt><trkpt lat="41.97096650469972" lon="13.273425101520798"><ele>1457.0</ele><time>2026-04-24T09:48:14.999Z</time></trkpt><trkpt lat="41.97087269160309" lon="13.273427202985909"><ele>1457.0</ele><time>2026-04-24T09:48:17Z</time></trkpt><trkpt lat="41.97077766827842" lon="13.273405752409346"><ele>1457.0</ele><time>2026-04-24T09:48:19Z</time></trkpt><trkpt lat="41.970677984504874" lon="13.273403088316838"><ele>1457.0</ele><time>2026-04-24T09:48:22Z</time></trkpt><trkpt lat="41.970562949702604" lon="13.27366603131483"><ele>1456.1666666666667</ele><time>2026-04-24T09:48:24Z</time></trkpt><trkpt lat="41.970506766986965" lon="13.273718089035516"><ele>1455.3333333333335</ele><time>2026-04-24T09:48:25Z</time></trkpt><trkpt lat="41.97044376979041" lon="13.27376600945263"><ele>1454.5</ele><time>2026-04-24T09:48:26Z</time></trkpt><trkpt lat="41.97038408282692" lon="13.273796050579252"><ele>1453.6666666666667</ele><time>2026-04-24T09:48:27Z</time></trkpt><trkpt lat="41.970275166406665" lon="13.273861343271735"><ele>1452.8333333333333</ele><time>2026-04-24T09:48:29Z</time></trkpt><trkpt lat="41.970191182044594" lon="13.27389991543769"><ele>1452.0</ele><time>2026-04-24T09:48:30Z</time></trkpt><trkpt lat="41.97013057521696" lon="13.27392934961584"><ele>1456.6</ele><time>2026-04-24T09:48:31Z</time></trkpt><trkpt lat="41.96999184332053" lon="13.273985738109667"><ele>1461.1999999999998</ele><time>2026-04-24T09:48:32Z</time></trkpt><trkpt lat="41.96990078373353" lon="13.274021547025997"><ele>1465.8</ele><time>2026-04-24T09:48:33Z</time></trkpt><trkpt lat="41.96980466373037" lon="13.274052688035225"><ele>1470.4</ele><time>2026-04-24T09:48:34Z</time></trkpt><trkpt lat="41.969723444980076" lon="13.274086088615924"><ele>1475.0</ele><time>2026-04-24T09:48:35Z</time></trkpt><trkpt lat="41.96964313389021" lon="13.27411784198139"><ele>1475.0</ele><time>2026-04-24T09:48:36Z</time></trkpt><trkpt lat="41.96955953844238" lon="13.27415176897143"><ele>1475.0</ele><time>2026-04-24T09:48:37Z</time></trkpt><trkpt lat="41.96947173640849" lon="13.27420306270092"><ele>1475.0</ele><time>2026-04-24T09:48:38Z</time></trkpt><trkpt lat="41.96938222461084" lon="13.274247865894935"><ele>1475.0</ele><time>2026-04-24T09:48:39Z</time></trkpt><trkpt lat="41.969297149318606" lon="13.274268934926484"><ele>1475.0</ele><time>2026-04-24T09:48:40Z</time></trkpt><trkpt lat="41.96922784999859" lon="13.274275681998079"><ele>1475.0</ele><time>2026-04-24T09:48:41Z</time></trkpt><trkpt lat="41.96916094569387" lon="13.274295472434613"><ele>1475.3333333333335</ele><time>2026-04-24T09:48:42Z</time></trkpt><trkpt lat="41.969098311835864" lon="13.274323167011705"><ele>1475.6666666666667</ele><time>2026-04-24T09:48:43Z</time></trkpt><trkpt lat="41.96904168975916" lon="13.274366634477369"><ele>1476.0</ele><time>2026-04-24T09:48:44Z</time></trkpt><trkpt lat="41.96898616811092" lon="13.274435804392027"><ele>1476.3333333333333</ele><time>2026-04-24T09:48:45Z</time></trkpt><trkpt lat="41.96895656997516" lon="13.274541560498616"><ele>1476.6666666666665</ele><time>2026-04-24T09:48:46Z</time></trkpt><trkpt lat="41.96890895272141" lon="13.274666988290607"><ele>1477.0</ele><time>2026-04-24T09:48:47Z</time></trkpt><trkpt lat="41.96884613589645" lon="13.27478861296793"><ele>1477.0</ele><time>2026-04-24T09:48:48Z</time></trkpt><trkpt lat="41.968790296753994" lon="13.274889720423847"><ele>1477.0</ele><time>2026-04-24T09:48:49Z</time></trkpt><trkpt lat="41.96873321282881" lon="13.274997593785093"><ele>1477.0</ele><time>2026-04-24T09:48:50Z</time></trkpt><trkpt lat="41.968684235097314" lon="13.275093993592796"><ele>1477.0</ele><time>2026-04-24T09:48:51Z</time></trkpt><trkpt lat="41.96864195500781" lon="13.275175642229662"><ele>1477.0</ele><time>2026-04-24T09:48:52Z</time></trkpt><trkpt lat="41.968598861868735" lon="13.275262138037998"><ele>1477.0</ele><time>2026-04-24T09:48:53Z</time></trkpt><trkpt lat="41.96851186911535" lon="13.27536068157576"><ele>1477.0</ele><time>2026-04-24T09:48:55Z</time></trkpt><trkpt lat="41.96844501135496" lon="13.275379833656514"><ele>1477.0</ele><time>2026-04-24T09:48:56Z</time></trkpt><trkpt lat="41.9683725808347" lon="13.275397257611646"><ele>1477.0</ele><time>2026-04-24T09:48:57Z</time></trkpt><trkpt lat="41.96829807507809" lon="13.275410946100205"><ele>1477.0</ele><time>2026-04-24T09:48:58Z</time></trkpt><trkpt lat="41.968217603078664" lon="13.275409853596427"><ele>1477.0</ele><time>2026-04-24T09:48:59Z</time></trkpt><trkpt lat="41.96812431629138" lon="13.275405929840192"><ele>1477.0</ele><time>2026-04-24T09:49:00Z</time></trkpt><trkpt lat="41.96804231779482" lon="13.275401935380767"><ele>1473.3999999999999</ele><time>2026-04-24T09:49:01Z</time></trkpt><trkpt lat="41.96791707735411" lon="13.275354389071854"><ele>1469.8</ele><time>2026-04-24T09:49:03Z</time></trkpt><trkpt lat="41.96782829717254" lon="13.275317359097167"><ele>1466.2</ele><time>2026-04-24T09:49:04Z</time></trkpt><trkpt lat="41.96773318746497" lon="13.275281464102292"><ele>1462.6</ele><time>2026-04-24T09:49:05Z</time></trkpt><trkpt lat="41.96765690199507" lon="13.275224216263485"><ele>1459.0</ele><time>2026-04-24T09:49:06Z</time></trkpt><trkpt lat="41.96757272007025" lon="13.275214922422393"><ele>1457.6666666666665</ele><time>2026-04-24T09:49:07Z</time></trkpt><trkpt lat="41.96750524099171" lon="13.275232356190694"><ele>1456.3333333333333</ele><time>2026-04-24T09:49:08Z</time></trkpt><trkpt lat="41.967424757499934" lon="13.275259781872942"><ele>1455.0</ele><time>2026-04-24T09:49:10Z</time></trkpt><trkpt lat="41.96737299635872" lon="13.275314461856084"><ele>1453.6666666666667</ele><time>2026-04-24T09:49:13Z</time></trkpt><trkpt lat="41.96728489185179" lon="13.275409442796853"><ele>1452.3333333333335</ele><time>2026-04-24T09:49:15Z</time></trkpt><trkpt lat="41.96722185780374" lon="13.275454035112277"><ele>1451.0</ele><time>2026-04-24T09:49:16Z</time></trkpt><trkpt lat="41.96713455219" lon="13.275534131876423"><ele>1457.4</ele><time>2026-04-24T09:49:17Z</time></trkpt><trkpt lat="41.96705200766036" lon="13.275624339927427"><ele>1463.8</ele><time>2026-04-24T09:49:18Z</time></trkpt><trkpt lat="41.96696386993657" lon="13.275732084697513"><ele>1470.2</ele><time>2026-04-24T09:49:19Z</time></trkpt><trkpt lat="41.96690239892913" lon="13.27583647129075"><ele>1476.6000000000001</ele><time>2026-04-24T09:49:20Z</time></trkpt><trkpt lat="41.96685877977151" lon="13.275924199533975"><ele>1483.0</ele><time>2026-04-24T09:49:21Z</time></trkpt><trkpt lat="41.96681340542976" lon="13.276003971749468"><ele>1483.0</ele><time>2026-04-24T09:49:22Z</time></trkpt><trkpt lat="41.96676380836141" lon="13.276068562805"><ele>1483.0</ele><time>2026-04-24T09:49:23Z</time></trkpt><trkpt lat="41.96669516699349" lon="13.276156506347302"><ele>1483.0</ele><time>2026-04-24T09:49:24Z</time></trkpt><trkpt lat="41.9666264940085" lon="13.276219950889525"><ele>1483.0</ele><time>2026-04-24T09:49:25Z</time></trkpt><trkpt lat="41.96655132601828" lon="13.276284479028874"><ele>1483.0</ele><time>2026-04-24T09:49:26Z</time></trkpt><trkpt lat="41.966492541557386" lon="13.27633235423459"><ele>1483.0</ele><time>2026-04-24T09:49:27Z</time></trkpt><trkpt lat="41.966404688755716" lon="13.27646033013924"><ele>1484.5</ele><time>2026-04-24T09:49:29Z</time></trkpt><trkpt lat="41.96635832282664" lon="13.276546671530573"><ele>1486.0</ele><time>2026-04-24T09:49:30Z</time></trkpt><trkpt lat="41.96630077617411" lon="13.276652285527218"><ele>1487.5</ele><time>2026-04-24T09:49:31Z</time></trkpt><trkpt lat="41.96625173138877" lon="13.276725526200984"><ele>1489.0</ele><time>2026-04-24T09:49:32Z</time></trkpt><trkpt lat="41.966153063912465" lon="13.276779613793009"><ele>1490.5</ele><time>2026-04-24T09:49:34Z</time></trkpt><trkpt lat="41.966078148775466" lon="13.27679051844204"><ele>1492.0</ele><time>2026-04-24T09:49:35Z</time></trkpt><trkpt lat="41.96599855402572" lon="13.276785033014301"><ele>1492.0</ele><time>2026-04-24T09:49:36Z</time></trkpt><trkpt lat="41.96592821328813" lon="13.276775033864332"><ele>1492.0</ele><time>2026-04-24T09:49:36.999Z</time></trkpt><trkpt lat="41.96584608961133" lon="13.27683531434688"><ele>1492.0</ele><time>2026-04-24T09:49:38.999Z</time></trkpt><trkpt lat="41.9657909224551" lon="13.276967187393257"><ele>1492.0</ele><time>2026-04-24T09:49:40.999Z</time></trkpt><trkpt lat="41.96572785476551" lon="13.277051584959457"><ele>1492.0</ele><time>2026-04-24T09:49:41.999Z</time></trkpt><trkpt lat="41.96566415564332" lon="13.277139240403796"><ele>1493.1666666666665</ele><time>2026-04-24T09:49:42.999Z</time></trkpt><trkpt lat="41.96561049245364" lon="13.277219492230513"><ele>1494.3333333333333</ele><time>2026-04-24T09:49:43.999Z</time></trkpt><trkpt lat="41.965568893049856" lon="13.277318304984606"><ele>1495.5</ele><time>2026-04-24T09:49:44.999Z</time></trkpt><trkpt lat="41.965519244423284" lon="13.277417031081386"><ele>1496.6666666666667</ele><time>2026-04-24T09:49:45.999Z</time></trkpt><trkpt lat="41.965470039152436" lon="13.277497535753005"><ele>1497.8333333333335</ele><time>2026-04-24T09:49:46.999Z</time></trkpt><trkpt lat="41.96540815657423" lon="13.277562069368194"><ele>1499.0</ele><time>2026-04-24T09:49:47.999Z</time></trkpt><trkpt lat="41.96534095603862" lon="13.277623620704315"><ele>1499.0</ele><time>2026-04-24T09:49:48.999Z</time></trkpt><trkpt lat="41.96526440118811" lon="13.27767052218175"><ele>1499.0</ele><time>2026-04-24T09:49:49.999Z</time></trkpt><trkpt lat="41.96517285327809" lon="13.277733375063494"><ele>1499.0</ele><time>2026-04-24T09:49:50.999Z</time></trkpt><trkpt lat="41.96511720374501" lon="13.277810773114474"><ele>1499.0</ele><time>2026-04-24T09:49:51.999Z</time></trkpt><trkpt lat="41.965069450850294" lon="13.277912379788107"><ele>1499.0</ele><time>2026-04-24T09:49:52.999Z</time></trkpt><trkpt lat="41.96503354560875" lon="13.278046627773987"><ele>1496.8000000000002</ele><time>2026-04-24T09:49:53.999Z</time></trkpt><trkpt lat="41.96498244667049" lon="13.278191626609866"><ele>1494.6000000000001</ele><time>2026-04-24T09:49:54.999Z</time></trkpt><trkpt lat="41.964935581521615" lon="13.278338445876859"><ele>1492.4</ele><time>2026-04-24T09:49:55.999Z</time></trkpt><trkpt lat="41.964888811807896" lon="13.278463718026677"><ele>1490.2</ele><time>2026-04-24T09:49:56.999Z</time></trkpt><trkpt lat="41.96486341703938" lon="13.278573290356983"><ele>1488.0</ele><time>2026-04-24T09:49:57.999Z</time></trkpt><trkpt lat="41.96483412982891" lon="13.278672338002446"><ele>1488.0</ele><time>2026-04-24T09:49:58.999Z</time></trkpt><trkpt lat="41.96477507491726" lon="13.278789041674814"><ele>1488.0</ele><time>2026-04-24T09:49:59.999Z</time></trkpt><trkpt lat="41.96471191123569" lon="13.278898295410333"><ele>1488.0</ele><time>2026-04-24T09:50:00.999Z</time></trkpt><trkpt lat="41.964662981509285" lon="13.279016915208958"><ele>1488.0</ele><time>2026-04-24T09:50:01.999Z</time></trkpt><trkpt lat="41.9646224059663" lon="13.279119789054468"><ele>1488.0</ele><time>2026-04-24T09:50:02.999Z</time></trkpt><trkpt lat="41.96457761007947" lon="13.279204983161138"><ele>1487.0</ele><time>2026-04-24T09:50:03.999Z</time></trkpt><trkpt lat="41.96453382842563" lon="13.279268734809937"><ele>1486.0</ele><time>2026-04-24T09:50:04.999Z</time></trkpt><trkpt lat="41.96445932090089" lon="13.279325621880545"><ele>1485.0</ele><time>2026-04-24T09:50:05.999Z</time></trkpt><trkpt lat="41.96436818395437" lon="13.279377340124"><ele>1484.0</ele><time>2026-04-24T09:50:06.999Z</time></trkpt><trkpt lat="41.964290273777756" lon="13.279417394542035"><ele>1483.0</ele><time>2026-04-24T09:50:07.999Z</time></trkpt><trkpt lat="41.96422395443616" lon="13.27945569349938"><ele>1482.0</ele><time>2026-04-24T09:50:08.999Z</time></trkpt><trkpt lat="41.96417760764999" lon="13.279547800280566"><ele>1482.0</ele><time>2026-04-24T09:50:11.999Z</time></trkpt><trkpt lat="41.96412741071423" lon="13.279653586956565"><ele>1482.0</ele><time>2026-04-24T09:50:13.999Z</time></trkpt><trkpt lat="41.964008088583206" lon="13.279722208411501"><ele>1482.0</ele><time>2026-04-24T09:50:15.999Z</time></trkpt><trkpt lat="41.96392804174096" lon="13.279752150066054"><ele>1482.0</ele><time>2026-04-24T09:50:16.999Z</time></trkpt><trkpt lat="41.9638657097056" lon="13.279764854081252"><ele>1482.0</ele><time>2026-04-24T09:50:17.999Z</time></trkpt><trkpt lat="41.96376941430206" lon="13.27985232335651"><ele>1487.0</ele><time>2026-04-24T09:50:19.999Z</time></trkpt><trkpt lat="41.96370838538056" lon="13.279914932049087"><ele>1492.0</ele><time>2026-04-24T09:50:20.999Z</time></trkpt><trkpt lat="41.9636505788498" lon="13.28000386412082"><ele>1497.0</ele><time>2026-04-24T09:50:21.999Z</time></trkpt><trkpt lat="41.96360426793657" lon="13.28016926057121"><ele>1502.0</ele><time>2026-04-24T09:50:24Z</time></trkpt><trkpt lat="41.96354803572103" lon="13.28031982428466"><ele>1507.0</ele><time>2026-04-24T09:50:26Z</time></trkpt><trkpt lat="41.96347922092454" lon="13.28040405022715"><ele>1507.0</ele><time>2026-04-24T09:50:27Z</time></trkpt><trkpt lat="41.96340247895302" lon="13.280476525713242"><ele>1507.0</ele><time>2026-04-24T09:50:28Z</time></trkpt><trkpt lat="41.96332637228694" lon="13.280554828708661"><ele>1507.0</ele><time>2026-04-24T09:50:29Z</time></trkpt><trkpt lat="41.96326767343349" lon="13.280616980441739"><ele>1507.0</ele><time>2026-04-24T09:50:30Z</time></trkpt><trkpt lat="41.96320081693375" lon="13.280708464798348"><ele>1507.0</ele><time>2026-04-24T09:50:32Z</time></trkpt><trkpt lat="41.96315918693176" lon="13.280787120354114"><ele>1507.0</ele><time>2026-04-24T09:50:33Z</time></trkpt><trkpt lat="41.96313406220591" lon="13.280923364481131"><ele>1506.8</ele><time>2026-04-24T09:50:35Z</time></trkpt><trkpt lat="41.96310314680945" lon="13.281090607152533"><ele>1506.6</ele><time>2026-04-24T09:50:38Z</time></trkpt><trkpt lat="41.963058426300705" lon="13.28117440848841"><ele>1506.3999999999999</ele><time>2026-04-24T09:50:39Z</time></trkpt><trkpt lat="41.963025913391235" lon="13.28128197032558"><ele>1506.1999999999998</ele><time>2026-04-24T09:50:40Z</time></trkpt><trkpt lat="41.96300576635609" lon="13.281396602060404"><ele>1506.0</ele><time>2026-04-24T09:50:41Z</time></trkpt><trkpt lat="41.96297722353195" lon="13.281515139712427"><ele>1510.8</ele><time>2026-04-24T09:50:42Z</time></trkpt><trkpt lat="41.96294363960874" lon="13.281655319054325"><ele>1515.6</ele><time>2026-04-24T09:50:43Z</time></trkpt><trkpt lat="41.96291758269578" lon="13.281773904720762"><ele>1520.4</ele><time>2026-04-24T09:50:44Z</time></trkpt><trkpt lat="41.96289713246528" lon="13.281893290643293"><ele>1525.2</ele><time>2026-04-24T09:50:45Z</time></trkpt><trkpt lat="41.96278415340617" lon="13.282028740832995"><ele>1530.0</ele><time>2026-04-24T09:50:46Z</time></trkpt><trkpt lat="41.96272787696543" lon="13.282096939687118"><ele>1530.0</ele><time>2026-04-24T09:50:47Z</time></trkpt><trkpt lat="41.96266369490556" lon="13.282183268661436"><ele>1530.0</ele><time>2026-04-24T09:50:48Z</time></trkpt><trkpt lat="41.962591016487636" lon="13.282281618349838"><ele>1530.0</ele><time>2026-04-24T09:50:49Z</time></trkpt><trkpt lat="41.96253394509727" lon="13.282353681024007"><ele>1530.0</ele><time>2026-04-24T09:50:50Z</time></trkpt><trkpt lat="41.962497388227966" lon="13.282436640299583"><ele>1530.0</ele><time>2026-04-24T09:50:51Z</time></trkpt><trkpt lat="41.9624640220117" lon="13.282532738021494"><ele>1530.0</ele><time>2026-04-24T09:50:52Z</time></trkpt><trkpt lat="41.96242938253876" lon="13.282634282637403"><ele>1531.0</ele><time>2026-04-24T09:50:53Z</time></trkpt><trkpt lat="41.962409351859044" lon="13.282715470811306"><ele>1532.0</ele><time>2026-04-24T09:50:54Z</time></trkpt><trkpt lat="41.9623567395553" lon="13.282819683453265"><ele>1533.0</ele><time>2026-04-24T09:50:55Z</time></trkpt><trkpt lat="41.96228951805763" lon="13.282937780732878"><ele>1534.0</ele><time>2026-04-24T09:50:56Z</time></trkpt><trkpt lat="41.962207683788094" lon="13.283060678610923"><ele>1535.0</ele><time>2026-04-24T09:50:57Z</time></trkpt><trkpt lat="41.96215054076118" lon="13.283168544991385"><ele>1535.0</ele><time>2026-04-24T09:50:58Z</time></trkpt><trkpt lat="41.96209682055527" lon="13.283269735775397"><ele>1535.0</ele><time>2026-04-24T09:50:59Z</time></trkpt><trkpt lat="41.96204137825468" lon="13.283358591549355"><ele>1535.0</ele><time>2026-04-24T09:51:00Z</time></trkpt><trkpt lat="41.96197843958482" lon="13.283442523341765"><ele>1535.0</ele><time>2026-04-24T09:51:01Z</time></trkpt><trkpt lat="41.96192066443247" lon="13.283516339519466"><ele>1535.0</ele><time>2026-04-24T09:51:02Z</time></trkpt><trkpt lat="41.96186568683909" lon="13.283582451859262"><ele>1535.0</ele><time>2026-04-24T09:51:03Z</time></trkpt><trkpt lat="41.96181038237894" lon="13.28364509874148"><ele>1535.0</ele><time>2026-04-24T09:51:04Z</time></trkpt><trkpt lat="41.96170752496618" lon="13.28372795151655"><ele>1535.0</ele><time>2026-04-24T09:51:06Z</time></trkpt><trkpt lat="41.96163252939307" lon="13.283847610968738"><ele>1535.0</ele><time>2026-04-24T09:51:08Z</time></trkpt><trkpt lat="41.961548925933336" lon="13.283936723079357"><ele>1535.0</ele><time>2026-04-24T09:51:10Z</time></trkpt><trkpt lat="41.96147926873562" lon="13.284000586291755"><ele>1535.0</ele><time>2026-04-24T09:51:12Z</time></trkpt><trkpt lat="41.961410853412616" lon="13.284084074177635"><ele>1531.2</ele><time>2026-04-24T09:51:14Z</time></trkpt><trkpt lat="41.96134644233159" lon="13.284177984634702"><ele>1527.4</ele><time>2026-04-24T09:51:16Z</time></trkpt><trkpt lat="41.9612773650301" lon="13.284276305680658"><ele>1523.6</ele><time>2026-04-24T09:51:18Z</time></trkpt><trkpt lat="41.96119040782876" lon="13.284347775853266"><ele>1519.8</ele><time>2026-04-24T09:51:20Z</time></trkpt><trkpt lat="41.96112297999757" lon="13.284422308894085"><ele>1516.0</ele><time>2026-04-24T09:51:22Z</time></trkpt><trkpt lat="41.96104564913116" lon="13.28448885603146"><ele>1516.0</ele><time>2026-04-24T09:51:24Z</time></trkpt><trkpt lat="41.960992034000654" lon="13.28463002800158"><ele>1516.0</ele><time>2026-04-24T09:51:27Z</time></trkpt><trkpt lat="41.96094208751394" lon="13.28469159150391"><ele>1516.0</ele><time>2026-04-24T09:51:28Z</time></trkpt><trkpt lat="41.960919537497595" lon="13.284838736984817"><ele>1516.0</ele><time>2026-04-24T09:51:30Z</time></trkpt><trkpt lat="41.960850137011946" lon="13.284950744616765"><ele>1516.0</ele><time>2026-04-24T09:51:32Z</time></trkpt><trkpt lat="41.96079262370106" lon="13.284991992904628"><ele>1509.5</ele><time>2026-04-24T09:51:33Z</time></trkpt><trkpt lat="41.960684245698644" lon="13.285067854584641"><ele>1503.0</ele><time>2026-04-24T09:51:35Z</time></trkpt><trkpt lat="41.96059359002104" lon="13.285183485929414"><ele>1496.5</ele><time>2026-04-24T09:51:37Z</time></trkpt><trkpt lat="41.96055276973276" lon="13.28534473738969"><ele>1490.0</ele><time>2026-04-24T09:51:39Z</time></trkpt><trkpt lat="41.960518300221786" lon="13.285441207078534"><ele>1490.0</ele><time>2026-04-24T09:51:40Z</time></trkpt><trkpt lat="41.960472356050445" lon="13.285535670350859"><ele>1490.0</ele><time>2026-04-24T09:51:40.999Z</time></trkpt><trkpt lat="41.96037776294721" lon="13.285642043037743"><ele>1490.0</ele><time>2026-04-24T09:51:42.999Z</time></trkpt><trkpt lat="41.960312175310385" lon="13.285664630833718"><ele>1490.0</ele><time>2026-04-24T09:51:43.999Z</time></trkpt><trkpt lat="41.960228167240125" lon="13.285691202093282"><ele>1490.0</ele><time>2026-04-24T09:51:44.999Z</time></trkpt><trkpt lat="41.96012772827477" lon="13.28572640673314"><ele>1488.0</ele><time>2026-04-24T09:51:45.999Z</time></trkpt><trkpt lat="41.96004963521234" lon="13.285771669827296"><ele>1486.0</ele><time>2026-04-24T09:51:46.999Z</time></trkpt><trkpt lat="41.95994673603083" lon="13.285886593029542"><ele>1484.0</ele><time>2026-04-24T09:51:48.999Z</time></trkpt><trkpt lat="41.959869744530145" lon="13.285944108437896"><ele>1482.0</ele><time>2026-04-24T09:51:49.999Z</time></trkpt><trkpt lat="41.959815907467316" lon="13.285995618295372"><ele>1480.0</ele><time>2026-04-24T09:51:50.999Z</time></trkpt><trkpt lat="41.959760596001" lon="13.286116923082245"><ele>1480.0</ele><time>2026-04-24T09:51:52.999Z</time></trkpt><trkpt lat="41.95971549302375" lon="13.286297603711024"><ele>1480.0</ele><time>2026-04-24T09:51:54.999Z</time></trkpt><trkpt lat="41.959692026355334" lon="13.286384717889462"><ele>1480.0</ele><time>2026-04-24T09:51:55.999Z</time></trkpt><trkpt lat="41.95966996083152" lon="13.286471007124382"><ele>1480.0</ele><time>2026-04-24T09:51:56.999Z</time></trkpt><trkpt lat="41.9596305911901" lon="13.286543869082017"><ele>1480.0</ele><time>2026-04-24T09:51:57.999Z</time></trkpt><trkpt lat="41.95956863019379" lon="13.286592372910675"><ele>1480.0</ele><time>2026-04-24T09:51:58.999Z</time></trkpt><trkpt lat="41.95950552831419" lon="13.286633409999837"><ele>1477.0</ele><time>2026-04-24T09:51:59.999Z</time></trkpt><trkpt lat="41.95943762555027" lon="13.28667480272917"><ele>1474.0</ele><time>2026-04-24T09:52:00.999Z</time></trkpt><trkpt lat="41.95936312654127" lon="13.286803481255152"><ele>1471.0</ele><time>2026-04-24T09:52:02.999Z</time></trkpt><trkpt lat="41.95932660110606" lon="13.286880126594031"><ele>1468.0</ele><time>2026-04-24T09:52:03.999Z</time></trkpt><trkpt lat="41.95925540243396" lon="13.287035051829596"><ele>1465.0</ele><time>2026-04-24T09:52:05.999Z</time></trkpt><trkpt lat="41.95916772895737" lon="13.287142883131638"><ele>1465.0</ele><time>2026-04-24T09:52:07.999Z</time></trkpt><trkpt lat="41.959139071761946" lon="13.287243468995376"><ele>1465.0</ele><time>2026-04-24T09:52:09.999Z</time></trkpt><trkpt lat="41.95908388684159" lon="13.287408278589426"><ele>1465.0</ele><time>2026-04-24T09:52:10.999Z</time></trkpt><trkpt lat="41.959056060482766" lon="13.287515966013633"><ele>1465.0</ele><time>2026-04-24T09:52:11.999Z</time></trkpt><trkpt lat="41.959037744801776" lon="13.287635533904865"><ele>1465.0</ele><time>2026-04-24T09:52:12.999Z</time></trkpt><trkpt lat="41.959015182212696" lon="13.287751486474734"><ele>1467.6</ele><time>2026-04-24T09:52:13.999Z</time></trkpt><trkpt lat="41.95900380440934" lon="13.287866877045246"><ele>1470.2</ele><time>2026-04-24T09:52:14.999Z</time></trkpt><trkpt lat="41.958984669240515" lon="13.287997072679687"><ele>1472.8000000000002</ele><time>2026-04-24T09:52:15.999Z</time></trkpt><trkpt lat="41.958982417288695" lon="13.288131163457019"><ele>1475.4</ele><time>2026-04-24T09:52:16.999Z</time></trkpt><trkpt lat="41.95898123532778" lon="13.288267598574958"><ele>1478.0</ele><time>2026-04-24T09:52:17.999Z</time></trkpt><trkpt lat="41.95897757843955" lon="13.288405214346316"><ele>1478.8333333333335</ele><time>2026-04-24T09:52:18.999Z</time></trkpt><trkpt lat="41.95898299324697" lon="13.288533550108781"><ele>1479.6666666666667</ele><time>2026-04-24T09:52:19.999Z</time></trkpt><trkpt lat="41.95899537253487" lon="13.288636497627198"><ele>1480.5</ele><time>2026-04-24T09:52:20.999Z</time></trkpt><trkpt lat="41.959017573498315" lon="13.28871773505118"><ele>1481.3333333333333</ele><time>2026-04-24T09:52:21.999Z</time></trkpt><trkpt lat="41.95904592820399" lon="13.288811799137253"><ele>1482.1666666666665</ele><time>2026-04-24T09:52:23.999Z</time></trkpt><trkpt lat="41.95906295947148" lon="13.288938003573849"><ele>1483.0</ele><time>2026-04-24T09:52:26.999Z</time></trkpt><trkpt lat="41.95901301643783" lon="13.289070857620544"><ele>1483.0</ele><time>2026-04-24T09:52:29Z</time></trkpt><trkpt lat="41.95897015501829" lon="13.289148938201878"><ele>1483.0</ele><time>2026-04-24T09:52:30Z</time></trkpt><trkpt lat="41.95893721316974" lon="13.289270323629239"><ele>1483.0</ele><time>2026-04-24T09:52:32Z</time></trkpt><trkpt lat="41.958899654408626" lon="13.289360415611016"><ele>1483.0</ele><time>2026-04-24T09:52:34Z</time></trkpt><trkpt lat="41.95880159881581" lon="13.28939447599958"><ele>1483.0</ele><time>2026-04-24T09:52:36Z</time></trkpt><trkpt lat="41.95869604364509" lon="13.289402702565727"><ele>1483.0</ele><time>2026-04-24T09:52:38Z</time></trkpt><trkpt lat="41.95860531222437" lon="13.28949548880877"><ele>1483.0</ele><time>2026-04-24T09:52:40Z</time></trkpt><trkpt lat="41.95854739982017" lon="13.28955443234897"><ele>1483.0</ele><time>2026-04-24T09:52:41Z</time></trkpt><trkpt lat="41.95849808819206" lon="13.289651109046986"><ele>1483.0</ele><time>2026-04-24T09:52:42Z</time></trkpt><trkpt lat="41.95845784820551" lon="13.289765408527987"><ele>1483.0</ele><time>2026-04-24T09:52:43Z</time></trkpt><trkpt lat="41.95842533227784" lon="13.28988128923154"><ele>1482.2</ele><time>2026-04-24T09:52:44Z</time></trkpt><trkpt lat="41.95839929384525" lon="13.290010080455993"><ele>1481.4</ele><time>2026-04-24T09:52:45Z</time></trkpt><trkpt lat="41.95838385335574" lon="13.290119551321562"><ele>1480.6000000000001</ele><time>2026-04-24T09:52:46Z</time></trkpt><trkpt lat="41.95837626474082" lon="13.290218308241991"><ele>1479.8000000000002</ele><time>2026-04-24T09:52:47Z</time></trkpt><trkpt lat="41.95833377391373" lon="13.290332764436199"><ele>1479.0</ele><time>2026-04-24T09:52:49Z</time></trkpt><trkpt lat="41.95821908620697" lon="13.290433450167598"><ele>1479.0</ele><time>2026-04-24T09:52:51Z</time></trkpt><trkpt lat="41.958132291466406" lon="13.29048840947157"><ele>1479.0</ele><time>2026-04-24T09:52:52Z</time></trkpt><trkpt lat="41.95806167413401" lon="13.290550489965828"><ele>1479.0</ele><time>2026-04-24T09:52:53Z</time></trkpt><trkpt lat="41.957989361724174" lon="13.290621439246587"><ele>1479.0</ele><time>2026-04-24T09:52:54Z</time></trkpt><trkpt lat="41.957886269392915" lon="13.29071603639316"><ele>1479.0</ele><time>2026-04-24T09:52:56Z</time></trkpt><trkpt lat="41.957829733088666" lon="13.290773047470168"><ele>1481.3333333333333</ele><time>2026-04-24T09:52:57Z</time></trkpt><trkpt lat="41.95778896607237" lon="13.290842181814343"><ele>1483.6666666666667</ele><time>2026-04-24T09:52:58Z</time></trkpt><trkpt lat="41.957750633501774" lon="13.291011030150118"><ele>1486.0</ele><time>2026-04-24T09:53:00Z</time></trkpt><trkpt lat="41.95773715545316" lon="13.291102105997265"><ele>1488.3333333333335</ele><time>2026-04-24T09:53:01Z</time></trkpt><trkpt lat="41.95772734034942" lon="13.291201426642912"><ele>1490.6666666666667</ele><time>2026-04-24T09:53:02Z</time></trkpt><trkpt lat="41.957731309021476" lon="13.291298193986"><ele>1493.0</ele><time>2026-04-24T09:53:03Z</time></trkpt><trkpt lat="41.95773612338203" lon="13.291403531718265"><ele>1495.5</ele><time>2026-04-24T09:53:04Z</time></trkpt><trkpt lat="41.95774323943414" lon="13.291489827164103"><ele>1498.0</ele><time>2026-04-24T09:53:05Z</time></trkpt><trkpt lat="41.95772714431025" lon="13.291575076778646"><ele>1500.5</ele><time>2026-04-24T09:53:06Z</time></trkpt><trkpt lat="41.95767493819031" lon="13.291680814886208"><ele>1503.0</ele><time>2026-04-24T09:53:07Z</time></trkpt><trkpt lat="41.957624006400465" lon="13.291838345952899"><ele>1505.5</ele><time>2026-04-24T09:53:09Z</time></trkpt><trkpt lat="41.95761101657173" lon="13.291927217049402"><ele>1508.0</ele><time>2026-04-24T09:53:10Z</time></trkpt><trkpt lat="41.95755644989218" lon="13.292040774047942"><ele>1504.3333333333335</ele><time>2026-04-24T09:53:12Z</time></trkpt><trkpt lat="41.957465361287454" lon="13.292051476612455"><ele>1500.6666666666667</ele><time>2026-04-24T09:53:14Z</time></trkpt><trkpt lat="41.957395862612216" lon="13.292041390843497"><ele>1497.0</ele><time>2026-04-24T09:53:15Z</time></trkpt><trkpt lat="41.95733270058762" lon="13.29202067816923"><ele>1493.3333333333333</ele><time>2026-04-24T09:53:16Z</time></trkpt><trkpt lat="41.95727000540243" lon="13.291985063405209"><ele>1489.6666666666665</ele><time>2026-04-24T09:53:17Z</time></trkpt><trkpt lat="41.95719688032332" lon="13.291927073365935"><ele>1486.0</ele><time>2026-04-24T09:53:18Z</time></trkpt><trkpt lat="41.957063538012626" lon="13.291898427630944"><ele>1486.0</ele><time>2026-04-24T09:53:20Z</time></trkpt><trkpt lat="41.95699177525234" lon="13.291913392755081"><ele>1486.0</ele><time>2026-04-24T09:53:21Z</time></trkpt><trkpt lat="41.95690054991799" lon="13.29192329400929"><ele>1486.0</ele><time>2026-04-24T09:53:22Z</time></trkpt><trkpt lat="41.95681353952524" lon="13.291939085511476"><ele>1486.0</ele><time>2026-04-24T09:53:23Z</time></trkpt><trkpt lat="41.956737173963994" lon="13.291975172789833"><ele>1486.0</ele><time>2026-04-24T09:53:25Z</time></trkpt><trkpt lat="41.95671118631509" lon="13.29211322039534"><ele>1486.0</ele><time>2026-04-24T09:53:28Z</time></trkpt><trkpt lat="41.95669797490473" lon="13.292197673382663"><ele>1488.1999999999998</ele><time>2026-04-24T09:53:29Z</time></trkpt><trkpt lat="41.956678598409916" lon="13.29228611286997"><ele>1490.3999999999999</ele><time>2026-04-24T09:53:29.999Z</time></trkpt><trkpt lat="41.956596586218915" lon="13.292391206073866"><ele>1492.6</ele><time>2026-04-24T09:53:31.999Z</time></trkpt><trkpt lat="41.95647804433114" lon="13.292413601841218"><ele>1494.8</ele><time>2026-04-24T09:53:33.999Z</time></trkpt><trkpt lat="41.956375789517644" lon="13.292342091546"><ele>1497.0</ele><time>2026-04-24T09:53:35.999Z</time></trkpt><trkpt lat="41.95625888969715" lon="13.292299179381253"><ele>1497.0</ele><time>2026-04-24T09:53:37.999Z</time></trkpt><trkpt lat="41.95612454796283" lon="13.29228316190812"><ele>1497.0</ele><time>2026-04-24T09:53:39.999Z</time></trkpt><trkpt lat="41.956004100498156" lon="13.292258145798758"><ele>1497.0</ele><time>2026-04-24T09:53:41.999Z</time></trkpt><trkpt lat="41.95593917414638" lon="13.292250084816796"><ele>1497.0</ele><time>2026-04-24T09:53:42.999Z</time></trkpt><trkpt lat="41.955872298041115" lon="13.29223535620362"><ele>1497.0</ele><time>2026-04-24T09:53:43.999Z</time></trkpt><trkpt lat="41.95579403721255" lon="13.292225571792212"><ele>1496.5714285714284</ele><time>2026-04-24T09:53:44.999Z</time></trkpt><trkpt lat="41.955709822165254" lon="13.292232512282073"><ele>1496.142857142857</ele><time>2026-04-24T09:53:45.999Z</time></trkpt><trkpt lat="41.95563306343125" lon="13.292248542633843"><ele>1495.7142857142858</ele><time>2026-04-24T09:53:46.999Z</time></trkpt><trkpt lat="41.955569264630604" lon="13.292275607094755"><ele>1495.2857142857142</ele><time>2026-04-24T09:53:47.999Z</time></trkpt><trkpt lat="41.95551585102144" lon="13.29232640959735"><ele>1494.857142857143</ele><time>2026-04-24T09:53:48.999Z</time></trkpt><trkpt lat="41.955461628141784" lon="13.29239554394115"><ele>1494.4285714285713</ele><time>2026-04-24T09:53:49.999Z</time></trkpt><trkpt lat="41.95542791774756" lon="13.292468614628572"><ele>1494.0</ele><time>2026-04-24T09:53:50.999Z</time></trkpt><trkpt lat="41.955406328529094" lon="13.292557384451769"><ele>1494.0</ele><time>2026-04-24T09:53:51.999Z</time></trkpt><trkpt lat="41.95538318700087" lon="13.29265961224122"><ele>1494.0</ele><time>2026-04-24T09:53:52.999Z</time></trkpt><trkpt lat="41.95535328308784" lon="13.29274646444495"><ele>1494.0</ele><time>2026-04-24T09:53:53.999Z</time></trkpt><trkpt lat="41.95525958739239" lon="13.29285173635036"><ele>1494.0</ele><time>2026-04-24T09:53:55.999Z</time></trkpt><trkpt lat="41.95518880916185" lon="13.292879631903176"><ele>1494.0</ele><time>2026-04-24T09:53:56.999Z</time></trkpt><trkpt lat="41.95510962571629" lon="13.292882665940722"><ele>1494.0</ele><time>2026-04-24T09:53:57.999Z</time></trkpt><trkpt lat="41.95503383494969" lon="13.292862282966617"><ele>1493.5</ele><time>2026-04-24T09:53:58.999Z</time></trkpt><trkpt lat="41.95491448692836" lon="13.292867113984272"><ele>1493.0</ele><time>2026-04-24T09:54:00.999Z</time></trkpt><trkpt lat="41.954853583512964" lon="13.29290448781325"><ele>1492.5</ele><time>2026-04-24T09:54:01.999Z</time></trkpt><trkpt lat="41.95481533479958" lon="13.29297227242036"><ele>1492.0</ele><time>2026-04-24T09:54:02.999Z</time></trkpt><trkpt lat="41.9547726569413" lon="13.293140713937108"><ele>1491.5</ele><time>2026-04-24T09:54:04.999Z</time></trkpt><trkpt lat="41.95476839492117" lon="13.293227233545188"><ele>1491.0</ele><time>2026-04-24T09:54:05.999Z</time></trkpt><trkpt lat="41.95477400633968" lon="13.293362938247528"><ele>1491.0</ele><time>2026-04-24T09:54:07.999Z</time></trkpt><trkpt lat="41.95474647623639" lon="13.29355225267574"><ele>1491.0</ele><time>2026-04-24T09:54:09.999Z</time></trkpt><trkpt lat="41.954686500648435" lon="13.293628492102215"><ele>1491.0</ele><time>2026-04-24T09:54:10.999Z</time></trkpt><trkpt lat="41.95463255761194" lon="13.293712504852396"><ele>1491.0</ele><time>2026-04-24T09:54:11.999Z</time></trkpt><trkpt lat="41.95456184866733" lon="13.293820166637332"><ele>1491.0</ele><time>2026-04-24T09:54:12.999Z</time></trkpt><trkpt lat="41.954496035635785" lon="13.293904032430927"><ele>1490.0</ele><time>2026-04-24T09:54:13.999Z</time></trkpt><trkpt lat="41.95443963151687" lon="13.293979820790728"><ele>1489.0</ele><time>2026-04-24T09:54:14.999Z</time></trkpt><trkpt lat="41.95437716787163" lon="13.29401419149011"><ele>1488.0</ele><time>2026-04-24T09:54:15.999Z</time></trkpt><trkpt lat="41.95430593788556" lon="13.294067024786004"><ele>1487.0</ele><time>2026-04-24T09:54:16.999Z</time></trkpt><trkpt lat="41.954235839104506" lon="13.294139398576117"><ele>1486.0</ele><time>2026-04-24T09:54:17.999Z</time></trkpt><trkpt lat="41.95417022419653" lon="13.294229548794444"><ele>1485.0</ele><time>2026-04-24T09:54:18.999Z</time></trkpt><trkpt lat="41.954122256514154" lon="13.294325658975735"><ele>1485.0</ele><time>2026-04-24T09:54:19.999Z</time></trkpt><trkpt lat="41.954082567960874" lon="13.294434031435715"><ele>1485.0</ele><time>2026-04-24T09:54:20.999Z</time></trkpt><trkpt lat="41.95404662517128" lon="13.294540267724486"><ele>1485.0</ele><time>2026-04-24T09:54:21.999Z</time></trkpt><trkpt lat="41.954008776735584" lon="13.294655326683229"><ele>1485.0</ele><time>2026-04-24T09:54:22.999Z</time></trkpt><trkpt lat="41.953976035472785" lon="13.294759992071308"><ele>1485.0</ele><time>2026-04-24T09:54:23.999Z</time></trkpt><trkpt lat="41.953944540535616" lon="13.294833858104077"><ele>1485.0</ele><time>2026-04-24T09:54:24.999Z</time></trkpt><trkpt lat="41.9538826368547" lon="13.294917229775557"><ele>1486.3333333333333</ele><time>2026-04-24T09:54:25.999Z</time></trkpt><trkpt lat="41.95380486326752" lon="13.294986263264095"><ele>1487.6666666666667</ele><time>2026-04-24T09:54:26.999Z</time></trkpt><trkpt lat="41.95372099203792" lon="13.29503984996185"><ele>1489.0</ele><time>2026-04-24T09:54:27.999Z</time></trkpt><trkpt lat="41.95363417979765" lon="13.295078636512498"><ele>1490.3333333333335</ele><time>2026-04-24T09:54:28.999Z</time></trkpt><trkpt lat="41.95354941062006" lon="13.29510645665046"><ele>1491.6666666666667</ele><time>2026-04-24T09:54:29.999Z</time></trkpt><trkpt lat="41.95348030535749" lon="13.295123574001801"><ele>1493.0</ele><time>2026-04-24T09:54:30.999Z</time></trkpt><trkpt lat="41.95341135667638" lon="13.295125287525588"><ele>1490.8000000000002</ele><time>2026-04-24T09:54:31.999Z</time></trkpt><trkpt lat="41.95334308613419" lon="13.295109077434153"><ele>1488.6</ele><time>2026-04-24T09:54:32.999Z</time></trkpt><trkpt lat="41.953232706246645" lon="13.295097780058752"><ele>1486.4</ele><time>2026-04-24T09:54:35Z</time></trkpt><trkpt lat="41.953166639836084" lon="13.295092638217369"><ele>1484.1999999999998</ele><time>2026-04-24T09:54:36Z</time></trkpt><trkpt lat="41.95305369408682" lon="13.295102853048197"><ele>1482.0</ele><time>2026-04-24T09:54:38Z</time></trkpt><trkpt lat="41.952958406708" lon="13.29511058015613"><ele>1482.0</ele><time>2026-04-24T09:54:40Z</time></trkpt><trkpt lat="41.95286523539592" lon="13.295215835888243"><ele>1482.0</ele><time>2026-04-24T09:54:42Z</time></trkpt><trkpt lat="41.952816471009235" lon="13.29529020461145"><ele>1482.0</ele><time>2026-04-24T09:54:43Z</time></trkpt><trkpt lat="41.952750270382076" lon="13.295340760558528"><ele>1482.0</ele><time>2026-04-24T09:54:44Z</time></trkpt><trkpt lat="41.952674346430825" lon="13.29538256450855"><ele>1482.0</ele><time>2026-04-24T09:54:45Z</time></trkpt><trkpt lat="41.95259243957622" lon="13.295428217651168"><ele>1482.0</ele><time>2026-04-24T09:54:46Z</time></trkpt><trkpt lat="41.95250484875871" lon="13.295472254022158"><ele>1482.3333333333333</ele><time>2026-04-24T09:54:47Z</time></trkpt><trkpt lat="41.95242039941906" lon="13.29552046372388"><ele>1482.6666666666667</ele><time>2026-04-24T09:54:48Z</time></trkpt><trkpt lat="41.952342768714" lon="13.295570293910739"><ele>1483.0</ele><time>2026-04-24T09:54:49Z</time></trkpt><trkpt lat="41.952276274848145" lon="13.295627087816035"><ele>1483.3333333333335</ele><time>2026-04-24T09:54:50Z</time></trkpt><trkpt lat="41.952203854726186" lon="13.295662985816522"><ele>1483.6666666666667</ele><time>2026-04-24T09:54:51Z</time></trkpt><trkpt lat="41.95214143943878" lon="13.295683325329366"><ele>1484.0</ele><time>2026-04-24T09:54:52Z</time></trkpt><trkpt lat="41.952043119151035" lon="13.29575249456729"><ele>1483.3333333333335</ele><time>2026-04-24T09:54:54Z</time></trkpt><trkpt lat="41.951975716911846" lon="13.29587478423776"><ele>1482.6666666666667</ele><time>2026-04-24T09:54:56Z</time></trkpt><trkpt lat="41.95193637833518" lon="13.296026640393048"><ele>1482.0</ele><time>2026-04-24T09:54:58Z</time></trkpt><trkpt lat="41.95192071330209" lon="13.29611056907109"><ele>1481.3333333333333</ele><time>2026-04-24T09:54:59Z</time></trkpt><trkpt lat="41.951900155612144" lon="13.29619829565221"><ele>1480.6666666666665</ele><time>2026-04-24T09:55:00Z</time></trkpt><trkpt lat="41.95187493017262" lon="13.29627729664143"><ele>1480.0</ele><time>2026-04-24T09:55:01Z</time></trkpt><trkpt lat="41.95183652468103" lon="13.296362601630497"><ele>1479.6</ele><time>2026-04-24T09:55:02Z</time></trkpt><trkpt lat="41.951798082819664" lon="13.296436035977292"><ele>1479.2</ele><time>2026-04-24T09:55:03Z</time></trkpt><trkpt lat="41.951773881975036" lon="13.296561471530984"><ele>1478.8000000000002</ele><time>2026-04-24T09:55:05Z</time></trkpt><trkpt lat="41.95176189518396" lon="13.296680981235733"><ele>1478.4</ele><time>2026-04-24T09:55:07Z</time></trkpt><trkpt lat="41.951728793090496" lon="13.296830898468436"><ele>1478.0</ele><time>2026-04-24T09:55:09Z</time></trkpt><trkpt lat="41.95171587581599" lon="13.296979142737502"><ele>1478.2</ele><time>2026-04-24T09:55:11Z</time></trkpt><trkpt lat="41.9516919830894" lon="13.297110305410445"><ele>1478.4</ele><time>2026-04-24T09:55:13Z</time></trkpt><trkpt lat="41.9516656489521" lon="13.297243178398055"><ele>1478.6000000000001</ele><time>2026-04-24T09:55:15Z</time></trkpt><trkpt lat="41.95164624210637" lon="13.29735646622574"><ele>1478.8000000000002</ele><time>2026-04-24T09:55:17Z</time></trkpt><trkpt lat="41.95167815736466" lon="13.297491567328011"><ele>1479.0</ele><time>2026-04-24T09:55:19Z</time></trkpt><trkpt lat="41.95170748029921" lon="13.297614020163776"><ele>1479.0</ele><time>2026-04-24T09:55:21Z</time></trkpt><trkpt lat="41.95172918258323" lon="13.297748659220096"><ele>1479.0</ele><time>2026-04-24T09:55:23Z</time></trkpt><trkpt lat="41.95176468844074" lon="13.29787975590062"><ele>1479.0</ele><time>2026-04-24T09:55:25Z</time></trkpt><trkpt lat="41.95179668565737" lon="13.297981147197596"><ele>1479.0</ele><time>2026-04-24T09:55:27Z</time></trkpt><trkpt lat="41.95180862423853" lon="13.298081449023057"><ele>1479.0</ele><time>2026-04-24T09:55:29Z</time></trkpt><trkpt lat="41.951752716749304" lon="13.29816974028395"><ele>1478.5</ele><time>2026-04-24T09:55:31Z</time></trkpt><trkpt lat="41.95168130127175" lon="13.2981921276908"><ele>1478.0</ele><time>2026-04-24T09:55:33.999Z</time></trkpt><trkpt lat="41.95159787625923" lon="13.298163977487672"><ele>1477.5</ele><time>2026-04-24T09:56:21.999Z</time></trkpt><trkpt lat="41.95150522282798" lon="13.298114365064723"><ele>1477.0</ele><time>2026-04-24T09:56:23.999Z</time></trkpt><trkpt lat="41.95142089998899" lon="13.298082719458936"><ele>1476.5</ele><time>2026-04-24T09:56:25.999Z</time></trkpt><trkpt lat="41.95132141419464" lon="13.298053730079248"><ele>1476.0</ele><time>2026-04-24T09:56:27.999Z</time></trkpt><trkpt lat="41.951226497672245" lon="13.29804341274666"><ele>1475.1666666666667</ele><time>2026-04-24T09:56:29.999Z</time></trkpt><trkpt lat="41.95111004402971" lon="13.298034491002662"><ele>1474.3333333333333</ele><time>2026-04-24T09:56:31.999Z</time></trkpt><trkpt lat="41.951039989933065" lon="13.298035630900642"><ele>1473.5</ele><time>2026-04-24T09:56:32.999Z</time></trkpt><trkpt lat="41.950970862719416" lon="13.298034598123197"><ele>1472.6666666666665</ele><time>2026-04-24T09:56:33.999Z</time></trkpt><trkpt lat="41.95089739423975" lon="13.298043720453764"><ele>1471.8333333333333</ele><time>2026-04-24T09:56:34.999Z</time></trkpt><trkpt lat="41.9508199212451" lon="13.298057166249448"><ele>1471.0</ele><time>2026-04-24T09:56:35.999Z</time></trkpt><trkpt lat="41.95073853190599" lon="13.298063355077272"><ele>1470.5</ele><time>2026-04-24T09:56:36.999Z</time></trkpt><trkpt lat="41.950656661820766" lon="13.298073169221619"><ele>1470.0</ele><time>2026-04-24T09:56:37.999Z</time></trkpt><trkpt lat="41.950579367133734" lon="13.298086560199689"><ele>1469.5</ele><time>2026-04-24T09:56:38.999Z</time></trkpt><trkpt lat="41.95051030188726" lon="13.298097906634581"><ele>1469.0</ele><time>2026-04-24T09:56:39.999Z</time></trkpt><trkpt lat="41.95043749741958" lon="13.298100033646556"><ele>1468.5</ele><time>2026-04-24T09:56:41Z</time></trkpt><trkpt lat="41.95036408085124" lon="13.298090810789652"><ele>1468.0</ele><time>2026-04-24T09:56:42Z</time></trkpt><trkpt lat="41.95028874792285" lon="13.298074681170931"><ele>1468.0</ele><time>2026-04-24T09:56:43Z</time></trkpt><trkpt lat="41.9502077162226" lon="13.298047641916721"><ele>1468.0</ele><time>2026-04-24T09:56:44Z</time></trkpt><trkpt lat="41.95013139571498" lon="13.298011803142076"><ele>1468.0</ele><time>2026-04-24T09:56:45Z</time></trkpt><trkpt lat="41.95005488264994" lon="13.297962349701669"><ele>1468.0</ele><time>2026-04-24T09:56:46Z</time></trkpt><trkpt lat="41.94998398981555" lon="13.297911145872176"><ele>1468.0</ele><time>2026-04-24T09:56:47Z</time></trkpt><trkpt lat="41.94991757885908" lon="13.2978605097985"><ele>1468.0</ele><time>2026-04-24T09:56:48Z</time></trkpt><trkpt lat="41.94984641494405" lon="13.297806125158065"><ele>1467.3333333333333</ele><time>2026-04-24T09:56:49Z</time></trkpt><trkpt lat="41.94977513879693" lon="13.29774431657833"><ele>1466.6666666666665</ele><time>2026-04-24T09:56:50Z</time></trkpt><trkpt lat="41.949699577459974" lon="13.297673456587736"><ele>1466.0</ele><time>2026-04-24T09:56:51Z</time></trkpt><trkpt lat="41.94963147274546" lon="13.297616231495727"><ele>1465.3333333333333</ele><time>2026-04-24T09:56:52Z</time></trkpt><trkpt lat="41.94955343438587" lon="13.297559801702063"><ele>1464.6666666666667</ele><time>2026-04-24T09:56:53Z</time></trkpt><trkpt lat="41.949479638272166" lon="13.297516984107993"><ele>1464.0</ele><time>2026-04-24T09:56:54Z</time></trkpt><trkpt lat="41.9494086612976" lon="13.297461839710238"><ele>1464.0</ele><time>2026-04-24T09:56:55Z</time></trkpt><trkpt lat="41.949344100039646" lon="13.297398396548296"><ele>1464.0</ele><time>2026-04-24T09:56:56Z</time></trkpt><trkpt lat="41.9492889362361" lon="13.297351836886708"><ele>1464.0</ele><time>2026-04-24T09:56:57Z</time></trkpt><trkpt lat="41.949223685640874" lon="13.297305028453737"><ele>1464.0</ele><time>2026-04-24T09:56:58Z</time></trkpt><trkpt lat="41.94915834378583" lon="13.297273090031897"><ele>1464.0</ele><time>2026-04-24T09:56:59Z</time></trkpt><trkpt lat="41.94909351101282" lon="13.297250846974332"><ele>1464.0</ele><time>2026-04-24T09:57:00Z</time></trkpt><trkpt lat="41.94902420924597" lon="13.29722763919189"><ele>1464.0</ele><time>2026-04-24T09:57:01Z</time></trkpt><trkpt lat="41.948955385980625" lon="13.297197203280367"><ele>1464.0</ele><time>2026-04-24T09:57:02Z</time></trkpt><trkpt lat="41.94889329283717" lon="13.297168855044262"><ele>1464.0</ele><time>2026-04-24T09:57:03Z</time></trkpt><trkpt lat="41.948831873880955" lon="13.297140471547893"><ele>1464.0</ele><time>2026-04-24T09:57:04Z</time></trkpt><trkpt lat="41.94876406723303" lon="13.297105812646187"><ele>1464.0</ele><time>2026-04-24T09:57:05Z</time></trkpt><trkpt lat="41.94868911733095" lon="13.297067603441995"><ele>1464.0</ele><time>2026-04-24T09:57:06Z</time></trkpt><trkpt lat="41.94860844215885" lon="13.297033813463182"><ele>1464.0</ele><time>2026-04-24T09:57:07Z</time></trkpt><trkpt lat="41.948531828621476" lon="13.29701075846663"><ele>1464.0</ele><time>2026-04-24T09:57:08Z</time></trkpt><trkpt lat="41.94844895822569" lon="13.29700193406025"><ele>1463.3333333333333</ele><time>2026-04-24T09:57:09Z</time></trkpt><trkpt lat="41.94836717088962" lon="13.297007770573087"><ele>1462.6666666666667</ele><time>2026-04-24T09:57:10Z</time></trkpt><trkpt lat="41.94829143864851" lon="13.29703365552533"><ele>1462.0</ele><time>2026-04-24T09:57:11Z</time></trkpt><trkpt lat="41.9482171332674" lon="13.297082903702925"><ele>1461.3333333333335</ele><time>2026-04-24T09:57:12Z</time></trkpt><trkpt lat="41.948150624254936" lon="13.297138476270028"><ele>1460.6666666666667</ele><time>2026-04-24T09:57:13Z</time></trkpt><trkpt lat="41.94808532399661" lon="13.29719487904695"><ele>1460.0</ele><time>2026-04-24T09:57:14Z</time></trkpt><trkpt lat="41.94800980432733" lon="13.297254251896375"><ele>1461.3333333333335</ele><time>2026-04-24T09:57:15Z</time></trkpt><trkpt lat="41.947937841082684" lon="13.297317132256728"><ele>1462.6666666666667</ele><time>2026-04-24T09:57:16Z</time></trkpt><trkpt lat="41.94786783924078" lon="13.297375664987216"><ele>1464.0</ele><time>2026-04-24T09:57:17Z</time></trkpt><trkpt lat="41.947807286609056" lon="13.297422785842866"><ele>1465.3333333333333</ele><time>2026-04-24T09:57:18Z</time></trkpt><trkpt lat="41.947739229786116" lon="13.297494777833611"><ele>1466.6666666666665</ele><time>2026-04-24T09:57:19Z</time></trkpt><trkpt lat="41.94768908739987" lon="13.297569480547775"><ele>1468.0</ele><time>2026-04-24T09:57:20Z</time></trkpt><trkpt lat="41.947640145324925" lon="13.297663860085148"><ele>1468.0</ele><time>2026-04-24T09:57:21Z</time></trkpt><trkpt lat="41.9475878874333" lon="13.297752176930583"><ele>1468.0</ele><time>2026-04-24T09:57:22Z</time></trkpt><trkpt lat="41.94754691431279" lon="13.297835700642548"><ele>1468.0</ele><time>2026-04-24T09:57:23Z</time></trkpt><trkpt lat="41.947521942972635" lon="13.297927804256904"><ele>1468.0</ele><time>2026-04-24T09:57:24Z</time></trkpt><trkpt lat="41.94749816028731" lon="13.298008299139882"><ele>1468.0</ele><time>2026-04-24T09:57:25Z</time></trkpt><trkpt lat="41.94746341304033" lon="13.298092229709003"><ele>1468.0</ele><time>2026-04-24T09:57:26Z</time></trkpt><trkpt lat="41.94742746342015" lon="13.298191346298838"><ele>1468.0</ele><time>2026-04-24T09:57:27Z</time></trkpt><trkpt lat="41.94740391573143" lon="13.298275491213642"><ele>1469.0</ele><time>2026-04-24T09:57:28Z</time></trkpt><trkpt lat="41.94740480975153" lon="13.298460473109047"><ele>1470.0</ele><time>2026-04-24T09:57:30Z</time></trkpt><trkpt lat="41.947405816189665" lon="13.298549974077538"><ele>1471.0</ele><time>2026-04-24T09:57:31Z</time></trkpt><trkpt lat="41.94742339100284" lon="13.29865757261339"><ele>1472.0</ele><time>2026-04-24T09:57:32Z</time></trkpt><trkpt lat="41.947453300368565" lon="13.29874951281485"><ele>1473.0</ele><time>2026-04-24T09:57:32.999Z</time></trkpt><trkpt lat="41.94748739451321" lon="13.298833901364564"><ele>1474.0</ele><time>2026-04-24T09:57:33.999Z</time></trkpt><trkpt lat="41.94751837509377" lon="13.298910774339268"><ele>1473.8000000000002</ele><time>2026-04-24T09:57:34.999Z</time></trkpt><trkpt lat="41.94751595554924" lon="13.299062699862361"><ele>1473.6000000000001</ele><time>2026-04-24T09:57:36.999Z</time></trkpt><trkpt lat="41.947446924810315" lon="13.29919810023916"><ele>1473.4</ele><time>2026-04-24T09:57:38.999Z</time></trkpt><trkpt lat="41.94739860086405" lon="13.299258835385162"><ele>1473.2</ele><time>2026-04-24T09:57:39.999Z</time></trkpt><trkpt lat="41.947292296827015" lon="13.299322526844872"><ele>1473.0</ele><time>2026-04-24T09:57:41.999Z</time></trkpt><trkpt lat="41.94717695759881" lon="13.299357292078225"><ele>1473.0</ele><time>2026-04-24T09:57:43.999Z</time></trkpt><trkpt lat="41.94704689684983" lon="13.299323380777816"><ele>1473.0</ele><time>2026-04-24T09:57:45.999Z</time></trkpt><trkpt lat="41.946969464291215" lon="13.299279017259277"><ele>1473.0</ele><time>2026-04-24T09:57:46.999Z</time></trkpt><trkpt lat="41.94689279954393" lon="13.299237711762942"><ele>1473.0</ele><time>2026-04-24T09:57:47.999Z</time></trkpt><trkpt lat="41.946815708453286" lon="13.299197660992743"><ele>1473.0</ele><time>2026-04-24T09:57:48.999Z</time></trkpt><trkpt lat="41.94676097651326" lon="13.299151970017672"><ele>1473.0</ele><time>2026-04-24T09:57:49.999Z</time></trkpt><trkpt lat="41.94671502767953" lon="13.299089794670362"><ele>1473.0</ele><time>2026-04-24T09:57:50.999Z</time></trkpt><trkpt lat="41.946671298367676" lon="13.299026160993478"><ele>1473.0</ele><time>2026-04-24T09:57:51.999Z</time></trkpt><trkpt lat="41.946617527580244" lon="13.298962361349371"><ele>1473.0</ele><time>2026-04-24T09:57:52.999Z</time></trkpt><trkpt lat="41.946563876295386" lon="13.29891171640559"><ele>1473.0</ele><time>2026-04-24T09:57:53.999Z</time></trkpt><trkpt lat="41.94646275131603" lon="13.298890692467104"><ele>1473.0</ele><time>2026-04-24T09:57:55.999Z</time></trkpt><trkpt lat="41.94639040866139" lon="13.29890715315584"><ele>1473.0</ele><time>2026-04-24T09:57:57.999Z</time></trkpt><trkpt lat="41.946284065009905" lon="13.298904712783688"><ele>1472.9999999999998</ele><time>2026-04-24T09:57:59.999Z</time></trkpt><trkpt lat="41.946215471242304" lon="13.298889473798814"><ele>1473.0</ele><time>2026-04-24T09:58:00.999Z</time></trkpt><trkpt lat="41.94614239925313" lon="13.298880989888257"><ele>1473.0</ele><time>2026-04-24T09:58:01.999Z</time></trkpt><trkpt lat="41.946062264515106" lon="13.298885495805544"><ele>1473.0</ele><time>2026-04-24T09:58:02.999Z</time></trkpt><trkpt lat="41.945983674709154" lon="13.298906442290134"><ele>1473.0</ele><time>2026-04-24T09:58:03.999Z</time></trkpt><trkpt lat="41.94591748151709" lon="13.298921790181007"><ele>1472.9999999999998</ele><time>2026-04-24T09:58:04.999Z</time></trkpt><trkpt lat="41.94585247673252" lon="13.29892330540328"><ele>1473.0</ele><time>2026-04-24T09:58:05.999Z</time></trkpt><trkpt lat="41.94577489940629" lon="13.298901904943243"><ele>1475.1666666666667</ele><time>2026-04-24T09:58:06.999Z</time></trkpt><trkpt lat="41.94570472775706" lon="13.298881534178118"><ele>1477.3333333333333</ele><time>2026-04-24T09:58:07.999Z</time></trkpt><trkpt lat="41.94561964565894" lon="13.298849024285813"><ele>1479.5</ele><time>2026-04-24T09:58:08.999Z</time></trkpt><trkpt lat="41.945539864611916" lon="13.298811293391312"><ele>1481.6666666666665</ele><time>2026-04-24T09:58:09.999Z</time></trkpt><trkpt lat="41.94546924260634" lon="13.298786704578115"><ele>1483.8333333333333</ele><time>2026-04-24T09:58:10.999Z</time></trkpt><trkpt lat="41.945342246210096" lon="13.298772599288423"><ele>1486.0</ele><time>2026-04-24T09:58:12.999Z</time></trkpt><trkpt lat="41.94527538900344" lon="13.298801946811324"><ele>1486.0</ele><time>2026-04-24T09:58:13.999Z</time></trkpt><trkpt lat="41.94519745520963" lon="13.29883067889011"><ele>1486.0</ele><time>2026-04-24T09:58:14.999Z</time></trkpt><trkpt lat="41.945111445920645" lon="13.298867275112082"><ele>1486.0</ele><time>2026-04-24T09:58:15.999Z</time></trkpt><trkpt lat="41.94503887189794" lon="13.298889405515684"><ele>1486.0</ele><time>2026-04-24T09:58:16.999Z</time></trkpt><trkpt lat="41.94493990603518" lon="13.298892907303294"><ele>1486.0</ele><time>2026-04-24T09:58:18.999Z</time></trkpt><trkpt lat="41.94487377282358" lon="13.298899029824907"><ele>1486.0</ele><time>2026-04-24T09:58:19.999Z</time></trkpt><trkpt lat="41.94478820363522" lon="13.298935895527668"><ele>1486.5</ele><time>2026-04-24T09:58:20.999Z</time></trkpt><trkpt lat="41.944704630439475" lon="13.298963908846968"><ele>1487.0</ele><time>2026-04-24T09:58:21.999Z</time></trkpt><trkpt lat="41.944574024427425" lon="13.299000670196055"><ele>1487.5</ele><time>2026-04-24T09:58:23.999Z</time></trkpt><trkpt lat="41.9445067229382" lon="13.299036430711787"><ele>1488.0</ele><time>2026-04-24T09:58:24.999Z</time></trkpt><trkpt lat="41.94443654477834" lon="13.299072596626406"><ele>1488.5</ele><time>2026-04-24T09:58:25.999Z</time></trkpt><trkpt lat="41.94436585047684" lon="13.299113152318704"><ele>1489.0</ele><time>2026-04-24T09:58:26.999Z</time></trkpt><trkpt lat="41.94429522136526" lon="13.299160932174425"><ele>1489.6</ele><time>2026-04-24T09:58:27.999Z</time></trkpt><trkpt lat="41.944164694841554" lon="13.29922341234498"><ele>1490.2</ele><time>2026-04-24T09:58:29.999Z</time></trkpt><trkpt lat="41.9440848049963" lon="13.299248039504187"><ele>1490.8</ele><time>2026-04-24T09:58:30.999Z</time></trkpt><trkpt lat="41.94399647812642" lon="13.29925345606269"><ele>1491.3999999999999</ele><time>2026-04-24T09:58:31.999Z</time></trkpt><trkpt lat="41.94391773559524" lon="13.29926699534654"><ele>1492.0</ele><time>2026-04-24T09:58:32.999Z</time></trkpt><trkpt lat="41.943832758069014" lon="13.299281262913684"><ele>1492.0</ele><time>2026-04-24T09:58:33.999Z</time></trkpt><trkpt lat="41.9437411371605" lon="13.299299104959475"><ele>1492.0</ele><time>2026-04-24T09:58:34.999Z</time></trkpt><trkpt lat="41.94365043131568" lon="13.299328606194564"><ele>1492.0</ele><time>2026-04-24T09:58:35.999Z</time></trkpt><trkpt lat="41.9435794938919" lon="13.299358265585614"><ele>1492.0</ele><time>2026-04-24T09:58:36.999Z</time></trkpt><trkpt lat="41.943515681919514" lon="13.299377156992348"><ele>1492.0</ele><time>2026-04-24T09:58:37.999Z</time></trkpt><trkpt lat="41.94343637089369" lon="13.299443459705945"><ele>1492.0</ele><time>2026-04-24T09:58:40.999Z</time></trkpt><trkpt lat="41.943326516796475" lon="13.299509842328392"><ele>1492.0</ele><time>2026-04-24T09:58:42.999Z</time></trkpt><trkpt lat="41.943265696625986" lon="13.299558656666397"><ele>1492.0</ele><time>2026-04-24T09:58:43.999Z</time></trkpt><trkpt lat="41.943208755974325" lon="13.29961856133395"><ele>1492.0</ele><time>2026-04-24T09:58:44.999Z</time></trkpt><trkpt lat="41.94315131624385" lon="13.299759061665998"><ele>1492.0</ele><time>2026-04-24T09:58:47Z</time></trkpt><trkpt lat="41.943130575474584" lon="13.299915899899872"><ele>1492.0</ele><time>2026-04-24T09:58:49Z</time></trkpt><trkpt lat="41.943144422772626" lon="13.300001775992191"><ele>1492.0</ele><time>2026-04-24T09:58:51Z</time></trkpt><trkpt lat="41.9431586807553" lon="13.300102111248645"><ele>1492.3999999999999</ele><time>2026-04-24T09:58:53Z</time></trkpt><trkpt lat="41.94317516745914" lon="13.300213102782656"><ele>1492.8</ele><time>2026-04-24T09:58:54Z</time></trkpt><trkpt lat="41.94317306451741" lon="13.300350096116277"><ele>1493.2</ele><time>2026-04-24T09:58:55Z</time></trkpt><trkpt lat="41.94317835882471" lon="13.30049140835691"><ele>1493.6</ele><time>2026-04-24T09:58:56Z</time></trkpt><trkpt lat="41.9431884207815" lon="13.300600669769068"><ele>1494.0</ele><time>2026-04-24T09:58:57Z</time></trkpt><trkpt lat="41.94320567212365" lon="13.300755262842145"><ele>1495.0</ele><time>2026-04-24T09:58:59Z</time></trkpt><trkpt lat="41.94320873929298" lon="13.300871243582398"><ele>1496.0</ele><time>2026-04-24T09:59:01Z</time></trkpt><trkpt lat="41.9431917641448" lon="13.301007562859548"><ele>1497.0</ele><time>2026-04-24T09:59:03Z</time></trkpt><trkpt lat="41.94319114023606" lon="13.30115148892502"><ele>1498.0</ele><time>2026-04-24T09:59:05Z</time></trkpt><trkpt lat="41.94320794287435" lon="13.30123395931108"><ele>1499.0</ele><time>2026-04-24T09:59:06Z</time></trkpt><trkpt lat="41.94327563914781" lon="13.301374280954978"><ele>1499.5</ele><time>2026-04-24T09:59:08Z</time></trkpt><trkpt lat="41.943329719593514" lon="13.301522218225994"><ele>1500.0</ele><time>2026-04-24T09:59:10Z</time></trkpt><trkpt lat="41.943312902564564" lon="13.301668979208415"><ele>1500.5</ele><time>2026-04-24T09:59:12Z</time></trkpt><trkpt lat="41.943290799659295" lon="13.301757530769592"><ele>1501.0</ele><time>2026-04-24T09:59:13Z</time></trkpt><trkpt lat="41.94326947151374" lon="13.301848828924557"><ele>1501.5</ele><time>2026-04-24T09:59:14Z</time></trkpt><trkpt lat="41.94326081118714" lon="13.301934761192584"><ele>1502.0</ele><time>2026-04-24T09:59:17Z</time></trkpt><trkpt lat="41.94324845860304" lon="13.30202566393547"><ele>1502.0000000000002</ele><time>2026-04-24T09:59:23Z</time></trkpt><trkpt lat="41.9432617368807" lon="13.302119374835796"><ele>1502.0</ele><time>2026-04-24T09:59:33.999Z</time></trkpt><trkpt lat="41.94325912819286" lon="13.302215908506666"><ele>1502.0</ele><time>2026-04-24T09:59:35.999Z</time></trkpt><trkpt lat="41.943276091468285" lon="13.302314932877369"><ele>1502.0</ele><time>2026-04-24T09:59:58.999Z</time></trkpt><trkpt lat="41.94323463283828" lon="13.302381906208215"><ele>1502.0</ele><time>2026-04-24T10:00:00.999Z</time></trkpt><trkpt lat="41.94317689311093" lon="13.302469759709261"><ele>1502.0000000000002</ele><time>2026-04-24T10:00:03.999Z</time></trkpt><trkpt lat="41.943133922877436" lon="13.302537708614988"><ele>1502.0</ele><time>2026-04-24T10:00:05.999Z</time></trkpt><trkpt lat="41.94305480854725" lon="13.302649594811315"><ele>1502.8</ele><time>2026-04-24T10:00:07.999Z</time></trkpt><trkpt lat="41.94297945432716" lon="13.302750834722403"><ele>1503.6</ele><time>2026-04-24T10:00:09.999Z</time></trkpt><trkpt lat="41.94288615480634" lon="13.302850309429646"><ele>1504.3999999999999</ele><time>2026-04-24T10:00:11.999Z</time></trkpt><trkpt lat="41.94282730232666" lon="13.302892667798481"><ele>1505.1999999999998</ele><time>2026-04-24T10:00:12.999Z</time></trkpt><trkpt lat="41.94272768915495" lon="13.302979419845498"><ele>1506.0</ele><time>2026-04-24T10:00:14.999Z</time></trkpt><trkpt lat="41.942676424825116" lon="13.303043357640679"><ele>1506.6</ele><time>2026-04-24T10:00:15.999Z</time></trkpt><trkpt lat="41.942609250053025" lon="13.30310125945577"><ele>1507.1999999999998</ele><time>2026-04-24T10:00:16.999Z</time></trkpt><trkpt lat="41.942553182011785" lon="13.303143421402298"><ele>1507.8000000000002</ele><time>2026-04-24T10:00:17.999Z</time></trkpt><trkpt lat="41.942466835445764" lon="13.303232439430882"><ele>1508.4</ele><time>2026-04-24T10:00:19.999Z</time></trkpt><trkpt lat="41.94242456373097" lon="13.303396142508053"><ele>1509.0</ele><time>2026-04-24T10:00:21.999Z</time></trkpt><trkpt lat="41.94235991894092" lon="13.303535573954656"><ele>1509.1666666666667</ele><time>2026-04-24T10:00:23.999Z</time></trkpt><trkpt lat="41.94230494477069" lon="13.303581794235361"><ele>1509.3333333333333</ele><time>2026-04-24T10:00:24.999Z</time></trkpt><trkpt lat="41.94224370118078" lon="13.303637109908786"><ele>1509.5</ele><time>2026-04-24T10:00:25.999Z</time></trkpt><trkpt lat="41.94218715904485" lon="13.303794649089657"><ele>1509.6666666666665</ele><time>2026-04-24T10:00:27.999Z</time></trkpt><trkpt lat="41.94217891422037" lon="13.30388772185467"><ele>1509.8333333333333</ele><time>2026-04-24T10:00:28.999Z</time></trkpt><trkpt lat="41.942168352511835" lon="13.303973357063198"><ele>1510.0</ele><time>2026-04-24T10:00:29.999Z</time></trkpt><trkpt lat="41.94211312966083" lon="13.30406912511999"><ele>1511.25</ele><time>2026-04-24T10:00:31.999Z</time></trkpt><trkpt lat="41.942006390803755" lon="13.304206163151106"><ele>1512.5</ele><time>2026-04-24T10:00:33.999Z</time></trkpt><trkpt lat="41.94194294158247" lon="13.304295302092923"><ele>1513.75</ele><time>2026-04-24T10:00:34.999Z</time></trkpt><trkpt lat="41.94184917836371" lon="13.304457258466023"><ele>1515.0</ele><time>2026-04-24T10:00:36.999Z</time></trkpt><trkpt lat="41.94179376134511" lon="13.304565725230889"><ele>1515.0</ele><time>2026-04-24T10:00:37.999Z</time></trkpt><trkpt lat="41.941736689186136" lon="13.304657433308343"><ele>1515.0</ele><time>2026-04-24T10:00:38.999Z</time></trkpt><trkpt lat="41.941689079706336" lon="13.304731720035864"><ele>1515.0</ele><time>2026-04-24T10:00:39.999Z</time></trkpt><trkpt lat="41.941635381433834" lon="13.304795841780747"><ele>1515.0</ele><time>2026-04-24T10:00:40.999Z</time></trkpt><trkpt lat="41.94156863269064" lon="13.304846244313799"><ele>1515.0</ele><time>2026-04-24T10:00:41.999Z</time></trkpt><trkpt lat="41.94148630146729" lon="13.30489355906303"><ele>1515.0</ele><time>2026-04-24T10:00:43.999Z</time></trkpt><trkpt lat="41.94135001128846" lon="13.304872060821275"><ele>1515.8333333333333</ele><time>2026-04-24T10:00:45.999Z</time></trkpt><trkpt lat="41.94127269456299" lon="13.304874895381982"><ele>1516.6666666666667</ele><time>2026-04-24T10:00:46.999Z</time></trkpt><trkpt lat="41.941202212357176" lon="13.304869441978258"><ele>1517.5</ele><time>2026-04-24T10:00:47.999Z</time></trkpt><trkpt lat="41.94111769562972" lon="13.304841197339533"><ele>1518.3333333333335</ele><time>2026-04-24T10:00:48.999Z</time></trkpt><trkpt lat="41.941044945784725" lon="13.304801071735891"><ele>1519.1666666666667</ele><time>2026-04-24T10:00:49.999Z</time></trkpt><trkpt lat="41.94098439984527" lon="13.304773003766657"><ele>1520.0</ele><time>2026-04-24T10:00:50.999Z</time></trkpt><trkpt lat="41.940886924249384" lon="13.304740896493312"><ele>1521.2</ele><time>2026-04-24T10:00:53Z</time></trkpt><trkpt lat="41.9408297005902" lon="13.304679391037284"><ele>1522.4</ele><time>2026-04-24T10:00:55Z</time></trkpt><trkpt lat="41.94072331619522" lon="13.304668709964048"><ele>1523.6</ele><time>2026-04-24T10:00:57Z</time></trkpt><trkpt lat="41.940613749686406" lon="13.30472093447263"><ele>1524.8</ele><time>2026-04-24T10:00:59Z</time></trkpt><trkpt lat="41.94055279010423" lon="13.304757560229943"><ele>1526.0</ele><time>2026-04-24T10:01:00Z</time></trkpt><trkpt lat="41.94046405237077" lon="13.30480484707653"><ele>1526.0</ele><time>2026-04-24T10:01:01Z</time></trkpt><trkpt lat="41.94039931066428" lon="13.304836951483665"><ele>1526.0</ele><time>2026-04-24T10:01:02Z</time></trkpt><trkpt lat="41.94033034030606" lon="13.30486867330712"><ele>1526.0</ele><time>2026-04-24T10:01:03Z</time></trkpt><trkpt lat="41.94024705193676" lon="13.304917881353578"><ele>1526.0</ele><time>2026-04-24T10:01:04Z</time></trkpt><trkpt lat="41.940171808665745" lon="13.304961586954155"><ele>1526.0</ele><time>2026-04-24T10:01:05Z</time></trkpt><trkpt lat="41.94008512902677" lon="13.305016278965729"><ele>1526.0</ele><time>2026-04-24T10:01:06Z</time></trkpt><trkpt lat="41.94001680068633" lon="13.305065517898962"><ele>1526.4</ele><time>2026-04-24T10:01:07Z</time></trkpt><trkpt lat="41.93995484572941" lon="13.305123235768871"><ele>1526.8</ele><time>2026-04-24T10:01:08Z</time></trkpt><trkpt lat="41.93989362151144" lon="13.305174690874631"><ele>1527.2</ele><time>2026-04-24T10:01:09Z</time></trkpt><trkpt lat="41.93978348749828" lon="13.305262072796072"><ele>1527.6000000000001</ele><time>2026-04-24T10:01:11Z</time></trkpt><trkpt lat="41.93971838996091" lon="13.305353925135359"><ele>1528.0</ele><time>2026-04-24T10:01:13Z</time></trkpt><trkpt lat="41.93970756946881" lon="13.305464648816724"><ele>1528.0</ele><time>2026-04-24T10:01:15Z</time></trkpt><trkpt lat="41.93975820994207" lon="13.305522894391002"><ele>1528.0</ele><time>2026-04-24T10:01:17Z</time></trkpt><trkpt lat="41.93983405366356" lon="13.305552501776289"><ele>1528.0</ele><time>2026-04-24T10:01:19Z</time></trkpt><trkpt lat="41.9399142625812" lon="13.30560921138552"><ele>1528.0</ele><time>2026-04-24T10:01:21Z</time></trkpt><trkpt lat="41.939970585054795" lon="13.305682244158037"><ele>1528.0</ele><time>2026-04-24T10:01:23Z</time></trkpt><trkpt lat="41.93999253830248" lon="13.305777638149591"><ele>1528.0</ele><time>2026-04-24T10:01:25Z</time></trkpt><trkpt lat="41.94002355967478" lon="13.305909968554307"><ele>1528.6000000000001</ele><time>2026-04-24T10:01:27Z</time></trkpt><trkpt lat="41.939999806904666" lon="13.306003601724518"><ele>1529.2</ele><time>2026-04-24T10:01:29Z</time></trkpt><trkpt lat="41.93998771365754" lon="13.306090894359022"><ele>1529.8</ele><time>2026-04-24T10:01:30Z</time></trkpt><trkpt lat="41.93993478639446" lon="13.306219979336946"><ele>1530.4</ele><time>2026-04-24T10:01:32Z</time></trkpt><trkpt lat="41.939891061044854" lon="13.306364288132873"><ele>1531.0</ele><time>2026-04-24T10:01:33.999Z</time></trkpt><trkpt lat="41.9398781575746" lon="13.30648412157207"><ele>1532.1666666666665</ele><time>2026-04-24T10:01:35.999Z</time></trkpt><trkpt lat="41.9399151264547" lon="13.306586237895512"><ele>1533.3333333333333</ele><time>2026-04-24T10:01:37.999Z</time></trkpt><trkpt lat="41.93994254678728" lon="13.306717983222914"><ele>1534.5</ele><time>2026-04-24T10:01:39.999Z</time></trkpt><trkpt lat="41.93995963511173" lon="13.306831736949656"><ele>1535.6666666666665</ele><time>2026-04-24T10:01:41.999Z</time></trkpt><trkpt lat="41.93995526674609" lon="13.306952435394432"><ele>1536.8333333333333</ele><time>2026-04-24T10:01:43.999Z</time></trkpt><trkpt lat="41.939928638921636" lon="13.307049103332405"><ele>1538.0</ele><time>2026-04-24T10:01:45.999Z</time></trkpt><trkpt lat="41.939848626526185" lon="13.307212298771871"><ele>1539.1666666666665</ele><time>2026-04-24T10:01:47.999Z</time></trkpt><trkpt lat="41.93980992857035" lon="13.307302810314999"><ele>1540.3333333333333</ele><time>2026-04-24T10:01:48.999Z</time></trkpt><trkpt lat="41.939764581603654" lon="13.307398646519614"><ele>1541.5</ele><time>2026-04-24T10:01:49.999Z</time></trkpt><trkpt lat="41.939706068740065" lon="13.307499471968283"><ele>1542.6666666666665</ele><time>2026-04-24T10:01:50.999Z</time></trkpt><trkpt lat="41.93965368078472" lon="13.307580359205717"><ele>1543.8333333333333</ele><time>2026-04-24T10:01:51.999Z</time></trkpt><trkpt lat="41.93960702749192" lon="13.307661584754776"><ele>1545.0</ele><time>2026-04-24T10:01:52.999Z</time></trkpt><trkpt lat="41.939566007112894" lon="13.307747704287639"><ele>1545.0</ele><time>2026-04-24T10:01:53.999Z</time></trkpt><trkpt lat="41.93953305970089" lon="13.307836663730237"><ele>1545.0</ele><time>2026-04-24T10:01:54.999Z</time></trkpt><trkpt lat="41.93944714807609" lon="13.307946602609238"><ele>1545.0</ele><time>2026-04-24T10:01:56.999Z</time></trkpt><trkpt lat="41.93938346498739" lon="13.307997428346898"><ele>1545.0</ele><time>2026-04-24T10:01:57.999Z</time></trkpt><trkpt lat="41.939300535913276" lon="13.308052831028332"><ele>1545.0</ele><time>2026-04-24T10:01:59.999Z</time></trkpt><trkpt lat="41.93925852013721" lon="13.308181485505557"><ele>1545.2</ele><time>2026-04-24T10:02:01.999Z</time></trkpt><trkpt lat="41.93923072829564" lon="13.308341238343372"><ele>1545.4</ele><time>2026-04-24T10:02:03.999Z</time></trkpt><trkpt lat="41.93921014471585" lon="13.308428298471059"><ele>1545.6</ele><time>2026-04-24T10:02:04.999Z</time></trkpt><trkpt lat="41.93917057579568" lon="13.308539446581078"><ele>1545.8</ele><time>2026-04-24T10:02:06.999Z</time></trkpt><trkpt lat="41.9390815204421" lon="13.308629021797152"><ele>1546.0</ele><time>2026-04-24T10:02:08.999Z</time></trkpt><trkpt lat="41.93903095420918" lon="13.308687490560102"><ele>1546.0</ele><time>2026-04-24T10:02:09.999Z</time></trkpt><trkpt lat="41.93894583437989" lon="13.308797471846288"><ele>1546.0</ele><time>2026-04-24T10:02:11.999Z</time></trkpt><trkpt lat="41.93887120715997" lon="13.308858549243844"><ele>1546.0</ele><time>2026-04-24T10:02:13.999Z</time></trkpt><trkpt lat="41.93879006770764" lon="13.308977149814945"><ele>1546.0</ele><time>2026-04-24T10:02:15.999Z</time></trkpt><trkpt lat="41.93873482821768" lon="13.30903157329073"><ele>1546.0</ele><time>2026-04-24T10:02:16.999Z</time></trkpt><trkpt lat="41.93866942571863" lon="13.309079071552796"><ele>1547.5000000000002</ele><time>2026-04-24T10:02:17.999Z</time></trkpt><trkpt lat="41.938603637277545" lon="13.309136967088977"><ele>1549.0</ele><time>2026-04-24T10:02:18.999Z</time></trkpt><trkpt lat="41.93854667622473" lon="13.309213261789623"><ele>1550.5</ele><time>2026-04-24T10:02:19.999Z</time></trkpt><trkpt lat="41.9384933405375" lon="13.309296924243842"><ele>1552.0</ele><time>2026-04-24T10:02:20.999Z</time></trkpt><trkpt lat="41.93844503203714" lon="13.30937314952266"><ele>1553.5000000000002</ele><time>2026-04-24T10:02:21.999Z</time></trkpt><trkpt lat="41.9384007618794" lon="13.309463154777653"><ele>1555.0</ele><time>2026-04-24T10:02:22.999Z</time></trkpt><trkpt lat="41.93836717187908" lon="13.30956412361094"><ele>1555.5000000000002</ele><time>2026-04-24T10:02:23.999Z</time></trkpt><trkpt lat="41.93833856613777" lon="13.309666826348138"><ele>1556.0</ele><time>2026-04-24T10:02:24.999Z</time></trkpt><trkpt lat="41.93829984386325" lon="13.309767196674965"><ele>1556.5</ele><time>2026-04-24T10:02:25.999Z</time></trkpt><trkpt lat="41.93825024538887" lon="13.309861061914441"><ele>1557.0</ele><time>2026-04-24T10:02:26.999Z</time></trkpt><trkpt lat="41.938206892361" lon="13.309952824069557"><ele>1557.5000000000002</ele><time>2026-04-24T10:02:27.999Z</time></trkpt><trkpt lat="41.93817792938108" lon="13.310049031086685"><ele>1558.0</ele><time>2026-04-24T10:02:28.999Z</time></trkpt><trkpt lat="41.93816020615672" lon="13.310149991219598"><ele>1558.1666666666667</ele><time>2026-04-24T10:02:29.999Z</time></trkpt><trkpt lat="41.938136000449795" lon="13.310254867553276"><ele>1558.3333333333335</ele><time>2026-04-24T10:02:30.999Z</time></trkpt><trkpt lat="41.93810681869378" lon="13.310358812636098"><ele>1558.5</ele><time>2026-04-24T10:02:31.999Z</time></trkpt><trkpt lat="41.938078349294315" lon="13.310457004598895"><ele>1558.6666666666665</ele><time>2026-04-24T10:02:32.999Z</time></trkpt><trkpt lat="41.93804825047531" lon="13.310558059495314"><ele>1558.8333333333333</ele><time>2026-04-24T10:02:33.999Z</time></trkpt><trkpt lat="41.93801117127904" lon="13.310636449971005"><ele>1559.0</ele><time>2026-04-24T10:02:34.999Z</time></trkpt><trkpt lat="41.93796658652889" lon="13.310702608418078"><ele>1560.0</ele><time>2026-04-24T10:02:35.999Z</time></trkpt><trkpt lat="41.937933733462934" lon="13.310789107519994"><ele>1561.0</ele><time>2026-04-24T10:02:37.999Z</time></trkpt><trkpt lat="41.93790848421162" lon="13.310881156019297"><ele>1562.0</ele><time>2026-04-24T10:02:39.999Z</time></trkpt><trkpt lat="41.93793913760265" lon="13.310998000289947"><ele>1563.0</ele><time>2026-04-24T10:02:41.999Z</time></trkpt><trkpt lat="41.93796429648523" lon="13.311140100099431"><ele>1564.0</ele><time>2026-04-24T10:02:43.999Z</time></trkpt><trkpt lat="41.93796323604389" lon="13.31129361325689"><ele>1564.0000000000002</ele><time>2026-04-24T10:02:45.999Z</time></trkpt><trkpt lat="41.937939033864204" lon="13.311388405858235"><ele>1564.0</ele><time>2026-04-24T10:02:47.999Z</time></trkpt><trkpt lat="41.93790380634065" lon="13.311460549195392"><ele>1564.0</ele><time>2026-04-24T10:02:48.999Z</time></trkpt><trkpt lat="41.93784448681279" lon="13.311528360626756"><ele>1564.0</ele><time>2026-04-24T10:02:49.999Z</time></trkpt><trkpt lat="41.9377795276135" lon="13.311632125833384"><ele>1564.0000000000002</ele><time>2026-04-24T10:02:51.999Z</time></trkpt><trkpt lat="41.93771839462816" lon="13.311681892844826"><ele>1564.0</ele><time>2026-04-24T10:02:53.999Z</time></trkpt><trkpt lat="41.93762884610664" lon="13.311745845460802"><ele>1563.8333333333335</ele><time>2026-04-24T10:02:55.999Z</time></trkpt><trkpt lat="41.937558056993936" lon="13.311814953192288"><ele>1563.6666666666667</ele><time>2026-04-24T10:02:57.999Z</time></trkpt><trkpt lat="41.937462801418434" lon="13.311841829515899"><ele>1563.5</ele><time>2026-04-24T10:03:00Z</time></trkpt><trkpt lat="41.937363682981015" lon="13.311908952269885"><ele>1563.3333333333335</ele><time>2026-04-24T10:03:02Z</time></trkpt><trkpt lat="41.93735300299397" lon="13.31201714549905"><ele>1563.1666666666667</ele><time>2026-04-24T10:03:04Z</time></trkpt><trkpt lat="41.93738936648051" lon="13.312094896512104"><ele>1563.0</ele><time>2026-04-24T10:03:06Z</time></trkpt><trkpt lat="41.93745791694841" lon="13.312176910284487"><ele>1562.1666666666667</ele><time>2026-04-24T10:03:09Z</time></trkpt><trkpt lat="41.93746124724474" lon="13.312292562910798"><ele>1561.3333333333335</ele><time>2026-04-24T10:03:11Z</time></trkpt><trkpt lat="41.93744552657643" lon="13.312403272635226"><ele>1560.5</ele><time>2026-04-24T10:03:13Z</time></trkpt><trkpt lat="41.93746024175486" lon="13.31252072592411"><ele>1559.6666666666667</ele><time>2026-04-24T10:03:15Z</time></trkpt><trkpt lat="41.9374763581941" lon="13.312627637299286"><ele>1558.8333333333335</ele><time>2026-04-24T10:03:17Z</time></trkpt><trkpt lat="41.93744823077923" lon="13.312713980983522"><ele>1558.0</ele><time>2026-04-24T10:03:19Z</time></trkpt><trkpt lat="41.93739348332924" lon="13.312769711607338"><ele>1558.0</ele><time>2026-04-24T10:03:21Z</time></trkpt><trkpt lat="41.93730637085128" lon="13.312847389879876"><ele>1558.0</ele><time>2026-04-24T10:03:23Z</time></trkpt><trkpt lat="41.93721303752266" lon="13.312915735357645"><ele>1558.0</ele><time>2026-04-24T10:03:25Z</time></trkpt><trkpt lat="41.93715272357131" lon="13.312969287831974"><ele>1558.0</ele><time>2026-04-24T10:03:28Z</time></trkpt><trkpt lat="41.93720477043798" lon="13.313066286362254"><ele>1558.0</ele><time>2026-04-24T10:03:31Z</time></trkpt><trkpt lat="41.937301108127485" lon="13.313115889987547"><ele>1558.3333333333335</ele><time>2026-04-24T10:03:32.999Z</time></trkpt><trkpt lat="41.93737958143285" lon="13.313152548668196"><ele>1558.6666666666667</ele><time>2026-04-24T10:03:34.999Z</time></trkpt><trkpt lat="41.937456177464526" lon="13.313166936545965"><ele>1559.0</ele><time>2026-04-24T10:03:36.999Z</time></trkpt><trkpt lat="41.93753430766829" lon="13.313182222548283"><ele>1559.3333333333335</ele><time>2026-04-24T10:03:38.999Z</time></trkpt><trkpt lat="41.937603983268716" lon="13.313280527329145"><ele>1559.6666666666667</ele><time>2026-04-24T10:03:40.999Z</time></trkpt><trkpt lat="41.937669068890756" lon="13.313388526018567"><ele>1560.0</ele><time>2026-04-24T10:03:42.999Z</time></trkpt><trkpt lat="41.93775453187487" lon="13.313506837785193"><ele>1558.2</ele><time>2026-04-24T10:03:44.999Z</time></trkpt><trkpt lat="41.93781085452636" lon="13.313622714243039"><ele>1556.4</ele><time>2026-04-24T10:03:46.999Z</time></trkpt><trkpt lat="41.937894141547375" lon="13.313706146134592"><ele>1554.6</ele><time>2026-04-24T10:03:48.999Z</time></trkpt><trkpt lat="41.937983967712874" lon="13.313765110312604"><ele>1552.8</ele><time>2026-04-24T10:03:50.999Z</time></trkpt><trkpt lat="41.9380825884425" lon="13.313809652930146"><ele>1551.0</ele><time>2026-04-24T10:03:52.999Z</time></trkpt><trkpt lat="41.93817937882742" lon="13.313844732958493"><ele>1551.1999999999998</ele><time>2026-04-24T10:03:54.999Z</time></trkpt><trkpt lat="41.93826070474107" lon="13.313913243527422"><ele>1551.3999999999999</ele><time>2026-04-24T10:03:56.999Z</time></trkpt><trkpt lat="41.93831434051943" lon="13.314020612253318"><ele>1551.6</ele><time>2026-04-24T10:03:58.999Z</time></trkpt><trkpt lat="41.938359671295395" lon="13.31418776394291"><ele>1551.8</ele><time>2026-04-24T10:04:00.999Z</time></trkpt><trkpt lat="41.938383133372554" lon="13.314285424483428"><ele>1552.0</ele><time>2026-04-24T10:04:01.999Z</time></trkpt><trkpt lat="41.938399715105575" lon="13.314374410941749"><ele>1552.0</ele><time>2026-04-24T10:04:02.999Z</time></trkpt><trkpt lat="41.93839701479223" lon="13.314526797917624"><ele>1552.0</ele><time>2026-04-24T10:04:04.999Z</time></trkpt><trkpt lat="41.938412947305935" lon="13.314660505015311"><ele>1552.0</ele><time>2026-04-24T10:04:06.999Z</time></trkpt><trkpt lat="41.93850725925483" lon="13.314751677943416"><ele>1552.0</ele><time>2026-04-24T10:04:08.999Z</time></trkpt><trkpt lat="41.93858688737372" lon="13.314854259284841"><ele>1552.0</ele><time>2026-04-24T10:04:10.999Z</time></trkpt><trkpt lat="41.93865719460396" lon="13.314978757826694"><ele>1552.0</ele><time>2026-04-24T10:04:12.999Z</time></trkpt><trkpt lat="41.938676649786856" lon="13.315116073848118"><ele>1552.0</ele><time>2026-04-24T10:04:14.999Z</time></trkpt><trkpt lat="41.938691150108085" lon="13.315263411594504"><ele>1552.0</ele><time>2026-04-24T10:04:16.999Z</time></trkpt><trkpt lat="41.938700661491715" lon="13.3153708493795"><ele>1552.0</ele><time>2026-04-24T10:04:18.999Z</time></trkpt><trkpt lat="41.938685522058236" lon="13.315453088049543"><ele>1552.0</ele><time>2026-04-24T10:04:20.999Z</time></trkpt><trkpt lat="41.938631417178335" lon="13.315590390882674"><ele>1553.8</ele><time>2026-04-24T10:04:22.999Z</time></trkpt><trkpt lat="41.93859433779525" lon="13.315667449239962"><ele>1555.6</ele><time>2026-04-24T10:04:23.999Z</time></trkpt><trkpt lat="41.93854470588383" lon="13.315727756236695"><ele>1557.3999999999999</ele><time>2026-04-24T10:04:24.999Z</time></trkpt><trkpt lat="41.93844109850558" lon="13.315805510287051"><ele>1559.1999999999998</ele><time>2026-04-24T10:04:26.999Z</time></trkpt><trkpt lat="41.93835914625899" lon="13.315906625796696"><ele>1561.0</ele><time>2026-04-24T10:04:28.999Z</time></trkpt><trkpt lat="41.93833447116838" lon="13.31602673879231"><ele>1561.0</ele><time>2026-04-24T10:04:30.999Z</time></trkpt><trkpt lat="41.93830917984977" lon="13.316175050736947"><ele>1561.0</ele><time>2026-04-24T10:04:32.999Z</time></trkpt><trkpt lat="41.938279027438" lon="13.316293678302277"><ele>1561.0</ele><time>2026-04-24T10:04:34.999Z</time></trkpt><trkpt lat="41.938257463487865" lon="13.316384669290068"><ele>1561.0</ele><time>2026-04-24T10:04:36.999Z</time></trkpt><trkpt lat="41.93819844632965" lon="13.31654975556915"><ele>1561.0</ele><time>2026-04-24T10:04:38.999Z</time></trkpt><trkpt lat="41.93817348569189" lon="13.31666534483167"><ele>1562.5</ele><time>2026-04-24T10:04:40.999Z</time></trkpt><trkpt lat="41.93818326681314" lon="13.316817584634496"><ele>1564.0</ele><time>2026-04-24T10:04:42.999Z</time></trkpt><trkpt lat="41.93820446894127" lon="13.316983229884578"><ele>1565.5</ele><time>2026-04-24T10:04:44.999Z</time></trkpt><trkpt lat="41.93818517700998" lon="13.31712824299357"><ele>1567.0</ele><time>2026-04-24T10:04:46.999Z</time></trkpt><trkpt lat="41.93814795867617" lon="13.317271149541106"><ele>1567.7142857142858</ele><time>2026-04-24T10:04:48.999Z</time></trkpt><trkpt lat="41.93814353874172" lon="13.317364221483803"><ele>1568.4285714285713</ele><time>2026-04-24T10:04:49.999Z</time></trkpt><trkpt lat="41.93815621242285" lon="13.317467630436782"><ele>1569.1428571428573</ele><time>2026-04-24T10:04:50.999Z</time></trkpt><trkpt lat="41.938174588485296" lon="13.317567417164437"><ele>1569.857142857143</ele><time>2026-04-24T10:04:51.999Z</time></trkpt><trkpt lat="41.93819171850824" lon="13.31766643680165"><ele>1570.5714285714287</ele><time>2026-04-24T10:04:52.999Z</time></trkpt><trkpt lat="41.9381962603454" lon="13.31776211538237"><ele>1571.2857142857144</ele><time>2026-04-24T10:04:53.999Z</time></trkpt><trkpt lat="41.93819339219788" lon="13.317856890208953"><ele>1572.0</ele><time>2026-04-24T10:04:54.999Z</time></trkpt><trkpt lat="41.93819150509894" lon="13.317946046506433"><ele>1572.0</ele><time>2026-04-24T10:04:55.999Z</time></trkpt><trkpt lat="41.938198538840844" lon="13.318034730595876"><ele>1572.0</ele><time>2026-04-24T10:04:56.999Z</time></trkpt><trkpt lat="41.938216332215795" lon="13.318131733610755"><ele>1572.0</ele><time>2026-04-24T10:04:57.999Z</time></trkpt><trkpt lat="41.938231075200015" lon="13.31822695879304"><ele>1572.0</ele><time>2026-04-24T10:04:58.999Z</time></trkpt><trkpt lat="41.93825918366079" lon="13.3183564345631"><ele>1572.0</ele><time>2026-04-24T10:05:00.999Z</time></trkpt><trkpt lat="41.93825752049781" lon="13.318454140854133"><ele>1572.0</ele><time>2026-04-24T10:05:01.999Z</time></trkpt><trkpt lat="41.93826907081107" lon="13.318558276295112"><ele>1572.5</ele><time>2026-04-24T10:05:02.999Z</time></trkpt><trkpt lat="41.93827731876684" lon="13.318686808083333"><ele>1573.0</ele><time>2026-04-24T10:05:03.998Z</time></trkpt><trkpt lat="41.93829517428996" lon="13.31878615101554"><ele>1573.5</ele><time>2026-04-24T10:05:05Z</time></trkpt><trkpt lat="41.93831301389523" lon="13.318897276213196"><ele>1574.0</ele><time>2026-04-24T10:05:07Z</time></trkpt><trkpt lat="41.9383533089206" lon="13.319035247122203"><ele>1574.5</ele><time>2026-04-24T10:05:09Z</time></trkpt><trkpt lat="41.938368405400695" lon="13.319132633383221"><ele>1575.0</ele><time>2026-04-24T10:05:11Z</time></trkpt><trkpt lat="41.93839900933676" lon="13.319234172495316"><ele>1575.8</ele><time>2026-04-24T10:05:13Z</time></trkpt><trkpt lat="41.93843366497106" lon="13.319365535276551"><ele>1576.6</ele><time>2026-04-24T10:05:15Z</time></trkpt><trkpt lat="41.93843637042187" lon="13.319450325692241"><ele>1577.4</ele><time>2026-04-24T10:05:16Z</time></trkpt><trkpt lat="41.93845957978231" lon="13.319622254122656"><ele>1578.2</ele><time>2026-04-24T10:05:18Z</time></trkpt><trkpt lat="41.938464167288004" lon="13.31971179611293"><ele>1579.0</ele><time>2026-04-24T10:05:19Z</time></trkpt><trkpt lat="41.938466542115876" lon="13.319848943413888"><ele>1579.6</ele><time>2026-04-24T10:05:21Z</time></trkpt><trkpt lat="41.93851042321933" lon="13.319983171151014"><ele>1580.2</ele><time>2026-04-24T10:05:23Z</time></trkpt><trkpt lat="41.93854883837836" lon="13.320141278572333"><ele>1580.8</ele><time>2026-04-24T10:05:25Z</time></trkpt><trkpt lat="41.93855396567324" lon="13.32029636432712"><ele>1581.3999999999999</ele><time>2026-04-24T10:05:27Z</time></trkpt><trkpt lat="41.93852792939199" lon="13.320425258941519"><ele>1582.0</ele><time>2026-04-24T10:05:29Z</time></trkpt><trkpt lat="41.938518401350294" lon="13.320569112934141"><ele>1583.3999999999999</ele><time>2026-04-24T10:05:31Z</time></trkpt><trkpt lat="41.938553780343966" lon="13.320685052486722"><ele>1584.8</ele><time>2026-04-24T10:05:33Z</time></trkpt><trkpt lat="41.9385692489283" lon="13.320829573600196"><ele>1586.2</ele><time>2026-04-24T10:05:35Z</time></trkpt><trkpt lat="41.93853640617456" lon="13.320930734971446"><ele>1587.6</ele><time>2026-04-24T10:05:37Z</time></trkpt><trkpt lat="41.938454112401345" lon="13.321009333058294"><ele>1589.0</ele><time>2026-04-24T10:05:38.999Z</time></trkpt><trkpt lat="41.938386675910365" lon="13.321037019328704"><ele>1588.0</ele><time>2026-04-24T10:05:39.999Z</time></trkpt><trkpt lat="41.93829645318715" lon="13.3210851964392"><ele>1587.0</ele><time>2026-04-24T10:05:40.999Z</time></trkpt><trkpt lat="41.93823041866152" lon="13.321130857972843"><ele>1586.0</ele><time>2026-04-24T10:05:41.999Z</time></trkpt><trkpt lat="41.9381668661997" lon="13.321186490115586"><ele>1585.0</ele><time>2026-04-24T10:05:42.999Z</time></trkpt><trkpt lat="41.93807546490327" lon="13.321267252172474"><ele>1584.0</ele><time>2026-04-24T10:05:44.999Z</time></trkpt><trkpt lat="41.937965409667456" lon="13.321331595226109"><ele>1584.0</ele><time>2026-04-24T10:05:46.999Z</time></trkpt><trkpt lat="41.93790062289557" lon="13.32136374533417"><ele>1584.0</ele><time>2026-04-24T10:05:47.999Z</time></trkpt><trkpt lat="41.937795904327366" lon="13.321379174654625"><ele>1584.0</ele><time>2026-04-24T10:05:49.999Z</time></trkpt><trkpt lat="41.937725751960116" lon="13.321391072231977"><ele>1584.0</ele><time>2026-04-24T10:06:20.999Z</time></trkpt><trkpt lat="41.93763990088572" lon="13.321451096024616"><ele>1584.0</ele><time>2026-04-24T10:06:22.999Z</time></trkpt><trkpt lat="41.93755646533184" lon="13.321530167539523"><ele>1584.0</ele><time>2026-04-24T10:06:24.999Z</time></trkpt><trkpt lat="41.93750917910629" lon="13.321599680549284"><ele>1584.6666666666667</ele><time>2026-04-24T10:06:26.999Z</time></trkpt><trkpt lat="41.93747528448539" lon="13.321678588839083"><ele>1585.3333333333335</ele><time>2026-04-24T10:06:29.999Z</time></trkpt><trkpt lat="41.93740323351164" lon="13.3217289306817"><ele>1586.0</ele><time>2026-04-24T10:06:32.999Z</time></trkpt><trkpt lat="41.93732281115872" lon="13.321743381149327"><ele>1586.6666666666667</ele><time>2026-04-24T10:06:34.999Z</time></trkpt><trkpt lat="41.937235484475885" lon="13.321781234473335"><ele>1587.3333333333335</ele><time>2026-04-24T10:06:36.999Z</time></trkpt><trkpt lat="41.93717168456054" lon="13.321860121072524"><ele>1588.0</ele><time>2026-04-24T10:06:38.999Z</time></trkpt><trkpt lat="41.93710559097807" lon="13.321980477024505"><ele>1588.0000000000002</ele><time>2026-04-24T10:06:40.999Z</time></trkpt><trkpt lat="41.93705704191889" lon="13.322050524736195"><ele>1588.0</ele><time>2026-04-24T10:06:41.999Z</time></trkpt><trkpt lat="41.936998544619186" lon="13.322147318396272"><ele>1588.0</ele><time>2026-04-24T10:06:42.999Z</time></trkpt><trkpt lat="41.93694243399731" lon="13.322209411559689"><ele>1588.0</ele><time>2026-04-24T10:06:43.999Z</time></trkpt><trkpt lat="41.93687592194436" lon="13.322282842954689"><ele>1588.0000000000002</ele><time>2026-04-24T10:06:44.999Z</time></trkpt><trkpt lat="41.93682998878872" lon="13.322358322294134"><ele>1588.0</ele><time>2026-04-24T10:06:45.999Z</time></trkpt><trkpt lat="41.93678098580014" lon="13.322453258314166"><ele>1589.6666666666667</ele><time>2026-04-24T10:06:46.999Z</time></trkpt><trkpt lat="41.93673212161423" lon="13.32250720540608"><ele>1591.3333333333335</ele><time>2026-04-24T10:06:47.999Z</time></trkpt><trkpt lat="41.93667193841388" lon="13.322543633180072"><ele>1593.0</ele><time>2026-04-24T10:06:48.999Z</time></trkpt><trkpt lat="41.9365990109434" lon="13.322576890293936"><ele>1594.6666666666665</ele><time>2026-04-24T10:06:49.999Z</time></trkpt><trkpt lat="41.9364831176853" lon="13.3226755948582"><ele>1596.3333333333333</ele><time>2026-04-24T10:06:51.999Z</time></trkpt><trkpt lat="41.93642799213297" lon="13.322750569802114"><ele>1598.0</ele><time>2026-04-24T10:06:52.999Z</time></trkpt><trkpt lat="41.93637784663668" lon="13.322809996958577"><ele>1598.2</ele><time>2026-04-24T10:06:53.999Z</time></trkpt><trkpt lat="41.936267754290505" lon="13.32290549841511"><ele>1598.4</ele><time>2026-04-24T10:06:55.999Z</time></trkpt><trkpt lat="41.93619798702343" lon="13.322952702091493"><ele>1598.6000000000001</ele><time>2026-04-24T10:06:56.999Z</time></trkpt><trkpt lat="41.93613733986143" lon="13.32299057016611"><ele>1598.8000000000002</ele><time>2026-04-24T10:06:57.999Z</time></trkpt><trkpt lat="41.93604646352028" lon="13.323100177853856"><ele>1599.0</ele><time>2026-04-24T10:06:59.999Z</time></trkpt><trkpt lat="41.9359807248939" lon="13.323242074948405"><ele>1600.3333333333333</ele><time>2026-04-24T10:07:01.999Z</time></trkpt><trkpt lat="41.93594472532487" lon="13.323324617130462"><ele>1601.6666666666665</ele><time>2026-04-24T10:07:02.999Z</time></trkpt><trkpt lat="41.93589949756936" lon="13.323432327243985"><ele>1603.0</ele><time>2026-04-24T10:07:03.999Z</time></trkpt><trkpt lat="41.93585016878674" lon="13.323509458795629"><ele>1604.3333333333333</ele><time>2026-04-24T10:07:04.999Z</time></trkpt><trkpt lat="41.935816417356556" lon="13.323582142550043"><ele>1605.6666666666665</ele><time>2026-04-24T10:07:05.999Z</time></trkpt><trkpt lat="41.935785535840864" lon="13.32366672976815"><ele>1607.0</ele><time>2026-04-24T10:07:06.999Z</time></trkpt><trkpt lat="41.93573008977907" lon="13.323746944286016"><ele>1606.9999999999998</ele><time>2026-04-24T10:07:07.999Z</time></trkpt><trkpt lat="41.93571065646953" lon="13.323840401851628"><ele>1607.0</ele><time>2026-04-24T10:07:08.999Z</time></trkpt><trkpt lat="41.93568153545343" lon="13.323940390002395"><ele>1607.0</ele><time>2026-04-24T10:07:09.999Z</time></trkpt><trkpt lat="41.9356585777045" lon="13.324027804763798"><ele>1607.0</ele><time>2026-04-24T10:07:11Z</time></trkpt><trkpt lat="41.93563759993826" lon="13.324144761768292"><ele>1606.9999999999998</ele><time>2026-04-24T10:07:12Z</time></trkpt><trkpt lat="41.935612980725836" lon="13.324261434490705"><ele>1607.0</ele><time>2026-04-24T10:07:13Z</time></trkpt><trkpt lat="41.935596462267995" lon="13.32436833959537"><ele>1607.6666666666665</ele><time>2026-04-24T10:07:14Z</time></trkpt><trkpt lat="41.935582258503906" lon="13.324480112224974"><ele>1608.3333333333333</ele><time>2026-04-24T10:07:15Z</time></trkpt><trkpt lat="41.93557933219721" lon="13.324576555918425"><ele>1609.0</ele><time>2026-04-24T10:07:16Z</time></trkpt><trkpt lat="41.93558161493248" lon="13.324683262729831"><ele>1609.6666666666665</ele><time>2026-04-24T10:07:17Z</time></trkpt><trkpt lat="41.93556249788848" lon="13.32477705780178"><ele>1610.3333333333333</ele><time>2026-04-24T10:07:18Z</time></trkpt><trkpt lat="41.935543021408016" lon="13.324875098639083"><ele>1611.0</ele><time>2026-04-24T10:07:19Z</time></trkpt><trkpt lat="41.93551149868328" lon="13.324971191190633"><ele>1611.1666666666667</ele><time>2026-04-24T10:07:20Z</time></trkpt><trkpt lat="41.93548182608424" lon="13.325063941191779"><ele>1611.3333333333335</ele><time>2026-04-24T10:07:21Z</time></trkpt><trkpt lat="41.935442877756266" lon="13.325162433010075"><ele>1611.5</ele><time>2026-04-24T10:07:22Z</time></trkpt><trkpt lat="41.93539455109097" lon="13.32525069449103"><ele>1611.6666666666667</ele><time>2026-04-24T10:07:23Z</time></trkpt><trkpt lat="41.93533577214358" lon="13.325356209704518"><ele>1611.8333333333335</ele><time>2026-04-24T10:07:24Z</time></trkpt><trkpt lat="41.935291631206" lon="13.325456289992175"><ele>1612.0</ele><time>2026-04-24T10:07:25Z</time></trkpt><trkpt lat="41.935255642886226" lon="13.325544703328928"><ele>1612.1999999999998</ele><time>2026-04-24T10:07:26Z</time></trkpt><trkpt lat="41.93521847001669" lon="13.325633853805114"><ele>1612.4</ele><time>2026-04-24T10:07:27Z</time></trkpt><trkpt lat="41.93517270242692" lon="13.325739298619272"><ele>1612.6</ele><time>2026-04-24T10:07:27.999Z</time></trkpt><trkpt lat="41.93512563328162" lon="13.325834720519845"><ele>1612.8000000000002</ele><time>2026-04-24T10:07:28.999Z</time></trkpt><trkpt lat="41.93508208486346" lon="13.325909471497871"><ele>1613.0</ele><time>2026-04-24T10:07:29.999Z</time></trkpt><trkpt lat="41.93497273685818" lon="13.326038682410298"><ele>1613.0</ele><time>2026-04-24T10:07:31.999Z</time></trkpt><trkpt lat="41.93488121293239" lon="13.32614704751376"><ele>1613.0</ele><time>2026-04-24T10:07:33.999Z</time></trkpt><trkpt lat="41.934846553141654" lon="13.32625924178202"><ele>1613.0</ele><time>2026-04-24T10:07:35.999Z</time></trkpt><trkpt lat="41.93483672964382" lon="13.326357258129498"><ele>1613.0</ele><time>2026-04-24T10:08:51.998Z</time></trkpt><trkpt lat="41.93485075580088" lon="13.32646642741708"><ele>1613.0</ele><time>2026-04-24T10:09:05.998Z</time></trkpt><trkpt lat="41.93484006221501" lon="13.326591228865036"><ele>1612.9999999999998</ele><time>2026-04-24T10:09:08.998Z</time></trkpt><trkpt lat="41.93480319395402" lon="13.326685521126917"><ele>1613.0</ele><time>2026-04-24T10:09:10.998Z</time></trkpt><trkpt lat="41.93478607544199" lon="13.326790831575302"><ele>1613.0</ele><time>2026-04-24T10:09:12.998Z</time></trkpt><trkpt lat="41.93470223715599" lon="13.32682472375108"><ele>1613.0</ele><time>2026-04-24T10:09:16.999Z</time></trkpt><trkpt lat="41.93461698758337" lon="13.326820564943485"><ele>1612.9999999999998</ele><time>2026-04-24T10:09:19.999Z</time></trkpt><trkpt lat="41.93453982958233" lon="13.32686524450928"><ele>1613.0</ele><time>2026-04-24T10:09:22.999Z</time></trkpt><trkpt lat="41.934477480583126" lon="13.32697701446714"><ele>1612.9999999999998</ele><time>2026-04-24T10:09:24.999Z</time></trkpt><trkpt lat="41.9343890872606" lon="13.32707612180139"><ele>1613.0</ele><time>2026-04-24T10:09:26.999Z</time></trkpt><trkpt lat="41.93433276161311" lon="13.327134075373754"><ele>1613.0</ele><time>2026-04-24T10:09:27.999Z</time></trkpt><trkpt lat="41.93428485761614" lon="13.327199416635109"><ele>1613.0</ele><time>2026-04-24T10:09:28.999Z</time></trkpt><trkpt lat="41.93423754458428" lon="13.327292713834105"><ele>1612.9999999999998</ele><time>2026-04-24T10:09:29.999Z</time></trkpt><trkpt lat="41.93419008149252" lon="13.327391676262069"><ele>1613.0</ele><time>2026-04-24T10:09:30.999Z</time></trkpt><trkpt lat="41.93414955613793" lon="13.327500908832114"><ele>1614.4999999999998</ele><time>2026-04-24T10:09:32.999Z</time></trkpt><trkpt lat="41.934086254838284" lon="13.327581807034974"><ele>1616.0</ele><time>2026-04-24T10:09:34.999Z</time></trkpt><trkpt lat="41.93399115975638" lon="13.327634010665868"><ele>1617.5</ele><time>2026-04-24T10:09:36.999Z</time></trkpt><trkpt lat="41.93390680814899" lon="13.327705460282187"><ele>1619.0</ele><time>2026-04-24T10:09:38.999Z</time></trkpt><trkpt lat="41.93384518451087" lon="13.327758263565848"><ele>1620.4999999999998</ele><time>2026-04-24T10:09:39.999Z</time></trkpt><trkpt lat="41.93378866049808" lon="13.327818899907832"><ele>1622.0</ele><time>2026-04-24T10:09:40.999Z</time></trkpt><trkpt lat="41.93373622480897" lon="13.327877443474536"><ele>1621.9999999999998</ele><time>2026-04-24T10:09:41.999Z</time></trkpt><trkpt lat="41.93368151714212" lon="13.327934698520957"><ele>1622.0</ele><time>2026-04-24T10:09:42.999Z</time></trkpt><trkpt lat="41.933606219974514" lon="13.32799106854506"><ele>1622.0</ele><time>2026-04-24T10:09:45Z</time></trkpt><trkpt lat="41.93353365577006" lon="13.328067490799013"><ele>1622.0</ele><time>2026-04-24T10:09:47Z</time></trkpt><trkpt lat="41.933474608727785" lon="13.328165555933474"><ele>1621.9999999999998</ele><time>2026-04-24T10:09:49Z</time></trkpt><trkpt lat="41.93340358751194" lon="13.328233753613265"><ele>1622.0</ele><time>2026-04-24T10:09:51Z</time></trkpt><trkpt lat="41.933316245344315" lon="13.328284622756009"><ele>1625.1999999999998</ele><time>2026-04-24T10:09:53Z</time></trkpt><trkpt lat="41.933231093363524" lon="13.32834765445718"><ele>1628.4</ele><time>2026-04-24T10:09:55Z</time></trkpt><trkpt lat="41.933166959851036" lon="13.328424602170676"><ele>1631.6</ele><time>2026-04-24T10:09:58Z</time></trkpt><trkpt lat="41.93308562594741" lon="13.328502787707436"><ele>1634.8000000000002</ele><time>2026-04-24T10:10:00Z</time></trkpt><trkpt lat="41.932977466984006" lon="13.328572357221327"><ele>1638.0</ele><time>2026-04-24T10:10:02Z</time></trkpt><trkpt lat="41.93291512673166" lon="13.328626833169375"><ele>1638.0</ele><time>2026-04-24T10:10:03Z</time></trkpt><trkpt lat="41.93285469032822" lon="13.328661562945781"><ele>1638.0</ele><time>2026-04-24T10:10:04Z</time></trkpt><trkpt lat="41.932734942472" lon="13.328719554195755"><ele>1638.0</ele><time>2026-04-24T10:10:06Z</time></trkpt><trkpt lat="41.93266447476881" lon="13.328763917115564"><ele>1638.0</ele><time>2026-04-24T10:10:07Z</time></trkpt><trkpt lat="41.93260513282423" lon="13.328797897121696"><ele>1638.0</ele><time>2026-04-24T10:10:08Z</time></trkpt><trkpt lat="41.93251355481316" lon="13.328831555857082"><ele>1638.0</ele><time>2026-04-24T10:10:10Z</time></trkpt><trkpt lat="41.9324414904446" lon="13.328838714576072"><ele>1640.0</ele><time>2026-04-24T10:10:12Z</time></trkpt><trkpt lat="41.932352001403736" lon="13.328838125580075"><ele>1642.0</ele><time>2026-04-24T10:10:14Z</time></trkpt><trkpt lat="41.932282125088854" lon="13.32881955581564"><ele>1644.0</ele><time>2026-04-24T10:10:15Z</time></trkpt><trkpt lat="41.93221546761922" lon="13.328803432901385"><ele>1646.0</ele><time>2026-04-24T10:10:16Z</time></trkpt><trkpt lat="41.93214417992119" lon="13.328837655910405"><ele>1648.0</ele><time>2026-04-24T10:10:18Z</time></trkpt><trkpt lat="41.932054081344596" lon="13.32888427609317"><ele>1650.0</ele><time>2026-04-24T10:10:20Z</time></trkpt><trkpt lat="41.93198029695553" lon="13.328891631657031"><ele>1649.2</ele><time>2026-04-24T10:10:23Z</time></trkpt><trkpt lat="41.93190329495974" lon="13.328930252993647"><ele>1648.4</ele><time>2026-04-24T10:10:52Z</time></trkpt><trkpt lat="41.931832163208675" lon="13.328982133966507"><ele>1647.6</ele><time>2026-04-24T10:10:54Z</time></trkpt><trkpt lat="41.93175074473796" lon="13.329027688698092"><ele>1646.8</ele><time>2026-04-24T10:10:56Z</time></trkpt><trkpt lat="41.931643474860174" lon="13.329038476640354"><ele>1646.0</ele><time>2026-04-24T10:10:58Z</time></trkpt><trkpt lat="41.931542574999234" lon="13.329059372449864"><ele>1647.8333333333333</ele><time>2026-04-24T10:11:00Z</time></trkpt><trkpt lat="41.93145900457841" lon="13.329071919875416"><ele>1649.6666666666665</ele><time>2026-04-24T10:11:02Z</time></trkpt><trkpt lat="41.93135277911404" lon="13.329133575964832"><ele>1651.5</ele><time>2026-04-24T10:11:05Z</time></trkpt><trkpt lat="41.931289981190105" lon="13.329181977899237"><ele>1653.3333333333335</ele><time>2026-04-24T10:11:07Z</time></trkpt><trkpt lat="41.93121523562355" lon="13.329248388824546"><ele>1655.1666666666667</ele><time>2026-04-24T10:11:10.999Z</time></trkpt><trkpt lat="41.93114355051338" lon="13.329281433543132"><ele>1657.0</ele><time>2026-04-24T10:11:17.999Z</time></trkpt><trkpt lat="41.93106856072519" lon="13.329289109599829"><ele>1657.0000000000002</ele><time>2026-04-24T10:11:19.999Z</time></trkpt><trkpt lat="41.930978900214356" lon="13.329298370187868"><ele>1657.0</ele><time>2026-04-24T10:11:21.999Z</time></trkpt><trkpt lat="41.93088398577746" lon="13.329308595200299"><ele>1657.0</ele><time>2026-04-24T10:11:24.001Z</time></trkpt><trkpt lat="41.93082025000309" lon="13.32932934333675"><ele>1657.0</ele><time>2026-04-24T10:11:26.001Z</time></trkpt><trkpt lat="41.93074063956898" lon="13.329329941714667"><ele>1657.0000000000002</ele><time>2026-04-24T10:11:27.001Z</time></trkpt><trkpt lat="41.93066061438826" lon="13.32929654392798"><ele>1657.0</ele><time>2026-04-24T10:11:35.001Z</time></trkpt><trkpt lat="41.93057196123425" lon="13.329391397330312"><ele>1659.6666666666667</ele><time>2026-04-24T10:12:32.999Z</time></trkpt><trkpt lat="41.93051122327659" lon="13.329416098262676"><ele>1662.3333333333335</ele><time>2026-04-24T10:12:34.999Z</time></trkpt><trkpt lat="41.93043256573464" lon="13.329455090347768"><ele>1665.0</ele><time>2026-04-24T10:12:36.999Z</time></trkpt><trkpt lat="41.930352313197865" lon="13.329437647526756"><ele>1667.6666666666665</ele><time>2026-04-24T10:12:38.999Z</time></trkpt><trkpt lat="41.93025973770779" lon="13.329402875142533"><ele>1670.3333333333333</ele><time>2026-04-24T10:12:40.999Z</time></trkpt><trkpt lat="41.93016175983269" lon="13.329363019851558"><ele>1673.0</ele><time>2026-04-24T10:12:42.999Z</time></trkpt><trkpt lat="41.93007934154783" lon="13.329293088919403"><ele>1674.142857142857</ele><time>2026-04-24T10:12:44.999Z</time></trkpt><trkpt lat="41.93000597240747" lon="13.329259053592065"><ele>1675.2857142857142</ele><time>2026-04-24T10:12:46.999Z</time></trkpt><trkpt lat="41.92993099433233" lon="13.32924433198532"><ele>1676.4285714285716</ele><time>2026-04-24T10:12:49.999Z</time></trkpt><trkpt lat="41.92986959861307" lon="13.32927346789616"><ele>1677.5714285714284</ele><time>2026-04-24T10:12:52.999Z</time></trkpt><trkpt lat="41.92980931993015" lon="13.329298946236674"><ele>1678.7142857142858</ele><time>2026-04-24T10:12:56.999Z</time></trkpt><trkpt lat="41.92974183300275" lon="13.329355499226791"><ele>1679.857142857143</ele><time>2026-04-24T10:13:01.999Z</time></trkpt><trkpt lat="41.92966583155842" lon="13.329383116514657"><ele>1681.0</ele><time>2026-04-24T10:13:03.999Z</time></trkpt><trkpt lat="41.92958686834504" lon="13.329398558341776"><ele>1681.0000000000002</ele><time>2026-04-24T10:13:05.999Z</time></trkpt><trkpt lat="41.92949071050086" lon="13.329367792506604"><ele>1681.0</ele><time>2026-04-24T10:13:07.999Z</time></trkpt><trkpt lat="41.92940230976063" lon="13.329377721135232"><ele>1681.0</ele><time>2026-04-24T10:13:09.999Z</time></trkpt><trkpt lat="41.929325987495055" lon="13.329376274301596"><ele>1681.0</ele><time>2026-04-24T10:13:10.999Z</time></trkpt><trkpt lat="41.929263344924216" lon="13.329358882765883"><ele>1681.0000000000002</ele><time>2026-04-24T10:13:11.999Z</time></trkpt><trkpt lat="41.92915788697115" lon="13.329322393250122"><ele>1681.0</ele><time>2026-04-24T10:13:13.999Z</time></trkpt><trkpt lat="41.92905870098199" lon="13.32931165512374"><ele>1682.0000000000002</ele><time>2026-04-24T10:13:15.999Z</time></trkpt><trkpt lat="41.928950134113464" lon="13.329334579296596"><ele>1683.0</ele><time>2026-04-24T10:13:17.999Z</time></trkpt><trkpt lat="41.92885008118958" lon="13.329384649526837"><ele>1684.0</ele><time>2026-04-24T10:13:19.999Z</time></trkpt><trkpt lat="41.92878174322662" lon="13.329400593537473"><ele>1685.0</ele><time>2026-04-24T10:13:20.999Z</time></trkpt><trkpt lat="41.928700108827854" lon="13.329421334938914"><ele>1686.0000000000002</ele><time>2026-04-24T10:13:21.999Z</time></trkpt><trkpt lat="41.92862524910679" lon="13.329444983382324"><ele>1687.0</ele><time>2026-04-24T10:13:22.999Z</time></trkpt><trkpt lat="41.92853214655758" lon="13.329482685040162"><ele>1687.0000000000002</ele><time>2026-04-24T10:13:23.999Z</time></trkpt><trkpt lat="41.92844605756414" lon="13.329523283243361"><ele>1687.0</ele><time>2026-04-24T10:13:24.999Z</time></trkpt><trkpt lat="41.92837770534738" lon="13.329565199562856"><ele>1687.0</ele><time>2026-04-24T10:13:25.999Z</time></trkpt><trkpt lat="41.92832641818298" lon="13.32962175134508"><ele>1687.0</ele><time>2026-04-24T10:13:26.999Z</time></trkpt><trkpt lat="41.928273781142344" lon="13.329701033492201"><ele>1687.0000000000002</ele><time>2026-04-24T10:13:28Z</time></trkpt><trkpt lat="41.92821556546967" lon="13.329778988631176"><ele>1687.0</ele><time>2026-04-24T10:13:29Z</time></trkpt><trkpt lat="41.928167628216286" lon="13.329834251999518"><ele>1690.6</ele><time>2026-04-24T10:13:30Z</time></trkpt><trkpt lat="41.92806354438866" lon="13.32992043828065"><ele>1694.1999999999998</ele><time>2026-04-24T10:13:32Z</time></trkpt><trkpt lat="41.92799532569198" lon="13.329965736619624"><ele>1697.8</ele><time>2026-04-24T10:13:33Z</time></trkpt><trkpt lat="41.92793607761495" lon="13.33001643824511"><ele>1701.4</ele><time>2026-04-24T10:13:34Z</time></trkpt><trkpt lat="41.92784691495504" lon="13.330124374887033"><ele>1705.0</ele><time>2026-04-24T10:13:36Z</time></trkpt><trkpt lat="41.92779179596115" lon="13.330177114549812"><ele>1705.0</ele><time>2026-04-24T10:13:37Z</time></trkpt><trkpt lat="41.927703793561534" lon="13.330270355502112"><ele>1705.0</ele><time>2026-04-24T10:13:39Z</time></trkpt><trkpt lat="41.927640822795155" lon="13.330343727822296"><ele>1705.0</ele><time>2026-04-24T10:13:40Z</time></trkpt><trkpt lat="41.92757472617235" lon="13.33039156278764"><ele>1705.0</ele><time>2026-04-24T10:13:41Z</time></trkpt><trkpt lat="41.927479828118734" lon="13.330497218940934"><ele>1705.0</ele><time>2026-04-24T10:13:43Z</time></trkpt><trkpt lat="41.92740044408941" lon="13.33055904826046"><ele>1709.0000000000002</ele><time>2026-04-24T10:13:44Z</time></trkpt><trkpt lat="41.92734748896749" lon="13.330611050751486"><ele>1713.0</ele><time>2026-04-24T10:13:45Z</time></trkpt><trkpt lat="41.92726535602416" lon="13.330728107350694"><ele>1717.0</ele><time>2026-04-24T10:13:47Z</time></trkpt><trkpt lat="41.92722692116103" lon="13.330810213303925"><ele>1721.0</ele><time>2026-04-24T10:13:48Z</time></trkpt><trkpt lat="41.92718316632847" lon="13.330878005539315"><ele>1725.0000000000002</ele><time>2026-04-24T10:13:49Z</time></trkpt><trkpt lat="41.927108478958814" lon="13.330967395784869"><ele>1729.0</ele><time>2026-04-24T10:13:51Z</time></trkpt><trkpt lat="41.92698541563557" lon="13.331033003325127"><ele>1729.0000000000002</ele><time>2026-04-24T10:13:53Z</time></trkpt><trkpt lat="41.92691204733301" lon="13.331053463450006"><ele>1729.0</ele><time>2026-04-24T10:13:54Z</time></trkpt><trkpt lat="41.92681692997246" lon="13.331085543480059"><ele>1729.0</ele><time>2026-04-24T10:13:56Z</time></trkpt><trkpt lat="41.926753488837" lon="13.331165018800458"><ele>1729.0</ele><time>2026-04-24T10:13:58Z</time></trkpt><trkpt lat="41.92671139219803" lon="13.331243127177782"><ele>1729.0000000000002</ele><time>2026-04-24T10:14:00Z</time></trkpt><trkpt lat="41.92668052100253" lon="13.331346241385923"><ele>1729.0</ele><time>2026-04-24T10:14:22Z</time></trkpt><trkpt lat="41.92664192549893" lon="13.331417289944088"><ele>1730.8000000000002</ele><time>2026-04-24T10:14:24Z</time></trkpt><trkpt lat="41.926601497610385" lon="13.331535581588318"><ele>1732.6000000000001</ele><time>2026-04-24T10:14:26Z</time></trkpt><trkpt lat="41.92657229532726" lon="13.331625789962049"><ele>1734.4</ele><time>2026-04-24T10:14:28Z</time></trkpt><trkpt lat="41.926546904571474" lon="13.331735366083196"><ele>1736.2</ele><time>2026-04-24T10:14:31Z</time></trkpt><trkpt lat="41.92657376421328" lon="13.331911492109027"><ele>1738.0</ele><time>2026-04-24T10:14:33Z</time></trkpt><trkpt lat="41.92658796434435" lon="13.332001748424187"><ele>1738.0000000000002</ele><time>2026-04-24T10:14:34Z</time></trkpt><trkpt lat="41.92659078994874" lon="13.332134315646087"><ele>1738.0</ele><time>2026-04-24T10:14:36Z</time></trkpt><trkpt lat="41.92657234165758" lon="13.332241131730699"><ele>1738.0</ele><time>2026-04-24T10:14:38Z</time></trkpt><trkpt lat="41.92654450734027" lon="13.332325711588112"><ele>1738.0</ele><time>2026-04-24T10:14:39Z</time></trkpt><trkpt lat="41.926507757210295" lon="13.332407342678513"><ele>1738.0000000000002</ele><time>2026-04-24T10:14:40Z</time></trkpt><trkpt lat="41.92645390041091" lon="13.332501680462137"><ele>1738.0</ele><time>2026-04-24T10:14:41Z</time></trkpt><trkpt lat="41.926384892991706" lon="13.332577709871451"><ele>1741.4</ele><time>2026-04-24T10:14:42Z</time></trkpt><trkpt lat="41.92632660718993" lon="13.332664024659158"><ele>1744.8000000000002</ele><time>2026-04-24T10:14:43Z</time></trkpt><trkpt lat="41.92628546205058" lon="13.332766777986436"><ele>1748.2</ele><time>2026-04-24T10:14:44Z</time></trkpt><trkpt lat="41.926241723824305" lon="13.332899029273786"><ele>1751.6</ele><time>2026-04-24T10:14:45Z</time></trkpt><trkpt lat="41.92620098399406" lon="13.333038039241657"><ele>1755.0</ele><time>2026-04-24T10:14:45.999Z</time></trkpt><trkpt lat="41.926164381042504" lon="13.333157950598995"><ele>1760.0</ele><time>2026-04-24T10:14:46.999Z</time></trkpt><trkpt lat="41.92613289279739" lon="13.333273905455536"><ele>1765.0</ele><time>2026-04-24T10:14:47.999Z</time></trkpt><trkpt lat="41.92610041158535" lon="13.333389255576774"><ele>1770.0</ele><time>2026-04-24T10:14:48.999Z</time></trkpt><trkpt lat="41.926043159655215" lon="13.333504074574462"><ele>1775.0</ele><time>2026-04-24T10:14:49.999Z</time></trkpt><trkpt lat="41.92597552112113" lon="13.333595221994413"><ele>1780.0</ele><time>2026-04-24T10:14:50.999Z</time></trkpt><trkpt lat="41.925912602240665" lon="13.333661030147905"><ele>1777.8</ele><time>2026-04-24T10:14:51.999Z</time></trkpt><trkpt lat="41.92583375455121" lon="13.333740907561754"><ele>1775.6</ele><time>2026-04-24T10:14:52.999Z</time></trkpt><trkpt lat="41.9257579815101" lon="13.333826331133066"><ele>1773.4</ele><time>2026-04-24T10:14:53.999Z</time></trkpt><trkpt lat="41.925672780379315" lon="13.333913751237134"><ele>1771.2</ele><time>2026-04-24T10:14:54.999Z</time></trkpt><trkpt lat="41.92559020576358" lon="13.333988882703771"><ele>1769.0</ele><time>2026-04-24T10:14:55.999Z</time></trkpt><trkpt lat="41.92553672461731" lon="13.334055658578967"><ele>1768.9999999999998</ele><time>2026-04-24T10:14:56.999Z</time></trkpt><trkpt lat="41.92549681422405" lon="13.334131139136142"><ele>1769.0</ele><time>2026-04-24T10:14:57.999Z</time></trkpt><trkpt lat="41.92547229039307" lon="13.334220409708832"><ele>1769.0</ele><time>2026-04-24T10:14:58.999Z</time></trkpt><trkpt lat="41.92540763514874" lon="13.33432049119146"><ele>1769.0</ele><time>2026-04-24T10:15:00.999Z</time></trkpt><trkpt lat="41.92531372165806" lon="13.334373838584602"><ele>1768.9999999999998</ele><time>2026-04-24T10:15:02.999Z</time></trkpt><trkpt lat="41.92523920350854" lon="13.334391371215716"><ele>1769.0</ele><time>2026-04-24T10:15:03.999Z</time></trkpt><trkpt lat="41.925174403188706" lon="13.334418511743374"><ele>1768.9999999999998</ele><time>2026-04-24T10:15:04.999Z</time></trkpt><trkpt lat="41.9251195996282" lon="13.334464271015632"><ele>1769.0</ele><time>2026-04-24T10:15:05.999Z</time></trkpt><trkpt lat="41.92506482625382" lon="13.334512718016379"><ele>1769.0</ele><time>2026-04-24T10:15:07.999Z</time></trkpt><trkpt lat="41.92504247641221" lon="13.334611141188125"><ele>1769.0</ele><time>2026-04-24T10:15:09.999Z</time></trkpt><trkpt lat="41.92498700544293" lon="13.33475028278333"><ele>1768.9999999999998</ele><time>2026-04-24T10:15:11.999Z</time></trkpt><trkpt lat="41.92494726050831" lon="13.334898381503425"><ele>1769.0</ele><time>2026-04-24T10:15:13.999Z</time></trkpt><trkpt lat="41.92496011895467" lon="13.334997359230641"><ele>1769.6666666666665</ele><time>2026-04-24T10:15:15.999Z</time></trkpt><trkpt lat="41.92498878687285" lon="13.335078538843895"><ele>1770.3333333333333</ele><time>2026-04-24T10:15:17.999Z</time></trkpt><trkpt lat="41.92503089203336" lon="13.335172783249236"><ele>1771.0</ele><time>2026-04-24T10:15:19.999Z</time></trkpt><trkpt lat="41.92506698130329" lon="13.335289425361212"><ele>1771.6666666666665</ele><time>2026-04-24T10:15:21.999Z</time></trkpt><trkpt lat="41.92508024489696" lon="13.335419277904414"><ele>1772.3333333333333</ele><time>2026-04-24T10:15:23.999Z</time></trkpt><trkpt lat="41.92506675581063" lon="13.335543634897094"><ele>1773.0</ele><time>2026-04-24T10:15:25.999Z</time></trkpt><trkpt lat="41.92505659029249" lon="13.33565977847129"><ele>1773.0</ele><time>2026-04-24T10:15:27.999Z</time></trkpt><trkpt lat="41.92505630338618" lon="13.335788293419034"><ele>1773.0</ele><time>2026-04-24T10:15:29.999Z</time></trkpt><trkpt lat="41.92501609366112" lon="13.335878692662009"><ele>1773.0</ele><time>2026-04-24T10:15:31.999Z</time></trkpt><trkpt lat="41.92493050949426" lon="13.335871980804027"><ele>1773.0</ele><time>2026-04-24T10:15:35Z</time></trkpt><trkpt lat="41.924891793275826" lon="13.335985995132974"><ele>1773.0</ele><time>2026-04-24T10:15:38Z</time></trkpt><trkpt lat="41.9248660795363" lon="13.336064441540344"><ele>1773.0</ele><time>2026-04-24T10:15:41Z</time></trkpt></trkseg><trkseg><trkpt lat="41.92033800003595" lon="13.339570278016616"><ele>1765.9999999999998</ele><time>2026-04-24T10:43:29.999Z</time></trkpt><trkpt lat="41.92041036222287" lon="13.339562425247767"><ele>1766.0</ele><time>2026-04-24T10:43:33.999Z</time></trkpt><trkpt lat="41.92047404858407" lon="13.339610358517962"><ele>1766.0</ele><time>2026-04-24T10:43:35.999Z</time></trkpt><trkpt lat="41.920552155728814" lon="13.339685027015467"><ele>1766.0</ele><time>2026-04-24T10:43:38.999Z</time></trkpt><trkpt lat="41.92061459017469" lon="13.33975453138459"><ele>1765.9999999999998</ele><time>2026-04-24T10:43:40.999Z</time></trkpt><trkpt lat="41.92069688886184" lon="13.339829309508938"><ele>1766.0</ele><time>2026-04-24T10:43:42.999Z</time></trkpt><trkpt lat="41.92079107813375" lon="13.33986155560302"><ele>1766.4999999999998</ele><time>2026-04-24T10:43:44.999Z</time></trkpt><trkpt lat="41.92085456885537" lon="13.339864727796781"><ele>1767.0</ele><time>2026-04-24T10:43:45.999Z</time></trkpt><trkpt lat="41.920930316532704" lon="13.339853182139022"><ele>1767.5</ele><time>2026-04-24T10:43:46.999Z</time></trkpt><trkpt lat="41.92100517612182" lon="13.339822650327498"><ele>1768.0</ele><time>2026-04-24T10:43:47.999Z</time></trkpt><trkpt lat="41.92108523711768" lon="13.339778168727545"><ele>1768.4999999999998</ele><time>2026-04-24T10:43:48.999Z</time></trkpt><trkpt lat="41.92116271157464" lon="13.339721603441514"><ele>1769.0</ele><time>2026-04-24T10:43:49.999Z</time></trkpt><trkpt lat="41.921221044460594" lon="13.339673390155372"><ele>1769.4999999999998</ele><time>2026-04-24T10:43:50.999Z</time></trkpt><trkpt lat="41.921314049164145" lon="13.339579531320702"><ele>1770.0</ele><time>2026-04-24T10:43:52.999Z</time></trkpt><trkpt lat="41.92135149715858" lon="13.33950704282126"><ele>1770.5</ele><time>2026-04-24T10:43:53.999Z</time></trkpt><trkpt lat="41.921439203940864" lon="13.339398328842062"><ele>1771.0</ele><time>2026-04-24T10:43:55.999Z</time></trkpt><trkpt lat="41.92148518503672" lon="13.339334604384073"><ele>1771.4999999999998</ele><time>2026-04-24T10:43:56.999Z</time></trkpt><trkpt lat="41.92153064796274" lon="13.3392719451552"><ele>1772.0</ele><time>2026-04-24T10:43:57.999Z</time></trkpt><trkpt lat="41.921574233991855" lon="13.339196173133905"><ele>1772.0</ele><time>2026-04-24T10:43:58.999Z</time></trkpt><trkpt lat="41.92161451921363" lon="13.33912816344041"><ele>1771.9999999999998</ele><time>2026-04-24T10:43:59.999Z</time></trkpt><trkpt lat="41.92168930397004" lon="13.339004697723317"><ele>1771.9999999999998</ele><time>2026-04-24T10:44:01.999Z</time></trkpt><trkpt lat="41.921764434192895" lon="13.338878903464936"><ele>1772.0</ele><time>2026-04-24T10:44:03.999Z</time></trkpt><trkpt lat="41.92181923500459" lon="13.338773900610427"><ele>1772.0</ele><time>2026-04-24T10:44:05.999Z</time></trkpt><trkpt lat="41.92188462127397" lon="13.338703979381444"><ele>1772.0</ele><time>2026-04-24T10:44:08.999Z</time></trkpt><trkpt lat="41.92193147306498" lon="13.338613598900183"><ele>1771.9999999999998</ele><time>2026-04-24T10:44:11.999Z</time></trkpt><trkpt lat="41.921986759001804" lon="13.338536911974387"><ele>1771.9999999999998</ele><time>2026-04-24T10:44:14.999Z</time></trkpt><trkpt lat="41.92203790230899" lon="13.338462314229412"><ele>1772.0</ele><time>2026-04-24T10:44:17.999Z</time></trkpt><trkpt lat="41.92211015245202" lon="13.338361739997174"><ele>1772.0</ele><time>2026-04-24T10:44:19.999Z</time></trkpt><trkpt lat="41.92218223961592" lon="13.338250237553359"><ele>1771.9999999999998</ele><time>2026-04-24T10:44:21.999Z</time></trkpt><trkpt lat="41.922279813213095" lon="13.338136125105123"><ele>1772.0</ele><time>2026-04-24T10:44:23.999Z</time></trkpt><trkpt lat="41.92232578539278" lon="13.338071423661177"><ele>1772.0</ele><time>2026-04-24T10:44:24.999Z</time></trkpt><trkpt lat="41.92237257925463" lon="13.338005565704949"><ele>1772.0</ele><time>2026-04-24T10:44:25.999Z</time></trkpt><trkpt lat="41.92240793500135" lon="13.337920820261717"><ele>1771.9999999999998</ele><time>2026-04-24T10:44:26.999Z</time></trkpt><trkpt lat="41.92245234074874" lon="13.337856693941141"><ele>1772.0</ele><time>2026-04-24T10:44:27.999Z</time></trkpt><trkpt lat="41.92250537387472" lon="13.337810621914432"><ele>1772.3333333333333</ele><time>2026-04-24T10:44:28.999Z</time></trkpt><trkpt lat="41.922593231290755" lon="13.337700304092523"><ele>1772.6666666666665</ele><time>2026-04-24T10:44:30.999Z</time></trkpt><trkpt lat="41.922642709139105" lon="13.337645648190218"><ele>1773.0</ele><time>2026-04-24T10:44:32Z</time></trkpt><trkpt lat="41.922690165714236" lon="13.337584409021272"><ele>1773.3333333333335</ele><time>2026-04-24T10:44:33Z</time></trkpt><trkpt lat="41.922750881708566" lon="13.337557887213197"><ele>1773.6666666666667</ele><time>2026-04-24T10:44:34Z</time></trkpt><trkpt lat="41.92280720812715" lon="13.337517738483823"><ele>1774.0</ele><time>2026-04-24T10:44:35Z</time></trkpt><trkpt lat="41.92291473999951" lon="13.337454817659232"><ele>1774.0000000000002</ele><time>2026-04-24T10:44:37Z</time></trkpt><trkpt lat="41.92297893799824" lon="13.337410200421129"><ele>1774.0</ele><time>2026-04-24T10:44:39Z</time></trkpt><trkpt lat="41.92304800904189" lon="13.33742192533865"><ele>1774.0</ele><time>2026-04-24T10:44:42Z</time></trkpt><trkpt lat="41.92313089863394" lon="13.337424597215453"><ele>1774.0</ele><time>2026-04-24T10:44:45Z</time></trkpt><trkpt lat="41.92319546799374" lon="13.3374245972146"><ele>1774.0000000000002</ele><time>2026-04-24T10:44:47Z</time></trkpt><trkpt lat="41.92327143214731" lon="13.337423295096938"><ele>1774.0</ele><time>2026-04-24T10:44:49Z</time></trkpt><trkpt lat="41.923354683830404" lon="13.337402256224022"><ele>1775.0</ele><time>2026-04-24T10:44:51Z</time></trkpt><trkpt lat="41.923445478802776" lon="13.337421684281008"><ele>1776.0</ele><time>2026-04-24T10:44:53Z</time></trkpt><trkpt lat="41.923532267287676" lon="13.33747643067866"><ele>1777.0</ele><time>2026-04-24T10:44:55Z</time></trkpt><trkpt lat="41.92361426340558" lon="13.33754463169653"><ele>1778.0</ele><time>2026-04-24T10:44:57Z</time></trkpt><trkpt lat="41.92371379752867" lon="13.337637084425522"><ele>1779.0</ele><time>2026-04-24T10:44:59Z</time></trkpt><trkpt lat="41.92376463827545" lon="13.337688624332568"><ele>1779.0</ele><time>2026-04-24T10:45:00Z</time></trkpt><trkpt lat="41.923834105575175" lon="13.337765732638532"><ele>1779.0</ele><time>2026-04-24T10:45:02Z</time></trkpt><trkpt lat="41.923893101013725" lon="13.337853712811782"><ele>1779.0</ele><time>2026-04-24T10:45:04Z</time></trkpt><trkpt lat="41.92407209438637" lon="13.33779102717888"><ele>1779.0</ele><time>2026-04-24T10:45:07Z</time></trkpt><trkpt lat="41.924112352761504" lon="13.337709854790406"><ele>1779.0</ele><time>2026-04-24T10:45:08Z</time></trkpt><trkpt lat="41.92416790233683" lon="13.337625044308673"><ele>1779.0</ele><time>2026-04-24T10:45:09Z</time></trkpt><trkpt lat="41.92422956169633" lon="13.337539581745732"><ele>1779.0</ele><time>2026-04-24T10:45:10Z</time></trkpt><trkpt lat="41.92427047290156" lon="13.337443068723848"><ele>1779.0</ele><time>2026-04-24T10:45:11Z</time></trkpt><trkpt lat="41.92431582165382" lon="13.337343527807572"><ele>1779.0</ele><time>2026-04-24T10:45:12Z</time></trkpt><trkpt lat="41.92436700647469" lon="13.337238505292113"><ele>1779.0</ele><time>2026-04-24T10:45:13Z</time></trkpt><trkpt lat="41.92443120642848" lon="13.337148133336715"><ele>1779.0</ele><time>2026-04-24T10:45:14Z</time></trkpt><trkpt lat="41.92448590496698" lon="13.337045939004234"><ele>1779.2</ele><time>2026-04-24T10:45:15Z</time></trkpt><trkpt lat="41.924542051150546" lon="13.336940116329103"><ele>1779.4</ele><time>2026-04-24T10:45:16Z</time></trkpt><trkpt lat="41.92459472019035" lon="13.336837041428845"><ele>1779.6</ele><time>2026-04-24T10:45:17Z</time></trkpt><trkpt lat="41.924646759473696" lon="13.336735031415095"><ele>1779.8</ele><time>2026-04-24T10:45:18Z</time></trkpt><trkpt lat="41.92469664789377" lon="13.336637179654204"><ele>1780.0</ele><time>2026-04-24T10:45:19Z</time></trkpt><trkpt lat="41.924745135295915" lon="13.33654207577926"><ele>1780.0000000000002</ele><time>2026-04-24T10:45:20Z</time></trkpt><trkpt lat="41.9247936530977" lon="13.336446912196019"><ele>1780.0</ele><time>2026-04-24T10:45:21Z</time></trkpt><trkpt lat="41.924838649873486" lon="13.336358655067981"><ele>1780.0</ele><time>2026-04-24T10:45:22Z</time></trkpt><trkpt lat="41.92488284362555" lon="13.336271972734991"><ele>1780.0</ele><time>2026-04-24T10:45:23Z</time></trkpt><trkpt lat="41.92492644946021" lon="13.336187263303554"><ele>1780.0000000000002</ele><time>2026-04-24T10:45:24Z</time></trkpt><trkpt lat="41.92496967242107" lon="13.33610690564693"><ele>1780.0</ele><time>2026-04-24T10:45:25Z</time></trkpt><trkpt lat="41.925011783869095" lon="13.336029938424737"><ele>1778.6</ele><time>2026-04-24T10:45:26Z</time></trkpt><trkpt lat="41.92505001633666" lon="13.33596006074924"><ele>1777.2</ele><time>2026-04-24T10:45:27Z</time></trkpt><trkpt lat="41.925116011025935" lon="13.335851107323123"><ele>1775.8000000000002</ele><time>2026-04-24T10:45:29Z</time></trkpt><trkpt lat="41.925175236466075" lon="13.335752337712536"><ele>1774.4</ele><time>2026-04-24T10:45:31Z</time></trkpt><trkpt lat="41.925258062090904" lon="13.335666349253845"><ele>1773.0</ele><time>2026-04-24T10:45:34Z</time></trkpt><trkpt lat="41.925024885857134" lon="13.33521566245958"><ele>1773.0</ele><time>2026-04-24T10:45:36Z</time></trkpt><trkpt lat="41.925011996976615" lon="13.335070548126591"><ele>1773.0</ele><time>2026-04-24T10:45:38Z</time></trkpt><trkpt lat="41.9249922798394" lon="13.334943087041376"><ele>1773.0</ele><time>2026-04-24T10:45:40Z</time></trkpt><trkpt lat="41.924981296131115" lon="13.334836335747994"><ele>1773.0</ele><time>2026-04-24T10:45:42Z</time></trkpt><trkpt lat="41.92497863833659" lon="13.334750830420797"><ele>1773.0</ele><time>2026-04-24T10:45:44Z</time></trkpt><trkpt lat="41.92501161085595" lon="13.334639186947559"><ele>1773.0</ele><time>2026-04-24T10:45:47Z</time></trkpt><trkpt lat="41.9250609819893" lon="13.334533328447678"><ele>1772.2</ele><time>2026-04-24T10:45:50Z</time></trkpt><trkpt lat="41.925132453425746" lon="13.334443529580994"><ele>1771.4</ele><time>2026-04-24T10:45:53Z</time></trkpt><trkpt lat="41.92520515943915" lon="13.334411255180445"><ele>1770.6000000000001</ele><time>2026-04-24T10:45:55Z</time></trkpt><trkpt lat="41.92527874138866" lon="13.334368305720812"><ele>1769.8000000000002</ele><time>2026-04-24T10:45:57Z</time></trkpt><trkpt lat="41.92538237242639" lon="13.33433599389271"><ele>1769.0</ele><time>2026-04-24T10:45:59Z</time></trkpt><trkpt lat="41.92546273793901" lon="13.334260117932255"><ele>1768.9999999999998</ele><time>2026-04-24T10:46:01Z</time></trkpt><trkpt lat="41.92551058173704" lon="13.334197759856007"><ele>1769.0</ele><time>2026-04-24T10:46:02Z</time></trkpt><trkpt lat="41.92556496777848" lon="13.334136487416444"><ele>1769.0</ele><time>2026-04-24T10:46:03Z</time></trkpt><trkpt lat="41.92562847153128" lon="13.334079319230957"><ele>1769.0</ele><time>2026-04-24T10:46:04Z</time></trkpt><trkpt lat="41.92570134382694" lon="13.33401823841659"><ele>1768.9999999999998</ele><time>2026-04-24T10:46:05Z</time></trkpt><trkpt lat="41.925780669340114" lon="13.33396462104536"><ele>1769.0</ele><time>2026-04-24T10:46:06Z</time></trkpt><trkpt lat="41.925863993844686" lon="13.333909657857562"><ele>1771.2</ele><time>2026-04-24T10:46:07Z</time></trkpt><trkpt lat="41.925937056239604" lon="13.333876620867809"><ele>1773.4</ele><time>2026-04-24T10:46:08Z</time></trkpt><trkpt lat="41.92600166567175" lon="13.333843621950493"><ele>1775.6</ele><time>2026-04-24T10:46:09Z</time></trkpt><trkpt lat="41.926107204789915" lon="13.33378501009359"><ele>1777.8</ele><time>2026-04-24T10:46:11Z</time></trkpt><trkpt lat="41.926197319924995" lon="13.333702827076445"><ele>1780.0</ele><time>2026-04-24T10:46:13Z</time></trkpt><trkpt lat="41.92624752806641" lon="13.333582659320545"><ele>1780.0</ele><time>2026-04-24T10:46:15Z</time></trkpt><trkpt lat="41.92628852195423" lon="13.333443989473603"><ele>1780.0</ele><time>2026-04-24T10:46:17Z</time></trkpt><trkpt lat="41.92633459832465" lon="13.333331440452543"><ele>1780.0</ele><time>2026-04-24T10:46:19Z</time></trkpt><trkpt lat="41.926402657488545" lon="13.333219587751884"><ele>1780.0</ele><time>2026-04-24T10:46:21Z</time></trkpt><trkpt lat="41.92647459765902" lon="13.333109031493258"><ele>1780.0</ele><time>2026-04-24T10:46:23Z</time></trkpt><trkpt lat="41.92652804697248" lon="13.33303668907546"><ele>1780.2</ele><time>2026-04-24T10:46:25Z</time></trkpt><trkpt lat="41.92657480172178" lon="13.332958394437473"><ele>1780.4</ele><time>2026-04-24T10:46:27Z</time></trkpt><trkpt lat="41.926628110255" lon="13.332881885538198"><ele>1780.6</ele><time>2026-04-24T10:46:29Z</time></trkpt><trkpt lat="41.92670148774685" lon="13.332747430187329"><ele>1780.8</ele><time>2026-04-24T10:46:31Z</time></trkpt><trkpt lat="41.9267700216689" lon="13.332628286447"><ele>1781.0</ele><time>2026-04-24T10:46:33Z</time></trkpt><trkpt lat="41.92684048841914" lon="13.33250571974465"><ele>1781.0</ele><time>2026-04-24T10:46:35Z</time></trkpt><trkpt lat="41.92690386009362" lon="13.332350914860886"><ele>1781.0</ele><time>2026-04-24T10:46:37Z</time></trkpt><trkpt lat="41.92694702536269" lon="13.332202370546563"><ele>1781.0</ele><time>2026-04-24T10:46:39Z</time></trkpt><trkpt lat="41.926978109481304" lon="13.332107847053416"><ele>1781.0</ele><time>2026-04-24T10:46:41Z</time></trkpt><trkpt lat="41.92706879421602" lon="13.332060169468862"><ele>1781.0</ele><time>2026-04-24T10:46:44Z</time></trkpt><trkpt lat="41.92714623207896" lon="13.332019915715403"><ele>1777.1666666666665</ele><time>2026-04-24T10:46:46Z</time></trkpt><trkpt lat="41.927232338684234" lon="13.331926713982776"><ele>1773.3333333333333</ele><time>2026-04-24T10:46:48Z</time></trkpt><trkpt lat="41.92731434942805" lon="13.33188329261743"><ele>1769.5</ele><time>2026-04-24T10:46:50Z</time></trkpt><trkpt lat="41.927397329373974" lon="13.331867824528908"><ele>1765.6666666666665</ele><time>2026-04-24T10:46:52Z</time></trkpt><trkpt lat="41.9274598426256" lon="13.331836434583584"><ele>1761.8333333333333</ele><time>2026-04-24T10:46:54Z</time></trkpt><trkpt lat="41.927528532701544" lon="13.331794406160542"><ele>1758.0</ele><time>2026-04-24T10:47:03Z</time></trkpt><trkpt lat="41.92759558587118" lon="13.331759532952564"><ele>1758.0</ele><time>2026-04-24T10:47:05.999Z</time></trkpt><trkpt lat="41.92765637091764" lon="13.331737082722688"><ele>1758.0</ele><time>2026-04-24T10:47:10.999Z</time></trkpt><trkpt lat="41.92771537731124" lon="13.331678096925941"><ele>1758.0</ele><time>2026-04-24T10:47:21Z</time></trkpt><trkpt lat="41.92776170817955" lon="13.33154880836246"><ele>1758.0</ele><time>2026-04-24T10:47:24Z</time></trkpt><trkpt lat="41.92782813629784" lon="13.331496803374675"><ele>1758.0</ele><time>2026-04-24T10:47:27Z</time></trkpt><trkpt lat="41.9279048989033" lon="13.33147880824579"><ele>1758.0</ele><time>2026-04-24T10:47:30Z</time></trkpt><trkpt lat="41.92798482416636" lon="13.331514570635735"><ele>1758.0</ele><time>2026-04-24T10:47:33Z</time></trkpt><trkpt lat="41.928042741208564" lon="13.331580866370981"><ele>1758.0</ele><time>2026-04-24T10:47:36Z</time></trkpt><trkpt lat="41.92812299655419" lon="13.331627435930713"><ele>1758.0</ele><time>2026-04-24T10:47:39Z</time></trkpt><trkpt lat="41.92819403543603" lon="13.331644631904858"><ele>1758.0</ele><time>2026-04-24T10:47:42Z</time></trkpt><trkpt lat="41.92827119396097" lon="13.331636199601377"><ele>1758.0</ele><time>2026-04-24T10:47:46Z</time></trkpt><trkpt lat="41.928354471876816" lon="13.331631505680699"><ele>1758.0</ele><time>2026-04-24T10:47:51Z</time></trkpt><trkpt lat="41.928417215430336" lon="13.331644589255173"><ele>1756.5714285714287</ele><time>2026-04-24T10:47:54Z</time></trkpt><trkpt lat="41.928487104386015" lon="13.331642445568376"><ele>1755.1428571428573</ele><time>2026-04-24T10:48:00Z</time></trkpt><trkpt lat="41.92855450034201" lon="13.331636362263147"><ele>1753.7142857142858</ele><time>2026-04-24T10:48:06Z</time></trkpt><trkpt lat="41.92861802014604" lon="13.331617757222192"><ele>1752.2857142857142</ele><time>2026-04-24T10:48:16Z</time></trkpt><trkpt lat="41.92868692088527" lon="13.331604763737381"><ele>1750.857142857143</ele><time>2026-04-24T10:48:24Z</time></trkpt><trkpt lat="41.928754147962714" lon="13.331618425487271"><ele>1749.4285714285713</ele><time>2026-04-24T10:48:27Z</time></trkpt><trkpt lat="41.92882742490077" lon="13.331624766930481"><ele>1748.0</ele><time>2026-04-24T10:48:31Z</time></trkpt><trkpt lat="41.92890440911477" lon="13.331638435585447"><ele>1747.9999999999998</ele><time>2026-04-24T10:48:34Z</time></trkpt><trkpt lat="41.928987084180335" lon="13.331632910503785"><ele>1748.0</ele><time>2026-04-24T10:48:37Z</time></trkpt><trkpt lat="41.929059791683045" lon="13.331609722817316"><ele>1748.0</ele><time>2026-04-24T10:48:41Z</time></trkpt><trkpt lat="41.92912951657707" lon="13.331603588597833"><ele>1748.0</ele><time>2026-04-24T10:48:44Z</time></trkpt><trkpt lat="41.92921292856191" lon="13.331625691808195"><ele>1747.9999999999998</ele><time>2026-04-24T10:48:46Z</time></trkpt><trkpt lat="41.929334225145745" lon="13.331643126298061"><ele>1748.0</ele><time>2026-04-24T10:48:48Z</time></trkpt><trkpt lat="41.92944300998465" lon="13.331641087109897"><ele>1746.3333333333333</ele><time>2026-04-24T10:48:50Z</time></trkpt><trkpt lat="41.92952285391539" lon="13.331646349913175"><ele>1744.6666666666665</ele><time>2026-04-24T10:48:52Z</time></trkpt><trkpt lat="41.92961630421711" lon="13.331662941573665"><ele>1743.0</ele><time>2026-04-24T10:48:54Z</time></trkpt><trkpt lat="41.92969538649203" lon="13.331687420014996"><ele>1741.3333333333335</ele><time>2026-04-24T10:48:56Z</time></trkpt><trkpt lat="41.92978879350656" lon="13.33175014297388"><ele>1739.6666666666667</ele><time>2026-04-24T10:48:58Z</time></trkpt><trkpt lat="41.9298455520132" lon="13.331789862837145"><ele>1738.0</ele><time>2026-04-24T10:48:59Z</time></trkpt><trkpt lat="41.929961349958774" lon="13.331873342544764"><ele>1738.0</ele><time>2026-04-24T10:49:01Z</time></trkpt><trkpt lat="41.93005691858849" lon="13.33194178522267"><ele>1738.0000000000002</ele><time>2026-04-24T10:49:03Z</time></trkpt><trkpt lat="41.930139835715856" lon="13.332026811460683"><ele>1738.0000000000002</ele><time>2026-04-24T10:49:04.999Z</time></trkpt><trkpt lat="41.93018550100554" lon="13.332134855960975"><ele>1738.0</ele><time>2026-04-24T10:49:06.999Z</time></trkpt><trkpt lat="41.930247251829115" lon="13.332258721574373"><ele>1738.0</ele><time>2026-04-24T10:49:08.999Z</time></trkpt><trkpt lat="41.93032684570071" lon="13.332377561587784"><ele>1737.4</ele><time>2026-04-24T10:49:10.999Z</time></trkpt><trkpt lat="41.93039668745628" lon="13.332467571502129"><ele>1736.8000000000002</ele><time>2026-04-24T10:49:12.999Z</time></trkpt><trkpt lat="41.9304581681138" lon="13.332548311157089"><ele>1736.2</ele><time>2026-04-24T10:49:14.999Z</time></trkpt><trkpt lat="41.930537464890726" lon="13.332652970525372"><ele>1735.6</ele><time>2026-04-24T10:49:16.999Z</time></trkpt><trkpt lat="41.93060709626666" lon="13.332715015221469"><ele>1735.0</ele><time>2026-04-24T10:49:18.999Z</time></trkpt><trkpt lat="41.93069360735846" lon="13.33275517386107"><ele>1735.0</ele><time>2026-04-24T10:49:20.999Z</time></trkpt><trkpt lat="41.930796158723815" lon="13.332788681003858"><ele>1735.0</ele><time>2026-04-24T10:49:22.999Z</time></trkpt><trkpt lat="41.930893359481225" lon="13.332783270694971"><ele>1735.0</ele><time>2026-04-24T10:49:24.999Z</time></trkpt><trkpt lat="41.930981324745034" lon="13.332758589441465"><ele>1735.0</ele><time>2026-04-24T10:49:27Z</time></trkpt><trkpt lat="41.93104775089426" lon="13.332727674988407"><ele>1735.0</ele><time>2026-04-24T10:49:29Z</time></trkpt><trkpt lat="41.93114467295027" lon="13.332694899654705"><ele>1732.6</ele><time>2026-04-24T10:49:31Z</time></trkpt><trkpt lat="41.93124016509021" lon="13.332669528236007"><ele>1730.2</ele><time>2026-04-24T10:49:33Z</time></trkpt><trkpt lat="41.93132472963852" lon="13.332683421558233"><ele>1727.8000000000002</ele><time>2026-04-24T10:49:35Z</time></trkpt><trkpt lat="41.93139339789293" lon="13.332763576879758"><ele>1725.4</ele><time>2026-04-24T10:49:38Z</time></trkpt><trkpt lat="41.931462295783355" lon="13.332873835144413"><ele>1723.0</ele><time>2026-04-24T10:49:40Z</time></trkpt><trkpt lat="41.93157551317503" lon="13.332960865641544"><ele>1723.0000000000002</ele><time>2026-04-24T10:49:42Z</time></trkpt><trkpt lat="41.93163754885084" lon="13.332984518247681"><ele>1723.0</ele><time>2026-04-24T10:49:43Z</time></trkpt><trkpt lat="41.931753795624594" lon="13.33297644267436"><ele>1723.0</ele><time>2026-04-24T10:49:45Z</time></trkpt><trkpt lat="41.93182847300875" lon="13.332972223868987"><ele>1723.0</ele><time>2026-04-24T10:49:46Z</time></trkpt><trkpt lat="41.93189517559312" lon="13.33298435474265"><ele>1723.0000000000002</ele><time>2026-04-24T10:49:47Z</time></trkpt><trkpt lat="41.93196103046627" lon="13.333007198865264"><ele>1723.0</ele><time>2026-04-24T10:49:48Z</time></trkpt><trkpt lat="41.9320315800995" lon="13.333012437012176"><ele>1722.0000000000002</ele><time>2026-04-24T10:49:49Z</time></trkpt><trkpt lat="41.932107210290575" lon="13.333004356763682"><ele>1721.0</ele><time>2026-04-24T10:49:50Z</time></trkpt><trkpt lat="41.932190985143684" lon="13.332989229974187"><ele>1720.0</ele><time>2026-04-24T10:49:51Z</time></trkpt><trkpt lat="41.93226082882248" lon="13.332981223896464"><ele>1719.0</ele><time>2026-04-24T10:49:52Z</time></trkpt><trkpt lat="41.93232580052488" lon="13.332967974299082"><ele>1718.0000000000002</ele><time>2026-04-24T10:49:53Z</time></trkpt><trkpt lat="41.93242986657735" lon="13.332950561622953"><ele>1717.0</ele><time>2026-04-24T10:49:55Z</time></trkpt><trkpt lat="41.93251603113679" lon="13.332927790050277"><ele>1717.0000000000002</ele><time>2026-04-24T10:49:57Z</time></trkpt><trkpt lat="41.93259246978795" lon="13.332879681875314"><ele>1717.0</ele><time>2026-04-24T10:49:59Z</time></trkpt><trkpt lat="41.932656097685246" lon="13.332818702954253"><ele>1717.0</ele><time>2026-04-24T10:50:01Z</time></trkpt><trkpt lat="41.932575684096705" lon="13.332778600089219"><ele>1717.0</ele><time>2026-04-24T10:50:05Z</time></trkpt><trkpt lat="41.93247727053121" lon="13.332781953212368"><ele>1717.0000000000002</ele><time>2026-04-24T10:50:07Z</time></trkpt><trkpt lat="41.93238602976491" lon="13.332733440547154"><ele>1717.0</ele><time>2026-04-24T10:50:09Z</time></trkpt><trkpt lat="41.932258119984965" lon="13.332686625138845"><ele>1717.0000000000002</ele><time>2026-04-24T10:50:11Z</time></trkpt><trkpt lat="41.93218209194182" lon="13.332663054848314"><ele>1717.0</ele><time>2026-04-24T10:50:12Z</time></trkpt><trkpt lat="41.93211727404026" lon="13.332642004078798"><ele>1717.0</ele><time>2026-04-24T10:50:13Z</time></trkpt><trkpt lat="41.931995491112346" lon="13.332571156023883"><ele>1717.0</ele><time>2026-04-24T10:50:15Z</time></trkpt><trkpt lat="41.93193271576816" lon="13.332557270228664"><ele>1717.0000000000002</ele><time>2026-04-24T10:50:16Z</time></trkpt><trkpt lat="41.931867069590766" lon="13.332543538974013"><ele>1717.0</ele><time>2026-04-24T10:50:17Z</time></trkpt><trkpt lat="41.93174834589058" lon="13.332522790907104"><ele>1717.857142857143</ele><time>2026-04-24T10:50:19Z</time></trkpt><trkpt lat="41.93168327922634" lon="13.33249434027935"><ele>1718.7142857142856</ele><time>2026-04-24T10:50:20Z</time></trkpt><trkpt lat="41.93162438226571" lon="13.332453420710408"><ele>1719.5714285714284</ele><time>2026-04-24T10:50:21Z</time></trkpt><trkpt lat="41.9315655943988" lon="13.332394292586228"><ele>1720.4285714285716</ele><time>2026-04-24T10:50:22Z</time></trkpt><trkpt lat="41.93151398794177" lon="13.332331536939055"><ele>1721.2857142857142</ele><time>2026-04-24T10:50:23Z</time></trkpt><trkpt lat="41.9314728107925" lon="13.332262610612021"><ele>1722.142857142857</ele><time>2026-04-24T10:50:24Z</time></trkpt><trkpt lat="41.93139536231762" lon="13.332201373697512"><ele>1723.0</ele><time>2026-04-24T10:50:26Z</time></trkpt><trkpt lat="41.9312829005849" lon="13.332172768049494"><ele>1718.8000000000002</ele><time>2026-04-24T10:50:28Z</time></trkpt><trkpt lat="41.93116065093644" lon="13.332149253620019"><ele>1714.6000000000001</ele><time>2026-04-24T10:50:30Z</time></trkpt><trkpt lat="41.93106819343458" lon="13.332160832174065"><ele>1710.4</ele><time>2026-04-24T10:50:32Z</time></trkpt><trkpt lat="41.93099497824827" lon="13.332172803941726"><ele>1706.1999999999998</ele><time>2026-04-24T10:50:34Z</time></trkpt><trkpt lat="41.93102322176217" lon="13.33207718365802"><ele>1702.0</ele><time>2026-04-24T10:50:39Z</time></trkpt><trkpt lat="41.93110488343611" lon="13.332041119070503"><ele>1702.0000000000002</ele><time>2026-04-24T10:50:42Z</time></trkpt><trkpt lat="41.93119276254164" lon="13.332019152047831"><ele>1702.0</ele><time>2026-04-24T10:50:44Z</time></trkpt><trkpt lat="41.93126490194764" lon="13.33198268459644"><ele>1702.0</ele><time>2026-04-24T10:50:46Z</time></trkpt><trkpt lat="41.93134215503818" lon="13.331971002072663"><ele>1702.0</ele><time>2026-04-24T10:50:48Z</time></trkpt><trkpt lat="41.931419046726965" lon="13.33199292830813"><ele>1702.0000000000002</ele><time>2026-04-24T10:50:51Z</time></trkpt><trkpt lat="41.93143479275231" lon="13.331889826241007"><ele>1702.0</ele><time>2026-04-24T10:50:56Z</time></trkpt><trkpt lat="41.931388626574865" lon="13.331799895243487"><ele>1702.0000000000002</ele><time>2026-04-24T10:50:58Z</time></trkpt><trkpt lat="41.93133013616995" lon="13.331737787700833"><ele>1702.0</ele><time>2026-04-24T10:51:00Z</time></trkpt><trkpt lat="41.93127447156916" lon="13.331686566260105"><ele>1702.0</ele><time>2026-04-24T10:51:02Z</time></trkpt><trkpt lat="41.93118540050783" lon="13.331596761975973"><ele>1702.0</ele><time>2026-04-24T10:51:04Z</time></trkpt><trkpt lat="41.93112156901716" lon="13.33155209339299"><ele>1702.0000000000002</ele><time>2026-04-24T10:51:05Z</time></trkpt><trkpt lat="41.93105410236432" lon="13.331496155979458"><ele>1702.0</ele><time>2026-04-24T10:51:06Z</time></trkpt><trkpt lat="41.93098750763636" lon="13.33145010957666"><ele>1701.5000000000002</ele><time>2026-04-24T10:51:07Z</time></trkpt><trkpt lat="41.930902072849555" lon="13.331371526601464"><ele>1701.0</ele><time>2026-04-24T10:51:08.999Z</time></trkpt><trkpt lat="41.930833198566916" lon="13.331277613487329"><ele>1700.5</ele><time>2026-04-24T10:51:10.999Z</time></trkpt><trkpt lat="41.93078849691246" lon="13.331218025811443"><ele>1700.0</ele><time>2026-04-24T10:51:11.999Z</time></trkpt><trkpt lat="41.93072414549824" lon="13.331143376291266"><ele>1699.5000000000002</ele><time>2026-04-24T10:51:13.999Z</time></trkpt><trkpt lat="41.930689200440355" lon="13.33105769138419"><ele>1699.0</ele><time>2026-04-24T10:51:15.999Z</time></trkpt><trkpt lat="41.9306791354381" lon="13.330959633009703"><ele>1699.0000000000002</ele><time>2026-04-24T10:51:17.999Z</time></trkpt><trkpt lat="41.93064989196102" lon="13.3308344601502"><ele>1699.0</ele><time>2026-04-24T10:51:19.999Z</time></trkpt><trkpt lat="41.93062605903332" lon="13.330745599186203"><ele>1699.0</ele><time>2026-04-24T10:51:21.999Z</time></trkpt><trkpt lat="41.930667824440356" lon="13.330675762363551"><ele>1699.0</ele><time>2026-04-24T10:51:25.999Z</time></trkpt><trkpt lat="41.93075305356593" lon="13.330738685294609"><ele>1699.0000000000002</ele><time>2026-04-24T10:51:29.999Z</time></trkpt><trkpt lat="41.93082390771532" lon="13.330794291829417"><ele>1699.0</ele><time>2026-04-24T10:51:32Z</time></trkpt><trkpt lat="41.93090693348902" lon="13.330833547018495"><ele>1696.5000000000002</ele><time>2026-04-24T10:51:34Z</time></trkpt><trkpt lat="41.930960177542694" lon="13.33091247224181"><ele>1694.0</ele><time>2026-04-24T10:51:36Z</time></trkpt><trkpt lat="41.93100465945315" lon="13.331008753301406"><ele>1691.5</ele><time>2026-04-24T10:51:38Z</time></trkpt><trkpt lat="41.93106468966258" lon="13.331086613557469"><ele>1689.0</ele><time>2026-04-24T10:51:41Z</time></trkpt><trkpt lat="41.93115744370844" lon="13.331064180197442"><ele>1686.5000000000002</ele><time>2026-04-24T10:51:44Z</time></trkpt><trkpt lat="41.93118924368548" lon="13.330967623431357"><ele>1684.0</ele><time>2026-04-24T10:51:46Z</time></trkpt><trkpt lat="41.931213503529676" lon="13.330839926479761"><ele>1684.0</ele><time>2026-04-24T10:51:48Z</time></trkpt><trkpt lat="41.93122519767125" lon="13.330743141257585"><ele>1684.0</ele><time>2026-04-24T10:51:50Z</time></trkpt><trkpt lat="41.9312004722594" lon="13.33062636770422"><ele>1684.0</ele><time>2026-04-24T10:51:52Z</time></trkpt><trkpt lat="41.9311443570084" lon="13.330527880355175"><ele>1684.0</ele><time>2026-04-24T10:51:54Z</time></trkpt><trkpt lat="41.93109195709772" lon="13.330413537204782"><ele>1684.0</ele><time>2026-04-24T10:51:56Z</time></trkpt><trkpt lat="41.93105831210689" lon="13.330293037570996"><ele>1684.1666666666667</ele><time>2026-04-24T10:51:59Z</time></trkpt><trkpt lat="41.931022331793464" lon="13.330215994557513"><ele>1684.3333333333335</ele><time>2026-04-24T10:52:01Z</time></trkpt><trkpt lat="41.930955446519675" lon="13.33014408938512"><ele>1684.5</ele><time>2026-04-24T10:52:03Z</time></trkpt><trkpt lat="41.93090586634918" lon="13.330072472812615"><ele>1684.6666666666665</ele><time>2026-04-24T10:52:05Z</time></trkpt><trkpt lat="41.9308331484843" lon="13.32997640679409"><ele>1684.8333333333333</ele><time>2026-04-24T10:52:07Z</time></trkpt><trkpt lat="41.93076280782317" lon="13.329915250413968"><ele>1685.0</ele><time>2026-04-24T10:52:09Z</time></trkpt><trkpt lat="41.93068230743192" lon="13.329860955312018"><ele>1684.9999999999998</ele><time>2026-04-24T10:52:11Z</time></trkpt><trkpt lat="41.9305899117883" lon="13.329793495774291"><ele>1685.0</ele><time>2026-04-24T10:52:13Z</time></trkpt><trkpt lat="41.93053348193128" lon="13.32974456995308"><ele>1685.0</ele><time>2026-04-24T10:52:14Z</time></trkpt><trkpt lat="41.93043263490799" lon="13.32967996516763"><ele>1685.0</ele><time>2026-04-24T10:52:16Z</time></trkpt><trkpt lat="41.93035970146562" lon="13.329654772756184"><ele>1684.9999999999998</ele><time>2026-04-24T10:52:18Z</time></trkpt><trkpt lat="41.93027425879368" lon="13.329620448665807"><ele>1685.0</ele><time>2026-04-24T10:52:20Z</time></trkpt><trkpt lat="41.93018807246696" lon="13.329576045006469"><ele>1684.3333333333333</ele><time>2026-04-24T10:52:22Z</time></trkpt><trkpt lat="41.93010069348482" lon="13.329538766306696"><ele>1683.6666666666665</ele><time>2026-04-24T10:52:25Z</time></trkpt><trkpt lat="41.930053582315374" lon="13.329453671166661"><ele>1683.0</ele><time>2026-04-24T10:52:28Z</time></trkpt><trkpt lat="41.93009253661873" lon="13.329369344772477"><ele>1682.3333333333335</ele><time>2026-04-24T10:52:31Z</time></trkpt><trkpt lat="41.9301637827532" lon="13.329368830546406"><ele>1681.6666666666667</ele><time>2026-04-24T10:52:36Z</time></trkpt><trkpt lat="41.930254558372525" lon="13.329395618430889"><ele>1681.0</ele><time>2026-04-24T10:52:39Z</time></trkpt><trkpt lat="41.93032108552553" lon="13.3294116876255"><ele>1679.6666666666667</ele><time>2026-04-24T10:52:41Z</time></trkpt><trkpt lat="41.9303943029851" lon="13.32942682860152"><ele>1678.3333333333335</ele><time>2026-04-24T10:52:44Z</time></trkpt><trkpt lat="41.93049223355158" lon="13.329399923088559"><ele>1677.0</ele><time>2026-04-24T10:52:47Z</time></trkpt><trkpt lat="41.93055322011345" lon="13.329360640912709"><ele>1675.6666666666665</ele><time>2026-04-24T10:52:50Z</time></trkpt><trkpt lat="41.930629137478725" lon="13.329320088587064"><ele>1674.3333333333333</ele><time>2026-04-24T10:52:53Z</time></trkpt><trkpt lat="41.93069270426382" lon="13.329258682671624"><ele>1673.0</ele><time>2026-04-24T10:52:55Z</time></trkpt><trkpt lat="41.9307641463627" lon="13.32921181143076"><ele>1672.9999999999998</ele><time>2026-04-24T10:52:57Z</time></trkpt><trkpt lat="41.93083596238292" lon="13.329198685082757"><ele>1673.0</ele><time>2026-04-24T10:53:00Z</time></trkpt><trkpt lat="41.930908998691464" lon="13.329132236615873"><ele>1673.0</ele><time>2026-04-24T10:53:03Z</time></trkpt><trkpt lat="41.93096990779222" lon="13.32906985729789"><ele>1673.0</ele><time>2026-04-24T10:53:05Z</time></trkpt><trkpt lat="41.931048335315076" lon="13.329003526273315"><ele>1672.9999999999998</ele><time>2026-04-24T10:53:08Z</time></trkpt><trkpt lat="41.931102518442025" lon="13.328922487588313"><ele>1673.0</ele><time>2026-04-24T10:53:11Z</time></trkpt><trkpt lat="41.93115650487693" lon="13.328817436887322"><ele>1670.857142857143</ele><time>2026-04-24T10:53:14Z</time></trkpt><trkpt lat="41.931200779764325" lon="13.328742417263419"><ele>1668.7142857142858</ele><time>2026-04-24T10:53:15.999Z</time></trkpt><trkpt lat="41.93126013379067" lon="13.328654426365564"><ele>1666.5714285714284</ele><time>2026-04-24T10:53:19.999Z</time></trkpt><trkpt lat="41.931308267972184" lon="13.32858957311802"><ele>1664.4285714285716</ele><time>2026-04-24T10:53:21.999Z</time></trkpt><trkpt lat="41.93136159943515" lon="13.32853776106354"><ele>1662.2857142857142</ele><time>2026-04-24T10:53:24.999Z</time></trkpt><trkpt lat="41.93142526719206" lon="13.328499070592795"><ele>1660.142857142857</ele><time>2026-04-24T10:53:26.999Z</time></trkpt><trkpt lat="41.931498030279265" lon="13.328462035626766"><ele>1658.0</ele><time>2026-04-24T10:53:29.999Z</time></trkpt><trkpt lat="41.93159201142835" lon="13.32842549127979"><ele>1657.9999999999998</ele><time>2026-04-24T10:53:31.999Z</time></trkpt><trkpt lat="41.93165526816498" lon="13.328384942943384"><ele>1658.0</ele><time>2026-04-24T10:53:33.999Z</time></trkpt><trkpt lat="41.93172654785057" lon="13.328341470622572"><ele>1658.0</ele><time>2026-04-24T10:53:35.999Z</time></trkpt><trkpt lat="41.93178107066959" lon="13.328270202339446"><ele>1658.0</ele><time>2026-04-24T10:53:39Z</time></trkpt><trkpt lat="41.93183796623232" lon="13.328216370935435"><ele>1657.9999999999998</ele><time>2026-04-24T10:53:41Z</time></trkpt><trkpt lat="41.931918445486566" lon="13.328163840764748"><ele>1658.0</ele><time>2026-04-24T10:53:44Z</time></trkpt><trkpt lat="41.93199675197555" lon="13.328111339613105"><ele>1656.857142857143</ele><time>2026-04-24T10:53:47Z</time></trkpt><trkpt lat="41.93205423973345" lon="13.32806639256013"><ele>1655.7142857142858</ele><time>2026-04-24T10:53:49Z</time></trkpt><trkpt lat="41.93211271870588" lon="13.328029159978723"><ele>1654.5714285714284</ele><time>2026-04-24T10:53:51Z</time></trkpt><trkpt lat="41.93219667084652" lon="13.327997976199105"><ele>1653.4285714285716</ele><time>2026-04-24T10:53:54Z</time></trkpt><trkpt lat="41.93225990617109" lon="13.327931621971429"><ele>1652.2857142857144</ele><time>2026-04-24T10:53:57Z</time></trkpt><trkpt lat="41.93230919899398" lon="13.327862440204122"><ele>1651.142857142857</ele><time>2026-04-24T10:53:59Z</time></trkpt><trkpt lat="41.93234463911127" lon="13.327784321918886"><ele>1650.0</ele><time>2026-04-24T10:54:01Z</time></trkpt><trkpt lat="41.93236219975022" lon="13.327678935886613"><ele>1649.7142857142856</ele><time>2026-04-24T10:54:04Z</time></trkpt><trkpt lat="41.932312303069814" lon="13.327625779965837"><ele>1649.4285714285716</ele><time>2026-04-24T10:54:08Z</time></trkpt><trkpt lat="41.93224274454516" lon="13.327641401636832"><ele>1649.142857142857</ele><time>2026-04-24T10:54:11Z</time></trkpt><trkpt lat="41.93217111738947" lon="13.327636216036247"><ele>1648.8571428571427</ele><time>2026-04-24T10:54:14Z</time></trkpt><trkpt lat="41.93210207507709" lon="13.327579127658408"><ele>1648.5714285714284</ele><time>2026-04-24T10:54:17Z</time></trkpt><trkpt lat="41.93203388880622" lon="13.327553145754788"><ele>1648.2857142857142</ele><time>2026-04-24T10:54:20Z</time></trkpt><trkpt lat="41.93195126828149" lon="13.32755118925159"><ele>1648.0</ele><time>2026-04-24T10:54:25Z</time></trkpt><trkpt lat="41.93187362265741" lon="13.327560555979336"><ele>1648.0000000000002</ele><time>2026-04-24T10:54:29Z</time></trkpt><trkpt lat="41.931798253857394" lon="13.327552084690304"><ele>1648.0</ele><time>2026-04-24T10:54:32Z</time></trkpt><trkpt lat="41.93171542548596" lon="13.32757705731523"><ele>1648.0</ele><time>2026-04-24T10:54:35Z</time></trkpt><trkpt lat="41.93164754406586" lon="13.327622581930884"><ele>1648.0</ele><time>2026-04-24T10:54:38Z</time></trkpt><trkpt lat="41.93157009818467" lon="13.327652418915113"><ele>1648.0000000000002</ele><time>2026-04-24T10:54:40Z</time></trkpt><trkpt lat="41.93147669596048" lon="13.327598314966153"><ele>1648.0</ele><time>2026-04-24T10:54:42Z</time></trkpt><trkpt lat="41.93141737711977" lon="13.327530039019681"><ele>1647.5000000000002</ele><time>2026-04-24T10:54:44Z</time></trkpt><trkpt lat="41.93137307877261" lon="13.327439206201612"><ele>1647.0</ele><time>2026-04-24T10:54:47Z</time></trkpt><trkpt lat="41.93131593141773" lon="13.327352464424457"><ele>1646.5</ele><time>2026-04-24T10:54:49Z</time></trkpt><trkpt lat="41.931276896534435" lon="13.327284639016984"><ele>1646.0</ele><time>2026-04-24T10:54:52Z</time></trkpt><trkpt lat="41.931217702153454" lon="13.327195942578593"><ele>1645.5000000000002</ele><time>2026-04-24T10:54:54Z</time></trkpt><trkpt lat="41.93117214307085" lon="13.32710592463814"><ele>1645.0</ele><time>2026-04-24T10:54:57Z</time></trkpt><trkpt lat="41.93104975932427" lon="13.326852542524966"><ele>1645.0</ele><time>2026-04-24T10:55:00Z</time></trkpt><trkpt lat="41.930994226139056" lon="13.326734645742917"><ele>1645.0</ele><time>2026-04-24T10:55:02Z</time></trkpt><trkpt lat="41.93093850928916" lon="13.326612539674318"><ele>1645.0</ele><time>2026-04-24T10:55:04Z</time></trkpt><trkpt lat="41.93088270979545" lon="13.326510142427573"><ele>1645.0</ele><time>2026-04-24T10:55:07Z</time></trkpt><trkpt lat="41.93081839378014" lon="13.326412147419074"><ele>1645.0</ele><time>2026-04-24T10:55:09Z</time></trkpt><trkpt lat="41.930754603185555" lon="13.32632203687684"><ele>1643.4285714285713</ele><time>2026-04-24T10:55:11Z</time></trkpt><trkpt lat="41.930695278282194" lon="13.326235306378273"><ele>1641.857142857143</ele><time>2026-04-24T10:55:13Z</time></trkpt><trkpt lat="41.93065776249955" lon="13.326159533477078"><ele>1640.2857142857142</ele><time>2026-04-24T10:55:15Z</time></trkpt><trkpt lat="41.93065520699729" lon="13.326051556279797"><ele>1638.7142857142858</ele><time>2026-04-24T10:55:18Z</time></trkpt><trkpt lat="41.93068882062604" lon="13.32597056226737"><ele>1637.142857142857</ele><time>2026-04-24T10:55:20Z</time></trkpt><trkpt lat="41.93072086264912" lon="13.325888562335978"><ele>1635.5714285714284</ele><time>2026-04-24T10:55:22.999Z</time></trkpt><trkpt lat="41.93077095918698" lon="13.325832895039383"><ele>1634.0</ele><time>2026-04-24T10:55:24.999Z</time></trkpt><trkpt lat="41.930843321450965" lon="13.325786295386894"><ele>1634.0</ele><time>2026-04-24T10:55:26.999Z</time></trkpt><trkpt lat="41.93091009114259" lon="13.325684167451893"><ele>1634.0</ele><time>2026-04-24T10:55:28.999Z</time></trkpt><trkpt lat="41.93097545148606" lon="13.325566863680102"><ele>1634.0</ele><time>2026-04-24T10:55:30.999Z</time></trkpt><trkpt lat="41.93103116529334" lon="13.325442400325164"><ele>1634.0</ele><time>2026-04-24T10:55:32.999Z</time></trkpt><trkpt lat="41.93109327664957" lon="13.325330382327444"><ele>1634.0</ele><time>2026-04-24T10:55:34.999Z</time></trkpt><trkpt lat="41.931153579907445" lon="13.325235305616724"><ele>1634.0</ele><time>2026-04-24T10:55:36.999Z</time></trkpt><trkpt lat="41.93121006388515" lon="13.325135332999865"><ele>1634.0</ele><time>2026-04-24T10:55:38.999Z</time></trkpt><trkpt lat="41.93128046974647" lon="13.325019297243054"><ele>1634.0</ele><time>2026-04-24T10:55:40.999Z</time></trkpt><trkpt lat="41.931347759841664" lon="13.324916692083377"><ele>1634.0</ele><time>2026-04-24T10:55:42.999Z</time></trkpt><trkpt lat="41.9313859024958" lon="13.324803233183388"><ele>1634.0</ele><time>2026-04-24T10:55:45Z</time></trkpt><trkpt lat="41.93144238473349" lon="13.324666263635057"><ele>1633.9999999999998</ele><time>2026-04-24T10:55:47Z</time></trkpt><trkpt lat="41.93149343230657" lon="13.324601036309675"><ele>1634.0</ele><time>2026-04-24T10:55:49Z</time></trkpt><trkpt lat="41.93154016872272" lon="13.32451295626394"><ele>1634.0</ele><time>2026-04-24T10:55:51Z</time></trkpt><trkpt lat="41.931560688527966" lon="13.324415616190839"><ele>1634.0</ele><time>2026-04-24T10:55:53Z</time></trkpt><trkpt lat="41.931591743469895" lon="13.324295442717554"><ele>1633.9999999999998</ele><time>2026-04-24T10:55:55Z</time></trkpt><trkpt lat="41.93163248941826" lon="13.32417665628764"><ele>1634.0</ele><time>2026-04-24T10:55:57Z</time></trkpt><trkpt lat="41.93165935919538" lon="13.32406360231698"><ele>1633.9999999999998</ele><time>2026-04-24T10:55:59Z</time></trkpt><trkpt lat="41.93168941025888" lon="13.323948712644416"><ele>1634.0</ele><time>2026-04-24T10:56:01Z</time></trkpt><trkpt lat="41.93171973482229" lon="13.32383041190513"><ele>1634.0</ele><time>2026-04-24T10:56:03Z</time></trkpt><trkpt lat="41.93174627519456" lon="13.323726396229672"><ele>1634.0</ele><time>2026-04-24T10:56:05Z</time></trkpt><trkpt lat="41.93174258445315" lon="13.323628348561572"><ele>1633.9999999999998</ele><time>2026-04-24T10:56:07Z</time></trkpt><trkpt lat="41.931754598096774" lon="13.323509178840133"><ele>1634.0</ele><time>2026-04-24T10:56:09Z</time></trkpt><trkpt lat="41.93176587212749" lon="13.323398565690896"><ele>1632.9999999999998</ele><time>2026-04-24T10:56:13Z</time></trkpt><trkpt lat="41.93179326093834" lon="13.323311566480209"><ele>1632.0</ele><time>2026-04-24T10:56:16Z</time></trkpt><trkpt lat="41.93181627521832" lon="13.323195095732967"><ele>1631.0</ele><time>2026-04-24T10:56:20Z</time></trkpt><trkpt lat="41.93180935826547" lon="13.323081783899292"><ele>1630.0</ele><time>2026-04-24T10:56:23Z</time></trkpt><trkpt lat="41.931786844474175" lon="13.322975178550424"><ele>1628.9999999999998</ele><time>2026-04-24T10:56:26Z</time></trkpt><trkpt lat="41.93173120231947" lon="13.322919146893343"><ele>1628.0</ele><time>2026-04-24T10:56:30Z</time></trkpt><trkpt lat="41.931669385923996" lon="13.322895312798622"><ele>1626.4999999999998</ele><time>2026-04-24T10:56:32Z</time></trkpt><trkpt lat="41.931603692881154" lon="13.322812867892189"><ele>1625.0</ele><time>2026-04-24T10:56:35Z</time></trkpt><trkpt lat="41.93151656253458" lon="13.322765194188277"><ele>1623.5</ele><time>2026-04-24T10:56:38Z</time></trkpt><trkpt lat="41.93145108966573" lon="13.322681287178836"><ele>1622.0</ele><time>2026-04-24T10:56:41Z</time></trkpt><trkpt lat="41.93140692404411" lon="13.32260315853624"><ele>1620.4999999999998</ele><time>2026-04-24T10:56:43Z</time></trkpt><trkpt lat="41.931387607808304" lon="13.322522408397946"><ele>1619.0</ele><time>2026-04-24T10:56:45Z</time></trkpt><trkpt lat="41.931364363090275" lon="13.322405702275875"><ele>1619.0</ele><time>2026-04-24T10:56:48Z</time></trkpt><trkpt lat="41.93133957148951" lon="13.322265520232476"><ele>1619.0</ele><time>2026-04-24T10:56:50Z</time></trkpt><trkpt lat="41.931353547151836" lon="13.322102270093788"><ele>1619.0</ele><time>2026-04-24T10:56:52Z</time></trkpt><trkpt lat="41.93138087096874" lon="13.32202385216152"><ele>1619.0</ele><time>2026-04-24T10:56:53Z</time></trkpt><trkpt lat="41.931421389529426" lon="13.321876590507179"><ele>1619.0</ele><time>2026-04-24T10:56:55Z</time></trkpt><trkpt lat="41.93146207882413" lon="13.321726173626985"><ele>1618.4</ele><time>2026-04-24T10:56:57Z</time></trkpt><trkpt lat="41.93150301768792" lon="13.321616535629062"><ele>1617.8000000000002</ele><time>2026-04-24T10:56:59Z</time></trkpt><trkpt lat="41.93156907544281" lon="13.321506064438449"><ele>1617.1999999999998</ele><time>2026-04-24T10:57:01Z</time></trkpt><trkpt lat="41.93164419017683" lon="13.321398280897695"><ele>1616.6</ele><time>2026-04-24T10:57:03Z</time></trkpt><trkpt lat="41.931692908497254" lon="13.32128022234138"><ele>1616.0</ele><time>2026-04-24T10:57:05Z</time></trkpt><trkpt lat="41.93172041308666" lon="13.32113851041954"><ele>1614.8333333333333</ele><time>2026-04-24T10:57:07Z</time></trkpt><trkpt lat="41.93175896986085" lon="13.321011764948889"><ele>1613.6666666666665</ele><time>2026-04-24T10:57:09Z</time></trkpt><trkpt lat="41.93179057346644" lon="13.320906135520335"><ele>1612.5</ele><time>2026-04-24T10:57:11Z</time></trkpt><trkpt lat="41.93170238833255" lon="13.320826314029125"><ele>1611.3333333333335</ele><time>2026-04-24T10:57:18Z</time></trkpt><trkpt lat="41.931667424406825" lon="13.320749731682188"><ele>1610.1666666666667</ele><time>2026-04-24T10:57:20Z</time></trkpt><trkpt lat="41.93165283518608" lon="13.320666825760552"><ele>1609.0</ele><time>2026-04-24T10:57:22Z</time></trkpt><trkpt lat="41.93163539277947" lon="13.320540924721078"><ele>1608.6666666666667</ele><time>2026-04-24T10:57:25Z</time></trkpt><trkpt lat="41.9316323742601" lon="13.32044396699025"><ele>1608.3333333333335</ele><time>2026-04-24T10:57:27.999Z</time></trkpt><trkpt lat="41.93159855567659" lon="13.320337539555982"><ele>1608.0</ele><time>2026-04-24T10:57:29.999Z</time></trkpt><trkpt lat="41.931576416222946" lon="13.320246043320427"><ele>1607.6666666666665</ele><time>2026-04-24T10:57:31.999Z</time></trkpt><trkpt lat="41.93151520435657" lon="13.320119118575235"><ele>1607.3333333333333</ele><time>2026-04-24T10:57:33.999Z</time></trkpt><trkpt lat="41.93148337079262" lon="13.32003421527553"><ele>1607.0</ele><time>2026-04-24T10:57:35.999Z</time></trkpt><trkpt lat="41.93145550422806" lon="13.319948301637515"><ele>1606.9999999999998</ele><time>2026-04-24T10:57:37.999Z</time></trkpt><trkpt lat="41.9314093630384" lon="13.319835841344508"><ele>1607.0</ele><time>2026-04-24T10:57:39.999Z</time></trkpt><trkpt lat="41.93136311643431" lon="13.319732374848993"><ele>1607.0</ele><time>2026-04-24T10:57:41.999Z</time></trkpt><trkpt lat="41.93129699117232" lon="13.31963977478011"><ele>1607.0</ele><time>2026-04-24T10:57:43.999Z</time></trkpt><trkpt lat="41.931233801726385" lon="13.31955782117972"><ele>1606.9999999999998</ele><time>2026-04-24T10:57:45.999Z</time></trkpt><trkpt lat="41.93118258877577" lon="13.319501597912977"><ele>1607.0</ele><time>2026-04-24T10:57:46.999Z</time></trkpt><trkpt lat="41.931117505365755" lon="13.319413599959415"><ele>1608.0</ele><time>2026-04-24T10:57:48.999Z</time></trkpt><trkpt lat="41.931044375546584" lon="13.319323092637816"><ele>1609.0</ele><time>2026-04-24T10:57:51Z</time></trkpt><trkpt lat="41.931000902006566" lon="13.319255588754055"><ele>1610.0</ele><time>2026-04-24T10:57:52Z</time></trkpt><trkpt lat="41.93095436007392" lon="13.319129904243356"><ele>1611.0</ele><time>2026-04-24T10:57:54Z</time></trkpt><trkpt lat="41.930948204359424" lon="13.31897885601837"><ele>1612.0</ele><time>2026-04-24T10:57:56Z</time></trkpt><trkpt lat="41.93089188862576" lon="13.31885440070761"><ele>1612.5000000000002</ele><time>2026-04-24T10:57:58Z</time></trkpt><trkpt lat="41.930836078195966" lon="13.318789124787145"><ele>1613.0</ele><time>2026-04-24T10:57:59Z</time></trkpt><trkpt lat="41.930750162819" lon="13.318702939365881"><ele>1613.5</ele><time>2026-04-24T10:58:01Z</time></trkpt><trkpt lat="41.93071169142632" lon="13.318633113947747"><ele>1614.0</ele><time>2026-04-24T10:58:04Z</time></trkpt><trkpt lat="41.930633130446175" lon="13.318617245133394"><ele>1614.5000000000002</ele><time>2026-04-24T10:58:08Z</time></trkpt><trkpt lat="41.93055722993113" lon="13.31859207968332"><ele>1615.0</ele><time>2026-04-24T10:58:11Z</time></trkpt><trkpt lat="41.930502086541566" lon="13.318506478295893"><ele>1615.0</ele><time>2026-04-24T10:58:13Z</time></trkpt><trkpt lat="41.930435796477205" lon="13.318451503089255"><ele>1615.0</ele><time>2026-04-24T10:58:15Z</time></trkpt><trkpt lat="41.93037039852561" lon="13.318449149584618"><ele>1615.0</ele><time>2026-04-24T10:58:19Z</time></trkpt><trkpt lat="41.93031131140435" lon="13.318483667966566"><ele>1615.0</ele><time>2026-04-24T10:58:21Z</time></trkpt><trkpt lat="41.93025089828978" lon="13.318522158611174"><ele>1615.0</ele><time>2026-04-24T10:58:29Z</time></trkpt><trkpt lat="41.93018287077679" lon="13.318564228175164"><ele>1615.0</ele><time>2026-04-24T10:58:34Z</time></trkpt><trkpt lat="41.93011867244087" lon="13.31857727319771"><ele>1615.0</ele><time>2026-04-24T10:58:36Z</time></trkpt><trkpt lat="41.93004752348663" lon="13.3186275065797"><ele>1614.8333333333335</ele><time>2026-04-24T10:58:43Z</time></trkpt><trkpt lat="41.92997219197547" lon="13.318668426477792"><ele>1614.6666666666667</ele><time>2026-04-24T10:58:46Z</time></trkpt><trkpt lat="41.92991269497257" lon="13.318621254876183"><ele>1614.5</ele><time>2026-04-24T10:59:01Z</time></trkpt><trkpt lat="41.9298252043215" lon="13.318568958602283"><ele>1614.3333333333335</ele><time>2026-04-24T10:59:05Z</time></trkpt><trkpt lat="41.92975041131315" lon="13.318497824110517"><ele>1614.1666666666667</ele><time>2026-04-24T10:59:07Z</time></trkpt><trkpt lat="41.92966404961572" lon="13.318409821328437"><ele>1614.0</ele><time>2026-04-24T10:59:09Z</time></trkpt><trkpt lat="41.929583604147254" lon="13.318422924384173"><ele>1614.0</ele><time>2026-04-24T10:59:11Z</time></trkpt><trkpt lat="41.92948716852933" lon="13.318422177836357"><ele>1614.0</ele><time>2026-04-24T10:59:13Z</time></trkpt><trkpt lat="41.92941990022353" lon="13.318468922797901"><ele>1614.0</ele><time>2026-04-24T10:59:15Z</time></trkpt><trkpt lat="41.929365873850266" lon="13.318555877399774"><ele>1614.0</ele><time>2026-04-24T10:59:18Z</time></trkpt><trkpt lat="41.92929345291286" lon="13.318582984105898"><ele>1614.0</ele><time>2026-04-24T10:59:30.999Z</time></trkpt><trkpt lat="41.929290503732524" lon="13.318494136617451"><ele>1614.0</ele><time>2026-04-24T10:59:33.999Z</time></trkpt><trkpt lat="41.92928599197975" lon="13.318342272545939"><ele>1614.0</ele><time>2026-04-24T10:59:36.999Z</time></trkpt><trkpt lat="41.929244655715245" lon="13.318273610827347"><ele>1614.0</ele><time>2026-04-24T10:59:38.999Z</time></trkpt><trkpt lat="41.92917580850344" lon="13.31817890163929"><ele>1614.0</ele><time>2026-04-24T10:59:40.999Z</time></trkpt><trkpt lat="41.92913200741884" lon="13.318075896661878"><ele>1614.0</ele><time>2026-04-24T10:59:42.999Z</time></trkpt><trkpt lat="41.92909847238859" lon="13.317985086937965"><ele>1614.0</ele><time>2026-04-24T10:59:44.999Z</time></trkpt><trkpt lat="41.92909449638257" lon="13.31787886894383"><ele>1614.0</ele><time>2026-04-24T10:59:46.999Z</time></trkpt><trkpt lat="41.929091119853645" lon="13.317779238147946"><ele>1614.2</ele><time>2026-04-24T10:59:48.999Z</time></trkpt><trkpt lat="41.929101422280525" lon="13.317646174796336"><ele>1614.4</ele><time>2026-04-24T10:59:50.999Z</time></trkpt><trkpt lat="41.92911182724172" lon="13.3175250038641"><ele>1614.6</ele><time>2026-04-24T10:59:52.999Z</time></trkpt><trkpt lat="41.92916451392949" lon="13.317420084847472"><ele>1614.8</ele><time>2026-04-24T10:59:56Z</time></trkpt><trkpt lat="41.929241893882235" lon="13.31730550903515"><ele>1615.0</ele><time>2026-04-24T10:59:58Z</time></trkpt><trkpt lat="41.92931622753098" lon="13.3172131394698"><ele>1614.2</ele><time>2026-04-24T11:00:00Z</time></trkpt><trkpt lat="41.929371362183765" lon="13.317149595479412"><ele>1613.4</ele><time>2026-04-24T11:00:02Z</time></trkpt><trkpt lat="41.92945543394033" lon="13.317097625089653"><ele>1612.6</ele><time>2026-04-24T11:00:04Z</time></trkpt><trkpt lat="41.92955564314384" lon="13.317014425568145"><ele>1611.8</ele><time>2026-04-24T11:00:06Z</time></trkpt><trkpt lat="41.929660659477165" lon="13.316966162338641"><ele>1611.0</ele><time>2026-04-24T11:00:08Z</time></trkpt><trkpt lat="41.929768804884674" lon="13.31690191651081"><ele>1611.0</ele><time>2026-04-24T11:00:10Z</time></trkpt><trkpt lat="41.92986718693465" lon="13.316829874659646"><ele>1611.0</ele><time>2026-04-24T11:00:12Z</time></trkpt><trkpt lat="41.929955346459835" lon="13.316741999308318"><ele>1611.0</ele><time>2026-04-24T11:00:14Z</time></trkpt><trkpt lat="41.93001352895169" lon="13.316631365528574"><ele>1611.0</ele><time>2026-04-24T11:00:16Z</time></trkpt><trkpt lat="41.93004607761604" lon="13.316539213392632"><ele>1611.0</ele><time>2026-04-24T11:00:18Z</time></trkpt><trkpt lat="41.93009347411202" lon="13.316431169532526"><ele>1610.1666666666667</ele><time>2026-04-24T11:00:21Z</time></trkpt><trkpt lat="41.9301279615992" lon="13.316321826072663"><ele>1609.3333333333335</ele><time>2026-04-24T11:00:23Z</time></trkpt><trkpt lat="41.930156487116335" lon="13.316229898624702"><ele>1608.5</ele><time>2026-04-24T11:00:25Z</time></trkpt><trkpt lat="41.9301294672783" lon="13.316134520635659"><ele>1607.6666666666667</ele><time>2026-04-24T11:00:27Z</time></trkpt><trkpt lat="41.930158774141326" lon="13.31600326308491"><ele>1606.8333333333335</ele><time>2026-04-24T11:00:30Z</time></trkpt><trkpt lat="41.93020291784873" lon="13.31594239306417"><ele>1606.0</ele><time>2026-04-24T11:00:32Z</time></trkpt><trkpt lat="41.93025881702038" lon="13.315889981516204"><ele>1606.0</ele><time>2026-04-24T11:00:33Z</time></trkpt><trkpt lat="41.93031261187252" lon="13.315800970645103"><ele>1606.0</ele><time>2026-04-24T11:00:35Z</time></trkpt><trkpt lat="41.93037508535682" lon="13.3157309371771"><ele>1606.0</ele><time>2026-04-24T11:00:37Z</time></trkpt><trkpt lat="41.93045887925883" lon="13.315670969846781"><ele>1606.0</ele><time>2026-04-24T11:00:39Z</time></trkpt><trkpt lat="41.93052188490874" lon="13.315539471230098"><ele>1606.0</ele><time>2026-04-24T11:00:41Z</time></trkpt><trkpt lat="41.93059882933737" lon="13.31541764961228"><ele>1604.8</ele><time>2026-04-24T11:00:43Z</time></trkpt><trkpt lat="41.93068842702242" lon="13.31530613315304"><ele>1603.6</ele><time>2026-04-24T11:00:45Z</time></trkpt><trkpt lat="41.93074930497108" lon="13.315235952949552"><ele>1602.4</ele><time>2026-04-24T11:00:46Z</time></trkpt><trkpt lat="41.9308101433155" lon="13.315176022464962"><ele>1601.2</ele><time>2026-04-24T11:00:47Z</time></trkpt><trkpt lat="41.93089178899573" lon="13.315104495484661"><ele>1600.0</ele><time>2026-04-24T11:00:49Z</time></trkpt><trkpt lat="41.93095581202517" lon="13.3150285727563"><ele>1599.0000000000002</ele><time>2026-04-24T11:00:51Z</time></trkpt><trkpt lat="41.931022717000396" lon="13.314970130084093"><ele>1598.0</ele><time>2026-04-24T11:00:53Z</time></trkpt><trkpt lat="41.931104815988235" lon="13.31489761884861"><ele>1597.0</ele><time>2026-04-24T11:00:55Z</time></trkpt><trkpt lat="41.93119238698063" lon="13.314829597193558"><ele>1596.0</ele><time>2026-04-24T11:00:57Z</time></trkpt><trkpt lat="41.93127901009735" lon="13.314772909521404"><ele>1595.0000000000002</ele><time>2026-04-24T11:00:59Z</time></trkpt><trkpt lat="41.93134313477178" lon="13.314731259268193"><ele>1594.0</ele><time>2026-04-24T11:01:01Z</time></trkpt><trkpt lat="41.93140586570083" lon="13.314681780789652"><ele>1592.8333333333335</ele><time>2026-04-24T11:01:03Z</time></trkpt><trkpt lat="41.93145311866954" lon="13.314592308265938"><ele>1591.6666666666667</ele><time>2026-04-24T11:01:07Z</time></trkpt><trkpt lat="41.93140845761245" lon="13.314505143157346"><ele>1590.5</ele><time>2026-04-24T11:01:09Z</time></trkpt><trkpt lat="41.93134553397383" lon="13.31444706676385"><ele>1589.3333333333335</ele><time>2026-04-24T11:01:11Z</time></trkpt><trkpt lat="41.93128934210135" lon="13.314349552542236"><ele>1588.1666666666667</ele><time>2026-04-24T11:01:14Z</time></trkpt><trkpt lat="41.93131021580335" lon="13.314217075973119"><ele>1587.0</ele><time>2026-04-24T11:01:17Z</time></trkpt><trkpt lat="41.931401748010714" lon="13.314159526213983"><ele>1587.0</ele><time>2026-04-24T11:01:19Z</time></trkpt><trkpt lat="41.93148687791143" lon="13.314150180790659"><ele>1587.0</ele><time>2026-04-24T11:01:20.999Z</time></trkpt><trkpt lat="41.93157052796858" lon="13.3141388785017"><ele>1587.0</ele><time>2026-04-24T11:01:22.999Z</time></trkpt><trkpt lat="41.93166716721649" lon="13.31413011927456"><ele>1587.0</ele><time>2026-04-24T11:01:24.999Z</time></trkpt><trkpt lat="41.93175032272856" lon="13.31411702228525"><ele>1587.0</ele><time>2026-04-24T11:01:26.999Z</time></trkpt><trkpt lat="41.931843337992134" lon="13.314083167002073"><ele>1587.0</ele><time>2026-04-24T11:01:28.999Z</time></trkpt><trkpt lat="41.93191182687271" lon="13.314064641205963"><ele>1586.857142857143</ele><time>2026-04-24T11:01:29.999Z</time></trkpt><trkpt lat="41.93198348665076" lon="13.314044439568908"><ele>1586.7142857142858</ele><time>2026-04-24T11:01:30.999Z</time></trkpt><trkpt lat="41.93204665593256" lon="13.314022684830464"><ele>1586.5714285714287</ele><time>2026-04-24T11:01:31.999Z</time></trkpt><trkpt lat="41.932118551832104" lon="13.31400763143231"><ele>1586.4285714285716</ele><time>2026-04-24T11:01:32.999Z</time></trkpt><trkpt lat="41.93218926201863" lon="13.314000669280713"><ele>1586.2857142857142</ele><time>2026-04-24T11:01:33.999Z</time></trkpt><trkpt lat="41.932255521882695" lon="13.31400786380503"><ele>1586.1428571428573</ele><time>2026-04-24T11:01:34.999Z</time></trkpt><trkpt lat="41.932331212607494" lon="13.314021622335629"><ele>1586.0</ele><time>2026-04-24T11:01:35.999Z</time></trkpt><trkpt lat="41.932408530581114" lon="13.314025833919008"><ele>1585.9999999999998</ele><time>2026-04-24T11:01:36.999Z</time></trkpt><trkpt lat="41.93249102300473" lon="13.314032838166467"><ele>1586.0</ele><time>2026-04-24T11:01:37.999Z</time></trkpt><trkpt lat="41.93257150766321" lon="13.314044694297987"><ele>1586.0</ele><time>2026-04-24T11:01:38.999Z</time></trkpt><trkpt lat="41.93266229986112" lon="13.31406249398032"><ele>1586.0</ele><time>2026-04-24T11:01:39.999Z</time></trkpt><trkpt lat="41.93274044399971" lon="13.314076724070766"><ele>1585.9999999999998</ele><time>2026-04-24T11:01:40.999Z</time></trkpt><trkpt lat="41.93280746997614" lon="13.314083933471071"><ele>1586.0</ele><time>2026-04-24T11:01:41.999Z</time></trkpt><trkpt lat="41.932880081157215" lon="13.314080537474993"><ele>1586.3333333333333</ele><time>2026-04-24T11:01:42.999Z</time></trkpt><trkpt lat="41.93294424307597" lon="13.314060099273322"><ele>1586.6666666666665</ele><time>2026-04-24T11:01:43.999Z</time></trkpt><trkpt lat="41.93300859847996" lon="13.314028745802414"><ele>1587.0</ele><time>2026-04-24T11:01:44.999Z</time></trkpt><trkpt lat="41.93308580254322" lon="13.313996842371216"><ele>1587.3333333333335</ele><time>2026-04-24T11:01:45.999Z</time></trkpt><trkpt lat="41.93316902931675" lon="13.313960952318338"><ele>1587.6666666666667</ele><time>2026-04-24T11:01:46.999Z</time></trkpt><trkpt lat="41.93324731438256" lon="13.31392437335345"><ele>1588.0</ele><time>2026-04-24T11:01:47.999Z</time></trkpt><trkpt lat="41.933313309049815" lon="13.313901942325701"><ele>1588.0</ele><time>2026-04-24T11:01:48.999Z</time></trkpt><trkpt lat="41.93341636132413" lon="13.313917286841088"><ele>1588.0</ele><time>2026-04-24T11:01:50.999Z</time></trkpt><trkpt lat="41.933542798979104" lon="13.31391689434273"><ele>1588.0</ele><time>2026-04-24T11:01:52.999Z</time></trkpt><trkpt lat="41.93365287291221" lon="13.313878310066423"><ele>1588.0</ele><time>2026-04-24T11:01:54.999Z</time></trkpt><trkpt lat="41.933725555611844" lon="13.31381966350491"><ele>1588.0</ele><time>2026-04-24T11:01:55.999Z</time></trkpt><trkpt lat="41.93381310979428" lon="13.313764901418468"><ele>1588.0</ele><time>2026-04-24T11:01:56.999Z</time></trkpt><trkpt lat="41.933899007365355" lon="13.31372303904311"><ele>1588.0</ele><time>2026-04-24T11:01:57.999Z</time></trkpt><trkpt lat="41.93396535948133" lon="13.313693947805499"><ele>1588.0</ele><time>2026-04-24T11:01:58.999Z</time></trkpt><trkpt lat="41.93406313598429" lon="13.313645063471698"><ele>1588.0</ele><time>2026-04-24T11:02:00.999Z</time></trkpt><trkpt lat="41.93415442175185" lon="13.313603816359551"><ele>1588.0</ele><time>2026-04-24T11:02:03Z</time></trkpt><trkpt lat="41.93425483997328" lon="13.313550312509237"><ele>1586.2</ele><time>2026-04-24T11:02:05Z</time></trkpt><trkpt lat="41.9343604068887" lon="13.313489057219481"><ele>1584.4</ele><time>2026-04-24T11:02:07Z</time></trkpt><trkpt lat="41.93446884083574" lon="13.31347203782946"><ele>1582.6000000000001</ele><time>2026-04-24T11:02:09Z</time></trkpt><trkpt lat="41.93456579208895" lon="13.313444635342577"><ele>1580.8000000000002</ele><time>2026-04-24T11:02:11Z</time></trkpt><trkpt lat="41.934643086997966" lon="13.31336743290047"><ele>1579.0</ele><time>2026-04-24T11:02:13Z</time></trkpt><trkpt lat="41.934697018826846" lon="13.313309175635805"><ele>1579.0000000000002</ele><time>2026-04-24T11:02:14Z</time></trkpt><trkpt lat="41.93475551012899" lon="13.31326298651686"><ele>1579.0</ele><time>2026-04-24T11:02:15Z</time></trkpt><trkpt lat="41.93481005184033" lon="13.31321732065019"><ele>1579.0</ele><time>2026-04-24T11:02:16Z</time></trkpt><trkpt lat="41.93486205561782" lon="13.313156968184868"><ele>1579.0</ele><time>2026-04-24T11:02:17Z</time></trkpt><trkpt lat="41.93491679204109" lon="13.313104234860544"><ele>1579.0000000000002</ele><time>2026-04-24T11:02:18Z</time></trkpt><trkpt lat="41.93497707389122" lon="13.313062165054323"><ele>1579.0</ele><time>2026-04-24T11:02:19Z</time></trkpt><trkpt lat="41.935105809375244" lon="13.313040054639126"><ele>1578.2</ele><time>2026-04-24T11:02:21Z</time></trkpt><trkpt lat="41.93519197353442" lon="13.31303446381494"><ele>1577.4</ele><time>2026-04-24T11:02:22Z</time></trkpt><trkpt lat="41.93530571897562" lon="13.313029451746086"><ele>1576.6</ele><time>2026-04-24T11:02:23Z</time></trkpt><trkpt lat="41.935405427681104" lon="13.313021582538813"><ele>1575.8</ele><time>2026-04-24T11:02:24Z</time></trkpt><trkpt lat="41.935492558693305" lon="13.31301630532243"><ele>1575.0</ele><time>2026-04-24T11:02:25Z</time></trkpt><trkpt lat="41.93557170967924" lon="13.31301090892376"><ele>1575.0</ele><time>2026-04-24T11:02:26Z</time></trkpt><trkpt lat="41.93570730856764" lon="13.312979880458773"><ele>1575.0</ele><time>2026-04-24T11:02:28Z</time></trkpt><trkpt lat="41.935779129267125" lon="13.312962333733859"><ele>1575.0</ele><time>2026-04-24T11:02:29Z</time></trkpt><trkpt lat="41.93585386847857" lon="13.312948834884548"><ele>1575.0</ele><time>2026-04-24T11:02:30Z</time></trkpt><trkpt lat="41.93592325889915" lon="13.312941059361789"><ele>1575.0</ele><time>2026-04-24T11:02:31Z</time></trkpt><trkpt lat="41.93598894949066" lon="13.312936321326681"><ele>1575.0</ele><time>2026-04-24T11:02:32Z</time></trkpt><trkpt lat="41.93606127504043" lon="13.31292880141385"><ele>1574.0</ele><time>2026-04-24T11:02:33Z</time></trkpt><trkpt lat="41.936131438584766" lon="13.312930447639893"><ele>1573.0</ele><time>2026-04-24T11:02:34Z</time></trkpt><trkpt lat="41.93620566429497" lon="13.312927032853734"><ele>1572.0</ele><time>2026-04-24T11:02:35Z</time></trkpt><trkpt lat="41.936281989625094" lon="13.312921644637582"><ele>1571.0</ele><time>2026-04-24T11:02:36Z</time></trkpt><trkpt lat="41.936361801456016" lon="13.31291216354346"><ele>1570.0</ele><time>2026-04-24T11:02:37Z</time></trkpt><trkpt lat="41.936440142414476" lon="13.312909307213143"><ele>1569.0</ele><time>2026-04-24T11:02:38Z</time></trkpt><trkpt lat="41.93650895098429" lon="13.312898843312535"><ele>1568.0</ele><time>2026-04-24T11:02:39Z</time></trkpt><trkpt lat="41.93657491233368" lon="13.312906911450053"><ele>1567.9999999999998</ele><time>2026-04-24T11:02:40Z</time></trkpt><trkpt lat="41.93665062081614" lon="13.312913796026317"><ele>1568.0</ele><time>2026-04-24T11:02:41Z</time></trkpt><trkpt lat="41.93671564188526" lon="13.31291952097447"><ele>1568.0</ele><time>2026-04-24T11:02:42Z</time></trkpt><trkpt lat="41.93680454856135" lon="13.312913969969967"><ele>1568.0</ele><time>2026-04-24T11:02:44Z</time></trkpt><trkpt lat="41.936911171990175" lon="13.312912592606287"><ele>1567.9999999999998</ele><time>2026-04-24T11:02:46Z</time></trkpt><trkpt lat="41.9370092649095" lon="13.312953541164845"><ele>1568.0</ele><time>2026-04-24T11:02:48Z</time></trkpt><trkpt lat="41.937108594278804" lon="13.312952904480788"><ele>1566.3333333333333</ele><time>2026-04-24T11:02:50Z</time></trkpt><trkpt lat="41.9371728988757" lon="13.312918681598777"><ele>1564.6666666666665</ele><time>2026-04-24T11:02:51Z</time></trkpt><trkpt lat="41.93723512883018" lon="13.312877751841139"><ele>1563.0</ele><time>2026-04-24T11:02:52Z</time></trkpt><trkpt lat="41.93729076542148" lon="13.312837583949875"><ele>1561.3333333333335</ele><time>2026-04-24T11:02:53Z</time></trkpt><trkpt lat="41.93738047393065" lon="13.312738078100798"><ele>1559.6666666666667</ele><time>2026-04-24T11:02:55Z</time></trkpt><trkpt lat="41.937437207961175" lon="13.312676789379857"><ele>1558.0</ele><time>2026-04-24T11:02:57Z</time></trkpt><trkpt lat="41.9374484822332" lon="13.312575323328288"><ele>1558.0000000000002</ele><time>2026-04-24T11:02:59Z</time></trkpt><trkpt lat="41.9374235001641" lon="13.312434883157799"><ele>1558.0</ele><time>2026-04-24T11:03:01Z</time></trkpt><trkpt lat="41.937422517167825" lon="13.31234098376214"><ele>1558.0</ele><time>2026-04-24T11:03:02Z</time></trkpt><trkpt lat="41.937435954099705" lon="13.312255774958501"><ele>1558.0</ele><time>2026-04-24T11:03:03Z</time></trkpt><trkpt lat="41.93742361783257" lon="13.312171932790541"><ele>1558.0</ele><time>2026-04-24T11:03:06Z</time></trkpt><trkpt lat="41.937387623281545" lon="13.3121021729023"><ele>1558.0000000000002</ele><time>2026-04-24T11:03:09Z</time></trkpt><trkpt lat="41.93731606163267" lon="13.312054606806722"><ele>1558.0</ele><time>2026-04-24T11:03:11.999Z</time></trkpt><trkpt lat="41.93729905748178" lon="13.311965868924103"><ele>1558.1666666666667</ele><time>2026-04-24T11:03:13.999Z</time></trkpt><trkpt lat="41.93737040646309" lon="13.31186672475303"><ele>1558.3333333333335</ele><time>2026-04-24T11:03:15.999Z</time></trkpt><trkpt lat="41.93745922589728" lon="13.31184226767693"><ele>1558.5</ele><time>2026-04-24T11:03:17.999Z</time></trkpt><trkpt lat="41.93753426589951" lon="13.311851563103268"><ele>1558.6666666666665</ele><time>2026-04-24T11:03:20.999Z</time></trkpt><trkpt lat="41.93760469374431" lon="13.311842086136965"><ele>1558.8333333333333</ele><time>2026-04-24T11:03:23.999Z</time></trkpt><trkpt lat="41.937654254323085" lon="13.311761574982473"><ele>1559.0</ele><time>2026-04-24T11:03:31.999Z</time></trkpt><trkpt lat="41.93771895023902" lon="13.311684594697661"><ele>1559.0</ele><time>2026-04-24T11:03:34.999Z</time></trkpt><trkpt lat="41.93779974524626" lon="13.311592386846163"><ele>1559.0</ele><time>2026-04-24T11:03:37.999Z</time></trkpt><trkpt lat="41.937870351897736" lon="13.31150288227878"><ele>1559.0</ele><time>2026-04-24T11:03:39.999Z</time></trkpt><trkpt lat="41.93793987893165" lon="13.311444712379467"><ele>1559.0</ele><time>2026-04-24T11:03:40.999Z</time></trkpt><trkpt lat="41.9379611844636" lon="13.311305903617246"><ele>1559.0</ele><time>2026-04-24T11:03:44.999Z</time></trkpt><trkpt lat="41.93796881255141" lon="13.311213703876344"><ele>1560.0</ele><time>2026-04-24T11:03:45.999Z</time></trkpt><trkpt lat="41.937931917054314" lon="13.311058357707964"><ele>1561.0</ele><time>2026-04-24T11:03:47.999Z</time></trkpt><trkpt lat="41.93789674840026" lon="13.31092473057424"><ele>1562.0</ele><time>2026-04-24T11:03:49.999Z</time></trkpt><trkpt lat="41.937903645288266" lon="13.310795108064521"><ele>1563.0</ele><time>2026-04-24T11:03:51.999Z</time></trkpt><trkpt lat="41.937969890628445" lon="13.310681561730892"><ele>1564.0</ele><time>2026-04-24T11:03:53.999Z</time></trkpt><trkpt lat="41.93801923946134" lon="13.310605743438341"><ele>1563.1666666666667</ele><time>2026-04-24T11:03:54.999Z</time></trkpt><trkpt lat="41.93805656422853" lon="13.310522233004606"><ele>1562.3333333333335</ele><time>2026-04-24T11:03:55.999Z</time></trkpt><trkpt lat="41.938089238137785" lon="13.310425007180811"><ele>1561.5</ele><time>2026-04-24T11:03:56.999Z</time></trkpt><trkpt lat="41.93811349765125" lon="13.310318085615396"><ele>1560.6666666666665</ele><time>2026-04-24T11:03:57.999Z</time></trkpt><trkpt lat="41.9381363850658" lon="13.310218266587457"><ele>1559.8333333333333</ele><time>2026-04-24T11:03:58.999Z</time></trkpt><trkpt lat="41.938163086528796" lon="13.310116212637073"><ele>1559.0</ele><time>2026-04-24T11:03:59.999Z</time></trkpt><trkpt lat="41.93818355528938" lon="13.310014808622213"><ele>1558.9999999999998</ele><time>2026-04-24T11:04:00.999Z</time></trkpt><trkpt lat="41.93821233804642" lon="13.309920954655631"><ele>1559.0</ele><time>2026-04-24T11:04:01.999Z</time></trkpt><trkpt lat="41.93827841249336" lon="13.30977363180973"><ele>1559.0</ele><time>2026-04-24T11:04:03.999Z</time></trkpt><trkpt lat="41.93831899362284" lon="13.309698554411067"><ele>1559.0</ele><time>2026-04-24T11:04:04.999Z</time></trkpt><trkpt lat="41.93835707686517" lon="13.309617624664137"><ele>1558.9999999999998</ele><time>2026-04-24T11:04:05.999Z</time></trkpt><trkpt lat="41.93838434424968" lon="13.309537704131646"><ele>1559.0</ele><time>2026-04-24T11:04:06.999Z</time></trkpt><trkpt lat="41.938407740378295" lon="13.309453592193721"><ele>1558.2</ele><time>2026-04-24T11:04:08Z</time></trkpt><trkpt lat="41.93847740988113" lon="13.309332595902307"><ele>1557.4</ele><time>2026-04-24T11:04:10Z</time></trkpt><trkpt lat="41.938564672530454" lon="13.309230066075894"><ele>1556.6</ele><time>2026-04-24T11:04:12Z</time></trkpt><trkpt lat="41.93861953571265" lon="13.3091424788031"><ele>1555.8</ele><time>2026-04-24T11:04:14Z</time></trkpt><trkpt lat="41.938699893487" lon="13.309066444122431"><ele>1555.0</ele><time>2026-04-24T11:04:17Z</time></trkpt><trkpt lat="41.93877284887591" lon="13.30896599992181"><ele>1555.0000000000002</ele><time>2026-04-24T11:04:19Z</time></trkpt><trkpt lat="41.93882502586543" lon="13.308918251049116"><ele>1555.0</ele><time>2026-04-24T11:04:21Z</time></trkpt><trkpt lat="41.938889029357846" lon="13.3088353410937"><ele>1555.0</ele><time>2026-04-24T11:04:24Z</time></trkpt><trkpt lat="41.9389608744874" lon="13.308754661721853"><ele>1555.0</ele><time>2026-04-24T11:04:27Z</time></trkpt><trkpt lat="41.9390105555725" lon="13.308698987786434"><ele>1555.0000000000002</ele><time>2026-04-24T11:04:29Z</time></trkpt><trkpt lat="41.939089549341986" lon="13.308594827132422"><ele>1555.0</ele><time>2026-04-24T11:04:31Z</time></trkpt><trkpt lat="41.93915500646518" lon="13.308502327046725"><ele>1554.6</ele><time>2026-04-24T11:04:33Z</time></trkpt><trkpt lat="41.939206947179905" lon="13.308381166357549"><ele>1554.2</ele><time>2026-04-24T11:04:35Z</time></trkpt><trkpt lat="41.93923747102673" lon="13.30823904627499"><ele>1553.8000000000002</ele><time>2026-04-24T11:04:37Z</time></trkpt><trkpt lat="41.93925923530205" lon="13.308119217238781"><ele>1553.4</ele><time>2026-04-24T11:04:39Z</time></trkpt><trkpt lat="41.93931394035588" lon="13.308024492974349"><ele>1553.0</ele><time>2026-04-24T11:04:41Z</time></trkpt><trkpt lat="41.93936798289884" lon="13.307973042521388"><ele>1551.4</ele><time>2026-04-24T11:04:42Z</time></trkpt><trkpt lat="41.939473146976894" lon="13.307893145441984"><ele>1549.8000000000002</ele><time>2026-04-24T11:04:44Z</time></trkpt><trkpt lat="41.93954620964846" lon="13.307791637874152"><ele>1548.2</ele><time>2026-04-24T11:04:46Z</time></trkpt><trkpt lat="41.93959973467285" lon="13.30766861604145"><ele>1546.6</ele><time>2026-04-24T11:04:48Z</time></trkpt><trkpt lat="41.93964045610428" lon="13.307593665112528"><ele>1545.0</ele><time>2026-04-24T11:04:49Z</time></trkpt><trkpt lat="41.93969115689065" lon="13.307504184717551"><ele>1545.0</ele><time>2026-04-24T11:04:50Z</time></trkpt><trkpt lat="41.93974230145455" lon="13.307415992219035"><ele>1545.0</ele><time>2026-04-24T11:04:51Z</time></trkpt><trkpt lat="41.93978557944068" lon="13.307340633468737"><ele>1545.0</ele><time>2026-04-24T11:04:52Z</time></trkpt><trkpt lat="41.93985198173717" lon="13.307203574515555"><ele>1545.0</ele><time>2026-04-24T11:04:54Z</time></trkpt><trkpt lat="41.93990610817003" lon="13.307085929803527"><ele>1545.0</ele><time>2026-04-24T11:04:56Z</time></trkpt><trkpt lat="41.93992000622616" lon="13.306994626075744"><ele>1545.0</ele><time>2026-04-24T11:04:58Z</time></trkpt><trkpt lat="41.939910997602986" lon="13.306893173493467"><ele>1543.6</ele><time>2026-04-24T11:05:00Z</time></trkpt><trkpt lat="41.93990553432557" lon="13.30675383569606"><ele>1542.2</ele><time>2026-04-24T11:05:03Z</time></trkpt><trkpt lat="41.939892710243065" lon="13.306666784394197"><ele>1540.8000000000002</ele><time>2026-04-24T11:05:04Z</time></trkpt><trkpt lat="41.9398724667714" lon="13.306555444719057"><ele>1539.4</ele><time>2026-04-24T11:05:06Z</time></trkpt><trkpt lat="41.939867518931315" lon="13.306424019549874"><ele>1538.0</ele><time>2026-04-24T11:05:07.999Z</time></trkpt><trkpt lat="41.93992497032876" lon="13.306251919066483"><ele>1536.8333333333333</ele><time>2026-04-24T11:05:09.999Z</time></trkpt><trkpt lat="41.9399604321684" lon="13.306166337193615"><ele>1535.6666666666665</ele><time>2026-04-24T11:05:10.999Z</time></trkpt><trkpt lat="41.939998857103724" lon="13.306034279895757"><ele>1534.5</ele><time>2026-04-24T11:05:12.999Z</time></trkpt><trkpt lat="41.94000697529033" lon="13.305907652334852"><ele>1533.3333333333333</ele><time>2026-04-24T11:05:14.999Z</time></trkpt><trkpt lat="41.939995621968144" lon="13.305822574570659"><ele>1532.1666666666665</ele><time>2026-04-24T11:05:15.999Z</time></trkpt><trkpt lat="41.93995015703895" lon="13.305690040877847"><ele>1531.0</ele><time>2026-04-24T11:05:17.999Z</time></trkpt><trkpt lat="41.9398813611009" lon="13.30560594814808"><ele>1530.5</ele><time>2026-04-24T11:05:19.999Z</time></trkpt><trkpt lat="41.93978982682322" lon="13.305562540114934"><ele>1530.0</ele><time>2026-04-24T11:05:21.999Z</time></trkpt><trkpt lat="41.939722051765926" lon="13.305503810685643"><ele>1529.5</ele><time>2026-04-24T11:05:23.999Z</time></trkpt><trkpt lat="41.93970825462592" lon="13.305409703067133"><ele>1529.0</ele><time>2026-04-24T11:05:26.999Z</time></trkpt><trkpt lat="41.93972545298503" lon="13.305321269540421"><ele>1528.5</ele><time>2026-04-24T11:05:28.999Z</time></trkpt><trkpt lat="41.939807962982506" lon="13.305224953781686"><ele>1528.0</ele><time>2026-04-24T11:05:30.999Z</time></trkpt><trkpt lat="41.93986525535553" lon="13.305178443855851"><ele>1528.0</ele><time>2026-04-24T11:05:31.999Z</time></trkpt><trkpt lat="41.9399222596347" lon="13.305137109782095"><ele>1528.0</ele><time>2026-04-24T11:05:32.999Z</time></trkpt><trkpt lat="41.940020506252246" lon="13.305054398848338"><ele>1528.0</ele><time>2026-04-24T11:05:34.999Z</time></trkpt><trkpt lat="41.9401262930538" lon="13.304967552249291"><ele>1528.0</ele><time>2026-04-24T11:05:36.999Z</time></trkpt><trkpt lat="41.9401860582273" lon="13.304928138838285"><ele>1528.0</ele><time>2026-04-24T11:05:37.999Z</time></trkpt><trkpt lat="41.940245074961666" lon="13.304890981525189"><ele>1528.0</ele><time>2026-04-24T11:05:38.999Z</time></trkpt><trkpt lat="41.940339149127595" lon="13.304827914944577"><ele>1527.8000000000002</ele><time>2026-04-24T11:05:40.999Z</time></trkpt><trkpt lat="41.940431355215956" lon="13.304787304241398"><ele>1527.6</ele><time>2026-04-24T11:05:42.999Z</time></trkpt><trkpt lat="41.940534326143336" lon="13.304721798445792"><ele>1527.4</ele><time>2026-04-24T11:05:44.999Z</time></trkpt><trkpt lat="41.9406471023605" lon="13.304664632032031"><ele>1527.1999999999998</ele><time>2026-04-24T11:05:46.999Z</time></trkpt><trkpt lat="41.940752804300104" lon="13.304650236072206"><ele>1527.0</ele><time>2026-04-24T11:05:48.999Z</time></trkpt><trkpt lat="41.9408457902123" lon="13.304701873981452"><ele>1526.3333333333333</ele><time>2026-04-24T11:05:50.999Z</time></trkpt><trkpt lat="41.94089115889103" lon="13.304779079698456"><ele>1525.6666666666667</ele><time>2026-04-24T11:05:52.999Z</time></trkpt><trkpt lat="41.940969516025675" lon="13.304822606388878"><ele>1525.0</ele><time>2026-04-24T11:05:54.999Z</time></trkpt><trkpt lat="41.94107270103623" lon="13.304860593003626"><ele>1524.3333333333335</ele><time>2026-04-24T11:05:56.999Z</time></trkpt><trkpt lat="41.94115768845162" lon="13.304878647144038"><ele>1523.6666666666667</ele><time>2026-04-24T11:05:57.999Z</time></trkpt><trkpt lat="41.94123237039295" lon="13.304896374012822"><ele>1523.0</ele><time>2026-04-24T11:05:58.999Z</time></trkpt><trkpt lat="41.941344526086176" lon="13.304894100151504"><ele>1523.0</ele><time>2026-04-24T11:06:00.999Z</time></trkpt><trkpt lat="41.94144629883914" lon="13.304907170902622"><ele>1523.0</ele><time>2026-04-24T11:06:02.999Z</time></trkpt><trkpt lat="41.94154441865754" lon="13.304848031418397"><ele>1523.0</ele><time>2026-04-24T11:06:04.999Z</time></trkpt><trkpt lat="41.941595378317615" lon="13.304793378112967"><ele>1523.0</ele><time>2026-04-24T11:06:05.999Z</time></trkpt><trkpt lat="41.94165219161139" lon="13.304724870754589"><ele>1523.0</ele><time>2026-04-24T11:06:06.999Z</time></trkpt><trkpt lat="41.94169855222654" lon="13.304658890135688"><ele>1523.0</ele><time>2026-04-24T11:06:07.999Z</time></trkpt><trkpt lat="41.94174273215201" lon="13.30458761326944"><ele>1521.4</ele><time>2026-04-24T11:06:08.999Z</time></trkpt><trkpt lat="41.941798489034454" lon="13.304460788990669"><ele>1519.8000000000002</ele><time>2026-04-24T11:06:10.999Z</time></trkpt><trkpt lat="41.94186267380447" lon="13.304354553639946"><ele>1518.2</ele><time>2026-04-24T11:06:12.999Z</time></trkpt><trkpt lat="41.94193155732352" lon="13.304263385073503"><ele>1516.6</ele><time>2026-04-24T11:06:15Z</time></trkpt><trkpt lat="41.942012921582155" lon="13.304171171816298"><ele>1515.0</ele><time>2026-04-24T11:06:17Z</time></trkpt><trkpt lat="41.94207269016638" lon="13.30408656963874"><ele>1515.0</ele><time>2026-04-24T11:06:19Z</time></trkpt><trkpt lat="41.94210626017457" lon="13.304003179240597"><ele>1515.0</ele><time>2026-04-24T11:06:21Z</time></trkpt><trkpt lat="41.94211201347514" lon="13.303885864648016"><ele>1515.0</ele><time>2026-04-24T11:06:23Z</time></trkpt><trkpt lat="41.94214097812551" lon="13.303760069606431"><ele>1515.0</ele><time>2026-04-24T11:06:25Z</time></trkpt><trkpt lat="41.94221380099349" lon="13.30367818864397"><ele>1515.0</ele><time>2026-04-24T11:06:27Z</time></trkpt><trkpt lat="41.942283503085974" lon="13.303613355328185"><ele>1515.0</ele><time>2026-04-24T11:06:29Z</time></trkpt><trkpt lat="41.94233414712515" lon="13.303537838185594"><ele>1514.0</ele><time>2026-04-24T11:06:31Z</time></trkpt><trkpt lat="41.94237759398511" lon="13.303405867859757"><ele>1513.0</ele><time>2026-04-24T11:06:33Z</time></trkpt><trkpt lat="41.94243033400085" lon="13.3032828667378"><ele>1512.0</ele><time>2026-04-24T11:06:35Z</time></trkpt><trkpt lat="41.9425303491623" lon="13.303205793450951"><ele>1511.0</ele><time>2026-04-24T11:06:37Z</time></trkpt><trkpt lat="41.94258787478577" lon="13.30315593852089"><ele>1510.0</ele><time>2026-04-24T11:06:38Z</time></trkpt><trkpt lat="41.9426483493911" lon="13.303088152833782"><ele>1509.2</ele><time>2026-04-24T11:06:39Z</time></trkpt><trkpt lat="41.94274382618329" lon="13.30300231176042"><ele>1508.4</ele><time>2026-04-24T11:06:41Z</time></trkpt><trkpt lat="41.94284461482229" lon="13.302933568387536"><ele>1507.6</ele><time>2026-04-24T11:06:43Z</time></trkpt><trkpt lat="41.94292454104451" lon="13.302834604702294"><ele>1506.8</ele><time>2026-04-24T11:06:45Z</time></trkpt><trkpt lat="41.94297053360369" lon="13.302764808073102"><ele>1506.0</ele><time>2026-04-24T11:06:46Z</time></trkpt><trkpt lat="41.94301772296004" lon="13.302674514834724"><ele>1506.0</ele><time>2026-04-24T11:06:47Z</time></trkpt><trkpt lat="41.94306673969184" lon="13.302611131689648"><ele>1506.0</ele><time>2026-04-24T11:06:48Z</time></trkpt><trkpt lat="41.94312959491741" lon="13.30250680132845"><ele>1506.0</ele><time>2026-04-24T11:06:50Z</time></trkpt><trkpt lat="41.943187291723696" lon="13.302406677152172"><ele>1506.0</ele><time>2026-04-24T11:06:52Z</time></trkpt><trkpt lat="41.943222596883395" lon="13.302289760958661"><ele>1506.0</ele><time>2026-04-24T11:06:54Z</time></trkpt><trkpt lat="41.94322801916479" lon="13.302196382069543"><ele>1506.0</ele><time>2026-04-24T11:06:56Z</time></trkpt><trkpt lat="41.94324401849912" lon="13.302097972514318"><ele>1505.3333333333333</ele><time>2026-04-24T11:06:58Z</time></trkpt><trkpt lat="41.943239828402184" lon="13.302009715586214"><ele>1504.6666666666667</ele><time>2026-04-24T11:07:18.999Z</time></trkpt><trkpt lat="41.94322674464108" lon="13.301923633583433"><ele>1504.0</ele><time>2026-04-24T11:07:21.999Z</time></trkpt><trkpt lat="41.94323408349804" lon="13.301836965128066"><ele>1503.3333333333335</ele><time>2026-04-24T11:07:23.999Z</time></trkpt><trkpt lat="41.94326040123843" lon="13.301755475265049"><ele>1502.6666666666667</ele><time>2026-04-24T11:07:25.999Z</time></trkpt><trkpt lat="41.943294614512766" lon="13.301646734566777"><ele>1502.0</ele><time>2026-04-24T11:07:27.999Z</time></trkpt><trkpt lat="41.94329794747752" lon="13.30150776076931"><ele>1501.3999999999999</ele><time>2026-04-24T11:07:29.999Z</time></trkpt><trkpt lat="41.94327282564281" lon="13.301400482052395"><ele>1500.8</ele><time>2026-04-24T11:07:31.999Z</time></trkpt><trkpt lat="41.94322215191559" lon="13.301292990953744"><ele>1500.2</ele><time>2026-04-24T11:07:33.999Z</time></trkpt><trkpt lat="41.94317134430375" lon="13.301178634992608"><ele>1499.6</ele><time>2026-04-24T11:07:35.999Z</time></trkpt><trkpt lat="41.94315546075582" lon="13.301044598117782"><ele>1499.0</ele><time>2026-04-24T11:07:37.999Z</time></trkpt><trkpt lat="41.943172255724704" lon="13.300891735884928"><ele>1499.0</ele><time>2026-04-24T11:07:39.999Z</time></trkpt><trkpt lat="41.943183875858196" lon="13.300713074277676"><ele>1499.0</ele><time>2026-04-24T11:07:41.999Z</time></trkpt><trkpt lat="41.94317255341298" lon="13.300611748478264"><ele>1499.0</ele><time>2026-04-24T11:07:42.999Z</time></trkpt><trkpt lat="41.943153662235645" lon="13.300484420394872"><ele>1499.0</ele><time>2026-04-24T11:07:43.999Z</time></trkpt><trkpt lat="41.943143492234526" lon="13.300353411399676"><ele>1499.0</ele><time>2026-04-24T11:07:44.999Z</time></trkpt><trkpt lat="41.94314312238274" lon="13.300225889961949"><ele>1498.1666666666667</ele><time>2026-04-24T11:07:45.999Z</time></trkpt><trkpt lat="41.94314065563848" lon="13.300120587537064"><ele>1497.3333333333335</ele><time>2026-04-24T11:07:46.999Z</time></trkpt><trkpt lat="41.94312934230271" lon="13.300017949782896"><ele>1496.5</ele><time>2026-04-24T11:07:47.999Z</time></trkpt><trkpt lat="41.9431196272437" lon="13.299928078817567"><ele>1495.6666666666667</ele><time>2026-04-24T11:07:48.999Z</time></trkpt><trkpt lat="41.94311039707379" lon="13.299774952991495"><ele>1494.8333333333333</ele><time>2026-04-24T11:07:50.999Z</time></trkpt><trkpt lat="41.94313349129759" lon="13.299693641823621"><ele>1494.0</ele><time>2026-04-24T11:07:51.999Z</time></trkpt><trkpt lat="41.94317242229244" lon="13.299624229495912"><ele>1493.6666666666667</ele><time>2026-04-24T11:07:52.999Z</time></trkpt><trkpt lat="41.94322309577675" lon="13.299560405998482"><ele>1493.3333333333333</ele><time>2026-04-24T11:07:53.999Z</time></trkpt><trkpt lat="41.943288728471344" lon="13.299518107297144"><ele>1493.0</ele><time>2026-04-24T11:07:54.999Z</time></trkpt><trkpt lat="41.94335646420898" lon="13.299474800122535"><ele>1492.6666666666665</ele><time>2026-04-24T11:07:55.999Z</time></trkpt><trkpt lat="41.94342974509575" lon="13.299428367896523"><ele>1492.3333333333333</ele><time>2026-04-24T11:07:56.999Z</time></trkpt><trkpt lat="41.943492487840565" lon="13.299393943711193"><ele>1492.0</ele><time>2026-04-24T11:07:57.999Z</time></trkpt><trkpt lat="41.94360335256792" lon="13.299336099246133"><ele>1492.0</ele><time>2026-04-24T11:07:59.999Z</time></trkpt><trkpt lat="41.94370643611014" lon="13.299302372431438"><ele>1492.0</ele><time>2026-04-24T11:08:01.999Z</time></trkpt><trkpt lat="41.943798711043165" lon="13.299276104958803"><ele>1492.0</ele><time>2026-04-24T11:08:03.999Z</time></trkpt><trkpt lat="41.94390000414729" lon="13.29926518790585"><ele>1492.0</ele><time>2026-04-24T11:08:05.999Z</time></trkpt><trkpt lat="41.944014784511005" lon="13.299260054290166"><ele>1492.0</ele><time>2026-04-24T11:08:07.999Z</time></trkpt><trkpt lat="41.94411841998922" lon="13.299243672447885"><ele>1492.0</ele><time>2026-04-24T11:08:09.999Z</time></trkpt><trkpt lat="41.94420667877615" lon="13.299201026581015"><ele>1492.0</ele><time>2026-04-24T11:08:11.999Z</time></trkpt><trkpt lat="41.944297409962054" lon="13.299136412530526"><ele>1492.0</ele><time>2026-04-24T11:08:13.999Z</time></trkpt><trkpt lat="41.944387183604086" lon="13.29907456200319"><ele>1492.0</ele><time>2026-04-24T11:08:15.999Z</time></trkpt><trkpt lat="41.9444809573624" lon="13.299025942038005"><ele>1492.0</ele><time>2026-04-24T11:08:17.999Z</time></trkpt><trkpt lat="41.94456569294675" lon="13.298975968358704"><ele>1491.5</ele><time>2026-04-24T11:08:20Z</time></trkpt><trkpt lat="41.94466220963618" lon="13.298946957885663"><ele>1491.0</ele><time>2026-04-24T11:08:22Z</time></trkpt><trkpt lat="41.944748044941775" lon="13.298917110637039"><ele>1490.5</ele><time>2026-04-24T11:08:24Z</time></trkpt><trkpt lat="41.944831486640545" lon="13.298884359318675"><ele>1490.0</ele><time>2026-04-24T11:08:26Z</time></trkpt><trkpt lat="41.94491853318384" lon="13.298856736076326"><ele>1489.5</ele><time>2026-04-24T11:08:28Z</time></trkpt><trkpt lat="41.94499227731183" lon="13.29885753935725"><ele>1489.0</ele><time>2026-04-24T11:08:30Z</time></trkpt><trkpt lat="41.94506443787904" lon="13.298847069824951"><ele>1488.4</ele><time>2026-04-24T11:08:32Z</time></trkpt><trkpt lat="41.94514902822772" lon="13.298823484624723"><ele>1487.8000000000002</ele><time>2026-04-24T11:08:34Z</time></trkpt><trkpt lat="41.945257079977985" lon="13.298792945018745"><ele>1487.1999999999998</ele><time>2026-04-24T11:08:36Z</time></trkpt><trkpt lat="41.94535137957429" lon="13.298779604386477"><ele>1486.6</ele><time>2026-04-24T11:08:38Z</time></trkpt><trkpt lat="41.94545643076684" lon="13.298793617941037"><ele>1486.0</ele><time>2026-04-24T11:08:40Z</time></trkpt><trkpt lat="41.945563928400226" lon="13.29884694023355"><ele>1486.0</ele><time>2026-04-24T11:08:42Z</time></trkpt><trkpt lat="41.945680447408485" lon="13.298886780781691"><ele>1486.0</ele><time>2026-04-24T11:08:44Z</time></trkpt><trkpt lat="41.94577602745369" lon="13.298901678885109"><ele>1486.0</ele><time>2026-04-24T11:08:46Z</time></trkpt><trkpt lat="41.94586123141018" lon="13.298911857345123"><ele>1486.0</ele><time>2026-04-24T11:08:48Z</time></trkpt><trkpt lat="41.9459567803136" lon="13.298893427601278"><ele>1486.0</ele><time>2026-04-24T11:08:50Z</time></trkpt><trkpt lat="41.946046309971926" lon="13.29886967942098"><ele>1484.4</ele><time>2026-04-24T11:08:52Z</time></trkpt><trkpt lat="41.94615527984982" lon="13.298853088104375"><ele>1482.8</ele><time>2026-04-24T11:08:53.999Z</time></trkpt><trkpt lat="41.946254672032495" lon="13.298882748991595"><ele>1481.2</ele><time>2026-04-24T11:08:55.999Z</time></trkpt><trkpt lat="41.94633391755608" lon="13.29890787004596"><ele>1479.6000000000001</ele><time>2026-04-24T11:08:57.999Z</time></trkpt><trkpt lat="41.946418378192156" lon="13.298930553742101"><ele>1478.0</ele><time>2026-04-24T11:08:59.999Z</time></trkpt><trkpt lat="41.94649977765877" lon="13.298946492097436"><ele>1477.1666666666667</ele><time>2026-04-24T11:09:01.999Z</time></trkpt><trkpt lat="41.946566041649135" lon="13.298933201744504"><ele>1476.3333333333335</ele><time>2026-04-24T11:09:03.999Z</time></trkpt><trkpt lat="41.94663914592255" lon="13.298997253794807"><ele>1475.5</ele><time>2026-04-24T11:09:06.999Z</time></trkpt><trkpt lat="41.946702770046535" lon="13.299075131564564"><ele>1474.6666666666667</ele><time>2026-04-24T11:09:09.999Z</time></trkpt><trkpt lat="41.946762095969675" lon="13.299151412849316"><ele>1473.8333333333333</ele><time>2026-04-24T11:09:11.999Z</time></trkpt><trkpt lat="41.946848741395684" lon="13.299208725166661"><ele>1473.0</ele><time>2026-04-24T11:09:13.999Z</time></trkpt><trkpt lat="41.94693507389452" lon="13.299247213982378"><ele>1473.0</ele><time>2026-04-24T11:09:15.999Z</time></trkpt><trkpt lat="41.94700590312718" lon="13.29928233922209"><ele>1473.0</ele><time>2026-04-24T11:09:17.999Z</time></trkpt><trkpt lat="41.947069840066256" lon="13.29930947427148"><ele>1473.0</ele><time>2026-04-24T11:09:19.999Z</time></trkpt><trkpt lat="41.94714761101438" lon="13.299337529504681"><ele>1473.0</ele><time>2026-04-24T11:09:22.999Z</time></trkpt><trkpt lat="41.94723247810539" lon="13.299343083426495"><ele>1473.0</ele><time>2026-04-24T11:09:25.999Z</time></trkpt><trkpt lat="41.94733491182352" lon="13.299298337633465"><ele>1473.0</ele><time>2026-04-24T11:09:27.999Z</time></trkpt><trkpt lat="41.947396431991294" lon="13.299270756863"><ele>1473.0</ele><time>2026-04-24T11:09:29.999Z</time></trkpt><trkpt lat="41.94745245473568" lon="13.299195365220585"><ele>1473.0</ele><time>2026-04-24T11:09:31.999Z</time></trkpt><trkpt lat="41.947505819232944" lon="13.29908104083099"><ele>1473.0</ele><time>2026-04-24T11:09:33.999Z</time></trkpt><trkpt lat="41.947524770171555" lon="13.298968166852664"><ele>1473.0</ele><time>2026-04-24T11:09:35.999Z</time></trkpt><trkpt lat="41.94748636605345" lon="13.29885620621649"><ele>1473.0</ele><time>2026-04-24T11:09:37.999Z</time></trkpt><trkpt lat="41.94743874960608" lon="13.298745875265373"><ele>1473.1666666666667</ele><time>2026-04-24T11:09:39.999Z</time></trkpt><trkpt lat="41.947405185056844" lon="13.298654780986157"><ele>1473.3333333333333</ele><time>2026-04-24T11:09:41.999Z</time></trkpt><trkpt lat="41.947387031225446" lon="13.298538985865136"><ele>1473.5</ele><time>2026-04-24T11:09:44.999Z</time></trkpt><trkpt lat="41.94737648332313" lon="13.29844911540344"><ele>1473.6666666666665</ele><time>2026-04-24T11:09:46.999Z</time></trkpt><trkpt lat="41.94736909437317" lon="13.298364070668512"><ele>1473.8333333333333</ele><time>2026-04-24T11:09:48.999Z</time></trkpt><trkpt lat="41.947371600151605" lon="13.298240648893081"><ele>1474.0</ele><time>2026-04-24T11:09:51.999Z</time></trkpt><trkpt lat="41.94742757805852" lon="13.298104373354795"><ele>1473.5714285714287</ele><time>2026-04-24T11:09:53.999Z</time></trkpt><trkpt lat="41.94746232475242" lon="13.298032207066157"><ele>1473.142857142857</ele><time>2026-04-24T11:09:54.999Z</time></trkpt><trkpt lat="41.94749480586412" lon="13.297942643582429"><ele>1472.7142857142858</ele><time>2026-04-24T11:09:55.999Z</time></trkpt><trkpt lat="41.947532731050536" lon="13.29785393172771"><ele>1472.2857142857142</ele><time>2026-04-24T11:09:56.999Z</time></trkpt><trkpt lat="41.9475663926298" lon="13.297762734169037"><ele>1471.857142857143</ele><time>2026-04-24T11:09:57.999Z</time></trkpt><trkpt lat="41.94761920553987" lon="13.297680798460139"><ele>1471.4285714285716</ele><time>2026-04-24T11:09:58.999Z</time></trkpt><trkpt lat="41.94766279064568" lon="13.29761298725703"><ele>1471.0</ele><time>2026-04-24T11:09:59.999Z</time></trkpt><trkpt lat="41.94770365601591" lon="13.297544895200359"><ele>1470.4</ele><time>2026-04-24T11:10:00.999Z</time></trkpt><trkpt lat="41.94777876247431" lon="13.297436976086162"><ele>1469.8</ele><time>2026-04-24T11:10:02.999Z</time></trkpt><trkpt lat="41.94788070505454" lon="13.297355921655912"><ele>1469.2</ele><time>2026-04-24T11:10:04.999Z</time></trkpt><trkpt lat="41.947974610600355" lon="13.297275733288465"><ele>1468.6000000000001</ele><time>2026-04-24T11:10:06.999Z</time></trkpt><trkpt lat="41.94805514385595" lon="13.297208842974609"><ele>1468.0</ele><time>2026-04-24T11:10:08.999Z</time></trkpt><trkpt lat="41.94812389829729" lon="13.297144078021292"><ele>1467.2</ele><time>2026-04-24T11:10:10.999Z</time></trkpt><trkpt lat="41.94821912635538" lon="13.297066690382149"><ele>1466.4</ele><time>2026-04-24T11:10:12.999Z</time></trkpt><trkpt lat="41.94831254407732" lon="13.297019131827287"><ele>1465.6000000000001</ele><time>2026-04-24T11:10:14.999Z</time></trkpt><trkpt lat="41.94840551768586" lon="13.297002796587778"><ele>1464.8000000000002</ele><time>2026-04-24T11:10:16.999Z</time></trkpt><trkpt lat="41.94848240849724" lon="13.296999188122705"><ele>1464.0</ele><time>2026-04-24T11:10:18.999Z</time></trkpt><trkpt lat="41.94857187247217" lon="13.296976241700454"><ele>1464.0</ele><time>2026-04-24T11:10:20.999Z</time></trkpt><trkpt lat="41.94865955468131" lon="13.296918006631207"><ele>1464.0</ele><time>2026-04-24T11:10:22.999Z</time></trkpt><trkpt lat="41.94875069600974" lon="13.296865829496905"><ele>1464.0</ele><time>2026-04-24T11:10:24.999Z</time></trkpt><trkpt lat="41.948838122929885" lon="13.296815474803763"><ele>1464.0</ele><time>2026-04-24T11:10:27Z</time></trkpt><trkpt lat="41.948930439553706" lon="13.29675584481513"><ele>1464.0</ele><time>2026-04-24T11:10:29Z</time></trkpt><trkpt lat="41.94901316950141" lon="13.296685563566378"><ele>1464.0</ele><time>2026-04-24T11:10:31Z</time></trkpt><trkpt lat="41.94906470307485" lon="13.296611776716189"><ele>1464.0</ele><time>2026-04-24T11:10:33Z</time></trkpt><trkpt lat="41.94906205506083" lon="13.296486591227968"><ele>1464.0</ele><time>2026-04-24T11:10:36Z</time></trkpt><trkpt lat="41.94900990535167" lon="13.296373675662961"><ele>1464.0</ele><time>2026-04-24T11:10:38Z</time></trkpt><trkpt lat="41.94895168444758" lon="13.29626534500804"><ele>1464.0</ele><time>2026-04-24T11:10:40Z</time></trkpt><trkpt lat="41.94889901015583" lon="13.296151373325626"><ele>1466.0</ele><time>2026-04-24T11:10:42Z</time></trkpt><trkpt lat="41.94884053096941" lon="13.296046881114258"><ele>1468.0</ele><time>2026-04-24T11:10:44Z</time></trkpt><trkpt lat="41.94875852031596" lon="13.295940376194045"><ele>1470.0</ele><time>2026-04-24T11:10:46Z</time></trkpt><trkpt lat="41.94871930556125" lon="13.29583579211267"><ele>1472.0</ele><time>2026-04-24T11:10:48Z</time></trkpt><trkpt lat="41.94873486774342" lon="13.295743116951083"><ele>1474.0</ele><time>2026-04-24T11:10:49.999Z</time></trkpt><trkpt lat="41.948717681179716" lon="13.295608966785503"><ele>1474.5</ele><time>2026-04-24T11:10:51.999Z</time></trkpt><trkpt lat="41.94871382493227" lon="13.295483722765693"><ele>1475.0</ele><time>2026-04-24T11:10:53.999Z</time></trkpt><trkpt lat="41.9486932217527" lon="13.295381964331492"><ele>1475.5</ele><time>2026-04-24T11:10:55.999Z</time></trkpt><trkpt lat="41.94866702794481" lon="13.295269390114452"><ele>1476.0</ele><time>2026-04-24T11:10:57.999Z</time></trkpt><trkpt lat="41.948667976815344" lon="13.295178180204633"><ele>1476.5</ele><time>2026-04-24T11:12:06.999Z</time></trkpt><trkpt lat="41.94863754076481" lon="13.295088237253296"><ele>1477.0</ele><time>2026-04-24T11:12:09.999Z</time></trkpt><trkpt lat="41.94862887686115" lon="13.29499560896486"><ele>1477.0</ele><time>2026-04-24T11:12:12.999Z</time></trkpt><trkpt lat="41.94864141963385" lon="13.29489504232784"><ele>1477.0</ele><time>2026-04-24T11:12:15.999Z</time></trkpt><trkpt lat="41.94866159100365" lon="13.294781292438223"><ele>1477.0</ele><time>2026-04-24T11:12:18.999Z</time></trkpt><trkpt lat="41.94868621264879" lon="13.294682496456693"><ele>1477.0</ele><time>2026-04-24T11:12:21.999Z</time></trkpt><trkpt lat="41.948713733077284" lon="13.294595221031141"><ele>1477.0</ele><time>2026-04-24T11:12:24.999Z</time></trkpt><trkpt lat="41.948723504935415" lon="13.294496552188713"><ele>1477.0</ele><time>2026-04-24T11:12:27.998Z</time></trkpt><trkpt lat="41.94872998229384" lon="13.2943944012562"><ele>1475.3333333333333</ele><time>2026-04-24T11:12:31Z</time></trkpt><trkpt lat="41.948778226981126" lon="13.294295072787683"><ele>1473.6666666666665</ele><time>2026-04-24T11:12:34Z</time></trkpt><trkpt lat="41.948805532601035" lon="13.294183916059104"><ele>1472.0</ele><time>2026-04-24T11:12:38Z</time></trkpt><trkpt lat="41.94884789871256" lon="13.294120132414418"><ele>1470.3333333333333</ele><time>2026-04-24T11:12:44Z</time></trkpt><trkpt lat="41.94889101690821" lon="13.294052451462289"><ele>1468.6666666666667</ele><time>2026-04-24T11:12:51Z</time></trkpt><trkpt lat="41.948940360525604" lon="13.293971937008827"><ele>1467.0</ele><time>2026-04-24T11:12:56Z</time></trkpt><trkpt lat="41.94897856142352" lon="13.293891584433347"><ele>1466.7142857142858</ele><time>2026-04-24T11:12:58Z</time></trkpt><trkpt lat="41.94901736876423" lon="13.293820260386527"><ele>1466.4285714285716</ele><time>2026-04-24T11:13:00Z</time></trkpt><trkpt lat="41.94904651517613" lon="13.293742503060558"><ele>1466.1428571428573</ele><time>2026-04-24T11:13:02Z</time></trkpt><trkpt lat="41.94907720484558" lon="13.293641042639573"><ele>1465.857142857143</ele><time>2026-04-24T11:13:05Z</time></trkpt><trkpt lat="41.94909179357035" lon="13.293546473466888"><ele>1465.5714285714284</ele><time>2026-04-24T11:13:08Z</time></trkpt><trkpt lat="41.949151272105496" lon="13.293466982655827"><ele>1465.2857142857144</ele><time>2026-04-24T11:13:11Z</time></trkpt><trkpt lat="41.94920098881368" lon="13.293411520970752"><ele>1465.0</ele><time>2026-04-24T11:13:13Z</time></trkpt><trkpt lat="41.94928317662156" lon="13.293312735378517"><ele>1465.0</ele><time>2026-04-24T11:13:16Z</time></trkpt><trkpt lat="41.94933710691701" lon="13.29323407165345"><ele>1465.0</ele><time>2026-04-24T11:13:19Z</time></trkpt><trkpt lat="41.949389370648994" lon="13.293138753590119"><ele>1465.0</ele><time>2026-04-24T11:13:21Z</time></trkpt><trkpt lat="41.94943806067928" lon="13.293081930429734"><ele>1465.0</ele><time>2026-04-24T11:13:23Z</time></trkpt><trkpt lat="41.9494812097215" lon="13.293020282928259"><ele>1465.0</ele><time>2026-04-24T11:13:25Z</time></trkpt><trkpt lat="41.9495473186601" lon="13.29291789855394"><ele>1465.0</ele><time>2026-04-24T11:13:27Z</time></trkpt><trkpt lat="41.94959758323796" lon="13.292853960924802"><ele>1462.5</ele><time>2026-04-24T11:13:29Z</time></trkpt><trkpt lat="41.94965533173524" lon="13.29274488005299"><ele>1460.0</ele><time>2026-04-24T11:13:32Z</time></trkpt><trkpt lat="41.94970326193639" lon="13.292640988266244"><ele>1457.5</ele><time>2026-04-24T11:13:34Z</time></trkpt><trkpt lat="41.94975084473167" lon="13.292536926320205"><ele>1455.0</ele><time>2026-04-24T11:13:36Z</time></trkpt><trkpt lat="41.94979386977854" lon="13.292447834291114"><ele>1452.5</ele><time>2026-04-24T11:13:39Z</time></trkpt><trkpt lat="41.94983584603091" lon="13.29237605871386"><ele>1450.0</ele><time>2026-04-24T11:13:41Z</time></trkpt><trkpt lat="41.94988583811109" lon="13.292296689071364"><ele>1449.0</ele><time>2026-04-24T11:13:43Z</time></trkpt><trkpt lat="41.94995110985862" lon="13.292206318585041"><ele>1448.0</ele><time>2026-04-24T11:13:45Z</time></trkpt><trkpt lat="41.949981474688" lon="13.29212461512778"><ele>1447.0</ele><time>2026-04-24T11:13:47Z</time></trkpt><trkpt lat="41.9500375780965" lon="13.29203055155838"><ele>1446.0</ele><time>2026-04-24T11:13:49Z</time></trkpt><trkpt lat="41.95009352247281" lon="13.291923530480123"><ele>1445.0</ele><time>2026-04-24T11:13:52Z</time></trkpt><trkpt lat="41.950107464156495" lon="13.291812779250685"><ele>1444.0</ele><time>2026-04-24T11:13:54Z</time></trkpt><trkpt lat="41.95011580685637" lon="13.291693547884583"><ele>1444.8333333333333</ele><time>2026-04-24T11:13:56Z</time></trkpt><trkpt lat="41.95014674492837" lon="13.291583942577248"><ele>1445.6666666666665</ele><time>2026-04-24T11:13:58Z</time></trkpt><trkpt lat="41.95016773748336" lon="13.291477609312945"><ele>1446.5</ele><time>2026-04-24T11:14:00Z</time></trkpt><trkpt lat="41.9501874901834" lon="13.291375694648147"><ele>1447.3333333333333</ele><time>2026-04-24T11:14:02Z</time></trkpt><trkpt lat="41.95021423656272" lon="13.291295908911959"><ele>1448.1666666666667</ele><time>2026-04-24T11:14:04Z</time></trkpt><trkpt lat="41.95023807857046" lon="13.291200159942672"><ele>1449.0</ele><time>2026-04-24T11:14:06Z</time></trkpt><trkpt lat="41.95025935603677" lon="13.291094103044715"><ele>1449.0</ele><time>2026-04-24T11:14:08Z</time></trkpt><trkpt lat="41.9502776623234" lon="13.290992550751323"><ele>1449.0</ele><time>2026-04-24T11:14:10Z</time></trkpt><trkpt lat="41.95027052654694" lon="13.290892399068387"><ele>1449.0</ele><time>2026-04-24T11:14:13Z</time></trkpt><trkpt lat="41.950239063933246" lon="13.290780024898398"><ele>1449.0</ele><time>2026-04-24T11:14:16Z</time></trkpt><trkpt lat="41.95019968363955" lon="13.29067730761334"><ele>1449.0</ele><time>2026-04-24T11:14:19Z</time></trkpt><trkpt lat="41.950153759617635" lon="13.290602532055617"><ele>1449.0</ele><time>2026-04-24T11:14:22Z</time></trkpt><trkpt lat="41.950102123363976" lon="13.290484731432182"><ele>1446.8000000000002</ele><time>2026-04-24T11:14:25Z</time></trkpt><trkpt lat="41.95003192961659" lon="13.290367650339594"><ele>1444.6000000000001</ele><time>2026-04-24T11:14:27Z</time></trkpt><trkpt lat="41.94998422603094" lon="13.290260802611959"><ele>1442.4</ele><time>2026-04-24T11:14:29Z</time></trkpt><trkpt lat="41.9499569341277" lon="13.290120456219828"><ele>1440.2</ele><time>2026-04-24T11:14:31Z</time></trkpt><trkpt lat="41.949928054669066" lon="13.289991288653543"><ele>1438.0</ele><time>2026-04-24T11:14:33Z</time></trkpt><trkpt lat="41.94990150513637" lon="13.289907993188134"><ele>1438.0</ele><time>2026-04-24T11:14:33.999Z</time></trkpt><trkpt lat="41.94988307259512" lon="13.28979777011341"><ele>1438.0</ele><time>2026-04-24T11:14:36.001Z</time></trkpt><trkpt lat="41.94987535875123" lon="13.289700959822984"><ele>1438.0</ele><time>2026-04-24T11:14:38.001Z</time></trkpt><trkpt lat="41.94988503602057" lon="13.289591009394659"><ele>1438.0</ele><time>2026-04-24T11:14:40.001Z</time></trkpt><trkpt lat="41.9499210837169" lon="13.289463373802398"><ele>1438.0</ele><time>2026-04-24T11:14:42.001Z</time></trkpt><trkpt lat="41.94996705585987" lon="13.289342559766864"><ele>1438.0</ele><time>2026-04-24T11:14:44Z</time></trkpt><trkpt lat="41.94999480434012" lon="13.289233645443604"><ele>1437.0</ele><time>2026-04-24T11:14:46Z</time></trkpt><trkpt lat="41.95001504362129" lon="13.289095570183909"><ele>1436.0</ele><time>2026-04-24T11:14:48Z</time></trkpt><trkpt lat="41.95002442147" lon="13.288934143477313"><ele>1435.0</ele><time>2026-04-24T11:14:50Z</time></trkpt><trkpt lat="41.950044273384194" lon="13.28881047915211"><ele>1434.0</ele><time>2026-04-24T11:14:52Z</time></trkpt><trkpt lat="41.95004829536742" lon="13.288703303294124"><ele>1433.0</ele><time>2026-04-24T11:14:54Z</time></trkpt><trkpt lat="41.9500296085823" lon="13.288594032686328"><ele>1432.4</ele><time>2026-04-24T11:14:56Z</time></trkpt><trkpt lat="41.950027239995194" lon="13.288501515405766"><ele>1431.8000000000002</ele><time>2026-04-24T11:14:58Z</time></trkpt><trkpt lat="41.950048758405465" lon="13.288349745944991"><ele>1431.2</ele><time>2026-04-24T11:15:00Z</time></trkpt><trkpt lat="41.95006041979" lon="13.288221120086636"><ele>1430.6</ele><time>2026-04-24T11:15:02Z</time></trkpt><trkpt lat="41.95007751268565" lon="13.288088745359856"><ele>1430.0</ele><time>2026-04-24T11:15:04Z</time></trkpt><trkpt lat="41.950110263607016" lon="13.287945706691815"><ele>1431.3333333333335</ele><time>2026-04-24T11:15:06Z</time></trkpt><trkpt lat="41.95014857003494" lon="13.28786015331868"><ele>1432.6666666666667</ele><time>2026-04-24T11:15:07Z</time></trkpt><trkpt lat="41.950185166634625" lon="13.287713922805418"><ele>1434.0</ele><time>2026-04-24T11:15:09Z</time></trkpt><trkpt lat="41.95022307446001" lon="13.287636873919801"><ele>1435.3333333333333</ele><time>2026-04-24T11:15:11Z</time></trkpt><trkpt lat="41.950261523043544" lon="13.28753252209566"><ele>1436.6666666666665</ele><time>2026-04-24T11:15:13Z</time></trkpt><trkpt lat="41.95029504096007" lon="13.287427844355511"><ele>1438.0</ele><time>2026-04-24T11:15:15Z</time></trkpt><trkpt lat="41.95033720745516" lon="13.287334519973793"><ele>1435.5</ele><time>2026-04-24T11:15:17Z</time></trkpt><trkpt lat="41.95038346997418" lon="13.287259750767962"><ele>1433.0</ele><time>2026-04-24T11:15:19Z</time></trkpt><trkpt lat="41.9504357240403" lon="13.287184957874453"><ele>1430.5</ele><time>2026-04-24T11:15:21Z</time></trkpt><trkpt lat="41.950467422453514" lon="13.287108557548164"><ele>1428.0</ele><time>2026-04-24T11:15:23Z</time></trkpt><trkpt lat="41.95052702016412" lon="13.28703013931503"><ele>1425.5</ele><time>2026-04-24T11:15:25Z</time></trkpt><trkpt lat="41.950575641988415" lon="13.286943427181308"><ele>1423.0</ele><time>2026-04-24T11:15:27Z</time></trkpt><trkpt lat="41.950624040536745" lon="13.286847239006738"><ele>1423.0</ele><time>2026-04-24T11:15:29Z</time></trkpt><trkpt lat="41.95067475385982" lon="13.286744194790026"><ele>1423.0</ele><time>2026-04-24T11:15:31Z</time></trkpt><trkpt lat="41.950704042343546" lon="13.286654276651504"><ele>1423.0</ele><time>2026-04-24T11:15:33Z</time></trkpt><trkpt lat="41.9507364157826" lon="13.286558224836938"><ele>1423.0</ele><time>2026-04-24T11:15:35Z</time></trkpt><trkpt lat="41.95078378475688" lon="13.28644223001517"><ele>1423.0</ele><time>2026-04-24T11:15:37Z</time></trkpt><trkpt lat="41.95084343933188" lon="13.286345232802606"><ele>1423.0</ele><time>2026-04-24T11:15:39Z</time></trkpt><trkpt lat="41.950898717423684" lon="13.286287566970069"><ele>1421.6000000000001</ele><time>2026-04-24T11:15:41Z</time></trkpt><trkpt lat="41.950962720414644" lon="13.286222370287653"><ele>1420.2</ele><time>2026-04-24T11:15:43Z</time></trkpt><trkpt lat="41.95103107347604" lon="13.28613743253998"><ele>1418.8</ele><time>2026-04-24T11:15:45Z</time></trkpt><trkpt lat="41.951128232941514" lon="13.2860298430579"><ele>1417.4</ele><time>2026-04-24T11:15:47Z</time></trkpt><trkpt lat="41.95120346626115" lon="13.285931727263124"><ele>1416.0</ele><time>2026-04-24T11:15:49Z</time></trkpt><trkpt lat="41.951246946452116" lon="13.285861852492769"><ele>1416.0</ele><time>2026-04-24T11:15:50Z</time></trkpt><trkpt lat="41.95131438848352" lon="13.28573521619991"><ele>1416.0</ele><time>2026-04-24T11:15:52Z</time></trkpt><trkpt lat="41.95136920168703" lon="13.285621096802275"><ele>1416.0</ele><time>2026-04-24T11:15:54Z</time></trkpt><trkpt lat="41.95140322260866" lon="13.285486690420658"><ele>1416.0</ele><time>2026-04-24T11:15:56Z</time></trkpt><trkpt lat="41.95142676734736" lon="13.285400169861099"><ele>1416.0</ele><time>2026-04-24T11:15:57Z</time></trkpt><trkpt lat="41.951460057544246" lon="13.285318378626107"><ele>1416.1999999999998</ele><time>2026-04-24T11:15:58Z</time></trkpt><trkpt lat="41.95152467985894" lon="13.285188944313736"><ele>1416.3999999999999</ele><time>2026-04-24T11:16:00Z</time></trkpt><trkpt lat="41.95159496295148" lon="13.285095410516346"><ele>1416.6</ele><time>2026-04-24T11:16:02Z</time></trkpt><trkpt lat="41.951669595514986" lon="13.285002898962295"><ele>1416.8</ele><time>2026-04-24T11:16:04Z</time></trkpt><trkpt lat="41.95172691014785" lon="13.28492067683799"><ele>1417.0</ele><time>2026-04-24T11:16:06Z</time></trkpt><trkpt lat="41.95179567739926" lon="13.284797065370684"><ele>1413.0</ele><time>2026-04-24T11:16:08Z</time></trkpt><trkpt lat="41.95189146242347" lon="13.284691631795042"><ele>1409.0</ele><time>2026-04-24T11:16:10Z</time></trkpt><trkpt lat="41.95197661055372" lon="13.284589041987124"><ele>1405.0</ele><time>2026-04-24T11:16:12Z</time></trkpt><trkpt lat="41.952062620180634" lon="13.284488524190847"><ele>1401.0</ele><time>2026-04-24T11:16:14Z</time></trkpt><trkpt lat="41.952147434283276" lon="13.284378913130922"><ele>1401.0</ele><time>2026-04-24T11:16:16Z</time></trkpt><trkpt lat="41.95224046879393" lon="13.284305542767765"><ele>1401.0</ele><time>2026-04-24T11:16:18Z</time></trkpt><trkpt lat="41.95234888437672" lon="13.284218858513784"><ele>1401.0</ele><time>2026-04-24T11:16:20Z</time></trkpt><trkpt lat="41.952407610645324" lon="13.28418205367321"><ele>1401.0</ele><time>2026-04-24T11:16:21Z</time></trkpt><trkpt lat="41.95250930064338" lon="13.284099918728"><ele>1401.0</ele><time>2026-04-24T11:16:23Z</time></trkpt><trkpt lat="41.95260997113918" lon="13.283991668784244"><ele>1400.5714285714287</ele><time>2026-04-24T11:16:25Z</time></trkpt><trkpt lat="41.952661402207" lon="13.283929045315018"><ele>1400.142857142857</ele><time>2026-04-24T11:16:26Z</time></trkpt><trkpt lat="41.952713813758464" lon="13.283861991773383"><ele>1399.7142857142858</ele><time>2026-04-24T11:16:27Z</time></trkpt><trkpt lat="41.95276091100206" lon="13.283800109198705"><ele>1399.2857142857142</ele><time>2026-04-24T11:16:28Z</time></trkpt><trkpt lat="41.95281020187132" lon="13.283735111771003"><ele>1398.857142857143</ele><time>2026-04-24T11:16:29Z</time></trkpt><trkpt lat="41.9528607932094" lon="13.283676084455635"><ele>1398.4285714285713</ele><time>2026-04-24T11:16:30Z</time></trkpt><trkpt lat="41.95291138437645" lon="13.283610197352514"><ele>1398.0</ele><time>2026-04-24T11:16:31Z</time></trkpt><trkpt lat="41.95297258048429" lon="13.283541576291961"><ele>1398.0</ele><time>2026-04-24T11:16:32Z</time></trkpt><trkpt lat="41.95303838764369" lon="13.283475267338305"><ele>1398.0</ele><time>2026-04-24T11:16:32.999Z</time></trkpt><trkpt lat="41.9531050428547" lon="13.283417543087566"><ele>1398.0</ele><time>2026-04-24T11:16:33.999Z</time></trkpt><trkpt lat="41.95317417580701" lon="13.283356559440051"><ele>1398.0</ele><time>2026-04-24T11:16:34.999Z</time></trkpt><trkpt lat="41.953237558787194" lon="13.283303011383756"><ele>1398.0</ele><time>2026-04-24T11:16:35.999Z</time></trkpt><trkpt lat="41.95330827204841" lon="13.283264686360363"><ele>1398.0</ele><time>2026-04-24T11:16:36.999Z</time></trkpt><trkpt lat="41.95337898224871" lon="13.283203507004712"><ele>1398.0</ele><time>2026-04-24T11:16:37.999Z</time></trkpt><trkpt lat="41.95344630601196" lon="13.283155527746628"><ele>1398.0</ele><time>2026-04-24T11:16:38.999Z</time></trkpt><trkpt lat="41.95352274687004" lon="13.283099475385539"><ele>1398.0</ele><time>2026-04-24T11:16:39.999Z</time></trkpt><trkpt lat="41.953589029885435" lon="13.283050322237376"><ele>1398.0</ele><time>2026-04-24T11:16:40.999Z</time></trkpt><trkpt lat="41.953653392286526" lon="13.283001501936816"><ele>1398.0</ele><time>2026-04-24T11:16:42Z</time></trkpt><trkpt lat="41.953722136307356" lon="13.282957418562471"><ele>1398.0</ele><time>2026-04-24T11:16:43Z</time></trkpt><trkpt lat="41.95379206409574" lon="13.282927508813398"><ele>1398.0</ele><time>2026-04-24T11:16:44Z</time></trkpt><trkpt lat="41.95391111899414" lon="13.282894131261443"><ele>1398.0</ele><time>2026-04-24T11:16:46Z</time></trkpt><trkpt lat="41.9539741724429" lon="13.282893041617168"><ele>1398.0</ele><time>2026-04-24T11:16:47Z</time></trkpt><trkpt lat="41.95404891959221" lon="13.282911187864231"><ele>1398.0</ele><time>2026-04-24T11:16:48Z</time></trkpt><trkpt lat="41.954126635515905" lon="13.282911788630827"><ele>1398.0</ele><time>2026-04-24T11:16:49Z</time></trkpt><trkpt lat="41.95420170036247" lon="13.282909806679283"><ele>1398.0</ele><time>2026-04-24T11:16:50Z</time></trkpt><trkpt lat="41.95429182732775" lon="13.282908621694753"><ele>1396.7142857142856</ele><time>2026-04-24T11:16:51Z</time></trkpt><trkpt lat="41.95437224246825" lon="13.282892098190468"><ele>1395.4285714285716</ele><time>2026-04-24T11:16:52Z</time></trkpt><trkpt lat="41.95443534314262" lon="13.282884612220773"><ele>1394.142857142857</ele><time>2026-04-24T11:16:53Z</time></trkpt><trkpt lat="41.954504670846276" lon="13.282859372520807"><ele>1392.8571428571427</ele><time>2026-04-24T11:16:54Z</time></trkpt><trkpt lat="41.95457375499428" lon="13.282819777548923"><ele>1391.5714285714284</ele><time>2026-04-24T11:16:55Z</time></trkpt><trkpt lat="41.95464177937007" lon="13.282778069194281"><ele>1390.2857142857142</ele><time>2026-04-24T11:16:56Z</time></trkpt><trkpt lat="41.954714908228155" lon="13.282739682995482"><ele>1389.0</ele><time>2026-04-24T11:16:57Z</time></trkpt><trkpt lat="41.954782972909335" lon="13.282698848644612"><ele>1389.0</ele><time>2026-04-24T11:16:58Z</time></trkpt><trkpt lat="41.95485017792772" lon="13.282663269860928"><ele>1389.0</ele><time>2026-04-24T11:16:59Z</time></trkpt><trkpt lat="41.95496046502672" lon="13.28257885145155"><ele>1389.0</ele><time>2026-04-24T11:17:01Z</time></trkpt><trkpt lat="41.95501633619329" lon="13.282520535383444"><ele>1389.0</ele><time>2026-04-24T11:17:02Z</time></trkpt><trkpt lat="41.95511752880418" lon="13.282382182718205"><ele>1389.0</ele><time>2026-04-24T11:17:04Z</time></trkpt><trkpt lat="41.95517467167359" lon="13.28227435741309"><ele>1388.75</ele><time>2026-04-24T11:17:05Z</time></trkpt><trkpt lat="41.955250077166156" lon="13.28215250912736"><ele>1388.5</ele><time>2026-04-24T11:17:06Z</time></trkpt><trkpt lat="41.95532537221358" lon="13.28200774391355"><ele>1388.25</ele><time>2026-04-24T11:17:07Z</time></trkpt><trkpt lat="41.95540838976354" lon="13.281871631960232"><ele>1388.0</ele><time>2026-04-24T11:17:08Z</time></trkpt><trkpt lat="41.955471410876" lon="13.281755221713887"><ele>1388.0</ele><time>2026-04-24T11:17:09Z</time></trkpt><trkpt lat="41.95552902618791" lon="13.281653973631272"><ele>1388.0</ele><time>2026-04-24T11:17:10Z</time></trkpt><trkpt lat="41.95558830107248" lon="13.281568220576188"><ele>1388.0</ele><time>2026-04-24T11:17:11Z</time></trkpt><trkpt lat="41.95565933401962" lon="13.281480932471517"><ele>1388.0</ele><time>2026-04-24T11:17:12Z</time></trkpt><trkpt lat="41.95574922142165" lon="13.281390240000677"><ele>1388.0</ele><time>2026-04-24T11:17:13Z</time></trkpt><trkpt lat="41.95584021751177" lon="13.281314189600842"><ele>1388.0</ele><time>2026-04-24T11:17:14Z</time></trkpt><trkpt lat="41.95592877425023" lon="13.281236505810815"><ele>1388.0</ele><time>2026-04-24T11:17:15Z</time></trkpt><trkpt lat="41.95599607980594" lon="13.281152062514073"><ele>1388.0</ele><time>2026-04-24T11:17:16Z</time></trkpt><trkpt lat="41.95605372034207" lon="13.281066991413285"><ele>1388.0</ele><time>2026-04-24T11:17:17Z</time></trkpt><trkpt lat="41.956108121918966" lon="13.280965536372664"><ele>1388.0</ele><time>2026-04-24T11:17:18Z</time></trkpt><trkpt lat="41.95615119020209" lon="13.280864580069174"><ele>1388.0</ele><time>2026-04-24T11:17:19Z</time></trkpt><trkpt lat="41.956184931520916" lon="13.280765521151643"><ele>1388.0</ele><time>2026-04-24T11:17:20Z</time></trkpt><trkpt lat="41.95620616500971" lon="13.280674249204838"><ele>1388.0</ele><time>2026-04-24T11:17:21Z</time></trkpt><trkpt lat="41.95622598779614" lon="13.280577436180383"><ele>1388.0</ele><time>2026-04-24T11:17:22Z</time></trkpt><trkpt lat="41.9562373384714" lon="13.280472148605229"><ele>1388.0</ele><time>2026-04-24T11:17:23Z</time></trkpt><trkpt lat="41.95626750364293" lon="13.280380097269324"><ele>1388.0</ele><time>2026-04-24T11:17:24Z</time></trkpt><trkpt lat="41.95630206079029" lon="13.280260829777193"><ele>1387.0</ele><time>2026-04-24T11:17:25Z</time></trkpt><trkpt lat="41.95635140748491" lon="13.280143206800549"><ele>1386.0</ele><time>2026-04-24T11:17:26Z</time></trkpt><trkpt lat="41.95639752041071" lon="13.28002946925599"><ele>1385.0</ele><time>2026-04-24T11:17:27Z</time></trkpt><trkpt lat="41.95645605257186" lon="13.279896362969875"><ele>1384.0</ele><time>2026-04-24T11:17:28Z</time></trkpt><trkpt lat="41.95650802418455" lon="13.279772339824767"><ele>1383.0</ele><time>2026-04-24T11:17:29Z</time></trkpt><trkpt lat="41.95654944859854" lon="13.279681465574084"><ele>1382.5</ele><time>2026-04-24T11:17:30Z</time></trkpt><trkpt lat="41.956582957772376" lon="13.279575743306287"><ele>1382.0</ele><time>2026-04-24T11:17:31Z</time></trkpt><trkpt lat="41.95660465449131" lon="13.279479437695745"><ele>1381.5</ele><time>2026-04-24T11:17:32Z</time></trkpt><trkpt lat="41.95663504879219" lon="13.279384954991311"><ele>1381.0</ele><time>2026-04-24T11:17:33Z</time></trkpt><trkpt lat="41.95667643879728" lon="13.27930439333787"><ele>1380.5</ele><time>2026-04-24T11:17:34Z</time></trkpt><trkpt lat="41.95672855363705" lon="13.279223378622033"><ele>1380.0</ele><time>2026-04-24T11:17:35Z</time></trkpt><trkpt lat="41.95680236601446" lon="13.279138957110069"><ele>1380.6</ele><time>2026-04-24T11:17:36Z</time></trkpt><trkpt lat="41.95687424493631" lon="13.279062925120682"><ele>1381.2</ele><time>2026-04-24T11:17:37Z</time></trkpt><trkpt lat="41.95695041602551" lon="13.27898590131152"><ele>1381.8000000000002</ele><time>2026-04-24T11:17:38Z</time></trkpt><trkpt lat="41.95701676657191" lon="13.278897256011009"><ele>1382.4</ele><time>2026-04-24T11:17:39Z</time></trkpt><trkpt lat="41.9570638112083" lon="13.278803015768418"><ele>1383.0</ele><time>2026-04-24T11:17:40Z</time></trkpt><trkpt lat="41.95710658503813" lon="13.278699222717721"><ele>1383.0</ele><time>2026-04-24T11:17:41Z</time></trkpt><trkpt lat="41.95712530200371" lon="13.278612386425149"><ele>1383.0</ele><time>2026-04-24T11:17:42Z</time></trkpt><trkpt lat="41.95719214440783" lon="13.278460608874694"><ele>1383.0</ele><time>2026-04-24T11:17:43Z</time></trkpt><trkpt lat="41.95725069895969" lon="13.278331210716612"><ele>1383.0</ele><time>2026-04-24T11:17:44Z</time></trkpt><trkpt lat="41.95730486677436" lon="13.278182896957787"><ele>1383.0</ele><time>2026-04-24T11:17:45Z</time></trkpt><trkpt lat="41.95736289940592" lon="13.278031874781608"><ele>1383.6000000000001</ele><time>2026-04-24T11:17:46Z</time></trkpt><trkpt lat="41.95741792733943" lon="13.277894637347414"><ele>1384.2</ele><time>2026-04-24T11:17:47Z</time></trkpt><trkpt lat="41.957469147410755" lon="13.277758420817857"><ele>1384.8</ele><time>2026-04-24T11:17:48Z</time></trkpt><trkpt lat="41.95751842819173" lon="13.277629917332046"><ele>1385.4</ele><time>2026-04-24T11:17:49Z</time></trkpt><trkpt lat="41.957566115760564" lon="13.27751585915884"><ele>1386.0</ele><time>2026-04-24T11:17:50Z</time></trkpt><trkpt lat="41.95761351129246" lon="13.277395596306244"><ele>1383.1999999999998</ele><time>2026-04-24T11:17:51Z</time></trkpt><trkpt lat="41.95765678594361" lon="13.277267403809219"><ele>1380.3999999999999</ele><time>2026-04-24T11:17:52Z</time></trkpt><trkpt lat="41.957689539015234" lon="13.277126867635387"><ele>1377.6</ele><time>2026-04-24T11:17:53Z</time></trkpt><trkpt lat="41.95771737846656" lon="13.277003906560617"><ele>1374.8</ele><time>2026-04-24T11:17:54Z</time></trkpt><trkpt lat="41.95776252524606" lon="13.276894739693452"><ele>1372.0</ele><time>2026-04-24T11:17:55Z</time></trkpt><trkpt lat="41.957807582995436" lon="13.276797613406538"><ele>1372.0</ele><time>2026-04-24T11:17:56Z</time></trkpt><trkpt lat="41.957851833611606" lon="13.27670820136063"><ele>1372.0</ele><time>2026-04-24T11:17:57Z</time></trkpt><trkpt lat="41.957896018523435" lon="13.276620012700796"><ele>1372.0</ele><time>2026-04-24T11:17:58Z</time></trkpt><trkpt lat="41.95793313911189" lon="13.276538961834365"><ele>1372.0</ele><time>2026-04-24T11:17:59Z</time></trkpt><trkpt lat="41.95797762040434" lon="13.276460960494"><ele>1372.0</ele><time>2026-04-24T11:18:00Z</time></trkpt><trkpt lat="41.9580071475352" lon="13.276383587355182"><ele>1372.0</ele><time>2026-04-24T11:18:01Z</time></trkpt><trkpt lat="41.95805478249453" lon="13.276248101541139"><ele>1373.0</ele><time>2026-04-24T11:18:03Z</time></trkpt><trkpt lat="41.95812158473555" lon="13.276188089680454"><ele>1374.0</ele><time>2026-04-24T11:18:05Z</time></trkpt><trkpt lat="41.95823454828809" lon="13.276173656440346"><ele>1375.0</ele><time>2026-04-24T11:18:07Z</time></trkpt><trkpt lat="41.958326873447255" lon="13.276168095077509"><ele>1376.0</ele><time>2026-04-24T11:18:08Z</time></trkpt><trkpt lat="41.95841328476392" lon="13.276175952168815"><ele>1377.0</ele><time>2026-04-24T11:18:09Z</time></trkpt><trkpt lat="41.95849328518274" lon="13.276189866343943"><ele>1375.0</ele><time>2026-04-24T11:18:10Z</time></trkpt><trkpt lat="41.95857310367138" lon="13.276205164808216"><ele>1373.0</ele><time>2026-04-24T11:18:11Z</time></trkpt><trkpt lat="41.958655169564125" lon="13.276207421384195"><ele>1371.0</ele><time>2026-04-24T11:18:12Z</time></trkpt><trkpt lat="41.95873715788435" lon="13.276197842943736"><ele>1369.0</ele><time>2026-04-24T11:18:13Z</time></trkpt><trkpt lat="41.95881007335466" lon="13.276195321457053"><ele>1367.0</ele><time>2026-04-24T11:18:14Z</time></trkpt><trkpt lat="41.95893288978263" lon="13.276177825898484"><ele>1365.0</ele><time>2026-04-24T11:18:16Z</time></trkpt><trkpt lat="41.95904378271536" lon="13.276098822319621"><ele>1365.0</ele><time>2026-04-24T11:18:18Z</time></trkpt><trkpt lat="41.95908974421321" lon="13.276033056911606"><ele>1365.0</ele><time>2026-04-24T11:18:19Z</time></trkpt><trkpt lat="41.95911877650849" lon="13.275956761719051"><ele>1365.0</ele><time>2026-04-24T11:18:20Z</time></trkpt><trkpt lat="41.95914603825971" lon="13.275871095597184"><ele>1365.0</ele><time>2026-04-24T11:18:21Z</time></trkpt><trkpt lat="41.95916345790957" lon="13.275772957433071"><ele>1365.0</ele><time>2026-04-24T11:18:22Z</time></trkpt><trkpt lat="41.959170387032" lon="13.275656763159398"><ele>1365.0</ele><time>2026-04-24T11:18:23Z</time></trkpt><trkpt lat="41.959160098065766" lon="13.27553020311707"><ele>1365.0</ele><time>2026-04-24T11:18:24Z</time></trkpt><trkpt lat="41.959174692347204" lon="13.27540977541347"><ele>1365.0</ele><time>2026-04-24T11:18:25Z</time></trkpt><trkpt lat="41.95919419232825" lon="13.275305856984602"><ele>1365.0</ele><time>2026-04-24T11:18:26Z</time></trkpt><trkpt lat="41.9592105897463" lon="13.275184640669101"><ele>1365.0</ele><time>2026-04-24T11:18:27Z</time></trkpt><trkpt lat="41.95921551357086" lon="13.275056769641893"><ele>1365.0</ele><time>2026-04-24T11:18:27.999Z</time></trkpt><trkpt lat="41.959213049443946" lon="13.27494370222035"><ele>1365.0</ele><time>2026-04-24T11:18:28.999Z</time></trkpt><trkpt lat="41.95922338504646" lon="13.274847710573788"><ele>1367.0</ele><time>2026-04-24T11:18:29.999Z</time></trkpt><trkpt lat="41.95924788464278" lon="13.274740112760535"><ele>1369.0</ele><time>2026-04-24T11:18:30.999Z</time></trkpt><trkpt lat="41.95928336561542" lon="13.274626645024387"><ele>1371.0</ele><time>2026-04-24T11:18:31.999Z</time></trkpt><trkpt lat="41.95932550109261" lon="13.274511970679708"><ele>1373.0</ele><time>2026-04-24T11:18:32.999Z</time></trkpt><trkpt lat="41.959366779650146" lon="13.274406994326002"><ele>1375.0</ele><time>2026-04-24T11:18:33.999Z</time></trkpt><trkpt lat="41.95941035868275" lon="13.274296842719894"><ele>1375.0</ele><time>2026-04-24T11:18:34.999Z</time></trkpt><trkpt lat="41.959450064020594" lon="13.274199006711177"><ele>1375.0</ele><time>2026-04-24T11:18:35.999Z</time></trkpt><trkpt lat="41.95947508984613" lon="13.274103532012147"><ele>1375.0</ele><time>2026-04-24T11:18:36.999Z</time></trkpt><trkpt lat="41.95951264108176" lon="13.273996564909593"><ele>1375.0</ele><time>2026-04-24T11:18:37.999Z</time></trkpt><trkpt lat="41.95955481933303" lon="13.273863491447477"><ele>1375.0</ele><time>2026-04-24T11:18:38.999Z</time></trkpt><trkpt lat="41.95959155612882" lon="13.273742709188964"><ele>1373.4</ele><time>2026-04-24T11:18:39.999Z</time></trkpt><trkpt lat="41.959634919275665" lon="13.273607538495892"><ele>1371.8</ele><time>2026-04-24T11:18:40.999Z</time></trkpt><trkpt lat="41.95967622694406" lon="13.273485163110069"><ele>1370.1999999999998</ele><time>2026-04-24T11:18:41.999Z</time></trkpt><trkpt lat="41.959726350418485" lon="13.273341851724089"><ele>1368.6</ele><time>2026-04-24T11:18:42.999Z</time></trkpt><trkpt lat="41.95977420132843" lon="13.273195005810111"><ele>1367.0</ele><time>2026-04-24T11:18:43.999Z</time></trkpt><trkpt lat="41.95980859454504" lon="13.273050282948082"><ele>1366.1999999999998</ele><time>2026-04-24T11:18:44.999Z</time></trkpt><trkpt lat="41.959835398650576" lon="13.272913807459151"><ele>1365.4</ele><time>2026-04-24T11:18:45.999Z</time></trkpt><trkpt lat="41.95985831919199" lon="13.272783922963935"><ele>1364.6</ele><time>2026-04-24T11:18:46.999Z</time></trkpt><trkpt lat="41.95988391769581" lon="13.272661443489435"><ele>1363.8000000000002</ele><time>2026-04-24T11:18:48Z</time></trkpt><trkpt lat="41.95991298969696" lon="13.272548275614914"><ele>1363.0</ele><time>2026-04-24T11:18:49Z</time></trkpt><trkpt lat="41.959938895065704" lon="13.272447433822583"><ele>1363.0</ele><time>2026-04-24T11:18:50Z</time></trkpt><trkpt lat="41.959973880536694" lon="13.272347540644162"><ele>1363.0</ele><time>2026-04-24T11:18:51Z</time></trkpt><trkpt lat="41.96002544922338" lon="13.272245717357105"><ele>1363.0</ele><time>2026-04-24T11:18:52Z</time></trkpt><trkpt lat="41.960074031136" lon="13.272147495362901"><ele>1363.0</ele><time>2026-04-24T11:18:53Z</time></trkpt><trkpt lat="41.960142771897864" lon="13.272060093421661"><ele>1363.0</ele><time>2026-04-24T11:18:54Z</time></trkpt><trkpt lat="41.96020277316357" lon="13.272018484154213"><ele>1363.0</ele><time>2026-04-24T11:18:55Z</time></trkpt><trkpt lat="41.9602725639649" lon="13.271949567459258"><ele>1362.6000000000001</ele><time>2026-04-24T11:18:56Z</time></trkpt><trkpt lat="41.96035739277799" lon="13.271907565934733"><ele>1362.2</ele><time>2026-04-24T11:18:57Z</time></trkpt><trkpt lat="41.96043993678847" lon="13.271868801398911"><ele>1361.8</ele><time>2026-04-24T11:18:58Z</time></trkpt><trkpt lat="41.96053562778473" lon="13.271859987888178"><ele>1361.4</ele><time>2026-04-24T11:18:59Z</time></trkpt><trkpt lat="41.960636449189884" lon="13.27186947523515"><ele>1361.0</ele><time>2026-04-24T11:19:00Z</time></trkpt><trkpt lat="41.960723605068" lon="13.271864701142196"><ele>1361.0</ele><time>2026-04-24T11:19:01Z</time></trkpt><trkpt lat="41.960793678586136" lon="13.271838987750401"><ele>1361.0</ele><time>2026-04-24T11:19:02Z</time></trkpt><trkpt lat="41.96087372831589" lon="13.271792403814443"><ele>1361.0</ele><time>2026-04-24T11:19:03Z</time></trkpt><trkpt lat="41.96094986533544" lon="13.271737030113853"><ele>1361.0</ele><time>2026-04-24T11:19:04Z</time></trkpt><trkpt lat="41.96104306126926" lon="13.271628809605609"><ele>1361.0</ele><time>2026-04-24T11:19:06Z</time></trkpt><trkpt lat="41.96108796085576" lon="13.27145640189185"><ele>1361.8</ele><time>2026-04-24T11:19:08Z</time></trkpt><trkpt lat="41.961092392427425" lon="13.271306133932333"><ele>1362.6</ele><time>2026-04-24T11:19:09Z</time></trkpt><trkpt lat="41.96110946604832" lon="13.271161713079552"><ele>1363.4</ele><time>2026-04-24T11:19:10Z</time></trkpt><trkpt lat="41.96113107489286" lon="13.271028995995232"><ele>1364.2</ele><time>2026-04-24T11:19:11Z</time></trkpt><trkpt lat="41.9611536592966" lon="13.270916390971895"><ele>1365.0</ele><time>2026-04-24T11:19:12Z</time></trkpt><trkpt lat="41.96117207134537" lon="13.27082435152833"><ele>1365.0</ele><time>2026-04-24T11:19:13Z</time></trkpt><trkpt lat="41.96119632062552" lon="13.270725172649778"><ele>1365.0</ele><time>2026-04-24T11:19:14Z</time></trkpt><trkpt lat="41.96123699641144" lon="13.27062280025011"><ele>1365.0</ele><time>2026-04-24T11:19:15Z</time></trkpt><trkpt lat="41.9612953268042" lon="13.270533084690257"><ele>1365.0</ele><time>2026-04-24T11:19:16Z</time></trkpt><trkpt lat="41.96136309587367" lon="13.270448333415418"><ele>1365.0</ele><time>2026-04-24T11:19:17Z</time></trkpt><trkpt lat="41.961429722556474" lon="13.270375185999866"><ele>1365.0</ele><time>2026-04-24T11:19:18Z</time></trkpt><trkpt lat="41.96147813161894" lon="13.270271434751626"><ele>1362.6</ele><time>2026-04-24T11:19:19Z</time></trkpt><trkpt lat="41.96151650343043" lon="13.270160308834894"><ele>1360.2</ele><time>2026-04-24T11:19:20Z</time></trkpt><trkpt lat="41.96156118719212" lon="13.270033128082254"><ele>1357.8000000000002</ele><time>2026-04-24T11:19:21Z</time></trkpt><trkpt lat="41.961612579820915" lon="13.269914295929354"><ele>1355.4</ele><time>2026-04-24T11:19:22Z</time></trkpt><trkpt lat="41.96165585079153" lon="13.269812906738764"><ele>1353.0</ele><time>2026-04-24T11:19:23Z</time></trkpt><trkpt lat="41.9616840482797" lon="13.26971919063135"><ele>1351.5</ele><time>2026-04-24T11:19:24Z</time></trkpt><trkpt lat="41.96170864134929" lon="13.269628906699387"><ele>1350.0</ele><time>2026-04-24T11:19:25Z</time></trkpt><trkpt lat="41.96173361220548" lon="13.269547835363527"><ele>1348.5</ele><time>2026-04-24T11:19:26Z</time></trkpt><trkpt lat="41.961788462442776" lon="13.269417058824951"><ele>1347.0</ele><time>2026-04-24T11:19:28Z</time></trkpt><trkpt lat="41.96185554640874" lon="13.269310664296368"><ele>1345.5</ele><time>2026-04-24T11:19:30Z</time></trkpt><trkpt lat="41.961925143359245" lon="13.269220945381496"><ele>1344.0</ele><time>2026-04-24T11:19:32Z</time></trkpt><trkpt lat="41.96197064027694" lon="13.269154892612926"><ele>1344.0</ele><time>2026-04-24T11:19:34Z</time></trkpt><trkpt lat="41.961945152591966" lon="13.269061565702136"><ele>1344.0</ele><time>2026-04-24T11:20:02Z</time></trkpt><trkpt lat="41.96186222241942" lon="13.268974778247756"><ele>1344.0</ele><time>2026-04-24T11:20:04Z</time></trkpt><trkpt lat="41.96178717899486" lon="13.268860181786286"><ele>1344.0</ele><time>2026-04-24T11:20:06Z</time></trkpt><trkpt lat="41.96170976449228" lon="13.268733327955218"><ele>1344.0</ele><time>2026-04-24T11:20:08Z</time></trkpt><trkpt lat="41.96165280959414" lon="13.268651466799835"><ele>1345.2</ele><time>2026-04-24T11:20:10Z</time></trkpt><trkpt lat="41.9615866605151" lon="13.268604045441682"><ele>1346.4</ele><time>2026-04-24T11:20:12Z</time></trkpt><trkpt lat="41.961513348213025" lon="13.268583346697927"><ele>1347.6</ele><time>2026-04-24T11:20:27.999Z</time></trkpt><trkpt lat="41.96142012734193" lon="13.268565481416546"><ele>1348.8</ele><time>2026-04-24T11:20:29.999Z</time></trkpt><trkpt lat="41.96130627361466" lon="13.268522116704741"><ele>1350.0</ele><time>2026-04-24T11:20:31.999Z</time></trkpt><trkpt lat="41.961216922899396" lon="13.268450285644873"><ele>1350.0</ele><time>2026-04-24T11:20:33.999Z</time></trkpt><trkpt lat="41.96115497887153" lon="13.268393118933396"><ele>1350.0</ele><time>2026-04-24T11:20:34.999Z</time></trkpt><trkpt lat="41.961080925438715" lon="13.268363565842618"><ele>1350.0</ele><time>2026-04-24T11:20:35.999Z</time></trkpt><trkpt lat="41.96100536793872" lon="13.26834577487547"><ele>1350.0</ele><time>2026-04-24T11:20:36.999Z</time></trkpt><trkpt lat="41.96092155576773" lon="13.268348762173753"><ele>1350.0</ele><time>2026-04-24T11:20:37.999Z</time></trkpt><trkpt lat="41.96083231790943" lon="13.268366100934102"><ele>1350.0</ele><time>2026-04-24T11:20:38.999Z</time></trkpt><trkpt lat="41.96072463933232" lon="13.268403885112315"><ele>1351.4</ele><time>2026-04-24T11:20:39.999Z</time></trkpt><trkpt lat="41.960640609565075" lon="13.268425222278713"><ele>1352.8</ele><time>2026-04-24T11:20:40.999Z</time></trkpt><trkpt lat="41.960553755430986" lon="13.26844331940211"><ele>1354.1999999999998</ele><time>2026-04-24T11:20:41.999Z</time></trkpt><trkpt lat="41.960464420424856" lon="13.268487671080726"><ele>1355.6</ele><time>2026-04-24T11:20:42.999Z</time></trkpt><trkpt lat="41.96037467513147" lon="13.268532593550097"><ele>1357.0</ele><time>2026-04-24T11:20:43.999Z</time></trkpt><trkpt lat="41.96028075653341" lon="13.268574195028236"><ele>1357.0</ele><time>2026-04-24T11:20:44.999Z</time></trkpt><trkpt lat="41.96017914750167" lon="13.268597130324713"><ele>1357.0</ele><time>2026-04-24T11:20:45.999Z</time></trkpt><trkpt lat="41.960069826102746" lon="13.268599017654687"><ele>1357.0</ele><time>2026-04-24T11:20:46.999Z</time></trkpt><trkpt lat="41.95996568898606" lon="13.268600456472006"><ele>1357.0</ele><time>2026-04-24T11:20:47.999Z</time></trkpt><trkpt lat="41.95988344509454" lon="13.268587736925948"><ele>1357.0</ele><time>2026-04-24T11:20:48.999Z</time></trkpt><trkpt lat="41.9598019118139" lon="13.268551834671664"><ele>1358.8</ele><time>2026-04-24T11:20:49.999Z</time></trkpt><trkpt lat="41.95970985505415" lon="13.26852401704409"><ele>1360.6</ele><time>2026-04-24T11:20:50.999Z</time></trkpt><trkpt lat="41.95963068052095" lon="13.268463963086438"><ele>1362.3999999999999</ele><time>2026-04-24T11:20:51.999Z</time></trkpt><trkpt lat="41.959563808407616" lon="13.26839800090055"><ele>1364.1999999999998</ele><time>2026-04-24T11:20:52.999Z</time></trkpt><trkpt lat="41.95948500999721" lon="13.268293244478247"><ele>1366.0</ele><time>2026-04-24T11:20:55Z</time></trkpt><trkpt lat="41.95939704391561" lon="13.268251495167275"><ele>1366.0</ele><time>2026-04-24T11:20:57Z</time></trkpt><trkpt lat="41.959321607972434" lon="13.268286966298183"><ele>1366.0</ele><time>2026-04-24T11:20:58Z</time></trkpt><trkpt lat="41.959238591526805" lon="13.268315710660062"><ele>1366.0</ele><time>2026-04-24T11:20:59Z</time></trkpt><trkpt lat="41.95915775125798" lon="13.268332605488075"><ele>1366.0</ele><time>2026-04-24T11:21:00Z</time></trkpt><trkpt lat="41.95903845067366" lon="13.268346756489946"><ele>1366.0</ele><time>2026-04-24T11:21:02Z</time></trkpt><trkpt lat="41.958920914432184" lon="13.268329628288035"><ele>1366.1999999999998</ele><time>2026-04-24T11:21:04Z</time></trkpt><trkpt lat="41.95881228537495" lon="13.268292876623669"><ele>1366.3999999999999</ele><time>2026-04-24T11:21:06Z</time></trkpt><trkpt lat="41.95874281948813" lon="13.268256370657356"><ele>1366.6</ele><time>2026-04-24T11:21:07Z</time></trkpt><trkpt lat="41.958674613272734" lon="13.268212072554583"><ele>1366.8</ele><time>2026-04-24T11:21:08Z</time></trkpt><trkpt lat="41.958608214294586" lon="13.2681824822608"><ele>1367.0</ele><time>2026-04-24T11:21:09Z</time></trkpt><trkpt lat="41.9584875799182" lon="13.268193523879388"><ele>1367.0</ele><time>2026-04-24T11:21:11Z</time></trkpt><trkpt lat="41.95842596370459" lon="13.268235492558416"><ele>1367.0</ele><time>2026-04-24T11:21:12Z</time></trkpt><trkpt lat="41.958333712094245" lon="13.26835071070174"><ele>1367.0</ele><time>2026-04-24T11:21:14Z</time></trkpt><trkpt lat="41.95823964567037" lon="13.268389374784752"><ele>1367.0</ele><time>2026-04-24T11:21:16Z</time></trkpt><trkpt lat="41.95814564323667" lon="13.268352537507498"><ele>1367.0</ele><time>2026-04-24T11:21:18Z</time></trkpt><trkpt lat="41.95810299488647" lon="13.268282742753115"><ele>1368.0</ele><time>2026-04-24T11:21:19Z</time></trkpt><trkpt lat="41.95805587220803" lon="13.268202501961353"><ele>1369.0</ele><time>2026-04-24T11:21:20Z</time></trkpt><trkpt lat="41.95801139526755" lon="13.26813428921138"><ele>1370.0</ele><time>2026-04-24T11:21:21Z</time></trkpt><trkpt lat="41.95795651905622" lon="13.268072417920514"><ele>1371.0</ele><time>2026-04-24T11:21:22Z</time></trkpt><trkpt lat="41.957894651688584" lon="13.268041132747804"><ele>1372.0</ele><time>2026-04-24T11:21:23Z</time></trkpt><trkpt lat="41.95783712938746" lon="13.267990139952767"><ele>1373.0</ele><time>2026-04-24T11:21:24Z</time></trkpt><trkpt lat="41.95777529494742" lon="13.267925499556805"><ele>1374.0</ele><time>2026-04-24T11:21:25Z</time></trkpt><trkpt lat="41.9577170613738" lon="13.26785540621429"><ele>1376.0</ele><time>2026-04-24T11:21:26Z</time></trkpt><trkpt lat="41.95767019941434" lon="13.267765369080116"><ele>1378.0</ele><time>2026-04-24T11:21:27Z</time></trkpt><trkpt lat="41.95763263186586" lon="13.267677435727448"><ele>1380.0</ele><time>2026-04-24T11:21:28Z</time></trkpt><trkpt lat="41.95756130736906" lon="13.267589837187405"><ele>1382.0</ele><time>2026-04-24T11:21:29Z</time></trkpt><trkpt lat="41.95750627235948" lon="13.26753375677126"><ele>1384.0</ele><time>2026-04-24T11:21:30Z</time></trkpt><trkpt lat="41.95743922033757" lon="13.267523706923033"><ele>1386.0</ele><time>2026-04-24T11:21:31Z</time></trkpt><trkpt lat="41.95736677902327" lon="13.267518339305612"><ele>1386.0</ele><time>2026-04-24T11:21:32Z</time></trkpt><trkpt lat="41.95728775282272" lon="13.26752084428384"><ele>1386.0</ele><time>2026-04-24T11:21:33Z</time></trkpt><trkpt lat="41.95721056317419" lon="13.267526262474348"><ele>1386.0</ele><time>2026-04-24T11:21:34Z</time></trkpt><trkpt lat="41.95710607584705" lon="13.267480906184812"><ele>1386.0</ele><time>2026-04-24T11:21:36Z</time></trkpt><trkpt lat="41.95706371860748" lon="13.26738236189903"><ele>1386.0</ele><time>2026-04-24T11:21:38Z</time></trkpt><trkpt lat="41.957045166591634" lon="13.26728135615112"><ele>1386.0</ele><time>2026-04-24T11:21:40Z</time></trkpt><trkpt lat="41.95707935956389" lon="13.267152112152582"><ele>1386.1999999999998</ele><time>2026-04-24T11:21:42Z</time></trkpt><trkpt lat="41.95721246880821" lon="13.267066747432622"><ele>1386.3999999999999</ele><time>2026-04-24T11:21:44Z</time></trkpt><trkpt lat="41.957284266056924" lon="13.26702594521994"><ele>1386.6</ele><time>2026-04-24T11:21:45Z</time></trkpt><trkpt lat="41.957383862644285" lon="13.266993881401145"><ele>1386.8</ele><time>2026-04-24T11:21:47Z</time></trkpt><trkpt lat="41.957489687865205" lon="13.267072812065711"><ele>1387.0</ele><time>2026-04-24T11:21:49Z</time></trkpt><trkpt lat="41.95754655090235" lon="13.267124431528032"><ele>1387.0</ele><time>2026-04-24T11:21:50Z</time></trkpt><trkpt lat="41.95760451595651" lon="13.267168855950269"><ele>1387.0</ele><time>2026-04-24T11:21:51Z</time></trkpt><trkpt lat="41.957722423030255" lon="13.267204977779087"><ele>1387.0</ele><time>2026-04-24T11:21:53Z</time></trkpt><trkpt lat="41.957786191097235" lon="13.267187327002576"><ele>1387.0</ele><time>2026-04-24T11:21:54Z</time></trkpt><trkpt lat="41.95785508721173" lon="13.267073147538387"><ele>1387.0</ele><time>2026-04-24T11:21:56Z</time></trkpt><trkpt lat="41.9578420077629" lon="13.26694769386862"><ele>1387.0</ele><time>2026-04-24T11:21:58Z</time></trkpt><trkpt lat="41.95774441536356" lon="13.26682989111744"><ele>1387.0</ele><time>2026-04-24T11:22:00Z</time></trkpt><trkpt lat="41.95768625495716" lon="13.266763352106146"><ele>1387.0</ele><time>2026-04-24T11:22:01Z</time></trkpt><trkpt lat="41.957650293933376" lon="13.266675968717623"><ele>1387.0</ele><time>2026-04-24T11:22:02Z</time></trkpt><trkpt lat="41.95762456775108" lon="13.266579994781265"><ele>1387.0</ele><time>2026-04-24T11:22:03Z</time></trkpt><trkpt lat="41.95760757620409" lon="13.26647912662704"><ele>1387.0</ele><time>2026-04-24T11:22:04Z</time></trkpt><trkpt lat="41.957562373005295" lon="13.26636175756502"><ele>1388.6</ele><time>2026-04-24T11:22:05Z</time></trkpt><trkpt lat="41.957504348281454" lon="13.266250351483402"><ele>1390.1999999999998</ele><time>2026-04-24T11:22:06Z</time></trkpt><trkpt lat="41.95744598910985" lon="13.266150426351489"><ele>1391.8</ele><time>2026-04-24T11:22:07Z</time></trkpt><trkpt lat="41.95737454096118" lon="13.266039925551057"><ele>1393.4</ele><time>2026-04-24T11:22:08Z</time></trkpt><trkpt lat="41.95731805055348" lon="13.265927632438167"><ele>1395.0</ele><time>2026-04-24T11:22:09Z</time></trkpt><trkpt lat="41.95727749252709" lon="13.26583115917108"><ele>1395.0</ele><time>2026-04-24T11:22:10Z</time></trkpt><trkpt lat="41.95725491418615" lon="13.265726005348355"><ele>1395.0</ele><time>2026-04-24T11:22:11Z</time></trkpt><trkpt lat="41.957238575645604" lon="13.265617257759782"><ele>1395.0</ele><time>2026-04-24T11:22:12Z</time></trkpt><trkpt lat="41.95723698462638" lon="13.265515004761083"><ele>1395.0</ele><time>2026-04-24T11:22:13Z</time></trkpt><trkpt lat="41.95725426170678" lon="13.265415341648199"><ele>1395.0</ele><time>2026-04-24T11:22:14Z</time></trkpt><trkpt lat="41.95730343924873" lon="13.26531809854974"><ele>1395.0</ele><time>2026-04-24T11:22:15Z</time></trkpt><trkpt lat="41.957354243073326" lon="13.265224784214423"><ele>1395.6</ele><time>2026-04-24T11:22:16Z</time></trkpt><trkpt lat="41.95739123150092" lon="13.265136910201104"><ele>1396.2</ele><time>2026-04-24T11:22:17Z</time></trkpt><trkpt lat="41.957398269494405" lon="13.265016866412086"><ele>1396.8000000000002</ele><time>2026-04-24T11:22:18Z</time></trkpt><trkpt lat="41.95738857568154" lon="13.264884356152859"><ele>1397.4</ele><time>2026-04-24T11:22:19Z</time></trkpt><trkpt lat="41.95735734423528" lon="13.264762532407817"><ele>1398.0</ele><time>2026-04-24T11:22:20Z</time></trkpt><trkpt lat="41.95732921010807" lon="13.26464533299377"><ele>1398.8000000000002</ele><time>2026-04-24T11:22:21Z</time></trkpt><trkpt lat="41.95732408388009" lon="13.264509584050042"><ele>1399.6</ele><time>2026-04-24T11:22:22Z</time></trkpt><trkpt lat="41.9573282715969" lon="13.264369441625279"><ele>1400.4</ele><time>2026-04-24T11:22:23Z</time></trkpt><trkpt lat="41.95733931255159" lon="13.264235194080324"><ele>1401.1999999999998</ele><time>2026-04-24T11:22:24Z</time></trkpt><trkpt lat="41.957365414638424" lon="13.264108990644402"><ele>1402.0</ele><time>2026-04-24T11:22:25Z</time></trkpt><trkpt lat="41.957390695680424" lon="13.263984860101923"><ele>1402.8333333333333</ele><time>2026-04-24T11:22:26Z</time></trkpt><trkpt lat="41.95742326494601" lon="13.263910831074803"><ele>1403.6666666666665</ele><time>2026-04-24T11:22:27Z</time></trkpt><trkpt lat="41.95744121146215" lon="13.263825253899558"><ele>1404.5</ele><time>2026-04-24T11:22:28Z</time></trkpt><trkpt lat="41.957457421001024" lon="13.263721314381181"><ele>1405.3333333333333</ele><time>2026-04-24T11:22:30Z</time></trkpt><trkpt lat="41.9575060487654" lon="13.263667355219239"><ele>1406.1666666666667</ele><time>2026-04-24T11:22:33Z</time></trkpt><trkpt lat="41.95759343591457" lon="13.26362412565418"><ele>1407.0</ele><time>2026-04-24T11:22:35Z</time></trkpt><trkpt lat="41.95769744494951" lon="13.263559227294598"><ele>1407.5</ele><time>2026-04-24T11:22:37Z</time></trkpt><trkpt lat="41.95774942346177" lon="13.263502725283903"><ele>1408.0</ele><time>2026-04-24T11:22:38Z</time></trkpt><trkpt lat="41.95779839138738" lon="13.263446841764356"><ele>1408.5</ele><time>2026-04-24T11:22:39Z</time></trkpt><trkpt lat="41.95787336962862" lon="13.263355924600246"><ele>1409.0</ele><time>2026-04-24T11:22:41Z</time></trkpt><trkpt lat="41.95795441207357" lon="13.263270618878382"><ele>1409.5</ele><time>2026-04-24T11:22:43Z</time></trkpt><trkpt lat="41.95795841818997" lon="13.263176360083458"><ele>1410.0</ele><time>2026-04-24T11:22:46Z</time></trkpt><trkpt lat="41.957945422806" lon="13.263092888280648"><ele>1410.6666666666667</ele><time>2026-04-24T11:22:47Z</time></trkpt><trkpt lat="41.95791068141315" lon="13.262934596784811"><ele>1411.3333333333333</ele><time>2026-04-24T11:22:49Z</time></trkpt><trkpt lat="41.95787600154723" lon="13.262818231933455"><ele>1412.0</ele><time>2026-04-24T11:22:50Z</time></trkpt><trkpt lat="41.95786787079498" lon="13.262704791049638"><ele>1412.6666666666665</ele><time>2026-04-24T11:22:51Z</time></trkpt><trkpt lat="41.957868623439545" lon="13.262601280647559"><ele>1413.3333333333333</ele><time>2026-04-24T11:22:52Z</time></trkpt><trkpt lat="41.957880297388435" lon="13.262509541274989"><ele>1414.0</ele><time>2026-04-24T11:22:53Z</time></trkpt><trkpt lat="41.9578858763886" lon="13.262415196035178"><ele>1414.6666666666665</ele><time>2026-04-24T11:22:54Z</time></trkpt><trkpt lat="41.95789669055692" lon="13.262249947055178"><ele>1415.3333333333333</ele><time>2026-04-24T11:22:56Z</time></trkpt><trkpt lat="41.95792474801536" lon="13.262170622743259"><ele>1416.0</ele><time>2026-04-24T11:22:57Z</time></trkpt><trkpt lat="41.95796993011107" lon="13.262101995565798"><ele>1416.6666666666667</ele><time>2026-04-24T11:22:57.999Z</time></trkpt><trkpt lat="41.95802805573485" lon="13.262039522349111"><ele>1417.3333333333335</ele><time>2026-04-24T11:22:58.999Z</time></trkpt><trkpt lat="41.95809090675136" lon="13.261987834502458"><ele>1418.0</ele><time>2026-04-24T11:23:00.001Z</time></trkpt><trkpt lat="41.95816639232016" lon="13.261959373400448"><ele>1418.0</ele><time>2026-04-24T11:23:01.001Z</time></trkpt><trkpt lat="41.958247905176485" lon="13.26193514706643"><ele>1418.0</ele><time>2026-04-24T11:23:02.001Z</time></trkpt><trkpt lat="41.95833962467829" lon="13.26190390026988"><ele>1418.0</ele><time>2026-04-24T11:23:03.001Z</time></trkpt><trkpt lat="41.958426065051775" lon="13.261877661961394"><ele>1418.0</ele><time>2026-04-24T11:23:04.001Z</time></trkpt><trkpt lat="41.95849966634197" lon="13.261857134459643"><ele>1418.0</ele><time>2026-04-24T11:23:05.001Z</time></trkpt><trkpt lat="41.958581888293594" lon="13.261791047848568"><ele>1418.0</ele><time>2026-04-24T11:23:07.001Z</time></trkpt><trkpt lat="41.9586137964635" lon="13.261663220403099"><ele>1418.0</ele><time>2026-04-24T11:23:09Z</time></trkpt><trkpt lat="41.958636635396026" lon="13.261557831648116"><ele>1418.0</ele><time>2026-04-24T11:23:10Z</time></trkpt><trkpt lat="41.9586788388452" lon="13.26146606044749"><ele>1418.0</ele><time>2026-04-24T11:23:11Z</time></trkpt><trkpt lat="41.95873298781282" lon="13.261390280268206"><ele>1418.0</ele><time>2026-04-24T11:23:12Z</time></trkpt><trkpt lat="41.958791050923715" lon="13.261299050620583"><ele>1418.0</ele><time>2026-04-24T11:23:13Z</time></trkpt><trkpt lat="41.95885117830218" lon="13.261209165663573"><ele>1418.0</ele><time>2026-04-24T11:23:14Z</time></trkpt><trkpt lat="41.95891478759076" lon="13.261141470001844"><ele>1417.6000000000001</ele><time>2026-04-24T11:23:15Z</time></trkpt><trkpt lat="41.95897347332148" lon="13.26107569922184"><ele>1417.2</ele><time>2026-04-24T11:23:16Z</time></trkpt><trkpt lat="41.95904133893359" lon="13.260934800329348"><ele>1416.8</ele><time>2026-04-24T11:23:18Z</time></trkpt><trkpt lat="41.95910446505523" lon="13.260828258807537"><ele>1416.4</ele><time>2026-04-24T11:23:20Z</time></trkpt><trkpt lat="41.95922325908426" lon="13.260773458372558"><ele>1416.0</ele><time>2026-04-24T11:23:22Z</time></trkpt><trkpt lat="41.9592825092231" lon="13.260678384505695"><ele>1415.8</ele><time>2026-04-24T11:23:24Z</time></trkpt><trkpt lat="41.95929540228118" lon="13.260565675632986"><ele>1415.6</ele><time>2026-04-24T11:23:26Z</time></trkpt><trkpt lat="41.95923725324109" lon="13.260488349692068"><ele>1415.4</ele><time>2026-04-24T11:23:28Z</time></trkpt><trkpt lat="41.95914673793818" lon="13.26048938092286"><ele>1415.2</ele><time>2026-04-24T11:23:30Z</time></trkpt><trkpt lat="41.95905545103853" lon="13.260552680330324"><ele>1415.0</ele><time>2026-04-24T11:23:32Z</time></trkpt><trkpt lat="41.958950216021286" lon="13.260604713390851"><ele>1415.2</ele><time>2026-04-24T11:23:34Z</time></trkpt><trkpt lat="41.958840595035895" lon="13.260645760345081"><ele>1415.4</ele><time>2026-04-24T11:23:36Z</time></trkpt><trkpt lat="41.95872739046572" lon="13.260654734357484"><ele>1415.6</ele><time>2026-04-24T11:23:38Z</time></trkpt><trkpt lat="41.958657372150356" lon="13.260649751419434"><ele>1415.8</ele><time>2026-04-24T11:23:39Z</time></trkpt><trkpt lat="41.95857864685638" lon="13.260635711960006"><ele>1416.0</ele><time>2026-04-24T11:23:40Z</time></trkpt><trkpt lat="41.95850041760955" lon="13.260616941323839"><ele>1416.5</ele><time>2026-04-24T11:23:41Z</time></trkpt><trkpt lat="41.958428232641126" lon="13.26060332334216"><ele>1417.0</ele><time>2026-04-24T11:23:42Z</time></trkpt><trkpt lat="41.95834337548496" lon="13.260580533446028"><ele>1417.5</ele><time>2026-04-24T11:23:43Z</time></trkpt><trkpt lat="41.95825786692991" lon="13.260555640812232"><ele>1418.0</ele><time>2026-04-24T11:23:44Z</time></trkpt><trkpt lat="41.95818719888296" lon="13.260532360618168"><ele>1418.5</ele><time>2026-04-24T11:23:45Z</time></trkpt><trkpt lat="41.95811684675171" lon="13.260512524698507"><ele>1419.0</ele><time>2026-04-24T11:23:46Z</time></trkpt><trkpt lat="41.95804802827617" lon="13.260463692538554"><ele>1420.1666666666667</ele><time>2026-04-24T11:23:47Z</time></trkpt><trkpt lat="41.95798305734288" lon="13.260403162936171"><ele>1421.3333333333333</ele><time>2026-04-24T11:23:48Z</time></trkpt><trkpt lat="41.95793092921117" lon="13.260329328947066"><ele>1422.5</ele><time>2026-04-24T11:23:49Z</time></trkpt><trkpt lat="41.95788966260703" lon="13.260242318223455"><ele>1423.6666666666665</ele><time>2026-04-24T11:23:50Z</time></trkpt><trkpt lat="41.95784065908174" lon="13.260160089339019"><ele>1424.8333333333333</ele><time>2026-04-24T11:23:51Z</time></trkpt><trkpt lat="41.95779873986492" lon="13.260091151340717"><ele>1426.0</ele><time>2026-04-24T11:23:52Z</time></trkpt><trkpt lat="41.95776469843239" lon="13.259958132881781"><ele>1426.0</ele><time>2026-04-24T11:23:54Z</time></trkpt><trkpt lat="41.95780275586099" lon="13.259834233194908"><ele>1426.0</ele><time>2026-04-24T11:23:56Z</time></trkpt><trkpt lat="41.957856115938625" lon="13.259776251166851"><ele>1426.0</ele><time>2026-04-24T11:23:57Z</time></trkpt><trkpt lat="41.95792162517848" lon="13.259731264462225"><ele>1426.0</ele><time>2026-04-24T11:23:58Z</time></trkpt><trkpt lat="41.9579950284623" lon="13.259700698360096"><ele>1426.0</ele><time>2026-04-24T11:23:59Z</time></trkpt><trkpt lat="41.95806616635552" lon="13.25966617051755"><ele>1426.0</ele><time>2026-04-24T11:24:00Z</time></trkpt><trkpt lat="41.95812442063931" lon="13.259620523897079"><ele>1425.3333333333333</ele><time>2026-04-24T11:24:01Z</time></trkpt><trkpt lat="41.958188440130805" lon="13.259558277331662"><ele>1424.6666666666665</ele><time>2026-04-24T11:24:02Z</time></trkpt><trkpt lat="41.958269962162206" lon="13.259491017423775"><ele>1424.0</ele><time>2026-04-24T11:24:03Z</time></trkpt><trkpt lat="41.95832713340413" lon="13.259428046724434"><ele>1423.3333333333333</ele><time>2026-04-24T11:24:04Z</time></trkpt><trkpt lat="41.958380170238485" lon="13.259369595608948"><ele>1422.6666666666667</ele><time>2026-04-24T11:24:05Z</time></trkpt><trkpt lat="41.958443674113525" lon="13.259300875333695"><ele>1422.0</ele><time>2026-04-24T11:24:06Z</time></trkpt><trkpt lat="41.95850095553092" lon="13.259197116979411"><ele>1422.0</ele><time>2026-04-24T11:24:07Z</time></trkpt><trkpt lat="41.95855722315552" lon="13.259094181656797"><ele>1422.0</ele><time>2026-04-24T11:24:08Z</time></trkpt><trkpt lat="41.95859596140362" lon="13.25898167672316"><ele>1422.0</ele><time>2026-04-24T11:24:09Z</time></trkpt><trkpt lat="41.95864450675308" lon="13.258863747335104"><ele>1422.0</ele><time>2026-04-24T11:24:10Z</time></trkpt><trkpt lat="41.95869013582393" lon="13.258701153658095"><ele>1422.0</ele><time>2026-04-24T11:24:11Z</time></trkpt><trkpt lat="41.958742846989786" lon="13.258533191963968"><ele>1423.3999999999999</ele><time>2026-04-24T11:24:12Z</time></trkpt><trkpt lat="41.958785862878024" lon="13.258371912558452"><ele>1424.8</ele><time>2026-04-24T11:24:13Z</time></trkpt><trkpt lat="41.95882973702006" lon="13.258243378488318"><ele>1426.2</ele><time>2026-04-24T11:24:14Z</time></trkpt><trkpt lat="41.95886185254701" lon="13.258150301970566"><ele>1427.6</ele><time>2026-04-24T11:24:15Z</time></trkpt><trkpt lat="41.9588874536523" lon="13.258027223562497"><ele>1429.0</ele><time>2026-04-24T11:24:17Z</time></trkpt><trkpt lat="41.95890494040687" lon="13.257935535235223"><ele>1429.6</ele><time>2026-04-24T11:24:18Z</time></trkpt><trkpt lat="41.958914433962384" lon="13.25781550855831"><ele>1430.2</ele><time>2026-04-24T11:24:19Z</time></trkpt><trkpt lat="41.95892261809144" lon="13.2577112427317"><ele>1430.8</ele><time>2026-04-24T11:24:20Z</time></trkpt><trkpt lat="41.95889872772745" lon="13.257601483660707"><ele>1431.3999999999999</ele><time>2026-04-24T11:24:21Z</time></trkpt><trkpt lat="41.95886152826091" lon="13.25749571948958"><ele>1432.0</ele><time>2026-04-24T11:24:22Z</time></trkpt><trkpt lat="41.95879456359215" lon="13.257376234111508"><ele>1430.75</ele><time>2026-04-24T11:24:23Z</time></trkpt><trkpt lat="41.95870825172616" lon="13.257232658964101"><ele>1429.5</ele><time>2026-04-24T11:24:24Z</time></trkpt><trkpt lat="41.95860906574132" lon="13.257084571778051"><ele>1428.25</ele><time>2026-04-24T11:24:25Z</time></trkpt><trkpt lat="41.95851933087698" lon="13.256969378249106"><ele>1427.0</ele><time>2026-04-24T11:24:26Z</time></trkpt><trkpt lat="41.9584312731021" lon="13.256888736965424"><ele>1427.0</ele><time>2026-04-24T11:24:27Z</time></trkpt><trkpt lat="41.958384315514124" lon="13.256790946406095"><ele>1427.0</ele><time>2026-04-24T11:24:28Z</time></trkpt><trkpt lat="41.958314862947184" lon="13.256712048648108"><ele>1427.0</ele><time>2026-04-24T11:24:29Z</time></trkpt><trkpt lat="41.95825106733234" lon="13.256614225220094"><ele>1427.0</ele><time>2026-04-24T11:24:30Z</time></trkpt><trkpt lat="41.95821201197181" lon="13.256522528342453"><ele>1427.0</ele><time>2026-04-24T11:24:31Z</time></trkpt><trkpt lat="41.958174460877615" lon="13.25643785887199"><ele>1427.0</ele><time>2026-04-24T11:24:32Z</time></trkpt><trkpt lat="41.95816163850924" lon="13.25635047203931"><ele>1428.0</ele><time>2026-04-24T11:24:33Z</time></trkpt><trkpt lat="41.9581428105534" lon="13.256267085662147"><ele>1429.0</ele><time>2026-04-24T11:24:33.999Z</time></trkpt><trkpt lat="41.95810451677473" lon="13.256185053202714"><ele>1430.0</ele><time>2026-04-24T11:24:34.999Z</time></trkpt><trkpt lat="41.95804205766214" lon="13.256122018484382"><ele>1431.0</ele><time>2026-04-24T11:24:35.999Z</time></trkpt><trkpt lat="41.95797957339779" lon="13.256078048238598"><ele>1432.0</ele><time>2026-04-24T11:24:36.999Z</time></trkpt><trkpt lat="41.9578933661453" lon="13.256060946450248"><ele>1433.0</ele><time>2026-04-24T11:24:37.999Z</time></trkpt><trkpt lat="41.95779152442771" lon="13.256059997738612"><ele>1433.0</ele><time>2026-04-24T11:24:38.999Z</time></trkpt><trkpt lat="41.95768869152046" lon="13.256069692702201"><ele>1433.0</ele><time>2026-04-24T11:24:39.999Z</time></trkpt><trkpt lat="41.95760545138397" lon="13.25606435262375"><ele>1433.0</ele><time>2026-04-24T11:24:40.999Z</time></trkpt><trkpt lat="41.957540341215505" lon="13.25603433346165"><ele>1433.0</ele><time>2026-04-24T11:24:41.999Z</time></trkpt><trkpt lat="41.95748067449851" lon="13.255985948856797"><ele>1433.0</ele><time>2026-04-24T11:24:42.999Z</time></trkpt><trkpt lat="41.95742063599812" lon="13.255917345059505"><ele>1433.0</ele><time>2026-04-24T11:24:43.999Z</time></trkpt><trkpt lat="41.957373319090365" lon="13.255813614077919"><ele>1436.0</ele><time>2026-04-24T11:24:44.999Z</time></trkpt><trkpt lat="41.95732120942072" lon="13.255699133399592"><ele>1439.0</ele><time>2026-04-24T11:24:45.999Z</time></trkpt><trkpt lat="41.95724949338345" lon="13.25558559958333"><ele>1442.0</ele><time>2026-04-24T11:24:46.999Z</time></trkpt><trkpt lat="41.95716035666281" lon="13.255455518826656"><ele>1445.0</ele><time>2026-04-24T11:24:47.999Z</time></trkpt><trkpt lat="41.95704443159152" lon="13.255306097437014"><ele>1445.0</ele><time>2026-04-24T11:24:48.999Z</time></trkpt><trkpt lat="41.956937035208675" lon="13.255182005747061"><ele>1445.0</ele><time>2026-04-24T11:24:49.999Z</time></trkpt><trkpt lat="41.95684683351462" lon="13.255078035832696"><ele>1445.0</ele><time>2026-04-24T11:24:50.999Z</time></trkpt><trkpt lat="41.95676052891503" lon="13.254994423181488"><ele>1445.0</ele><time>2026-04-24T11:24:51.999Z</time></trkpt><trkpt lat="41.95670141174366" lon="13.254942135335943"><ele>1445.0</ele><time>2026-04-24T11:24:52.999Z</time></trkpt><trkpt lat="41.95663161868974" lon="13.254850338962896"><ele>1446.4</ele><time>2026-04-24T11:24:54.999Z</time></trkpt><trkpt lat="41.95660322191737" lon="13.254674999724951"><ele>1447.8</ele><time>2026-04-24T11:24:56.999Z</time></trkpt><trkpt lat="41.95666479879498" lon="13.254558586228542"><ele>1449.1999999999998</ele><time>2026-04-24T11:24:57.999Z</time></trkpt><trkpt lat="41.95670262037537" lon="13.254458494993303"><ele>1450.6</ele><time>2026-04-24T11:24:58.999Z</time></trkpt><trkpt lat="41.95677440557795" lon="13.254340567287908"><ele>1452.0</ele><time>2026-04-24T11:24:59.999Z</time></trkpt><trkpt lat="41.95682320356668" lon="13.254230689097426"><ele>1452.0</ele><time>2026-04-24T11:25:00.999Z</time></trkpt><trkpt lat="41.956853848513404" lon="13.254142768967393"><ele>1452.0</ele><time>2026-04-24T11:25:01.999Z</time></trkpt><trkpt lat="41.956853702345605" lon="13.254038236204037"><ele>1452.0</ele><time>2026-04-24T11:25:02.999Z</time></trkpt><trkpt lat="41.95686755921237" lon="13.253913353953868"><ele>1452.0</ele><time>2026-04-24T11:25:03.999Z</time></trkpt><trkpt lat="41.956891442715595" lon="13.253805311256981"><ele>1452.0</ele><time>2026-04-24T11:25:05Z</time></trkpt><trkpt lat="41.956956589224255" lon="13.253694223120537"><ele>1452.0</ele><time>2026-04-24T11:25:07Z</time></trkpt><trkpt lat="41.957058210306926" lon="13.25364764905327"><ele>1453.3333333333333</ele><time>2026-04-24T11:25:09Z</time></trkpt><trkpt lat="41.95713588362992" lon="13.253636342619776"><ele>1454.6666666666667</ele><time>2026-04-24T11:25:10Z</time></trkpt><trkpt lat="41.957215888326296" lon="13.253623641506447"><ele>1456.0</ele><time>2026-04-24T11:25:11Z</time></trkpt><trkpt lat="41.95728724049331" lon="13.253567447142826"><ele>1457.3333333333335</ele><time>2026-04-24T11:25:12Z</time></trkpt><trkpt lat="41.957349348116814" lon="13.253490236621625"><ele>1458.6666666666667</ele><time>2026-04-24T11:25:13Z</time></trkpt><trkpt lat="41.95742201277078" lon="13.253365690799171"><ele>1460.0</ele><time>2026-04-24T11:25:14Z</time></trkpt><trkpt lat="41.95748737670657" lon="13.253231971622473"><ele>1459.8</ele><time>2026-04-24T11:25:15Z</time></trkpt><trkpt lat="41.95753531923603" lon="13.25311799686923"><ele>1459.6</ele><time>2026-04-24T11:25:16Z</time></trkpt><trkpt lat="41.957559059178756" lon="13.253016619549639"><ele>1459.4</ele><time>2026-04-24T11:25:17Z</time></trkpt><trkpt lat="41.95757136500018" lon="13.252916471627488"><ele>1459.2</ele><time>2026-04-24T11:25:18Z</time></trkpt><trkpt lat="41.9575588067051" lon="13.25278716308949"><ele>1459.0</ele><time>2026-04-24T11:25:19Z</time></trkpt><trkpt lat="41.957546370368256" lon="13.2526525164115"><ele>1460.3333333333333</ele><time>2026-04-24T11:25:20Z</time></trkpt><trkpt lat="41.957514129779156" lon="13.252544550485048"><ele>1461.6666666666665</ele><time>2026-04-24T11:25:21Z</time></trkpt><trkpt lat="41.95746799977674" lon="13.252441728507176"><ele>1463.0</ele><time>2026-04-24T11:25:22Z</time></trkpt><trkpt lat="41.95741772038444" lon="13.252341384801085"><ele>1464.3333333333333</ele><time>2026-04-24T11:25:23Z</time></trkpt><trkpt lat="41.95738970117046" lon="13.252263963940791"><ele>1465.6666666666667</ele><time>2026-04-24T11:25:24Z</time></trkpt><trkpt lat="41.957378772804056" lon="13.252135871664917"><ele>1467.0</ele><time>2026-04-24T11:25:26Z</time></trkpt><trkpt lat="41.95743675821773" lon="13.25199249459218"><ele>1468.0</ele><time>2026-04-24T11:25:28Z</time></trkpt><trkpt lat="41.95747480271347" lon="13.251895072772568"><ele>1469.0</ele><time>2026-04-24T11:25:29Z</time></trkpt><trkpt lat="41.9574994882325" lon="13.25177785592676"><ele>1470.0</ele><time>2026-04-24T11:25:30Z</time></trkpt><trkpt lat="41.95751566889056" lon="13.251629002240342"><ele>1471.0</ele><time>2026-04-24T11:25:31Z</time></trkpt><trkpt lat="41.957529160018446" lon="13.251474644844162"><ele>1472.0</ele><time>2026-04-24T11:25:32Z</time></trkpt><trkpt lat="41.95755822735185" lon="13.25130239069685"><ele>1473.5</ele><time>2026-04-24T11:25:33Z</time></trkpt><trkpt lat="41.95759367708536" lon="13.251129560060233"><ele>1475.0</ele><time>2026-04-24T11:25:34Z</time></trkpt><trkpt lat="41.957640740255584" lon="13.25095472579666"><ele>1476.5</ele><time>2026-04-24T11:25:35Z</time></trkpt><trkpt lat="41.95767477620171" lon="13.25079111096519"><ele>1478.0</ele><time>2026-04-24T11:25:36Z</time></trkpt><trkpt lat="41.95770526461551" lon="13.250649977643086"><ele>1478.6666666666667</ele><time>2026-04-24T11:25:37Z</time></trkpt><trkpt lat="41.957745584966716" lon="13.250540631751146"><ele>1479.3333333333335</ele><time>2026-04-24T11:25:38Z</time></trkpt><trkpt lat="41.957785441122894" lon="13.250426956237824"><ele>1480.0</ele><time>2026-04-24T11:25:39Z</time></trkpt><trkpt lat="41.95782423339668" lon="13.2503105407534"><ele>1480.6666666666667</ele><time>2026-04-24T11:25:40Z</time></trkpt><trkpt lat="41.95785313114689" lon="13.250202529546174"><ele>1481.3333333333333</ele><time>2026-04-24T11:25:41Z</time></trkpt><trkpt lat="41.95787627066858" lon="13.25011510426157"><ele>1482.0</ele><time>2026-04-24T11:25:42Z</time></trkpt><trkpt lat="41.957919669557825" lon="13.250047464533898"><ele>1482.0</ele><time>2026-04-24T11:25:43Z</time></trkpt><trkpt lat="41.957978932495124" lon="13.24996794640057"><ele>1482.0</ele><time>2026-04-24T11:25:44Z</time></trkpt><trkpt lat="41.95804620392136" lon="13.249920833258354"><ele>1482.0</ele><time>2026-04-24T11:25:45Z</time></trkpt><trkpt lat="41.95813103327329" lon="13.249857966744205"><ele>1482.0</ele><time>2026-04-24T11:25:47Z</time></trkpt><trkpt lat="41.958211105279084" lon="13.249842176189633"><ele>1482.0</ele><time>2026-04-24T11:25:50Z</time></trkpt><trkpt lat="41.95827268751384" lon="13.249891953987326"><ele>1482.0</ele><time>2026-04-24T11:25:54Z</time></trkpt><trkpt lat="41.9583315793719" lon="13.249820548162775"><ele>1480.3333333333333</ele><time>2026-04-24T11:26:19Z</time></trkpt><trkpt lat="41.9583051395497" lon="13.249733218005812"><ele>1478.6666666666667</ele><time>2026-04-24T11:26:21Z</time></trkpt><trkpt lat="41.958252661189256" lon="13.249632790569581"><ele>1477.0</ele><time>2026-04-24T11:26:23Z</time></trkpt><trkpt lat="41.958213056207725" lon="13.249560689257757"><ele>1475.3333333333335</ele><time>2026-04-24T11:26:24Z</time></trkpt><trkpt lat="41.95813180252117" lon="13.249430099264204"><ele>1473.6666666666667</ele><time>2026-04-24T11:26:25.999Z</time></trkpt><trkpt lat="41.95807073890837" lon="13.249351507430884"><ele>1472.0</ele><time>2026-04-24T11:26:26.999Z</time></trkpt><trkpt lat="41.958012401338166" lon="13.249280859842614"><ele>1472.0</ele><time>2026-04-24T11:26:27.999Z</time></trkpt><trkpt lat="41.957953800307955" lon="13.249208542931932"><ele>1472.0</ele><time>2026-04-24T11:26:28.999Z</time></trkpt><trkpt lat="41.95789610972954" lon="13.249141599349752"><ele>1472.0</ele><time>2026-04-24T11:26:29.999Z</time></trkpt><trkpt lat="41.95784256616746" lon="13.249074089174735"><ele>1472.0</ele><time>2026-04-24T11:26:30.999Z</time></trkpt><trkpt lat="41.95779715227201" lon="13.249007009889588"><ele>1472.0</ele><time>2026-04-24T11:26:31.999Z</time></trkpt><trkpt lat="41.95775203692504" lon="13.248929082458647"><ele>1472.0</ele><time>2026-04-24T11:26:32.999Z</time></trkpt><trkpt lat="41.95769765170137" lon="13.24877904374632"><ele>1468.6</ele><time>2026-04-24T11:26:34.999Z</time></trkpt><trkpt lat="41.95766834223326" lon="13.248692249002827"><ele>1465.1999999999998</ele><time>2026-04-24T11:26:35.999Z</time></trkpt><trkpt lat="41.95764553702284" lon="13.248612362340547"><ele>1461.8</ele><time>2026-04-24T11:26:36.999Z</time></trkpt><trkpt lat="41.957616921830585" lon="13.248451359557947"><ele>1458.4</ele><time>2026-04-24T11:26:38.999Z</time></trkpt><trkpt lat="41.95758785396996" lon="13.248310479048037"><ele>1455.0</ele><time>2026-04-24T11:26:40.999Z</time></trkpt><trkpt lat="41.95758243991687" lon="13.248168239894124"><ele>1452.8</ele><time>2026-04-24T11:26:42.999Z</time></trkpt><trkpt lat="41.95764009499061" lon="13.248048980518922"><ele>1450.6</ele><time>2026-04-24T11:26:44.999Z</time></trkpt><trkpt lat="41.957719898882026" lon="13.247972733061228"><ele>1448.4</ele><time>2026-04-24T11:26:46.999Z</time></trkpt><trkpt lat="41.95778133345524" lon="13.247868432658843"><ele>1446.2</ele><time>2026-04-24T11:26:48.999Z</time></trkpt><trkpt lat="41.957808522727085" lon="13.247727120992183"><ele>1444.0</ele><time>2026-04-24T11:26:50.999Z</time></trkpt><trkpt lat="41.95777854861579" lon="13.247572638871755"><ele>1444.0</ele><time>2026-04-24T11:26:52.999Z</time></trkpt><trkpt lat="41.95773485036109" lon="13.24742627803722"><ele>1444.0</ele><time>2026-04-24T11:26:54.999Z</time></trkpt><trkpt lat="41.95767055264988" lon="13.247331658231387"><ele>1444.0</ele><time>2026-04-24T11:26:56.999Z</time></trkpt><trkpt lat="41.95759736829272" lon="13.247245618823134"><ele>1444.0</ele><time>2026-04-24T11:26:58.999Z</time></trkpt><trkpt lat="41.95750944225769" lon="13.247175927407906"><ele>1444.0</ele><time>2026-04-24T11:27:00.999Z</time></trkpt><trkpt lat="41.957446009498184" lon="13.247083163849728"><ele>1447.0</ele><time>2026-04-24T11:27:02.999Z</time></trkpt><trkpt lat="41.95741514390822" lon="13.246924145529084"><ele>1450.0</ele><time>2026-04-24T11:27:04.999Z</time></trkpt><trkpt lat="41.95741661500225" lon="13.246821538654787"><ele>1453.0</ele><time>2026-04-24T11:27:05.999Z</time></trkpt><trkpt lat="41.957412559572305" lon="13.246712548404044"><ele>1456.0</ele><time>2026-04-24T11:27:06.999Z</time></trkpt><trkpt lat="41.95740863490311" lon="13.246622481050341"><ele>1459.0</ele><time>2026-04-24T11:27:07.999Z</time></trkpt><trkpt lat="41.957426352754496" lon="13.246537097281086"><ele>1462.0</ele><time>2026-04-24T11:27:08.999Z</time></trkpt><trkpt lat="41.957462543567615" lon="13.246405061635212"><ele>1462.8333333333333</ele><time>2026-04-24T11:27:11Z</time></trkpt><trkpt lat="41.95751933039404" lon="13.246338803646319"><ele>1463.6666666666665</ele><time>2026-04-24T11:27:13Z</time></trkpt><trkpt lat="41.95763451303714" lon="13.246244424895538"><ele>1464.5</ele><time>2026-04-24T11:27:15Z</time></trkpt><trkpt lat="41.95769683071622" lon="13.246191439411309"><ele>1465.3333333333333</ele><time>2026-04-24T11:27:16Z</time></trkpt><trkpt lat="41.957751508142756" lon="13.24612876663723"><ele>1466.1666666666667</ele><time>2026-04-24T11:27:17Z</time></trkpt><trkpt lat="41.95779693360247" lon="13.246061205169852"><ele>1467.0</ele><time>2026-04-24T11:27:18Z</time></trkpt><trkpt lat="41.957835685734246" lon="13.245993924668218"><ele>1463.7142857142858</ele><time>2026-04-24T11:27:19Z</time></trkpt><trkpt lat="41.95785941162338" lon="13.24591546192144"><ele>1460.4285714285716</ele><time>2026-04-24T11:27:20Z</time></trkpt><trkpt lat="41.95788175143084" lon="13.245826243547903"><ele>1457.1428571428573</ele><time>2026-04-24T11:27:21Z</time></trkpt><trkpt lat="41.9579034326156" lon="13.24573707905202"><ele>1453.857142857143</ele><time>2026-04-24T11:27:22Z</time></trkpt><trkpt lat="41.95792224024402" lon="13.245641587457285"><ele>1450.5714285714284</ele><time>2026-04-24T11:27:23Z</time></trkpt><trkpt lat="41.957932230710924" lon="13.245546457841582"><ele>1447.2857142857144</ele><time>2026-04-24T11:27:24Z</time></trkpt><trkpt lat="41.95794285050595" lon="13.245444912236685"><ele>1444.0</ele><time>2026-04-24T11:27:25Z</time></trkpt><trkpt lat="41.95794363417302" lon="13.245342396259964"><ele>1443.8000000000002</ele><time>2026-04-24T11:27:26Z</time></trkpt><trkpt lat="41.95794422802683" lon="13.24524790735468"><ele>1443.6000000000001</ele><time>2026-04-24T11:27:27Z</time></trkpt><trkpt lat="41.95790251634042" lon="13.245114554755752"><ele>1443.4</ele><time>2026-04-24T11:27:29Z</time></trkpt><trkpt lat="41.957812032594624" lon="13.245007999509927"><ele>1443.2</ele><time>2026-04-24T11:27:31Z</time></trkpt><trkpt lat="41.95772960060496" lon="13.244874580353677"><ele>1443.0</ele><time>2026-04-24T11:27:33Z</time></trkpt><trkpt lat="41.9577100925221" lon="13.244777908989333"><ele>1441.4</ele><time>2026-04-24T11:27:34Z</time></trkpt><trkpt lat="41.95770138574327" lon="13.244664902246988"><ele>1439.8000000000002</ele><time>2026-04-24T11:27:35Z</time></trkpt><trkpt lat="41.95768855110439" lon="13.244506969883075"><ele>1438.2</ele><time>2026-04-24T11:27:36Z</time></trkpt><trkpt lat="41.95766756259204" lon="13.244338477837916"><ele>1436.6</ele><time>2026-04-24T11:27:37Z</time></trkpt><trkpt lat="41.9576460188792" lon="13.24419533265198"><ele>1435.0</ele><time>2026-04-24T11:27:38Z</time></trkpt><trkpt lat="41.95763430110891" lon="13.244075672318733"><ele>1434.2</ele><time>2026-04-24T11:27:39Z</time></trkpt><trkpt lat="41.95762248316585" lon="13.243939398687125"><ele>1433.4</ele><time>2026-04-24T11:27:40Z</time></trkpt><trkpt lat="41.95761404160594" lon="13.243818249155693"><ele>1432.6</ele><time>2026-04-24T11:27:41Z</time></trkpt><trkpt lat="41.95759806766107" lon="13.243716174092697"><ele>1431.8</ele><time>2026-04-24T11:27:42Z</time></trkpt><trkpt lat="41.95753278006444" lon="13.243588921751822"><ele>1431.0</ele><time>2026-04-24T11:27:44Z</time></trkpt><trkpt lat="41.95748789124887" lon="13.243506882696407"><ele>1432.5</ele><time>2026-04-24T11:27:45Z</time></trkpt><trkpt lat="41.957444402633996" lon="13.243422336299112"><ele>1434.0</ele><time>2026-04-24T11:27:46Z</time></trkpt><trkpt lat="41.9574052854211" lon="13.243328231896964"><ele>1435.5</ele><time>2026-04-24T11:27:47Z</time></trkpt><trkpt lat="41.95736877449849" lon="13.243239532731831"><ele>1437.0</ele><time>2026-04-24T11:27:48Z</time></trkpt><trkpt lat="41.95732964081208" lon="13.24316247441995"><ele>1438.5</ele><time>2026-04-24T11:27:49Z</time></trkpt><trkpt lat="41.95725990989801" lon="13.243047372011002"><ele>1440.0</ele><time>2026-04-24T11:27:51Z</time></trkpt><trkpt lat="41.95717133039318" lon="13.242984736011833"><ele>1440.0</ele><time>2026-04-24T11:27:53Z</time></trkpt><trkpt lat="41.95711192678854" lon="13.242949158600856"><ele>1440.0</ele><time>2026-04-24T11:27:54Z</time></trkpt><trkpt lat="41.957049724409806" lon="13.2429013340877"><ele>1440.0</ele><time>2026-04-24T11:27:55Z</time></trkpt><trkpt lat="41.95695625041116" lon="13.242818604401766"><ele>1440.0</ele><time>2026-04-24T11:27:57Z</time></trkpt><trkpt lat="41.95691667383394" lon="13.242714538193512"><ele>1440.0</ele><time>2026-04-24T11:27:59Z</time></trkpt><trkpt lat="41.95690903411936" lon="13.242587260871218"><ele>1440.0</ele><time>2026-04-24T11:28:01Z</time></trkpt><trkpt lat="41.956901402531884" lon="13.242467044539149"><ele>1440.0</ele><time>2026-04-24T11:28:03Z</time></trkpt><trkpt lat="41.95690323773125" lon="13.242306302518822"><ele>1440.0</ele><time>2026-04-24T11:28:05Z</time></trkpt><trkpt lat="41.95691136669941" lon="13.242220217291498"><ele>1440.0</ele><time>2026-04-24T11:28:06Z</time></trkpt><trkpt lat="41.956966786574895" lon="13.242111423256906"><ele>1440.0</ele><time>2026-04-24T11:28:08Z</time></trkpt><trkpt lat="41.95699076995123" lon="13.242016698934457"><ele>1440.0</ele><time>2026-04-24T11:28:10Z</time></trkpt><trkpt lat="41.95684182157294" lon="13.241807390252664"><ele>1440.6</ele><time>2026-04-24T11:28:15.999Z</time></trkpt><trkpt lat="41.9567712968766" lon="13.241742788689676"><ele>1441.2</ele><time>2026-04-24T11:28:17.999Z</time></trkpt><trkpt lat="41.956704303735705" lon="13.241681422073537"><ele>1441.8000000000002</ele><time>2026-04-24T11:28:19.999Z</time></trkpt><trkpt lat="41.95676769262696" lon="13.241739487144363"><ele>1442.4</ele><time>2026-04-24T11:28:26.999Z</time></trkpt><trkpt lat="41.956855673893806" lon="13.241820079179593"><ele>1443.0</ele><time>2026-04-24T11:28:28.999Z</time></trkpt><trkpt lat="41.95701104646609" lon="13.241792232773104"><ele>1443.0</ele><time>2026-04-24T11:28:30.999Z</time></trkpt><trkpt lat="41.9570881292645" lon="13.241744633535669"><ele>1443.0</ele><time>2026-04-24T11:28:31.999Z</time></trkpt><trkpt lat="41.95715369473528" lon="13.241709426937033"><ele>1443.0</ele><time>2026-04-24T11:28:32.999Z</time></trkpt><trkpt lat="41.95721759293708" lon="13.24168966671984"><ele>1443.0</ele><time>2026-04-24T11:28:33.999Z</time></trkpt><trkpt lat="41.95719502281992" lon="13.2414174293755"><ele>1443.0</ele><time>2026-04-24T11:28:34.999Z</time></trkpt><trkpt lat="41.957302531317694" lon="13.241338214427527"><ele>1446.75</ele><time>2026-04-24T11:28:36.999Z</time></trkpt><trkpt lat="41.95746176600266" lon="13.2414594263253"><ele>1450.5</ele><time>2026-04-24T11:28:37.999Z</time></trkpt><trkpt lat="41.95754896399551" lon="13.241408059256175"><ele>1454.25</ele><time>2026-04-24T11:28:38.999Z</time></trkpt><trkpt lat="41.957651892609306" lon="13.241374739898081"><ele>1458.0</ele><time>2026-04-24T11:28:39.999Z</time></trkpt><trkpt lat="41.95778123031746" lon="13.241343960767221"><ele>1458.0</ele><time>2026-04-24T11:28:40.999Z</time></trkpt><trkpt lat="41.95789867405555" lon="13.241243946771156"><ele>1458.0</ele><time>2026-04-24T11:28:41.999Z</time></trkpt><trkpt lat="41.958024438693634" lon="13.241210692677688"><ele>1458.0</ele><time>2026-04-24T11:28:42.999Z</time></trkpt><trkpt lat="41.95814042102485" lon="13.241160362427465"><ele>1458.0</ele><time>2026-04-24T11:28:43.999Z</time></trkpt><trkpt lat="41.958259695879924" lon="13.24110076084732"><ele>1458.0</ele><time>2026-04-24T11:28:44.999Z</time></trkpt><trkpt lat="41.95836466354965" lon="13.241028825435318"><ele>1458.0</ele><time>2026-04-24T11:28:45.999Z</time></trkpt><trkpt lat="41.958455995898355" lon="13.240947701288379"><ele>1458.0</ele><time>2026-04-24T11:28:46.999Z</time></trkpt><trkpt lat="41.95854509317772" lon="13.240869340266425"><ele>1458.0</ele><time>2026-04-24T11:28:47.999Z</time></trkpt><trkpt lat="41.95864548185491" lon="13.240804919409138"><ele>1458.0</ele><time>2026-04-24T11:28:48.999Z</time></trkpt><trkpt lat="41.958730843896845" lon="13.24072839913666"><ele>1459.2</ele><time>2026-04-24T11:28:49.999Z</time></trkpt><trkpt lat="41.95881840116383" lon="13.240647986933382"><ele>1460.4</ele><time>2026-04-24T11:28:50.999Z</time></trkpt><trkpt lat="41.95890284857514" lon="13.240569065299717"><ele>1461.6000000000001</ele><time>2026-04-24T11:28:51.999Z</time></trkpt><trkpt lat="41.958972285834555" lon="13.24047403436663"><ele>1462.8000000000002</ele><time>2026-04-24T11:28:52.999Z</time></trkpt><trkpt lat="41.95904988704607" lon="13.240398620421484"><ele>1464.0</ele><time>2026-04-24T11:28:53.999Z</time></trkpt><trkpt lat="41.95912849730529" lon="13.240339938753413"><ele>1464.8333333333333</ele><time>2026-04-24T11:28:54.999Z</time></trkpt><trkpt lat="41.95920147411217" lon="13.240289570576065"><ele>1465.6666666666667</ele><time>2026-04-24T11:28:55.999Z</time></trkpt><trkpt lat="41.959267996436125" lon="13.24026580810034"><ele>1466.5</ele><time>2026-04-24T11:28:56.999Z</time></trkpt><trkpt lat="41.95939461553987" lon="13.24031982038514"><ele>1467.3333333333335</ele><time>2026-04-24T11:28:58.999Z</time></trkpt><trkpt lat="41.95945317346859" lon="13.240377476335487"><ele>1468.1666666666667</ele><time>2026-04-24T11:28:59.999Z</time></trkpt><trkpt lat="41.95951261514667" lon="13.240456893253693"><ele>1469.0</ele><time>2026-04-24T11:29:00.999Z</time></trkpt><trkpt lat="41.95957837517953" lon="13.240543843877239"><ele>1462.4</ele><time>2026-04-24T11:29:01.999Z</time></trkpt><trkpt lat="41.95965318385496" lon="13.240639272524092"><ele>1455.8000000000002</ele><time>2026-04-24T11:29:02.999Z</time></trkpt><trkpt lat="41.95971531279926" lon="13.240750144211884"><ele>1449.1999999999998</ele><time>2026-04-24T11:29:03.999Z</time></trkpt><trkpt lat="41.95981431409773" lon="13.240821175229016"><ele>1442.6</ele><time>2026-04-24T11:29:04.999Z</time></trkpt><trkpt lat="41.959916111851214" lon="13.240848758892222"><ele>1436.0</ele><time>2026-04-24T11:29:05.999Z</time></trkpt><trkpt lat="41.96001711485881" lon="13.240880690576587"><ele>1433.75</ele><time>2026-04-24T11:29:06.999Z</time></trkpt><trkpt lat="41.96013095541285" lon="13.240889697392143"><ele>1431.5</ele><time>2026-04-24T11:29:07.999Z</time></trkpt><trkpt lat="41.960244102800125" lon="13.24089245700908"><ele>1429.25</ele><time>2026-04-24T11:29:08.999Z</time></trkpt><trkpt lat="41.96035730939321" lon="13.240879237522758"><ele>1427.0</ele><time>2026-04-24T11:29:09.999Z</time></trkpt><trkpt lat="41.960467035257885" lon="13.240859148705985"><ele>1427.0</ele><time>2026-04-24T11:29:10.999Z</time></trkpt><trkpt lat="41.960571885157194" lon="13.240817776909136"><ele>1427.0</ele><time>2026-04-24T11:29:11.999Z</time></trkpt><trkpt lat="41.96067302313665" lon="13.240773260310618"><ele>1427.0</ele><time>2026-04-24T11:29:12.999Z</time></trkpt><trkpt lat="41.960775537450736" lon="13.240731857489484"><ele>1427.0</ele><time>2026-04-24T11:29:13.999Z</time></trkpt><trkpt lat="41.96087801612454" lon="13.24068604293187"><ele>1427.0</ele><time>2026-04-24T11:29:14.999Z</time></trkpt><trkpt lat="41.96097965082413" lon="13.240637241089887"><ele>1427.6</ele><time>2026-04-24T11:29:15.999Z</time></trkpt><trkpt lat="41.96107965571979" lon="13.240591749213634"><ele>1428.1999999999998</ele><time>2026-04-24T11:29:17Z</time></trkpt><trkpt lat="41.96117815081627" lon="13.24054258393151"><ele>1428.8</ele><time>2026-04-24T11:29:18Z</time></trkpt><trkpt lat="41.96127834830125" lon="13.240496948871888"><ele>1429.4</ele><time>2026-04-24T11:29:19Z</time></trkpt><trkpt lat="41.961375904847564" lon="13.240449895561989"><ele>1430.0</ele><time>2026-04-24T11:29:20Z</time></trkpt><trkpt lat="41.961472614898696" lon="13.240395404447115"><ele>1430.0</ele><time>2026-04-24T11:29:21Z</time></trkpt><trkpt lat="41.96156642835849" lon="13.24033290971611"><ele>1430.0</ele><time>2026-04-24T11:29:22Z</time></trkpt><trkpt lat="41.961657398507135" lon="13.240260946436974"><ele>1430.0</ele><time>2026-04-24T11:29:23Z</time></trkpt><trkpt lat="41.96174305628807" lon="13.240178597323276"><ele>1430.0</ele><time>2026-04-24T11:29:24Z</time></trkpt><trkpt lat="41.961831631592496" lon="13.240096332909951"><ele>1430.0</ele><time>2026-04-24T11:29:25Z</time></trkpt><trkpt lat="41.96191396919548" lon="13.240023189804322"><ele>1430.0</ele><time>2026-04-24T11:29:26Z</time></trkpt><trkpt lat="41.962002513093395" lon="13.23996867595723"><ele>1430.0</ele><time>2026-04-24T11:29:27Z</time></trkpt><trkpt lat="41.96208214111186" lon="13.23989639352336"><ele>1430.0</ele><time>2026-04-24T11:29:28Z</time></trkpt><trkpt lat="41.96216040352452" lon="13.239795218778637"><ele>1430.0</ele><time>2026-04-24T11:29:29Z</time></trkpt><trkpt lat="41.96224046863898" lon="13.239723551740447"><ele>1430.0</ele><time>2026-04-24T11:29:30Z</time></trkpt><trkpt lat="41.96232098828354" lon="13.239652305907889"><ele>1430.0</ele><time>2026-04-24T11:29:31Z</time></trkpt><trkpt lat="41.96239878575305" lon="13.23957137065197"><ele>1430.0</ele><time>2026-04-24T11:29:32Z</time></trkpt><trkpt lat="41.96248215255063" lon="13.239499221716192"><ele>1430.0</ele><time>2026-04-24T11:29:33Z</time></trkpt><trkpt lat="41.96256685245655" lon="13.239418441326947"><ele>1430.0</ele><time>2026-04-24T11:29:34Z</time></trkpt><trkpt lat="41.96264153261544" lon="13.239337691177724"><ele>1430.0</ele><time>2026-04-24T11:29:35Z</time></trkpt><trkpt lat="41.96272233363065" lon="13.239245340853437"><ele>1427.6</ele><time>2026-04-24T11:29:36Z</time></trkpt><trkpt lat="41.962803902311414" lon="13.239154150039653"><ele>1425.2</ele><time>2026-04-24T11:29:37Z</time></trkpt><trkpt lat="41.962888223041546" lon="13.239062129941779"><ele>1422.8000000000002</ele><time>2026-04-24T11:29:38Z</time></trkpt><trkpt lat="41.9629687338254" lon="13.238970402406542"><ele>1420.4</ele><time>2026-04-24T11:29:39Z</time></trkpt><trkpt lat="41.9630488098765" lon="13.238878716617485"><ele>1418.0</ele><time>2026-04-24T11:29:40Z</time></trkpt><trkpt lat="41.96312982595352" lon="13.238793348604721"><ele>1418.0</ele><time>2026-04-24T11:29:41Z</time></trkpt><trkpt lat="41.96321022573164" lon="13.238706481496974"><ele>1418.0</ele><time>2026-04-24T11:29:42Z</time></trkpt><trkpt lat="41.9632879622343" lon="13.238614604773838"><ele>1418.0</ele><time>2026-04-24T11:29:43Z</time></trkpt><trkpt lat="41.96336372997957" lon="13.238512014466286"><ele>1418.0</ele><time>2026-04-24T11:29:44Z</time></trkpt><trkpt lat="41.963436234624055" lon="13.238415175250084"><ele>1418.0</ele><time>2026-04-24T11:29:45Z</time></trkpt><trkpt lat="41.963500297639825" lon="13.238312867618605"><ele>1414.6000000000001</ele><time>2026-04-24T11:29:46Z</time></trkpt><trkpt lat="41.96357030012905" lon="13.238216834499754"><ele>1411.2</ele><time>2026-04-24T11:29:47Z</time></trkpt><trkpt lat="41.963637291490855" lon="13.238118026670557"><ele>1407.8</ele><time>2026-04-24T11:29:48Z</time></trkpt><trkpt lat="41.96370831603343" lon="13.238021027683542"><ele>1404.4</ele><time>2026-04-24T11:29:49Z</time></trkpt><trkpt lat="41.963775666354316" lon="13.237923986951708"><ele>1401.0</ele><time>2026-04-24T11:29:50Z</time></trkpt><trkpt lat="41.9638473267128" lon="13.237824823593854"><ele>1401.0</ele><time>2026-04-24T11:29:51Z</time></trkpt><trkpt lat="41.96392331338827" lon="13.237725812080601"><ele>1401.0</ele><time>2026-04-24T11:29:52Z</time></trkpt><trkpt lat="41.963993010659834" lon="13.237623475962419"><ele>1401.0</ele><time>2026-04-24T11:29:53Z</time></trkpt><trkpt lat="41.96404406433467" lon="13.237511977730104"><ele>1401.0</ele><time>2026-04-24T11:29:54Z</time></trkpt><trkpt lat="41.964131240366186" lon="13.237427869856186"><ele>1401.0</ele><time>2026-04-24T11:29:55Z</time></trkpt><trkpt lat="41.964203385511276" lon="13.23732954516288"><ele>1399.0</ele><time>2026-04-24T11:29:56Z</time></trkpt><trkpt lat="41.96428277655462" lon="13.237235994258132"><ele>1397.0</ele><time>2026-04-24T11:29:57Z</time></trkpt><trkpt lat="41.964357112923764" lon="13.23714566160187"><ele>1395.0</ele><time>2026-04-24T11:29:58Z</time></trkpt><trkpt lat="41.96443045028836" lon="13.237058249603242"><ele>1393.0</ele><time>2026-04-24T11:29:59Z</time></trkpt><trkpt lat="41.96451310172619" lon="13.236972161674714"><ele>1391.0</ele><time>2026-04-24T11:30:00Z</time></trkpt><trkpt lat="41.96459540243828" lon="13.236887647679835"><ele>1391.0</ele><time>2026-04-24T11:30:01Z</time></trkpt><trkpt lat="41.96468592472639" lon="13.23679970750945"><ele>1391.0</ele><time>2026-04-24T11:30:02Z</time></trkpt><trkpt lat="41.96477660251398" lon="13.236716703984559"><ele>1391.0</ele><time>2026-04-24T11:30:03Z</time></trkpt><trkpt lat="41.96486392737363" lon="13.236632498839924"><ele>1391.0</ele><time>2026-04-24T11:30:04Z</time></trkpt><trkpt lat="41.96495940210549" lon="13.236568064930347"><ele>1391.0</ele><time>2026-04-24T11:30:05Z</time></trkpt><trkpt lat="41.96504873935179" lon="13.236492212553271"><ele>1390.1999999999998</ele><time>2026-04-24T11:30:06Z</time></trkpt><trkpt lat="41.96512901612363" lon="13.236399335991296"><ele>1389.3999999999999</ele><time>2026-04-24T11:30:07Z</time></trkpt><trkpt lat="41.965226150363634" lon="13.236334486706882"><ele>1388.6</ele><time>2026-04-24T11:30:08Z</time></trkpt><trkpt lat="41.96532093223981" lon="13.236266118012331"><ele>1387.8</ele><time>2026-04-24T11:30:09Z</time></trkpt><trkpt lat="41.965415299796106" lon="13.23622388289251"><ele>1387.0</ele><time>2026-04-24T11:30:10Z</time></trkpt><trkpt lat="41.96551080649629" lon="13.23620805089951"><ele>1387.0</ele><time>2026-04-24T11:30:11Z</time></trkpt><trkpt lat="41.96561534207711" lon="13.236203201707903"><ele>1387.0</ele><time>2026-04-24T11:30:12Z</time></trkpt><trkpt lat="41.965702729971845" lon="13.236185555379729"><ele>1387.0</ele><time>2026-04-24T11:30:13Z</time></trkpt><trkpt lat="41.965790028955595" lon="13.236138131931993"><ele>1387.0</ele><time>2026-04-24T11:30:14Z</time></trkpt><trkpt lat="41.965869073088015" lon="13.236055497116379"><ele>1387.0</ele><time>2026-04-24T11:30:15Z</time></trkpt><trkpt lat="41.9659413639152" lon="13.235964243640248"><ele>1387.6</ele><time>2026-04-24T11:30:16Z</time></trkpt><trkpt lat="41.96600601087167" lon="13.235879036493078"><ele>1388.1999999999998</ele><time>2026-04-24T11:30:17Z</time></trkpt><trkpt lat="41.96607562251257" lon="13.23578997430102"><ele>1388.8</ele><time>2026-04-24T11:30:18Z</time></trkpt><trkpt lat="41.96614777834093" lon="13.23570605965598"><ele>1389.4</ele><time>2026-04-24T11:30:19Z</time></trkpt><trkpt lat="41.966225453525865" lon="13.235645560624405"><ele>1390.0</ele><time>2026-04-24T11:30:19.999Z</time></trkpt><trkpt lat="41.96631038056206" lon="13.235597565869508"><ele>1390.0</ele><time>2026-04-24T11:30:20.999Z</time></trkpt><trkpt lat="41.96641362889333" lon="13.235537752324289"><ele>1390.0</ele><time>2026-04-24T11:30:21.999Z</time></trkpt><trkpt lat="41.966516049449034" lon="13.235492607684396"><ele>1390.0</ele><time>2026-04-24T11:30:22.999Z</time></trkpt><trkpt lat="41.96662163486067" lon="13.235454240874782"><ele>1390.0</ele><time>2026-04-24T11:30:23.999Z</time></trkpt><trkpt lat="41.96671824953996" lon="13.235411769764495"><ele>1390.0</ele><time>2026-04-24T11:30:24.999Z</time></trkpt><trkpt lat="41.96682097671895" lon="13.235373320390922"><ele>1388.3333333333333</ele><time>2026-04-24T11:30:25.999Z</time></trkpt><trkpt lat="41.96692522244673" lon="13.2353437523277"><ele>1386.6666666666665</ele><time>2026-04-24T11:30:26.999Z</time></trkpt><trkpt lat="41.967017986493275" lon="13.235316586589216"><ele>1385.0</ele><time>2026-04-24T11:30:27.999Z</time></trkpt><trkpt lat="41.96709879081158" lon="13.235277877201659"><ele>1383.3333333333333</ele><time>2026-04-24T11:30:28.999Z</time></trkpt><trkpt lat="41.96717541925858" lon="13.235255513078833"><ele>1381.6666666666667</ele><time>2026-04-24T11:30:29.999Z</time></trkpt><trkpt lat="41.96724967401328" lon="13.23525079274276"><ele>1380.0</ele><time>2026-04-24T11:30:30.999Z</time></trkpt><trkpt lat="41.9673256071299" lon="13.235283381944479"><ele>1380.0</ele><time>2026-04-24T11:30:31.999Z</time></trkpt><trkpt lat="41.96739150910922" lon="13.235348902011602"><ele>1380.0</ele><time>2026-04-24T11:30:32.999Z</time></trkpt><trkpt lat="41.96743935825536" lon="13.235438833915433"><ele>1380.0</ele><time>2026-04-24T11:30:33.999Z</time></trkpt><trkpt lat="41.96747644708058" lon="13.235546185484285"><ele>1380.0</ele><time>2026-04-24T11:30:34.999Z</time></trkpt><trkpt lat="41.96750424072519" lon="13.235661327182362"><ele>1380.0</ele><time>2026-04-24T11:30:35.999Z</time></trkpt><trkpt lat="41.967522355141305" lon="13.235780805374839"><ele>1380.0</ele><time>2026-04-24T11:30:36.999Z</time></trkpt><trkpt lat="41.96753469729877" lon="13.235901315926355"><ele>1379.6666666666667</ele><time>2026-04-24T11:30:37.999Z</time></trkpt><trkpt lat="41.96754212858697" lon="13.236027438596558"><ele>1379.3333333333333</ele><time>2026-04-24T11:30:38.999Z</time></trkpt><trkpt lat="41.96755041049983" lon="13.236149768475753"><ele>1379.0</ele><time>2026-04-24T11:30:39.999Z</time></trkpt><trkpt lat="41.967564633858224" lon="13.23626704449749"><ele>1378.6666666666665</ele><time>2026-04-24T11:30:40.999Z</time></trkpt><trkpt lat="41.96756809401971" lon="13.236364819240762"><ele>1378.3333333333333</ele><time>2026-04-24T11:30:41.999Z</time></trkpt><trkpt lat="41.967563289079344" lon="13.236460093875131"><ele>1378.0</ele><time>2026-04-24T11:30:42.999Z</time></trkpt><trkpt lat="41.96757919815779" lon="13.236552687695301"><ele>1375.3333333333333</ele><time>2026-04-24T11:30:43.999Z</time></trkpt><trkpt lat="41.96758850855179" lon="13.236639341547637"><ele>1372.6666666666665</ele><time>2026-04-24T11:30:44.999Z</time></trkpt><trkpt lat="41.96760159947768" lon="13.236744677249279"><ele>1370.0</ele><time>2026-04-24T11:30:45.999Z</time></trkpt><trkpt lat="41.96761446620436" lon="13.236848212011799"><ele>1367.3333333333333</ele><time>2026-04-24T11:30:46.999Z</time></trkpt><trkpt lat="41.96761677971989" lon="13.236951583176568"><ele>1364.6666666666667</ele><time>2026-04-24T11:30:47.999Z</time></trkpt><trkpt lat="41.967653245236505" lon="13.237056862492159"><ele>1362.0</ele><time>2026-04-24T11:30:48.999Z</time></trkpt><trkpt lat="41.967693477942134" lon="13.237166687590864"><ele>1362.0</ele><time>2026-04-24T11:30:49.999Z</time></trkpt><trkpt lat="41.96772947136964" lon="13.2372577986405"><ele>1362.0</ele><time>2026-04-24T11:30:50.999Z</time></trkpt><trkpt lat="41.967782337910656" lon="13.237344774219892"><ele>1362.0</ele><time>2026-04-24T11:30:51.999Z</time></trkpt><trkpt lat="41.96783216658318" lon="13.2374365395131"><ele>1362.0</ele><time>2026-04-24T11:30:52.999Z</time></trkpt><trkpt lat="41.96787993477777" lon="13.237520340927855"><ele>1362.0</ele><time>2026-04-24T11:30:53.999Z</time></trkpt><trkpt lat="41.96792673070269" lon="13.237606909642038"><ele>1362.0</ele><time>2026-04-24T11:30:54.999Z</time></trkpt><trkpt lat="41.967977520542114" lon="13.237681828463803"><ele>1358.6666666666667</ele><time>2026-04-24T11:30:55.999Z</time></trkpt><trkpt lat="41.96802659345147" lon="13.23776138173382"><ele>1355.3333333333333</ele><time>2026-04-24T11:30:56.999Z</time></trkpt><trkpt lat="41.96807215656236" lon="13.237839508728367"><ele>1352.0</ele><time>2026-04-24T11:30:57.999Z</time></trkpt><trkpt lat="41.968122582523506" lon="13.237909861800611"><ele>1348.6666666666665</ele><time>2026-04-24T11:30:58.999Z</time></trkpt><trkpt lat="41.968163747101855" lon="13.237986900932516"><ele>1345.3333333333333</ele><time>2026-04-24T11:30:59.999Z</time></trkpt><trkpt lat="41.96820195027282" lon="13.238055012396272"><ele>1342.0</ele><time>2026-04-24T11:31:00.999Z</time></trkpt><trkpt lat="41.968281659760954" lon="13.238164855377564"><ele>1341.1999999999998</ele><time>2026-04-24T11:31:02.999Z</time></trkpt><trkpt lat="41.96833794057693" lon="13.238288660247417"><ele>1340.4</ele><time>2026-04-24T11:31:04.999Z</time></trkpt><trkpt lat="41.96836246621385" lon="13.23840537057152"><ele>1339.6</ele><time>2026-04-24T11:31:06.999Z</time></trkpt><trkpt lat="41.96833801705485" lon="13.238523029503371"><ele>1338.8000000000002</ele><time>2026-04-24T11:31:08.999Z</time></trkpt><trkpt lat="41.968277869820646" lon="13.238630081111122"><ele>1338.0</ele><time>2026-04-24T11:31:10.999Z</time></trkpt><trkpt lat="41.96819460926827" lon="13.238734648723756"><ele>1336.4</ele><time>2026-04-24T11:31:12.999Z</time></trkpt><trkpt lat="41.96809857866629" lon="13.238797967713097"><ele>1334.8000000000002</ele><time>2026-04-24T11:31:14.999Z</time></trkpt><trkpt lat="41.968002972216034" lon="13.23884198610885"><ele>1333.2</ele><time>2026-04-24T11:31:16.999Z</time></trkpt><trkpt lat="41.96791709577193" lon="13.23890339323578"><ele>1331.6</ele><time>2026-04-24T11:31:18.999Z</time></trkpt><trkpt lat="41.967831649391194" lon="13.23899218789445"><ele>1330.0</ele><time>2026-04-24T11:31:20.999Z</time></trkpt><trkpt lat="41.967758363410276" lon="13.239101412164889"><ele>1330.0</ele><time>2026-04-24T11:31:23Z</time></trkpt><trkpt lat="41.96769499229947" lon="13.239214143461272"><ele>1330.0</ele><time>2026-04-24T11:31:25Z</time></trkpt><trkpt lat="41.96762817040018" lon="13.239340272934529"><ele>1330.0</ele><time>2026-04-24T11:31:27Z</time></trkpt><trkpt lat="41.96757528655445" lon="13.239477206851339"><ele>1330.0</ele><time>2026-04-24T11:31:29Z</time></trkpt><trkpt lat="41.96750640629137" lon="13.239605594077608"><ele>1329.8</ele><time>2026-04-24T11:31:31Z</time></trkpt><trkpt lat="41.9674407463951" lon="13.23972080569877"><ele>1329.6</ele><time>2026-04-24T11:31:33Z</time></trkpt><trkpt lat="41.96743902941412" lon="13.239872919043211"><ele>1329.4</ele><time>2026-04-24T11:31:35Z</time></trkpt><trkpt lat="41.967480752246104" lon="13.239941285689767"><ele>1329.2</ele><time>2026-04-24T11:31:36Z</time></trkpt><trkpt lat="41.96753779175889" lon="13.24008120310198"><ele>1329.0</ele><time>2026-04-24T11:31:38Z</time></trkpt><trkpt lat="41.967587467932475" lon="13.240214100342506"><ele>1328.2</ele><time>2026-04-24T11:31:40Z</time></trkpt><trkpt lat="41.9676106952703" lon="13.24034156439091"><ele>1327.4</ele><time>2026-04-24T11:31:42Z</time></trkpt><trkpt lat="41.96758490258394" lon="13.240449707892173"><ele>1326.6</ele><time>2026-04-24T11:31:44Z</time></trkpt><trkpt lat="41.96751087533256" lon="13.240534776095252"><ele>1325.8</ele><time>2026-04-24T11:31:47Z</time></trkpt><trkpt lat="41.96744716817216" lon="13.240626058229127"><ele>1325.0</ele><time>2026-04-24T11:31:49Z</time></trkpt><trkpt lat="41.96739314070494" lon="13.240736593820763"><ele>1324.1666666666667</ele><time>2026-04-24T11:31:51Z</time></trkpt><trkpt lat="41.96733480687472" lon="13.240827439036009"><ele>1323.3333333333335</ele><time>2026-04-24T11:31:53Z</time></trkpt><trkpt lat="41.96728296658458" lon="13.2409213821589"><ele>1322.5</ele><time>2026-04-24T11:31:55Z</time></trkpt><trkpt lat="41.96722872987349" lon="13.241020872910767"><ele>1321.6666666666667</ele><time>2026-04-24T11:31:57Z</time></trkpt><trkpt lat="41.96717640448647" lon="13.241121745913812"><ele>1320.8333333333333</ele><time>2026-04-24T11:31:59Z</time></trkpt><trkpt lat="41.96712797396915" lon="13.241223784588616"><ele>1320.0</ele><time>2026-04-24T11:32:01Z</time></trkpt><trkpt lat="41.96706895816149" lon="13.24130582831628"><ele>1320.0</ele><time>2026-04-24T11:32:03Z</time></trkpt><trkpt lat="41.966990221740346" lon="13.24138906036815"><ele>1320.0</ele><time>2026-04-24T11:32:05Z</time></trkpt><trkpt lat="41.96690352002452" lon="13.241476739328059"><ele>1320.0</ele><time>2026-04-24T11:32:07Z</time></trkpt><trkpt lat="41.966825978506044" lon="13.241572135122611"><ele>1320.0</ele><time>2026-04-24T11:32:09Z</time></trkpt><trkpt lat="41.96674461660795" lon="13.241706877883276"><ele>1320.0</ele><time>2026-04-24T11:32:11Z</time></trkpt><trkpt lat="41.966690793251615" lon="13.24176400208664"><ele>1320.0</ele><time>2026-04-24T11:32:12Z</time></trkpt><trkpt lat="41.96664537990285" lon="13.241840169333798"><ele>1320.0</ele><time>2026-04-24T11:32:13Z</time></trkpt><trkpt lat="41.96660087923679" lon="13.241906884443218"><ele>1320.0</ele><time>2026-04-24T11:32:13.999Z</time></trkpt><trkpt lat="41.96651501321841" lon="13.242001830825863"><ele>1320.0</ele><time>2026-04-24T11:32:15.999Z</time></trkpt><trkpt lat="41.966418696817655" lon="13.242059938301033"><ele>1320.0</ele><time>2026-04-24T11:32:17.999Z</time></trkpt><trkpt lat="41.96631531966003" lon="13.242159915263976"><ele>1320.0000000000002</ele><time>2026-04-24T11:32:19.999Z</time></trkpt><trkpt lat="41.966264472931904" lon="13.242220861164693"><ele>1320.0</ele><time>2026-04-24T11:32:20.999Z</time></trkpt><trkpt lat="41.966218724169416" lon="13.242283470065573"><ele>1320.0</ele><time>2026-04-24T11:32:21.999Z</time></trkpt><trkpt lat="41.966170395251886" lon="13.242348471843195"><ele>1320.0</ele><time>2026-04-24T11:32:22.999Z</time></trkpt><trkpt lat="41.96611921601631" lon="13.242417307398522"><ele>1320.0</ele><time>2026-04-24T11:32:23.999Z</time></trkpt><trkpt lat="41.96606639276746" lon="13.242480558918086"><ele>1320.0000000000002</ele><time>2026-04-24T11:32:24.999Z</time></trkpt><trkpt lat="41.96600340875025" lon="13.24253062381248"><ele>1320.0</ele><time>2026-04-24T11:32:25.999Z</time></trkpt><trkpt lat="41.96593286016992" lon="13.242573709577599"><ele>1320.5</ele><time>2026-04-24T11:32:26.999Z</time></trkpt><trkpt lat="41.96584768923797" lon="13.24262037771723"><ele>1321.0</ele><time>2026-04-24T11:32:27.999Z</time></trkpt><trkpt lat="41.96576804405281" lon="13.24265877465657"><ele>1321.5</ele><time>2026-04-24T11:32:28.999Z</time></trkpt><trkpt lat="41.965682702463326" lon="13.242698371676457"><ele>1322.0</ele><time>2026-04-24T11:32:29.999Z</time></trkpt><trkpt lat="41.96560013919831" lon="13.242731838580985"><ele>1322.5</ele><time>2026-04-24T11:32:30.999Z</time></trkpt><trkpt lat="41.96552818808907" lon="13.242753641197494"><ele>1323.0</ele><time>2026-04-24T11:32:31.999Z</time></trkpt><trkpt lat="41.96544026549053" lon="13.2427580777558"><ele>1323.0</ele><time>2026-04-24T11:32:32.999Z</time></trkpt><trkpt lat="41.965360042653614" lon="13.242755279844387"><ele>1323.0</ele><time>2026-04-24T11:32:33.999Z</time></trkpt><trkpt lat="41.96526537130506" lon="13.242751019224256"><ele>1323.0</ele><time>2026-04-24T11:32:34.999Z</time></trkpt><trkpt lat="41.96516404448647" lon="13.242748186875138"><ele>1323.0</ele><time>2026-04-24T11:32:35.999Z</time></trkpt><trkpt lat="41.96505237328194" lon="13.242759014961873"><ele>1323.0</ele><time>2026-04-24T11:32:36.999Z</time></trkpt><trkpt lat="41.96494407067648" lon="13.242805286221227"><ele>1322.75</ele><time>2026-04-24T11:32:37.999Z</time></trkpt><trkpt lat="41.96480306758653" lon="13.242840176791505"><ele>1322.5</ele><time>2026-04-24T11:32:38.999Z</time></trkpt><trkpt lat="41.964661763805516" lon="13.24284132289147"><ele>1322.25</ele><time>2026-04-24T11:32:39.999Z</time></trkpt><trkpt lat="41.96450769199855" lon="13.242845195785376"><ele>1322.0</ele><time>2026-04-24T11:32:40.999Z</time></trkpt><trkpt lat="41.964327902317514" lon="13.242862527086066"><ele>1323.6666666666667</ele><time>2026-04-24T11:32:41.999Z</time></trkpt><trkpt lat="41.96415839469267" lon="13.242886400889327"><ele>1325.3333333333333</ele><time>2026-04-24T11:32:42.999Z</time></trkpt><trkpt lat="41.96398741147688" lon="13.242915422207043"><ele>1327.0</ele><time>2026-04-24T11:32:43.999Z</time></trkpt><trkpt lat="41.9638231179144" lon="13.242952768250746"><ele>1327.0</ele><time>2026-04-24T11:32:44.999Z</time></trkpt><trkpt lat="41.9636663943056" lon="13.242987183830328"><ele>1327.0</ele><time>2026-04-24T11:32:45.999Z</time></trkpt><trkpt lat="41.96350831769849" lon="13.243005622589981"><ele>1327.0</ele><time>2026-04-24T11:32:46.999Z</time></trkpt><trkpt lat="41.96335771074312" lon="13.243019753262251"><ele>1329.0</ele><time>2026-04-24T11:32:47.999Z</time></trkpt><trkpt lat="41.96320859593061" lon="13.243046867610802"><ele>1331.0</ele><time>2026-04-24T11:32:48.999Z</time></trkpt><trkpt lat="41.963067731687815" lon="13.243056803527868"><ele>1333.0</ele><time>2026-04-24T11:32:49.999Z</time></trkpt><trkpt lat="41.962937919411935" lon="13.243039286915463"><ele>1335.0</ele><time>2026-04-24T11:32:50.999Z</time></trkpt><trkpt lat="41.96282788326776" lon="13.24306677800924"><ele>1335.0</ele><time>2026-04-24T11:32:51.999Z</time></trkpt><trkpt lat="41.96272297510489" lon="13.243061204938819"><ele>1335.0</ele><time>2026-04-24T11:32:52.999Z</time></trkpt><trkpt lat="41.96261442424241" lon="13.243070795490542"><ele>1335.0</ele><time>2026-04-24T11:32:53.999Z</time></trkpt><trkpt lat="41.96252466863073" lon="13.243072714594208"><ele>1335.0</ele><time>2026-04-24T11:32:54.999Z</time></trkpt><trkpt lat="41.9624530702545" lon="13.243079107890908"><ele>1335.0</ele><time>2026-04-24T11:32:55.999Z</time></trkpt><trkpt lat="41.962379214241814" lon="13.24307027833175"><ele>1335.0</ele><time>2026-04-24T11:32:56.999Z</time></trkpt><trkpt lat="41.96225310956466" lon="13.243119451272076"><ele>1337.8333333333333</ele><time>2026-04-24T11:32:58.999Z</time></trkpt><trkpt lat="41.96220757491865" lon="13.243181416795101"><ele>1340.6666666666667</ele><time>2026-04-24T11:32:59.999Z</time></trkpt><trkpt lat="41.9622272544989" lon="13.243301631940708"><ele>1343.5</ele><time>2026-04-24T11:33:00.999Z</time></trkpt><trkpt lat="41.96222595427633" lon="13.243391084448897"><ele>1346.3333333333335</ele><time>2026-04-24T11:33:01.999Z</time></trkpt><trkpt lat="41.96220877972165" lon="13.243481831473403"><ele>1349.1666666666667</ele><time>2026-04-24T11:33:02.999Z</time></trkpt><trkpt lat="41.962162908529805" lon="13.24363559695882"><ele>1352.0</ele><time>2026-04-24T11:33:04.999Z</time></trkpt><trkpt lat="41.96212596773743" lon="13.2437242119916"><ele>1352.0</ele><time>2026-04-24T11:33:05.999Z</time></trkpt><trkpt lat="41.962088108881666" lon="13.243816647035633"><ele>1352.0</ele><time>2026-04-24T11:33:06.999Z</time></trkpt><trkpt lat="41.962054036139826" lon="13.243906954902656"><ele>1352.0</ele><time>2026-04-24T11:33:07.999Z</time></trkpt><trkpt lat="41.96203024576592" lon="13.243985624063779"><ele>1352.0</ele><time>2026-04-24T11:33:08.999Z</time></trkpt><trkpt lat="41.96203397213817" lon="13.244139660716977"><ele>1352.0</ele><time>2026-04-24T11:33:10.999Z</time></trkpt><trkpt lat="41.96211283542361" lon="13.244248635016014"><ele>1352.0</ele><time>2026-04-24T11:33:12.999Z</time></trkpt><trkpt lat="41.962182436601026" lon="13.244263918572466"><ele>1351.8333333333335</ele><time>2026-04-24T11:33:13.999Z</time></trkpt><trkpt lat="41.96225441928994" lon="13.244247262416195"><ele>1351.6666666666667</ele><time>2026-04-24T11:33:14.999Z</time></trkpt><trkpt lat="41.96231750986834" lon="13.244258924894348"><ele>1351.5</ele><time>2026-04-24T11:33:15.999Z</time></trkpt><trkpt lat="41.96237979324575" lon="13.244281380054474"><ele>1351.3333333333333</ele><time>2026-04-24T11:33:16.999Z</time></trkpt><trkpt lat="41.962504275871716" lon="13.244292356341878"><ele>1351.1666666666665</ele><time>2026-04-24T11:33:18.999Z</time></trkpt><trkpt lat="41.9625681543544" lon="13.244271569029623"><ele>1351.0</ele><time>2026-04-24T11:33:19.999Z</time></trkpt><trkpt lat="41.96269610912266" lon="13.244264021154834"><ele>1348.6666666666665</ele><time>2026-04-24T11:33:21.999Z</time></trkpt><trkpt lat="41.96281033160098" lon="13.244338857519317"><ele>1346.3333333333333</ele><time>2026-04-24T11:33:23.999Z</time></trkpt><trkpt lat="41.96285858103078" lon="13.244400946279049"><ele>1344.0</ele><time>2026-04-24T11:33:24.999Z</time></trkpt><trkpt lat="41.962907274038976" lon="13.24446385251476"><ele>1341.6666666666667</ele><time>2026-04-24T11:33:25.999Z</time></trkpt><trkpt lat="41.9629648569573" lon="13.244520066781794"><ele>1339.3333333333335</ele><time>2026-04-24T11:33:26.999Z</time></trkpt><trkpt lat="41.963026724597455" lon="13.244579472654467"><ele>1337.0</ele><time>2026-04-24T11:33:27.999Z</time></trkpt><trkpt lat="41.96309963357936" lon="13.244594460246207"><ele>1337.0</ele><time>2026-04-24T11:33:29Z</time></trkpt><trkpt lat="41.96314973718143" lon="13.244648044870972"><ele>1337.0</ele><time>2026-04-24T11:33:30Z</time></trkpt><trkpt lat="41.963252578843075" lon="13.244706500428416"><ele>1337.0</ele><time>2026-04-24T11:33:32Z</time></trkpt><trkpt lat="41.963344883521195" lon="13.24475014401409"><ele>1337.0</ele><time>2026-04-24T11:33:34Z</time></trkpt><trkpt lat="41.963413156128155" lon="13.244782335064514"><ele>1337.0</ele><time>2026-04-24T11:33:36Z</time></trkpt><trkpt lat="41.96365011470402" lon="13.244679346894257"><ele>1340.5</ele><time>2026-04-24T11:33:38Z</time></trkpt><trkpt lat="41.96355021277011" lon="13.245268149407524"><ele>1344.0</ele><time>2026-04-24T11:33:47Z</time></trkpt><trkpt lat="41.963531628334955" lon="13.245376287590174"><ele>1344.0</ele><time>2026-04-24T11:33:56Z</time></trkpt></trkseg><trkseg><trkpt lat="41.96340683137127" lon="13.245368258450721"><ele>1344.0</ele><time>2026-04-24T12:37:58.673Z</time></trkpt><trkpt lat="41.96346522675998" lon="13.245407909351965"><ele>1344.0</ele><time>2026-04-24T12:38:01.673Z</time></trkpt><trkpt lat="41.96343522919655" lon="13.245498159126809"><ele>1344.0</ele><time>2026-04-24T12:38:25Z</time></trkpt><trkpt lat="41.96352491574315" lon="13.245557083934413"><ele>1344.0</ele><time>2026-04-24T12:38:28Z</time></trkpt><trkpt lat="41.96358688168097" lon="13.2455848931952"><ele>1344.0</ele><time>2026-04-24T12:38:30Z</time></trkpt><trkpt lat="41.96367281587948" lon="13.245593045705387"><ele>1344.0</ele><time>2026-04-24T12:38:32Z</time></trkpt><trkpt lat="41.96375356798692" lon="13.245564687136563"><ele>1344.0</ele><time>2026-04-24T12:38:34Z</time></trkpt><trkpt lat="41.96382057902079" lon="13.245524786166502"><ele>1344.0</ele><time>2026-04-24T12:38:36Z</time></trkpt><trkpt lat="41.96388964714969" lon="13.24552101734679"><ele>1344.0</ele><time>2026-04-24T12:38:38Z</time></trkpt><trkpt lat="41.96395508514068" lon="13.24553216618524"><ele>1344.0</ele><time>2026-04-24T12:38:40Z</time></trkpt><trkpt lat="41.964032070549386" lon="13.245526324050779"><ele>1344.0</ele><time>2026-04-24T12:38:42Z</time></trkpt><trkpt lat="41.964121609524646" lon="13.245510620387606"><ele>1344.0</ele><time>2026-04-24T12:38:44Z</time></trkpt><trkpt lat="41.9642068404487" lon="13.245507333544003"><ele>1343.5</ele><time>2026-04-24T12:38:46Z</time></trkpt><trkpt lat="41.9642998518019" lon="13.245506892194053"><ele>1343.0</ele><time>2026-04-24T12:38:47.999Z</time></trkpt><trkpt lat="41.96441451596897" lon="13.245520209910708"><ele>1342.5</ele><time>2026-04-24T12:38:49.999Z</time></trkpt><trkpt lat="41.96448713278493" lon="13.245524979755748"><ele>1342.0</ele><time>2026-04-24T12:38:50.999Z</time></trkpt><trkpt lat="41.96456748800214" lon="13.24552662772705"><ele>1341.5</ele><time>2026-04-24T12:38:51.999Z</time></trkpt><trkpt lat="41.96465351722989" lon="13.245536537189032"><ele>1341.0</ele><time>2026-04-24T12:38:52.999Z</time></trkpt><trkpt lat="41.96473900140228" lon="13.245542586255123"><ele>1341.0</ele><time>2026-04-24T12:38:53.999Z</time></trkpt><trkpt lat="41.964818568392545" lon="13.245555539779259"><ele>1341.0</ele><time>2026-04-24T12:38:54.999Z</time></trkpt><trkpt lat="41.96489694372637" lon="13.245569714607543"><ele>1341.0</ele><time>2026-04-24T12:38:55.999Z</time></trkpt><trkpt lat="41.96496869978899" lon="13.24558587513876"><ele>1341.0</ele><time>2026-04-24T12:38:56.999Z</time></trkpt><trkpt lat="41.965112899011444" lon="13.245567830614956"><ele>1341.0</ele><time>2026-04-24T12:38:58.999Z</time></trkpt><trkpt lat="41.96519310200807" lon="13.245564042014147"><ele>1339.7142857142858</ele><time>2026-04-24T12:38:59.999Z</time></trkpt><trkpt lat="41.96526102543828" lon="13.245553362816803"><ele>1338.4285714285716</ele><time>2026-04-24T12:39:00.999Z</time></trkpt><trkpt lat="41.96532500362757" lon="13.245535804361033"><ele>1337.1428571428573</ele><time>2026-04-24T12:39:01.999Z</time></trkpt><trkpt lat="41.96538849156683" lon="13.245515228244512"><ele>1335.857142857143</ele><time>2026-04-24T12:39:02.999Z</time></trkpt><trkpt lat="41.96545214192223" lon="13.245486394679363"><ele>1334.5714285714284</ele><time>2026-04-24T12:39:03.999Z</time></trkpt><trkpt lat="41.96551645267402" lon="13.245451884437283"><ele>1333.2857142857144</ele><time>2026-04-24T12:39:04.999Z</time></trkpt><trkpt lat="41.965614573876515" lon="13.24542767148065"><ele>1332.0</ele><time>2026-04-24T12:39:06.999Z</time></trkpt><trkpt lat="41.96573252831591" lon="13.245464066720517"><ele>1332.0</ele><time>2026-04-24T12:39:08.999Z</time></trkpt><trkpt lat="41.965794603850014" lon="13.245497294662467"><ele>1332.0</ele><time>2026-04-24T12:39:09.999Z</time></trkpt><trkpt lat="41.965875262248915" lon="13.245528520382472"><ele>1332.0</ele><time>2026-04-24T12:39:10.999Z</time></trkpt><trkpt lat="41.96596027381265" lon="13.245543211965497"><ele>1332.0</ele><time>2026-04-24T12:39:11.999Z</time></trkpt><trkpt lat="41.96604253446215" lon="13.245542681213687"><ele>1332.0</ele><time>2026-04-24T12:39:12.999Z</time></trkpt><trkpt lat="41.966127473662375" lon="13.245518734154949"><ele>1332.0</ele><time>2026-04-24T12:39:13.999Z</time></trkpt><trkpt lat="41.96621954222849" lon="13.24549073424052"><ele>1331.5</ele><time>2026-04-24T12:39:14.999Z</time></trkpt><trkpt lat="41.9662971738928" lon="13.24547469259043"><ele>1331.0</ele><time>2026-04-24T12:39:15.999Z</time></trkpt><trkpt lat="41.96637900498093" lon="13.245463815880791"><ele>1330.5</ele><time>2026-04-24T12:39:16.999Z</time></trkpt><trkpt lat="41.966458032238044" lon="13.245449440352811"><ele>1330.0</ele><time>2026-04-24T12:39:17.999Z</time></trkpt><trkpt lat="41.9665370868617" lon="13.245429310981681"><ele>1329.5</ele><time>2026-04-24T12:39:18.999Z</time></trkpt><trkpt lat="41.96660868728063" lon="13.245411098012044"><ele>1329.0</ele><time>2026-04-24T12:39:19.999Z</time></trkpt><trkpt lat="41.966672346528696" lon="13.245385682821787"><ele>1330.0</ele><time>2026-04-24T12:39:20.999Z</time></trkpt><trkpt lat="41.96673392797625" lon="13.245362441848561"><ele>1331.0</ele><time>2026-04-24T12:39:21.999Z</time></trkpt><trkpt lat="41.966823755572115" lon="13.245333945064464"><ele>1332.0</ele><time>2026-04-24T12:39:23.999Z</time></trkpt><trkpt lat="41.9669109491535" lon="13.245365650575778"><ele>1333.0</ele><time>2026-04-24T12:39:25.999Z</time></trkpt><trkpt lat="41.966985594351044" lon="13.245459088146927"><ele>1334.0</ele><time>2026-04-24T12:39:27.999Z</time></trkpt><trkpt lat="41.96705509664181" lon="13.245573835389958"><ele>1333.8000000000002</ele><time>2026-04-24T12:39:29.999Z</time></trkpt><trkpt lat="41.96715422643068" lon="13.245645608560489"><ele>1333.6000000000001</ele><time>2026-04-24T12:39:31.999Z</time></trkpt><trkpt lat="41.96726040046631" lon="13.24567981428385"><ele>1333.4</ele><time>2026-04-24T12:39:33.999Z</time></trkpt><trkpt lat="41.96731732268536" lon="13.245766724870117"><ele>1333.2</ele><time>2026-04-24T12:39:35.999Z</time></trkpt><trkpt lat="41.967329217806935" lon="13.245886076928391"><ele>1333.0</ele><time>2026-04-24T12:39:37.999Z</time></trkpt><trkpt lat="41.96730360480747" lon="13.246027746511606"><ele>1333.0</ele><time>2026-04-24T12:39:39.999Z</time></trkpt><trkpt lat="41.96728204716259" lon="13.246111892247972"><ele>1333.0</ele><time>2026-04-24T12:39:40.999Z</time></trkpt><trkpt lat="41.96726521828382" lon="13.246206185194113"><ele>1333.0</ele><time>2026-04-24T12:39:41.999Z</time></trkpt><trkpt lat="41.967252388353295" lon="13.246315455805776"><ele>1333.0</ele><time>2026-04-24T12:39:42.999Z</time></trkpt><trkpt lat="41.967247794081906" lon="13.246416770734989"><ele>1333.0</ele><time>2026-04-24T12:39:43.999Z</time></trkpt><trkpt lat="41.96723969266718" lon="13.246531884434853"><ele>1333.0</ele><time>2026-04-24T12:39:44.999Z</time></trkpt><trkpt lat="41.96723704559217" lon="13.246643155990153"><ele>1333.0</ele><time>2026-04-24T12:39:45.999Z</time></trkpt><trkpt lat="41.967231911243196" lon="13.246762779576974"><ele>1333.0</ele><time>2026-04-24T12:39:46.999Z</time></trkpt><trkpt lat="41.96722510548866" lon="13.246874751065567"><ele>1333.0</ele><time>2026-04-24T12:39:47.999Z</time></trkpt><trkpt lat="41.96721203348035" lon="13.246993200165582"><ele>1333.0</ele><time>2026-04-24T12:39:48.999Z</time></trkpt><trkpt lat="41.967197791562825" lon="13.247123372204276"><ele>1333.0</ele><time>2026-04-24T12:39:49.999Z</time></trkpt><trkpt lat="41.967186521636314" lon="13.247244819422875"><ele>1333.6666666666665</ele><time>2026-04-24T12:39:50.999Z</time></trkpt><trkpt lat="41.96718285294925" lon="13.247341347406934"><ele>1334.3333333333333</ele><time>2026-04-24T12:39:51.999Z</time></trkpt><trkpt lat="41.96717356475023" lon="13.247438782811416"><ele>1335.0</ele><time>2026-04-24T12:39:52.999Z</time></trkpt><trkpt lat="41.967163747346554" lon="13.247575150670603"><ele>1335.6666666666667</ele><time>2026-04-24T12:39:54.999Z</time></trkpt><trkpt lat="41.96718139073967" lon="13.247706932921574"><ele>1336.3333333333335</ele><time>2026-04-24T12:39:56.999Z</time></trkpt><trkpt lat="41.9672467218356" lon="13.24780982753068"><ele>1337.0</ele><time>2026-04-24T12:39:58.999Z</time></trkpt><trkpt lat="41.96732952275866" lon="13.247851937404413"><ele>1337.0</ele><time>2026-04-24T12:40:00.999Z</time></trkpt><trkpt lat="41.96739271187173" lon="13.247874063587977"><ele>1337.0</ele><time>2026-04-24T12:40:01.999Z</time></trkpt><trkpt lat="41.967465079855124" lon="13.247874241534685"><ele>1337.0</ele><time>2026-04-24T12:40:02.999Z</time></trkpt><trkpt lat="41.96755056540014" lon="13.247880676093226"><ele>1337.0</ele><time>2026-04-24T12:40:03.999Z</time></trkpt><trkpt lat="41.96762988743587" lon="13.247907386046734"><ele>1337.0</ele><time>2026-04-24T12:40:04.999Z</time></trkpt><trkpt lat="41.96769472147714" lon="13.24793999022347"><ele>1337.0</ele><time>2026-04-24T12:40:05.999Z</time></trkpt><trkpt lat="41.967761384835505" lon="13.247977687730609"><ele>1337.0</ele><time>2026-04-24T12:40:06.999Z</time></trkpt><trkpt lat="41.96783726142012" lon="13.248068587925804"><ele>1334.3999999999999</ele><time>2026-04-24T12:40:09Z</time></trkpt><trkpt lat="41.967872803911575" lon="13.248194683786041"><ele>1331.8</ele><time>2026-04-24T12:40:11Z</time></trkpt><trkpt lat="41.96785862656615" lon="13.248362064800702"><ele>1329.2</ele><time>2026-04-24T12:40:13Z</time></trkpt><trkpt lat="41.96784238178227" lon="13.248451305432953"><ele>1326.6</ele><time>2026-04-24T12:40:14Z</time></trkpt><trkpt lat="41.967826942306615" lon="13.248626760684067"><ele>1324.0</ele><time>2026-04-24T12:40:16Z</time></trkpt><trkpt lat="41.96783783701494" lon="13.248722363861836"><ele>1324.0</ele><time>2026-04-24T12:40:17Z</time></trkpt><trkpt lat="41.967856189490576" lon="13.248812035283635"><ele>1324.0</ele><time>2026-04-24T12:40:18Z</time></trkpt><trkpt lat="41.96787745438077" lon="13.24889926399267"><ele>1324.0</ele><time>2026-04-24T12:40:19Z</time></trkpt><trkpt lat="41.96791225054161" lon="13.249050307307943"><ele>1324.0</ele><time>2026-04-24T12:40:20.999Z</time></trkpt><trkpt lat="41.96792150452288" lon="13.249145921147518"><ele>1324.0</ele><time>2026-04-24T12:40:21.999Z</time></trkpt><trkpt lat="41.96791400133312" lon="13.249246560972406"><ele>1324.0</ele><time>2026-04-24T12:40:22.999Z</time></trkpt><trkpt lat="41.96791276477598" lon="13.249351261646042"><ele>1323.8333333333333</ele><time>2026-04-24T12:40:23.999Z</time></trkpt><trkpt lat="41.967918736035585" lon="13.249452607096242"><ele>1323.6666666666665</ele><time>2026-04-24T12:40:24.999Z</time></trkpt><trkpt lat="41.96792594479105" lon="13.249563026702496"><ele>1323.5</ele><time>2026-04-24T12:40:25.999Z</time></trkpt><trkpt lat="41.9679402751964" lon="13.24967604749578"><ele>1323.3333333333333</ele><time>2026-04-24T12:40:26.999Z</time></trkpt><trkpt lat="41.967974790566565" lon="13.249770933964758"><ele>1323.1666666666667</ele><time>2026-04-24T12:40:27.999Z</time></trkpt><trkpt lat="41.9680153900769" lon="13.249894997756465"><ele>1323.0</ele><time>2026-04-24T12:40:28.999Z</time></trkpt><trkpt lat="41.96804366738984" lon="13.25000083119402"><ele>1324.0</ele><time>2026-04-24T12:40:29.999Z</time></trkpt><trkpt lat="41.96805712067498" lon="13.250097767311628"><ele>1325.0</ele><time>2026-04-24T12:40:30.999Z</time></trkpt><trkpt lat="41.96804924754688" lon="13.250197048670938"><ele>1326.0</ele><time>2026-04-24T12:40:31.999Z</time></trkpt><trkpt lat="41.96803072653642" lon="13.250295758665265"><ele>1327.0</ele><time>2026-04-24T12:40:32.999Z</time></trkpt><trkpt lat="41.96802334046601" lon="13.250383034942418"><ele>1328.0</ele><time>2026-04-24T12:40:33.999Z</time></trkpt><trkpt lat="41.96806083743961" lon="13.250542833184552"><ele>1329.0</ele><time>2026-04-24T12:40:35.999Z</time></trkpt><trkpt lat="41.96808373535897" lon="13.250628681660114"><ele>1329.25</ele><time>2026-04-24T12:40:36.999Z</time></trkpt><trkpt lat="41.968104267681746" lon="13.25077424008428"><ele>1329.5</ele><time>2026-04-24T12:40:38.999Z</time></trkpt><trkpt lat="41.96809154804367" lon="13.250935048213455"><ele>1329.75</ele><time>2026-04-24T12:40:40.999Z</time></trkpt><trkpt lat="41.968067352263674" lon="13.251091105154023"><ele>1330.0</ele><time>2026-04-24T12:40:42.999Z</time></trkpt><trkpt lat="41.96806014994214" lon="13.251241539723296"><ele>1330.0</ele><time>2026-04-24T12:40:44.999Z</time></trkpt><trkpt lat="41.96801532336761" lon="13.251412345854755"><ele>1330.0</ele><time>2026-04-24T12:40:46.999Z</time></trkpt><trkpt lat="41.96799082840127" lon="13.251496729336056"><ele>1330.0</ele><time>2026-04-24T12:40:47.999Z</time></trkpt><trkpt lat="41.967962829701236" lon="13.251587738862561"><ele>1330.0</ele><time>2026-04-24T12:40:48.999Z</time></trkpt><trkpt lat="41.96793302036184" lon="13.251678613630679"><ele>1330.0</ele><time>2026-04-24T12:40:49.999Z</time></trkpt><trkpt lat="41.96790586357729" lon="13.25177090354114"><ele>1330.0</ele><time>2026-04-24T12:40:50.999Z</time></trkpt><trkpt lat="41.967886170278234" lon="13.251856086123464"><ele>1328.2</ele><time>2026-04-24T12:40:51.999Z</time></trkpt><trkpt lat="41.96784008931337" lon="13.25198412564695"><ele>1326.4</ele><time>2026-04-24T12:40:53.999Z</time></trkpt><trkpt lat="41.9677743703823" lon="13.252140414875866"><ele>1324.6</ele><time>2026-04-24T12:40:55.999Z</time></trkpt><trkpt lat="41.96773692580973" lon="13.25221630405406"><ele>1322.8</ele><time>2026-04-24T12:40:56.999Z</time></trkpt><trkpt lat="41.96769948226896" lon="13.2522931370416"><ele>1321.0</ele><time>2026-04-24T12:40:57.999Z</time></trkpt><trkpt lat="41.96763554066657" lon="13.2524233871785"><ele>1317.4</ele><time>2026-04-24T12:40:59.999Z</time></trkpt><trkpt lat="41.96759985932913" lon="13.2525546012704"><ele>1313.8</ele><time>2026-04-24T12:41:01.999Z</time></trkpt><trkpt lat="41.967603043420105" lon="13.252696098781213"><ele>1310.2</ele><time>2026-04-24T12:41:03.999Z</time></trkpt><trkpt lat="41.96761804744778" lon="13.252846777590108"><ele>1306.6000000000001</ele><time>2026-04-24T12:41:05.999Z</time></trkpt><trkpt lat="41.96764598513059" lon="13.252981078162362"><ele>1303.0</ele><time>2026-04-24T12:41:07.999Z</time></trkpt><trkpt lat="41.96768505862439" lon="13.253128543247483"><ele>1302.8000000000002</ele><time>2026-04-24T12:41:09.999Z</time></trkpt><trkpt lat="41.9677176733687" lon="13.253279514046193"><ele>1302.6</ele><time>2026-04-24T12:41:11.999Z</time></trkpt><trkpt lat="41.96771622178834" lon="13.253424017857757"><ele>1302.4</ele><time>2026-04-24T12:41:13.999Z</time></trkpt><trkpt lat="41.96770200575198" lon="13.25358059281327"><ele>1302.1999999999998</ele><time>2026-04-24T12:41:15.999Z</time></trkpt><trkpt lat="41.96766896566199" lon="13.253695841113064"><ele>1302.0</ele><time>2026-04-24T12:41:17.999Z</time></trkpt><trkpt lat="41.96765711767633" lon="13.253840766635768"><ele>1303.3333333333333</ele><time>2026-04-24T12:41:19.999Z</time></trkpt><trkpt lat="41.96766121551918" lon="13.254007471227299"><ele>1304.6666666666667</ele><time>2026-04-24T12:41:21.999Z</time></trkpt><trkpt lat="41.96765582524897" lon="13.254156900553573"><ele>1306.0</ele><time>2026-04-24T12:41:23.999Z</time></trkpt><trkpt lat="41.96765217194819" lon="13.254242131923904"><ele>1307.3333333333335</ele><time>2026-04-24T12:41:24.999Z</time></trkpt><trkpt lat="41.96764982847693" lon="13.254327947079302"><ele>1308.6666666666667</ele><time>2026-04-24T12:41:25.999Z</time></trkpt><trkpt lat="41.96764967348524" lon="13.254419858561032"><ele>1310.0</ele><time>2026-04-24T12:41:26.999Z</time></trkpt><trkpt lat="41.96765244716169" lon="13.2545174247812"><ele>1310.0</ele><time>2026-04-24T12:41:27.999Z</time></trkpt><trkpt lat="41.967657439570495" lon="13.254603640113697"><ele>1310.0</ele><time>2026-04-24T12:41:28.999Z</time></trkpt><trkpt lat="41.96768144883007" lon="13.254726270041452"><ele>1310.0</ele><time>2026-04-24T12:41:30.999Z</time></trkpt><trkpt lat="41.96776054088832" lon="13.2548211987729"><ele>1310.0</ele><time>2026-04-24T12:41:32.999Z</time></trkpt><trkpt lat="41.96783126017546" lon="13.254876565822428"><ele>1310.0</ele><time>2026-04-24T12:41:33.999Z</time></trkpt><trkpt lat="41.967900778737366" lon="13.254916409560769"><ele>1310.0</ele><time>2026-04-24T12:41:34.999Z</time></trkpt><trkpt lat="41.967962488050695" lon="13.254976395964952"><ele>1310.0</ele><time>2026-04-24T12:41:35.999Z</time></trkpt><trkpt lat="41.96802821323844" lon="13.255081427094945"><ele>1310.0</ele><time>2026-04-24T12:41:36.999Z</time></trkpt><trkpt lat="41.96808533536725" lon="13.255181705137222"><ele>1310.0</ele><time>2026-04-24T12:41:37.999Z</time></trkpt><trkpt lat="41.968149285948854" lon="13.255326677523296"><ele>1310.0</ele><time>2026-04-24T12:41:39.999Z</time></trkpt><trkpt lat="41.968159983852274" lon="13.255423411301308"><ele>1310.0</ele><time>2026-04-24T12:41:40.999Z</time></trkpt><trkpt lat="41.968157083067524" lon="13.255551911447819"><ele>1310.0</ele><time>2026-04-24T12:41:41.999Z</time></trkpt><trkpt lat="41.96816109779553" lon="13.255704944850793"><ele>1310.0</ele><time>2026-04-24T12:41:42.999Z</time></trkpt><trkpt lat="41.96817973416007" lon="13.255878568222025"><ele>1310.0</ele><time>2026-04-24T12:41:43.999Z</time></trkpt><trkpt lat="41.96820913451064" lon="13.256056639982368"><ele>1310.0</ele><time>2026-04-24T12:41:44.999Z</time></trkpt><trkpt lat="41.96823039856178" lon="13.256219896329844"><ele>1310.0</ele><time>2026-04-24T12:41:45.999Z</time></trkpt><trkpt lat="41.9682431774527" lon="13.25635716542446"><ele>1310.0</ele><time>2026-04-24T12:41:46.999Z</time></trkpt><trkpt lat="41.96825979811726" lon="13.256470214465434"><ele>1310.0</ele><time>2026-04-24T12:41:47.999Z</time></trkpt><trkpt lat="41.96829251474514" lon="13.256596383262849"><ele>1310.0</ele><time>2026-04-24T12:41:48.999Z</time></trkpt><trkpt lat="41.96832266383978" lon="13.256716843996154"><ele>1310.0</ele><time>2026-04-24T12:41:49.999Z</time></trkpt><trkpt lat="41.96833303148404" lon="13.256848197295753"><ele>1310.2</ele><time>2026-04-24T12:41:50.999Z</time></trkpt><trkpt lat="41.968328348183014" lon="13.256993752305132"><ele>1310.4</ele><time>2026-04-24T12:41:51.999Z</time></trkpt><trkpt lat="41.96831777886873" lon="13.257144010967721"><ele>1310.6</ele><time>2026-04-24T12:41:52.999Z</time></trkpt><trkpt lat="41.96830576429663" lon="13.257277718757747"><ele>1310.8</ele><time>2026-04-24T12:41:53.999Z</time></trkpt><trkpt lat="41.968277153527794" lon="13.25741272211416"><ele>1311.0</ele><time>2026-04-24T12:41:54.999Z</time></trkpt><trkpt lat="41.968249475100734" lon="13.257550181845083"><ele>1311.6</ele><time>2026-04-24T12:41:55.999Z</time></trkpt><trkpt lat="41.96822098988532" lon="13.257694573461357"><ele>1312.1999999999998</ele><time>2026-04-24T12:41:56.999Z</time></trkpt><trkpt lat="41.96818554187916" lon="13.25785679016908"><ele>1312.8000000000002</ele><time>2026-04-24T12:41:57.999Z</time></trkpt><trkpt lat="41.96816199575159" lon="13.257992715118512"><ele>1313.4</ele><time>2026-04-24T12:41:58.999Z</time></trkpt><trkpt lat="41.96814566960802" lon="13.258119424716691"><ele>1314.0</ele><time>2026-04-24T12:41:59.999Z</time></trkpt><trkpt lat="41.96813107205944" lon="13.258237362764723"><ele>1315.2</ele><time>2026-04-24T12:42:00.999Z</time></trkpt><trkpt lat="41.96813522341212" lon="13.258361866756474"><ele>1316.4</ele><time>2026-04-24T12:42:01.999Z</time></trkpt><trkpt lat="41.96815690606832" lon="13.25849138295989"><ele>1317.6</ele><time>2026-04-24T12:42:02.999Z</time></trkpt><trkpt lat="41.968189728876965" lon="13.2586426654295"><ele>1318.8</ele><time>2026-04-24T12:42:03.999Z</time></trkpt><trkpt lat="41.968232902655444" lon="13.258793986828362"><ele>1320.0</ele><time>2026-04-24T12:42:04.999Z</time></trkpt><trkpt lat="41.96828920914402" lon="13.258950195469515"><ele>1320.25</ele><time>2026-04-24T12:42:05.999Z</time></trkpt><trkpt lat="41.96835697036647" lon="13.259106457040609"><ele>1320.5</ele><time>2026-04-24T12:42:06.999Z</time></trkpt><trkpt lat="41.96842318676589" lon="13.259245237893213"><ele>1320.75</ele><time>2026-04-24T12:42:07.999Z</time></trkpt><trkpt lat="41.968491755225294" lon="13.259356546698072"><ele>1321.0</ele><time>2026-04-24T12:42:08.999Z</time></trkpt><trkpt lat="41.96855854897505" lon="13.259455222138248"><ele>1324.0</ele><time>2026-04-24T12:42:09.999Z</time></trkpt><trkpt lat="41.96861722841772" lon="13.259556191438822"><ele>1327.0</ele><time>2026-04-24T12:42:10.998Z</time></trkpt><trkpt lat="41.968661689682214" lon="13.25967476524931"><ele>1330.0</ele><time>2026-04-24T12:42:11.998Z</time></trkpt><trkpt lat="41.968697270604" lon="13.259787037054096"><ele>1333.0</ele><time>2026-04-24T12:42:12.998Z</time></trkpt><trkpt lat="41.96872022871719" lon="13.259907408620657"><ele>1336.0</ele><time>2026-04-24T12:42:13.998Z</time></trkpt><trkpt lat="41.96873567216112" lon="13.260031596861387"><ele>1336.0</ele><time>2026-04-24T12:42:14.999Z</time></trkpt><trkpt lat="41.968731246540976" lon="13.260136713241202"><ele>1336.0</ele><time>2026-04-24T12:42:15.999Z</time></trkpt><trkpt lat="41.96871376460959" lon="13.260240703370753"><ele>1336.0</ele><time>2026-04-24T12:42:16.999Z</time></trkpt><trkpt lat="41.968670550424456" lon="13.26034413917457"><ele>1336.0</ele><time>2026-04-24T12:42:17.999Z</time></trkpt><trkpt lat="41.968616815297295" lon="13.260444203805406"><ele>1336.0</ele><time>2026-04-24T12:42:18.999Z</time></trkpt><trkpt lat="41.96854500116188" lon="13.260541129383729"><ele>1336.0</ele><time>2026-04-24T12:42:19.999Z</time></trkpt><trkpt lat="41.96846254448656" lon="13.260630646225351"><ele>1334.5</ele><time>2026-04-24T12:42:20.999Z</time></trkpt><trkpt lat="41.96835925547844" lon="13.260730157764417"><ele>1333.0</ele><time>2026-04-24T12:42:21.999Z</time></trkpt><trkpt lat="41.968266316245085" lon="13.26084117135052"><ele>1331.5</ele><time>2026-04-24T12:42:22.999Z</time></trkpt><trkpt lat="41.96818589798373" lon="13.260964875316821"><ele>1330.0</ele><time>2026-04-24T12:42:23.999Z</time></trkpt><trkpt lat="41.968113322544006" lon="13.26110219996597"><ele>1330.0</ele><time>2026-04-24T12:42:24.999Z</time></trkpt><trkpt lat="41.96804180311507" lon="13.261248385567075"><ele>1330.0</ele><time>2026-04-24T12:42:25.999Z</time></trkpt><trkpt lat="41.96796782788892" lon="13.261395551687045"><ele>1330.0</ele><time>2026-04-24T12:42:26.999Z</time></trkpt><trkpt lat="41.96790746766364" lon="13.261543224373044"><ele>1330.0</ele><time>2026-04-24T12:42:27.999Z</time></trkpt><trkpt lat="41.96786831645257" lon="13.261676863934335"><ele>1330.8</ele><time>2026-04-24T12:42:28.999Z</time></trkpt><trkpt lat="41.96784322186174" lon="13.261801232480229"><ele>1331.6</ele><time>2026-04-24T12:42:29.999Z</time></trkpt><trkpt lat="41.96784608292876" lon="13.261929668951169"><ele>1332.4</ele><time>2026-04-24T12:42:30.999Z</time></trkpt><trkpt lat="41.96785655735725" lon="13.26207792256647"><ele>1333.2</ele><time>2026-04-24T12:42:31.999Z</time></trkpt><trkpt lat="41.96788028919211" lon="13.262230391188485"><ele>1334.0</ele><time>2026-04-24T12:42:32.999Z</time></trkpt><trkpt lat="41.96790893170449" lon="13.26236533316472"><ele>1334.8000000000002</ele><time>2026-04-24T12:42:33.999Z</time></trkpt><trkpt lat="41.967914818927476" lon="13.262488246919764"><ele>1335.6000000000001</ele><time>2026-04-24T12:42:34.999Z</time></trkpt><trkpt lat="41.96792795465488" lon="13.262617006177129"><ele>1336.4</ele><time>2026-04-24T12:42:35.999Z</time></trkpt><trkpt lat="41.967918990509915" lon="13.262717572371542"><ele>1337.2</ele><time>2026-04-24T12:42:36.999Z</time></trkpt><trkpt lat="41.96788667879272" lon="13.262840476506513"><ele>1338.0</ele><time>2026-04-24T12:42:38.999Z</time></trkpt><trkpt lat="41.96780456685808" lon="13.262967389240064"><ele>1338.0</ele><time>2026-04-24T12:42:40.999Z</time></trkpt><trkpt lat="41.96774518443009" lon="13.263044768967143"><ele>1338.0</ele><time>2026-04-24T12:42:41.999Z</time></trkpt><trkpt lat="41.96766772367665" lon="13.263140257777318"><ele>1338.0</ele><time>2026-04-24T12:42:42.999Z</time></trkpt><trkpt lat="41.967582041428074" lon="13.263245429304133"><ele>1338.0</ele><time>2026-04-24T12:42:43.999Z</time></trkpt><trkpt lat="41.96747993903093" lon="13.263355305357218"><ele>1338.0</ele><time>2026-04-24T12:42:44.999Z</time></trkpt><trkpt lat="41.96737164639752" lon="13.263480723061393"><ele>1336.75</ele><time>2026-04-24T12:42:45.999Z</time></trkpt><trkpt lat="41.967259217080645" lon="13.263603019025789"><ele>1335.5</ele><time>2026-04-24T12:42:46.999Z</time></trkpt><trkpt lat="41.96717407348212" lon="13.263711472176986"><ele>1334.25</ele><time>2026-04-24T12:42:47.999Z</time></trkpt><trkpt lat="41.967088579193195" lon="13.263807221559434"><ele>1333.0</ele><time>2026-04-24T12:42:48.999Z</time></trkpt><trkpt lat="41.96700621505766" lon="13.263906571560938"><ele>1334.0</ele><time>2026-04-24T12:42:49.999Z</time></trkpt><trkpt lat="41.96694136914928" lon="13.264027302452604"><ele>1335.0</ele><time>2026-04-24T12:42:50.999Z</time></trkpt><trkpt lat="41.96688186669455" lon="13.264153323716586"><ele>1336.0</ele><time>2026-04-24T12:42:51.999Z</time></trkpt><trkpt lat="41.96683059394109" lon="13.264305536140958"><ele>1337.0</ele><time>2026-04-24T12:42:52.999Z</time></trkpt><trkpt lat="41.966780634455894" lon="13.264462952754482"><ele>1337.0</ele><time>2026-04-24T12:42:53.999Z</time></trkpt><trkpt lat="41.9667354020772" lon="13.264621084878021"><ele>1337.0</ele><time>2026-04-24T12:42:54.999Z</time></trkpt><trkpt lat="41.96669190909491" lon="13.264757090678318"><ele>1337.0</ele><time>2026-04-24T12:42:55.999Z</time></trkpt><trkpt lat="41.96664282125359" lon="13.264880648078098"><ele>1337.0</ele><time>2026-04-24T12:42:56.999Z</time></trkpt><trkpt lat="41.96659364889127" lon="13.264997629513882"><ele>1337.0</ele><time>2026-04-24T12:42:57.999Z</time></trkpt><trkpt lat="41.966548636228644" lon="13.265113639833034"><ele>1336.8</ele><time>2026-04-24T12:42:58.999Z</time></trkpt><trkpt lat="41.96651945202816" lon="13.265234994905521"><ele>1336.6</ele><time>2026-04-24T12:42:59.999Z</time></trkpt><trkpt lat="41.966495284591055" lon="13.265353986173524"><ele>1336.3999999999999</ele><time>2026-04-24T12:43:00.999Z</time></trkpt><trkpt lat="41.96646708632361" lon="13.265480783717763"><ele>1336.1999999999998</ele><time>2026-04-24T12:43:01.999Z</time></trkpt><trkpt lat="41.96643765309662" lon="13.265610022378452"><ele>1336.0</ele><time>2026-04-24T12:43:02.999Z</time></trkpt><trkpt lat="41.96641528463824" lon="13.265732529266216"><ele>1336.0</ele><time>2026-04-24T12:43:03.999Z</time></trkpt><trkpt lat="41.96639009345043" lon="13.265839682627794"><ele>1336.0</ele><time>2026-04-24T12:43:04.999Z</time></trkpt><trkpt lat="41.96635996192829" lon="13.265957487644895"><ele>1336.0</ele><time>2026-04-24T12:43:05.999Z</time></trkpt><trkpt lat="41.966346492098886" lon="13.266063522533981"><ele>1336.0</ele><time>2026-04-24T12:43:06.999Z</time></trkpt><trkpt lat="41.96635871841783" lon="13.2661672156312"><ele>1336.0</ele><time>2026-04-24T12:43:07.999Z</time></trkpt><trkpt lat="41.96639400034479" lon="13.266286712140055"><ele>1336.0</ele><time>2026-04-24T12:43:08.999Z</time></trkpt><trkpt lat="41.96644785865328" lon="13.26643047044657"><ele>1337.25</ele><time>2026-04-24T12:43:09.999Z</time></trkpt><trkpt lat="41.966496874098816" lon="13.266582368795424"><ele>1338.5</ele><time>2026-04-24T12:43:10.999Z</time></trkpt><trkpt lat="41.966533345936824" lon="13.266730842630883"><ele>1339.75</ele><time>2026-04-24T12:43:11.999Z</time></trkpt><trkpt lat="41.966563376793204" lon="13.266875414254413"><ele>1341.0</ele><time>2026-04-24T12:43:12.999Z</time></trkpt><trkpt lat="41.96660401946218" lon="13.267019893803843"><ele>1341.0</ele><time>2026-04-24T12:43:13.999Z</time></trkpt><trkpt lat="41.96666324249612" lon="13.267151432812652"><ele>1341.0</ele><time>2026-04-24T12:43:14.999Z</time></trkpt><trkpt lat="41.96673269334947" lon="13.267265936845114"><ele>1341.0</ele><time>2026-04-24T12:43:15.999Z</time></trkpt><trkpt lat="41.96680358291023" lon="13.267382878538946"><ele>1341.0</ele><time>2026-04-24T12:43:16.999Z</time></trkpt><trkpt lat="41.96686992621233" lon="13.267493327963269"><ele>1341.0</ele><time>2026-04-24T12:43:17.999Z</time></trkpt><trkpt lat="41.9669426404524" lon="13.2676206181358"><ele>1343.75</ele><time>2026-04-24T12:43:18.999Z</time></trkpt><trkpt lat="41.96702765425005" lon="13.267718861641965"><ele>1346.5</ele><time>2026-04-24T12:43:19.999Z</time></trkpt><trkpt lat="41.96713581102498" lon="13.267817859303285"><ele>1349.25</ele><time>2026-04-24T12:43:20.999Z</time></trkpt><trkpt lat="41.96725079790948" lon="13.267924407245284"><ele>1352.0</ele><time>2026-04-24T12:43:21.999Z</time></trkpt><trkpt lat="41.96736027614888" lon="13.268032692602327"><ele>1353.5</ele><time>2026-04-24T12:43:22.999Z</time></trkpt><trkpt lat="41.96748015242957" lon="13.268134704132544"><ele>1355.0</ele><time>2026-04-24T12:43:23.999Z</time></trkpt><trkpt lat="41.96758430519591" lon="13.268237573019984"><ele>1356.5</ele><time>2026-04-24T12:43:24.999Z</time></trkpt><trkpt lat="41.96768069885095" lon="13.268334407067501"><ele>1358.0</ele><time>2026-04-24T12:43:25.999Z</time></trkpt><trkpt lat="41.96774761612901" lon="13.268412229568266"><ele>1358.4</ele><time>2026-04-24T12:43:26.999Z</time></trkpt><trkpt lat="41.96781024186989" lon="13.268483118937853"><ele>1358.8000000000002</ele><time>2026-04-24T12:43:27.999Z</time></trkpt><trkpt lat="41.96787867218886" lon="13.268599298241991"><ele>1359.2</ele><time>2026-04-24T12:43:29.999Z</time></trkpt><trkpt lat="41.96792440962708" lon="13.268750310755069"><ele>1359.6</ele><time>2026-04-24T12:43:31.999Z</time></trkpt><trkpt lat="41.967973354279025" lon="13.268865322459645"><ele>1360.0</ele><time>2026-04-24T12:43:32.999Z</time></trkpt><trkpt lat="41.968033762238555" lon="13.268973943668012"><ele>1361.6</ele><time>2026-04-24T12:43:33.999Z</time></trkpt><trkpt lat="41.968097829329025" lon="13.269089133566053"><ele>1363.2</ele><time>2026-04-24T12:43:34.999Z</time></trkpt><trkpt lat="41.968160233518134" lon="13.269158612784711"><ele>1364.8000000000002</ele><time>2026-04-24T12:43:36.999Z</time></trkpt><trkpt lat="41.968264897418905" lon="13.269182323727208"><ele>1366.4</ele><time>2026-04-24T12:43:38.999Z</time></trkpt><trkpt lat="41.96836784135998" lon="13.269115759050953"><ele>1368.0</ele><time>2026-04-24T12:43:40.999Z</time></trkpt><trkpt lat="41.96841926368647" lon="13.269045899960663"><ele>1369.2</ele><time>2026-04-24T12:43:41.999Z</time></trkpt><trkpt lat="41.968474869253136" lon="13.26893970772917"><ele>1370.4</ele><time>2026-04-24T12:43:42.999Z</time></trkpt><trkpt lat="41.96854348594564" lon="13.268819142153408"><ele>1371.6000000000001</ele><time>2026-04-24T12:43:43.999Z</time></trkpt><trkpt lat="41.96861293316366" lon="13.268705752348723"><ele>1372.8000000000002</ele><time>2026-04-24T12:43:44.999Z</time></trkpt><trkpt lat="41.96867956532553" lon="13.268607095157947"><ele>1374.0</ele><time>2026-04-24T12:43:45.999Z</time></trkpt><trkpt lat="41.96873503726156" lon="13.268535121004703"><ele>1374.0</ele><time>2026-04-24T12:43:46.999Z</time></trkpt><trkpt lat="41.96879071166792" lon="13.268461320898837"><ele>1374.0</ele><time>2026-04-24T12:43:47.999Z</time></trkpt><trkpt lat="41.96884807363176" lon="13.26840482429836"><ele>1374.0</ele><time>2026-04-24T12:43:48.999Z</time></trkpt><trkpt lat="41.96890468290919" lon="13.26835645361373"><ele>1374.0</ele><time>2026-04-24T12:43:49.999Z</time></trkpt><trkpt lat="41.96896844245599" lon="13.268308377855847"><ele>1374.0</ele><time>2026-04-24T12:43:50.999Z</time></trkpt><trkpt lat="41.96902516975799" lon="13.26825892206635"><ele>1374.0</ele><time>2026-04-24T12:43:51.999Z</time></trkpt><trkpt lat="41.96908139447652" lon="13.268199504332124"><ele>1374.0</ele><time>2026-04-24T12:43:52.999Z</time></trkpt><trkpt lat="41.96914923287139" lon="13.268128775279461"><ele>1372.6666666666667</ele><time>2026-04-24T12:43:53.999Z</time></trkpt><trkpt lat="41.969209717489164" lon="13.268058748905247"><ele>1371.3333333333333</ele><time>2026-04-24T12:43:54.999Z</time></trkpt><trkpt lat="41.969271494874214" lon="13.267994193267631"><ele>1370.0</ele><time>2026-04-24T12:43:55.999Z</time></trkpt><trkpt lat="41.969333045578516" lon="13.267931436858515"><ele>1368.6666666666665</ele><time>2026-04-24T12:43:56.999Z</time></trkpt><trkpt lat="41.96940731388088" lon="13.267860010791733"><ele>1367.3333333333333</ele><time>2026-04-24T12:43:57.999Z</time></trkpt><trkpt lat="41.96947522304369" lon="13.267787252809308"><ele>1366.0</ele><time>2026-04-24T12:43:58.999Z</time></trkpt><trkpt lat="41.969554563284035" lon="13.267703174828497"><ele>1366.0</ele><time>2026-04-24T12:43:59.999Z</time></trkpt><trkpt lat="41.96963370202134" lon="13.267623854962615"><ele>1366.0</ele><time>2026-04-24T12:44:00.999Z</time></trkpt><trkpt lat="41.969715743288866" lon="13.267531295385657"><ele>1366.0</ele><time>2026-04-24T12:44:01.999Z</time></trkpt><trkpt lat="41.9697954234976" lon="13.267445473741104"><ele>1366.0</ele><time>2026-04-24T12:44:02.999Z</time></trkpt><trkpt lat="41.969870955163124" lon="13.26735975481846"><ele>1366.0</ele><time>2026-04-24T12:44:03.999Z</time></trkpt><trkpt lat="41.96994275733722" lon="13.267271229462521"><ele>1365.8333333333333</ele><time>2026-04-24T12:44:04.999Z</time></trkpt><trkpt lat="41.970011691024595" lon="13.267187837303808"><ele>1365.6666666666665</ele><time>2026-04-24T12:44:05.999Z</time></trkpt><trkpt lat="41.97007632056719" lon="13.267109937125957"><ele>1365.5</ele><time>2026-04-24T12:44:06.999Z</time></trkpt><trkpt lat="41.97014148106158" lon="13.267040518047118"><ele>1365.3333333333333</ele><time>2026-04-24T12:44:07.999Z</time></trkpt><trkpt lat="41.970211762595376" lon="13.266975995632007"><ele>1365.1666666666667</ele><time>2026-04-24T12:44:08.999Z</time></trkpt><trkpt lat="41.9702812957932" lon="13.266946071915068"><ele>1365.0</ele><time>2026-04-24T12:44:09.999Z</time></trkpt><trkpt lat="41.97035757199086" lon="13.266947458323207"><ele>1365.0</ele><time>2026-04-24T12:44:10.999Z</time></trkpt><trkpt lat="41.97044730579494" lon="13.266959739661338"><ele>1365.0</ele><time>2026-04-24T12:44:11.999Z</time></trkpt><trkpt lat="41.97053674528792" lon="13.266998461294111"><ele>1365.0</ele><time>2026-04-24T12:44:12.999Z</time></trkpt><trkpt lat="41.970630763285655" lon="13.267048961008376"><ele>1365.0</ele><time>2026-04-24T12:44:13.999Z</time></trkpt><trkpt lat="41.97072736231732" lon="13.267119351127008"><ele>1365.0</ele><time>2026-04-24T12:44:14.999Z</time></trkpt><trkpt lat="41.970818586040785" lon="13.267197391692099"><ele>1368.4</ele><time>2026-04-24T12:44:15.999Z</time></trkpt><trkpt lat="41.97090344460342" lon="13.267284582248422"><ele>1371.8</ele><time>2026-04-24T12:44:16.999Z</time></trkpt><trkpt lat="41.970981519627756" lon="13.267371352526062"><ele>1375.1999999999998</ele><time>2026-04-24T12:44:17.999Z</time></trkpt><trkpt lat="41.97106998125639" lon="13.26745786515533"><ele>1378.6</ele><time>2026-04-24T12:44:18.999Z</time></trkpt><trkpt lat="41.97116096068288" lon="13.267545761309114"><ele>1382.0</ele><time>2026-04-24T12:44:19.999Z</time></trkpt><trkpt lat="41.97123979798906" lon="13.267639815374881"><ele>1382.0</ele><time>2026-04-24T12:44:20.999Z</time></trkpt><trkpt lat="41.97131384493518" lon="13.267725711297192"><ele>1382.0</ele><time>2026-04-24T12:44:21.999Z</time></trkpt><trkpt lat="41.971383891409246" lon="13.267800345576463"><ele>1382.0</ele><time>2026-04-24T12:44:22.999Z</time></trkpt><trkpt lat="41.971452294535325" lon="13.267876759421675"><ele>1382.0</ele><time>2026-04-24T12:44:23.999Z</time></trkpt><trkpt lat="41.97152140732179" lon="13.267923122443406"><ele>1382.0</ele><time>2026-04-24T12:44:24.999Z</time></trkpt><trkpt lat="41.9715976022045" lon="13.267953709637958"><ele>1382.0</ele><time>2026-04-24T12:44:26Z</time></trkpt><trkpt lat="41.97167846961548" lon="13.267952821026283"><ele>1386.1999999999998</ele><time>2026-04-24T12:44:27Z</time></trkpt><trkpt lat="41.97175998824606" lon="13.267929513412737"><ele>1390.4</ele><time>2026-04-24T12:44:28Z</time></trkpt><trkpt lat="41.9718443135575" lon="13.267886908650873"><ele>1394.6</ele><time>2026-04-24T12:44:29Z</time></trkpt><trkpt lat="41.97192933300503" lon="13.267830743218145"><ele>1398.8000000000002</ele><time>2026-04-24T12:44:30Z</time></trkpt><trkpt lat="41.97200758411485" lon="13.267759809904309"><ele>1403.0</ele><time>2026-04-24T12:44:31Z</time></trkpt><trkpt lat="41.972085585809616" lon="13.267700504698693"><ele>1403.0</ele><time>2026-04-24T12:44:32Z</time></trkpt><trkpt lat="41.972164485828465" lon="13.267642090685358"><ele>1403.0</ele><time>2026-04-24T12:44:33Z</time></trkpt><trkpt lat="41.972242995161" lon="13.267581710446146"><ele>1403.0</ele><time>2026-04-24T12:44:34Z</time></trkpt><trkpt lat="41.97231383941975" lon="13.267522590559047"><ele>1403.0</ele><time>2026-04-24T12:44:35Z</time></trkpt><trkpt lat="41.9723857061558" lon="13.267520039206238"><ele>1403.0</ele><time>2026-04-24T12:44:36Z</time></trkpt><trkpt lat="41.97246220743583" lon="13.267446314215118"><ele>1403.0</ele><time>2026-04-24T12:44:38Z</time></trkpt><trkpt lat="41.97252583634628" lon="13.267469628296404"><ele>1403.0</ele><time>2026-04-24T12:44:41Z</time></trkpt><trkpt lat="41.97253357699037" lon="13.26755745994152"><ele>1403.0</ele><time>2026-04-24T12:44:43Z</time></trkpt><trkpt lat="41.97244038621908" lon="13.267673165337273"><ele>1403.0</ele><time>2026-04-24T12:44:45Z</time></trkpt><trkpt lat="41.97237808178934" lon="13.26774473574872"><ele>1403.0</ele><time>2026-04-24T12:44:46Z</time></trkpt><trkpt lat="41.97232118202355" lon="13.267816145762243"><ele>1403.0</ele><time>2026-04-24T12:44:47Z</time></trkpt><trkpt lat="41.97226681154355" lon="13.267905797094532"><ele>1403.0</ele><time>2026-04-24T12:44:48Z</time></trkpt><trkpt lat="41.97217951737725" lon="13.267996379371391"><ele>1403.0</ele><time>2026-04-24T12:44:49Z</time></trkpt><trkpt lat="41.97211334088598" lon="13.2681019112726"><ele>1403.0</ele><time>2026-04-24T12:44:50Z</time></trkpt><trkpt lat="41.97205014952432" lon="13.268217533298005"><ele>1403.0</ele><time>2026-04-24T12:44:51Z</time></trkpt><trkpt lat="41.97199215412857" lon="13.268357873522232"><ele>1403.0</ele><time>2026-04-24T12:44:52Z</time></trkpt><trkpt lat="41.971948310668616" lon="13.26849329247172"><ele>1403.0</ele><time>2026-04-24T12:44:53Z</time></trkpt><trkpt lat="41.97189738506319" lon="13.268638540057827"><ele>1407.4</ele><time>2026-04-24T12:44:54Z</time></trkpt><trkpt lat="41.97186987762184" lon="13.26878695232167"><ele>1411.8000000000002</ele><time>2026-04-24T12:44:55Z</time></trkpt><trkpt lat="41.971841978089095" lon="13.26893258347773"><ele>1416.2</ele><time>2026-04-24T12:44:56Z</time></trkpt><trkpt lat="41.971817733792946" lon="13.269077460944048"><ele>1420.6</ele><time>2026-04-24T12:44:57Z</time></trkpt><trkpt lat="41.971788388418936" lon="13.269209857274564"><ele>1425.0</ele><time>2026-04-24T12:44:58Z</time></trkpt><trkpt lat="41.971737161769845" lon="13.269340782060153"><ele>1426.0</ele><time>2026-04-24T12:44:59Z</time></trkpt><trkpt lat="41.97165832887026" lon="13.269469711557287"><ele>1427.0</ele><time>2026-04-24T12:45:00Z</time></trkpt><trkpt lat="41.97156115396422" lon="13.269633619578608"><ele>1428.0</ele><time>2026-04-24T12:45:01Z</time></trkpt><trkpt lat="41.97146116529108" lon="13.269815771844076"><ele>1429.0</ele><time>2026-04-24T12:45:02Z</time></trkpt><trkpt lat="41.9713814368207" lon="13.269969459571005"><ele>1429.0</ele><time>2026-04-24T12:45:03Z</time></trkpt><trkpt lat="41.97129876720567" lon="13.27013945940822"><ele>1429.0</ele><time>2026-04-24T12:45:04Z</time></trkpt><trkpt lat="41.971220680510434" lon="13.270312003371485"><ele>1429.0</ele><time>2026-04-24T12:45:05Z</time></trkpt><trkpt lat="41.97115572422044" lon="13.270461489407156"><ele>1429.0</ele><time>2026-04-24T12:45:06Z</time></trkpt><trkpt lat="41.971103925273745" lon="13.270613727398944"><ele>1432.6</ele><time>2026-04-24T12:45:07Z</time></trkpt><trkpt lat="41.9710346282123" lon="13.270736393514872"><ele>1436.2</ele><time>2026-04-24T12:45:08Z</time></trkpt><trkpt lat="41.970969975882134" lon="13.270847552974903"><ele>1439.8</ele><time>2026-04-24T12:45:09Z</time></trkpt><trkpt lat="41.97091675836662" lon="13.270968450712044"><ele>1443.3999999999999</ele><time>2026-04-24T12:45:10Z</time></trkpt><trkpt lat="41.97088673797789" lon="13.271075554203499"><ele>1447.0</ele><time>2026-04-24T12:45:11Z</time></trkpt><trkpt lat="41.970880356064555" lon="13.271170380796224"><ele>1447.0</ele><time>2026-04-24T12:45:12Z</time></trkpt><trkpt lat="41.97089319573186" lon="13.271276650811474"><ele>1447.0</ele><time>2026-04-24T12:45:13Z</time></trkpt><trkpt lat="41.970942864909176" lon="13.27141155814207"><ele>1447.0</ele><time>2026-04-24T12:45:14Z</time></trkpt><trkpt lat="41.970988080090045" lon="13.271553549969429"><ele>1447.0</ele><time>2026-04-24T12:45:15Z</time></trkpt><trkpt lat="41.97103829691532" lon="13.271734923419398"><ele>1448.5</ele><time>2026-04-24T12:45:16Z</time></trkpt><trkpt lat="41.97108878361142" lon="13.271911766684628"><ele>1450.0</ele><time>2026-04-24T12:45:17Z</time></trkpt><trkpt lat="41.97113403253858" lon="13.272067839802887"><ele>1451.5</ele><time>2026-04-24T12:45:18Z</time></trkpt><trkpt lat="41.971168036934195" lon="13.272208525999206"><ele>1453.0</ele><time>2026-04-24T12:45:19Z</time></trkpt><trkpt lat="41.97122246899709" lon="13.272340881742823"><ele>1453.0</ele><time>2026-04-24T12:45:20Z</time></trkpt><trkpt lat="41.97128507119951" lon="13.27246348801492"><ele>1453.0</ele><time>2026-04-24T12:45:21Z</time></trkpt><trkpt lat="41.97135528172502" lon="13.272588295451925"><ele>1453.0</ele><time>2026-04-24T12:45:22Z</time></trkpt><trkpt lat="41.97142771913025" lon="13.272716719761561"><ele>1453.0</ele><time>2026-04-24T12:45:23Z</time></trkpt><trkpt lat="41.97148496088419" lon="13.272827846111912"><ele>1453.0</ele><time>2026-04-24T12:45:24Z</time></trkpt><trkpt lat="41.97153077244435" lon="13.272928302675167"><ele>1453.0</ele><time>2026-04-24T12:45:25Z</time></trkpt><trkpt lat="41.97154467755452" lon="13.273016674847602"><ele>1453.0</ele><time>2026-04-24T12:45:27Z</time></trkpt><trkpt lat="41.97152580152326" lon="13.273168223163637"><ele>1453.0</ele><time>2026-04-24T12:45:29Z</time></trkpt><trkpt lat="41.97149586316563" lon="13.273262084991547"><ele>1453.0</ele><time>2026-04-24T12:45:30Z</time></trkpt><trkpt lat="41.97144861414381" lon="13.273365400452557"><ele>1453.0</ele><time>2026-04-24T12:45:32Z</time></trkpt><trkpt lat="41.97133581631152" lon="13.273335863306269"><ele>1453.8000000000002</ele><time>2026-04-24T12:45:34Z</time></trkpt><trkpt lat="41.97126072808773" lon="13.273294668102062"><ele>1454.6</ele><time>2026-04-24T12:45:35Z</time></trkpt><trkpt lat="41.97116507569455" lon="13.273269677090344"><ele>1455.4</ele><time>2026-04-24T12:45:36Z</time></trkpt><trkpt lat="41.971107382481094" lon="13.273224594695815"><ele>1456.1999999999998</ele><time>2026-04-24T12:45:37Z</time></trkpt><trkpt lat="41.97098103766983" lon="13.273236058810923"><ele>1457.0</ele><time>2026-04-24T12:45:39Z</time></trkpt><trkpt lat="41.97089646879906" lon="13.273239625935899"><ele>1457.0</ele><time>2026-04-24T12:45:40Z</time></trkpt><trkpt lat="41.97082534595188" lon="13.273275481695752"><ele>1457.0</ele><time>2026-04-24T12:45:41Z</time></trkpt><trkpt lat="41.9707687109953" lon="13.273389708131349"><ele>1457.0</ele><time>2026-04-24T12:45:43Z</time></trkpt><trkpt lat="41.97080421883162" lon="13.27346667437403"><ele>1457.0</ele><time>2026-04-24T12:45:44Z</time></trkpt><trkpt lat="41.97087950583074" lon="13.273485564718955"><ele>1457.0</ele><time>2026-04-24T12:45:45Z</time></trkpt><trkpt lat="41.97094543495711" lon="13.273479774051568"><ele>1457.0</ele><time>2026-04-24T12:45:46Z</time></trkpt><trkpt lat="41.97102427391654" lon="13.273458577627588"><ele>1457.0</ele><time>2026-04-24T12:45:47Z</time></trkpt><trkpt lat="41.97109384804857" lon="13.273462284061432"><ele>1457.0</ele><time>2026-04-24T12:45:48Z</time></trkpt><trkpt lat="41.97115328669316" lon="13.27349849878771"><ele>1457.0</ele><time>2026-04-24T12:45:49Z</time></trkpt><trkpt lat="41.971181995359146" lon="13.273586848650485"><ele>1457.0</ele><time>2026-04-24T12:45:50Z</time></trkpt><trkpt lat="41.97123113789393" lon="13.273663782640037"><ele>1457.0</ele><time>2026-04-24T12:45:51Z</time></trkpt><trkpt lat="41.97129621178969" lon="13.273764490047645"><ele>1457.0</ele><time>2026-04-24T12:45:52Z</time></trkpt><trkpt lat="41.97136198536826" lon="13.273846348988274"><ele>1457.0</ele><time>2026-04-24T12:45:53Z</time></trkpt><trkpt lat="41.97142617568857" lon="13.273891924531723"><ele>1457.0</ele><time>2026-04-24T12:45:54Z</time></trkpt><trkpt lat="41.971493433840536" lon="13.273910199684943"><ele>1457.0</ele><time>2026-04-24T12:45:55Z</time></trkpt><trkpt lat="41.971564273165825" lon="13.273902476311124"><ele>1457.0</ele><time>2026-04-24T12:45:56Z</time></trkpt><trkpt lat="41.971636748528816" lon="13.273847326886948"><ele>1457.0</ele><time>2026-04-24T12:45:57Z</time></trkpt><trkpt lat="41.97167526901883" lon="13.27372655943247"><ele>1457.0</ele><time>2026-04-24T12:45:58Z</time></trkpt><trkpt lat="41.97172586192644" lon="13.273632614733506"><ele>1461.6</ele><time>2026-04-24T12:45:59Z</time></trkpt><trkpt lat="41.97178368394926" lon="13.273512684042805"><ele>1466.1999999999998</ele><time>2026-04-24T12:46:00Z</time></trkpt><trkpt lat="41.97184321839945" lon="13.27338871801433"><ele>1470.8</ele><time>2026-04-24T12:46:01Z</time></trkpt><trkpt lat="41.97192019883894" lon="13.273318084191772"><ele>1475.4</ele><time>2026-04-24T12:46:02Z</time></trkpt><trkpt lat="41.97200188764445" lon="13.273245829914933"><ele>1480.0</ele><time>2026-04-24T12:46:03Z</time></trkpt><trkpt lat="41.972100780665976" lon="13.273160679347422"><ele>1479.75</ele><time>2026-04-24T12:46:04Z</time></trkpt><trkpt lat="41.97221587420202" lon="13.27306828520845"><ele>1479.5</ele><time>2026-04-24T12:46:05Z</time></trkpt><trkpt lat="41.972332239413355" lon="13.272974854849949"><ele>1479.25</ele><time>2026-04-24T12:46:06Z</time></trkpt><trkpt lat="41.97243367810732" lon="13.272886430405055"><ele>1479.0</ele><time>2026-04-24T12:46:07Z</time></trkpt><trkpt lat="41.97250867032151" lon="13.27281732034163"><ele>1481.4</ele><time>2026-04-24T12:46:08Z</time></trkpt><trkpt lat="41.97258322919184" lon="13.272756016428845"><ele>1483.8000000000002</ele><time>2026-04-24T12:46:09Z</time></trkpt><trkpt lat="41.97267358680718" lon="13.27273122208897"><ele>1486.1999999999998</ele><time>2026-04-24T12:46:10Z</time></trkpt><trkpt lat="41.97277131728131" lon="13.27271678176073"><ele>1488.6</ele><time>2026-04-24T12:46:11Z</time></trkpt><trkpt lat="41.972869602618076" lon="13.272723995104133"><ele>1491.0</ele><time>2026-04-24T12:46:12Z</time></trkpt><trkpt lat="41.97297863595275" lon="13.272737506940194"><ele>1491.0</ele><time>2026-04-24T12:46:13Z</time></trkpt><trkpt lat="41.9730904098659" lon="13.2727516445139"><ele>1491.0</ele><time>2026-04-24T12:46:14Z</time></trkpt><trkpt lat="41.97321922697548" lon="13.272759536918377"><ele>1491.0</ele><time>2026-04-24T12:46:15Z</time></trkpt><trkpt lat="41.97333155977974" lon="13.272749629843767"><ele>1491.0</ele><time>2026-04-24T12:46:16Z</time></trkpt><trkpt lat="41.973454389084175" lon="13.272717138155578"><ele>1490.6</ele><time>2026-04-24T12:46:17Z</time></trkpt><trkpt lat="41.97356995720485" lon="13.272717759993302"><ele>1490.1999999999998</ele><time>2026-04-24T12:46:18Z</time></trkpt><trkpt lat="41.973660847334116" lon="13.272708763517723"><ele>1489.8000000000002</ele><time>2026-04-24T12:46:19Z</time></trkpt><trkpt lat="41.97378265235931" lon="13.272700895489349"><ele>1489.4</ele><time>2026-04-24T12:46:20Z</time></trkpt><trkpt lat="41.97387151523053" lon="13.272689646835243"><ele>1489.0</ele><time>2026-04-24T12:46:21Z</time></trkpt><trkpt lat="41.97396575573295" lon="13.27268071855752"><ele>1489.0</ele><time>2026-04-24T12:46:22Z</time></trkpt><trkpt lat="41.97406411493508" lon="13.272679630770382"><ele>1489.0</ele><time>2026-04-24T12:46:22.999Z</time></trkpt><trkpt lat="41.97415463746224" lon="13.272679859715325"><ele>1489.0</ele><time>2026-04-24T12:46:23.999Z</time></trkpt><trkpt lat="41.97425591726938" lon="13.272695257976123"><ele>1489.0</ele><time>2026-04-24T12:46:24.999Z</time></trkpt><trkpt lat="41.97434749398766" lon="13.272701757059767"><ele>1489.0</ele><time>2026-04-24T12:46:26Z</time></trkpt><trkpt lat="41.97444363891057" lon="13.272721512696954"><ele>1486.8333333333333</ele><time>2026-04-24T12:46:27Z</time></trkpt><trkpt lat="41.974523423806055" lon="13.272720516782652"><ele>1484.6666666666665</ele><time>2026-04-24T12:46:28Z</time></trkpt><trkpt lat="41.97460844079727" lon="13.272723307644137"><ele>1482.5</ele><time>2026-04-24T12:46:29Z</time></trkpt><trkpt lat="41.97469857647551" lon="13.27268049900754"><ele>1480.3333333333333</ele><time>2026-04-24T12:46:30Z</time></trkpt><trkpt lat="41.97478313380432" lon="13.272638953905178"><ele>1478.1666666666667</ele><time>2026-04-24T12:46:31Z</time></trkpt><trkpt lat="41.97486424181639" lon="13.272565166723117"><ele>1476.0</ele><time>2026-04-24T12:46:32Z</time></trkpt><trkpt lat="41.97493730008184" lon="13.272492405557843"><ele>1476.0</ele><time>2026-04-24T12:46:33Z</time></trkpt><trkpt lat="41.974993328179764" lon="13.272428152694577"><ele>1476.0</ele><time>2026-04-24T12:46:34Z</time></trkpt><trkpt lat="41.97504920684727" lon="13.272361652931837"><ele>1476.0</ele><time>2026-04-24T12:46:35Z</time></trkpt><trkpt lat="41.97509888605849" lon="13.272306670636139"><ele>1476.0</ele><time>2026-04-24T12:46:36Z</time></trkpt><trkpt lat="41.97520744347441" lon="13.272251855515645"><ele>1476.0</ele><time>2026-04-24T12:46:38Z</time></trkpt><trkpt lat="41.97528215875094" lon="13.272270734614423"><ele>1476.0</ele><time>2026-04-24T12:46:39Z</time></trkpt><trkpt lat="41.97537292579684" lon="13.272316406631006"><ele>1474.25</ele><time>2026-04-24T12:46:40Z</time></trkpt><trkpt lat="41.97547212035838" lon="13.272383439122887"><ele>1472.5</ele><time>2026-04-24T12:46:41Z</time></trkpt><trkpt lat="41.975596604295966" lon="13.272454024610461"><ele>1470.75</ele><time>2026-04-24T12:46:42Z</time></trkpt><trkpt lat="41.97571831157781" lon="13.272515670016293"><ele>1469.0</ele><time>2026-04-24T12:46:43Z</time></trkpt><trkpt lat="41.975851664488694" lon="13.27256897269758"><ele>1470.0</ele><time>2026-04-24T12:46:44Z</time></trkpt><trkpt lat="41.975978055729186" lon="13.272621843168217"><ele>1471.0</ele><time>2026-04-24T12:46:45Z</time></trkpt><trkpt lat="41.97610417633456" lon="13.272684574170677"><ele>1472.0</ele><time>2026-04-24T12:46:46Z</time></trkpt><trkpt lat="41.97623587436452" lon="13.272735719603038"><ele>1473.0</ele><time>2026-04-24T12:46:47Z</time></trkpt><trkpt lat="41.97636819416672" lon="13.272776730686815"><ele>1473.0</ele><time>2026-04-24T12:46:48Z</time></trkpt><trkpt lat="41.97648476619533" lon="13.272818789873353"><ele>1473.0</ele><time>2026-04-24T12:46:49Z</time></trkpt><trkpt lat="41.976590694544164" lon="13.272859378244336"><ele>1473.0</ele><time>2026-04-24T12:46:50Z</time></trkpt><trkpt lat="41.976692202107905" lon="13.272890075385753"><ele>1473.0</ele><time>2026-04-24T12:46:51Z</time></trkpt><trkpt lat="41.97678240736573" lon="13.272919821806045"><ele>1473.0</ele><time>2026-04-24T12:46:52Z</time></trkpt><trkpt lat="41.9768701416712" lon="13.27292483175956"><ele>1472.8333333333333</ele><time>2026-04-24T12:46:53Z</time></trkpt><trkpt lat="41.976964188527305" lon="13.272915088715635"><ele>1472.6666666666667</ele><time>2026-04-24T12:46:54Z</time></trkpt><trkpt lat="41.97704612772064" lon="13.272897296886487"><ele>1472.5</ele><time>2026-04-24T12:46:55Z</time></trkpt><trkpt lat="41.977116468862945" lon="13.272878476547634"><ele>1472.3333333333335</ele><time>2026-04-24T12:46:56Z</time></trkpt><trkpt lat="41.97722884998152" lon="13.27285589526403"><ele>1472.1666666666667</ele><time>2026-04-24T12:46:58Z</time></trkpt><trkpt lat="41.97730393721273" lon="13.272848788483454"><ele>1472.0</ele><time>2026-04-24T12:47:00Z</time></trkpt><trkpt lat="41.97738429478797" lon="13.27282588623192"><ele>1472.0</ele><time>2026-04-24T12:47:02Z</time></trkpt><trkpt lat="41.97747999683427" lon="13.272797049451185"><ele>1472.0</ele><time>2026-04-24T12:47:04Z</time></trkpt><trkpt lat="41.977574673476106" lon="13.27276775957511"><ele>1472.0</ele><time>2026-04-24T12:47:06Z</time></trkpt><trkpt lat="41.977666975729136" lon="13.272737483541368"><ele>1472.0</ele><time>2026-04-24T12:47:08Z</time></trkpt><trkpt lat="41.97778695002765" lon="13.272676562901813"><ele>1472.0</ele><time>2026-04-24T12:47:10Z</time></trkpt><trkpt lat="41.97786475365281" lon="13.27266632123983"><ele>1471.0</ele><time>2026-04-24T12:47:12Z</time></trkpt><trkpt lat="41.97799456968191" lon="13.27265925088814"><ele>1470.0</ele><time>2026-04-24T12:47:14Z</time></trkpt><trkpt lat="41.978163500170965" lon="13.272750721412617"><ele>1469.0</ele><time>2026-04-24T12:47:15Z</time></trkpt><trkpt lat="41.97823871956504" lon="13.272950836044892"><ele>1469.0</ele><time>2026-04-24T12:47:16Z</time></trkpt><trkpt lat="41.97825710242649" lon="13.273067191062246"><ele>1469.0</ele><time>2026-04-24T12:47:19Z</time></trkpt><trkpt lat="41.977872420617985" lon="13.273345416501803"><ele>1465.8000000000002</ele><time>2026-04-24T12:47:21Z</time></trkpt><trkpt lat="41.97784235021655" lon="13.27347801979294"><ele>1462.6000000000001</ele><time>2026-04-24T12:47:23Z</time></trkpt><trkpt lat="41.97781316622302" lon="13.273619077256422"><ele>1459.4</ele><time>2026-04-24T12:47:25Z</time></trkpt><trkpt lat="41.97785513593715" lon="13.273756948913576"><ele>1456.2</ele><time>2026-04-24T12:47:27Z</time></trkpt><trkpt lat="41.97788441471593" lon="13.273895246746859"><ele>1453.0</ele><time>2026-04-24T12:47:29Z</time></trkpt><trkpt lat="41.97792960207656" lon="13.274031883821102"><ele>1450.0</ele><time>2026-04-24T12:47:31Z</time></trkpt><trkpt lat="41.97795922579916" lon="13.274152918137426"><ele>1447.0</ele><time>2026-04-24T12:47:33Z</time></trkpt><trkpt lat="41.97799880713453" lon="13.274275971972427"><ele>1444.0</ele><time>2026-04-24T12:47:35Z</time></trkpt><trkpt lat="41.97808096266766" lon="13.274337249696027"><ele>1441.0</ele><time>2026-04-24T12:47:37Z</time></trkpt><trkpt lat="41.97819938741483" lon="13.27438933131934"><ele>1438.0</ele><time>2026-04-24T12:47:39Z</time></trkpt><trkpt lat="41.978282289819425" lon="13.274412028864148"><ele>1436.6000000000001</ele><time>2026-04-24T12:47:40Z</time></trkpt><trkpt lat="41.978380372793296" lon="13.2744234061882"><ele>1435.2</ele><time>2026-04-24T12:47:41Z</time></trkpt><trkpt lat="41.978472435562914" lon="13.274496928649992"><ele>1433.8</ele><time>2026-04-24T12:47:42Z</time></trkpt><trkpt lat="41.978561682964944" lon="13.274522962779987"><ele>1432.4</ele><time>2026-04-24T12:47:43Z</time></trkpt><trkpt lat="41.97863893992037" lon="13.274550688551347"><ele>1431.0</ele><time>2026-04-24T12:47:44Z</time></trkpt><trkpt lat="41.97871277036708" lon="13.274575487465821"><ele>1431.0</ele><time>2026-04-24T12:47:45Z</time></trkpt><trkpt lat="41.978788024989825" lon="13.274613764180742"><ele>1431.0</ele><time>2026-04-24T12:47:46Z</time></trkpt><trkpt lat="41.97887425670009" lon="13.27463571183522"><ele>1431.0</ele><time>2026-04-24T12:47:47Z</time></trkpt><trkpt lat="41.978988970076436" lon="13.274657666780486"><ele>1431.0</ele><time>2026-04-24T12:47:48Z</time></trkpt><trkpt lat="41.97909260628403" lon="13.274682624790893"><ele>1431.0</ele><time>2026-04-24T12:47:49Z</time></trkpt><trkpt lat="41.97918023132814" lon="13.274698120322387"><ele>1427.3333333333333</ele><time>2026-04-24T12:47:50Z</time></trkpt><trkpt lat="41.97926869127654" lon="13.274723536873292"><ele>1423.6666666666667</ele><time>2026-04-24T12:47:51Z</time></trkpt><trkpt lat="41.97934656226671" lon="13.274749635692938"><ele>1420.0</ele><time>2026-04-24T12:47:52Z</time></trkpt><trkpt lat="41.97941903144162" lon="13.274785551209789"><ele>1416.3333333333335</ele><time>2026-04-24T12:47:53Z</time></trkpt><trkpt lat="41.97948974447308" lon="13.274825604754515"><ele>1412.6666666666667</ele><time>2026-04-24T12:47:54Z</time></trkpt><trkpt lat="41.9795634286058" lon="13.2748672651605"><ele>1409.0</ele><time>2026-04-24T12:47:55Z</time></trkpt><trkpt lat="41.97963621187289" lon="13.27492299492383"><ele>1408.5</ele><time>2026-04-24T12:47:56Z</time></trkpt><trkpt lat="41.97971552037396" lon="13.274982209163783"><ele>1408.0</ele><time>2026-04-24T12:47:57Z</time></trkpt><trkpt lat="41.979792471455454" lon="13.275033831575112"><ele>1407.5</ele><time>2026-04-24T12:47:58Z</time></trkpt><trkpt lat="41.979871432070134" lon="13.275092759779886"><ele>1407.0</ele><time>2026-04-24T12:47:59Z</time></trkpt><trkpt lat="41.97994178278794" lon="13.275142732179352"><ele>1406.5</ele><time>2026-04-24T12:48:00Z</time></trkpt><trkpt lat="41.98001263812337" lon="13.275186314579711"><ele>1406.0</ele><time>2026-04-24T12:48:01Z</time></trkpt><trkpt lat="41.980089703232984" lon="13.275232147020132"><ele>1405.6666666666667</ele><time>2026-04-24T12:48:02Z</time></trkpt><trkpt lat="41.98015610388731" lon="13.275269585965434"><ele>1405.3333333333335</ele><time>2026-04-24T12:48:03Z</time></trkpt><trkpt lat="41.980222307999426" lon="13.275314023919217"><ele>1405.0</ele><time>2026-04-24T12:48:04Z</time></trkpt><trkpt lat="41.980289586632026" lon="13.275343087757157"><ele>1404.6666666666667</ele><time>2026-04-24T12:48:05Z</time></trkpt><trkpt lat="41.98036512253387" lon="13.275377371977779"><ele>1404.3333333333333</ele><time>2026-04-24T12:48:06Z</time></trkpt><trkpt lat="41.98044279163366" lon="13.275387492102558"><ele>1404.0</ele><time>2026-04-24T12:48:07Z</time></trkpt><trkpt lat="41.980532296441886" lon="13.275375106982326"><ele>1404.0</ele><time>2026-04-24T12:48:08Z</time></trkpt><trkpt lat="41.98061661831493" lon="13.275351012636103"><ele>1404.0</ele><time>2026-04-24T12:48:09Z</time></trkpt><trkpt lat="41.98068845557355" lon="13.275322409653377"><ele>1404.0</ele><time>2026-04-24T12:48:10Z</time></trkpt><trkpt lat="41.9807583341094" lon="13.275291783816598"><ele>1404.0</ele><time>2026-04-24T12:48:11Z</time></trkpt><trkpt lat="41.980833159770356" lon="13.275271998748325"><ele>1404.0</ele><time>2026-04-24T12:48:12Z</time></trkpt><trkpt lat="41.98090683155855" lon="13.275272979847884"><ele>1404.0</ele><time>2026-04-24T12:48:13Z</time></trkpt><trkpt lat="41.98097344994444" lon="13.27524344872203"><ele>1404.1666666666667</ele><time>2026-04-24T12:48:14Z</time></trkpt><trkpt lat="41.98106162713344" lon="13.275230199979415"><ele>1404.3333333333333</ele><time>2026-04-24T12:48:16Z</time></trkpt><trkpt lat="41.98111996188817" lon="13.275355041336843"><ele>1404.5</ele><time>2026-04-24T12:48:17Z</time></trkpt><trkpt lat="41.98117236643414" lon="13.275434896666027"><ele>1404.6666666666665</ele><time>2026-04-24T12:48:18Z</time></trkpt><trkpt lat="41.981205045479946" lon="13.275535256185433"><ele>1404.8333333333333</ele><time>2026-04-24T12:48:19Z</time></trkpt><trkpt lat="41.981246865752475" lon="13.27562317937217"><ele>1405.0</ele><time>2026-04-24T12:48:20Z</time></trkpt><trkpt lat="41.98132724227591" lon="13.275786971049987"><ele>1405.0</ele><time>2026-04-24T12:48:22Z</time></trkpt><trkpt lat="41.98137961092679" lon="13.275890575575675"><ele>1405.0</ele><time>2026-04-24T12:48:23Z</time></trkpt><trkpt lat="41.98143477441956" lon="13.275995223680292"><ele>1405.0</ele><time>2026-04-24T12:48:24Z</time></trkpt><trkpt lat="41.981487098008614" lon="13.276093792718662"><ele>1405.0</ele><time>2026-04-24T12:48:25Z</time></trkpt><trkpt lat="41.98155579749027" lon="13.276158060362226"><ele>1405.0</ele><time>2026-04-24T12:48:26Z</time></trkpt><trkpt lat="41.981610652948774" lon="13.276256088012056"><ele>1405.0</ele><time>2026-04-24T12:48:27Z</time></trkpt><trkpt lat="41.98166074869516" lon="13.276344839751708"><ele>1405.0</ele><time>2026-04-24T12:48:28Z</time></trkpt><trkpt lat="41.981709182261056" lon="13.276433933943192"><ele>1405.0</ele><time>2026-04-24T12:48:29Z</time></trkpt><trkpt lat="41.98175658977972" lon="13.276512895906798"><ele>1405.0</ele><time>2026-04-24T12:48:30Z</time></trkpt><trkpt lat="41.9818472934908" lon="13.276608149006217"><ele>1405.0</ele><time>2026-04-24T12:48:32Z</time></trkpt><trkpt lat="41.9819586094308" lon="13.276572810293738"><ele>1406.5</ele><time>2026-04-24T12:48:34Z</time></trkpt><trkpt lat="41.98203344825962" lon="13.276496916195518"><ele>1408.0</ele><time>2026-04-24T12:48:35Z</time></trkpt><trkpt lat="41.982121230015935" lon="13.276390345505645"><ele>1409.5</ele><time>2026-04-24T12:48:36Z</time></trkpt><trkpt lat="41.98220742953715" lon="13.276281466595929"><ele>1411.0</ele><time>2026-04-24T12:48:37Z</time></trkpt><trkpt lat="41.98229844908938" lon="13.276172842851102"><ele>1411.0</ele><time>2026-04-24T12:48:38Z</time></trkpt><trkpt lat="41.98241641241945" lon="13.276078038526672"><ele>1411.0</ele><time>2026-04-24T12:48:39Z</time></trkpt><trkpt lat="41.98252465722315" lon="13.27596424105017"><ele>1411.0</ele><time>2026-04-24T12:48:40Z</time></trkpt><trkpt lat="41.982627468395904" lon="13.275836420419541"><ele>1411.0</ele><time>2026-04-24T12:48:41Z</time></trkpt><trkpt lat="41.98274492390217" lon="13.275729259363526"><ele>1411.75</ele><time>2026-04-24T12:48:42Z</time></trkpt><trkpt lat="41.98286290884613" lon="13.275616815955727"><ele>1412.5</ele><time>2026-04-24T12:48:43Z</time></trkpt><trkpt lat="41.982991457442516" lon="13.275508191132122"><ele>1413.25</ele><time>2026-04-24T12:48:44Z</time></trkpt><trkpt lat="41.983117219609696" lon="13.27540198983438"><ele>1414.0</ele><time>2026-04-24T12:48:45Z</time></trkpt><trkpt lat="41.983247400644295" lon="13.275289433784428"><ele>1416.6666666666665</ele><time>2026-04-24T12:48:46Z</time></trkpt><trkpt lat="41.98337390697258" lon="13.275176295139046"><ele>1419.3333333333333</ele><time>2026-04-24T12:48:47Z</time></trkpt><trkpt lat="41.98350509275995" lon="13.275073084771568"><ele>1422.0</ele><time>2026-04-24T12:48:48Z</time></trkpt><trkpt lat="41.98363379308425" lon="13.274970692422603"><ele>1422.0</ele><time>2026-04-24T12:48:49Z</time></trkpt><trkpt lat="41.98376268089748" lon="13.274871505238242"><ele>1422.0</ele><time>2026-04-24T12:48:50Z</time></trkpt><trkpt lat="41.98389234075904" lon="13.27477435894094"><ele>1422.0</ele><time>2026-04-24T12:48:51Z</time></trkpt><trkpt lat="41.984020869315145" lon="13.274678333901429"><ele>1422.0</ele><time>2026-04-24T12:48:52Z</time></trkpt><trkpt lat="41.984148358917366" lon="13.274578742333699"><ele>1421.75</ele><time>2026-04-24T12:48:53Z</time></trkpt><trkpt lat="41.98427238902038" lon="13.27447518879995"><ele>1421.5</ele><time>2026-04-24T12:48:54Z</time></trkpt><trkpt lat="41.98439860394399" lon="13.274380896516355"><ele>1421.25</ele><time>2026-04-24T12:48:55Z</time></trkpt><trkpt lat="41.98451185432346" lon="13.274294961529206"><ele>1421.0</ele><time>2026-04-24T12:48:56Z</time></trkpt><trkpt lat="41.98461973904327" lon="13.27420355182205"><ele>1421.0</ele><time>2026-04-24T12:48:57Z</time></trkpt><trkpt lat="41.984716045834595" lon="13.274118452922917"><ele>1421.0</ele><time>2026-04-24T12:48:58Z</time></trkpt><trkpt lat="41.984809241653444" lon="13.27403854975229"><ele>1421.0</ele><time>2026-04-24T12:48:59Z</time></trkpt><trkpt lat="41.98489993524558" lon="13.273969314473225"><ele>1421.0</ele><time>2026-04-24T12:49:00Z</time></trkpt><trkpt lat="41.98497638524673" lon="13.273889136898415"><ele>1421.0</ele><time>2026-04-24T12:49:01Z</time></trkpt><trkpt lat="41.985050698004535" lon="13.273811203662982"><ele>1422.0</ele><time>2026-04-24T12:49:02Z</time></trkpt><trkpt lat="41.98511768945625" lon="13.27374775710563"><ele>1423.0</ele><time>2026-04-24T12:49:03Z</time></trkpt><trkpt lat="41.98513027208345" lon="13.273561340456082"><ele>1424.0</ele><time>2026-04-24T12:49:04Z</time></trkpt><trkpt lat="41.9851324898624" lon="13.273434097850723"><ele>1425.0</ele><time>2026-04-24T12:49:05Z</time></trkpt><trkpt lat="41.98516391714566" lon="13.273308285342955"><ele>1426.0</ele><time>2026-04-24T12:49:06Z</time></trkpt><trkpt lat="41.985206066176" lon="13.273187029185411"><ele>1422.6</ele><time>2026-04-24T12:49:07Z</time></trkpt><trkpt lat="41.98527008502089" lon="13.273078313192233"><ele>1419.1999999999998</ele><time>2026-04-24T12:49:08Z</time></trkpt><trkpt lat="41.9853470950088" lon="13.272979783844587"><ele>1415.8000000000002</ele><time>2026-04-24T12:49:09Z</time></trkpt><trkpt lat="41.98543724109743" lon="13.272897201280154"><ele>1412.4</ele><time>2026-04-24T12:49:10Z</time></trkpt><trkpt lat="41.98553182811232" lon="13.272822225274679"><ele>1409.0</ele><time>2026-04-24T12:49:11Z</time></trkpt><trkpt lat="41.98562299559413" lon="13.272744521352864"><ele>1409.0</ele><time>2026-04-24T12:49:12Z</time></trkpt><trkpt lat="41.98570790665144" lon="13.272670953257713"><ele>1409.0</ele><time>2026-04-24T12:49:13Z</time></trkpt><trkpt lat="41.98579026213145" lon="13.272596914696855"><ele>1409.0</ele><time>2026-04-24T12:49:14Z</time></trkpt><trkpt lat="41.985869568806" lon="13.272525978102776"><ele>1409.0</ele><time>2026-04-24T12:49:15Z</time></trkpt><trkpt lat="41.985950098858254" lon="13.272452972343928"><ele>1409.0</ele><time>2026-04-24T12:49:16Z</time></trkpt><trkpt lat="41.986025626892875" lon="13.27238152357421"><ele>1409.6666666666667</ele><time>2026-04-24T12:49:17Z</time></trkpt><trkpt lat="41.98610086774939" lon="13.272318992542342"><ele>1410.3333333333335</ele><time>2026-04-24T12:49:18Z</time></trkpt><trkpt lat="41.98617784176108" lon="13.272257001706288"><ele>1411.0</ele><time>2026-04-24T12:49:19Z</time></trkpt><trkpt lat="41.9862428136245" lon="13.272193458321393"><ele>1411.6666666666667</ele><time>2026-04-24T12:49:20Z</time></trkpt><trkpt lat="41.98632115003956" lon="13.272159044308841"><ele>1412.3333333333333</ele><time>2026-04-24T12:49:21Z</time></trkpt><trkpt lat="41.98639268870327" lon="13.272117225114574"><ele>1413.0</ele><time>2026-04-24T12:49:22Z</time></trkpt><trkpt lat="41.98645879367406" lon="13.272085890375356"><ele>1413.0</ele><time>2026-04-24T12:49:23Z</time></trkpt><trkpt lat="41.98649135058189" lon="13.2719460992143"><ele>1413.0</ele><time>2026-04-24T12:49:24Z</time></trkpt><trkpt lat="41.9865444949499" lon="13.271887455493232"><ele>1413.0</ele><time>2026-04-24T12:49:25Z</time></trkpt><trkpt lat="41.986596422193564" lon="13.271827247433716"><ele>1413.0</ele><time>2026-04-24T12:49:26Z</time></trkpt><trkpt lat="41.98664703809699" lon="13.271764977376385"><ele>1413.0</ele><time>2026-04-24T12:49:27Z</time></trkpt><trkpt lat="41.986755485145835" lon="13.271669906225398"><ele>1413.0</ele><time>2026-04-24T12:49:29Z</time></trkpt><trkpt lat="41.98681455647875" lon="13.271604982202417"><ele>1412.8333333333333</ele><time>2026-04-24T12:49:30Z</time></trkpt><trkpt lat="41.986878710266375" lon="13.271518643023724"><ele>1412.6666666666667</ele><time>2026-04-24T12:49:31Z</time></trkpt><trkpt lat="41.9869569897727" lon="13.271437706732083"><ele>1412.5</ele><time>2026-04-24T12:49:32Z</time></trkpt><trkpt lat="41.98702690982434" lon="13.271367569454519"><ele>1412.3333333333335</ele><time>2026-04-24T12:49:33Z</time></trkpt><trkpt lat="41.98708852166883" lon="13.27128956859925"><ele>1412.1666666666667</ele><time>2026-04-24T12:49:34Z</time></trkpt><trkpt lat="41.98714527033903" lon="13.271205541862921"><ele>1412.0</ele><time>2026-04-24T12:49:35Z</time></trkpt><trkpt lat="41.98719018390791" lon="13.271118637928609"><ele>1410.0</ele><time>2026-04-24T12:49:36Z</time></trkpt><trkpt lat="41.987201745159716" lon="13.271027704976992"><ele>1408.0</ele><time>2026-04-24T12:49:37Z</time></trkpt><trkpt lat="41.987243403505076" lon="13.270905541945929"><ele>1406.0</ele><time>2026-04-24T12:49:38Z</time></trkpt><trkpt lat="41.98725749608847" lon="13.27072031616856"><ele>1404.0</ele><time>2026-04-24T12:49:40Z</time></trkpt><trkpt lat="41.987272298982276" lon="13.270600817089305"><ele>1402.0</ele><time>2026-04-24T12:49:41Z</time></trkpt><trkpt lat="41.987287739701294" lon="13.270499039154682"><ele>1400.6666666666665</ele><time>2026-04-24T12:49:42Z</time></trkpt><trkpt lat="41.987300790561974" lon="13.270408810333507"><ele>1399.3333333333333</ele><time>2026-04-24T12:49:43Z</time></trkpt><trkpt lat="41.987323949392305" lon="13.270230195522783"><ele>1398.0</ele><time>2026-04-24T12:49:45Z</time></trkpt><trkpt lat="41.98736293914033" lon="13.270161850155006"><ele>1396.6666666666667</ele><time>2026-04-24T12:49:46Z</time></trkpt><trkpt lat="41.98742218215435" lon="13.270119669108297"><ele>1395.3333333333335</ele><time>2026-04-24T12:49:47Z</time></trkpt><trkpt lat="41.98748224824198" lon="13.270090242934769"><ele>1394.0</ele><time>2026-04-24T12:49:48Z</time></trkpt><trkpt lat="41.98760143566338" lon="13.270098161925672"><ele>1392.4</ele><time>2026-04-24T12:49:50Z</time></trkpt><trkpt lat="41.98770628182533" lon="13.270063743412534"><ele>1390.8000000000002</ele><time>2026-04-24T12:49:52Z</time></trkpt><trkpt lat="41.98778675316172" lon="13.269952036490135"><ele>1389.1999999999998</ele><time>2026-04-24T12:49:54Z</time></trkpt><trkpt lat="41.98779327318593" lon="13.269839407523254"><ele>1387.6</ele><time>2026-04-24T12:49:55Z</time></trkpt><trkpt lat="41.98778600191732" lon="13.269711219644018"><ele>1386.0</ele><time>2026-04-24T12:49:56Z</time></trkpt><trkpt lat="41.98778115651437" lon="13.269577059614488"><ele>1384.6</ele><time>2026-04-24T12:49:57Z</time></trkpt><trkpt lat="41.98777715374282" lon="13.269447855613963"><ele>1383.1999999999998</ele><time>2026-04-24T12:49:58Z</time></trkpt><trkpt lat="41.98777540860504" lon="13.269317552073325"><ele>1381.8000000000002</ele><time>2026-04-24T12:49:59Z</time></trkpt><trkpt lat="41.98777278898737" lon="13.269194858138421"><ele>1380.4</ele><time>2026-04-24T12:50:00Z</time></trkpt><trkpt lat="41.987768877198654" lon="13.269085179095617"><ele>1379.0</ele><time>2026-04-24T12:50:01Z</time></trkpt><trkpt lat="41.987763455708574" lon="13.268971207286146"><ele>1378.5</ele><time>2026-04-24T12:50:02Z</time></trkpt><trkpt lat="41.98775735995609" lon="13.268860720997028"><ele>1378.0</ele><time>2026-04-24T12:50:03Z</time></trkpt><trkpt lat="41.987747810124716" lon="13.268759206257796"><ele>1377.5</ele><time>2026-04-24T12:50:04Z</time></trkpt><trkpt lat="41.987732967554805" lon="13.268659078206458"><ele>1377.0</ele><time>2026-04-24T12:50:05Z</time></trkpt><trkpt lat="41.98770664137716" lon="13.268565763901616"><ele>1376.5</ele><time>2026-04-24T12:50:06Z</time></trkpt><trkpt lat="41.987675588977524" lon="13.268482773391247"><ele>1376.0</ele><time>2026-04-24T12:50:07Z</time></trkpt><trkpt lat="41.98764339739715" lon="13.268392175947477"><ele>1376.0</ele><time>2026-04-24T12:50:08Z</time></trkpt><trkpt lat="41.98761943644295" lon="13.268282511277292"><ele>1376.0</ele><time>2026-04-24T12:50:09Z</time></trkpt><trkpt lat="41.98761601197554" lon="13.268170794465012"><ele>1376.0</ele><time>2026-04-24T12:50:10Z</time></trkpt><trkpt lat="41.98762450336007" lon="13.268033903245776"><ele>1376.0</ele><time>2026-04-24T12:50:11Z</time></trkpt><trkpt lat="41.987636965144745" lon="13.26788112937006"><ele>1376.0</ele><time>2026-04-24T12:50:12Z</time></trkpt><trkpt lat="41.98765342532418" lon="13.26771511355282"><ele>1375.5</ele><time>2026-04-24T12:50:13Z</time></trkpt><trkpt lat="41.98767645510387" lon="13.26755483051155"><ele>1375.0</ele><time>2026-04-24T12:50:14Z</time></trkpt><trkpt lat="41.98770490946837" lon="13.267370400706834"><ele>1374.5</ele><time>2026-04-24T12:50:15Z</time></trkpt><trkpt lat="41.987732648424796" lon="13.267190607394696"><ele>1374.0</ele><time>2026-04-24T12:50:16Z</time></trkpt><trkpt lat="41.98775342722374" lon="13.267015920204269"><ele>1373.75</ele><time>2026-04-24T12:50:16.999Z</time></trkpt><trkpt lat="41.987770155797065" lon="13.266841278908476"><ele>1373.5</ele><time>2026-04-24T12:50:17.999Z</time></trkpt><trkpt lat="41.98778622523671" lon="13.266668987490782"><ele>1373.25</ele><time>2026-04-24T12:50:18.999Z</time></trkpt><trkpt lat="41.98780560006403" lon="13.266503774215916"><ele>1373.0</ele><time>2026-04-24T12:50:19.999Z</time></trkpt><trkpt lat="41.98782512456229" lon="13.266350200424492"><ele>1373.0</ele><time>2026-04-24T12:50:20.999Z</time></trkpt><trkpt lat="41.987845976990194" lon="13.266206228431257"><ele>1373.0</ele><time>2026-04-24T12:50:21.999Z</time></trkpt><trkpt lat="41.98786492739224" lon="13.266075388329602"><ele>1373.0</ele><time>2026-04-24T12:50:22.999Z</time></trkpt><trkpt lat="41.98788791944054" lon="13.265941142946488"><ele>1373.0</ele><time>2026-04-24T12:50:23.999Z</time></trkpt><trkpt lat="41.987911820020116" lon="13.265816171506275"><ele>1373.0</ele><time>2026-04-24T12:50:24.999Z</time></trkpt><trkpt lat="41.98794468212306" lon="13.265708958709144"><ele>1374.75</ele><time>2026-04-24T12:50:25.999Z</time></trkpt><trkpt lat="41.98799948540029" lon="13.265583127206545"><ele>1376.5</ele><time>2026-04-24T12:50:26.999Z</time></trkpt><trkpt lat="41.988089062127806" lon="13.265469107771743"><ele>1378.25</ele><time>2026-04-24T12:50:27.999Z</time></trkpt><trkpt lat="41.98819355198574" lon="13.265355559486228"><ele>1380.0</ele><time>2026-04-24T12:50:28.999Z</time></trkpt><trkpt lat="41.98827689856342" lon="13.265207230343641"><ele>1377.25</ele><time>2026-04-24T12:50:29.999Z</time></trkpt><trkpt lat="41.98835991707238" lon="13.265062440436905"><ele>1374.5</ele><time>2026-04-24T12:50:30.999Z</time></trkpt><trkpt lat="41.98845091384669" lon="13.264936656393736"><ele>1371.75</ele><time>2026-04-24T12:50:31.999Z</time></trkpt><trkpt lat="41.98853105810387" lon="13.264798952863178"><ele>1369.0</ele><time>2026-04-24T12:50:32.999Z</time></trkpt><trkpt lat="41.988614973851156" lon="13.264687859489683"><ele>1369.0</ele><time>2026-04-24T12:50:33.999Z</time></trkpt><trkpt lat="41.98869547866951" lon="13.264584301353729"><ele>1369.0</ele><time>2026-04-24T12:50:34.999Z</time></trkpt><trkpt lat="41.988763529070255" lon="13.264500037646892"><ele>1369.0</ele><time>2026-04-24T12:50:35.999Z</time></trkpt><trkpt lat="41.98882195576741" lon="13.264431985547096"><ele>1369.0</ele><time>2026-04-24T12:50:37Z</time></trkpt><trkpt lat="41.988900746973776" lon="13.264381659002785"><ele>1369.0</ele><time>2026-04-24T12:50:38Z</time></trkpt><trkpt lat="41.988968173636884" lon="13.26435165684824"><ele>1369.0</ele><time>2026-04-24T12:50:39Z</time></trkpt><trkpt lat="41.98902918515372" lon="13.264288410285774"><ele>1369.0</ele><time>2026-04-24T12:50:40Z</time></trkpt><trkpt lat="41.989092170053404" lon="13.264208269209849"><ele>1369.0</ele><time>2026-04-24T12:50:41Z</time></trkpt><trkpt lat="41.98911632988072" lon="13.264068988666054"><ele>1369.0</ele><time>2026-04-24T12:50:42Z</time></trkpt><trkpt lat="41.98916581950697" lon="13.263935255016635"><ele>1369.0</ele><time>2026-04-24T12:50:43Z</time></trkpt><trkpt lat="41.98920461454889" lon="13.263823417169787"><ele>1369.0</ele><time>2026-04-24T12:50:44Z</time></trkpt><trkpt lat="41.989243466020355" lon="13.263716802737763"><ele>1366.4</ele><time>2026-04-24T12:50:45Z</time></trkpt><trkpt lat="41.98930286711386" lon="13.263597464535643"><ele>1363.8000000000002</ele><time>2026-04-24T12:50:46Z</time></trkpt><trkpt lat="41.989389138006274" lon="13.26352600083536"><ele>1361.1999999999998</ele><time>2026-04-24T12:50:47Z</time></trkpt><trkpt lat="41.989470735184504" lon="13.263425529249847"><ele>1358.6</ele><time>2026-04-24T12:50:48Z</time></trkpt><trkpt lat="41.98951015247609" lon="13.263306404530502"><ele>1356.0</ele><time>2026-04-24T12:50:49Z</time></trkpt><trkpt lat="41.98955119320939" lon="13.263205951818982"><ele>1359.3333333333333</ele><time>2026-04-24T12:50:50Z</time></trkpt><trkpt lat="41.98961227230512" lon="13.26310232945312"><ele>1362.6666666666667</ele><time>2026-04-24T12:50:51Z</time></trkpt><trkpt lat="41.98968089725001" lon="13.262982037145852"><ele>1366.0</ele><time>2026-04-24T12:50:52Z</time></trkpt><trkpt lat="41.98973283145995" lon="13.262902674250643"><ele>1369.3333333333335</ele><time>2026-04-24T12:50:53Z</time></trkpt><trkpt lat="41.989781285953676" lon="13.262842647168892"><ele>1372.6666666666667</ele><time>2026-04-24T12:50:54Z</time></trkpt><trkpt lat="41.98984619074612" lon="13.262789267983264"><ele>1376.0</ele><time>2026-04-24T12:50:55Z</time></trkpt><trkpt lat="41.98993684879686" lon="13.262772388608779"><ele>1372.1999999999998</ele><time>2026-04-24T12:50:56Z</time></trkpt><trkpt lat="41.99005267270544" lon="13.262755537424486"><ele>1368.3999999999999</ele><time>2026-04-24T12:50:57Z</time></trkpt><trkpt lat="41.9901431478474" lon="13.262745563484108"><ele>1364.6</ele><time>2026-04-24T12:50:58Z</time></trkpt><trkpt lat="41.99022239446653" lon="13.262719387985104"><ele>1360.8</ele><time>2026-04-24T12:50:59Z</time></trkpt><trkpt lat="41.990318436487115" lon="13.262650595577774"><ele>1357.0</ele><time>2026-04-24T12:51:00Z</time></trkpt><trkpt lat="41.99040173647031" lon="13.262608575289025"><ele>1357.0</ele><time>2026-04-24T12:51:01Z</time></trkpt><trkpt lat="41.99049146581663" lon="13.262596902127516"><ele>1357.0</ele><time>2026-04-24T12:51:02Z</time></trkpt><trkpt lat="41.99055635349119" lon="13.262590782965402"><ele>1357.0</ele><time>2026-04-24T12:51:03Z</time></trkpt><trkpt lat="41.990644587944914" lon="13.262573521470438"><ele>1357.0</ele><time>2026-04-24T12:51:04Z</time></trkpt><trkpt lat="41.990733971545794" lon="13.262547180814927"><ele>1357.0</ele><time>2026-04-24T12:51:05Z</time></trkpt><trkpt lat="41.990822236594724" lon="13.262471751263169"><ele>1357.0</ele><time>2026-04-24T12:51:06Z</time></trkpt><trkpt lat="41.99087537735923" lon="13.262377239480918"><ele>1358.8</ele><time>2026-04-24T12:51:07Z</time></trkpt><trkpt lat="41.99094097895349" lon="13.262342413675015"><ele>1360.6</ele><time>2026-04-24T12:51:08Z</time></trkpt><trkpt lat="41.99103604013617" lon="13.262296403780148"><ele>1362.3999999999999</ele><time>2026-04-24T12:51:09Z</time></trkpt><trkpt lat="41.99113587383272" lon="13.262230603406033"><ele>1364.1999999999998</ele><time>2026-04-24T12:51:10Z</time></trkpt><trkpt lat="41.9912135938581" lon="13.262190247320813"><ele>1366.0</ele><time>2026-04-24T12:51:11Z</time></trkpt><trkpt lat="41.991289268448384" lon="13.262104383656354"><ele>1366.0</ele><time>2026-04-24T12:51:12Z</time></trkpt><trkpt lat="41.991362349099575" lon="13.262020740380592"><ele>1366.0</ele><time>2026-04-24T12:51:13Z</time></trkpt><trkpt lat="41.99144560637328" lon="13.261958857742732"><ele>1366.0</ele><time>2026-04-24T12:51:14Z</time></trkpt><trkpt lat="41.99156460453786" lon="13.261908507300927"><ele>1366.0</ele><time>2026-04-24T12:51:15Z</time></trkpt><trkpt lat="41.991691622242065" lon="13.261859937242415"><ele>1366.0</ele><time>2026-04-24T12:51:16Z</time></trkpt><trkpt lat="41.99179739122687" lon="13.2618042545018"><ele>1360.8</ele><time>2026-04-24T12:51:17Z</time></trkpt><trkpt lat="41.9918964649861" lon="13.261742624725354"><ele>1355.6</ele><time>2026-04-24T12:51:18Z</time></trkpt><trkpt lat="41.991988056623974" lon="13.261703429974222"><ele>1350.4</ele><time>2026-04-24T12:51:19Z</time></trkpt><trkpt lat="41.992071572525454" lon="13.261661059129576"><ele>1345.2</ele><time>2026-04-24T12:51:20Z</time></trkpt><trkpt lat="41.99215945879807" lon="13.261614836328304"><ele>1340.0</ele><time>2026-04-24T12:51:21Z</time></trkpt><trkpt lat="41.992222348926" lon="13.261560268500874"><ele>1340.0</ele><time>2026-04-24T12:51:22Z</time></trkpt><trkpt lat="41.99227272264449" lon="13.2614814731662"><ele>1340.0</ele><time>2026-04-24T12:51:23Z</time></trkpt><trkpt lat="41.992324667615904" lon="13.261412738650309"><ele>1340.0</ele><time>2026-04-24T12:51:24Z</time></trkpt><trkpt lat="41.99235624445984" lon="13.261320992824423"><ele>1340.0</ele><time>2026-04-24T12:51:25Z</time></trkpt><trkpt lat="41.99241380007707" lon="13.261247083099407"><ele>1340.0</ele><time>2026-04-24T12:51:26Z</time></trkpt><trkpt lat="41.992520927584195" lon="13.26117329348975"><ele>1340.0</ele><time>2026-04-24T12:51:27Z</time></trkpt><trkpt lat="41.992638691269114" lon="13.261118470935793"><ele>1339.0</ele><time>2026-04-24T12:51:28Z</time></trkpt><trkpt lat="41.99274377431679" lon="13.261081639796672"><ele>1338.0</ele><time>2026-04-24T12:51:29Z</time></trkpt><trkpt lat="41.99284902075858" lon="13.261080603544873"><ele>1337.0</ele><time>2026-04-24T12:51:30Z</time></trkpt><trkpt lat="41.99294699315772" lon="13.261057962042111"><ele>1336.0</ele><time>2026-04-24T12:51:31Z</time></trkpt><trkpt lat="41.993041922976666" lon="13.26103496239851"><ele>1335.0</ele><time>2026-04-24T12:51:32Z</time></trkpt><trkpt lat="41.993125298992474" lon="13.261009994713422"><ele>1335.0</ele><time>2026-04-24T12:51:33Z</time></trkpt><trkpt lat="41.99321329149766" lon="13.260989319276204"><ele>1335.0</ele><time>2026-04-24T12:51:34Z</time></trkpt><trkpt lat="41.993305018643625" lon="13.260970134669826"><ele>1335.0</ele><time>2026-04-24T12:51:35Z</time></trkpt><trkpt lat="41.9933806806064" lon="13.260976664920339"><ele>1335.0</ele><time>2026-04-24T12:51:36Z</time></trkpt><trkpt lat="41.99346312279927" lon="13.26101372117399"><ele>1335.0</ele><time>2026-04-24T12:51:37Z</time></trkpt><trkpt lat="41.993530929470445" lon="13.26107827393665"><ele>1335.0</ele><time>2026-04-24T12:51:38Z</time></trkpt><trkpt lat="41.9935909428921" lon="13.261149197363006"><ele>1333.3333333333333</ele><time>2026-04-24T12:51:39Z</time></trkpt><trkpt lat="41.99365167346893" lon="13.261213380537558"><ele>1331.6666666666667</ele><time>2026-04-24T12:51:40Z</time></trkpt><trkpt lat="41.99372160812073" lon="13.261259290570454"><ele>1330.0</ele><time>2026-04-24T12:51:41Z</time></trkpt><trkpt lat="41.99379009783796" lon="13.261283255462022"><ele>1328.3333333333335</ele><time>2026-04-24T12:51:42Z</time></trkpt><trkpt lat="41.99386820827689" lon="13.2612843305066"><ele>1326.6666666666667</ele><time>2026-04-24T12:51:43Z</time></trkpt><trkpt lat="41.993946380421576" lon="13.261267805107007"><ele>1325.0</ele><time>2026-04-24T12:51:44Z</time></trkpt><trkpt lat="41.99401730391933" lon="13.261217623204006"><ele>1325.0</ele><time>2026-04-24T12:51:45Z</time></trkpt><trkpt lat="41.99408326703806" lon="13.261147563851985"><ele>1325.0</ele><time>2026-04-24T12:51:46Z</time></trkpt><trkpt lat="41.99414727690014" lon="13.261076387295434"><ele>1325.0</ele><time>2026-04-24T12:51:47Z</time></trkpt><trkpt lat="41.99420023070626" lon="13.260988569555366"><ele>1325.0</ele><time>2026-04-24T12:51:48Z</time></trkpt><trkpt lat="41.99425022680333" lon="13.260897406808478"><ele>1325.0</ele><time>2026-04-24T12:51:49Z</time></trkpt><trkpt lat="41.99430105707699" lon="13.260787803759015"><ele>1325.0</ele><time>2026-04-24T12:51:50Z</time></trkpt><trkpt lat="41.99434332256243" lon="13.26068733514906"><ele>1326.0</ele><time>2026-04-24T12:51:51Z</time></trkpt><trkpt lat="41.9943818709366" lon="13.260578183210047"><ele>1327.0</ele><time>2026-04-24T12:51:52Z</time></trkpt><trkpt lat="41.99439349799969" lon="13.260452034282203"><ele>1328.0</ele><time>2026-04-24T12:51:53Z</time></trkpt><trkpt lat="41.99439586411816" lon="13.260345778823961"><ele>1329.0</ele><time>2026-04-24T12:51:54Z</time></trkpt><trkpt lat="41.99440048001155" lon="13.260261167859147"><ele>1330.0</ele><time>2026-04-24T12:51:55Z</time></trkpt><trkpt lat="41.99443032908543" lon="13.260126155919673"><ele>1331.0</ele><time>2026-04-24T12:51:57Z</time></trkpt><trkpt lat="41.99455183123574" lon="13.26007546761325"><ele>1331.0</ele><time>2026-04-24T12:51:59Z</time></trkpt><trkpt lat="41.994646641528355" lon="13.260057805863202"><ele>1331.0</ele><time>2026-04-24T12:52:00Z</time></trkpt><trkpt lat="41.994739539007874" lon="13.260047764814834"><ele>1331.0</ele><time>2026-04-24T12:52:01Z</time></trkpt><trkpt lat="41.994818616108304" lon="13.260020252118451"><ele>1331.0</ele><time>2026-04-24T12:52:02Z</time></trkpt><trkpt lat="41.99488725118954" lon="13.259972685819779"><ele>1331.0</ele><time>2026-04-24T12:52:03Z</time></trkpt><trkpt lat="41.99495002007911" lon="13.259888377332498"><ele>1331.0</ele><time>2026-04-24T12:52:04Z</time></trkpt><trkpt lat="41.99500630185771" lon="13.259773595200077"><ele>1330.1999999999998</ele><time>2026-04-24T12:52:05Z</time></trkpt><trkpt lat="41.99504896782348" lon="13.259646010965243"><ele>1329.3999999999999</ele><time>2026-04-24T12:52:06Z</time></trkpt><trkpt lat="41.99508856723656" lon="13.259520453860677"><ele>1328.6</ele><time>2026-04-24T12:52:07Z</time></trkpt><trkpt lat="41.99513275640068" lon="13.2594085356848"><ele>1327.8</ele><time>2026-04-24T12:52:08Z</time></trkpt><trkpt lat="41.99518468618955" lon="13.259301425997716"><ele>1327.0</ele><time>2026-04-24T12:52:09Z</time></trkpt><trkpt lat="41.99523164246085" lon="13.25918570137404"><ele>1327.0</ele><time>2026-04-24T12:52:10Z</time></trkpt><trkpt lat="41.995284719207376" lon="13.259084348355884"><ele>1327.0</ele><time>2026-04-24T12:52:11Z</time></trkpt><trkpt lat="41.99533218900471" lon="13.258995020946069"><ele>1327.0</ele><time>2026-04-24T12:52:12Z</time></trkpt><trkpt lat="41.99538845692191" lon="13.258924453899839"><ele>1327.0</ele><time>2026-04-24T12:52:13Z</time></trkpt><trkpt lat="41.9954310029853" lon="13.258818705344286"><ele>1327.0</ele><time>2026-04-24T12:52:14Z</time></trkpt><trkpt lat="41.99543881158018" lon="13.258696940024567"><ele>1327.0</ele><time>2026-04-24T12:52:15Z</time></trkpt><trkpt lat="41.99547335715041" lon="13.258600492580346"><ele>1325.8</ele><time>2026-04-24T12:52:16Z</time></trkpt><trkpt lat="41.9955196658052" lon="13.258514931647001"><ele>1324.6</ele><time>2026-04-24T12:52:17Z</time></trkpt><trkpt lat="41.99559073904613" lon="13.258424338719019"><ele>1323.3999999999999</ele><time>2026-04-24T12:52:18Z</time></trkpt><trkpt lat="41.99568377393885" lon="13.258379247262647"><ele>1322.1999999999998</ele><time>2026-04-24T12:52:19Z</time></trkpt><trkpt lat="41.99576865978872" lon="13.25830284786312"><ele>1321.0</ele><time>2026-04-24T12:52:20Z</time></trkpt><trkpt lat="41.99583514335317" lon="13.258192694041876"><ele>1319.1666666666665</ele><time>2026-04-24T12:52:21Z</time></trkpt><trkpt lat="41.99589433029708" lon="13.258095751624413"><ele>1317.3333333333333</ele><time>2026-04-24T12:52:22Z</time></trkpt><trkpt lat="41.99595805917722" lon="13.258025247612256"><ele>1315.5</ele><time>2026-04-24T12:52:23Z</time></trkpt><trkpt lat="41.99599643556091" lon="13.25794017557223"><ele>1313.6666666666667</ele><time>2026-04-24T12:52:24Z</time></trkpt><trkpt lat="41.99600354229389" lon="13.257826840822458"><ele>1311.8333333333335</ele><time>2026-04-24T12:52:25Z</time></trkpt><trkpt lat="41.996015970731236" lon="13.257726488487465"><ele>1310.0</ele><time>2026-04-24T12:52:26Z</time></trkpt><trkpt lat="41.99604129685082" lon="13.257641282472221"><ele>1310.0</ele><time>2026-04-24T12:52:27Z</time></trkpt><trkpt lat="41.996134756729354" lon="13.25750789404955"><ele>1310.0</ele><time>2026-04-24T12:52:29Z</time></trkpt><trkpt lat="41.99621750330165" lon="13.257438511958231"><ele>1310.0</ele><time>2026-04-24T12:52:30Z</time></trkpt><trkpt lat="41.99630859393728" lon="13.257339724548993"><ele>1310.0</ele><time>2026-04-24T12:52:30.999Z</time></trkpt><trkpt lat="41.99638841379731" lon="13.257229256487783"><ele>1310.5</ele><time>2026-04-24T12:52:31.999Z</time></trkpt><trkpt lat="41.99645400362153" lon="13.25710826967886"><ele>1311.0</ele><time>2026-04-24T12:52:32.999Z</time></trkpt><trkpt lat="41.996513709687505" lon="13.256966201143747"><ele>1311.5</ele><time>2026-04-24T12:52:33.999Z</time></trkpt><trkpt lat="41.996583998763924" lon="13.256826563090751"><ele>1312.0</ele><time>2026-04-24T12:52:34.999Z</time></trkpt><trkpt lat="41.9966394809964" lon="13.256669553286438"><ele>1311.3999999999999</ele><time>2026-04-24T12:52:35.999Z</time></trkpt><trkpt lat="41.99670465153214" lon="13.256528384291125"><ele>1310.8</ele><time>2026-04-24T12:52:36.999Z</time></trkpt><trkpt lat="41.99677331891003" lon="13.256403234921596"><ele>1310.2</ele><time>2026-04-24T12:52:37.999Z</time></trkpt><trkpt lat="41.996840892824196" lon="13.25628808567581"><ele>1309.6</ele><time>2026-04-24T12:52:38.999Z</time></trkpt><trkpt lat="41.99689883127772" lon="13.256176479927444"><ele>1309.0</ele><time>2026-04-24T12:52:39.999Z</time></trkpt><trkpt lat="41.99695721109597" lon="13.256077406093349"><ele>1309.0</ele><time>2026-04-24T12:52:40.999Z</time></trkpt><trkpt lat="41.99701397243667" lon="13.255995103544652"><ele>1309.0</ele><time>2026-04-24T12:52:42Z</time></trkpt><trkpt lat="41.99706579378966" lon="13.255901433545436"><ele>1309.0</ele><time>2026-04-24T12:52:43Z</time></trkpt><trkpt lat="41.99709720975196" lon="13.25582001181077"><ele>1309.0</ele><time>2026-04-24T12:52:44Z</time></trkpt><trkpt lat="41.997115335990756" lon="13.255714881658513"><ele>1309.0</ele><time>2026-04-24T12:52:45Z</time></trkpt><trkpt lat="41.99711762829027" lon="13.255603652872274"><ele>1309.0</ele><time>2026-04-24T12:52:46Z</time></trkpt><trkpt lat="41.997110178025565" lon="13.255494226421959"><ele>1307.4</ele><time>2026-04-24T12:52:47Z</time></trkpt><trkpt lat="41.99706044420086" lon="13.255386703345359"><ele>1305.8000000000002</ele><time>2026-04-24T12:52:48Z</time></trkpt><trkpt lat="41.99698794275621" lon="13.255306246015461"><ele>1304.1999999999998</ele><time>2026-04-24T12:52:49Z</time></trkpt><trkpt lat="41.99690503980193" lon="13.255248008409195"><ele>1302.6</ele><time>2026-04-24T12:52:50Z</time></trkpt><trkpt lat="41.99681091921349" lon="13.25521059554334"><ele>1301.0</ele><time>2026-04-24T12:52:51Z</time></trkpt><trkpt lat="41.996724349281095" lon="13.255196557482252"><ele>1302.6</ele><time>2026-04-24T12:52:52Z</time></trkpt><trkpt lat="41.99664292277272" lon="13.255180716777707"><ele>1304.1999999999998</ele><time>2026-04-24T12:52:53Z</time></trkpt><trkpt lat="41.99654932238318" lon="13.255153351318999"><ele>1305.8000000000002</ele><time>2026-04-24T12:52:54Z</time></trkpt><trkpt lat="41.9964586644537" lon="13.255102897994457"><ele>1307.4</ele><time>2026-04-24T12:52:55Z</time></trkpt><trkpt lat="41.99637508804635" lon="13.25503354001006"><ele>1309.0</ele><time>2026-04-24T12:52:56Z</time></trkpt><trkpt lat="41.996276075330144" lon="13.254983294667367"><ele>1309.0</ele><time>2026-04-24T12:52:57Z</time></trkpt><trkpt lat="41.99618345994528" lon="13.25495290696051"><ele>1309.0</ele><time>2026-04-24T12:52:58Z</time></trkpt><trkpt lat="41.99608093759354" lon="13.254940692827661"><ele>1309.0</ele><time>2026-04-24T12:52:59Z</time></trkpt><trkpt lat="41.99596985138477" lon="13.254947585207795"><ele>1309.0</ele><time>2026-04-24T12:53:00Z</time></trkpt><trkpt lat="41.995857500833985" lon="13.254979101525246"><ele>1309.0</ele><time>2026-04-24T12:53:01Z</time></trkpt><trkpt lat="41.995760539744424" lon="13.255017369435366"><ele>1310.8333333333333</ele><time>2026-04-24T12:53:02Z</time></trkpt><trkpt lat="41.99568221310075" lon="13.255047240920359"><ele>1312.6666666666665</ele><time>2026-04-24T12:53:03Z</time></trkpt><trkpt lat="41.99560693088233" lon="13.255061432682687"><ele>1314.5</ele><time>2026-04-24T12:53:04Z</time></trkpt><trkpt lat="41.9955283681119" lon="13.255041551432726"><ele>1316.3333333333333</ele><time>2026-04-24T12:53:05Z</time></trkpt><trkpt lat="41.99544975262517" lon="13.2549866533225"><ele>1318.1666666666667</ele><time>2026-04-24T12:53:06Z</time></trkpt><trkpt lat="41.995385786970346" lon="13.254925113279203"><ele>1320.0</ele><time>2026-04-24T12:53:07Z</time></trkpt><trkpt lat="41.9953284363823" lon="13.254846715495061"><ele>1319.1666666666667</ele><time>2026-04-24T12:53:08Z</time></trkpt><trkpt lat="41.99527347041403" lon="13.254753508800789"><ele>1318.3333333333333</ele><time>2026-04-24T12:53:09Z</time></trkpt><trkpt lat="41.99524030449566" lon="13.2546792411426"><ele>1317.5</ele><time>2026-04-24T12:53:10Z</time></trkpt><trkpt lat="41.995217060878375" lon="13.254598993551177"><ele>1316.6666666666665</ele><time>2026-04-24T12:53:11Z</time></trkpt><trkpt lat="41.99522836264397" lon="13.25443928140579"><ele>1315.8333333333333</ele><time>2026-04-24T12:53:13Z</time></trkpt><trkpt lat="41.995286461576704" lon="13.254367347559663"><ele>1315.0</ele><time>2026-04-24T12:53:14Z</time></trkpt><trkpt lat="41.995343520533766" lon="13.254310571290784"><ele>1315.0</ele><time>2026-04-24T12:53:15Z</time></trkpt><trkpt lat="41.995387017308126" lon="13.254160425381727"><ele>1315.0</ele><time>2026-04-24T12:53:17Z</time></trkpt><trkpt lat="41.995356968103174" lon="13.25403072093248"><ele>1315.0</ele><time>2026-04-24T12:53:18Z</time></trkpt><trkpt lat="41.99534638951121" lon="13.253912228737207"><ele>1315.0</ele><time>2026-04-24T12:53:19Z</time></trkpt><trkpt lat="41.99532051090505" lon="13.253833203428124"><ele>1315.0</ele><time>2026-04-24T12:53:20Z</time></trkpt><trkpt lat="41.99525060286519" lon="13.253760400696235"><ele>1314.6</ele><time>2026-04-24T12:53:21Z</time></trkpt><trkpt lat="41.99514664793559" lon="13.253753840132127"><ele>1314.2</ele><time>2026-04-24T12:53:22Z</time></trkpt><trkpt lat="41.995064485840764" lon="13.25369545209622"><ele>1313.8000000000002</ele><time>2026-04-24T12:53:23Z</time></trkpt><trkpt lat="41.99496159852288" lon="13.25365160219026"><ele>1313.4</ele><time>2026-04-24T12:53:24Z</time></trkpt><trkpt lat="41.994858023041836" lon="13.25360977361601"><ele>1313.0</ele><time>2026-04-24T12:53:25Z</time></trkpt><trkpt lat="41.994770282622305" lon="13.253575590754329"><ele>1314.8000000000002</ele><time>2026-04-24T12:53:26Z</time></trkpt><trkpt lat="41.99469003570299" lon="13.253564286523421"><ele>1316.6</ele><time>2026-04-24T12:53:27Z</time></trkpt><trkpt lat="41.99461023389234" lon="13.25357349103472"><ele>1318.4</ele><time>2026-04-24T12:53:28Z</time></trkpt><trkpt lat="41.994505021753604" lon="13.253578819624144"><ele>1320.1999999999998</ele><time>2026-04-24T12:53:30Z</time></trkpt><trkpt lat="41.99443525329955" lon="13.253559467122974"><ele>1322.0</ele><time>2026-04-24T12:53:31Z</time></trkpt><trkpt lat="41.9943414194379" lon="13.253431226832157"><ele>1322.0</ele><time>2026-04-24T12:53:33Z</time></trkpt><trkpt lat="41.994304764340164" lon="13.253332030404339"><ele>1322.0</ele><time>2026-04-24T12:53:34Z</time></trkpt><trkpt lat="41.994268547901726" lon="13.25320537537672"><ele>1322.0</ele><time>2026-04-24T12:53:35Z</time></trkpt><trkpt lat="41.99427076746866" lon="13.25306918346593"><ele>1322.0</ele><time>2026-04-24T12:53:36Z</time></trkpt><trkpt lat="41.9943111214279" lon="13.25294149894896"><ele>1322.0</ele><time>2026-04-24T12:53:37Z</time></trkpt><trkpt lat="41.99429250026309" lon="13.25283217558448"><ele>1321.8333333333335</ele><time>2026-04-24T12:53:38Z</time></trkpt><trkpt lat="41.99428185863427" lon="13.252718700716773"><ele>1321.6666666666667</ele><time>2026-04-24T12:53:39Z</time></trkpt><trkpt lat="41.99426487037453" lon="13.252613678432253"><ele>1321.5</ele><time>2026-04-24T12:53:40Z</time></trkpt><trkpt lat="41.99427122831126" lon="13.25250511884879"><ele>1321.3333333333333</ele><time>2026-04-24T12:53:41Z</time></trkpt><trkpt lat="41.99428530673807" lon="13.25238732570077"><ele>1321.1666666666665</ele><time>2026-04-24T12:53:42Z</time></trkpt><trkpt lat="41.99432117012426" lon="13.252289910192674"><ele>1321.0</ele><time>2026-04-24T12:53:43Z</time></trkpt><trkpt lat="41.99440261794715" lon="13.252217149694548"><ele>1321.0</ele><time>2026-04-24T12:53:44Z</time></trkpt><trkpt lat="41.994487137455934" lon="13.25212227912187"><ele>1321.0</ele><time>2026-04-24T12:53:45Z</time></trkpt><trkpt lat="41.99457526574189" lon="13.25205596962179"><ele>1321.0</ele><time>2026-04-24T12:53:46Z</time></trkpt><trkpt lat="41.9946521969275" lon="13.251966499953625"><ele>1321.0</ele><time>2026-04-24T12:53:47Z</time></trkpt><trkpt lat="41.99470026607669" lon="13.251872236828051"><ele>1321.0</ele><time>2026-04-24T12:53:48Z</time></trkpt><trkpt lat="41.99473552169772" lon="13.251777233937261"><ele>1321.0</ele><time>2026-04-24T12:53:49Z</time></trkpt><trkpt lat="41.99475998938756" lon="13.25169147105851"><ele>1321.0</ele><time>2026-04-24T12:53:50Z</time></trkpt><trkpt lat="41.99475494013023" lon="13.251524046402132"><ele>1321.0</ele><time>2026-04-24T12:53:52Z</time></trkpt><trkpt lat="41.99468814282847" lon="13.251450345052024"><ele>1321.0</ele><time>2026-04-24T12:53:53Z</time></trkpt><trkpt lat="41.99461804761464" lon="13.251387160627198"><ele>1321.0</ele><time>2026-04-24T12:53:54Z</time></trkpt><trkpt lat="41.99455972663066" lon="13.251317885216727"><ele>1321.0</ele><time>2026-04-24T12:53:55Z</time></trkpt><trkpt lat="41.994507053449304" lon="13.25125598531756"><ele>1321.1999999999998</ele><time>2026-04-24T12:53:56Z</time></trkpt><trkpt lat="41.99443856069381" lon="13.251114544048942"><ele>1321.3999999999999</ele><time>2026-04-24T12:53:58Z</time></trkpt><trkpt lat="41.99444094629074" lon="13.25098508858145"><ele>1321.6</ele><time>2026-04-24T12:53:59Z</time></trkpt><trkpt lat="41.994489401600106" lon="13.250874641813073"><ele>1321.8</ele><time>2026-04-24T12:54:00Z</time></trkpt><trkpt lat="41.99456488232876" lon="13.250746150567196"><ele>1322.0</ele><time>2026-04-24T12:54:01Z</time></trkpt><trkpt lat="41.99462404791846" lon="13.250636455166218"><ele>1322.0</ele><time>2026-04-24T12:54:02Z</time></trkpt><trkpt lat="41.99466731145983" lon="13.250543930047607"><ele>1322.0</ele><time>2026-04-24T12:54:03Z</time></trkpt><trkpt lat="41.99473390159276" lon="13.25038516524192"><ele>1322.0</ele><time>2026-04-24T12:54:05Z</time></trkpt><trkpt lat="41.99475933768096" lon="13.250292139881564"><ele>1322.0</ele><time>2026-04-24T12:54:06Z</time></trkpt><trkpt lat="41.99479781941515" lon="13.25021131060933"><ele>1322.0</ele><time>2026-04-24T12:54:07Z</time></trkpt><trkpt lat="41.99480438184416" lon="13.250087309674637"><ele>1322.0</ele><time>2026-04-24T12:54:08Z</time></trkpt><trkpt lat="41.99475776649567" lon="13.249981319348304"><ele>1322.0</ele><time>2026-04-24T12:54:09Z</time></trkpt><trkpt lat="41.994724748463206" lon="13.249895121777788"><ele>1322.0</ele><time>2026-04-24T12:54:10Z</time></trkpt><trkpt lat="41.99467085744246" lon="13.249773469865751"><ele>1322.0</ele><time>2026-04-24T12:54:11Z</time></trkpt><trkpt lat="41.99463718559936" lon="13.249686539556777"><ele>1322.0</ele><time>2026-04-24T12:54:12Z</time></trkpt><trkpt lat="41.99462432796451" lon="13.24951090423035"><ele>1324.25</ele><time>2026-04-24T12:54:14Z</time></trkpt><trkpt lat="41.99462704874323" lon="13.24938374716475"><ele>1326.5</ele><time>2026-04-24T12:54:15Z</time></trkpt><trkpt lat="41.9946752294874" lon="13.249230858774512"><ele>1328.75</ele><time>2026-04-24T12:54:16Z</time></trkpt><trkpt lat="41.99475134331303" lon="13.249111189955508"><ele>1331.0</ele><time>2026-04-24T12:54:17Z</time></trkpt><trkpt lat="41.99481931722597" lon="13.248973661047422"><ele>1328.4</ele><time>2026-04-24T12:54:18Z</time></trkpt><trkpt lat="41.99491053921464" lon="13.24886588616158"><ele>1325.8</ele><time>2026-04-24T12:54:19Z</time></trkpt><trkpt lat="41.99499196210619" lon="13.24877370916574"><ele>1323.2</ele><time>2026-04-24T12:54:20Z</time></trkpt><trkpt lat="41.99506034244568" lon="13.24869594565792"><ele>1320.6000000000001</ele><time>2026-04-24T12:54:21Z</time></trkpt><trkpt lat="41.99511007907753" lon="13.248594758971164"><ele>1318.0</ele><time>2026-04-24T12:54:22Z</time></trkpt><trkpt lat="41.995171552339116" lon="13.248459692695953"><ele>1318.0</ele><time>2026-04-24T12:54:23Z</time></trkpt><trkpt lat="41.995240027920566" lon="13.24832574109448"><ele>1318.0</ele><time>2026-04-24T12:54:24Z</time></trkpt><trkpt lat="41.995308662003666" lon="13.248215549977967"><ele>1318.0</ele><time>2026-04-24T12:54:25Z</time></trkpt><trkpt lat="41.99539303036321" lon="13.248125616547625"><ele>1318.0</ele><time>2026-04-24T12:54:26Z</time></trkpt><trkpt lat="41.9954812922661" lon="13.24804806047531"><ele>1318.0</ele><time>2026-04-24T12:54:27Z</time></trkpt><trkpt lat="41.99558320748252" lon="13.247958813992126"><ele>1319.75</ele><time>2026-04-24T12:54:28Z</time></trkpt><trkpt lat="41.995692364570765" lon="13.247880621675101"><ele>1321.5</ele><time>2026-04-24T12:54:28.999Z</time></trkpt><trkpt lat="41.99581764320982" lon="13.247815157883615"><ele>1323.25</ele><time>2026-04-24T12:54:29.999Z</time></trkpt><trkpt lat="41.995929929014096" lon="13.247784179670846"><ele>1325.0</ele><time>2026-04-24T12:54:30.999Z</time></trkpt><trkpt lat="41.996017070131536" lon="13.247769368401453"><ele>1325.0</ele><time>2026-04-24T12:54:31.999Z</time></trkpt><trkpt lat="41.9961195300468" lon="13.247764885637249"><ele>1325.0</ele><time>2026-04-24T12:54:32.999Z</time></trkpt><trkpt lat="41.99622081598223" lon="13.247773053404066"><ele>1325.0</ele><time>2026-04-24T12:54:33.999Z</time></trkpt><trkpt lat="41.99631692458467" lon="13.247756279729414"><ele>1325.0</ele><time>2026-04-24T12:54:34.999Z</time></trkpt><trkpt lat="41.996412969747375" lon="13.247710562270756"><ele>1325.0</ele><time>2026-04-24T12:54:35.999Z</time></trkpt><trkpt lat="41.99649036922685" lon="13.24763300876368"><ele>1325.0</ele><time>2026-04-24T12:54:36.999Z</time></trkpt><trkpt lat="41.9965625149553" lon="13.247535745513352"><ele>1325.0</ele><time>2026-04-24T12:54:37.999Z</time></trkpt><trkpt lat="41.99663211802704" lon="13.247419574672076"><ele>1325.0</ele><time>2026-04-24T12:54:38.999Z</time></trkpt><trkpt lat="41.996692573597024" lon="13.247289267109485"><ele>1325.0</ele><time>2026-04-24T12:54:39.999Z</time></trkpt><trkpt lat="41.996752799532516" lon="13.247187260663058"><ele>1325.0</ele><time>2026-04-24T12:54:40.999Z</time></trkpt><trkpt lat="41.9968191145236" lon="13.247134240817541"><ele>1327.8</ele><time>2026-04-24T12:54:41.999Z</time></trkpt><trkpt lat="41.99690696804674" lon="13.24710803479541"><ele>1330.6</ele><time>2026-04-24T12:54:42.999Z</time></trkpt><trkpt lat="41.997010277676914" lon="13.247118866668691"><ele>1333.4</ele><time>2026-04-24T12:54:43.999Z</time></trkpt><trkpt lat="41.99710467976138" lon="13.247121741709133"><ele>1336.2</ele><time>2026-04-24T12:54:44.999Z</time></trkpt><trkpt lat="41.99720564515445" lon="13.247084582115786"><ele>1339.0</ele><time>2026-04-24T12:54:45.999Z</time></trkpt><trkpt lat="41.99731650859841" lon="13.24701077136162"><ele>1339.0</ele><time>2026-04-24T12:54:46.999Z</time></trkpt><trkpt lat="41.99745215992156" lon="13.246912883879835"><ele>1339.0</ele><time>2026-04-24T12:54:48Z</time></trkpt><trkpt lat="41.99758652778651" lon="13.246804496381694"><ele>1339.0</ele><time>2026-04-24T12:54:49Z</time></trkpt><trkpt lat="41.9977194759798" lon="13.24668615517237"><ele>1335.2</ele><time>2026-04-24T12:54:50Z</time></trkpt><trkpt lat="41.99782782164477" lon="13.246594280459284"><ele>1331.4</ele><time>2026-04-24T12:54:51Z</time></trkpt><trkpt lat="41.997921139393085" lon="13.24651157605601"><ele>1327.6</ele><time>2026-04-24T12:54:52Z</time></trkpt><trkpt lat="41.998002951945324" lon="13.2464363407412"><ele>1323.8</ele><time>2026-04-24T12:54:53Z</time></trkpt><trkpt lat="41.99807251993626" lon="13.246378209604206"><ele>1320.0</ele><time>2026-04-24T12:54:54Z</time></trkpt><trkpt lat="41.998140984174675" lon="13.246331210738958"><ele>1329.5</ele><time>2026-04-24T12:54:55Z</time></trkpt><trkpt lat="41.998231301272" lon="13.246303465635515"><ele>1339.0</ele><time>2026-04-24T12:54:56Z</time></trkpt><trkpt lat="41.99833692311493" lon="13.24629592619285"><ele>1348.5</ele><time>2026-04-24T12:54:57Z</time></trkpt><trkpt lat="41.998455303928424" lon="13.246344665747957"><ele>1358.0</ele><time>2026-04-24T12:54:58Z</time></trkpt><trkpt lat="41.998591459025505" lon="13.246347255977835"><ele>1358.25</ele><time>2026-04-24T12:54:59Z</time></trkpt><trkpt lat="41.998734619579245" lon="13.246356663340595"><ele>1358.5</ele><time>2026-04-24T12:55:00Z</time></trkpt><trkpt lat="41.998879065857956" lon="13.246361773093488"><ele>1358.75</ele><time>2026-04-24T12:55:01Z</time></trkpt><trkpt lat="41.99901529435196" lon="13.246375062044873"><ele>1359.0</ele><time>2026-04-24T12:55:02Z</time></trkpt><trkpt lat="41.99912873636799" lon="13.24639919610171"><ele>1356.25</ele><time>2026-04-24T12:55:03Z</time></trkpt><trkpt lat="41.99922713688062" lon="13.246411765817985"><ele>1353.5</ele><time>2026-04-24T12:55:04Z</time></trkpt><trkpt lat="41.99934817904434" lon="13.246398732374594"><ele>1350.75</ele><time>2026-04-24T12:55:05Z</time></trkpt><trkpt lat="41.99946568246892" lon="13.246374365534756"><ele>1348.0</ele><time>2026-04-24T12:55:06Z</time></trkpt><trkpt lat="41.99959004082676" lon="13.2463415320254"><ele>1348.0</ele><time>2026-04-24T12:55:07Z</time></trkpt><trkpt lat="41.99969862571451" lon="13.246300602088978"><ele>1348.0</ele><time>2026-04-24T12:55:08Z</time></trkpt><trkpt lat="41.99980446428425" lon="13.24628197391286"><ele>1348.0</ele><time>2026-04-24T12:55:09Z</time></trkpt><trkpt lat="41.999875229943434" lon="13.24624000645459"><ele>1348.0</ele><time>2026-04-24T12:55:10Z</time></trkpt><trkpt lat="41.999930546536504" lon="13.246175591693524"><ele>1348.0</ele><time>2026-04-24T12:55:11Z</time></trkpt><trkpt lat="41.999994986310426" lon="13.24605656911308"><ele>1348.0</ele><time>2026-04-24T12:55:12Z</time></trkpt><trkpt lat="42.000093842933474" lon="13.245926305509562"><ele>1348.0</ele><time>2026-04-24T12:55:13Z</time></trkpt><trkpt lat="42.00019886854288" lon="13.245804105787965"><ele>1348.0</ele><time>2026-04-24T12:55:14Z</time></trkpt><trkpt lat="42.00030443596538" lon="13.24569448654447"><ele>1348.0</ele><time>2026-04-24T12:55:15Z</time></trkpt><trkpt lat="42.000419061016835" lon="13.245597892467066"><ele>1357.0</ele><time>2026-04-24T12:55:16Z</time></trkpt><trkpt lat="42.000538169439594" lon="13.245481082163254"><ele>1366.0</ele><time>2026-04-24T12:55:17Z</time></trkpt><trkpt lat="42.00067156385589" lon="13.245358381761172"><ele>1375.0</ele><time>2026-04-24T12:55:18Z</time></trkpt><trkpt lat="42.000795494612504" lon="13.245258440336448"><ele>1371.6</ele><time>2026-04-24T12:55:19Z</time></trkpt><trkpt lat="42.00090592374986" lon="13.245171597134425"><ele>1368.2</ele><time>2026-04-24T12:55:20Z</time></trkpt><trkpt lat="42.00101279657584" lon="13.245106300377854"><ele>1364.8000000000002</ele><time>2026-04-24T12:55:21Z</time></trkpt><trkpt lat="42.001117630187935" lon="13.245071125580894"><ele>1361.4</ele><time>2026-04-24T12:55:22Z</time></trkpt><trkpt lat="42.00120659127357" lon="13.245046130575645"><ele>1358.0</ele><time>2026-04-24T12:55:23Z</time></trkpt><trkpt lat="42.00128435592691" lon="13.244993415976678"><ele>1358.0</ele><time>2026-04-24T12:55:24Z</time></trkpt><trkpt lat="42.00133631070659" lon="13.244930146007546"><ele>1358.0</ele><time>2026-04-24T12:55:25Z</time></trkpt><trkpt lat="42.00138288668211" lon="13.244865426534204"><ele>1358.0</ele><time>2026-04-24T12:55:26Z</time></trkpt><trkpt lat="42.001400650306934" lon="13.24476243222856"><ele>1358.0</ele><time>2026-04-24T12:55:27Z</time></trkpt><trkpt lat="42.00136562127905" lon="13.244642235866033"><ele>1358.0</ele><time>2026-04-24T12:55:28Z</time></trkpt><trkpt lat="42.001356137954986" lon="13.244493367021061"><ele>1358.0</ele><time>2026-04-24T12:55:29Z</time></trkpt><trkpt lat="42.00133202679643" lon="13.244306506818859"><ele>1359.0</ele><time>2026-04-24T12:55:30Z</time></trkpt><trkpt lat="42.00130980300419" lon="13.244128074221628"><ele>1360.0</ele><time>2026-04-24T12:55:31Z</time></trkpt><trkpt lat="42.001283397142466" lon="13.2439834287688"><ele>1361.0</ele><time>2026-04-24T12:55:32Z</time></trkpt><trkpt lat="42.00124599469059" lon="13.243855599668008"><ele>1362.0</ele><time>2026-04-24T12:55:33Z</time></trkpt><trkpt lat="42.001205829692125" lon="13.243728823631383"><ele>1362.0</ele><time>2026-04-24T12:55:34Z</time></trkpt><trkpt lat="42.001171257447155" lon="13.243617383658176"><ele>1362.0</ele><time>2026-04-24T12:55:35Z</time></trkpt><trkpt lat="42.00114150880843" lon="13.243514360696917"><ele>1362.0</ele><time>2026-04-24T12:55:36Z</time></trkpt><trkpt lat="42.00111304684921" lon="13.243413912881733"><ele>1362.0</ele><time>2026-04-24T12:55:37Z</time></trkpt><trkpt lat="42.00108935832002" lon="13.24332489339874"><ele>1362.0</ele><time>2026-04-24T12:55:38Z</time></trkpt><trkpt lat="42.001073454887496" lon="13.243209591130004"><ele>1362.0</ele><time>2026-04-24T12:55:40Z</time></trkpt><trkpt lat="42.001134714440305" lon="13.243097773484257"><ele>1365.75</ele><time>2026-04-24T12:55:42Z</time></trkpt><trkpt lat="42.00121806139261" lon="13.243054658903805"><ele>1369.5</ele><time>2026-04-24T12:55:43Z</time></trkpt><trkpt lat="42.00133552575562" lon="13.24302445529251"><ele>1373.25</ele><time>2026-04-24T12:55:44Z</time></trkpt><trkpt lat="42.00147987880087" lon="13.242989747980795"><ele>1377.0</ele><time>2026-04-24T12:55:45Z</time></trkpt><trkpt lat="42.001650861649374" lon="13.242939004608441"><ele>1375.6</ele><time>2026-04-24T12:55:46Z</time></trkpt><trkpt lat="42.001792447837566" lon="13.242893766224826"><ele>1374.1999999999998</ele><time>2026-04-24T12:55:47Z</time></trkpt><trkpt lat="42.00191340956206" lon="13.24287008248936"><ele>1372.8</ele><time>2026-04-24T12:55:48Z</time></trkpt><trkpt lat="42.00201794022782" lon="13.242860569775287"><ele>1371.4</ele><time>2026-04-24T12:55:49Z</time></trkpt><trkpt lat="42.00208837453055" lon="13.24282160567469"><ele>1370.0</ele><time>2026-04-24T12:55:50Z</time></trkpt><trkpt lat="42.002146316178106" lon="13.242777820575977"><ele>1370.0</ele><time>2026-04-24T12:55:51Z</time></trkpt><trkpt lat="42.002205440368385" lon="13.242699523101525"><ele>1370.0</ele><time>2026-04-24T12:55:52Z</time></trkpt><trkpt lat="42.00229624390264" lon="13.242605827773897"><ele>1370.0</ele><time>2026-04-24T12:55:53Z</time></trkpt><trkpt lat="42.00237832811966" lon="13.242514380203515"><ele>1370.0</ele><time>2026-04-24T12:55:54Z</time></trkpt><trkpt lat="42.002465127944006" lon="13.242424222068363"><ele>1370.0</ele><time>2026-04-24T12:55:55Z</time></trkpt><trkpt lat="42.00258427740486" lon="13.242312671082548"><ele>1372.0</ele><time>2026-04-24T12:55:56Z</time></trkpt><trkpt lat="42.00272337884776" lon="13.242198612763952"><ele>1374.0</ele><time>2026-04-24T12:55:57Z</time></trkpt><trkpt lat="42.00285407863341" lon="13.242095177693463"><ele>1376.0</ele><time>2026-04-24T12:55:58Z</time></trkpt><trkpt lat="42.002961056237154" lon="13.242012236544957"><ele>1378.0</ele><time>2026-04-24T12:55:59Z</time></trkpt><trkpt lat="42.00305315170401" lon="13.241960984594918"><ele>1378.0</ele><time>2026-04-24T12:56:00Z</time></trkpt><trkpt lat="42.00312186273102" lon="13.241910831540366"><ele>1378.0</ele><time>2026-04-24T12:56:01Z</time></trkpt><trkpt lat="42.003177757165844" lon="13.241846110949597"><ele>1378.0</ele><time>2026-04-24T12:56:02Z</time></trkpt><trkpt lat="42.00324820114512" lon="13.241727601103442"><ele>1378.0</ele><time>2026-04-24T12:56:03Z</time></trkpt><trkpt lat="42.00333285861407" lon="13.241571824205673"><ele>1378.0</ele><time>2026-04-24T12:56:04Z</time></trkpt><trkpt lat="42.0034063630488" lon="13.241428787860643"><ele>1377.25</ele><time>2026-04-24T12:56:05Z</time></trkpt><trkpt lat="42.00347820981251" lon="13.2413229354272"><ele>1376.5</ele><time>2026-04-24T12:56:06Z</time></trkpt><trkpt lat="42.00354329762285" lon="13.241205026957802"><ele>1375.75</ele><time>2026-04-24T12:56:07Z</time></trkpt><trkpt lat="42.003628874141405" lon="13.241098312725939"><ele>1375.0</ele><time>2026-04-24T12:56:08Z</time></trkpt><trkpt lat="42.003709237891" lon="13.240983043774868"><ele>1375.0</ele><time>2026-04-24T12:56:09Z</time></trkpt><trkpt lat="42.0037901659897" lon="13.240839548813153"><ele>1375.0</ele><time>2026-04-24T12:56:10Z</time></trkpt><trkpt lat="42.00388197914751" lon="13.240708811083927"><ele>1375.0</ele><time>2026-04-24T12:56:11Z</time></trkpt><trkpt lat="42.00397296529552" lon="13.240585710085085"><ele>1375.0</ele><time>2026-04-24T12:56:12Z</time></trkpt><trkpt lat="42.004055682991336" lon="13.24046355956569"><ele>1373.5</ele><time>2026-04-24T12:56:13Z</time></trkpt><trkpt lat="42.0041520506473" lon="13.240338235532603"><ele>1372.0</ele><time>2026-04-24T12:56:14Z</time></trkpt><trkpt lat="42.00425045044879" lon="13.240198464942273"><ele>1370.5</ele><time>2026-04-24T12:56:15Z</time></trkpt><trkpt lat="42.00435112460371" lon="13.240053357448295"><ele>1369.0</ele><time>2026-04-24T12:56:16Z</time></trkpt><trkpt lat="42.004484103774985" lon="13.239931369399185"><ele>1378.6666666666665</ele><time>2026-04-24T12:56:17Z</time></trkpt><trkpt lat="42.004621632086234" lon="13.239778786223892"><ele>1388.3333333333333</ele><time>2026-04-24T12:56:18Z</time></trkpt><trkpt lat="42.00477754255379" lon="13.239587938546295"><ele>1398.0</ele><time>2026-04-24T12:56:19Z</time></trkpt><trkpt lat="42.00492442231152" lon="13.23943050608252"><ele>1395.75</ele><time>2026-04-24T12:56:20Z</time></trkpt><trkpt lat="42.005054753002106" lon="13.239302520393515"><ele>1393.5</ele><time>2026-04-24T12:56:21Z</time></trkpt><trkpt lat="42.005163824516735" lon="13.239162445371669"><ele>1391.25</ele><time>2026-04-24T12:56:22Z</time></trkpt><trkpt lat="42.0052658989296" lon="13.239053814384194"><ele>1389.0</ele><time>2026-04-24T12:56:23Z</time></trkpt><trkpt lat="42.005365812006936" lon="13.238954142230176"><ele>1389.0</ele><time>2026-04-24T12:56:23.999Z</time></trkpt><trkpt lat="42.00545887768138" lon="13.238854226405406"><ele>1389.0</ele><time>2026-04-24T12:56:24.999Z</time></trkpt><trkpt lat="42.005548700091545" lon="13.238751801781623"><ele>1389.0</ele><time>2026-04-24T12:56:25.999Z</time></trkpt><trkpt lat="42.00562317344782" lon="13.238631531876573"><ele>1389.0</ele><time>2026-04-24T12:56:26.999Z</time></trkpt><trkpt lat="42.00569907713499" lon="13.23851372348347"><ele>1389.0</ele><time>2026-04-24T12:56:27.999Z</time></trkpt><trkpt lat="42.00573652245167" lon="13.238345998656904"><ele>1389.0</ele><time>2026-04-24T12:56:28.999Z</time></trkpt><trkpt lat="42.00578695793405" lon="13.23816486374184"><ele>1389.0</ele><time>2026-04-24T12:56:29.999Z</time></trkpt><trkpt lat="42.00583276532757" lon="13.237999602258203"><ele>1389.0</ele><time>2026-04-24T12:56:30.999Z</time></trkpt><trkpt lat="42.005894601880044" lon="13.23788742757972"><ele>1388.4</ele><time>2026-04-24T12:56:31.999Z</time></trkpt><trkpt lat="42.00592687314621" lon="13.237774224285841"><ele>1387.8000000000002</ele><time>2026-04-24T12:56:32.999Z</time></trkpt><trkpt lat="42.00592935211583" lon="13.237641226657933"><ele>1387.1999999999998</ele><time>2026-04-24T12:56:33.999Z</time></trkpt><trkpt lat="42.005911947769455" lon="13.237522735491229"><ele>1386.6</ele><time>2026-04-24T12:56:34.999Z</time></trkpt><trkpt lat="42.00588616310483" lon="13.237391894552834"><ele>1386.0</ele><time>2026-04-24T12:56:35.999Z</time></trkpt><trkpt lat="42.00587213319387" lon="13.237258191586937"><ele>1386.0</ele><time>2026-04-24T12:56:36.999Z</time></trkpt><trkpt lat="42.00590066446705" lon="13.237140009996127"><ele>1386.0</ele><time>2026-04-24T12:56:37.999Z</time></trkpt><trkpt lat="42.00594768058336" lon="13.237026108577446"><ele>1386.0</ele><time>2026-04-24T12:56:38.999Z</time></trkpt><trkpt lat="42.00601392722915" lon="13.236905603831593"><ele>1386.0</ele><time>2026-04-24T12:56:39.999Z</time></trkpt><trkpt lat="42.00608183582779" lon="13.23675728196905"><ele>1386.0</ele><time>2026-04-24T12:56:40.999Z</time></trkpt><trkpt lat="42.00617191071743" lon="13.23661118243047"><ele>1389.0</ele><time>2026-04-24T12:56:41.999Z</time></trkpt><trkpt lat="42.006270444562745" lon="13.236464716612245"><ele>1392.0</ele><time>2026-04-24T12:56:42.999Z</time></trkpt><trkpt lat="42.006355709476104" lon="13.23630829444625"><ele>1395.0</ele><time>2026-04-24T12:56:43.999Z</time></trkpt><trkpt lat="42.00642035279222" lon="13.236152007743684"><ele>1398.0</ele><time>2026-04-24T12:56:44.999Z</time></trkpt><trkpt lat="42.00650699608378" lon="13.236010171386969"><ele>1398.0</ele><time>2026-04-24T12:56:45.999Z</time></trkpt><trkpt lat="42.0065838534749" lon="13.235864505804122"><ele>1398.0</ele><time>2026-04-24T12:56:46.999Z</time></trkpt><trkpt lat="42.00667101718224" lon="13.235749366256988"><ele>1398.0</ele><time>2026-04-24T12:56:47.999Z</time></trkpt><trkpt lat="42.00677790498318" lon="13.23567377150896"><ele>1398.0</ele><time>2026-04-24T12:56:48.999Z</time></trkpt><trkpt lat="42.00686740292777" lon="13.235579695163839"><ele>1395.6666666666667</ele><time>2026-04-24T12:56:49.999Z</time></trkpt><trkpt lat="42.0069110276533" lon="13.235504616654577"><ele>1393.3333333333333</ele><time>2026-04-24T12:56:50.999Z</time></trkpt><trkpt lat="42.006926370656" lon="13.235356448603554"><ele>1391.0</ele><time>2026-04-24T12:56:52.999Z</time></trkpt><trkpt lat="42.00690711158952" lon="13.235271716621968"><ele>1388.6666666666665</ele><time>2026-04-24T12:56:54Z</time></trkpt><trkpt lat="42.006850063651655" lon="13.235192482326003"><ele>1386.3333333333333</ele><time>2026-04-24T12:56:55Z</time></trkpt><trkpt lat="42.00676489806912" lon="13.235145034044319"><ele>1384.0</ele><time>2026-04-24T12:56:56Z</time></trkpt><trkpt lat="42.00667635046877" lon="13.235072077410706"><ele>1384.5</ele><time>2026-04-24T12:56:57Z</time></trkpt><trkpt lat="42.006593764914214" lon="13.235006651915683"><ele>1385.0</ele><time>2026-04-24T12:56:58Z</time></trkpt><trkpt lat="42.006523817863595" lon="13.234959581504452"><ele>1385.5</ele><time>2026-04-24T12:56:59Z</time></trkpt><trkpt lat="42.00645480236981" lon="13.234923789745297"><ele>1386.0</ele><time>2026-04-24T12:57:00Z</time></trkpt><trkpt lat="42.006367590069026" lon="13.234898541689272"><ele>1386.5</ele><time>2026-04-24T12:57:01Z</time></trkpt><trkpt lat="42.00626491086163" lon="13.23489237326625"><ele>1387.0</ele><time>2026-04-24T12:57:02Z</time></trkpt><trkpt lat="42.006168960457444" lon="13.234900637954214"><ele>1387.0</ele><time>2026-04-24T12:57:03Z</time></trkpt><trkpt lat="42.006065939372895" lon="13.234911050043072"><ele>1387.0</ele><time>2026-04-24T12:57:04Z</time></trkpt><trkpt lat="42.005979719793466" lon="13.23491387324936"><ele>1387.0</ele><time>2026-04-24T12:57:05Z</time></trkpt><trkpt lat="42.00589795177327" lon="13.234904262876867"><ele>1387.0</ele><time>2026-04-24T12:57:06Z</time></trkpt><trkpt lat="42.00582568385103" lon="13.234871371674304"><ele>1387.0</ele><time>2026-04-24T12:57:07Z</time></trkpt><trkpt lat="42.005741861382916" lon="13.234807643700085"><ele>1387.0</ele><time>2026-04-24T12:57:08Z</time></trkpt><trkpt lat="42.00566524823297" lon="13.23468250388439"><ele>1389.25</ele><time>2026-04-24T12:57:09Z</time></trkpt><trkpt lat="42.00559879852983" lon="13.23452866124655"><ele>1391.5</ele><time>2026-04-24T12:57:10Z</time></trkpt><trkpt lat="42.005512349084896" lon="13.234348567006595"><ele>1393.75</ele><time>2026-04-24T12:57:11Z</time></trkpt><trkpt lat="42.005424553177406" lon="13.234207749048444"><ele>1396.0</ele><time>2026-04-24T12:57:12Z</time></trkpt><trkpt lat="42.00534871679453" lon="13.234089780816516"><ele>1396.0</ele><time>2026-04-24T12:57:13Z</time></trkpt><trkpt lat="42.00528707874862" lon="13.233979104902854"><ele>1396.0</ele><time>2026-04-24T12:57:14Z</time></trkpt><trkpt lat="42.00523672747013" lon="13.233867746533935"><ele>1396.0</ele><time>2026-04-24T12:57:15Z</time></trkpt><trkpt lat="42.00521196824391" lon="13.233742624349585"><ele>1396.0</ele><time>2026-04-24T12:57:16Z</time></trkpt><trkpt lat="42.005213916314496" lon="13.233650812062516"><ele>1396.0</ele><time>2026-04-24T12:57:17Z</time></trkpt><trkpt lat="42.00522469289099" lon="13.233558563257649"><ele>1396.0</ele><time>2026-04-24T12:57:19Z</time></trkpt><trkpt lat="42.0052347132463" lon="13.233461708982967"><ele>1396.0</ele><time>2026-04-24T12:57:21Z</time></trkpt><trkpt lat="42.00526150988257" lon="13.233295998293011"><ele>1396.0</ele><time>2026-04-24T12:57:23Z</time></trkpt><trkpt lat="42.00527854951231" lon="13.23321388225488"><ele>1396.0</ele><time>2026-04-24T12:57:24Z</time></trkpt><trkpt lat="42.00529410835107" lon="13.233095639751271"><ele>1396.0</ele><time>2026-04-24T12:57:25Z</time></trkpt><trkpt lat="42.005330181054575" lon="13.232959714066517"><ele>1396.0</ele><time>2026-04-24T12:57:26Z</time></trkpt><trkpt lat="42.005366124501485" lon="13.232792252177074"><ele>1398.75</ele><time>2026-04-24T12:57:27Z</time></trkpt><trkpt lat="42.005399903884964" lon="13.232602407321357"><ele>1401.5</ele><time>2026-04-24T12:57:28Z</time></trkpt><trkpt lat="42.005439883775736" lon="13.23239877056759"><ele>1404.25</ele><time>2026-04-24T12:57:29Z</time></trkpt><trkpt lat="42.00546290704185" lon="13.2322099676055"><ele>1407.0</ele><time>2026-04-24T12:57:30Z</time></trkpt><trkpt lat="42.00548908746225" lon="13.232053158596257"><ele>1409.5</ele><time>2026-04-24T12:57:31Z</time></trkpt><trkpt lat="42.005519749223446" lon="13.23190437284064"><ele>1412.0</ele><time>2026-04-24T12:57:32Z</time></trkpt><trkpt lat="42.005539612920465" lon="13.231755395240453"><ele>1414.5</ele><time>2026-04-24T12:57:33Z</time></trkpt><trkpt lat="42.005553002419106" lon="13.231593439025973"><ele>1417.0</ele><time>2026-04-24T12:57:34Z</time></trkpt><trkpt lat="42.005555185352925" lon="13.231427962625535"><ele>1417.0</ele><time>2026-04-24T12:57:35Z</time></trkpt><trkpt lat="42.005563842911904" lon="13.231275794151637"><ele>1417.0</ele><time>2026-04-24T12:57:36Z</time></trkpt><trkpt lat="42.00554299730007" lon="13.231149580830003"><ele>1417.0</ele><time>2026-04-24T12:57:37Z</time></trkpt><trkpt lat="42.005517200789114" lon="13.23101905802686"><ele>1417.0</ele><time>2026-04-24T12:57:38Z</time></trkpt><trkpt lat="42.00550659051312" lon="13.23086538821277"><ele>1417.0</ele><time>2026-04-24T12:57:39Z</time></trkpt><trkpt lat="42.00547237980006" lon="13.230678748647778"><ele>1412.0</ele><time>2026-04-24T12:57:40Z</time></trkpt><trkpt lat="42.005418090664534" lon="13.23044034300154"><ele>1407.0</ele><time>2026-04-24T12:57:41Z</time></trkpt><trkpt lat="42.00536128008776" lon="13.23021996825784"><ele>1402.0</ele><time>2026-04-24T12:57:42Z</time></trkpt><trkpt lat="42.0053107227937" lon="13.23005420962493"><ele>1402.0</ele><time>2026-04-24T12:57:43Z</time></trkpt><trkpt lat="42.00524594809757" lon="13.22991318255773"><ele>1402.0</ele><time>2026-04-24T12:57:44Z</time></trkpt><trkpt lat="42.00521192844388" lon="13.229780519491285"><ele>1402.0</ele><time>2026-04-24T12:57:45Z</time></trkpt><trkpt lat="42.00518074877685" lon="13.229686557316414"><ele>1402.0</ele><time>2026-04-24T12:57:46Z</time></trkpt><trkpt lat="42.005169205470736" lon="13.22959573596616"><ele>1402.0</ele><time>2026-04-24T12:57:50Z</time></trkpt><trkpt lat="42.00512424412167" lon="13.229496198056967"><ele>1398.5</ele><time>2026-04-24T12:58:19.999Z</time></trkpt><trkpt lat="42.00526380574585" lon="13.229367818622238"><ele>1395.0</ele><time>2026-04-24T12:58:20.999Z</time></trkpt><trkpt lat="42.00529896652517" lon="13.229244349620314"><ele>1391.5</ele><time>2026-04-24T12:58:21.999Z</time></trkpt><trkpt lat="42.005327055821674" lon="13.229124095479518"><ele>1388.0</ele><time>2026-04-24T12:58:22.999Z</time></trkpt><trkpt lat="42.00533294035753" lon="13.228986716053546"><ele>1388.25</ele><time>2026-04-24T12:58:23.999Z</time></trkpt><trkpt lat="42.00536106177979" lon="13.228846448081892"><ele>1388.5</ele><time>2026-04-24T12:58:24.999Z</time></trkpt><trkpt lat="42.00536682963471" lon="13.228698245232865"><ele>1388.75</ele><time>2026-04-24T12:58:25.999Z</time></trkpt><trkpt lat="42.00536467402597" lon="13.228540429330291"><ele>1389.0</ele><time>2026-04-24T12:58:26.999Z</time></trkpt><trkpt lat="42.005355663732914" lon="13.228379416296425"><ele>1389.0</ele><time>2026-04-24T12:58:27.999Z</time></trkpt><trkpt lat="42.00534141829143" lon="13.228229226946496"><ele>1389.0</ele><time>2026-04-24T12:58:28.999Z</time></trkpt><trkpt lat="42.00532512066997" lon="13.22807810356554"><ele>1389.0</ele><time>2026-04-24T12:58:29.999Z</time></trkpt><trkpt lat="42.00530823309708" lon="13.227921509818662"><ele>1389.0</ele><time>2026-04-24T12:58:30.999Z</time></trkpt><trkpt lat="42.00529493307981" lon="13.227772645252234"><ele>1392.25</ele><time>2026-04-24T12:58:31.999Z</time></trkpt><trkpt lat="42.00528602346463" lon="13.227637720612899"><ele>1395.5</ele><time>2026-04-24T12:58:32.999Z</time></trkpt><trkpt lat="42.00527625032177" lon="13.227482851015296"><ele>1398.75</ele><time>2026-04-24T12:58:33.999Z</time></trkpt><trkpt lat="42.00526656335309" lon="13.227318005360212"><ele>1402.0</ele><time>2026-04-24T12:58:34.999Z</time></trkpt><trkpt lat="42.00524174279561" lon="13.227156561457658"><ele>1405.5</ele><time>2026-04-24T12:58:35.999Z</time></trkpt><trkpt lat="42.00524214261192" lon="13.226971983493241"><ele>1409.0</ele><time>2026-04-24T12:58:36.999Z</time></trkpt><trkpt lat="42.00524166175583" lon="13.226800729459383"><ele>1412.5</ele><time>2026-04-24T12:58:37.999Z</time></trkpt><trkpt lat="42.00524425742493" lon="13.226637376240927"><ele>1416.0</ele><time>2026-04-24T12:58:38.999Z</time></trkpt><trkpt lat="42.00524080512012" lon="13.226488544880945"><ele>1419.25</ele><time>2026-04-24T12:58:39.999Z</time></trkpt><trkpt lat="42.00522091946121" lon="13.226332670103577"><ele>1422.5</ele><time>2026-04-24T12:58:40.999Z</time></trkpt><trkpt lat="42.00521142196126" lon="13.226182210298605"><ele>1425.75</ele><time>2026-04-24T12:58:41.999Z</time></trkpt><trkpt lat="42.00521222128815" lon="13.226033419090143"><ele>1429.0</ele><time>2026-04-24T12:58:42.999Z</time></trkpt><trkpt lat="42.00521783102761" lon="13.225883629405809"><ele>1429.0</ele><time>2026-04-24T12:58:43.999Z</time></trkpt><trkpt lat="42.00522725833125" lon="13.225738547987069"><ele>1429.0</ele><time>2026-04-24T12:58:44.999Z</time></trkpt><trkpt lat="42.00524414241277" lon="13.225594359976979"><ele>1429.0</ele><time>2026-04-24T12:58:45.999Z</time></trkpt><trkpt lat="42.00527646804442" lon="13.225468394300163"><ele>1429.0</ele><time>2026-04-24T12:58:46.999Z</time></trkpt><trkpt lat="42.00531875050036" lon="13.225342760415302"><ele>1429.0</ele><time>2026-04-24T12:58:47.999Z</time></trkpt><trkpt lat="42.00538570132869" lon="13.225229741183753"><ele>1432.25</ele><time>2026-04-24T12:58:48.999Z</time></trkpt><trkpt lat="42.00547339867238" lon="13.225077150126552"><ele>1435.5</ele><time>2026-04-24T12:58:49.999Z</time></trkpt><trkpt lat="42.00557708009646" lon="13.224913049755571"><ele>1438.75</ele><time>2026-04-24T12:58:50.999Z</time></trkpt><trkpt lat="42.00564570748706" lon="13.224749708650297"><ele>1442.0</ele><time>2026-04-24T12:58:51.999Z</time></trkpt><trkpt lat="42.00570922405964" lon="13.224631214560967"><ele>1444.8333333333335</ele><time>2026-04-24T12:58:52.999Z</time></trkpt><trkpt lat="42.00576238922917" lon="13.224520038832825"><ele>1447.6666666666667</ele><time>2026-04-24T12:58:53.999Z</time></trkpt><trkpt lat="42.005805291679685" lon="13.224418165131318"><ele>1450.5</ele><time>2026-04-24T12:58:54.999Z</time></trkpt><trkpt lat="42.005810190354794" lon="13.224299606774641"><ele>1453.3333333333333</ele><time>2026-04-24T12:58:55.999Z</time></trkpt><trkpt lat="42.00582057416934" lon="13.224187400102418"><ele>1456.1666666666665</ele><time>2026-04-24T12:58:56.999Z</time></trkpt><trkpt lat="42.00580436848146" lon="13.224084401116787"><ele>1459.0</ele><time>2026-04-24T12:58:57.999Z</time></trkpt><trkpt lat="42.005766138915476" lon="13.224010131786283"><ele>1459.0</ele><time>2026-04-24T12:58:58.999Z</time></trkpt><trkpt lat="42.00566272404369" lon="13.223943499777743"><ele>1459.0</ele><time>2026-04-24T12:59:01Z</time></trkpt><trkpt lat="42.00559913351783" lon="13.22393272422291"><ele>1459.0</ele><time>2026-04-24T12:59:02Z</time></trkpt><trkpt lat="42.00553518194406" lon="13.2239391192576"><ele>1459.0</ele><time>2026-04-24T12:59:03Z</time></trkpt><trkpt lat="42.00546867965599" lon="13.22396425045433"><ele>1459.0</ele><time>2026-04-24T12:59:04Z</time></trkpt><trkpt lat="42.00539308152921" lon="13.223990075057118"><ele>1459.0</ele><time>2026-04-24T12:59:05Z</time></trkpt><trkpt lat="42.005326861962196" lon="13.22404184550955"><ele>1459.0</ele><time>2026-04-24T12:59:06Z</time></trkpt><trkpt lat="42.00525135716339" lon="13.22411132884884"><ele>1459.0</ele><time>2026-04-24T12:59:07Z</time></trkpt><trkpt lat="42.00517159157083" lon="13.224198396132275"><ele>1459.0</ele><time>2026-04-24T12:59:08Z</time></trkpt><trkpt lat="42.005094128049194" lon="13.224248706981887"><ele>1459.0</ele><time>2026-04-24T12:59:09Z</time></trkpt><trkpt lat="42.00502923206806" lon="13.224293658110035"><ele>1459.0</ele><time>2026-04-24T12:59:10Z</time></trkpt><trkpt lat="42.00495196600326" lon="13.224347551522163"><ele>1459.0</ele><time>2026-04-24T12:59:11Z</time></trkpt><trkpt lat="42.004826300378056" lon="13.2244567882694"><ele>1465.6</ele><time>2026-04-24T12:59:13Z</time></trkpt><trkpt lat="42.00474968763397" lon="13.224504135200748"><ele>1472.2</ele><time>2026-04-24T12:59:14Z</time></trkpt><trkpt lat="42.0046739050053" lon="13.224571336290992"><ele>1478.8</ele><time>2026-04-24T12:59:15Z</time></trkpt><trkpt lat="42.00459099743889" lon="13.224633934630287"><ele>1485.3999999999999</ele><time>2026-04-24T12:59:16Z</time></trkpt><trkpt lat="42.00448705713869" lon="13.224708066704185"><ele>1492.0</ele><time>2026-04-24T12:59:17Z</time></trkpt><trkpt lat="42.004384133114016" lon="13.2247525103937"><ele>1492.0</ele><time>2026-04-24T12:59:18Z</time></trkpt><trkpt lat="42.004276355603466" lon="13.224782162683914"><ele>1492.0</ele><time>2026-04-24T12:59:19Z</time></trkpt><trkpt lat="42.00416632490759" lon="13.224853342292596"><ele>1492.0</ele><time>2026-04-24T12:59:20Z</time></trkpt><trkpt lat="42.00402452325342" lon="13.224921481288392"><ele>1492.0</ele><time>2026-04-24T12:59:21Z</time></trkpt><trkpt lat="42.003889477305194" lon="13.224961760685668"><ele>1488.6</ele><time>2026-04-24T12:59:22Z</time></trkpt><trkpt lat="42.00380143825233" lon="13.225028455642676"><ele>1485.1999999999998</ele><time>2026-04-24T12:59:23Z</time></trkpt><trkpt lat="42.00372436499143" lon="13.22505282775944"><ele>1481.8</ele><time>2026-04-24T12:59:24Z</time></trkpt><trkpt lat="42.00364614757268" lon="13.225076426564303"><ele>1478.4</ele><time>2026-04-24T12:59:25Z</time></trkpt><trkpt lat="42.00355212933085" lon="13.225098336314737"><ele>1475.0</ele><time>2026-04-24T12:59:26Z</time></trkpt><trkpt lat="42.00345021351077" lon="13.225130474014813"><ele>1475.0</ele><time>2026-04-24T12:59:27Z</time></trkpt><trkpt lat="42.00333382327336" lon="13.225109561951767"><ele>1475.0</ele><time>2026-04-24T12:59:28Z</time></trkpt><trkpt lat="42.00323105746052" lon="13.225087540254659"><ele>1475.0</ele><time>2026-04-24T12:59:29Z</time></trkpt><trkpt lat="42.00314749935445" lon="13.225080889892022"><ele>1475.0</ele><time>2026-04-24T12:59:30Z</time></trkpt><trkpt lat="42.00307425557273" lon="13.225054092180606"><ele>1475.0</ele><time>2026-04-24T12:59:31Z</time></trkpt><trkpt lat="42.00300920233786" lon="13.224988159609412"><ele>1475.8</ele><time>2026-04-24T12:59:32Z</time></trkpt><trkpt lat="42.00292874064122" lon="13.224913779452585"><ele>1476.6</ele><time>2026-04-24T12:59:33Z</time></trkpt><trkpt lat="42.0028422863416" lon="13.224840151117192"><ele>1477.4</ele><time>2026-04-24T12:59:34Z</time></trkpt><trkpt lat="42.00275856027263" lon="13.224762575119856"><ele>1478.2</ele><time>2026-04-24T12:59:35Z</time></trkpt><trkpt lat="42.00268511242843" lon="13.224666095170743"><ele>1479.0</ele><time>2026-04-24T12:59:36Z</time></trkpt><trkpt lat="42.002625754014524" lon="13.224543845235518"><ele>1479.0</ele><time>2026-04-24T12:59:37Z</time></trkpt><trkpt lat="42.00254736521128" lon="13.22443759738451"><ele>1479.0</ele><time>2026-04-24T12:59:38Z</time></trkpt><trkpt lat="42.00247736388466" lon="13.224302724785195"><ele>1479.0</ele><time>2026-04-24T12:59:39Z</time></trkpt><trkpt lat="42.00243259154394" lon="13.22415512653648"><ele>1479.0</ele><time>2026-04-24T12:59:40Z</time></trkpt><trkpt lat="42.002364223556434" lon="13.22403015808608"><ele>1476.2</ele><time>2026-04-24T12:59:41Z</time></trkpt><trkpt lat="42.00231596548579" lon="13.223892706152485"><ele>1473.4</ele><time>2026-04-24T12:59:42Z</time></trkpt><trkpt lat="42.00228281411954" lon="13.223740267293431"><ele>1470.6</ele><time>2026-04-24T12:59:43Z</time></trkpt><trkpt lat="42.00224753128908" lon="13.22360425931516"><ele>1467.8</ele><time>2026-04-24T12:59:44Z</time></trkpt><trkpt lat="42.00221172875331" lon="13.223479543224585"><ele>1465.0</ele><time>2026-04-24T12:59:45Z</time></trkpt><trkpt lat="42.00216184589027" lon="13.223385250749466"><ele>1465.0</ele><time>2026-04-24T12:59:46Z</time></trkpt><trkpt lat="42.00209730497045" lon="13.223302163896117"><ele>1465.0</ele><time>2026-04-24T12:59:47Z</time></trkpt><trkpt lat="42.00202638139996" lon="13.223234455266114"><ele>1465.0</ele><time>2026-04-24T12:59:48Z</time></trkpt><trkpt lat="42.00196580504749" lon="13.223164542144247"><ele>1465.0</ele><time>2026-04-24T12:59:49Z</time></trkpt><trkpt lat="42.001939362539794" lon="13.223085447652831"><ele>1465.0</ele><time>2026-04-24T12:59:50Z</time></trkpt><trkpt lat="42.001920156570044" lon="13.222977021612646"><ele>1465.0</ele><time>2026-04-24T12:59:51Z</time></trkpt><trkpt lat="42.0019044338484" lon="13.222839532799178"><ele>1467.25</ele><time>2026-04-24T12:59:52Z</time></trkpt><trkpt lat="42.00190074711731" lon="13.222690447470427"><ele>1469.5</ele><time>2026-04-24T12:59:53Z</time></trkpt><trkpt lat="42.00189593446744" lon="13.22252456322152"><ele>1471.75</ele><time>2026-04-24T12:59:54Z</time></trkpt><trkpt lat="42.00189378315887" lon="13.222381189294412"><ele>1474.0</ele><time>2026-04-24T12:59:55Z</time></trkpt><trkpt lat="42.00189154122585" lon="13.222224830696964"><ele>1475.25</ele><time>2026-04-24T12:59:56Z</time></trkpt><trkpt lat="42.00187452248194" lon="13.222059867386285"><ele>1476.5</ele><time>2026-04-24T12:59:57Z</time></trkpt><trkpt lat="42.00188063461312" lon="13.221892392704719"><ele>1477.75</ele><time>2026-04-24T12:59:58Z</time></trkpt><trkpt lat="42.00188730377735" lon="13.221720525264294"><ele>1479.0</ele><time>2026-04-24T12:59:59Z</time></trkpt><trkpt lat="42.00191886984208" lon="13.2215403727302"><ele>1480.75</ele><time>2026-04-24T13:00:00Z</time></trkpt><trkpt lat="42.00192685442605" lon="13.221373070697494"><ele>1482.5</ele><time>2026-04-24T13:00:01Z</time></trkpt><trkpt lat="42.0019429798296" lon="13.221220911872859"><ele>1484.25</ele><time>2026-04-24T13:00:02Z</time></trkpt><trkpt lat="42.00195799351829" lon="13.221062038597198"><ele>1486.0</ele><time>2026-04-24T13:00:03Z</time></trkpt><trkpt lat="42.00198066314202" lon="13.220910076251652"><ele>1486.0</ele><time>2026-04-24T13:00:04Z</time></trkpt><trkpt lat="42.00198674721766" lon="13.22076653582423"><ele>1486.0</ele><time>2026-04-24T13:00:05Z</time></trkpt><trkpt lat="42.00198862556117" lon="13.220639277781332"><ele>1486.0</ele><time>2026-04-24T13:00:06Z</time></trkpt><trkpt lat="42.001986888958044" lon="13.220520092795194"><ele>1486.0</ele><time>2026-04-24T13:00:07Z</time></trkpt><trkpt lat="42.00198263654768" lon="13.220401961461029"><ele>1486.0</ele><time>2026-04-24T13:00:08Z</time></trkpt><trkpt lat="42.00198317069104" lon="13.22026383504892"><ele>1485.6</ele><time>2026-04-24T13:00:09Z</time></trkpt><trkpt lat="42.00196283776574" lon="13.220154976498916"><ele>1485.1999999999998</ele><time>2026-04-24T13:00:10Z</time></trkpt><trkpt lat="42.00195636915429" lon="13.220044843903342"><ele>1484.8000000000002</ele><time>2026-04-24T13:00:11Z</time></trkpt><trkpt lat="42.001949868045415" lon="13.219927551478177"><ele>1484.4</ele><time>2026-04-24T13:00:12Z</time></trkpt><trkpt lat="42.00196181702312" lon="13.219792580786411"><ele>1484.0</ele><time>2026-04-24T13:00:13Z</time></trkpt><trkpt lat="42.00197614760354" lon="13.219643284656758"><ele>1483.25</ele><time>2026-04-24T13:00:14Z</time></trkpt><trkpt lat="42.00199431026861" lon="13.219474575662957"><ele>1482.5</ele><time>2026-04-24T13:00:15Z</time></trkpt><trkpt lat="42.002027008911135" lon="13.219318369751848"><ele>1481.75</ele><time>2026-04-24T13:00:16Z</time></trkpt><trkpt lat="42.00205608479075" lon="13.219142478612739"><ele>1481.0</ele><time>2026-04-24T13:00:17Z</time></trkpt><trkpt lat="42.0020790124101" lon="13.218957288048578"><ele>1481.0</ele><time>2026-04-24T13:00:18Z</time></trkpt><trkpt lat="42.00209275709952" lon="13.21880379187092"><ele>1481.0</ele><time>2026-04-24T13:00:19Z</time></trkpt><trkpt lat="42.00209508050416" lon="13.21865787357388"><ele>1481.0</ele><time>2026-04-24T13:00:20Z</time></trkpt><trkpt lat="42.002089769486076" lon="13.218499157781583"><ele>1481.0</ele><time>2026-04-24T13:00:20.999Z</time></trkpt><trkpt lat="42.002080641428165" lon="13.218364155848242"><ele>1481.0</ele><time>2026-04-24T13:00:21.999Z</time></trkpt><trkpt lat="42.00206114567382" lon="13.21824237366008"><ele>1482.8</ele><time>2026-04-24T13:00:22.999Z</time></trkpt><trkpt lat="42.00203506301763" lon="13.218114083804192"><ele>1484.6</ele><time>2026-04-24T13:00:23.999Z</time></trkpt><trkpt lat="42.002000132571055" lon="13.217990210476671"><ele>1486.4</ele><time>2026-04-24T13:00:24.999Z</time></trkpt><trkpt lat="42.001955157927554" lon="13.217864744718513"><ele>1488.2</ele><time>2026-04-24T13:00:25.999Z</time></trkpt><trkpt lat="42.00189886613771" lon="13.217752387646446"><ele>1490.0</ele><time>2026-04-24T13:00:26.999Z</time></trkpt><trkpt lat="42.001812017004056" lon="13.21764348192276"><ele>1490.0</ele><time>2026-04-24T13:00:27.999Z</time></trkpt><trkpt lat="42.001720658181995" lon="13.217536679483532"><ele>1490.0</ele><time>2026-04-24T13:00:28.999Z</time></trkpt><trkpt lat="42.00163028683528" lon="13.217424622398703"><ele>1490.0</ele><time>2026-04-24T13:00:29.999Z</time></trkpt><trkpt lat="42.00156731926288" lon="13.217325734433476"><ele>1490.0</ele><time>2026-04-24T13:00:30.999Z</time></trkpt><trkpt lat="42.00151755146964" lon="13.217235017611186"><ele>1490.0</ele><time>2026-04-24T13:00:31.999Z</time></trkpt><trkpt lat="42.00146635346743" lon="13.217092167257624"><ele>1489.2</ele><time>2026-04-24T13:00:33.999Z</time></trkpt><trkpt lat="42.00143862653596" lon="13.216999073975733"><ele>1488.4</ele><time>2026-04-24T13:00:34.999Z</time></trkpt><trkpt lat="42.00139918575018" lon="13.216874114408435"><ele>1487.6</ele><time>2026-04-24T13:00:35.999Z</time></trkpt><trkpt lat="42.00139109965576" lon="13.21673742685498"><ele>1486.8</ele><time>2026-04-24T13:00:36.999Z</time></trkpt><trkpt lat="42.00141405529769" lon="13.216579344367146"><ele>1486.0</ele><time>2026-04-24T13:00:38.999Z</time></trkpt><trkpt lat="42.0014606630177" lon="13.216469956555247"><ele>1486.0</ele><time>2026-04-24T13:00:39.999Z</time></trkpt><trkpt lat="42.001518148152705" lon="13.216365625465134"><ele>1486.0</ele><time>2026-04-24T13:00:40.999Z</time></trkpt><trkpt lat="42.001563000807714" lon="13.21626807679584"><ele>1486.0</ele><time>2026-04-24T13:00:41.999Z</time></trkpt><trkpt lat="42.001596109341975" lon="13.216188677651548"><ele>1486.0</ele><time>2026-04-24T13:00:42.999Z</time></trkpt><trkpt lat="42.00162882659829" lon="13.21610408860099"><ele>1486.0</ele><time>2026-04-24T13:00:43.999Z</time></trkpt><trkpt lat="42.00166156122525" lon="13.216012044096287"><ele>1486.0</ele><time>2026-04-24T13:00:44.999Z</time></trkpt><trkpt lat="42.00169841355777" lon="13.21592116392188"><ele>1486.1999999999998</ele><time>2026-04-24T13:00:45.999Z</time></trkpt><trkpt lat="42.001741072175285" lon="13.215836149820422"><ele>1486.3999999999999</ele><time>2026-04-24T13:00:46.999Z</time></trkpt><trkpt lat="42.00178592980681" lon="13.215700041969692"><ele>1486.6</ele><time>2026-04-24T13:00:48.999Z</time></trkpt><trkpt lat="42.00184284119265" lon="13.215558610807669"><ele>1486.8</ele><time>2026-04-24T13:00:50.999Z</time></trkpt><trkpt lat="42.00189017530291" lon="13.215466851977112"><ele>1487.0</ele><time>2026-04-24T13:00:51.999Z</time></trkpt><trkpt lat="42.00194534829271" lon="13.215371165826754"><ele>1484.8</ele><time>2026-04-24T13:00:52.999Z</time></trkpt><trkpt lat="42.002004303289695" lon="13.215264923618703"><ele>1482.6</ele><time>2026-04-24T13:00:53.999Z</time></trkpt><trkpt lat="42.00206429289162" lon="13.21515701865355"><ele>1480.3999999999999</ele><time>2026-04-24T13:00:54.999Z</time></trkpt><trkpt lat="42.00211159903542" lon="13.215057937668995"><ele>1478.1999999999998</ele><time>2026-04-24T13:00:55.999Z</time></trkpt><trkpt lat="42.002149799478154" lon="13.214959801787824"><ele>1476.0</ele><time>2026-04-24T13:00:56.999Z</time></trkpt><trkpt lat="42.00220835382988" lon="13.214853254073933"><ele>1475.1999999999998</ele><time>2026-04-24T13:00:57.999Z</time></trkpt><trkpt lat="42.00225883700324" lon="13.214736862119446"><ele>1474.3999999999999</ele><time>2026-04-24T13:00:58.999Z</time></trkpt><trkpt lat="42.00230598510233" lon="13.214619633791274"><ele>1473.6</ele><time>2026-04-24T13:00:59.999Z</time></trkpt><trkpt lat="42.00235534057231" lon="13.214513124133079"><ele>1472.8</ele><time>2026-04-24T13:01:00.999Z</time></trkpt><trkpt lat="42.00240961466989" lon="13.21441090126784"><ele>1472.0</ele><time>2026-04-24T13:01:01.999Z</time></trkpt><trkpt lat="42.002466097076336" lon="13.214314940863506"><ele>1471.1666666666667</ele><time>2026-04-24T13:01:02.999Z</time></trkpt><trkpt lat="42.00250943316375" lon="13.214208440090514"><ele>1470.3333333333335</ele><time>2026-04-24T13:01:03.999Z</time></trkpt><trkpt lat="42.002575331397" lon="13.214135479558209"><ele>1469.5</ele><time>2026-04-24T13:01:04.999Z</time></trkpt><trkpt lat="42.002615777353334" lon="13.21402578910919"><ele>1468.6666666666667</ele><time>2026-04-24T13:01:06Z</time></trkpt><trkpt lat="42.00266702561616" lon="13.213938841597532"><ele>1467.8333333333333</ele><time>2026-04-24T13:01:07Z</time></trkpt><trkpt lat="42.00272652205947" lon="13.213865558426596"><ele>1467.0</ele><time>2026-04-24T13:01:08Z</time></trkpt><trkpt lat="42.00278267136635" lon="13.213795901514857"><ele>1467.0</ele><time>2026-04-24T13:01:09Z</time></trkpt><trkpt lat="42.00284048955735" lon="13.2137213229655"><ele>1467.0</ele><time>2026-04-24T13:01:10Z</time></trkpt><trkpt lat="42.00290913588044" lon="13.213625640662254"><ele>1467.0</ele><time>2026-04-24T13:01:12Z</time></trkpt><trkpt lat="42.00302971696383" lon="13.213403301860303"><ele>1467.0</ele><time>2026-04-24T13:01:13Z</time></trkpt><trkpt lat="42.00310001655797" lon="13.21330380557017"><ele>1467.0</ele><time>2026-04-24T13:01:14Z</time></trkpt><trkpt lat="42.00316583211734" lon="13.213196747906345"><ele>1467.0</ele><time>2026-04-24T13:01:15Z</time></trkpt><trkpt lat="42.00323055386589" lon="13.21309161453546"><ele>1467.0</ele><time>2026-04-24T13:01:16Z</time></trkpt><trkpt lat="42.00329948142361" lon="13.212984081116367"><ele>1467.0</ele><time>2026-04-24T13:01:17Z</time></trkpt><trkpt lat="42.00336250455214" lon="13.212889730298683"><ele>1467.0</ele><time>2026-04-24T13:01:18Z</time></trkpt><trkpt lat="42.003423406497475" lon="13.212787680611433"><ele>1466.6</ele><time>2026-04-24T13:01:19Z</time></trkpt><trkpt lat="42.00349417079522" lon="13.212681702032977"><ele>1466.1999999999998</ele><time>2026-04-24T13:01:20Z</time></trkpt><trkpt lat="42.00355997267596" lon="13.212569877600286"><ele>1465.8</ele><time>2026-04-24T13:01:21Z</time></trkpt><trkpt lat="42.00363196092647" lon="13.2124568740075"><ele>1465.4</ele><time>2026-04-24T13:01:22Z</time></trkpt><trkpt lat="42.003699774221815" lon="13.212350185210031"><ele>1465.0</ele><time>2026-04-24T13:01:23Z</time></trkpt><trkpt lat="42.00375912293157" lon="13.212244988833074"><ele>1466.8</ele><time>2026-04-24T13:01:24Z</time></trkpt><trkpt lat="42.003820116466024" lon="13.212142106239627"><ele>1468.6</ele><time>2026-04-24T13:01:25Z</time></trkpt><trkpt lat="42.003884685974164" lon="13.212043120144736"><ele>1470.4</ele><time>2026-04-24T13:01:26Z</time></trkpt><trkpt lat="42.003946061792035" lon="13.211946781708777"><ele>1472.2</ele><time>2026-04-24T13:01:27Z</time></trkpt><trkpt lat="42.00401187237534" lon="13.211861257649165"><ele>1474.0</ele><time>2026-04-24T13:01:28Z</time></trkpt><trkpt lat="42.004084840598715" lon="13.211766643884436"><ele>1474.0</ele><time>2026-04-24T13:01:29Z</time></trkpt><trkpt lat="42.00415225133511" lon="13.211667096997061"><ele>1474.0</ele><time>2026-04-24T13:01:30Z</time></trkpt><trkpt lat="42.00421912938888" lon="13.211566306498106"><ele>1474.0</ele><time>2026-04-24T13:01:31Z</time></trkpt><trkpt lat="42.00429437246451" lon="13.211470604340716"><ele>1474.0</ele><time>2026-04-24T13:01:32Z</time></trkpt><trkpt lat="42.00436248473892" lon="13.211379432238386"><ele>1474.0</ele><time>2026-04-24T13:01:33Z</time></trkpt><trkpt lat="42.004433428756705" lon="13.211302086405667"><ele>1474.1666666666665</ele><time>2026-04-24T13:01:34Z</time></trkpt><trkpt lat="42.0044962386822" lon="13.211222675874707"><ele>1474.3333333333333</ele><time>2026-04-24T13:01:35Z</time></trkpt><trkpt lat="42.00456093589532" lon="13.211145212922672"><ele>1474.5</ele><time>2026-04-24T13:01:36Z</time></trkpt><trkpt lat="42.00461129521323" lon="13.211076519635824"><ele>1474.6666666666667</ele><time>2026-04-24T13:01:37Z</time></trkpt><trkpt lat="42.00467021359229" lon="13.211007008512741"><ele>1474.8333333333335</ele><time>2026-04-24T13:01:38Z</time></trkpt><trkpt lat="42.004734244252646" lon="13.210896710997261"><ele>1475.0</ele><time>2026-04-24T13:01:39Z</time></trkpt><trkpt lat="42.00479857366828" lon="13.210815978492638"><ele>1475.0</ele><time>2026-04-24T13:01:40Z</time></trkpt><trkpt lat="42.00486679171201" lon="13.210750841529308"><ele>1475.0</ele><time>2026-04-24T13:01:41Z</time></trkpt><trkpt lat="42.00493332993245" lon="13.210702480258599"><ele>1475.0</ele><time>2026-04-24T13:01:42Z</time></trkpt><trkpt lat="42.00505763129563" lon="13.21065039797039"><ele>1475.0</ele><time>2026-04-24T13:01:44Z</time></trkpt><trkpt lat="42.005141561871156" lon="13.210616721996562"><ele>1475.0</ele><time>2026-04-24T13:01:45Z</time></trkpt><trkpt lat="42.00521390322183" lon="13.21057103611082"><ele>1474.6</ele><time>2026-04-24T13:01:46Z</time></trkpt><trkpt lat="42.00533103410114" lon="13.210544025084715"><ele>1474.2</ele><time>2026-04-24T13:01:47Z</time></trkpt><trkpt lat="42.005454055554644" lon="13.21053721283835"><ele>1473.8000000000002</ele><time>2026-04-24T13:01:48Z</time></trkpt><trkpt lat="42.005557711921284" lon="13.210541199890281"><ele>1473.4</ele><time>2026-04-24T13:01:49Z</time></trkpt><trkpt lat="42.0056463495972" lon="13.210557069227608"><ele>1473.0</ele><time>2026-04-24T13:01:50Z</time></trkpt><trkpt lat="42.00578878622623" lon="13.210514692623484"><ele>1465.0</ele><time>2026-04-24T13:01:51Z</time></trkpt><trkpt lat="42.00592368547506" lon="13.210464877038383"><ele>1457.0</ele><time>2026-04-24T13:01:52Z</time></trkpt><trkpt lat="42.00604613503716" lon="13.210383680178195"><ele>1449.0</ele><time>2026-04-24T13:01:53Z</time></trkpt><trkpt lat="42.00616661901214" lon="13.210295106288367"><ele>1441.0</ele><time>2026-04-24T13:01:54Z</time></trkpt><trkpt lat="42.0062837306104" lon="13.210200759307604"><ele>1441.0</ele><time>2026-04-24T13:01:55Z</time></trkpt><trkpt lat="42.00639514572806" lon="13.210101145080504"><ele>1441.0</ele><time>2026-04-24T13:01:56Z</time></trkpt><trkpt lat="42.006501475678895" lon="13.210000070424469"><ele>1441.0</ele><time>2026-04-24T13:01:57Z</time></trkpt><trkpt lat="42.00660379286602" lon="13.209927901505964"><ele>1441.0</ele><time>2026-04-24T13:01:58Z</time></trkpt><trkpt lat="42.006698739439386" lon="13.209890346484912"><ele>1441.4</ele><time>2026-04-24T13:01:59Z</time></trkpt><trkpt lat="42.00679835981307" lon="13.209856350808996"><ele>1441.8</ele><time>2026-04-24T13:02:00Z</time></trkpt><trkpt lat="42.006890808695" lon="13.209839091755851"><ele>1442.2</ele><time>2026-04-24T13:02:01Z</time></trkpt><trkpt lat="42.006967300483204" lon="13.20981965915584"><ele>1442.6000000000001</ele><time>2026-04-24T13:02:02Z</time></trkpt><trkpt lat="42.00707405124045" lon="13.20981815977012"><ele>1443.0</ele><time>2026-04-24T13:02:03Z</time></trkpt><trkpt lat="42.00717735745651" lon="13.209821493618708"><ele>1439.25</ele><time>2026-04-24T13:02:04Z</time></trkpt><trkpt lat="42.00727421750209" lon="13.20981699465932"><ele>1435.5</ele><time>2026-04-24T13:02:05Z</time></trkpt><trkpt lat="42.00737338364644" lon="13.209784749404243"><ele>1431.75</ele><time>2026-04-24T13:02:06Z</time></trkpt><trkpt lat="42.007479649245575" lon="13.209732502772649"><ele>1428.0</ele><time>2026-04-24T13:02:07Z</time></trkpt><trkpt lat="42.007613078969285" lon="13.20964440515627"><ele>1428.0</ele><time>2026-04-24T13:02:08Z</time></trkpt><trkpt lat="42.00772778588739" lon="13.209567602837897"><ele>1428.0</ele><time>2026-04-24T13:02:09Z</time></trkpt><trkpt lat="42.00783570890677" lon="13.209503416579999"><ele>1428.0</ele><time>2026-04-24T13:02:10Z</time></trkpt><trkpt lat="42.007933807537356" lon="13.209442658279338"><ele>1428.0</ele><time>2026-04-24T13:02:11Z</time></trkpt><trkpt lat="42.00803237325027" lon="13.209383322867636"><ele>1428.0</ele><time>2026-04-24T13:02:12Z</time></trkpt><trkpt lat="42.00812498387578" lon="13.209322632918695"><ele>1428.0</ele><time>2026-04-24T13:02:13Z</time></trkpt><trkpt lat="42.00821208508839" lon="13.209271156319582"><ele>1428.0</ele><time>2026-04-24T13:02:14Z</time></trkpt><trkpt lat="42.008292174876495" lon="13.209237385453475"><ele>1428.0</ele><time>2026-04-24T13:02:15Z</time></trkpt><trkpt lat="42.008379100258914" lon="13.209222869735001"><ele>1428.0</ele><time>2026-04-24T13:02:16Z</time></trkpt><trkpt lat="42.00846436544523" lon="13.209232345875074"><ele>1427.0</ele><time>2026-04-24T13:02:17Z</time></trkpt><trkpt lat="42.008552879828926" lon="13.20925549135711"><ele>1426.0</ele><time>2026-04-24T13:02:18Z</time></trkpt><trkpt lat="42.00866139365093" lon="13.209294041343806"><ele>1425.0</ele><time>2026-04-24T13:02:18.999Z</time></trkpt><trkpt lat="42.00877799079803" lon="13.20933578485652"><ele>1424.0</ele><time>2026-04-24T13:02:19.999Z</time></trkpt><trkpt lat="42.00889067610057" lon="13.209369862354482"><ele>1423.0</ele><time>2026-04-24T13:02:20.999Z</time></trkpt><trkpt lat="42.00898962012057" lon="13.209392297159637"><ele>1423.0</ele><time>2026-04-24T13:02:21.999Z</time></trkpt><trkpt lat="42.009081085329605" lon="13.209411130598593"><ele>1423.0</ele><time>2026-04-24T13:02:22.999Z</time></trkpt><trkpt lat="42.00915774370559" lon="13.209425746635613"><ele>1423.0</ele><time>2026-04-24T13:02:23.999Z</time></trkpt><trkpt lat="42.00923632499471" lon="13.209430804469532"><ele>1423.0</ele><time>2026-04-24T13:02:24.999Z</time></trkpt><trkpt lat="42.00931757092275" lon="13.209436866282886"><ele>1423.0</ele><time>2026-04-24T13:02:25.999Z</time></trkpt><trkpt lat="42.00939001550818" lon="13.209432855011721"><ele>1423.0</ele><time>2026-04-24T13:02:26.999Z</time></trkpt><trkpt lat="42.009470968057045" lon="13.20940062395767"><ele>1423.2</ele><time>2026-04-24T13:02:27.999Z</time></trkpt><trkpt lat="42.009552717849935" lon="13.209346994970284"><ele>1423.4</ele><time>2026-04-24T13:02:28.999Z</time></trkpt><trkpt lat="42.009617994766295" lon="13.209266143619597"><ele>1423.6000000000001</ele><time>2026-04-24T13:02:29.999Z</time></trkpt><trkpt lat="42.00969515619962" lon="13.209158047425944"><ele>1423.8000000000002</ele><time>2026-04-24T13:02:30.999Z</time></trkpt><trkpt lat="42.009772337181126" lon="13.209070232566821"><ele>1424.0</ele><time>2026-04-24T13:02:31.999Z</time></trkpt><trkpt lat="42.00985007673015" lon="13.208974111046222"><ele>1422.6</ele><time>2026-04-24T13:02:32.999Z</time></trkpt><trkpt lat="42.00991403530009" lon="13.208887978039076"><ele>1421.2</ele><time>2026-04-24T13:02:33.999Z</time></trkpt><trkpt lat="42.00999102288456" lon="13.208815560556305"><ele>1419.8</ele><time>2026-04-24T13:02:34.999Z</time></trkpt><trkpt lat="42.01006415525835" lon="13.20875677240595"><ele>1418.3999999999999</ele><time>2026-04-24T13:02:35.999Z</time></trkpt><trkpt lat="42.01014039252554" lon="13.208689229885392"><ele>1417.0</ele><time>2026-04-24T13:02:36.999Z</time></trkpt><trkpt lat="42.010218599309226" lon="13.208631554025194"><ele>1416.8</ele><time>2026-04-24T13:02:37.999Z</time></trkpt><trkpt lat="42.01030092088578" lon="13.208564900215434"><ele>1416.6</ele><time>2026-04-24T13:02:38.999Z</time></trkpt><trkpt lat="42.01039064799871" lon="13.208487220384175"><ele>1416.3999999999999</ele><time>2026-04-24T13:02:39.999Z</time></trkpt><trkpt lat="42.01046915487425" lon="13.208417437105416"><ele>1416.1999999999998</ele><time>2026-04-24T13:02:40.999Z</time></trkpt><trkpt lat="42.01053834234531" lon="13.208336948448498"><ele>1416.0</ele><time>2026-04-24T13:02:41.999Z</time></trkpt><trkpt lat="42.010602995306236" lon="13.208245648905873"><ele>1413.4</ele><time>2026-04-24T13:02:42.999Z</time></trkpt><trkpt lat="42.01066828974994" lon="13.208140141159696"><ele>1410.8</ele><time>2026-04-24T13:02:43.999Z</time></trkpt><trkpt lat="42.01074146088302" lon="13.208047830753253"><ele>1408.2</ele><time>2026-04-24T13:02:44.999Z</time></trkpt><trkpt lat="42.010803184540784" lon="13.207955589110625"><ele>1405.6000000000001</ele><time>2026-04-24T13:02:45.999Z</time></trkpt><trkpt lat="42.010850157466216" lon="13.207859784622546"><ele>1403.0</ele><time>2026-04-24T13:02:46.999Z</time></trkpt><trkpt lat="42.01090923653745" lon="13.20779345143055"><ele>1400.5</ele><time>2026-04-24T13:02:47.999Z</time></trkpt><trkpt lat="42.010975863143166" lon="13.207738930097822"><ele>1398.0</ele><time>2026-04-24T13:02:48.999Z</time></trkpt><trkpt lat="42.011045670179925" lon="13.20769731920342"><ele>1395.5</ele><time>2026-04-24T13:02:49.999Z</time></trkpt><trkpt lat="42.011116326931926" lon="13.207638158225613"><ele>1393.0</ele><time>2026-04-24T13:02:50.999Z</time></trkpt><trkpt lat="42.01118717973392" lon="13.207583694556694"><ele>1390.5</ele><time>2026-04-24T13:02:51.999Z</time></trkpt><trkpt lat="42.011259982826786" lon="13.20752743500638"><ele>1388.0</ele><time>2026-04-24T13:02:52.999Z</time></trkpt><trkpt lat="42.01131940144291" lon="13.207471160476944"><ele>1388.0</ele><time>2026-04-24T13:02:53.999Z</time></trkpt><trkpt lat="42.011378688044566" lon="13.20742364435803"><ele>1388.0</ele><time>2026-04-24T13:02:54.999Z</time></trkpt><trkpt lat="42.01146302960051" lon="13.207337852792548"><ele>1388.0</ele><time>2026-04-24T13:02:56.999Z</time></trkpt><trkpt lat="42.01149968157899" lon="13.207252732856734"><ele>1388.0</ele><time>2026-04-24T13:02:58.999Z</time></trkpt><trkpt lat="42.01140651533804" lon="13.207108549449455"><ele>1388.0</ele><time>2026-04-24T13:03:00.999Z</time></trkpt><trkpt lat="42.01133374865468" lon="13.207119230260204"><ele>1387.6666666666667</ele><time>2026-04-24T13:03:01.999Z</time></trkpt><trkpt lat="42.0112548827192" lon="13.207157442618183"><ele>1387.3333333333335</ele><time>2026-04-24T13:03:02.999Z</time></trkpt><trkpt lat="42.01116552329279" lon="13.207150901554416"><ele>1387.0</ele><time>2026-04-24T13:03:03.999Z</time></trkpt><trkpt lat="42.011091113121445" lon="13.20715552777907"><ele>1386.6666666666667</ele><time>2026-04-24T13:03:04.999Z</time></trkpt><trkpt lat="42.01099209038308" lon="13.207147866035296"><ele>1386.3333333333333</ele><time>2026-04-24T13:03:06.999Z</time></trkpt><trkpt lat="42.010903346173656" lon="13.207123340642504"><ele>1386.0</ele><time>2026-04-24T13:03:08.999Z</time></trkpt><trkpt lat="42.01081862770429" lon="13.20704430267208"><ele>1386.0</ele><time>2026-04-24T13:03:11Z</time></trkpt><trkpt lat="42.010758753273294" lon="13.20699318118306"><ele>1386.0</ele><time>2026-04-24T13:03:12Z</time></trkpt><trkpt lat="42.01070360211366" lon="13.206904008902805"><ele>1386.0</ele><time>2026-04-24T13:03:13Z</time></trkpt><trkpt lat="42.010640349816846" lon="13.206837448647606"><ele>1386.0</ele><time>2026-04-24T13:03:14Z</time></trkpt><trkpt lat="42.0105764409088" lon="13.206783623209637"><ele>1386.0</ele><time>2026-04-24T13:03:15Z</time></trkpt><trkpt lat="42.0105335285983" lon="13.206711231912514"><ele>1386.0</ele><time>2026-04-24T13:03:16Z</time></trkpt><trkpt lat="42.01047151458373" lon="13.206646369839518"><ele>1386.0</ele><time>2026-04-24T13:03:17Z</time></trkpt><trkpt lat="42.01040281240452" lon="13.206582084225369"><ele>1386.0</ele><time>2026-04-24T13:03:18Z</time></trkpt><trkpt lat="42.01032855113089" lon="13.206529461899246"><ele>1386.0</ele><time>2026-04-24T13:03:19Z</time></trkpt><trkpt lat="42.010257217571755" lon="13.206497461818364"><ele>1386.0</ele><time>2026-04-24T13:03:20Z</time></trkpt><trkpt lat="42.010147823880246" lon="13.206455439291624"><ele>1386.0</ele><time>2026-04-24T13:03:22Z</time></trkpt><trkpt lat="42.010077314155126" lon="13.20643289747432"><ele>1386.0</ele><time>2026-04-24T13:03:24Z</time></trkpt><trkpt lat="42.01003251375683" lon="13.206372101251208"><ele>1385.3333333333333</ele><time>2026-04-24T13:03:26Z</time></trkpt><trkpt lat="42.01005525411772" lon="13.206290602824387"><ele>1384.6666666666667</ele><time>2026-04-24T13:03:28Z</time></trkpt><trkpt lat="42.01011397124251" lon="13.206239448909006"><ele>1384.0</ele><time>2026-04-24T13:03:30Z</time></trkpt><trkpt lat="42.01022268577787" lon="13.206194824117276"><ele>1383.3333333333335</ele><time>2026-04-24T13:03:32Z</time></trkpt><trkpt lat="42.01029449337936" lon="13.206140994381968"><ele>1382.6666666666667</ele><time>2026-04-24T13:03:33Z</time></trkpt><trkpt lat="42.01034995976415" lon="13.206079734520518"><ele>1382.0</ele><time>2026-04-24T13:03:34Z</time></trkpt><trkpt lat="42.010409344463035" lon="13.206021827306166"><ele>1382.0</ele><time>2026-04-24T13:03:35Z</time></trkpt><trkpt lat="42.01046290188023" lon="13.205964396869401"><ele>1382.0</ele><time>2026-04-24T13:03:36Z</time></trkpt><trkpt lat="42.010532643773516" lon="13.205890385477634"><ele>1382.0</ele><time>2026-04-24T13:03:37Z</time></trkpt><trkpt lat="42.01058758953436" lon="13.205813736869368"><ele>1382.0</ele><time>2026-04-24T13:03:38Z</time></trkpt><trkpt lat="42.01063841572939" lon="13.205738095176615"><ele>1382.0</ele><time>2026-04-24T13:03:39Z</time></trkpt><trkpt lat="42.01069469659527" lon="13.205664483406693"><ele>1382.0</ele><time>2026-04-24T13:03:40Z</time></trkpt><trkpt lat="42.010749356931754" lon="13.205560718558445"><ele>1380.0</ele><time>2026-04-24T13:03:41Z</time></trkpt><trkpt lat="42.01078749236503" lon="13.205456797645155"><ele>1378.0</ele><time>2026-04-24T13:03:42Z</time></trkpt><trkpt lat="42.010850289994664" lon="13.205339368878983"><ele>1376.0</ele><time>2026-04-24T13:03:43Z</time></trkpt><trkpt lat="42.01090821128297" lon="13.205212816113539"><ele>1374.0</ele><time>2026-04-24T13:03:44Z</time></trkpt><trkpt lat="42.010955853809726" lon="13.20509688921669"><ele>1372.0</ele><time>2026-04-24T13:03:45Z</time></trkpt><trkpt lat="42.01100949795965" lon="13.204962298208123"><ele>1372.0</ele><time>2026-04-24T13:03:46Z</time></trkpt><trkpt lat="42.01106022471003" lon="13.204842298182443"><ele>1372.0</ele><time>2026-04-24T13:03:47Z</time></trkpt><trkpt lat="42.011120735143216" lon="13.20469794275504"><ele>1372.0</ele><time>2026-04-24T13:03:48Z</time></trkpt><trkpt lat="42.01118878631146" lon="13.204565570080563"><ele>1372.0</ele><time>2026-04-24T13:03:49Z</time></trkpt><trkpt lat="42.01125915690509" lon="13.20444008696467"><ele>1374.5</ele><time>2026-04-24T13:03:50Z</time></trkpt><trkpt lat="42.01132663048478" lon="13.20433663674789"><ele>1377.0</ele><time>2026-04-24T13:03:51Z</time></trkpt><trkpt lat="42.011413797230304" lon="13.204243101665408"><ele>1379.5</ele><time>2026-04-24T13:03:52Z</time></trkpt><trkpt lat="42.01151360560531" lon="13.204157306242134"><ele>1382.0</ele><time>2026-04-24T13:03:53Z</time></trkpt><trkpt lat="42.01161524663972" lon="13.204061825395915"><ele>1382.0</ele><time>2026-04-24T13:03:54Z</time></trkpt><trkpt lat="42.011710630317836" lon="13.203969636482295"><ele>1382.0</ele><time>2026-04-24T13:03:55Z</time></trkpt><trkpt lat="42.01181812258203" lon="13.203889167255303"><ele>1382.0</ele><time>2026-04-24T13:03:56Z</time></trkpt><trkpt lat="42.01191577315049" lon="13.203808653607592"><ele>1382.0</ele><time>2026-04-24T13:03:57Z</time></trkpt><trkpt lat="42.01199825260998" lon="13.203706718473702"><ele>1382.0</ele><time>2026-04-24T13:03:58Z</time></trkpt><trkpt lat="42.01207782359113" lon="13.203621029141722"><ele>1382.0</ele><time>2026-04-24T13:03:59Z</time></trkpt><trkpt lat="42.01212029371128" lon="13.203502209943593"><ele>1382.0</ele><time>2026-04-24T13:04:00Z</time></trkpt><trkpt lat="42.0121638958078" lon="13.203394363917065"><ele>1382.0</ele><time>2026-04-24T13:04:01Z</time></trkpt><trkpt lat="42.01220814077064" lon="13.20328684213338"><ele>1382.0</ele><time>2026-04-24T13:04:02Z</time></trkpt><trkpt lat="42.01227165478688" lon="13.203164782814383"><ele>1384.5</ele><time>2026-04-24T13:04:03Z</time></trkpt><trkpt lat="42.01232980132437" lon="13.203016532026671"><ele>1387.0</ele><time>2026-04-24T13:04:04Z</time></trkpt><trkpt lat="42.01237756304018" lon="13.202843057632144"><ele>1389.5</ele><time>2026-04-24T13:04:05Z</time></trkpt><trkpt lat="42.012449659047014" lon="13.202678907548796"><ele>1392.0</ele><time>2026-04-24T13:04:06Z</time></trkpt><trkpt lat="42.01251191293077" lon="13.202517861812316"><ele>1386.0</ele><time>2026-04-24T13:04:07Z</time></trkpt><trkpt lat="42.012563046605315" lon="13.202342483115553"><ele>1380.0</ele><time>2026-04-24T13:04:08Z</time></trkpt><trkpt lat="42.012607903077914" lon="13.20216097917175"><ele>1374.0</ele><time>2026-04-24T13:04:09Z</time></trkpt><trkpt lat="42.01265349484157" lon="13.201975951189441"><ele>1368.0</ele><time>2026-04-24T13:04:09.999Z</time></trkpt><trkpt lat="42.01271104990037" lon="13.20180355115892"><ele>1368.0</ele><time>2026-04-24T13:04:10.999Z</time></trkpt><trkpt lat="42.012761534150684" lon="13.201635371145917"><ele>1368.0</ele><time>2026-04-24T13:04:11.999Z</time></trkpt><trkpt lat="42.0128072960732" lon="13.201461955903866"><ele>1368.0</ele><time>2026-04-24T13:04:12.999Z</time></trkpt><trkpt lat="42.012867206716784" lon="13.201293758800407"><ele>1368.0</ele><time>2026-04-24T13:04:13.999Z</time></trkpt><trkpt lat="42.012912210397495" lon="13.201125708073874"><ele>1370.5</ele><time>2026-04-24T13:04:14.999Z</time></trkpt><trkpt lat="42.012955752849415" lon="13.20094420923732"><ele>1373.0</ele><time>2026-04-24T13:04:15.999Z</time></trkpt><trkpt lat="42.01299341748161" lon="13.20076524520965"><ele>1375.5</ele><time>2026-04-24T13:04:16.999Z</time></trkpt><trkpt lat="42.01304320340009" lon="13.200590973586902"><ele>1378.0</ele><time>2026-04-24T13:04:17.999Z</time></trkpt><trkpt lat="42.01307683130383" lon="13.200418898846818"><ele>1378.75</ele><time>2026-04-24T13:04:18.999Z</time></trkpt><trkpt lat="42.013107523436034" lon="13.200273951985146"><ele>1379.5</ele><time>2026-04-24T13:04:19.999Z</time></trkpt><trkpt lat="42.01313726404524" lon="13.200130704678239"><ele>1380.25</ele><time>2026-04-24T13:04:20.999Z</time></trkpt><trkpt lat="42.01316887378923" lon="13.199990886686523"><ele>1381.0</ele><time>2026-04-24T13:04:21.999Z</time></trkpt><trkpt lat="42.013219323056205" lon="13.199831128010793"><ele>1381.75</ele><time>2026-04-24T13:04:22.999Z</time></trkpt><trkpt lat="42.01329581056905" lon="13.199679470143272"><ele>1382.5</ele><time>2026-04-24T13:04:23.999Z</time></trkpt><trkpt lat="42.01337797426377" lon="13.199514510124779"><ele>1383.25</ele><time>2026-04-24T13:04:24.999Z</time></trkpt><trkpt lat="42.01344509108022" lon="13.199347258803764"><ele>1384.0</ele><time>2026-04-24T13:04:25.999Z</time></trkpt><trkpt lat="42.01351502620544" lon="13.199159489001854"><ele>1376.75</ele><time>2026-04-24T13:04:26.999Z</time></trkpt><trkpt lat="42.013585461744306" lon="13.198993049332692"><ele>1369.5</ele><time>2026-04-24T13:04:27.999Z</time></trkpt><trkpt lat="42.01366538917884" lon="13.198830089586226"><ele>1362.25</ele><time>2026-04-24T13:04:28.999Z</time></trkpt><trkpt lat="42.01374113603547" lon="13.198658410506516"><ele>1355.0</ele><time>2026-04-24T13:04:29.999Z</time></trkpt><trkpt lat="42.01382470351666" lon="13.198510343295796"><ele>1355.0</ele><time>2026-04-24T13:04:30.999Z</time></trkpt><trkpt lat="42.01386908451651" lon="13.198345176908225"><ele>1355.0</ele><time>2026-04-24T13:04:31.999Z</time></trkpt><trkpt lat="42.013930414193354" lon="13.198183711073321"><ele>1355.0</ele><time>2026-04-24T13:04:32.999Z</time></trkpt><trkpt lat="42.01399024254312" lon="13.198001957382024"><ele>1355.0</ele><time>2026-04-24T13:04:33.999Z</time></trkpt><trkpt lat="42.01405405209674" lon="13.197805959717014"><ele>1353.25</ele><time>2026-04-24T13:04:34.999Z</time></trkpt><trkpt lat="42.01411341613687" lon="13.197624136557025"><ele>1351.5</ele><time>2026-04-24T13:04:35.999Z</time></trkpt><trkpt lat="42.01417039896876" lon="13.197440874375506"><ele>1349.75</ele><time>2026-04-24T13:04:36.999Z</time></trkpt><trkpt lat="42.01422299409778" lon="13.197272020042439"><ele>1348.0</ele><time>2026-04-24T13:04:37.999Z</time></trkpt><trkpt lat="42.01427619219989" lon="13.197102131530547"><ele>1348.0</ele><time>2026-04-24T13:04:38.999Z</time></trkpt><trkpt lat="42.014334152443425" lon="13.196955878923573"><ele>1348.0</ele><time>2026-04-24T13:04:39.999Z</time></trkpt><trkpt lat="42.01438592323806" lon="13.19681995634425"><ele>1348.0</ele><time>2026-04-24T13:04:40.999Z</time></trkpt><trkpt lat="42.01443623803376" lon="13.196696757111297"><ele>1348.0</ele><time>2026-04-24T13:04:41.999Z</time></trkpt><trkpt lat="42.0144848965165" lon="13.19656235884307"><ele>1349.75</ele><time>2026-04-24T13:04:42.999Z</time></trkpt><trkpt lat="42.01453048807349" lon="13.196431242163408"><ele>1351.5</ele><time>2026-04-24T13:04:43.999Z</time></trkpt><trkpt lat="42.0145920154171" lon="13.196302134639826"><ele>1353.25</ele><time>2026-04-24T13:04:44.999Z</time></trkpt><trkpt lat="42.01467160230745" lon="13.196176736236563"><ele>1355.0</ele><time>2026-04-24T13:04:45.999Z</time></trkpt><trkpt lat="42.01477389603354" lon="13.196058499134308"><ele>1355.0</ele><time>2026-04-24T13:04:46.999Z</time></trkpt><trkpt lat="42.01489432217345" lon="13.19593390702273"><ele>1355.0</ele><time>2026-04-24T13:04:47.999Z</time></trkpt><trkpt lat="42.01500993160066" lon="13.195800896281206"><ele>1355.0</ele><time>2026-04-24T13:04:48.999Z</time></trkpt><trkpt lat="42.01511759630387" lon="13.195666072154495"><ele>1350.5</ele><time>2026-04-24T13:04:49.999Z</time></trkpt><trkpt lat="42.01522297950177" lon="13.195518024974188"><ele>1346.0</ele><time>2026-04-24T13:04:50.999Z</time></trkpt><trkpt lat="42.01531782380784" lon="13.195365809791639"><ele>1341.5</ele><time>2026-04-24T13:04:51.999Z</time></trkpt><trkpt lat="42.015410421618206" lon="13.195237422913896"><ele>1337.0</ele><time>2026-04-24T13:04:52.999Z</time></trkpt><trkpt lat="42.015498741385805" lon="13.195113438135717"><ele>1337.0</ele><time>2026-04-24T13:04:53.999Z</time></trkpt><trkpt lat="42.01556970925285" lon="13.194997490082713"><ele>1337.0</ele><time>2026-04-24T13:04:54.999Z</time></trkpt><trkpt lat="42.01562186897155" lon="13.194879599743574"><ele>1337.0</ele><time>2026-04-24T13:04:55.999Z</time></trkpt><trkpt lat="42.015678374501405" lon="13.19475158170153"><ele>1337.0</ele><time>2026-04-24T13:04:56.999Z</time></trkpt><trkpt lat="42.01573204174475" lon="13.19460453067643"><ele>1337.0</ele><time>2026-04-24T13:04:57.999Z</time></trkpt><trkpt lat="42.01577703357503" lon="13.194455411945722"><ele>1336.1999999999998</ele><time>2026-04-24T13:04:58.999Z</time></trkpt><trkpt lat="42.01581575064684" lon="13.194317461381154"><ele>1335.4</ele><time>2026-04-24T13:04:59.999Z</time></trkpt><trkpt lat="42.0158444661003" lon="13.194188382053785"><ele>1334.6</ele><time>2026-04-24T13:05:00.999Z</time></trkpt><trkpt lat="42.01587265195051" lon="13.194076824176188"><ele>1333.8000000000002</ele><time>2026-04-24T13:05:01.999Z</time></trkpt><trkpt lat="42.01590726401984" lon="13.193975015699847"><ele>1333.0</ele><time>2026-04-24T13:05:02.999Z</time></trkpt><trkpt lat="42.0159426338408" lon="13.193872422470706"><ele>1333.0</ele><time>2026-04-24T13:05:03.999Z</time></trkpt><trkpt lat="42.01601779031052" lon="13.193762218336575"><ele>1333.0</ele><time>2026-04-24T13:05:04.999Z</time></trkpt><trkpt lat="42.01609784110206" lon="13.19363317908879"><ele>1333.0</ele><time>2026-04-24T13:05:05.999Z</time></trkpt><trkpt lat="42.01615214078604" lon="13.19348949736043"><ele>1333.0</ele><time>2026-04-24T13:05:06.999Z</time></trkpt><trkpt lat="42.01619701474359" lon="13.1933557697206"><ele>1333.0</ele><time>2026-04-24T13:05:07.999Z</time></trkpt><trkpt lat="42.01624562964428" lon="13.19322431434066"><ele>1333.0</ele><time>2026-04-24T13:05:08.999Z</time></trkpt><trkpt lat="42.01629222763681" lon="13.193124387900678"><ele>1333.0</ele><time>2026-04-24T13:05:09.999Z</time></trkpt><trkpt lat="42.016342185968306" lon="13.193029514852281"><ele>1333.0</ele><time>2026-04-24T13:05:10.999Z</time></trkpt><trkpt lat="42.01640894644221" lon="13.192945230958584"><ele>1333.0</ele><time>2026-04-24T13:05:11.999Z</time></trkpt><trkpt lat="42.01649902545855" lon="13.192878544254162"><ele>1334.4</ele><time>2026-04-24T13:05:12.999Z</time></trkpt><trkpt lat="42.01659998959405" lon="13.192834179975701"><ele>1335.8000000000002</ele><time>2026-04-24T13:05:13.999Z</time></trkpt><trkpt lat="42.016705332694805" lon="13.192790839114135"><ele>1337.2</ele><time>2026-04-24T13:05:14.999Z</time></trkpt><trkpt lat="42.01680416679738" lon="13.192736189992116"><ele>1338.6</ele><time>2026-04-24T13:05:16Z</time></trkpt><trkpt lat="42.01691312778789" lon="13.192662943637377"><ele>1340.0</ele><time>2026-04-24T13:05:17Z</time></trkpt><trkpt lat="42.0170013733553" lon="13.19259661263581"><ele>1337.6</ele><time>2026-04-24T13:05:18Z</time></trkpt><trkpt lat="42.017083594107056" lon="13.192526904771391"><ele>1335.2</ele><time>2026-04-24T13:05:19Z</time></trkpt><trkpt lat="42.017167192999295" lon="13.19243982498299"><ele>1332.8000000000002</ele><time>2026-04-24T13:05:20Z</time></trkpt><trkpt lat="42.017245204932614" lon="13.192346835266088"><ele>1330.4</ele><time>2026-04-24T13:05:21Z</time></trkpt><trkpt lat="42.017314690608934" lon="13.192252415761015"><ele>1328.0</ele><time>2026-04-24T13:05:22Z</time></trkpt><trkpt lat="42.017365218808834" lon="13.192155868280809"><ele>1328.0</ele><time>2026-04-24T13:05:23Z</time></trkpt><trkpt lat="42.01740413511211" lon="13.192045380610258"><ele>1328.0</ele><time>2026-04-24T13:05:24Z</time></trkpt><trkpt lat="42.017430921229796" lon="13.191927755135955"><ele>1328.0</ele><time>2026-04-24T13:05:25Z</time></trkpt><trkpt lat="42.017452323653046" lon="13.19181171633638"><ele>1328.0</ele><time>2026-04-24T13:05:26Z</time></trkpt><trkpt lat="42.01747187753505" lon="13.1916804197916"><ele>1328.0</ele><time>2026-04-24T13:05:27Z</time></trkpt><trkpt lat="42.01750141919891" lon="13.191541872561832"><ele>1326.75</ele><time>2026-04-24T13:05:28Z</time></trkpt><trkpt lat="42.017534332217586" lon="13.19138728039552"><ele>1325.5</ele><time>2026-04-24T13:05:29Z</time></trkpt><trkpt lat="42.0175737451238" lon="13.191222095146985"><ele>1324.25</ele><time>2026-04-24T13:05:30Z</time></trkpt><trkpt lat="42.017633186474214" lon="13.191071145929751"><ele>1323.0</ele><time>2026-04-24T13:05:31Z</time></trkpt><trkpt lat="42.01770660472614" lon="13.1909140089809"><ele>1323.0</ele><time>2026-04-24T13:05:32Z</time></trkpt><trkpt lat="42.017774773971716" lon="13.19076212996553"><ele>1323.0</ele><time>2026-04-24T13:05:33Z</time></trkpt><trkpt lat="42.01784090503307" lon="13.190602590665758"><ele>1323.0</ele><time>2026-04-24T13:05:34Z</time></trkpt><trkpt lat="42.01789418422635" lon="13.190435440201837"><ele>1323.0</ele><time>2026-04-24T13:05:35Z</time></trkpt><trkpt lat="42.017956181036446" lon="13.190273594575459"><ele>1324.0</ele><time>2026-04-24T13:05:36Z</time></trkpt><trkpt lat="42.01801230903022" lon="13.190124876071259"><ele>1325.0</ele><time>2026-04-24T13:05:37Z</time></trkpt><trkpt lat="42.01806833818818" lon="13.189981560093393"><ele>1326.0</ele><time>2026-04-24T13:05:38Z</time></trkpt><trkpt lat="42.01811965086798" lon="13.1898528811002"><ele>1327.0</ele><time>2026-04-24T13:05:39Z</time></trkpt><trkpt lat="42.018168945904634" lon="13.18972850258295"><ele>1328.6</ele><time>2026-04-24T13:05:40Z</time></trkpt><trkpt lat="42.01821126411048" lon="13.189598039639547"><ele>1330.1999999999998</ele><time>2026-04-24T13:05:41Z</time></trkpt><trkpt lat="42.01823831506526" lon="13.189469833515936"><ele>1331.8</ele><time>2026-04-24T13:05:42Z</time></trkpt><trkpt lat="42.018257198904145" lon="13.18932491116906"><ele>1333.4</ele><time>2026-04-24T13:05:43Z</time></trkpt><trkpt lat="42.0182835849989" lon="13.189175386763472"><ele>1335.0</ele><time>2026-04-24T13:05:44Z</time></trkpt><trkpt lat="42.0183049818476" lon="13.18906618628662"><ele>1337.25</ele><time>2026-04-24T13:05:45Z</time></trkpt><trkpt lat="42.01829815681712" lon="13.188908463340383"><ele>1339.5</ele><time>2026-04-24T13:05:47Z</time></trkpt><trkpt lat="42.01835310458298" lon="13.188725091119203"><ele>1341.75</ele><time>2026-04-24T13:05:49Z</time></trkpt><trkpt lat="42.018400080664634" lon="13.188588782349836"><ele>1344.0</ele><time>2026-04-24T13:05:50Z</time></trkpt><trkpt lat="42.01845161895482" lon="13.18843440486984"><ele>1340.5</ele><time>2026-04-24T13:05:51Z</time></trkpt><trkpt lat="42.018500364675425" lon="13.188309563770419"><ele>1337.0</ele><time>2026-04-24T13:05:52Z</time></trkpt><trkpt lat="42.01856093878931" lon="13.188202249668096"><ele>1333.5</ele><time>2026-04-24T13:05:53Z</time></trkpt><trkpt lat="42.018646342968424" lon="13.188080615441248"><ele>1330.0</ele><time>2026-04-24T13:05:54Z</time></trkpt><trkpt lat="42.018738578381395" lon="13.187955590060833"><ele>1330.0</ele><time>2026-04-24T13:05:55Z</time></trkpt><trkpt lat="42.018814911441766" lon="13.187810260716612"><ele>1330.0</ele><time>2026-04-24T13:05:56Z</time></trkpt><trkpt lat="42.01888007077992" lon="13.187657339182628"><ele>1330.0</ele><time>2026-04-24T13:05:57Z</time></trkpt><trkpt lat="42.01892931901905" lon="13.187523807840265"><ele>1330.0</ele><time>2026-04-24T13:05:58Z</time></trkpt><trkpt lat="42.01896997010658" lon="13.187393584793746"><ele>1328.75</ele><time>2026-04-24T13:05:59Z</time></trkpt><trkpt lat="42.01901239672696" lon="13.187266520640444"><ele>1327.5</ele><time>2026-04-24T13:06:00Z</time></trkpt><trkpt lat="42.01906230272935" lon="13.187152245910347"><ele>1326.25</ele><time>2026-04-24T13:06:01Z</time></trkpt><trkpt lat="42.01914586514169" lon="13.187033767333617"><ele>1325.0</ele><time>2026-04-24T13:06:02Z</time></trkpt><trkpt lat="42.019246036448024" lon="13.186911670757256"><ele>1325.0</ele><time>2026-04-24T13:06:02.999Z</time></trkpt><trkpt lat="42.01934854040253" lon="13.186795752478092"><ele>1325.0</ele><time>2026-04-24T13:06:03.999Z</time></trkpt><trkpt lat="42.01943351879188" lon="13.186683437353624"><ele>1325.0</ele><time>2026-04-24T13:06:04.999Z</time></trkpt><trkpt lat="42.019497592646175" lon="13.186541053493599"><ele>1325.0</ele><time>2026-04-24T13:06:05.999Z</time></trkpt><trkpt lat="42.01957128593553" lon="13.186379089522749"><ele>1326.5</ele><time>2026-04-24T13:06:06.999Z</time></trkpt><trkpt lat="42.01964181824001" lon="13.186211156877874"><ele>1328.0</ele><time>2026-04-24T13:06:07.999Z</time></trkpt><trkpt lat="42.019704867273035" lon="13.186036657397828"><ele>1329.5</ele><time>2026-04-24T13:06:08.999Z</time></trkpt><trkpt lat="42.019754540626515" lon="13.185848272280754"><ele>1331.0</ele><time>2026-04-24T13:06:09.999Z</time></trkpt><trkpt lat="42.019805943895555" lon="13.185639893813134"><ele>1331.3333333333335</ele><time>2026-04-24T13:06:10.999Z</time></trkpt><trkpt lat="42.01985201472432" lon="13.185426247548698"><ele>1331.6666666666667</ele><time>2026-04-24T13:06:11.999Z</time></trkpt><trkpt lat="42.01990979443899" lon="13.185225193070675"><ele>1332.0</ele><time>2026-04-24T13:06:12.999Z</time></trkpt><trkpt lat="42.01998362295709" lon="13.185019174413672"><ele>1334.0</ele><time>2026-04-24T13:06:13.999Z</time></trkpt><trkpt lat="42.02006395946067" lon="13.184812143447973"><ele>1336.0</ele><time>2026-04-24T13:06:14.999Z</time></trkpt><trkpt lat="42.02014081791227" lon="13.184617119687235"><ele>1338.0</ele><time>2026-04-24T13:06:15.999Z</time></trkpt><trkpt lat="42.02021487192764" lon="13.184413197427844"><ele>1338.0</ele><time>2026-04-24T13:06:16.999Z</time></trkpt><trkpt lat="42.020285315711924" lon="13.184203242545225"><ele>1338.0</ele><time>2026-04-24T13:06:17.999Z</time></trkpt><trkpt lat="42.0203450685635" lon="13.18400393872126"><ele>1338.0</ele><time>2026-04-24T13:06:18.999Z</time></trkpt><trkpt lat="42.02042367358931" lon="13.183811627301912"><ele>1341.25</ele><time>2026-04-24T13:06:19.999Z</time></trkpt><trkpt lat="42.02051380495566" lon="13.18363589288459"><ele>1344.5</ele><time>2026-04-24T13:06:20.999Z</time></trkpt><trkpt lat="42.020582982467644" lon="13.183481079069823"><ele>1347.75</ele><time>2026-04-24T13:06:21.999Z</time></trkpt><trkpt lat="42.02063571179052" lon="13.1833159849788"><ele>1351.0</ele><time>2026-04-24T13:06:22.999Z</time></trkpt><trkpt lat="42.020684171036706" lon="13.18309361662583"><ele>1353.6666666666665</ele><time>2026-04-24T13:06:23.999Z</time></trkpt><trkpt lat="42.02073356192976" lon="13.182865839289533"><ele>1356.3333333333333</ele><time>2026-04-24T13:06:24.999Z</time></trkpt><trkpt lat="42.02080600112508" lon="13.182638041372305"><ele>1359.0</ele><time>2026-04-24T13:06:25.999Z</time></trkpt><trkpt lat="42.020888840386114" lon="13.18240729592719"><ele>1357.3333333333333</ele><time>2026-04-24T13:06:26.999Z</time></trkpt><trkpt lat="42.020962730760544" lon="13.182205554517829"><ele>1355.6666666666665</ele><time>2026-04-24T13:06:27.999Z</time></trkpt><trkpt lat="42.021032205522495" lon="13.182004172359287"><ele>1354.0</ele><time>2026-04-24T13:06:28.999Z</time></trkpt><trkpt lat="42.02110224361282" lon="13.181812380892717"><ele>1354.0</ele><time>2026-04-24T13:06:29.999Z</time></trkpt><trkpt lat="42.02116767401968" lon="13.181626911124432"><ele>1354.0</ele><time>2026-04-24T13:06:30.999Z</time></trkpt><trkpt lat="42.02123170218689" lon="13.181410421180832"><ele>1354.0</ele><time>2026-04-24T13:06:31.999Z</time></trkpt><trkpt lat="42.02128805103316" lon="13.181195164820089"><ele>1355.0</ele><time>2026-04-24T13:06:32.999Z</time></trkpt><trkpt lat="42.021340586193105" lon="13.180959372508466"><ele>1356.0</ele><time>2026-04-24T13:06:33.999Z</time></trkpt><trkpt lat="42.02138883006797" lon="13.180732056143142"><ele>1357.0</ele><time>2026-04-24T13:06:34.999Z</time></trkpt><trkpt lat="42.021429021557" lon="13.180496343618683"><ele>1359.25</ele><time>2026-04-24T13:06:35.999Z</time></trkpt><trkpt lat="42.02146443700024" lon="13.180276198258381"><ele>1361.5</ele><time>2026-04-24T13:06:36.999Z</time></trkpt><trkpt lat="42.02149923084886" lon="13.180079711407416"><ele>1363.75</ele><time>2026-04-24T13:06:37.999Z</time></trkpt><trkpt lat="42.0215371323529" lon="13.17991188246406"><ele>1366.0</ele><time>2026-04-24T13:06:38.999Z</time></trkpt><trkpt lat="42.02159478924559" lon="13.179769790797245"><ele>1366.25</ele><time>2026-04-24T13:06:39.999Z</time></trkpt><trkpt lat="42.021642708269084" lon="13.179614953270242"><ele>1366.5</ele><time>2026-04-24T13:06:40.999Z</time></trkpt><trkpt lat="42.021725066091584" lon="13.179465289436376"><ele>1366.75</ele><time>2026-04-24T13:06:41.999Z</time></trkpt><trkpt lat="42.02182522175432" lon="13.179297125034143"><ele>1367.0</ele><time>2026-04-24T13:06:42.999Z</time></trkpt><trkpt lat="42.02193521702288" lon="13.179092581751037"><ele>1362.3333333333335</ele><time>2026-04-24T13:06:43.999Z</time></trkpt><trkpt lat="42.022040529538906" lon="13.178892870070872"><ele>1357.6666666666667</ele><time>2026-04-24T13:06:44.999Z</time></trkpt><trkpt lat="42.0221659657019" lon="13.178674758611782"><ele>1353.0</ele><time>2026-04-24T13:06:45.999Z</time></trkpt><trkpt lat="42.02227701814969" lon="13.178492569014754"><ele>1353.0</ele><time>2026-04-24T13:06:46.999Z</time></trkpt><trkpt lat="42.02239778003487" lon="13.178301319190872"><ele>1353.0</ele><time>2026-04-24T13:06:47.999Z</time></trkpt><trkpt lat="42.02251689502025" lon="13.178114067039902"><ele>1353.0</ele><time>2026-04-24T13:06:48.999Z</time></trkpt><trkpt lat="42.02261897591725" lon="13.177931983699793"><ele>1353.3333333333333</ele><time>2026-04-24T13:06:49.999Z</time></trkpt><trkpt lat="42.0227105776684" lon="13.17773565589267"><ele>1353.6666666666665</ele><time>2026-04-24T13:06:50.999Z</time></trkpt><trkpt lat="42.022800646891696" lon="13.177529168811194"><ele>1354.0</ele><time>2026-04-24T13:06:51.999Z</time></trkpt><trkpt lat="42.02288065899646" lon="13.177313237500794"><ele>1355.0</ele><time>2026-04-24T13:06:52.999Z</time></trkpt><trkpt lat="42.02294669118024" lon="13.177116056642237"><ele>1356.0</ele><time>2026-04-24T13:06:53.999Z</time></trkpt><trkpt lat="42.023009637247476" lon="13.176947470756446"><ele>1357.0</ele><time>2026-04-24T13:06:54.999Z</time></trkpt><trkpt lat="42.02306766439023" lon="13.176799105782726"><ele>1358.0</ele><time>2026-04-24T13:06:55.999Z</time></trkpt><trkpt lat="42.02313242194487" lon="13.176673211469755"><ele>1358.0</ele><time>2026-04-24T13:06:56.999Z</time></trkpt><trkpt lat="42.02320061991715" lon="13.176572972933842"><ele>1358.0</ele><time>2026-04-24T13:06:57.999Z</time></trkpt><trkpt lat="42.02328288552496" lon="13.176451440481284"><ele>1358.0</ele><time>2026-04-24T13:06:58.999Z</time></trkpt><trkpt lat="42.023368738189355" lon="13.176328056665975"><ele>1358.0</ele><time>2026-04-24T13:06:59.999Z</time></trkpt><trkpt lat="42.023458139431995" lon="13.176209742178173"><ele>1354.4</ele><time>2026-04-24T13:07:00.999Z</time></trkpt><trkpt lat="42.02354587991464" lon="13.17610525209168"><ele>1350.8000000000002</ele><time>2026-04-24T13:07:01.999Z</time></trkpt><trkpt lat="42.023624596935875" lon="13.176001174876514"><ele>1347.2</ele><time>2026-04-24T13:07:02.999Z</time></trkpt><trkpt lat="42.02370768340996" lon="13.175902300462415"><ele>1343.6</ele><time>2026-04-24T13:07:03.999Z</time></trkpt><trkpt lat="42.023789914444436" lon="13.175804069189908"><ele>1340.0</ele><time>2026-04-24T13:07:04.999Z</time></trkpt><trkpt lat="42.02385036432976" lon="13.175728030301327"><ele>1339.2</ele><time>2026-04-24T13:07:05.999Z</time></trkpt><trkpt lat="42.0239421878801" lon="13.17563042870875"><ele>1338.4</ele><time>2026-04-24T13:07:07.999Z</time></trkpt><trkpt lat="42.02399996056678" lon="13.175590354573961"><ele>1337.6</ele><time>2026-04-24T13:07:08.999Z</time></trkpt><trkpt lat="42.02409240184806" lon="13.17550676543137"><ele>1336.8</ele><time>2026-04-24T13:07:10.999Z</time></trkpt><trkpt lat="42.024157991078475" lon="13.175387131281894"><ele>1336.0</ele><time>2026-04-24T13:07:12.999Z</time></trkpt><trkpt lat="42.0242105883455" lon="13.175269996668856"><ele>1336.0</ele><time>2026-04-24T13:07:14.999Z</time></trkpt><trkpt lat="42.0242789035248" lon="13.175140465388946"><ele>1336.0</ele><time>2026-04-24T13:07:16.999Z</time></trkpt><trkpt lat="42.02434809390165" lon="13.17502952571913"><ele>1336.0</ele><time>2026-04-24T13:07:18.999Z</time></trkpt><trkpt lat="42.02441506145597" lon="13.174904451778824"><ele>1336.0</ele><time>2026-04-24T13:07:20.999Z</time></trkpt><trkpt lat="42.02446892341765" lon="13.174852254083236"><ele>1336.0</ele><time>2026-04-24T13:07:22Z</time></trkpt><trkpt lat="42.02452347200647" lon="13.174795176195472"><ele>1336.0</ele><time>2026-04-24T13:07:23Z</time></trkpt><trkpt lat="42.02459857454983" lon="13.174686572573064"><ele>1336.0</ele><time>2026-04-24T13:07:25Z</time></trkpt><trkpt lat="42.02464636373047" lon="13.17457493696061"><ele>1336.0</ele><time>2026-04-24T13:07:27Z</time></trkpt><trkpt lat="42.024684630884025" lon="13.174458228352112"><ele>1336.0</ele><time>2026-04-24T13:07:29Z</time></trkpt><trkpt lat="42.02475889094781" lon="13.174362152514"><ele>1336.0</ele><time>2026-04-24T13:07:31Z</time></trkpt><trkpt lat="42.02485108838554" lon="13.174265164417957"><ele>1336.0</ele><time>2026-04-24T13:07:33Z</time></trkpt><trkpt lat="42.024906507361514" lon="13.174205569245052"><ele>1336.0</ele><time>2026-04-24T13:07:34Z</time></trkpt><trkpt lat="42.024949372750605" lon="13.174130471825253"><ele>1336.0</ele><time>2026-04-24T13:07:35Z</time></trkpt><trkpt lat="42.02499442573036" lon="13.174041353797673"><ele>1336.0</ele><time>2026-04-24T13:07:36Z</time></trkpt><trkpt lat="42.02505562698386" lon="13.173951894437785"><ele>1336.0</ele><time>2026-04-24T13:07:37Z</time></trkpt><trkpt lat="42.02511501442235" lon="13.173884582804845"><ele>1336.0</ele><time>2026-04-24T13:07:38Z</time></trkpt><trkpt lat="42.025176454301814" lon="13.173814314931208"><ele>1334.4285714285713</ele><time>2026-04-24T13:07:39Z</time></trkpt><trkpt lat="42.0252362639261" lon="13.173751362242983"><ele>1332.857142857143</ele><time>2026-04-24T13:07:40Z</time></trkpt><trkpt lat="42.02529015151296" lon="13.173664338723052"><ele>1331.2857142857142</ele><time>2026-04-24T13:07:41Z</time></trkpt><trkpt lat="42.0253309433064" lon="13.173574367882532"><ele>1329.7142857142858</ele><time>2026-04-24T13:07:42Z</time></trkpt><trkpt lat="42.02537278390095" lon="13.173502344233285"><ele>1328.142857142857</ele><time>2026-04-24T13:07:43Z</time></trkpt><trkpt lat="42.02542369989949" lon="13.17343227441391"><ele>1326.5714285714287</ele><time>2026-04-24T13:07:44Z</time></trkpt><trkpt lat="42.02547072159596" lon="13.173371228362408"><ele>1325.0</ele><time>2026-04-24T13:07:45Z</time></trkpt><trkpt lat="42.02550841782507" lon="13.173294246648963"><ele>1325.0</ele><time>2026-04-24T13:07:46Z</time></trkpt><trkpt lat="42.02553524597092" lon="13.173200952907"><ele>1325.0</ele><time>2026-04-24T13:07:47Z</time></trkpt><trkpt lat="42.025542068805585" lon="13.17311138370268"><ele>1325.0</ele><time>2026-04-24T13:07:48Z</time></trkpt><trkpt lat="42.02554670162837" lon="13.17298529135951"><ele>1325.0</ele><time>2026-04-24T13:07:49Z</time></trkpt><trkpt lat="42.02556453234041" lon="13.172874599622594"><ele>1325.0</ele><time>2026-04-24T13:07:50Z</time></trkpt><trkpt lat="42.025603394673304" lon="13.172802546723348"><ele>1325.0</ele><time>2026-04-24T13:07:51Z</time></trkpt><trkpt lat="42.02567241222712" lon="13.172694190736292"><ele>1325.0</ele><time>2026-04-24T13:07:52Z</time></trkpt><trkpt lat="42.02571608307854" lon="13.172566267612003"><ele>1325.0</ele><time>2026-04-24T13:07:53Z</time></trkpt><trkpt lat="42.02576868052244" lon="13.172444931047014"><ele>1325.0</ele><time>2026-04-24T13:07:54Z</time></trkpt><trkpt lat="42.02581903192102" lon="13.172338241538231"><ele>1325.0</ele><time>2026-04-24T13:07:55Z</time></trkpt><trkpt lat="42.02585383925735" lon="13.172242537207167"><ele>1325.0</ele><time>2026-04-24T13:07:56Z</time></trkpt><trkpt lat="42.02588407733018" lon="13.172146141887593"><ele>1322.5</ele><time>2026-04-24T13:07:57Z</time></trkpt><trkpt lat="42.025914623962535" lon="13.172049227513314"><ele>1320.0</ele><time>2026-04-24T13:07:58Z</time></trkpt><trkpt lat="42.02593502772917" lon="13.171963209919703"><ele>1317.5</ele><time>2026-04-24T13:07:58.999Z</time></trkpt><trkpt lat="42.025963905667425" lon="13.171857458750404"><ele>1315.0</ele><time>2026-04-24T13:07:59.999Z</time></trkpt><trkpt lat="42.02598106147363" lon="13.1717528342244"><ele>1312.5</ele><time>2026-04-24T13:08:00.999Z</time></trkpt><trkpt lat="42.02600918738742" lon="13.171612388198408"><ele>1310.0</ele><time>2026-04-24T13:08:02.999Z</time></trkpt><trkpt lat="42.02609058823113" lon="13.171400398988405"><ele>1309.5</ele><time>2026-04-24T13:08:04.999Z</time></trkpt><trkpt lat="42.02613863836931" lon="13.171304621997974"><ele>1309.0</ele><time>2026-04-24T13:08:05.999Z</time></trkpt><trkpt lat="42.02619812040193" lon="13.17121402423883"><ele>1308.5</ele><time>2026-04-24T13:08:06.999Z</time></trkpt><trkpt lat="42.02624682441484" lon="13.171124177350713"><ele>1308.0</ele><time>2026-04-24T13:08:07.999Z</time></trkpt><trkpt lat="42.026288351106" lon="13.171011848254716"><ele>1307.5</ele><time>2026-04-24T13:08:08.999Z</time></trkpt><trkpt lat="42.026325540969644" lon="13.170911055441618"><ele>1307.0</ele><time>2026-04-24T13:08:09.999Z</time></trkpt><trkpt lat="42.02635121700242" lon="13.170816831126244"><ele>1307.0</ele><time>2026-04-24T13:08:10.999Z</time></trkpt><trkpt lat="42.02639121250999" lon="13.170714384776575"><ele>1307.0</ele><time>2026-04-24T13:08:11.999Z</time></trkpt><trkpt lat="42.0264426033434" lon="13.170613422847643"><ele>1307.0</ele><time>2026-04-24T13:08:12.999Z</time></trkpt><trkpt lat="42.0264967671631" lon="13.170514947654583"><ele>1307.0</ele><time>2026-04-24T13:08:13.999Z</time></trkpt><trkpt lat="42.02656213807877" lon="13.170415942144851"><ele>1307.0</ele><time>2026-04-24T13:08:14.999Z</time></trkpt><trkpt lat="42.026628715393265" lon="13.170333651666287"><ele>1307.1999999999998</ele><time>2026-04-24T13:08:15.999Z</time></trkpt><trkpt lat="42.02669740638971" lon="13.17023956771906"><ele>1307.4</ele><time>2026-04-24T13:08:16.999Z</time></trkpt><trkpt lat="42.02675738293938" lon="13.17013237117043"><ele>1307.6</ele><time>2026-04-24T13:08:17.999Z</time></trkpt><trkpt lat="42.0268142058641" lon="13.170040592035974"><ele>1307.8000000000002</ele><time>2026-04-24T13:08:18.999Z</time></trkpt><trkpt lat="42.02688864668064" lon="13.16995506383675"><ele>1308.0</ele><time>2026-04-24T13:08:19.999Z</time></trkpt><trkpt lat="42.026952808465126" lon="13.16984213554476"><ele>1308.0</ele><time>2026-04-24T13:08:20.999Z</time></trkpt><trkpt lat="42.027020088519734" lon="13.169736648325124"><ele>1308.0</ele><time>2026-04-24T13:08:21.999Z</time></trkpt><trkpt lat="42.02709166785192" lon="13.169623250320935"><ele>1308.0</ele><time>2026-04-24T13:08:22.999Z</time></trkpt><trkpt lat="42.027164800331676" lon="13.169522846492207"><ele>1308.0</ele><time>2026-04-24T13:08:23.999Z</time></trkpt><trkpt lat="42.027239037828096" lon="13.169439189078032"><ele>1308.0</ele><time>2026-04-24T13:08:24.999Z</time></trkpt><trkpt lat="42.02732612230557" lon="13.169329147274267"><ele>1308.0</ele><time>2026-04-24T13:08:25.999Z</time></trkpt><trkpt lat="42.027406675663705" lon="13.169221359231758"><ele>1308.0</ele><time>2026-04-24T13:08:26.999Z</time></trkpt><trkpt lat="42.027470084503975" lon="13.169135175122966"><ele>1308.0</ele><time>2026-04-24T13:08:27.999Z</time></trkpt><trkpt lat="42.02754044538435" lon="13.169026186999425"><ele>1308.0</ele><time>2026-04-24T13:08:28.999Z</time></trkpt><trkpt lat="42.0276091573259" lon="13.168917121328699"><ele>1308.0</ele><time>2026-04-24T13:08:29.999Z</time></trkpt><trkpt lat="42.02767328630391" lon="13.168799611731401"><ele>1306.5</ele><time>2026-04-24T13:08:30.999Z</time></trkpt><trkpt lat="42.02773341678455" lon="13.168671556626574"><ele>1305.0</ele><time>2026-04-24T13:08:31.999Z</time></trkpt><trkpt lat="42.027824463804485" lon="13.168525213916498"><ele>1303.5</ele><time>2026-04-24T13:08:32.999Z</time></trkpt><trkpt lat="42.02792287721627" lon="13.168375660877198"><ele>1302.0</ele><time>2026-04-24T13:08:33.999Z</time></trkpt><trkpt lat="42.02802107711878" lon="13.168227681584494"><ele>1302.0</ele><time>2026-04-24T13:08:34.999Z</time></trkpt><trkpt lat="42.028089980886435" lon="13.16811251238695"><ele>1302.0</ele><time>2026-04-24T13:08:35.999Z</time></trkpt><trkpt lat="42.02814762908974" lon="13.16802020108195"><ele>1302.0</ele><time>2026-04-24T13:08:36.999Z</time></trkpt><trkpt lat="42.028195365303375" lon="13.167920572866109"><ele>1302.0</ele><time>2026-04-24T13:08:37.999Z</time></trkpt><trkpt lat="42.02829540909984" lon="13.167747056226807"><ele>1301.6</ele><time>2026-04-24T13:08:38.999Z</time></trkpt><trkpt lat="42.028355684873716" lon="13.167617216760679"><ele>1301.1999999999998</ele><time>2026-04-24T13:08:39.999Z</time></trkpt><trkpt lat="42.028411613251286" lon="13.167484329352135"><ele>1300.8</ele><time>2026-04-24T13:08:40.999Z</time></trkpt><trkpt lat="42.028471393679574" lon="13.167360381972644"><ele>1300.4</ele><time>2026-04-24T13:08:41.999Z</time></trkpt><trkpt lat="42.02854078467483" lon="13.167248959020476"><ele>1300.0</ele><time>2026-04-24T13:08:42.999Z</time></trkpt><trkpt lat="42.02859359982214" lon="13.167150558257056"><ele>1300.0</ele><time>2026-04-24T13:08:43.999Z</time></trkpt><trkpt lat="42.02864981957307" lon="13.167041110507078"><ele>1300.0</ele><time>2026-04-24T13:08:44.999Z</time></trkpt><trkpt lat="42.02870086244931" lon="13.16691310634992"><ele>1300.0</ele><time>2026-04-24T13:08:45.999Z</time></trkpt><trkpt lat="42.028748944804306" lon="13.16677762754101"><ele>1300.0</ele><time>2026-04-24T13:08:46.999Z</time></trkpt><trkpt lat="42.02879548099102" lon="13.166625752023194"><ele>1300.0</ele><time>2026-04-24T13:08:47.999Z</time></trkpt><trkpt lat="42.02883691662521" lon="13.166455368342028"><ele>1300.25</ele><time>2026-04-24T13:08:48.999Z</time></trkpt><trkpt lat="42.028877504790444" lon="13.166287682261238"><ele>1300.5</ele><time>2026-04-24T13:08:49.999Z</time></trkpt><trkpt lat="42.02892448245707" lon="13.16613391159717"><ele>1300.75</ele><time>2026-04-24T13:08:50.999Z</time></trkpt><trkpt lat="42.0289592103045" lon="13.165985933153323"><ele>1301.0</ele><time>2026-04-24T13:08:51.999Z</time></trkpt><trkpt lat="42.028990790599906" lon="13.165844026642356"><ele>1301.0</ele><time>2026-04-24T13:08:52.999Z</time></trkpt><trkpt lat="42.029005183861074" lon="13.165702084998742"><ele>1301.0</ele><time>2026-04-24T13:08:53.999Z</time></trkpt><trkpt lat="42.02900012655477" lon="13.165571253316825"><ele>1301.0</ele><time>2026-04-24T13:08:54.999Z</time></trkpt><trkpt lat="42.02901091292081" lon="13.165450254835624"><ele>1301.0</ele><time>2026-04-24T13:08:55.999Z</time></trkpt><trkpt lat="42.0290475446837" lon="13.165345280125656"><ele>1301.0</ele><time>2026-04-24T13:08:56.999Z</time></trkpt><trkpt lat="42.029115392795276" lon="13.16522576598735"><ele>1299.75</ele><time>2026-04-24T13:08:57.999Z</time></trkpt><trkpt lat="42.029203411581044" lon="13.165111380229435"><ele>1298.5</ele><time>2026-04-24T13:08:58.999Z</time></trkpt><trkpt lat="42.029307033833476" lon="13.164983520203654"><ele>1297.25</ele><time>2026-04-24T13:08:59.999Z</time></trkpt><trkpt lat="42.029410546126535" lon="13.164830349058747"><ele>1296.0</ele><time>2026-04-24T13:09:00.999Z</time></trkpt><trkpt lat="42.02952503669907" lon="13.164711238836828"><ele>1296.0</ele><time>2026-04-24T13:09:01.999Z</time></trkpt><trkpt lat="42.02961505012968" lon="13.16459162763557"><ele>1296.0</ele><time>2026-04-24T13:09:02.999Z</time></trkpt><trkpt lat="42.02969989922928" lon="13.164479341731727"><ele>1296.0</ele><time>2026-04-24T13:09:03.999Z</time></trkpt><trkpt lat="42.02977396070239" lon="13.164348009679504"><ele>1296.0</ele><time>2026-04-24T13:09:04.999Z</time></trkpt><trkpt lat="42.02983673951181" lon="13.164224382622253"><ele>1296.0</ele><time>2026-04-24T13:09:05.999Z</time></trkpt><trkpt lat="42.02990945779237" lon="13.164075319229589"><ele>1296.0</ele><time>2026-04-24T13:09:06.999Z</time></trkpt><trkpt lat="42.030004537165304" lon="13.163946586168699"><ele>1296.0</ele><time>2026-04-24T13:09:07.999Z</time></trkpt><trkpt lat="42.03007672698951" lon="13.163813609073719"><ele>1296.0</ele><time>2026-04-24T13:09:08.999Z</time></trkpt><trkpt lat="42.03018225526122" lon="13.163735785546537"><ele>1293.75</ele><time>2026-04-24T13:09:09.999Z</time></trkpt><trkpt lat="42.030267062233094" lon="13.16360268411094"><ele>1291.5</ele><time>2026-04-24T13:09:10.999Z</time></trkpt><trkpt lat="42.030364186522455" lon="13.163465964112067"><ele>1289.25</ele><time>2026-04-24T13:09:11.999Z</time></trkpt><trkpt lat="42.0304547025176" lon="13.16334457557344"><ele>1287.0</ele><time>2026-04-24T13:09:12.999Z</time></trkpt><trkpt lat="42.030542839492355" lon="13.163241636655298"><ele>1285.3999999999999</ele><time>2026-04-24T13:09:13.999Z</time></trkpt><trkpt lat="42.030613902882024" lon="13.163129494489844"><ele>1283.8</ele><time>2026-04-24T13:09:14.999Z</time></trkpt><trkpt lat="42.0306583779927" lon="13.162989549366179"><ele>1282.2</ele><time>2026-04-24T13:09:15.999Z</time></trkpt><trkpt lat="42.03070629099365" lon="13.162866941436635"><ele>1280.6</ele><time>2026-04-24T13:09:16.999Z</time></trkpt><trkpt lat="42.03076861698543" lon="13.162757020208483"><ele>1279.0</ele><time>2026-04-24T13:09:17.999Z</time></trkpt><trkpt lat="42.030862723851854" lon="13.162686204634674"><ele>1279.0</ele><time>2026-04-24T13:09:18.999Z</time></trkpt><trkpt lat="42.03095965949806" lon="13.162602758316725"><ele>1279.0</ele><time>2026-04-24T13:09:19.999Z</time></trkpt><trkpt lat="42.031066133795434" lon="13.162480712591769"><ele>1279.0</ele><time>2026-04-24T13:09:20.999Z</time></trkpt><trkpt lat="42.03117828418086" lon="13.162385349117791"><ele>1279.0</ele><time>2026-04-24T13:09:21.999Z</time></trkpt><trkpt lat="42.03127049498506" lon="13.162279521909094"><ele>1282.75</ele><time>2026-04-24T13:09:22.999Z</time></trkpt><trkpt lat="42.0313622860492" lon="13.162190660088275"><ele>1286.5</ele><time>2026-04-24T13:09:23.999Z</time></trkpt><trkpt lat="42.03142766140449" lon="13.162065905183335"><ele>1290.25</ele><time>2026-04-24T13:09:24.999Z</time></trkpt><trkpt lat="42.03148898594841" lon="13.161938476583053"><ele>1294.0</ele><time>2026-04-24T13:09:25.999Z</time></trkpt><trkpt lat="42.03155487883952" lon="13.16181431152179"><ele>1294.0</ele><time>2026-04-24T13:09:26.999Z</time></trkpt><trkpt lat="42.03160338690109" lon="13.161691278432688"><ele>1294.0</ele><time>2026-04-24T13:09:28Z</time></trkpt><trkpt lat="42.031658176729785" lon="13.161564871913686"><ele>1294.0</ele><time>2026-04-24T13:09:29Z</time></trkpt><trkpt lat="42.03171327326039" lon="13.16142766827838"><ele>1294.0</ele><time>2026-04-24T13:09:30Z</time></trkpt><trkpt lat="42.03181876923133" lon="13.161301973319642"><ele>1465.0</ele><time>2026-04-24T13:09:31Z</time></trkpt><trkpt lat="42.00336250455214" lon="13.212889730298683"><ele>1465.0</ele><time>2026-04-24T13:01:18Z</time></trkpt><trkpt lat="42.003423406497475" lon="13.212787680611433"><ele>1465.0</ele><time>2026-04-24T13:01:19Z</time></trkpt><trkpt lat="42.00349417079522" lon="13.212681702032977"><ele>1465.0</ele><time>2026-04-24T13:01:20Z</time></trkpt><trkpt lat="42.00355997267596" lon="13.212569877600286"><ele>1465.0</ele><time>2026-04-24T13:01:21Z</time></trkpt><trkpt lat="42.00363196092647" lon="13.2124568740075"><ele>1465.0</ele><time>2026-04-24T13:01:22Z</time></trkpt><trkpt lat="42.003699774221815" lon="13.212350185210031"><ele>1466.8</ele><time>2026-04-24T13:01:23Z</time></trkpt><trkpt lat="42.00375912293157" lon="13.212244988833074"><ele>1468.6</ele><time>2026-04-24T13:01:24Z</time></trkpt><trkpt lat="42.003820116466024" lon="13.212142106239627"><ele>1470.4</ele><time>2026-04-24T13:01:25Z</time></trkpt><trkpt lat="42.003884685974164" lon="13.212043120144736"><ele>1472.2</ele><time>2026-04-24T13:01:26Z</time></trkpt><trkpt lat="42.003946061792035" lon="13.211946781708777"><ele>1474.0</ele><time>2026-04-24T13:01:27Z</time></trkpt><trkpt lat="42.00401187237534" lon="13.211861257649165"><ele>1474.0</ele><time>2026-04-24T13:01:28Z</time></trkpt><trkpt lat="42.004084840598715" lon="13.211766643884436"><ele>1474.0</ele><time>2026-04-24T13:01:29Z</time></trkpt><trkpt lat="42.00415225133511" lon="13.211667096997061"><ele>1474.0</ele><time>2026-04-24T13:01:30Z</time></trkpt><trkpt lat="42.00421912938888" lon="13.211566306498106"><ele>1474.0</ele><time>2026-04-24T13:01:31Z</time></trkpt><trkpt lat="42.00429437246451" lon="13.211470604340716"><ele>1474.0</ele><time>2026-04-24T13:01:32Z</time></trkpt><trkpt lat="42.00436248473892" lon="13.211379432238386"><ele>1474.1666666666665</ele><time>2026-04-24T13:01:33Z</time></trkpt><trkpt lat="42.004433428756705" lon="13.211302086405667"><ele>1474.3333333333333</ele><time>2026-04-24T13:01:34Z</time></trkpt><trkpt lat="42.0044962386822" lon="13.211222675874707"><ele>1474.5</ele><time>2026-04-24T13:01:35Z</time></trkpt><trkpt lat="42.00456093589532" lon="13.211145212922672"><ele>1474.6666666666667</ele><time>2026-04-24T13:01:36Z</time></trkpt><trkpt lat="42.00461129521323" lon="13.211076519635824"><ele>1474.8333333333335</ele><time>2026-04-24T13:01:37Z</time></trkpt><trkpt lat="42.00467021359229" lon="13.211007008512741"><ele>1475.0</ele><time>2026-04-24T13:01:38Z</time></trkpt><trkpt lat="42.004734244252646" lon="13.210896710997261"><ele>1475.0</ele><time>2026-04-24T13:01:39Z</time></trkpt><trkpt lat="42.00479857366828" lon="13.210815978492638"><ele>1475.0</ele><time>2026-04-24T13:01:40Z</time></trkpt><trkpt lat="42.00486679171201" lon="13.210750841529308"><ele>1475.0</ele><time>2026-04-24T13:01:41Z</time></trkpt><trkpt lat="42.00493332993245" lon="13.210702480258599"><ele>1475.0</ele><time>2026-04-24T13:01:42Z</time></trkpt><trkpt lat="42.00505763129563" lon="13.21065039797039"><ele>1475.0</ele><time>2026-04-24T13:01:44Z</time></trkpt><trkpt lat="42.005141561871156" lon="13.210616721996562"><ele>1474.6</ele><time>2026-04-24T13:01:45Z</time></trkpt><trkpt lat="42.00521390322183" lon="13.21057103611082"><ele>1474.2</ele><time>2026-04-24T13:01:46Z</time></trkpt><trkpt lat="42.00533103410114" lon="13.210544025084715"><ele>1473.8000000000002</ele><time>2026-04-24T13:01:47Z</time></trkpt><trkpt lat="42.005454055554644" lon="13.21053721283835"><ele>1473.4</ele><time>2026-04-24T13:01:48Z</time></trkpt><trkpt lat="42.005557711921284" lon="13.210541199890281"><ele>1473.0</ele><time>2026-04-24T13:01:49Z</time></trkpt><trkpt lat="42.0056463495972" lon="13.210557069227608"><ele>1473.0</ele><time>2026-04-24T13:01:50Z</time></trkpt><trkpt lat="42.00578878622623" lon="13.210514692623484"><ele>1473.0</ele><time>2026-04-24T13:01:51Z</time></trkpt><trkpt lat="42.00592368547506" lon="13.210464877038383"><ele>1473.0</ele><time>2026-04-24T13:01:52Z</time></trkpt><trkpt lat="42.00604613503716" lon="13.210383680178195"><ele>1473.0</ele><time>2026-04-24T13:01:53Z</time></trkpt><trkpt lat="42.00616661901214" lon="13.210295106288367"><ele>1465.0</ele><time>2026-04-24T13:01:54Z</time></trkpt><trkpt lat="42.0062837306104" lon="13.210200759307604"><ele>1457.0</ele><time>2026-04-24T13:01:55Z</time></trkpt><trkpt lat="42.00639514572806" lon="13.210101145080504"><ele>1449.0</ele><time>2026-04-24T13:01:56Z</time></trkpt><trkpt lat="42.006501475678895" lon="13.210000070424469"><ele>1441.0</ele><time>2026-04-24T13:01:57Z</time></trkpt><trkpt lat="42.00660379286602" lon="13.209927901505964"><ele>1441.4</ele><time>2026-04-24T13:01:58Z</time></trkpt><trkpt lat="42.006698739439386" lon="13.209890346484912"><ele>1441.8</ele><time>2026-04-24T13:01:59Z</time></trkpt><trkpt lat="42.00679835981307" lon="13.209856350808996"><ele>1442.2</ele><time>2026-04-24T13:02:00Z</time></trkpt><trkpt lat="42.006890808695" lon="13.209839091755851"><ele>1442.6000000000001</ele><time>2026-04-24T13:02:01Z</time></trkpt><trkpt lat="42.006967300483204" lon="13.20981965915584"><ele>1443.0</ele><time>2026-04-24T13:02:02Z</time></trkpt><trkpt lat="42.00707405124045" lon="13.20981815977012"><ele>1440.0</ele><time>2026-04-24T13:02:03Z</time></trkpt><trkpt lat="42.00717735745651" lon="13.209821493618708"><ele>1437.0</ele><time>2026-04-24T13:02:04Z</time></trkpt><trkpt lat="42.00727421750209" lon="13.20981699465932"><ele>1434.0</ele><time>2026-04-24T13:02:05Z</time></trkpt><trkpt lat="42.00737338364644" lon="13.209784749404243"><ele>1431.0</ele><time>2026-04-24T13:02:06Z</time></trkpt><trkpt lat="42.007479649245575" lon="13.209732502772649"><ele>1428.0</ele><time>2026-04-24T13:02:07Z</time></trkpt><trkpt lat="42.007613078969285" lon="13.20964440515627"><ele>1428.0</ele><time>2026-04-24T13:02:08Z</time></trkpt><trkpt lat="42.00772778588739" lon="13.209567602837897"><ele>1428.0</ele><time>2026-04-24T13:02:09Z</time></trkpt><trkpt lat="42.00783570890677" lon="13.209503416579999"><ele>1428.0</ele><time>2026-04-24T13:02:10Z</time></trkpt><trkpt lat="42.007933807537356" lon="13.209442658279338"><ele>1428.0</ele><time>2026-04-24T13:02:11Z</time></trkpt><trkpt lat="42.00803237325027" lon="13.209383322867636"><ele>1428.0</ele><time>2026-04-24T13:02:12Z</time></trkpt><trkpt lat="42.00812498387578" lon="13.209322632918695"><ele>1428.0</ele><time>2026-04-24T13:02:13Z</time></trkpt><trkpt lat="42.00821208508839" lon="13.209271156319582"><ele>1428.0</ele><time>2026-04-24T13:02:14Z</time></trkpt><trkpt lat="42.008292174876495" lon="13.209237385453475"><ele>1428.0</ele><time>2026-04-24T13:02:15Z</time></trkpt><trkpt lat="42.008379100258914" lon="13.209222869735001"><ele>1428.0</ele><time>2026-04-24T13:02:16Z</time></trkpt><trkpt lat="42.00846436544523" lon="13.209232345875074"><ele>1427.0</ele><time>2026-04-24T13:02:17Z</time></trkpt><trkpt lat="42.008552879828926" lon="13.20925549135711"><ele>1426.0</ele><time>2026-04-24T13:02:18Z</time></trkpt><trkpt lat="42.00866139365093" lon="13.209294041343806"><ele>1425.0</ele><time>2026-04-24T13:02:18.999Z</time></trkpt><trkpt lat="42.00877799079803" lon="13.20933578485652"><ele>1424.0</ele><time>2026-04-24T13:02:19.999Z</time></trkpt><trkpt lat="42.00889067610057" lon="13.209369862354482"><ele>1423.0</ele><time>2026-04-24T13:02:20.999Z</time></trkpt><trkpt lat="42.00898962012057" lon="13.209392297159637"><ele>1423.0</ele><time>2026-04-24T13:02:21.999Z</time></trkpt><trkpt lat="42.009081085329605" lon="13.209411130598593"><ele>1423.0</ele><time>2026-04-24T13:02:22.999Z</time></trkpt><trkpt lat="42.00915774370559" lon="13.209425746635613"><ele>1423.0</ele><time>2026-04-24T13:02:23.999Z</time></trkpt><trkpt lat="42.00923632499471" lon="13.209430804469532"><ele>1423.0</ele><time>2026-04-24T13:02:24.999Z</time></trkpt><trkpt lat="42.00931757092275" lon="13.209436866282886"><ele>1423.0</ele><time>2026-04-24T13:02:25.999Z</time></trkpt><trkpt lat="42.00939001550818" lon="13.209432855011721"><ele>1423.0</ele><time>2026-04-24T13:02:26.999Z</time></trkpt><trkpt lat="42.009470968057045" lon="13.20940062395767"><ele>1423.2</ele><time>2026-04-24T13:02:27.999Z</time></trkpt><trkpt lat="42.009552717849935" lon="13.209346994970284"><ele>1423.4</ele><time>2026-04-24T13:02:28.999Z</time></trkpt><trkpt lat="42.009617994766295" lon="13.209266143619597"><ele>1423.6000000000001</ele><time>2026-04-24T13:02:29.999Z</time></trkpt><trkpt lat="42.00969515619962" lon="13.209158047425944"><ele>1423.8000000000002</ele><time>2026-04-24T13:02:30.999Z</time></trkpt><trkpt lat="42.009772337181126" lon="13.209070232566821"><ele>1424.0</ele><time>2026-04-24T13:02:31.999Z</time></trkpt><trkpt lat="42.00985007673015" lon="13.208974111046222"><ele>1422.6</ele><time>2026-04-24T13:02:32.999Z</time></trkpt><trkpt lat="42.00991403530009" lon="13.208887978039076"><ele>1421.2</ele><time>2026-04-24T13:02:33.999Z</time></trkpt><trkpt lat="42.00999102288456" lon="13.208815560556305"><ele>1419.8</ele><time>2026-04-24T13:02:34.999Z</time></trkpt><trkpt lat="42.01006415525835" lon="13.20875677240595"><ele>1418.3999999999999</ele><time>2026-04-24T13:02:35.999Z</time></trkpt><trkpt lat="42.01014039252554" lon="13.208689229885392"><ele>1417.0</ele><time>2026-04-24T13:02:36.999Z</time></trkpt><trkpt lat="42.010218599309226" lon="13.208631554025194"><ele>1416.8</ele><time>2026-04-24T13:02:37.999Z</time></trkpt><trkpt lat="42.01030092088578" lon="13.208564900215434"><ele>1416.6</ele><time>2026-04-24T13:02:38.999Z</time></trkpt><trkpt lat="42.01039064799871" lon="13.208487220384175"><ele>1416.3999999999999</ele><time>2026-04-24T13:02:39.999Z</time></trkpt><trkpt lat="42.01046915487425" lon="13.208417437105416"><ele>1416.1999999999998</ele><time>2026-04-24T13:02:40.999Z</time></trkpt><trkpt lat="42.01053834234531" lon="13.208336948448498"><ele>1416.0</ele><time>2026-04-24T13:02:41.999Z</time></trkpt><trkpt lat="42.010602995306236" lon="13.208245648905873"><ele>1413.4</ele><time>2026-04-24T13:02:42.999Z</time></trkpt><trkpt lat="42.01066828974994" lon="13.208140141159696"><ele>1410.8</ele><time>2026-04-24T13:02:43.999Z</time></trkpt><trkpt lat="42.01074146088302" lon="13.208047830753253"><ele>1408.2</ele><time>2026-04-24T13:02:44.999Z</time></trkpt><trkpt lat="42.010803184540784" lon="13.207955589110625"><ele>1405.6000000000001</ele><time>2026-04-24T13:02:45.999Z</time></trkpt><trkpt lat="42.010850157466216" lon="13.207859784622546"><ele>1403.0</ele><time>2026-04-24T13:02:46.999Z</time></trkpt><trkpt lat="42.01090923653745" lon="13.20779345143055"><ele>1400.5</ele><time>2026-04-24T13:02:47.999Z</time></trkpt><trkpt lat="42.010975863143166" lon="13.207738930097822"><ele>1398.0</ele><time>2026-04-24T13:02:48.999Z</time></trkpt><trkpt lat="42.011045670179925" lon="13.20769731920342"><ele>1395.5</ele><time>2026-04-24T13:02:49.999Z</time></trkpt><trkpt lat="42.011116326931926" lon="13.207638158225613"><ele>1393.0</ele><time>2026-04-24T13:02:50.999Z</time></trkpt><trkpt lat="42.01118717973392" lon="13.207583694556694"><ele>1390.5</ele><time>2026-04-24T13:02:51.999Z</time></trkpt><trkpt lat="42.011259982826786" lon="13.20752743500638"><ele>1388.0</ele><time>2026-04-24T13:02:52.999Z</time></trkpt><trkpt lat="42.01131940144291" lon="13.207471160476944"><ele>1388.0</ele><time>2026-04-24T13:02:53.999Z</time></trkpt><trkpt lat="42.011378688044566" lon="13.20742364435803"><ele>1388.0</ele><time>2026-04-24T13:02:54.999Z</time></trkpt><trkpt lat="42.01146302960051" lon="13.207337852792548"><ele>1388.0</ele><time>2026-04-24T13:02:56.999Z</time></trkpt><trkpt lat="42.01149968157899" lon="13.207252732856734"><ele>1388.0</ele><time>2026-04-24T13:02:58.999Z</time></trkpt><trkpt lat="42.01140651533804" lon="13.207108549449455"><ele>1388.0</ele><time>2026-04-24T13:03:00.999Z</time></trkpt><trkpt lat="42.01133374865468" lon="13.207119230260204"><ele>1387.6666666666667</ele><time>2026-04-24T13:03:01.999Z</time></trkpt><trkpt lat="42.0112548827192" lon="13.207157442618183"><ele>1387.3333333333335</ele><time>2026-04-24T13:03:02.999Z</time></trkpt><trkpt lat="42.01116552329279" lon="13.207150901554416"><ele>1387.0</ele><time>2026-04-24T13:03:03.999Z</time></trkpt><trkpt lat="42.011091113121445" lon="13.20715552777907"><ele>1386.6666666666667</ele><time>2026-04-24T13:03:04.999Z</time></trkpt><trkpt lat="42.01099209038308" lon="13.207147866035296"><ele>1386.3333333333333</ele><time>2026-04-24T13:03:06.999Z</time></trkpt><trkpt lat="42.010903346173656" lon="13.207123340642504"><ele>1386.0</ele><time>2026-04-24T13:03:08.999Z</time></trkpt><trkpt lat="42.01081862770429" lon="13.20704430267208"><ele>1386.0</ele><time>2026-04-24T13:03:11Z</time></trkpt><trkpt lat="42.010758753273294" lon="13.20699318118306"><ele>1386.0</ele><time>2026-04-24T13:03:12Z</time></trkpt><trkpt lat="42.01070360211366" lon="13.206904008902805"><ele>1386.0</ele><time>2026-04-24T13:03:13Z</time></trkpt><trkpt lat="42.010640349816846" lon="13.206837448647606"><ele>1386.0</ele><time>2026-04-24T13:03:14Z</time></trkpt><trkpt lat="42.0105764409088" lon="13.206783623209637"><ele>1386.0</ele><time>2026-04-24T13:03:15Z</time></trkpt><trkpt lat="42.0105335285983" lon="13.206711231912514"><ele>1386.0</ele><time>2026-04-24T13:03:16Z</time></trkpt><trkpt lat="42.01047151458373" lon="13.206646369839518"><ele>1386.0</ele><time>2026-04-24T13:03:17Z</time></trkpt><trkpt lat="42.01040281240452" lon="13.206582084225369"><ele>1386.0</ele><time>2026-04-24T13:03:18Z</time></trkpt><trkpt lat="42.01032855113089" lon="13.206529461899246"><ele>1386.0</ele><time>2026-04-24T13:03:19Z</time></trkpt><trkpt lat="42.010257217571755" lon="13.206497461818364"><ele>1386.0</ele><time>2026-04-24T13:03:20Z</time></trkpt><trkpt lat="42.010147823880246" lon="13.206455439291624"><ele>1386.0</ele><time>2026-04-24T13:03:22Z</time></trkpt><trkpt lat="42.010077314155126" lon="13.20643289747432"><ele>1386.0</ele><time>2026-04-24T13:03:24Z</time></trkpt><trkpt lat="42.01003251375683" lon="13.206372101251208"><ele>1385.3333333333333</ele><time>2026-04-24T13:03:26Z</time></trkpt><trkpt lat="42.01005525411772" lon="13.206290602824387"><ele>1384.6666666666667</ele><time>2026-04-24T13:03:28Z</time></trkpt><trkpt lat="42.01011397124251" lon="13.206239448909006"><ele>1384.0</ele><time>2026-04-24T13:03:30Z</time></trkpt><trkpt lat="42.01022268577787" lon="13.206194824117276"><ele>1383.3333333333335</ele><time>2026-04-24T13:03:32Z</time></trkpt><trkpt lat="42.01029449337936" lon="13.206140994381968"><ele>1382.6666666666667</ele><time>2026-04-24T13:03:33Z</time></trkpt><trkpt lat="42.01034995976415" lon="13.206079734520518"><ele>1382.0</ele><time>2026-04-24T13:03:34Z</time></trkpt><trkpt lat="42.010409344463035" lon="13.206021827306166"><ele>1382.0</ele><time>2026-04-24T13:03:35Z</time></trkpt><trkpt lat="42.01046290188023" lon="13.205964396869401"><ele>1382.0</ele><time>2026-04-24T13:03:36Z</time></trkpt><trkpt lat="42.010532643773516" lon="13.205890385477634"><ele>1382.0</ele><time>2026-04-24T13:03:37Z</time></trkpt><trkpt lat="42.01058758953436" lon="13.205813736869368"><ele>1382.0</ele><time>2026-04-24T13:03:38Z</time></trkpt><trkpt lat="42.01063841572939" lon="13.205738095176615"><ele>1382.0</ele><time>2026-04-24T13:03:39Z</time></trkpt><trkpt lat="42.01069469659527" lon="13.205664483406693"><ele>1382.0</ele><time>2026-04-24T13:03:40Z</time></trkpt><trkpt lat="42.010749356931754" lon="13.205560718558445"><ele>1380.0</ele><time>2026-04-24T13:03:41Z</time></trkpt><trkpt lat="42.01078749236503" lon="13.205456797645155"><ele>1378.0</ele><time>2026-04-24T13:03:42Z</time></trkpt><trkpt lat="42.010850289994664" lon="13.205339368878983"><ele>1376.0</ele><time>2026-04-24T13:03:43Z</time></trkpt><trkpt lat="42.01090821128297" lon="13.205212816113539"><ele>1374.0</ele><time>2026-04-24T13:03:44Z</time></trkpt><trkpt lat="42.010955853809726" lon="13.20509688921669"><ele>1372.0</ele><time>2026-04-24T13:03:45Z</time></trkpt><trkpt lat="42.01100949795965" lon="13.204962298208123"><ele>1372.0</ele><time>2026-04-24T13:03:46Z</time></trkpt><trkpt lat="42.01106022471003" lon="13.204842298182443"><ele>1372.0</ele><time>2026-04-24T13:03:47Z</time></trkpt><trkpt lat="42.011120735143216" lon="13.20469794275504"><ele>1372.0</ele><time>2026-04-24T13:03:48Z</time></trkpt><trkpt lat="42.01118878631146" lon="13.204565570080563"><ele>1372.0</ele><time>2026-04-24T13:03:49Z</time></trkpt><trkpt lat="42.01125915690509" lon="13.20444008696467"><ele>1374.5</ele><time>2026-04-24T13:03:50Z</time></trkpt><trkpt lat="42.01132663048478" lon="13.20433663674789"><ele>1377.0</ele><time>2026-04-24T13:03:51Z</time></trkpt><trkpt lat="42.011413797230304" lon="13.204243101665408"><ele>1379.5</ele><time>2026-04-24T13:03:52Z</time></trkpt><trkpt lat="42.01151360560531" lon="13.204157306242134"><ele>1382.0</ele><time>2026-04-24T13:03:53Z</time></trkpt><trkpt lat="42.01161524663972" lon="13.204061825395915"><ele>1382.0</ele><time>2026-04-24T13:03:54Z</time></trkpt><trkpt lat="42.011710630317836" lon="13.203969636482295"><ele>1382.0</ele><time>2026-04-24T13:03:55Z</time></trkpt><trkpt lat="42.01181812258203" lon="13.203889167255303"><ele>1382.0</ele><time>2026-04-24T13:03:56Z</time></trkpt><trkpt lat="42.01191577315049" lon="13.203808653607592"><ele>1382.0</ele><time>2026-04-24T13:03:57Z</time></trkpt><trkpt lat="42.01199825260998" lon="13.203706718473702"><ele>1382.0</ele><time>2026-04-24T13:03:58Z</time></trkpt><trkpt lat="42.01207782359113" lon="13.203621029141722"><ele>1382.0</ele><time>2026-04-24T13:03:59Z</time></trkpt><trkpt lat="42.01212029371128" lon="13.203502209943593"><ele>1382.0</ele><time>2026-04-24T13:04:00Z</time></trkpt><trkpt lat="42.0121638958078" lon="13.203394363917065"><ele>1382.0</ele><time>2026-04-24T13:04:01Z</time></trkpt><trkpt lat="42.01220814077064" lon="13.20328684213338"><ele>1382.0</ele><time>2026-04-24T13:04:02Z</time></trkpt><trkpt lat="42.01227165478688" lon="13.203164782814383"><ele>1384.5</ele><time>2026-04-24T13:04:03Z</time></trkpt><trkpt lat="42.01232980132437" lon="13.203016532026671"><ele>1387.0</ele><time>2026-04-24T13:04:04Z</time></trkpt><trkpt lat="42.01237756304018" lon="13.202843057632144"><ele>1389.5</ele><time>2026-04-24T13:04:05Z</time></trkpt><trkpt lat="42.012449659047014" lon="13.202678907548796"><ele>1392.0</ele><time>2026-04-24T13:04:06Z</time></trkpt><trkpt lat="42.01251191293077" lon="13.202517861812316"><ele>1386.0</ele><time>2026-04-24T13:04:07Z</time></trkpt><trkpt lat="42.012563046605315" lon="13.202342483115553"><ele>1380.0</ele><time>2026-04-24T13:04:08Z</time></trkpt><trkpt lat="42.012607903077914" lon="13.20216097917175"><ele>1374.0</ele><time>2026-04-24T13:04:09Z</time></trkpt><trkpt lat="42.01265349484157" lon="13.201975951189441"><ele>1368.0</ele><time>2026-04-24T13:04:09.999Z</time></trkpt><trkpt lat="42.01271104990037" lon="13.20180355115892"><ele>1368.0</ele><time>2026-04-24T13:04:10.999Z</time></trkpt><trkpt lat="42.012761534150684" lon="13.201635371145917"><ele>1368.0</ele><time>2026-04-24T13:04:11.999Z</time></trkpt><trkpt lat="42.0128072960732" lon="13.201461955903866"><ele>1368.0</ele><time>2026-04-24T13:04:12.999Z</time></trkpt><trkpt lat="42.012867206716784" lon="13.201293758800407"><ele>1368.0</ele><time>2026-04-24T13:04:13.999Z</time></trkpt><trkpt lat="42.012912210397495" lon="13.201125708073874"><ele>1370.5</ele><time>2026-04-24T13:04:14.999Z</time></trkpt><trkpt lat="42.012955752849415" lon="13.20094420923732"><ele>1373.0</ele><time>2026-04-24T13:04:15.999Z</time></trkpt><trkpt lat="42.01299341748161" lon="13.20076524520965"><ele>1375.5</ele><time>2026-04-24T13:04:16.999Z</time></trkpt><trkpt lat="42.01304320340009" lon="13.200590973586902"><ele>1378.0</ele><time>2026-04-24T13:04:17.999Z</time></trkpt><trkpt lat="42.01307683130383" lon="13.200418898846818"><ele>1378.75</ele><time>2026-04-24T13:04:18.999Z</time></trkpt><trkpt lat="42.013107523436034" lon="13.200273951985146"><ele>1379.5</ele><time>2026-04-24T13:04:19.999Z</time></trkpt><trkpt lat="42.01313726404524" lon="13.200130704678239"><ele>1380.25</ele><time>2026-04-24T13:04:20.999Z</time></trkpt><trkpt lat="42.01316887378923" lon="13.199990886686523"><ele>1381.0</ele><time>2026-04-24T13:04:21.999Z</time></trkpt><trkpt lat="42.013219323056205" lon="13.199831128010793"><ele>1381.75</ele><time>2026-04-24T13:04:22.999Z</time></trkpt><trkpt lat="42.01329581056905" lon="13.199679470143272"><ele>1382.5</ele><time>2026-04-24T13:04:23.999Z</time></trkpt><trkpt lat="42.01337797426377" lon="13.199514510124779"><ele>1383.25</ele><time>2026-04-24T13:04:24.999Z</time></trkpt><trkpt lat="42.01344509108022" lon="13.199347258803764"><ele>1384.0</ele><time>2026-04-24T13:04:25.999Z</time></trkpt><trkpt lat="42.01351502620544" lon="13.199159489001854"><ele>1376.75</ele><time>2026-04-24T13:04:26.999Z</time></trkpt><trkpt lat="42.013585461744306" lon="13.198993049332692"><ele>1369.5</ele><time>2026-04-24T13:04:27.999Z</time></trkpt><trkpt lat="42.01366538917884" lon="13.198830089586226"><ele>1362.25</ele><time>2026-04-24T13:04:28.999Z</time></trkpt><trkpt lat="42.01374113603547" lon="13.198658410506516"><ele>1355.0</ele><time>2026-04-24T13:04:29.999Z</time></trkpt><trkpt lat="42.01382470351666" lon="13.198510343295796"><ele>1355.0</ele><time>2026-04-24T13:04:30.999Z</time></trkpt><trkpt lat="42.01386908451651" lon="13.198345176908225"><ele>1355.0</ele><time>2026-04-24T13:04:31.999Z</time></trkpt><trkpt lat="42.013930414193354" lon="13.198183711073321"><ele>1355.0</ele><time>2026-04-24T13:04:32.999Z</time></trkpt><trkpt lat="42.01399024254312" lon="13.198001957382024"><ele>1355.0</ele><time>2026-04-24T13:04:33.999Z</time></trkpt><trkpt lat="42.01405405209674" lon="13.197805959717014"><ele>1353.25</ele><time>2026-04-24T13:04:34.999Z</time></trkpt><trkpt lat="42.01411341613687" lon="13.197624136557025"><ele>1351.5</ele><time>2026-04-24T13:04:35.999Z</time></trkpt><trkpt lat="42.01417039896876" lon="13.197440874375506"><ele>1349.75</ele><time>2026-04-24T13:04:36.999Z</time></trkpt><trkpt lat="42.01422299409778" lon="13.197272020042439"><ele>1348.0</ele><time>2026-04-24T13:04:37.999Z</time></trkpt><trkpt lat="42.01427619219989" lon="13.197102131530547"><ele>1348.0</ele><time>2026-04-24T13:04:38.999Z</time></trkpt><trkpt lat="42.014334152443425" lon="13.196955878923573"><ele>1348.0</ele><time>2026-04-24T13:04:39.999Z</time></trkpt><trkpt lat="42.01438592323806" lon="13.19681995634425"><ele>1348.0</ele><time>2026-04-24T13:04:40.999Z</time></trkpt><trkpt lat="42.01443623803376" lon="13.196696757111297"><ele>1348.0</ele><time>2026-04-24T13:04:41.999Z</time></trkpt><trkpt lat="42.0144848965165" lon="13.19656235884307"><ele>1349.75</ele><time>2026-04-24T13:04:42.999Z</time></trkpt><trkpt lat="42.01453048807349" lon="13.196431242163408"><ele>1351.5</ele><time>2026-04-24T13:04:43.999Z</time></trkpt><trkpt lat="42.0145920154171" lon="13.196302134639826"><ele>1353.25</ele><time>2026-04-24T13:04:44.999Z</time></trkpt><trkpt lat="42.01467160230745" lon="13.196176736236563"><ele>1355.0</ele><time>2026-04-24T13:04:45.999Z</time></trkpt><trkpt lat="42.01477389603354" lon="13.196058499134308"><ele>1355.0</ele><time>2026-04-24T13:04:46.999Z</time></trkpt><trkpt lat="42.01489432217345" lon="13.19593390702273"><ele>1355.0</ele><time>2026-04-24T13:04:47.999Z</time></trkpt><trkpt lat="42.01500993160066" lon="13.195800896281206"><ele>1355.0</ele><time>2026-04-24T13:04:48.999Z</time></trkpt><trkpt lat="42.01511759630387" lon="13.195666072154495"><ele>1350.5</ele><time>2026-04-24T13:04:49.999Z</time></trkpt><trkpt lat="42.01522297950177" lon="13.195518024974188"><ele>1346.0</ele><time>2026-04-24T13:04:50.999Z</time></trkpt><trkpt lat="42.01531782380784" lon="13.195365809791639"><ele>1341.5</ele><time>2026-04-24T13:04:51.999Z</time></trkpt><trkpt lat="42.015410421618206" lon="13.195237422913896"><ele>1337.0</ele><time>2026-04-24T13:04:52.999Z</time></trkpt><trkpt lat="42.015498741385805" lon="13.195113438135717"><ele>1337.0</ele><time>2026-04-24T13:04:53.999Z</time></trkpt><trkpt lat="42.01556970925285" lon="13.194997490082713"><ele>1337.0</ele><time>2026-04-24T13:04:54.999Z</time></trkpt><trkpt lat="42.01562186897155" lon="13.194879599743574"><ele>1337.0</ele><time>2026-04-24T13:04:55.999Z</time></trkpt><trkpt lat="42.015678374501405" lon="13.19475158170153"><ele>1337.0</ele><time>2026-04-24T13:04:56.999Z</time></trkpt><trkpt lat="42.01573204174475" lon="13.19460453067643"><ele>1337.0</ele><time>2026-04-24T13:04:57.999Z</time></trkpt><trkpt lat="42.01577703357503" lon="13.194455411945722"><ele>1336.1999999999998</ele><time>2026-04-24T13:04:58.999Z</time></trkpt><trkpt lat="42.01581575064684" lon="13.194317461381154"><ele>1335.4</ele><time>2026-04-24T13:04:59.999Z</time></trkpt><trkpt lat="42.0158444661003" lon="13.194188382053785"><ele>1334.6</ele><time>2026-04-24T13:05:00.999Z</time></trkpt><trkpt lat="42.01587265195051" lon="13.194076824176188"><ele>1333.8000000000002</ele><time>2026-04-24T13:05:01.999Z</time></trkpt><trkpt lat="42.01590726401984" lon="13.193975015699847"><ele>1333.0</ele><time>2026-04-24T13:05:02.999Z</time></trkpt><trkpt lat="42.0159426338408" lon="13.193872422470706"><ele>1333.0</ele><time>2026-04-24T13:05:03.999Z</time></trkpt><trkpt lat="42.01601779031052" lon="13.193762218336575"><ele>1333.0</ele><time>2026-04-24T13:05:04.999Z</time></trkpt><trkpt lat="42.01609784110206" lon="13.19363317908879"><ele>1333.0</ele><time>2026-04-24T13:05:05.999Z</time></trkpt><trkpt lat="42.01615214078604" lon="13.19348949736043"><ele>1333.0</ele><time>2026-04-24T13:05:06.999Z</time></trkpt><trkpt lat="42.01619701474359" lon="13.1933557697206"><ele>1333.0</ele><time>2026-04-24T13:05:07.999Z</time></trkpt><trkpt lat="42.01624562964428" lon="13.19322431434066"><ele>1333.0</ele><time>2026-04-24T13:05:08.999Z</time></trkpt><trkpt lat="42.01629222763681" lon="13.193124387900678"><ele>1333.0</ele><time>2026-04-24T13:05:09.999Z</time></trkpt><trkpt lat="42.016342185968306" lon="13.193029514852281"><ele>1333.0</ele><time>2026-04-24T13:05:10.999Z</time></trkpt><trkpt lat="42.01640894644221" lon="13.192945230958584"><ele>1333.0</ele><time>2026-04-24T13:05:11.999Z</time></trkpt><trkpt lat="42.01649902545855" lon="13.192878544254162"><ele>1334.4</ele><time>2026-04-24T13:05:12.999Z</time></trkpt><trkpt lat="42.01659998959405" lon="13.192834179975701"><ele>1335.8000000000002</ele><time>2026-04-24T13:05:13.999Z</time></trkpt><trkpt lat="42.016705332694805" lon="13.192790839114135"><ele>1337.2</ele><time>2026-04-24T13:05:14.999Z</time></trkpt><trkpt lat="42.01680416679738" lon="13.192736189992116"><ele>1338.6</ele><time>2026-04-24T13:05:16Z</time></trkpt><trkpt lat="42.01691312778789" lon="13.192662943637377"><ele>1340.0</ele><time>2026-04-24T13:05:17Z</time></trkpt><trkpt lat="42.0170013733553" lon="13.19259661263581"><ele>1337.6</ele><time>2026-04-24T13:05:18Z</time></trkpt><trkpt lat="42.017083594107056" lon="13.192526904771391"><ele>1335.2</ele><time>2026-04-24T13:05:19Z</time></trkpt><trkpt lat="42.017167192999295" lon="13.19243982498299"><ele>1332.8000000000002</ele><time>2026-04-24T13:05:20Z</time></trkpt><trkpt lat="42.017245204932614" lon="13.192346835266088"><ele>1330.4</ele><time>2026-04-24T13:05:21Z</time></trkpt><trkpt lat="42.017314690608934" lon="13.192252415761015"><ele>1328.0</ele><time>2026-04-24T13:05:22Z</time></trkpt><trkpt lat="42.017365218808834" lon="13.192155868280809"><ele>1328.0</ele><time>2026-04-24T13:05:23Z</time></trkpt><trkpt lat="42.01740413511211" lon="13.192045380610258"><ele>1328.0</ele><time>2026-04-24T13:05:24Z</time></trkpt><trkpt lat="42.017430921229796" lon="13.191927755135955"><ele>1328.0</ele><time>2026-04-24T13:05:25Z</time></trkpt><trkpt lat="42.017452323653046" lon="13.19181171633638"><ele>1328.0</ele><time>2026-04-24T13:05:26Z</time></trkpt><trkpt lat="42.01747187753505" lon="13.1916804197916"><ele>1328.0</ele><time>2026-04-24T13:05:27Z</time></trkpt><trkpt lat="42.01750141919891" lon="13.191541872561832"><ele>1326.75</ele><time>2026-04-24T13:05:28Z</time></trkpt><trkpt lat="42.017534332217586" lon="13.19138728039552"><ele>1325.5</ele><time>2026-04-24T13:05:29Z</time></trkpt><trkpt lat="42.0175737451238" lon="13.191222095146985"><ele>1324.25</ele><time>2026-04-24T13:05:30Z</time></trkpt><trkpt lat="42.017633186474214" lon="13.191071145929751"><ele>1323.0</ele><time>2026-04-24T13:05:31Z</time></trkpt><trkpt lat="42.01770660472614" lon="13.1909140089809"><ele>1323.0</ele><time>2026-04-24T13:05:32Z</time></trkpt><trkpt lat="42.017774773971716" lon="13.19076212996553"><ele>1323.0</ele><time>2026-04-24T13:05:33Z</time></trkpt><trkpt lat="42.01784090503307" lon="13.190602590665758"><ele>1323.0</ele><time>2026-04-24T13:05:34Z</time></trkpt><trkpt lat="42.01789418422635" lon="13.190435440201837"><ele>1323.0</ele><time>2026-04-24T13:05:35Z</time></trkpt><trkpt lat="42.017956181036446" lon="13.190273594575459"><ele>1324.0</ele><time>2026-04-24T13:05:36Z</time></trkpt><trkpt lat="42.01801230903022" lon="13.190124876071259"><ele>1325.0</ele><time>2026-04-24T13:05:37Z</time></trkpt><trkpt lat="42.01806833818818" lon="13.189981560093393"><ele>1326.0</ele><time>2026-04-24T13:05:38Z</time></trkpt><trkpt lat="42.01811965086798" lon="13.1898528811002"><ele>1327.0</ele><time>2026-04-24T13:05:39Z</time></trkpt><trkpt lat="42.018168945904634" lon="13.18972850258295"><ele>1328.6</ele><time>2026-04-24T13:05:40Z</time></trkpt><trkpt lat="42.01821126411048" lon="13.189598039639547"><ele>1330.1999999999998</ele><time>2026-04-24T13:05:41Z</time></trkpt><trkpt lat="42.01823831506526" lon="13.189469833515936"><ele>1331.8</ele><time>2026-04-24T13:05:42Z</time></trkpt><trkpt lat="42.018257198904145" lon="13.18932491116906"><ele>1333.4</ele><time>2026-04-24T13:05:43Z</time></trkpt><trkpt lat="42.0182835849989" lon="13.189175386763472"><ele>1335.0</ele><time>2026-04-24T13:05:44Z</time></trkpt><trkpt lat="42.0183049818476" lon="13.18906618628662"><ele>1337.25</ele><time>2026-04-24T13:05:45Z</time></trkpt><trkpt lat="42.01829815681712" lon="13.188908463340383"><ele>1339.5</ele><time>2026-04-24T13:05:47Z</time></trkpt><trkpt lat="42.01835310458298" lon="13.188725091119203"><ele>1341.75</ele><time>2026-04-24T13:05:49Z</time></trkpt><trkpt lat="42.018400080664634" lon="13.188588782349836"><ele>1344.0</ele><time>2026-04-24T13:05:50Z</time></trkpt><trkpt lat="42.01845161895482" lon="13.18843440486984"><ele>1340.5</ele><time>2026-04-24T13:05:51Z</time></trkpt><trkpt lat="42.018500364675425" lon="13.188309563770419"><ele>1337.0</ele><time>2026-04-24T13:05:52Z</time></trkpt><trkpt lat="42.01856093878931" lon="13.188202249668096"><ele>1333.5</ele><time>2026-04-24T13:05:53Z</time></trkpt><trkpt lat="42.018646342968424" lon="13.188080615441248"><ele>1330.0</ele><time>2026-04-24T13:05:54Z</time></trkpt><trkpt lat="42.018738578381395" lon="13.187955590060833"><ele>1330.0</ele><time>2026-04-24T13:05:55Z</time></trkpt><trkpt lat="42.018814911441766" lon="13.187810260716612"><ele>1330.0</ele><time>2026-04-24T13:05:56Z</time></trkpt><trkpt lat="42.01888007077992" lon="13.187657339182628"><ele>1330.0</ele><time>2026-04-24T13:05:57Z</time></trkpt><trkpt lat="42.01892931901905" lon="13.187523807840265"><ele>1330.0</ele><time>2026-04-24T13:05:58Z</time></trkpt><trkpt lat="42.01896997010658" lon="13.187393584793746"><ele>1328.75</ele><time>2026-04-24T13:05:59Z</time></trkpt><trkpt lat="42.01901239672696" lon="13.187266520640444"><ele>1327.5</ele><time>2026-04-24T13:06:00Z</time></trkpt><trkpt lat="42.01906230272935" lon="13.187152245910347"><ele>1326.25</ele><time>2026-04-24T13:06:01Z</time></trkpt><trkpt lat="42.01914586514169" lon="13.187033767333617"><ele>1325.0</ele><time>2026-04-24T13:06:02Z</time></trkpt><trkpt lat="42.019246036448024" lon="13.186911670757256"><ele>1325.0</ele><time>2026-04-24T13:06:02.999Z</time></trkpt><trkpt lat="42.01934854040253" lon="13.186795752478092"><ele>1325.0</ele><time>2026-04-24T13:06:03.999Z</time></trkpt><trkpt lat="42.01943351879188" lon="13.186683437353624"><ele>1325.0</ele><time>2026-04-24T13:06:04.999Z</time></trkpt><trkpt lat="42.019497592646175" lon="13.186541053493599"><ele>1325.0</ele><time>2026-04-24T13:06:05.999Z</time></trkpt><trkpt lat="42.01957128593553" lon="13.186379089522749"><ele>1326.5</ele><time>2026-04-24T13:06:06.999Z</time></trkpt><trkpt lat="42.01964181824001" lon="13.186211156877874"><ele>1328.0</ele><time>2026-04-24T13:06:07.999Z</time></trkpt><trkpt lat="42.019704867273035" lon="13.186036657397828"><ele>1329.5</ele><time>2026-04-24T13:06:08.999Z</time></trkpt><trkpt lat="42.019754540626515" lon="13.185848272280754"><ele>1331.0</ele><time>2026-04-24T13:06:09.999Z</time></trkpt><trkpt lat="42.019805943895555" lon="13.185639893813134"><ele>1331.3333333333335</ele><time>2026-04-24T13:06:10.999Z</time></trkpt><trkpt lat="42.01985201472432" lon="13.185426247548698"><ele>1331.6666666666667</ele><time>2026-04-24T13:06:11.999Z</time></trkpt><trkpt lat="42.01990979443899" lon="13.185225193070675"><ele>1332.0</ele><time>2026-04-24T13:06:12.999Z</time></trkpt><trkpt lat="42.01998362295709" lon="13.185019174413672"><ele>1334.0</ele><time>2026-04-24T13:06:13.999Z</time></trkpt><trkpt lat="42.02006395946067" lon="13.184812143447973"><ele>1336.0</ele><time>2026-04-24T13:06:14.999Z</time></trkpt><trkpt lat="42.02014081791227" lon="13.184617119687235"><ele>1338.0</ele><time>2026-04-24T13:06:15.999Z</time></trkpt><trkpt lat="42.02021487192764" lon="13.184413197427844"><ele>1338.0</ele><time>2026-04-24T13:06:16.999Z</time></trkpt><trkpt lat="42.020285315711924" lon="13.184203242545225"><ele>1338.0</ele><time>2026-04-24T13:06:17.999Z</time></trkpt><trkpt lat="42.0203450685635" lon="13.18400393872126"><ele>1338.0</ele><time>2026-04-24T13:06:18.999Z</time></trkpt><trkpt lat="42.02042367358931" lon="13.183811627301912"><ele>1341.25</ele><time>2026-04-24T13:06:19.999Z</time></trkpt><trkpt lat="42.02051380495566" lon="13.18363589288459"><ele>1344.5</ele><time>2026-04-24T13:06:20.999Z</time></trkpt><trkpt lat="42.020582982467644" lon="13.183481079069823"><ele>1347.75</ele><time>2026-04-24T13:06:21.999Z</time></trkpt><trkpt lat="42.02063571179052" lon="13.1833159849788"><ele>1351.0</ele><time>2026-04-24T13:06:22.999Z</time></trkpt><trkpt lat="42.020684171036706" lon="13.18309361662583"><ele>1353.6666666666665</ele><time>2026-04-24T13:06:23.999Z</time></trkpt><trkpt lat="42.02073356192976" lon="13.182865839289533"><ele>1356.3333333333333</ele><time>2026-04-24T13:06:24.999Z</time></trkpt><trkpt lat="42.02080600112508" lon="13.182638041372305"><ele>1359.0</ele><time>2026-04-24T13:06:25.999Z</time></trkpt><trkpt lat="42.020888840386114" lon="13.18240729592719"><ele>1357.3333333333333</ele><time>2026-04-24T13:06:26.999Z</time></trkpt><trkpt lat="42.020962730760544" lon="13.182205554517829"><ele>1355.6666666666665</ele><time>2026-04-24T13:06:27.999Z</time></trkpt><trkpt lat="42.021032205522495" lon="13.182004172359287"><ele>1354.0</ele><time>2026-04-24T13:06:28.999Z</time></trkpt><trkpt lat="42.02110224361282" lon="13.181812380892717"><ele>1354.0</ele><time>2026-04-24T13:06:29.999Z</time></trkpt><trkpt lat="42.02116767401968" lon="13.181626911124432"><ele>1354.0</ele><time>2026-04-24T13:06:30.999Z</time></trkpt><trkpt lat="42.02123170218689" lon="13.181410421180832"><ele>1354.0</ele><time>2026-04-24T13:06:31.999Z</time></trkpt><trkpt lat="42.02128805103316" lon="13.181195164820089"><ele>1355.0</ele><time>2026-04-24T13:06:32.999Z</time></trkpt><trkpt lat="42.021340586193105" lon="13.180959372508466"><ele>1356.0</ele><time>2026-04-24T13:06:33.999Z</time></trkpt><trkpt lat="42.02138883006797" lon="13.180732056143142"><ele>1357.0</ele><time>2026-04-24T13:06:34.999Z</time></trkpt><trkpt lat="42.021429021557" lon="13.180496343618683"><ele>1359.25</ele><time>2026-04-24T13:06:35.999Z</time></trkpt><trkpt lat="42.02146443700024" lon="13.180276198258381"><ele>1361.5</ele><time>2026-04-24T13:06:36.999Z</time></trkpt><trkpt lat="42.02149923084886" lon="13.180079711407416"><ele>1363.75</ele><time>2026-04-24T13:06:37.999Z</time></trkpt><trkpt lat="42.0215371323529" lon="13.17991188246406"><ele>1366.0</ele><time>2026-04-24T13:06:38.999Z</time></trkpt><trkpt lat="42.02159478924559" lon="13.179769790797245"><ele>1366.25</ele><time>2026-04-24T13:06:39.999Z</time></trkpt><trkpt lat="42.021642708269084" lon="13.179614953270242"><ele>1366.5</ele><time>2026-04-24T13:06:40.999Z</time></trkpt><trkpt lat="42.021725066091584" lon="13.179465289436376"><ele>1366.75</ele><time>2026-04-24T13:06:41.999Z</time></trkpt><trkpt lat="42.02182522175432" lon="13.179297125034143"><ele>1367.0</ele><time>2026-04-24T13:06:42.999Z</time></trkpt><trkpt lat="42.02193521702288" lon="13.179092581751037"><ele>1362.3333333333335</ele><time>2026-04-24T13:06:43.999Z</time></trkpt><trkpt lat="42.022040529538906" lon="13.178892870070872"><ele>1357.6666666666667</ele><time>2026-04-24T13:06:44.999Z</time></trkpt><trkpt lat="42.0221659657019" lon="13.178674758611782"><ele>1353.0</ele><time>2026-04-24T13:06:45.999Z</time></trkpt><trkpt lat="42.02227701814969" lon="13.178492569014754"><ele>1353.0</ele><time>2026-04-24T13:06:46.999Z</time></trkpt><trkpt lat="42.02239778003487" lon="13.178301319190872"><ele>1353.0</ele><time>2026-04-24T13:06:47.999Z</time></trkpt><trkpt lat="42.02251689502025" lon="13.178114067039902"><ele>1353.0</ele><time>2026-04-24T13:06:48.999Z</time></trkpt><trkpt lat="42.02261897591725" lon="13.177931983699793"><ele>1353.3333333333333</ele><time>2026-04-24T13:06:49.999Z</time></trkpt><trkpt lat="42.0227105776684" lon="13.17773565589267"><ele>1353.6666666666665</ele><time>2026-04-24T13:06:50.999Z</time></trkpt><trkpt lat="42.022800646891696" lon="13.177529168811194"><ele>1354.0</ele><time>2026-04-24T13:06:51.999Z</time></trkpt><trkpt lat="42.02288065899646" lon="13.177313237500794"><ele>1355.0</ele><time>2026-04-24T13:06:52.999Z</time></trkpt><trkpt lat="42.02294669118024" lon="13.177116056642237"><ele>1356.0</ele><time>2026-04-24T13:06:53.999Z</time></trkpt><trkpt lat="42.023009637247476" lon="13.176947470756446"><ele>1357.0</ele><time>2026-04-24T13:06:54.999Z</time></trkpt><trkpt lat="42.02306766439023" lon="13.176799105782726"><ele>1358.0</ele><time>2026-04-24T13:06:55.999Z</time></trkpt><trkpt lat="42.02313242194487" lon="13.176673211469755"><ele>1358.0</ele><time>2026-04-24T13:06:56.999Z</time></trkpt><trkpt lat="42.02320061991715" lon="13.176572972933842"><ele>1358.0</ele><time>2026-04-24T13:06:57.999Z</time></trkpt><trkpt lat="42.02328288552496" lon="13.176451440481284"><ele>1358.0</ele><time>2026-04-24T13:06:58.999Z</time></trkpt><trkpt lat="42.023368738189355" lon="13.176328056665975"><ele>1358.0</ele><time>2026-04-24T13:06:59.999Z</time></trkpt><trkpt lat="42.023458139431995" lon="13.176209742178173"><ele>1354.4</ele><time>2026-04-24T13:07:00.999Z</time></trkpt><trkpt lat="42.02354587991464" lon="13.17610525209168"><ele>1350.8000000000002</ele><time>2026-04-24T13:07:01.999Z</time></trkpt><trkpt lat="42.023624596935875" lon="13.176001174876514"><ele>1347.2</ele><time>2026-04-24T13:07:02.999Z</time></trkpt><trkpt lat="42.02370768340996" lon="13.175902300462415"><ele>1343.6</ele><time>2026-04-24T13:07:03.999Z</time></trkpt><trkpt lat="42.023789914444436" lon="13.175804069189908"><ele>1340.0</ele><time>2026-04-24T13:07:04.999Z</time></trkpt><trkpt lat="42.02385036432976" lon="13.175728030301327"><ele>1339.2</ele><time>2026-04-24T13:07:05.999Z</time></trkpt><trkpt lat="42.0239421878801" lon="13.17563042870875"><ele>1338.4</ele><time>2026-04-24T13:07:07.999Z</time></trkpt><trkpt lat="42.02399996056678" lon="13.175590354573961"><ele>1337.6</ele><time>2026-04-24T13:07:08.999Z</time></trkpt><trkpt lat="42.02409240184806" lon="13.17550676543137"><ele>1336.8</ele><time>2026-04-24T13:07:10.999Z</time></trkpt><trkpt lat="42.024157991078475" lon="13.175387131281894"><ele>1336.0</ele><time>2026-04-24T13:07:12.999Z</time></trkpt><trkpt lat="42.0242105883455" lon="13.175269996668856"><ele>1336.0</ele><time>2026-04-24T13:07:14.999Z</time></trkpt><trkpt lat="42.0242789035248" lon="13.175140465388946"><ele>1336.0</ele><time>2026-04-24T13:07:16.999Z</time></trkpt><trkpt lat="42.02434809390165" lon="13.17502952571913"><ele>1336.0</ele><time>2026-04-24T13:07:18.999Z</time></trkpt><trkpt lat="42.02441506145597" lon="13.174904451778824"><ele>1336.0</ele><time>2026-04-24T13:07:20.999Z</time></trkpt><trkpt lat="42.02446892341765" lon="13.174852254083236"><ele>1336.0</ele><time>2026-04-24T13:07:22Z</time></trkpt><trkpt lat="42.02452347200647" lon="13.174795176195472"><ele>1336.0</ele><time>2026-04-24T13:07:23Z</time></trkpt><trkpt lat="42.02459857454983" lon="13.174686572573064"><ele>1336.0</ele><time>2026-04-24T13:07:25Z</time></trkpt><trkpt lat="42.02464636373047" lon="13.17457493696061"><ele>1336.0</ele><time>2026-04-24T13:07:27Z</time></trkpt><trkpt lat="42.024684630884025" lon="13.174458228352112"><ele>1336.0</ele><time>2026-04-24T13:07:29Z</time></trkpt><trkpt lat="42.02475889094781" lon="13.174362152514"><ele>1336.0</ele><time>2026-04-24T13:07:31Z</time></trkpt><trkpt lat="42.02485108838554" lon="13.174265164417957"><ele>1336.0</ele><time>2026-04-24T13:07:33Z</time></trkpt><trkpt lat="42.024906507361514" lon="13.174205569245052"><ele>1336.0</ele><time>2026-04-24T13:07:34Z</time></trkpt><trkpt lat="42.024949372750605" lon="13.174130471825253"><ele>1336.0</ele><time>2026-04-24T13:07:35Z</time></trkpt><trkpt lat="42.02499442573036" lon="13.174041353797673"><ele>1336.0</ele><time>2026-04-24T13:07:36Z</time></trkpt><trkpt lat="42.02505562698386" lon="13.173951894437785"><ele>1336.0</ele><time>2026-04-24T13:07:37Z</time></trkpt><trkpt lat="42.02511501442235" lon="13.173884582804845"><ele>1336.0</ele><time>2026-04-24T13:07:38Z</time></trkpt><trkpt lat="42.025176454301814" lon="13.173814314931208"><ele>1334.4285714285713</ele><time>2026-04-24T13:07:39Z</time></trkpt><trkpt lat="42.0252362639261" lon="13.173751362242983"><ele>1332.857142857143</ele><time>2026-04-24T13:07:40Z</time></trkpt><trkpt lat="42.02529015151296" lon="13.173664338723052"><ele>1331.2857142857142</ele><time>2026-04-24T13:07:41Z</time></trkpt><trkpt lat="42.0253309433064" lon="13.173574367882532"><ele>1329.7142857142858</ele><time>2026-04-24T13:07:42Z</time></trkpt><trkpt lat="42.02537278390095" lon="13.173502344233285"><ele>1328.142857142857</ele><time>2026-04-24T13:07:43Z</time></trkpt><trkpt lat="42.02542369989949" lon="13.17343227441391"><ele>1326.5714285714287</ele><time>2026-04-24T13:07:44Z</time></trkpt><trkpt lat="42.02547072159596" lon="13.173371228362408"><ele>1325.0</ele><time>2026-04-24T13:07:45Z</time></trkpt><trkpt lat="42.02550841782507" lon="13.173294246648963"><ele>1325.0</ele><time>2026-04-24T13:07:46Z</time></trkpt><trkpt lat="42.02553524597092" lon="13.173200952907"><ele>1325.0</ele><time>2026-04-24T13:07:47Z</time></trkpt><trkpt lat="42.025542068805585" lon="13.17311138370268"><ele>1325.0</ele><time>2026-04-24T13:07:48Z</time></trkpt><trkpt lat="42.02554670162837" lon="13.17298529135951"><ele>1325.0</ele><time>2026-04-24T13:07:49Z</time></trkpt><trkpt lat="42.02556453234041" lon="13.172874599622594"><ele>1325.0</ele><time>2026-04-24T13:07:50Z</time></trkpt><trkpt lat="42.025603394673304" lon="13.172802546723348"><ele>1325.0</ele><time>2026-04-24T13:07:51Z</time></trkpt><trkpt lat="42.02567241222712" lon="13.172694190736292"><ele>1325.0</ele><time>2026-04-24T13:07:52Z</time></trkpt><trkpt lat="42.02571608307854" lon="13.172566267612003"><ele>1325.0</ele><time>2026-04-24T13:07:53Z</time></trkpt><trkpt lat="42.02576868052244" lon="13.172444931047014"><ele>1325.0</ele><time>2026-04-24T13:07:54Z</time></trkpt><trkpt lat="42.02581903192102" lon="13.172338241538231"><ele>1325.0</ele><time>2026-04-24T13:07:55Z</time></trkpt><trkpt lat="42.02585383925735" lon="13.172242537207167"><ele>1325.0</ele><time>2026-04-24T13:07:56Z</time></trkpt><trkpt lat="42.02588407733018" lon="13.172146141887593"><ele>1322.5</ele><time>2026-04-24T13:07:57Z</time></trkpt><trkpt lat="42.025914623962535" lon="13.172049227513314"><ele>1320.0</ele><time>2026-04-24T13:07:58Z</time></trkpt><trkpt lat="42.02593502772917" lon="13.171963209919703"><ele>1317.5</ele><time>2026-04-24T13:07:58.999Z</time></trkpt><trkpt lat="42.025963905667425" lon="13.171857458750404"><ele>1315.0</ele><time>2026-04-24T13:07:59.999Z</time></trkpt><trkpt lat="42.02598106147363" lon="13.1717528342244"><ele>1312.5</ele><time>2026-04-24T13:08:00.999Z</time></trkpt><trkpt lat="42.02600918738742" lon="13.171612388198408"><ele>1310.0</ele><time>2026-04-24T13:08:02.999Z</time></trkpt><trkpt lat="42.02609058823113" lon="13.171400398988405"><ele>1309.5</ele><time>2026-04-24T13:08:04.999Z</time></trkpt><trkpt lat="42.02613863836931" lon="13.171304621997974"><ele>1309.0</ele><time>2026-04-24T13:08:05.999Z</time></trkpt><trkpt lat="42.02619812040193" lon="13.17121402423883"><ele>1308.5</ele><time>2026-04-24T13:08:06.999Z</time></trkpt><trkpt lat="42.02624682441484" lon="13.171124177350713"><ele>1308.0</ele><time>2026-04-24T13:08:07.999Z</time></trkpt><trkpt lat="42.026288351106" lon="13.171011848254716"><ele>1307.5</ele><time>2026-04-24T13:08:08.999Z</time></trkpt><trkpt lat="42.026325540969644" lon="13.170911055441618"><ele>1307.0</ele><time>2026-04-24T13:08:09.999Z</time></trkpt><trkpt lat="42.02635121700242" lon="13.170816831126244"><ele>1307.0</ele><time>2026-04-24T13:08:10.999Z</time></trkpt><trkpt lat="42.02639121250999" lon="13.170714384776575"><ele>1307.0</ele><time>2026-04-24T13:08:11.999Z</time></trkpt><trkpt lat="42.0264426033434" lon="13.170613422847643"><ele>1307.0</ele><time>2026-04-24T13:08:12.999Z</time></trkpt><trkpt lat="42.0264967671631" lon="13.170514947654583"><ele>1307.0</ele><time>2026-04-24T13:08:13.999Z</time></trkpt><trkpt lat="42.02656213807877" lon="13.170415942144851"><ele>1307.0</ele><time>2026-04-24T13:08:14.999Z</time></trkpt><trkpt lat="42.026628715393265" lon="13.170333651666287"><ele>1307.1999999999998</ele><time>2026-04-24T13:08:15.999Z</time></trkpt><trkpt lat="42.02669740638971" lon="13.17023956771906"><ele>1307.4</ele><time>2026-04-24T13:08:16.999Z</time></trkpt><trkpt lat="42.02675738293938" lon="13.17013237117043"><ele>1307.6</ele><time>2026-04-24T13:08:17.999Z</time></trkpt><trkpt lat="42.0268142058641" lon="13.170040592035974"><ele>1307.8000000000002</ele><time>2026-04-24T13:08:18.999Z</time></trkpt><trkpt lat="42.02688864668064" lon="13.16995506383675"><ele>1308.0</ele><time>2026-04-24T13:08:19.999Z</time></trkpt><trkpt lat="42.026952808465126" lon="13.16984213554476"><ele>1308.0</ele><time>2026-04-24T13:08:20.999Z</time></trkpt><trkpt lat="42.027020088519734" lon="13.169736648325124"><ele>1308.0</ele><time>2026-04-24T13:08:21.999Z</time></trkpt><trkpt lat="42.02709166785192" lon="13.169623250320935"><ele>1308.0</ele><time>2026-04-24T13:08:22.999Z</time></trkpt><trkpt lat="42.027164800331676" lon="13.169522846492207"><ele>1308.0</ele><time>2026-04-24T13:08:23.999Z</time></trkpt><trkpt lat="42.027239037828096" lon="13.169439189078032"><ele>1308.0</ele><time>2026-04-24T13:08:24.999Z</time></trkpt><trkpt lat="42.02732612230557" lon="13.169329147274267"><ele>1308.0</ele><time>2026-04-24T13:08:25.999Z</time></trkpt><trkpt lat="42.027406675663705" lon="13.169221359231758"><ele>1308.0</ele><time>2026-04-24T13:08:26.999Z</time></trkpt><trkpt lat="42.027470084503975" lon="13.169135175122966"><ele>1308.0</ele><time>2026-04-24T13:08:27.999Z</time></trkpt><trkpt lat="42.02754044538435" lon="13.169026186999425"><ele>1308.0</ele><time>2026-04-24T13:08:28.999Z</time></trkpt><trkpt lat="42.0276091573259" lon="13.168917121328699"><ele>1308.0</ele><time>2026-04-24T13:08:29.999Z</time></trkpt><trkpt lat="42.02767328630391" lon="13.168799611731401"><ele>1306.5</ele><time>2026-04-24T13:08:30.999Z</time></trkpt><trkpt lat="42.02773341678455" lon="13.168671556626574"><ele>1305.0</ele><time>2026-04-24T13:08:31.999Z</time></trkpt><trkpt lat="42.027824463804485" lon="13.168525213916498"><ele>1303.5</ele><time>2026-04-24T13:08:32.999Z</time></trkpt><trkpt lat="42.02792287721627" lon="13.168375660877198"><ele>1302.0</ele><time>2026-04-24T13:08:33.999Z</time></trkpt><trkpt lat="42.02802107711878" lon="13.168227681584494"><ele>1302.0</ele><time>2026-04-24T13:08:34.999Z</time></trkpt><trkpt lat="42.028089980886435" lon="13.16811251238695"><ele>1302.0</ele><time>2026-04-24T13:08:35.999Z</time></trkpt><trkpt lat="42.02814762908974" lon="13.16802020108195"><ele>1302.0</ele><time>2026-04-24T13:08:36.999Z</time></trkpt><trkpt lat="42.028195365303375" lon="13.167920572866109"><ele>1302.0</ele><time>2026-04-24T13:08:37.999Z</time></trkpt><trkpt lat="42.02829540909984" lon="13.167747056226807"><ele>1301.6</ele><time>2026-04-24T13:08:38.999Z</time></trkpt><trkpt lat="42.028355684873716" lon="13.167617216760679"><ele>1301.1999999999998</ele><time>2026-04-24T13:08:39.999Z</time></trkpt><trkpt lat="42.028411613251286" lon="13.167484329352135"><ele>1300.8</ele><time>2026-04-24T13:08:40.999Z</time></trkpt><trkpt lat="42.028471393679574" lon="13.167360381972644"><ele>1300.4</ele><time>2026-04-24T13:08:41.999Z</time></trkpt><trkpt lat="42.02854078467483" lon="13.167248959020476"><ele>1300.0</ele><time>2026-04-24T13:08:42.999Z</time></trkpt><trkpt lat="42.02859359982214" lon="13.167150558257056"><ele>1300.0</ele><time>2026-04-24T13:08:43.999Z</time></trkpt><trkpt lat="42.02864981957307" lon="13.167041110507078"><ele>1300.0</ele><time>2026-04-24T13:08:44.999Z</time></trkpt><trkpt lat="42.02870086244931" lon="13.16691310634992"><ele>1300.0</ele><time>2026-04-24T13:08:45.999Z</time></trkpt><trkpt lat="42.028748944804306" lon="13.16677762754101"><ele>1300.0</ele><time>2026-04-24T13:08:46.999Z</time></trkpt><trkpt lat="42.02879548099102" lon="13.166625752023194"><ele>1300.0</ele><time>2026-04-24T13:08:47.999Z</time></trkpt><trkpt lat="42.02883691662521" lon="13.166455368342028"><ele>1300.25</ele><time>2026-04-24T13:08:48.999Z</time></trkpt><trkpt lat="42.028877504790444" lon="13.166287682261238"><ele>1300.5</ele><time>2026-04-24T13:08:49.999Z</time></trkpt><trkpt lat="42.02892448245707" lon="13.16613391159717"><ele>1300.75</ele><time>2026-04-24T13:08:50.999Z</time></trkpt><trkpt lat="42.0289592103045" lon="13.165985933153323"><ele>1301.0</ele><time>2026-04-24T13:08:51.999Z</time></trkpt><trkpt lat="42.028990790599906" lon="13.165844026642356"><ele>1301.0</ele><time>2026-04-24T13:08:52.999Z</time></trkpt><trkpt lat="42.029005183861074" lon="13.165702084998742"><ele>1301.0</ele><time>2026-04-24T13:08:53.999Z</time></trkpt><trkpt lat="42.02900012655477" lon="13.165571253316825"><ele>1301.0</ele><time>2026-04-24T13:08:54.999Z</time></trkpt><trkpt lat="42.02901091292081" lon="13.165450254835624"><ele>1301.0</ele><time>2026-04-24T13:08:55.999Z</time></trkpt><trkpt lat="42.0290475446837" lon="13.165345280125656"><ele>1301.0</ele><time>2026-04-24T13:08:56.999Z</time></trkpt><trkpt lat="42.029115392795276" lon="13.16522576598735"><ele>1299.75</ele><time>2026-04-24T13:08:57.999Z</time></trkpt><trkpt lat="42.029203411581044" lon="13.165111380229435"><ele>1298.5</ele><time>2026-04-24T13:08:58.999Z</time></trkpt><trkpt lat="42.029307033833476" lon="13.164983520203654"><ele>1297.25</ele><time>2026-04-24T13:08:59.999Z</time></trkpt><trkpt lat="42.029410546126535" lon="13.164830349058747"><ele>1296.0</ele><time>2026-04-24T13:09:00.999Z</time></trkpt><trkpt lat="42.02952503669907" lon="13.164711238836828"><ele>1296.0</ele><time>2026-04-24T13:09:01.999Z</time></trkpt><trkpt lat="42.02961505012968" lon="13.16459162763557"><ele>1296.0</ele><time>2026-04-24T13:09:02.999Z</time></trkpt><trkpt lat="42.02969989922928" lon="13.164479341731727"><ele>1296.0</ele><time>2026-04-24T13:09:03.999Z</time></trkpt><trkpt lat="42.02977396070239" lon="13.164348009679504"><ele>1296.0</ele><time>2026-04-24T13:09:04.999Z</time></trkpt><trkpt lat="42.02983673951181" lon="13.164224382622253"><ele>1296.0</ele><time>2026-04-24T13:09:05.999Z</time></trkpt><trkpt lat="42.02990945779237" lon="13.164075319229589"><ele>1296.0</ele><time>2026-04-24T13:09:06.999Z</time></trkpt><trkpt lat="42.030004537165304" lon="13.163946586168699"><ele>1296.0</ele><time>2026-04-24T13:09:07.999Z</time></trkpt><trkpt lat="42.03007672698951" lon="13.163813609073719"><ele>1296.0</ele><time>2026-04-24T13:09:08.999Z</time></trkpt><trkpt lat="42.03018225526122" lon="13.163735785546537"><ele>1293.75</ele><time>2026-04-24T13:09:09.999Z</time></trkpt><trkpt lat="42.030267062233094" lon="13.16360268411094"><ele>1291.5</ele><time>2026-04-24T13:09:10.999Z</time></trkpt><trkpt lat="42.030364186522455" lon="13.163465964112067"><ele>1289.25</ele><time>2026-04-24T13:09:11.999Z</time></trkpt><trkpt lat="42.0304547025176" lon="13.16334457557344"><ele>1287.0</ele><time>2026-04-24T13:09:12.999Z</time></trkpt><trkpt lat="42.030542839492355" lon="13.163241636655298"><ele>1285.3999999999999</ele><time>2026-04-24T13:09:13.999Z</time></trkpt><trkpt lat="42.030613902882024" lon="13.163129494489844"><ele>1283.8</ele><time>2026-04-24T13:09:14.999Z</time></trkpt><trkpt lat="42.0306583779927" lon="13.162989549366179"><ele>1282.2</ele><time>2026-04-24T13:09:15.999Z</time></trkpt><trkpt lat="42.03070629099365" lon="13.162866941436635"><ele>1280.6</ele><time>2026-04-24T13:09:16.999Z</time></trkpt><trkpt lat="42.03076861698543" lon="13.162757020208483"><ele>1279.0</ele><time>2026-04-24T13:09:17.999Z</time></trkpt><trkpt lat="42.030862723851854" lon="13.162686204634674"><ele>1279.0</ele><time>2026-04-24T13:09:18.999Z</time></trkpt><trkpt lat="42.03095965949806" lon="13.162602758316725"><ele>1279.0</ele><time>2026-04-24T13:09:19.999Z</time></trkpt><trkpt lat="42.031066133795434" lon="13.162480712591769"><ele>1279.0</ele><time>2026-04-24T13:09:20.999Z</time></trkpt><trkpt lat="42.03117828418086" lon="13.162385349117791"><ele>1279.0</ele><time>2026-04-24T13:09:21.999Z</time></trkpt><trkpt lat="42.03127049498506" lon="13.162279521909094"><ele>1282.75</ele><time>2026-04-24T13:09:22.999Z</time></trkpt><trkpt lat="42.0313622860492" lon="13.162190660088275"><ele>1286.5</ele><time>2026-04-24T13:09:23.999Z</time></trkpt><trkpt lat="42.03142766140449" lon="13.162065905183335"><ele>1290.25</ele><time>2026-04-24T13:09:24.999Z</time></trkpt><trkpt lat="42.03148898594841" lon="13.161938476583053"><ele>1294.0</ele><time>2026-04-24T13:09:25.999Z</time></trkpt><trkpt lat="42.03155487883952" lon="13.16181431152179"><ele>1294.0</ele><time>2026-04-24T13:09:26.999Z</time></trkpt><trkpt lat="42.03160338690109" lon="13.161691278432688"><ele>1294.0</ele><time>2026-04-24T13:09:28Z</time></trkpt><trkpt lat="42.031658176729785" lon="13.161564871913686"><ele>1294.0</ele><time>2026-04-24T13:09:29Z</time></trkpt><trkpt lat="42.03171327326039" lon="13.16142766827838"><ele>1294.0</ele><time>2026-04-24T13:09:30Z</time></trkpt><trkpt lat="42.03181876923133" lon="13.161301973319642"><ele>1290.0</ele><time>2026-04-24T13:09:31Z</time></trkpt><trkpt lat="42.03193010047142" lon="13.161188709049435"><ele>1286.0</ele><time>2026-04-24T13:09:32Z</time></trkpt><trkpt lat="42.03204656522675" lon="13.161066529737516"><ele>1282.0</ele><time>2026-04-24T13:09:33Z</time></trkpt><trkpt lat="42.0321343278548" lon="13.160970444148207"><ele>1278.0</ele><time>2026-04-24T13:09:34Z</time></trkpt><trkpt lat="42.032232832851925" lon="13.160872506622743"><ele>1278.0</ele><time>2026-04-24T13:09:35Z</time></trkpt><trkpt lat="42.03231988767741" lon="13.160740035960758"><ele>1278.0</ele><time>2026-04-24T13:09:36Z</time></trkpt><trkpt lat="42.03238425984724" lon="13.160589198713643"><ele>1278.0</ele><time>2026-04-24T13:09:37Z</time></trkpt><trkpt lat="42.032474181214305" lon="13.160450242019346"><ele>1278.0</ele><time>2026-04-24T13:09:38Z</time></trkpt><trkpt lat="42.0325655477345" lon="13.160323210079769"><ele>1275.2</ele><time>2026-04-24T13:09:39Z</time></trkpt><trkpt lat="42.03265310500729" lon="13.160215154809755"><ele>1272.4</ele><time>2026-04-24T13:09:40Z</time></trkpt><trkpt lat="42.03273262328645" lon="13.160117535152688"><ele>1269.6000000000001</ele><time>2026-04-24T13:09:41Z</time></trkpt><trkpt lat="42.03280535485433" lon="13.160035544458845"><ele>1266.8</ele><time>2026-04-24T13:09:42Z</time></trkpt><trkpt lat="42.03288964838794" lon="13.159967692572737"><ele>1264.0</ele><time>2026-04-24T13:09:43Z</time></trkpt><trkpt lat="42.032981631866456" lon="13.159928163732825"><ele>1264.0</ele><time>2026-04-24T13:09:44Z</time></trkpt><trkpt lat="42.03308525664288" lon="13.159902954575447"><ele>1264.0</ele><time>2026-04-24T13:09:45Z</time></trkpt><trkpt lat="42.03318440423206" lon="13.159879217159714"><ele>1264.0</ele><time>2026-04-24T13:09:46Z</time></trkpt><trkpt lat="42.0332775361956" lon="13.159820733294124"><ele>1264.0</ele><time>2026-04-24T13:09:47Z</time></trkpt><trkpt lat="42.03335391013545" lon="13.159734496866514"><ele>1264.0</ele><time>2026-04-24T13:09:48Z</time></trkpt><trkpt lat="42.03341396006998" lon="13.159626934021846"><ele>1261.0</ele><time>2026-04-24T13:09:49Z</time></trkpt><trkpt lat="42.03348457155681" lon="13.159505695510207"><ele>1258.0</ele><time>2026-04-24T13:09:50Z</time></trkpt><trkpt lat="42.033554201623325" lon="13.159383218216377"><ele>1255.0</ele><time>2026-04-24T13:09:51Z</time></trkpt><trkpt lat="42.033621576544654" lon="13.159255780795082"><ele>1252.0</ele><time>2026-04-24T13:09:52Z</time></trkpt><trkpt lat="42.03369583868909" lon="13.159125929041736"><ele>1252.0</ele><time>2026-04-24T13:09:53Z</time></trkpt><trkpt lat="42.03375018409166" lon="13.158974774740308"><ele>1252.0</ele><time>2026-04-24T13:09:54Z</time></trkpt><trkpt lat="42.033793881397266" lon="13.158831433195624"><ele>1252.0</ele><time>2026-04-24T13:09:55Z</time></trkpt><trkpt lat="42.03384205323461" lon="13.158707394038641"><ele>1252.0</ele><time>2026-04-24T13:09:56Z</time></trkpt><trkpt lat="42.03386390648248" lon="13.158556970345009"><ele>1252.0</ele><time>2026-04-24T13:09:57Z</time></trkpt><trkpt lat="42.03386094571163" lon="13.158405391034085"><ele>1252.0</ele><time>2026-04-24T13:09:58Z</time></trkpt><trkpt lat="42.03385815547836" lon="13.158276026684586"><ele>1252.0</ele><time>2026-04-24T13:09:59Z</time></trkpt><trkpt lat="42.03385850894591" lon="13.158152833417931"><ele>1252.0</ele><time>2026-04-24T13:10:00Z</time></trkpt><trkpt lat="42.03390484308768" lon="13.158046567257177"><ele>1252.0</ele><time>2026-04-24T13:10:01Z</time></trkpt><trkpt lat="42.03395204471816" lon="13.157935880305114"><ele>1252.25</ele><time>2026-04-24T13:10:01.999Z</time></trkpt><trkpt lat="42.03400659877236" lon="13.157800728460131"><ele>1252.5</ele><time>2026-04-24T13:10:02.999Z</time></trkpt><trkpt lat="42.034093498378304" lon="13.15767851077346"><ele>1252.75</ele><time>2026-04-24T13:10:03.999Z</time></trkpt><trkpt lat="42.034199284909704" lon="13.15754011956933"><ele>1253.0</ele><time>2026-04-24T13:10:04.999Z</time></trkpt><trkpt lat="42.03430772237834" lon="13.157370128881876"><ele>1251.5</ele><time>2026-04-24T13:10:05.999Z</time></trkpt><trkpt lat="42.03442188484143" lon="13.15721845094987"><ele>1250.0</ele><time>2026-04-24T13:10:06.999Z</time></trkpt><trkpt lat="42.03452230910887" lon="13.15708746887684"><ele>1248.5</ele><time>2026-04-24T13:10:07.999Z</time></trkpt><trkpt lat="42.034612972748235" lon="13.156953176518599"><ele>1247.0</ele><time>2026-04-24T13:10:08.999Z</time></trkpt><trkpt lat="42.03467188742286" lon="13.15682565282489"><ele>1247.0</ele><time>2026-04-24T13:10:09.999Z</time></trkpt><trkpt lat="42.03471526884626" lon="13.156720905434709"><ele>1247.0</ele><time>2026-04-24T13:10:10.999Z</time></trkpt><trkpt lat="42.03474495478114" lon="13.156599738659637"><ele>1247.0</ele><time>2026-04-24T13:10:11.999Z</time></trkpt><trkpt lat="42.03476652900982" lon="13.156459757758283"><ele>1247.0</ele><time>2026-04-24T13:10:12.999Z</time></trkpt><trkpt lat="42.034810653588885" lon="13.15632213870422"><ele>1247.0</ele><time>2026-04-24T13:10:13.999Z</time></trkpt><trkpt lat="42.03485271497454" lon="13.156195522950128"><ele>1247.0</ele><time>2026-04-24T13:10:14.999Z</time></trkpt><trkpt lat="42.03489637408018" lon="13.156073640621651"><ele>1247.0</ele><time>2026-04-24T13:10:15.999Z</time></trkpt><trkpt lat="42.0349625240052" lon="13.155980594066582"><ele>1247.0</ele><time>2026-04-24T13:10:16.999Z</time></trkpt><trkpt lat="42.03504356884559" lon="13.155924618196128"><ele>1247.0</ele><time>2026-04-24T13:10:17.999Z</time></trkpt><trkpt lat="42.03509052203856" lon="13.155842651886191"><ele>1247.0</ele><time>2026-04-24T13:10:18.999Z</time></trkpt><trkpt lat="42.03513986722905" lon="13.155786256335277"><ele>1247.0</ele><time>2026-04-24T13:10:19.999Z</time></trkpt><trkpt lat="42.03513535763651" lon="13.1556477535997"><ele>1244.6</ele><time>2026-04-24T13:10:20.999Z</time></trkpt><trkpt lat="42.03513352576932" lon="13.155521612687194"><ele>1242.2</ele><time>2026-04-24T13:10:21.999Z</time></trkpt><trkpt lat="42.035174655726955" lon="13.155402528124455"><ele>1239.8</ele><time>2026-04-24T13:10:22.999Z</time></trkpt><trkpt lat="42.03521283314275" lon="13.155276040141723"><ele>1237.4</ele><time>2026-04-24T13:10:23.999Z</time></trkpt><trkpt lat="42.03524233173448" lon="13.155138388412707"><ele>1235.0</ele><time>2026-04-24T13:10:24.999Z</time></trkpt><trkpt lat="42.035291713693674" lon="13.155020866418292"><ele>1235.0</ele><time>2026-04-24T13:10:25.999Z</time></trkpt><trkpt lat="42.035355306194106" lon="13.154905037743063"><ele>1235.0</ele><time>2026-04-24T13:10:26.999Z</time></trkpt><trkpt lat="42.03544677013594" lon="13.154812443294833"><ele>1235.0</ele><time>2026-04-24T13:10:27.999Z</time></trkpt><trkpt lat="42.03554996307378" lon="13.154733816695162"><ele>1235.0</ele><time>2026-04-24T13:10:28.999Z</time></trkpt><trkpt lat="42.03567290790928" lon="13.154639837428272"><ele>1233.8</ele><time>2026-04-24T13:10:29.999Z</time></trkpt><trkpt lat="42.035779316134956" lon="13.15454763792218"><ele>1232.6</ele><time>2026-04-24T13:10:30.999Z</time></trkpt><trkpt lat="42.03588233139991" lon="13.154470794105963"><ele>1231.4</ele><time>2026-04-24T13:10:31.999Z</time></trkpt><trkpt lat="42.03596386996144" lon="13.15438185253753"><ele>1230.2</ele><time>2026-04-24T13:10:32.999Z</time></trkpt><trkpt lat="42.03604067923306" lon="13.154299414018535"><ele>1229.0</ele><time>2026-04-24T13:10:33.999Z</time></trkpt><trkpt lat="42.03611941039991" lon="13.154228631506578"><ele>1231.4</ele><time>2026-04-24T13:10:34.999Z</time></trkpt><trkpt lat="42.036213088263324" lon="13.15419195817632"><ele>1233.8000000000002</ele><time>2026-04-24T13:10:35.999Z</time></trkpt><trkpt lat="42.036313155095975" lon="13.154181138820483"><ele>1236.1999999999998</ele><time>2026-04-24T13:10:36.999Z</time></trkpt><trkpt lat="42.036395062897164" lon="13.154165222503652"><ele>1238.6</ele><time>2026-04-24T13:10:37.999Z</time></trkpt><trkpt lat="42.03647944030861" lon="13.154130333888881"><ele>1241.0</ele><time>2026-04-24T13:10:38.999Z</time></trkpt><trkpt lat="42.036547984243356" lon="13.154073125049713"><ele>1239.2</ele><time>2026-04-24T13:10:39.999Z</time></trkpt><trkpt lat="42.036575808616846" lon="13.153946400956078"><ele>1237.3999999999999</ele><time>2026-04-24T13:10:40.999Z</time></trkpt><trkpt lat="42.03660815435711" lon="13.153812392352888"><ele>1235.6</ele><time>2026-04-24T13:10:41.999Z</time></trkpt><trkpt lat="42.03667886479793" lon="13.153682195900496"><ele>1233.8</ele><time>2026-04-24T13:10:42.999Z</time></trkpt><trkpt lat="42.0367291232527" lon="13.15355324620932"><ele>1232.0</ele><time>2026-04-24T13:10:43.999Z</time></trkpt><trkpt lat="42.03678643589567" lon="13.153464286756575"><ele>1232.0</ele><time>2026-04-24T13:10:44.999Z</time></trkpt><trkpt lat="42.036823390498654" lon="13.153343686740355"><ele>1232.0</ele><time>2026-04-24T13:10:45.999Z</time></trkpt><trkpt lat="42.03684329296788" lon="13.153234501079792"><ele>1232.0</ele><time>2026-04-24T13:10:46.999Z</time></trkpt><trkpt lat="42.03684537018553" lon="13.153108166777177"><ele>1232.0</ele><time>2026-04-24T13:10:47.999Z</time></trkpt><trkpt lat="42.03683670192929" lon="13.152991552849258"><ele>1232.0</ele><time>2026-04-24T13:10:48.999Z</time></trkpt><trkpt lat="42.03686316160675" lon="13.152913219427823"><ele>1232.0</ele><time>2026-04-24T13:10:49.999Z</time></trkpt><trkpt lat="42.03697050895389" lon="13.152807222120066"><ele>1230.1666666666667</ele><time>2026-04-24T13:10:51.999Z</time></trkpt><trkpt lat="42.03704887323049" lon="13.152766312182242"><ele>1228.3333333333335</ele><time>2026-04-24T13:10:52.999Z</time></trkpt><trkpt lat="42.037121533961084" lon="13.152741214477144"><ele>1226.5</ele><time>2026-04-24T13:10:53.999Z</time></trkpt><trkpt lat="42.03721656872312" lon="13.15277212477484"><ele>1224.6666666666667</ele><time>2026-04-24T13:10:55.999Z</time></trkpt><trkpt lat="42.03725737088539" lon="13.152917373153286"><ele>1222.8333333333333</ele><time>2026-04-24T13:10:57.999Z</time></trkpt><trkpt lat="42.03730093201794" lon="13.15298182272563"><ele>1221.0</ele><time>2026-04-24T13:10:58.999Z</time></trkpt><trkpt lat="42.03734640753191" lon="13.153040789705122"><ele>1222.25</ele><time>2026-04-24T13:10:59.999Z</time></trkpt><trkpt lat="42.03748126092349" lon="13.153059112442152"><ele>1223.5</ele><time>2026-04-24T13:11:01.999Z</time></trkpt><trkpt lat="42.03756515348962" lon="13.153045132422035"><ele>1224.75</ele><time>2026-04-24T13:11:02.999Z</time></trkpt><trkpt lat="42.03767013384044" lon="13.153003729272127"><ele>1226.0</ele><time>2026-04-24T13:11:03.999Z</time></trkpt><trkpt lat="42.03778118592017" lon="13.152935479142872"><ele>1226.0</ele><time>2026-04-24T13:11:04.999Z</time></trkpt><trkpt lat="42.03790544018867" lon="13.152855507968388"><ele>1226.0</ele><time>2026-04-24T13:11:05.999Z</time></trkpt><trkpt lat="42.038031042211" lon="13.152782109607235"><ele>1226.0</ele><time>2026-04-24T13:11:06.999Z</time></trkpt><trkpt lat="42.03816285389798" lon="13.152692121366991"><ele>1226.0</ele><time>2026-04-24T13:11:07.999Z</time></trkpt><trkpt lat="42.03830310109423" lon="13.152605436263643"><ele>1226.6666666666667</ele><time>2026-04-24T13:11:08.999Z</time></trkpt><trkpt lat="42.03845534152722" lon="13.152518920776409"><ele>1227.3333333333333</ele><time>2026-04-24T13:11:09.999Z</time></trkpt><trkpt lat="42.03859667305416" lon="13.152438317953619"><ele>1228.0</ele><time>2026-04-24T13:11:10.999Z</time></trkpt><trkpt lat="42.03873345054842" lon="13.152339913911167"><ele>1222.3333333333333</ele><time>2026-04-24T13:11:11.999Z</time></trkpt><trkpt lat="42.03887777990201" lon="13.152220353093464"><ele>1216.6666666666667</ele><time>2026-04-24T13:11:12.999Z</time></trkpt><trkpt lat="42.03899937613939" lon="13.152114454210182"><ele>1211.0</ele><time>2026-04-24T13:11:13.999Z</time></trkpt><trkpt lat="42.039113006504394" lon="13.15200445960978"><ele>1212.2</ele><time>2026-04-24T13:11:14.999Z</time></trkpt><trkpt lat="42.039202539208254" lon="13.151897999062323"><ele>1213.3999999999999</ele><time>2026-04-24T13:11:15.999Z</time></trkpt><trkpt lat="42.03928437860449" lon="13.151790265178168"><ele>1214.6</ele><time>2026-04-24T13:11:16.999Z</time></trkpt><trkpt lat="42.03935724060023" lon="13.151706122607385"><ele>1215.8</ele><time>2026-04-24T13:11:17.999Z</time></trkpt><trkpt lat="42.039434639249734" lon="13.151655034986026"><ele>1217.0</ele><time>2026-04-24T13:11:18.999Z</time></trkpt><trkpt lat="42.039525039715954" lon="13.151622714860107"><ele>1217.0</ele><time>2026-04-24T13:11:19.999Z</time></trkpt><trkpt lat="42.03963538090427" lon="13.15159179251366"><ele>1217.0</ele><time>2026-04-24T13:11:20.999Z</time></trkpt><trkpt lat="42.03974108218451" lon="13.151556313446081"><ele>1217.0</ele><time>2026-04-24T13:11:21.999Z</time></trkpt><trkpt lat="42.0398265588137" lon="13.151494611424283"><ele>1217.0</ele><time>2026-04-24T13:11:22.999Z</time></trkpt><trkpt lat="42.039916581788" lon="13.15140431294964"><ele>1217.0</ele><time>2026-04-24T13:11:23.999Z</time></trkpt><trkpt lat="42.040015613945805" lon="13.15128293841639"><ele>1217.75</ele><time>2026-04-24T13:11:24.999Z</time></trkpt><trkpt lat="42.04010162699384" lon="13.15114199674867"><ele>1218.5</ele><time>2026-04-24T13:11:25.999Z</time></trkpt><trkpt lat="42.04018313471" lon="13.151012574889208"><ele>1219.25</ele><time>2026-04-24T13:11:26.999Z</time></trkpt><trkpt lat="42.04026552945575" lon="13.150887565290402"><ele>1220.0</ele><time>2026-04-24T13:11:27.999Z</time></trkpt><trkpt lat="42.040359424260274" lon="13.150754055471454"><ele>1215.75</ele><time>2026-04-24T13:11:28.999Z</time></trkpt><trkpt lat="42.040463838384625" lon="13.150618581430304"><ele>1211.5</ele><time>2026-04-24T13:11:29.999Z</time></trkpt><trkpt lat="42.04056263961307" lon="13.150490685191453"><ele>1207.25</ele><time>2026-04-24T13:11:30.999Z</time></trkpt><trkpt lat="42.04063988252381" lon="13.150389984788596"><ele>1203.0</ele><time>2026-04-24T13:11:31.999Z</time></trkpt><trkpt lat="42.040731245631704" lon="13.15027066480493"><ele>1204.8</ele><time>2026-04-24T13:11:32.999Z</time></trkpt><trkpt lat="42.04080868848268" lon="13.150172332727703"><ele>1206.6</ele><time>2026-04-24T13:11:34Z</time></trkpt><trkpt lat="42.04087498431296" lon="13.150070352955836"><ele>1208.4</ele><time>2026-04-24T13:11:35Z</time></trkpt><trkpt lat="42.040930721558475" lon="13.149936182109059"><ele>1210.2</ele><time>2026-04-24T13:11:36Z</time></trkpt><trkpt lat="42.0409658823063" lon="13.14982316839985"><ele>1212.0</ele><time>2026-04-24T13:11:37Z</time></trkpt><trkpt lat="42.04100060476673" lon="13.149693608138373"><ele>1212.0</ele><time>2026-04-24T13:11:38Z</time></trkpt><trkpt lat="42.04100825237345" lon="13.149554879249303"><ele>1212.0</ele><time>2026-04-24T13:11:39Z</time></trkpt><trkpt lat="42.040992820821074" lon="13.149421408283242"><ele>1212.0</ele><time>2026-04-24T13:11:40Z</time></trkpt><trkpt lat="42.04100610739969" lon="13.14929937913224"><ele>1212.0</ele><time>2026-04-24T13:11:41Z</time></trkpt><trkpt lat="42.04103412929737" lon="13.149165382647023"><ele>1212.0</ele><time>2026-04-24T13:11:42Z</time></trkpt><trkpt lat="42.04110716430808" lon="13.149027899173124"><ele>1206.0</ele><time>2026-04-24T13:11:43Z</time></trkpt><trkpt lat="42.04120024787704" lon="13.148878655019482"><ele>1200.0</ele><time>2026-04-24T13:11:44Z</time></trkpt><trkpt lat="42.04130806153007" lon="13.148716215742478"><ele>1194.0</ele><time>2026-04-24T13:11:45Z</time></trkpt><trkpt lat="42.041425650235944" lon="13.148549258297693"><ele>1194.0</ele><time>2026-04-24T13:11:46Z</time></trkpt><trkpt lat="42.04154655721728" lon="13.148421973726876"><ele>1194.0</ele><time>2026-04-24T13:11:47Z</time></trkpt><trkpt lat="42.041635797221915" lon="13.148282600890584"><ele>1194.0</ele><time>2026-04-24T13:11:48Z</time></trkpt><trkpt lat="42.04172633902651" lon="13.14817041104017"><ele>1194.0</ele><time>2026-04-24T13:11:49Z</time></trkpt><trkpt lat="42.041801566505605" lon="13.148031394645907"><ele>1195.2</ele><time>2026-04-24T13:11:50Z</time></trkpt><trkpt lat="42.041887093706784" lon="13.147956010055864"><ele>1196.4</ele><time>2026-04-24T13:11:51Z</time></trkpt><trkpt lat="42.04196293752613" lon="13.14788146227194"><ele>1197.6</ele><time>2026-04-24T13:11:52Z</time></trkpt><trkpt lat="42.04205302107878" lon="13.14780712755169"><ele>1198.8</ele><time>2026-04-24T13:11:53Z</time></trkpt><trkpt lat="42.04217365079064" lon="13.14771636016581"><ele>1200.0</ele><time>2026-04-24T13:11:54Z</time></trkpt><trkpt lat="42.04229904809466" lon="13.147619716000943"><ele>1200.0</ele><time>2026-04-24T13:11:55Z</time></trkpt><trkpt lat="42.042417929779425" lon="13.147493933332257"><ele>1200.0</ele><time>2026-04-24T13:11:56Z</time></trkpt><trkpt lat="42.042520525304205" lon="13.147382086528067"><ele>1200.0</ele><time>2026-04-24T13:11:57Z</time></trkpt><trkpt lat="42.0426267136112" lon="13.147267525646853"><ele>1200.0</ele><time>2026-04-24T13:11:58Z</time></trkpt><trkpt lat="42.04272662414165" lon="13.14715120571747"><ele>1201.5</ele><time>2026-04-24T13:11:58.999Z</time></trkpt><trkpt lat="42.04282012103933" lon="13.147035168238522"><ele>1203.0</ele><time>2026-04-24T13:11:59.999Z</time></trkpt><trkpt lat="42.04290220693045" lon="13.146919070967437"><ele>1204.5</ele><time>2026-04-24T13:12:00.999Z</time></trkpt><trkpt lat="42.042976559559186" lon="13.146771230055922"><ele>1206.0</ele><time>2026-04-24T13:12:01.999Z</time></trkpt><trkpt lat="42.04303576443167" lon="13.146611949035046"><ele>1202.75</ele><time>2026-04-24T13:12:02.999Z</time></trkpt><trkpt lat="42.043109542092445" lon="13.146456759523003"><ele>1199.5</ele><time>2026-04-24T13:12:03.999Z</time></trkpt><trkpt lat="42.043174593431075" lon="13.146291780795627"><ele>1196.25</ele><time>2026-04-24T13:12:04.999Z</time></trkpt><trkpt lat="42.04322318978853" lon="13.146118272348655"><ele>1193.0</ele><time>2026-04-24T13:12:05.999Z</time></trkpt><trkpt lat="42.04327539317064" lon="13.145976512956597"><ele>1195.4</ele><time>2026-04-24T13:12:06.999Z</time></trkpt><trkpt lat="42.043328588565835" lon="13.145864938680406"><ele>1197.8</ele><time>2026-04-24T13:12:07.999Z</time></trkpt><trkpt lat="42.043401059515155" lon="13.145799117979697"><ele>1200.2</ele><time>2026-04-24T13:12:08.999Z</time></trkpt><trkpt lat="42.04348767736144" lon="13.145716299180837"><ele>1202.6</ele><time>2026-04-24T13:12:09.999Z</time></trkpt><trkpt lat="42.04357694723976" lon="13.145620949698941"><ele>1205.0</ele><time>2026-04-24T13:12:10.999Z</time></trkpt><trkpt lat="42.04365393151211" lon="13.145535937613923"><ele>1205.0</ele><time>2026-04-24T13:12:11.999Z</time></trkpt><trkpt lat="42.043735378195635" lon="13.145428363482278"><ele>1205.0</ele><time>2026-04-24T13:12:12.999Z</time></trkpt><trkpt lat="42.043766650110804" lon="13.145276844783073"><ele>1205.0</ele><time>2026-04-24T13:12:13.999Z</time></trkpt><trkpt lat="42.04383096339634" lon="13.145188084269236"><ele>1205.0</ele><time>2026-04-24T13:12:14.999Z</time></trkpt><trkpt lat="42.0438922628064" lon="13.145112268678796"><ele>1205.0</ele><time>2026-04-24T13:12:15.999Z</time></trkpt><trkpt lat="42.04398586309503" lon="13.145041263461044"><ele>1205.0</ele><time>2026-04-24T13:12:16.999Z</time></trkpt><trkpt lat="42.04410092970483" lon="13.144962884500536"><ele>1205.0</ele><time>2026-04-24T13:12:17.999Z</time></trkpt><trkpt lat="42.04419210347469" lon="13.144846153906979"><ele>1205.0</ele><time>2026-04-24T13:12:18.999Z</time></trkpt><trkpt lat="42.044286919491526" lon="13.144725800379069"><ele>1205.0</ele><time>2026-04-24T13:12:19.999Z</time></trkpt><trkpt lat="42.044360972281325" lon="13.144585078312543"><ele>1204.75</ele><time>2026-04-24T13:12:20.999Z</time></trkpt><trkpt lat="42.044421399121944" lon="13.144431916489774"><ele>1204.5</ele><time>2026-04-24T13:12:21.999Z</time></trkpt><trkpt lat="42.04450820405303" lon="13.14431055618579"><ele>1204.25</ele><time>2026-04-24T13:12:22.999Z</time></trkpt><trkpt lat="42.04458531809447" lon="13.144170768357343"><ele>1204.0</ele><time>2026-04-24T13:12:23.999Z</time></trkpt><trkpt lat="42.04465670390756" lon="13.144028537174862"><ele>1205.75</ele><time>2026-04-24T13:12:24.999Z</time></trkpt><trkpt lat="42.04474937197115" lon="13.143893109377345"><ele>1207.5</ele><time>2026-04-24T13:12:25.999Z</time></trkpt><trkpt lat="42.04482711125145" lon="13.143755972784097"><ele>1209.25</ele><time>2026-04-24T13:12:26.999Z</time></trkpt><trkpt lat="42.04490205649858" lon="13.143632301308697"><ele>1211.0</ele><time>2026-04-24T13:12:27.999Z</time></trkpt><trkpt lat="42.044978175882356" lon="13.143484196204726"><ele>1211.0</ele><time>2026-04-24T13:12:28.999Z</time></trkpt><trkpt lat="42.045058077617846" lon="13.143314274327007"><ele>1211.0</ele><time>2026-04-24T13:12:29.999Z</time></trkpt><trkpt lat="42.0451319596865" lon="13.143128912298799"><ele>1211.0</ele><time>2026-04-24T13:12:30.999Z</time></trkpt><trkpt lat="42.04520921273457" lon="13.142956353635906"><ele>1206.5</ele><time>2026-04-24T13:12:31.999Z</time></trkpt><trkpt lat="42.04529092473428" lon="13.142812648958122"><ele>1202.0</ele><time>2026-04-24T13:12:32.999Z</time></trkpt><trkpt lat="42.04536411548047" lon="13.142648619231071"><ele>1197.5</ele><time>2026-04-24T13:12:33.999Z</time></trkpt><trkpt lat="42.04543278648575" lon="13.142496062047215"><ele>1193.0</ele><time>2026-04-24T13:12:34.999Z</time></trkpt><trkpt lat="42.045484675482946" lon="13.142337572521496"><ele>1190.0</ele><time>2026-04-24T13:12:36Z</time></trkpt><trkpt lat="42.04552261914986" lon="13.142174423524938"><ele>1187.0</ele><time>2026-04-24T13:12:37Z</time></trkpt><trkpt lat="42.045545293219" lon="13.14200583776139"><ele>1184.0</ele><time>2026-04-24T13:12:38Z</time></trkpt><trkpt lat="42.04555889383712" lon="13.141847179025818"><ele>1181.0</ele><time>2026-04-24T13:12:39Z</time></trkpt><trkpt lat="42.04558778456618" lon="13.141708464784866"><ele>1181.0</ele><time>2026-04-24T13:12:40Z</time></trkpt><trkpt lat="42.0456084618" lon="13.141565563616219"><ele>1181.0</ele><time>2026-04-24T13:12:41Z</time></trkpt><trkpt lat="42.045621846702076" lon="13.141442582714355"><ele>1181.0</ele><time>2026-04-24T13:12:42Z</time></trkpt><trkpt lat="42.04562633889748" lon="13.141322097270221"><ele>1181.0</ele><time>2026-04-24T13:12:43Z</time></trkpt><trkpt lat="42.045618927197616" lon="13.141230790776119"><ele>1181.0</ele><time>2026-04-24T13:12:44Z</time></trkpt><trkpt lat="42.04564544182313" lon="13.141144667610485"><ele>1181.0</ele><time>2026-04-24T13:12:45Z</time></trkpt><trkpt lat="42.045718366897546" lon="13.14109121015149"><ele>1181.1666666666667</ele><time>2026-04-24T13:12:47Z</time></trkpt><trkpt lat="42.04578963855713" lon="13.141066489033284"><ele>1181.3333333333335</ele><time>2026-04-24T13:12:48Z</time></trkpt><trkpt lat="42.045867841587565" lon="13.141018636919002"><ele>1181.5</ele><time>2026-04-24T13:12:49Z</time></trkpt><trkpt lat="42.04592745241514" lon="13.14094250345744"><ele>1181.6666666666667</ele><time>2026-04-24T13:12:50Z</time></trkpt><trkpt lat="42.04596978722001" lon="13.140843349024395"><ele>1181.8333333333333</ele><time>2026-04-24T13:12:51Z</time></trkpt><trkpt lat="42.04600475551285" lon="13.140714214060123"><ele>1182.0</ele><time>2026-04-24T13:12:52Z</time></trkpt><trkpt lat="42.04605927902818" lon="13.1405903603522"><ele>1182.0</ele><time>2026-04-24T13:12:53Z</time></trkpt><trkpt lat="42.046110250417364" lon="13.140425784487539"><ele>1182.0</ele><time>2026-04-24T13:12:54Z</time></trkpt><trkpt lat="42.04616154813551" lon="13.140268752385929"><ele>1182.0</ele><time>2026-04-24T13:12:55Z</time></trkpt><trkpt lat="42.04623565236843" lon="13.140135594361464"><ele>1182.0</ele><time>2026-04-24T13:12:56Z</time></trkpt><trkpt lat="42.04628966462087" lon="13.14000431874107"><ele>1182.0</ele><time>2026-04-24T13:12:57Z</time></trkpt><trkpt lat="42.04633776516542" lon="13.139883899575747"><ele>1182.0</ele><time>2026-04-24T13:12:58Z</time></trkpt><trkpt lat="42.04636802780563" lon="13.139751485037612"><ele>1182.0</ele><time>2026-04-24T13:12:59Z</time></trkpt><trkpt lat="42.046411542847295" lon="13.139605497279918"><ele>1182.0</ele><time>2026-04-24T13:13:00Z</time></trkpt><trkpt lat="42.046431830561396" lon="13.139461697211084"><ele>1182.0</ele><time>2026-04-24T13:13:01Z</time></trkpt><trkpt lat="42.04644925803687" lon="13.139296144437763"><ele>1179.2</ele><time>2026-04-24T13:13:02Z</time></trkpt><trkpt lat="42.0464630763214" lon="13.139135028324835"><ele>1176.4</ele><time>2026-04-24T13:13:03Z</time></trkpt><trkpt lat="42.046478352336344" lon="13.138990445398052"><ele>1173.6</ele><time>2026-04-24T13:13:04Z</time></trkpt><trkpt lat="42.04649822892047" lon="13.138872369987245"><ele>1170.8</ele><time>2026-04-24T13:13:05Z</time></trkpt><trkpt lat="42.04651485296302" lon="13.138770911282677"><ele>1168.0</ele><time>2026-04-24T13:13:06Z</time></trkpt><trkpt lat="42.04658407457705" lon="13.13869446636052"><ele>1170.2</ele><time>2026-04-24T13:13:07Z</time></trkpt><trkpt lat="42.046659854247515" lon="13.138630649039186"><ele>1172.4</ele><time>2026-04-24T13:13:08Z</time></trkpt><trkpt lat="42.04671492649965" lon="13.138564009508581"><ele>1174.6000000000001</ele><time>2026-04-24T13:13:09Z</time></trkpt><trkpt lat="42.04678139015481" lon="13.138458579194811"><ele>1176.8</ele><time>2026-04-24T13:13:11Z</time></trkpt><trkpt lat="42.0467484435651" lon="13.138297033575546"><ele>1179.0</ele><time>2026-04-24T13:13:13Z</time></trkpt><trkpt lat="42.04671267276154" lon="13.13819431530925"><ele>1179.0</ele><time>2026-04-24T13:13:14Z</time></trkpt><trkpt lat="42.04666896224712" lon="13.138080317248562"><ele>1179.0</ele><time>2026-04-24T13:13:15Z</time></trkpt><trkpt lat="42.046624656870925" lon="13.137956239959097"><ele>1179.0</ele><time>2026-04-24T13:13:16Z</time></trkpt><trkpt lat="42.04659753063333" lon="13.13784971129393"><ele>1179.0</ele><time>2026-04-24T13:13:17Z</time></trkpt><trkpt lat="42.046568297505615" lon="13.13772733861637"><ele>1179.0</ele><time>2026-04-24T13:13:19Z</time></trkpt><trkpt lat="42.04654504917599" lon="13.137631958584794"><ele>1174.8</ele><time>2026-04-24T13:13:21Z</time></trkpt><trkpt lat="42.04645108023816" lon="13.137581173997122"><ele>1170.6000000000001</ele><time>2026-04-24T13:13:23Z</time></trkpt><trkpt lat="42.0464442937022" lon="13.137474002768487"><ele>1166.4</ele><time>2026-04-24T13:13:25Z</time></trkpt><trkpt lat="42.04646935076721" lon="13.137322217330956"><ele>1162.2</ele><time>2026-04-24T13:13:27Z</time></trkpt><trkpt lat="42.04649414353" lon="13.13721733090745"><ele>1158.0</ele><time>2026-04-24T13:13:28Z</time></trkpt><trkpt lat="42.04651911677097" lon="13.137091453003707"><ele>1156.6666666666667</ele><time>2026-04-24T13:13:29Z</time></trkpt><trkpt lat="42.04654740471635" lon="13.1369697988653"><ele>1155.3333333333333</ele><time>2026-04-24T13:13:30Z</time></trkpt><trkpt lat="42.04657681136754" lon="13.1368650001791"><ele>1154.0</ele><time>2026-04-24T13:13:31Z</time></trkpt><trkpt lat="42.04658641431469" lon="13.136748883390686"><ele>1152.6666666666665</ele><time>2026-04-24T13:13:32Z</time></trkpt><trkpt lat="42.046588672695435" lon="13.13663940225747"><ele>1151.3333333333333</ele><time>2026-04-24T13:13:33Z</time></trkpt><trkpt lat="42.04658422040839" lon="13.13652550886439"><ele>1150.0</ele><time>2026-04-24T13:13:34Z</time></trkpt><trkpt lat="42.04657455435153" lon="13.136418932836609"><ele>1148.5</ele><time>2026-04-24T13:13:35Z</time></trkpt><trkpt lat="42.04655866017382" lon="13.136317003922535"><ele>1147.0</ele><time>2026-04-24T13:13:36Z</time></trkpt><trkpt lat="42.04653796177446" lon="13.136214682371078"><ele>1145.5</ele><time>2026-04-24T13:13:36.999Z</time></trkpt><trkpt lat="42.046527463201265" lon="13.136114148887051"><ele>1144.0</ele><time>2026-04-24T13:13:37.999Z</time></trkpt><trkpt lat="42.04651323820409" lon="13.136010836574126"><ele>1142.5</ele><time>2026-04-24T13:13:38.999Z</time></trkpt><trkpt lat="42.04650357090118" lon="13.135920165624757"><ele>1141.0</ele><time>2026-04-24T13:13:40Z</time></trkpt><trkpt lat="42.046482117003634" lon="13.135822127178464"><ele>1141.0</ele><time>2026-04-24T13:13:41Z</time></trkpt><trkpt lat="42.04646518254091" lon="13.135727260035447"><ele>1141.0</ele><time>2026-04-24T13:13:42Z</time></trkpt><trkpt lat="42.04644446245329" lon="13.135627751329244"><ele>1141.0</ele><time>2026-04-24T13:13:43Z</time></trkpt><trkpt lat="42.046428668656375" lon="13.135521835185841"><ele>1141.0</ele><time>2026-04-24T13:13:44Z</time></trkpt><trkpt lat="42.04643180391412" lon="13.135415817051856"><ele>1141.0</ele><time>2026-04-24T13:13:45Z</time></trkpt><trkpt lat="42.04642703439849" lon="13.135315821748351"><ele>1141.0</ele><time>2026-04-24T13:13:46Z</time></trkpt><trkpt lat="42.04642438620945" lon="13.135222141565384"><ele>1139.8333333333333</ele><time>2026-04-24T13:13:47Z</time></trkpt><trkpt lat="42.04642126166927" lon="13.135123361409608"><ele>1138.6666666666665</ele><time>2026-04-24T13:13:48Z</time></trkpt><trkpt lat="42.04641942414036" lon="13.13501364518186"><ele>1137.5</ele><time>2026-04-24T13:13:49Z</time></trkpt><trkpt lat="42.04641755371082" lon="13.134901359981258"><ele>1136.3333333333333</ele><time>2026-04-24T13:13:50Z</time></trkpt><trkpt lat="42.04640838408768" lon="13.134791612411446"><ele>1135.1666666666667</ele><time>2026-04-24T13:13:51Z</time></trkpt><trkpt lat="42.04639514667568" lon="13.134685414071763"><ele>1134.0</ele><time>2026-04-24T13:13:52Z</time></trkpt><trkpt lat="42.04638090855814" lon="13.134587487418782"><ele>1133.5</ele><time>2026-04-24T13:13:53Z</time></trkpt><trkpt lat="42.046366132505014" lon="13.134486439010534"><ele>1133.0</ele><time>2026-04-24T13:13:54Z</time></trkpt><trkpt lat="42.04635040359582" lon="13.134378874318559"><ele>1132.5</ele><time>2026-04-24T13:13:55Z</time></trkpt><trkpt lat="42.0463337486996" lon="13.13426497708149"><ele>1132.0</ele><time>2026-04-24T13:13:56Z</time></trkpt><trkpt lat="42.046317310990204" lon="13.134151043576107"><ele>1131.5</ele><time>2026-04-24T13:13:57Z</time></trkpt><trkpt lat="42.04630127273794" lon="13.134036485889995"><ele>1131.0</ele><time>2026-04-24T13:13:58Z</time></trkpt><trkpt lat="42.046286759229346" lon="13.133926932262291"><ele>1130.8333333333333</ele><time>2026-04-24T13:13:59Z</time></trkpt><trkpt lat="42.046273625546085" lon="13.133820743693642"><ele>1130.6666666666667</ele><time>2026-04-24T13:14:00Z</time></trkpt><trkpt lat="42.04626185585533" lon="13.133715075310153"><ele>1130.5</ele><time>2026-04-24T13:14:01Z</time></trkpt><trkpt lat="42.04624597580135" lon="13.133590347695488"><ele>1130.3333333333335</ele><time>2026-04-24T13:14:02Z</time></trkpt><trkpt lat="42.04626816460144" lon="13.133473046028227"><ele>1130.1666666666667</ele><time>2026-04-24T13:14:03Z</time></trkpt><trkpt lat="42.046277632732156" lon="13.133355696852718"><ele>1130.0</ele><time>2026-04-24T13:14:04Z</time></trkpt><trkpt lat="42.04628946803327" lon="13.133235173467884"><ele>1128.6666666666667</ele><time>2026-04-24T13:14:05Z</time></trkpt><trkpt lat="42.04629951196198" lon="13.133132892360877"><ele>1127.3333333333335</ele><time>2026-04-24T13:14:06Z</time></trkpt><trkpt lat="42.04631050000982" lon="13.13302530127691"><ele>1126.0</ele><time>2026-04-24T13:14:07Z</time></trkpt><trkpt lat="42.04632494378874" lon="13.132915485614035"><ele>1124.6666666666667</ele><time>2026-04-24T13:14:08Z</time></trkpt><trkpt lat="42.04634431266906" lon="13.132817045319708"><ele>1123.3333333333333</ele><time>2026-04-24T13:14:09Z</time></trkpt><trkpt lat="42.04635207310206" lon="13.132718981230472"><ele>1122.0</ele><time>2026-04-24T13:14:10Z</time></trkpt><trkpt lat="42.04639258310148" lon="13.132627910260815"><ele>1122.0</ele><time>2026-04-24T13:14:11Z</time></trkpt><trkpt lat="42.04644323945437" lon="13.132547080454346"><ele>1122.0</ele><time>2026-04-24T13:14:12Z</time></trkpt><trkpt lat="42.046491304874145" lon="13.132475963696182"><ele>1122.0</ele><time>2026-04-24T13:14:13Z</time></trkpt><trkpt lat="42.04653427108005" lon="13.132393035542401"><ele>1122.0</ele><time>2026-04-24T13:14:14Z</time></trkpt><trkpt lat="42.04657504603682" lon="13.13231022876103"><ele>1122.0</ele><time>2026-04-24T13:14:15Z</time></trkpt><trkpt lat="42.04658753654859" lon="13.132191940170122"><ele>1122.0</ele><time>2026-04-24T13:14:16Z</time></trkpt><trkpt lat="42.04658266117489" lon="13.13206842684677"><ele>1120.6</ele><time>2026-04-24T13:14:17Z</time></trkpt><trkpt lat="42.046577152276946" lon="13.131949605358985"><ele>1119.2</ele><time>2026-04-24T13:14:18Z</time></trkpt><trkpt lat="42.04656547258565" lon="13.131818393196728"><ele>1117.8</ele><time>2026-04-24T13:14:19Z</time></trkpt><trkpt lat="42.046592388984365" lon="13.131687087367665"><ele>1116.4</ele><time>2026-04-24T13:14:20Z</time></trkpt><trkpt lat="42.04662448501731" lon="13.131559542142421"><ele>1115.0</ele><time>2026-04-24T13:14:21Z</time></trkpt><trkpt lat="42.04666100117158" lon="13.131426062964865"><ele>1117.8</ele><time>2026-04-24T13:14:22Z</time></trkpt><trkpt lat="42.04669908147955" lon="13.131298589282832"><ele>1120.6</ele><time>2026-04-24T13:14:23Z</time></trkpt><trkpt lat="42.04674162291933" lon="13.131180946702727"><ele>1123.4</ele><time>2026-04-24T13:14:24Z</time></trkpt><trkpt lat="42.046796112554766" lon="13.131075156283329"><ele>1126.2</ele><time>2026-04-24T13:14:25Z</time></trkpt><trkpt lat="42.04685491673512" lon="13.130976754437484"><ele>1129.0</ele><time>2026-04-24T13:14:26Z</time></trkpt><trkpt lat="42.04691573571065" lon="13.130883053837353"><ele>1129.0</ele><time>2026-04-24T13:14:27Z</time></trkpt><trkpt lat="42.04697464091379" lon="13.130787286635519"><ele>1129.0</ele><time>2026-04-24T13:14:28Z</time></trkpt><trkpt lat="42.04702968798131" lon="13.130692122882959"><ele>1129.0</ele><time>2026-04-24T13:14:29Z</time></trkpt><trkpt lat="42.0470848128159" lon="13.130593043854372"><ele>1129.0</ele><time>2026-04-24T13:14:30Z</time></trkpt><trkpt lat="42.04712949819668" lon="13.130482995401493"><ele>1129.0</ele><time>2026-04-24T13:14:31Z</time></trkpt><trkpt lat="42.04717774122584" lon="13.13038849145029"><ele>1128.6666666666665</ele><time>2026-04-24T13:14:32Z</time></trkpt><trkpt lat="42.04721985026465" lon="13.130290488898446"><ele>1128.3333333333333</ele><time>2026-04-24T13:14:33Z</time></trkpt><trkpt lat="42.04727017496219" lon="13.130195800377189"><ele>1128.0</ele><time>2026-04-24T13:14:34Z</time></trkpt><trkpt lat="42.04732142477167" lon="13.130102640423821"><ele>1127.6666666666667</ele><time>2026-04-24T13:14:35Z</time></trkpt><trkpt lat="42.047369115867085" lon="13.130015633789679"><ele>1127.3333333333335</ele><time>2026-04-24T13:14:36Z</time></trkpt><trkpt lat="42.04742775522945" lon="13.129926517386394"><ele>1127.0</ele><time>2026-04-24T13:14:37Z</time></trkpt><trkpt lat="42.04748109853694" lon="13.129847993288932"><ele>1127.0</ele><time>2026-04-24T13:14:38Z</time></trkpt><trkpt lat="42.04752915619853" lon="13.129778836255019"><ele>1127.0</ele><time>2026-04-24T13:14:39Z</time></trkpt><trkpt lat="42.04757031848672" lon="13.129692620957147"><ele>1127.0</ele><time>2026-04-24T13:14:40Z</time></trkpt><trkpt lat="42.047588209570094" lon="13.129592589961133"><ele>1127.0</ele><time>2026-04-24T13:14:41Z</time></trkpt><trkpt lat="42.04758510394532" lon="13.129480693488633"><ele>1127.0</ele><time>2026-04-24T13:14:42Z</time></trkpt><trkpt lat="42.04756589313519" lon="13.12936004382458"><ele>1127.0</ele><time>2026-04-24T13:14:43Z</time></trkpt><trkpt lat="42.04757815125732" lon="13.12923469439735"><ele>1127.0</ele><time>2026-04-24T13:14:44Z</time></trkpt><trkpt lat="42.04757825260068" lon="13.129113289087737"><ele>1127.0</ele><time>2026-04-24T13:14:45Z</time></trkpt><trkpt lat="42.04757825260066" lon="13.128997855633552"><ele>1127.0</ele><time>2026-04-24T13:14:46Z</time></trkpt><trkpt lat="42.047578252600665" lon="13.12888557734039"><ele>1127.0</ele><time>2026-04-24T13:14:47Z</time></trkpt><trkpt lat="42.04757825260126" lon="13.128772391454754"><ele>1127.0</ele><time>2026-04-24T13:14:48Z</time></trkpt><trkpt lat="42.04757813096451" lon="13.128656377047665"><ele>1127.0</ele><time>2026-04-24T13:14:49Z</time></trkpt><trkpt lat="42.047576003777614" lon="13.128562213615233"><ele>1126.4285714285713</ele><time>2026-04-24T13:14:50Z</time></trkpt><trkpt lat="42.04757001608541" lon="13.128444580733385"><ele>1125.857142857143</ele><time>2026-04-24T13:14:51Z</time></trkpt><trkpt lat="42.04756329970557" lon="13.128335393360592"><ele>1125.2857142857142</ele><time>2026-04-24T13:14:52Z</time></trkpt><trkpt lat="42.047564652387386" lon="13.128248534856427"><ele>1124.7142857142858</ele><time>2026-04-24T13:14:53Z</time></trkpt><trkpt lat="42.04756191689976" lon="13.128162067314586"><ele>1124.142857142857</ele><time>2026-04-24T13:14:54Z</time></trkpt><trkpt lat="42.04759852187756" lon="13.128087141345967"><ele>1123.5714285714284</ele><time>2026-04-24T13:14:55Z</time></trkpt><trkpt lat="42.04764764414666" lon="13.128029295666439"><ele>1123.0</ele><time>2026-04-24T13:14:56Z</time></trkpt><trkpt lat="42.04771491191736" lon="13.127979639168053"><ele>1121.6666666666665</ele><time>2026-04-24T13:14:57Z</time></trkpt><trkpt lat="42.047800284802534" lon="13.127938389076544"><ele>1120.3333333333333</ele><time>2026-04-24T13:14:58Z</time></trkpt><trkpt lat="42.04787457820518" lon="13.12790876894811"><ele>1119.0</ele><time>2026-04-24T13:14:59Z</time></trkpt><trkpt lat="42.047938423364634" lon="13.127862551618534"><ele>1117.6666666666667</ele><time>2026-04-24T13:15:00Z</time></trkpt><trkpt lat="42.0479853864088" lon="13.127780119739542"><ele>1116.3333333333335</ele><time>2026-04-24T13:15:01Z</time></trkpt><trkpt lat="42.048016546573415" lon="13.127667109741719"><ele>1115.0</ele><time>2026-04-24T13:15:02Z</time></trkpt><trkpt lat="42.04803803999394" lon="13.127528894612345"><ele>1115.0</ele><time>2026-04-24T13:15:03Z</time></trkpt><trkpt lat="42.048055520353614" lon="13.127406990884763"><ele>1115.0</ele><time>2026-04-24T13:15:04Z</time></trkpt><trkpt lat="42.04808721492955" lon="13.12729512922"><ele>1115.0</ele><time>2026-04-24T13:15:05Z</time></trkpt><trkpt lat="42.04813157162332" lon="13.127191949553522"><ele>1115.0</ele><time>2026-04-24T13:15:06Z</time></trkpt><trkpt lat="42.04817020612521" lon="13.127088264033418"><ele>1115.0</ele><time>2026-04-24T13:15:07Z</time></trkpt><trkpt lat="42.048205638855265" lon="13.126997434832944"><ele>1115.0</ele><time>2026-04-24T13:15:08Z</time></trkpt><trkpt lat="42.04820775261765" lon="13.126893408647522"><ele>1114.8333333333335</ele><time>2026-04-24T13:15:09Z</time></trkpt><trkpt lat="42.04818523835059" lon="13.126810154554903"><ele>1114.6666666666667</ele><time>2026-04-24T13:15:10Z</time></trkpt><trkpt lat="42.04814628108261" lon="13.126740816922892"><ele>1114.5</ele><time>2026-04-24T13:15:11Z</time></trkpt><trkpt lat="42.04808532185679" lon="13.12668957634797"><ele>1114.3333333333333</ele><time>2026-04-24T13:15:12Z</time></trkpt><trkpt lat="42.048004800122044" lon="13.126684916841999"><ele>1114.1666666666665</ele><time>2026-04-24T13:15:13Z</time></trkpt><trkpt lat="42.04793001327502" lon="13.126635765602542"><ele>1114.0</ele><time>2026-04-24T13:15:14Z</time></trkpt><trkpt lat="42.04783598804373" lon="13.12660141946412"><ele>1114.0</ele><time>2026-04-24T13:15:15Z</time></trkpt><trkpt lat="42.04776092573036" lon="13.126572500564409"><ele>1114.0</ele><time>2026-04-24T13:15:16Z</time></trkpt><trkpt lat="42.04769266568705" lon="13.126541739101025"><ele>1114.0</ele><time>2026-04-24T13:15:17Z</time></trkpt><trkpt lat="42.047627601513405" lon="13.126505418809494"><ele>1114.0</ele><time>2026-04-24T13:15:18Z</time></trkpt><trkpt lat="42.04756126940892" lon="13.126460973935348"><ele>1114.0</ele><time>2026-04-24T13:15:19Z</time></trkpt><trkpt lat="42.047506760865005" lon="13.126413390492305"><ele>1114.0</ele><time>2026-04-24T13:15:20Z</time></trkpt><trkpt lat="42.047456490614564" lon="13.126358743007476"><ele>1114.0</ele><time>2026-04-24T13:15:21Z</time></trkpt><trkpt lat="42.047393775864705" lon="13.126251490485314"><ele>1110.6000000000001</ele><time>2026-04-24T13:15:23Z</time></trkpt><trkpt lat="42.047371624162984" lon="13.12610812411619"><ele>1107.2</ele><time>2026-04-24T13:15:25Z</time></trkpt><trkpt lat="42.04736852890329" lon="13.126017160121801"><ele>1103.8000000000002</ele><time>2026-04-24T13:15:25.999Z</time></trkpt><trkpt lat="42.047372985995736" lon="13.12585225907975"><ele>1100.4</ele><time>2026-04-24T13:15:27.999Z</time></trkpt><trkpt lat="42.04738143410859" lon="13.125691897091452"><ele>1097.0</ele><time>2026-04-24T13:15:29.999Z</time></trkpt><trkpt lat="42.04734769568889" lon="13.125556143137453"><ele>1095.0</ele><time>2026-04-24T13:15:31.999Z</time></trkpt><trkpt lat="42.04721784451152" lon="13.125513991930198"><ele>1093.0</ele><time>2026-04-24T13:15:33.999Z</time></trkpt><trkpt lat="42.04711774456263" lon="13.125461018658543"><ele>1091.0</ele><time>2026-04-24T13:15:35.999Z</time></trkpt><trkpt lat="42.04705490137257" lon="13.125339437475795"><ele>1089.0</ele><time>2026-04-24T13:15:37.999Z</time></trkpt><trkpt lat="42.047053732038215" lon="13.125188216354442"><ele>1089.0</ele><time>2026-04-24T13:15:39.999Z</time></trkpt><trkpt lat="42.04708176009008" lon="13.125100249364841"><ele>1089.0</ele><time>2026-04-24T13:15:40.999Z</time></trkpt><trkpt lat="42.04712737921594" lon="13.125023946387477"><ele>1089.0</ele><time>2026-04-24T13:15:41.999Z</time></trkpt><trkpt lat="42.04717516303059" lon="13.124960909294598"><ele>1089.0</ele><time>2026-04-24T13:15:42.999Z</time></trkpt><trkpt lat="42.04723713296723" lon="13.124912991062418"><ele>1089.0</ele><time>2026-04-24T13:15:43.999Z</time></trkpt><trkpt lat="42.04730435565248" lon="13.124863755811576"><ele>1089.0</ele><time>2026-04-24T13:15:44.999Z</time></trkpt><trkpt lat="42.04740104000613" lon="13.124811405295231"><ele>1089.3333333333333</ele><time>2026-04-24T13:15:46Z</time></trkpt><trkpt lat="42.04748390378027" lon="13.124764172870956"><ele>1089.6666666666667</ele><time>2026-04-24T13:15:47Z</time></trkpt><trkpt lat="42.04755937947322" lon="13.1246928845262"><ele>1090.0</ele><time>2026-04-24T13:15:48Z</time></trkpt><trkpt lat="42.047625334492885" lon="13.124608277255438"><ele>1090.3333333333335</ele><time>2026-04-24T13:15:49Z</time></trkpt><trkpt lat="42.04769841209317" lon="13.124541459163666"><ele>1090.6666666666667</ele><time>2026-04-24T13:15:50Z</time></trkpt><trkpt lat="42.04776463864407" lon="13.124470063675417"><ele>1091.0</ele><time>2026-04-24T13:15:51Z</time></trkpt><trkpt lat="42.04783095890857" lon="13.124394841833105"><ele>1091.0</ele><time>2026-04-24T13:15:52Z</time></trkpt><trkpt lat="42.047887258458445" lon="13.124322288225699"><ele>1091.0</ele><time>2026-04-24T13:15:53Z</time></trkpt><trkpt lat="42.047947163277115" lon="13.124249702115184"><ele>1091.0</ele><time>2026-04-24T13:15:54Z</time></trkpt><trkpt lat="42.04800388629526" lon="13.12417522633166"><ele>1091.0</ele><time>2026-04-24T13:15:55Z</time></trkpt><trkpt lat="42.0480691879275" lon="13.1240920691818"><ele>1091.0</ele><time>2026-04-24T13:15:56Z</time></trkpt><trkpt lat="42.048136267781224" lon="13.123989308625747"><ele>1091.0</ele><time>2026-04-24T13:15:57Z</time></trkpt><trkpt lat="42.04819771240666" lon="13.123884718592036"><ele>1090.8</ele><time>2026-04-24T13:15:58Z</time></trkpt><trkpt lat="42.048258064392755" lon="13.123765478460776"><ele>1090.6</ele><time>2026-04-24T13:15:59Z</time></trkpt><trkpt lat="42.04831360582725" lon="13.123650053220695"><ele>1090.4</ele><time>2026-04-24T13:16:00Z</time></trkpt><trkpt lat="42.04836383612944" lon="13.123541301451262"><ele>1090.2</ele><time>2026-04-24T13:16:01Z</time></trkpt><trkpt lat="42.04842030945317" lon="13.12341490827975"><ele>1090.0</ele><time>2026-04-24T13:16:02Z</time></trkpt><trkpt lat="42.04847874884854" lon="13.12326422603326"><ele>1085.75</ele><time>2026-04-24T13:16:03Z</time></trkpt><trkpt lat="42.04851782945028" lon="13.123089820076865"><ele>1081.5</ele><time>2026-04-24T13:16:04Z</time></trkpt><trkpt lat="42.048561967338244" lon="13.122915209104459"><ele>1077.25</ele><time>2026-04-24T13:16:05Z</time></trkpt><trkpt lat="42.0486049013884" lon="13.122753513546083"><ele>1073.0</ele><time>2026-04-24T13:16:06Z</time></trkpt><trkpt lat="42.04864976759137" lon="13.122601407021904"><ele>1073.0</ele><time>2026-04-24T13:16:07Z</time></trkpt><trkpt lat="42.04869890216261" lon="13.122450673801017"><ele>1073.0</ele><time>2026-04-24T13:16:08Z</time></trkpt><trkpt lat="42.048745932146346" lon="13.122290679149495"><ele>1073.0</ele><time>2026-04-24T13:16:09Z</time></trkpt><trkpt lat="42.04879503268843" lon="13.122136364244097"><ele>1073.0</ele><time>2026-04-24T13:16:10Z</time></trkpt><trkpt lat="42.04885456975121" lon="13.121981527282946"><ele>1069.0</ele><time>2026-04-24T13:16:11Z</time></trkpt><trkpt lat="42.048913963115126" lon="13.121824915556356"><ele>1065.0</ele><time>2026-04-24T13:16:12Z</time></trkpt><trkpt lat="42.048967559825435" lon="13.121672364001377"><ele>1061.0</ele><time>2026-04-24T13:16:13Z</time></trkpt><trkpt lat="42.049020973283326" lon="13.121524794094968"><ele>1057.0</ele><time>2026-04-24T13:16:14Z</time></trkpt><trkpt lat="42.049071668124526" lon="13.121387470887269"><ele>1060.0</ele><time>2026-04-24T13:16:15Z</time></trkpt><trkpt lat="42.049121526215664" lon="13.121246405179004"><ele>1063.0</ele><time>2026-04-24T13:16:16Z</time></trkpt><trkpt lat="42.04917020783978" lon="13.121110224574439"><ele>1066.0</ele><time>2026-04-24T13:16:17Z</time></trkpt><trkpt lat="42.04921207852149" lon="13.120985062437082"><ele>1069.0</ele><time>2026-04-24T13:16:18Z</time></trkpt><trkpt lat="42.04925134476663" lon="13.120858816745683"><ele>1072.0</ele><time>2026-04-24T13:16:19Z</time></trkpt><trkpt lat="42.04928918701175" lon="13.120737659159765"><ele>1068.4</ele><time>2026-04-24T13:16:20Z</time></trkpt><trkpt lat="42.049326613128976" lon="13.120611644318211"><ele>1064.8000000000002</ele><time>2026-04-24T13:16:21Z</time></trkpt><trkpt lat="42.04936939669486" lon="13.120473509369157"><ele>1061.2</ele><time>2026-04-24T13:16:22Z</time></trkpt><trkpt lat="42.04940758379634" lon="13.12034049313597"><ele>1057.6000000000001</ele><time>2026-04-24T13:16:23Z</time></trkpt><trkpt lat="42.04944317097424" lon="13.120211970745716"><ele>1054.0</ele><time>2026-04-24T13:16:24Z</time></trkpt><trkpt lat="42.049476480901106" lon="13.120106132072657"><ele>1054.0</ele><time>2026-04-24T13:16:25Z</time></trkpt><trkpt lat="42.04951336424546" lon="13.120020248677823"><ele>1054.0</ele><time>2026-04-24T13:16:26Z</time></trkpt><trkpt lat="42.04956265281362" lon="13.11992928378944"><ele>1054.0</ele><time>2026-04-24T13:16:27Z</time></trkpt><trkpt lat="42.049621934299" lon="13.1198658462451"><ele>1054.0</ele><time>2026-04-24T13:16:28Z</time></trkpt><trkpt lat="42.049686700421326" lon="13.11976815912923"><ele>1054.0</ele><time>2026-04-24T13:16:29Z</time></trkpt><trkpt lat="42.049774810918365" lon="13.119678544935208"><ele>1054.0</ele><time>2026-04-24T13:16:30Z</time></trkpt><trkpt lat="42.04984889630607" lon="13.119573023882507"><ele>1055.25</ele><time>2026-04-24T13:16:31Z</time></trkpt><trkpt lat="42.04991169715932" lon="13.119434860105075"><ele>1056.5</ele><time>2026-04-24T13:16:32Z</time></trkpt><trkpt lat="42.04997504183406" lon="13.119297415385732"><ele>1057.75</ele><time>2026-04-24T13:16:33Z</time></trkpt><trkpt lat="42.05003604708009" lon="13.119165359927317"><ele>1059.0</ele><time>2026-04-24T13:16:34Z</time></trkpt><trkpt lat="42.0500921926071" lon="13.119045585404352"><ele>1052.75</ele><time>2026-04-24T13:16:35Z</time></trkpt><trkpt lat="42.05016172092968" lon="13.118929849709776"><ele>1046.5</ele><time>2026-04-24T13:16:36Z</time></trkpt><trkpt lat="42.05024817766058" lon="13.118815463543742"><ele>1040.25</ele><time>2026-04-24T13:16:37Z</time></trkpt><trkpt lat="42.05032490765153" lon="13.118701936806865"><ele>1034.0</ele><time>2026-04-24T13:16:38Z</time></trkpt><trkpt lat="42.050390284316485" lon="13.118584721317486"><ele>1034.0</ele><time>2026-04-24T13:16:39Z</time></trkpt><trkpt lat="42.05045814083631" lon="13.118491795072034"><ele>1034.0</ele><time>2026-04-24T13:16:40Z</time></trkpt><trkpt lat="42.05052194783629" lon="13.118400762537782"><ele>1034.0</ele><time>2026-04-24T13:16:41Z</time></trkpt><trkpt lat="42.05057495504115" lon="13.118315158753791"><ele>1034.0</ele><time>2026-04-24T13:16:42Z</time></trkpt><trkpt lat="42.05062301644837" lon="13.11825343777259"><ele>1034.0</ele><time>2026-04-24T13:16:43Z</time></trkpt><trkpt lat="42.05067956270139" lon="13.118213953421373"><ele>1034.0</ele><time>2026-04-24T13:16:44Z</time></trkpt><trkpt lat="42.05080043643234" lon="13.118222967448851"><ele>1036.1666666666667</ele><time>2026-04-24T13:16:46Z</time></trkpt><trkpt lat="42.05087085243549" lon="13.118262039074922"><ele>1038.3333333333335</ele><time>2026-04-24T13:16:47Z</time></trkpt><trkpt lat="42.05093989425507" lon="13.118313752630014"><ele>1040.5</ele><time>2026-04-24T13:16:48Z</time></trkpt><trkpt lat="42.05101490137072" lon="13.118378616322833"><ele>1042.6666666666667</ele><time>2026-04-24T13:16:49Z</time></trkpt><trkpt lat="42.05108324746458" lon="13.11843155964969"><ele>1044.8333333333333</ele><time>2026-04-24T13:16:50Z</time></trkpt><trkpt lat="42.05118882155749" lon="13.118496499684078"><ele>1047.0</ele><time>2026-04-24T13:16:52Z</time></trkpt><trkpt lat="42.0513171902196" lon="13.118584050130035"><ele>1047.0</ele><time>2026-04-24T13:16:53Z</time></trkpt><trkpt lat="42.05139801563952" lon="13.11861325909636"><ele>1047.0</ele><time>2026-04-24T13:16:54Z</time></trkpt><trkpt lat="42.051480954849474" lon="13.118637872980335"><ele>1047.0</ele><time>2026-04-24T13:16:55Z</time></trkpt><trkpt lat="42.05157398595582" lon="13.118663362655584"><ele>1047.0</ele><time>2026-04-24T13:16:56Z</time></trkpt><trkpt lat="42.051669130817835" lon="13.11867831240354"><ele>1047.0</ele><time>2026-04-24T13:16:57Z</time></trkpt><trkpt lat="42.051765792099225" lon="13.118683419505823"><ele>1045.75</ele><time>2026-04-24T13:16:58Z</time></trkpt><trkpt lat="42.05186904797115" lon="13.118700831440163"><ele>1044.5</ele><time>2026-04-24T13:16:59Z</time></trkpt><trkpt lat="42.05198127353766" lon="13.118713230711737"><ele>1043.25</ele><time>2026-04-24T13:17:00Z</time></trkpt><trkpt lat="42.0520899854811" lon="13.118721104882988"><ele>1042.0</ele><time>2026-04-24T13:17:01Z</time></trkpt><trkpt lat="42.05221385312412" lon="13.118734047608452"><ele>1042.0</ele><time>2026-04-24T13:17:02Z</time></trkpt><trkpt lat="42.052334966907374" lon="13.118733461072065"><ele>1042.0</ele><time>2026-04-24T13:17:03Z</time></trkpt><trkpt lat="42.05245535494853" lon="13.1187251931371"><ele>1042.0</ele><time>2026-04-24T13:17:04Z</time></trkpt><trkpt lat="42.05257819838941" lon="13.118725621255253"><ele>1042.0</ele><time>2026-04-24T13:17:05Z</time></trkpt><trkpt lat="42.05268782073976" lon="13.118733608581428"><ele>1041.0</ele><time>2026-04-24T13:17:06Z</time></trkpt><trkpt lat="42.05279705800493" lon="13.118744523288173"><ele>1040.0</ele><time>2026-04-24T13:17:07Z</time></trkpt><trkpt lat="42.052894992368884" lon="13.118752774668916"><ele>1039.0</ele><time>2026-04-24T13:17:07.999Z</time></trkpt><trkpt lat="42.05300151086398" lon="13.118738041601683"><ele>1038.0</ele><time>2026-04-24T13:17:08.999Z</time></trkpt><trkpt lat="42.05310026590944" lon="13.118748731659323"><ele>1037.0</ele><time>2026-04-24T13:17:09.999Z</time></trkpt><trkpt lat="42.05317745327958" lon="13.11878529462953"><ele>1037.0</ele><time>2026-04-24T13:17:10.999Z</time></trkpt><trkpt lat="42.05324913979258" lon="13.118812884604973"><ele>1037.0</ele><time>2026-04-24T13:17:11.999Z</time></trkpt><trkpt lat="42.053328436622586" lon="13.118829921708421"><ele>1037.0</ele><time>2026-04-24T13:17:12.999Z</time></trkpt><trkpt lat="42.05343786668764" lon="13.118738900847339"><ele>1037.0</ele><time>2026-04-24T13:17:14.999Z</time></trkpt><trkpt lat="42.053492936123575" lon="13.118630687724494"><ele>1037.0</ele><time>2026-04-24T13:17:15.999Z</time></trkpt><trkpt lat="42.05354629819236" lon="13.118519434345899"><ele>1036.2</ele><time>2026-04-24T13:17:16.999Z</time></trkpt><trkpt lat="42.05360209165845" lon="13.118403449700148"><ele>1035.4</ele><time>2026-04-24T13:17:17.999Z</time></trkpt><trkpt lat="42.053650226785216" lon="13.118308467516362"><ele>1034.6</ele><time>2026-04-24T13:17:18.999Z</time></trkpt><trkpt lat="42.0537037031763" lon="13.118228147097165"><ele>1033.8</ele><time>2026-04-24T13:17:19.999Z</time></trkpt><trkpt lat="42.053769601758205" lon="13.118137683795732"><ele>1033.0</ele><time>2026-04-24T13:17:20.999Z</time></trkpt><trkpt lat="42.05383695105833" lon="13.118049279028659"><ele>1030.0</ele><time>2026-04-24T13:17:21.999Z</time></trkpt><trkpt lat="42.05394787282096" lon="13.117977226480566"><ele>1027.0</ele><time>2026-04-24T13:17:22.999Z</time></trkpt><trkpt lat="42.05405366301228" lon="13.11791660102048"><ele>1024.0</ele><time>2026-04-24T13:17:23.999Z</time></trkpt><trkpt lat="42.05415766120314" lon="13.117854902567244"><ele>1021.0</ele><time>2026-04-24T13:17:24.999Z</time></trkpt><trkpt lat="42.054254089754615" lon="13.11780039007966"><ele>1021.0</ele><time>2026-04-24T13:17:25.999Z</time></trkpt><trkpt lat="42.05434772921525" lon="13.11774113447237"><ele>1020.9999999999999</ele><time>2026-04-24T13:17:26.999Z</time></trkpt><trkpt lat="42.05442645798884" lon="13.117667074926802"><ele>1020.9999999999999</ele><time>2026-04-24T13:17:27.999Z</time></trkpt><trkpt lat="42.054503010186735" lon="13.117602316488995"><ele>1021.0</ele><time>2026-04-24T13:17:28.999Z</time></trkpt><trkpt lat="42.054579795569694" lon="13.117542480046867"><ele>1021.0</ele><time>2026-04-24T13:17:29.999Z</time></trkpt><trkpt lat="42.054651359907574" lon="13.117493476960117"><ele>1020.9999999999999</ele><time>2026-04-24T13:17:30.999Z</time></trkpt><trkpt lat="42.054718029168264" lon="13.117448817376513"><ele>1021.0</ele><time>2026-04-24T13:17:31.999Z</time></trkpt><trkpt lat="42.054778592810464" lon="13.117408199842972"><ele>1021.0</ele><time>2026-04-24T13:17:32.999Z</time></trkpt><trkpt lat="42.05482246377254" lon="13.117336087846587"><ele>1021.0</ele><time>2026-04-24T13:17:33.999Z</time></trkpt><trkpt lat="42.05486067727833" lon="13.117234244411062"><ele>1020.9999999999999</ele><time>2026-04-24T13:17:34.999Z</time></trkpt><trkpt lat="42.054895615330075" lon="13.117124413676796"><ele>1021.0</ele><time>2026-04-24T13:17:35.999Z</time></trkpt><trkpt lat="42.05494352887119" lon="13.117030298959852"><ele>1019.1999999999999</ele><time>2026-04-24T13:17:36.999Z</time></trkpt><trkpt lat="42.05496882021443" lon="13.11691768687326"><ele>1017.3999999999999</ele><time>2026-04-24T13:17:37.999Z</time></trkpt><trkpt lat="42.055039631916436" lon="13.11681986572079"><ele>1015.6</ele><time>2026-04-24T13:17:38.999Z</time></trkpt><trkpt lat="42.05511786273717" lon="13.116743529375658"><ele>1013.8</ele><time>2026-04-24T13:17:39.999Z</time></trkpt><trkpt lat="42.0551984519524" lon="13.116669249219386"><ele>1012.0</ele><time>2026-04-24T13:17:40.999Z</time></trkpt><trkpt lat="42.05525867582772" lon="13.116569692677071"><ele>1008.4999999999999</ele><time>2026-04-24T13:17:41.999Z</time></trkpt><trkpt lat="42.055301907167454" lon="13.116458577263762"><ele>1005.0</ele><time>2026-04-24T13:17:42.999Z</time></trkpt><trkpt lat="42.05533647737609" lon="13.116354002419019"><ele>1001.5</ele><time>2026-04-24T13:17:43.999Z</time></trkpt><trkpt lat="42.055386379874314" lon="13.116271923648284"><ele>998.0</ele><time>2026-04-24T13:17:44.999Z</time></trkpt><trkpt lat="42.05544123488739" lon="13.116193580975951"><ele>994.4999999999999</ele><time>2026-04-24T13:17:45.999Z</time></trkpt><trkpt lat="42.055523282878156" lon="13.116117094672235"><ele>991.0</ele><time>2026-04-24T13:17:46.999Z</time></trkpt><trkpt lat="42.05559198892919" lon="13.116075671404692"><ele>991.0000000000001</ele><time>2026-04-24T13:17:47.999Z</time></trkpt><trkpt lat="42.05566411960745" lon="13.116040607430607"><ele>991.0</ele><time>2026-04-24T13:17:48.999Z</time></trkpt><trkpt lat="42.055728147732914" lon="13.11601343991326"><ele>991.0000000000001</ele><time>2026-04-24T13:17:49.999Z</time></trkpt><trkpt lat="42.05580405059809" lon="13.115984431454294"><ele>991.0000000000001</ele><time>2026-04-24T13:17:51Z</time></trkpt><trkpt lat="42.055871450928265" lon="13.115932046993096"><ele>991.0</ele><time>2026-04-24T13:17:52Z</time></trkpt><trkpt lat="42.055924127141346" lon="13.115870220567167"><ele>991.0000000000001</ele><time>2026-04-24T13:17:53Z</time></trkpt><trkpt lat="42.055983115843745" lon="13.115826951960406"><ele>991.0000000000001</ele><time>2026-04-24T13:17:54Z</time></trkpt><trkpt lat="42.056034053478264" lon="13.115721649445534"><ele>998.0</ele><time>2026-04-24T13:17:56Z</time></trkpt><trkpt lat="42.056091397519964" lon="13.115657734614489"><ele>998.0</ele><time>2026-04-24T13:17:58Z</time></trkpt><trkpt lat="42.05615684409879" lon="13.115629991191378"><ele>998.0</ele><time>2026-04-24T13:18:00Z</time></trkpt></trkseg></trk></gpx>